<?xml version='1.0' encoding='UTF-8'?><gpx version="1.1" creator="JPX - https://github.com/jenetics/jpx" xmlns="http://www.topografix.com/GPX/1/1"><trk><trkseg><trkpt lat="45.6555699" lon="13.8811728"><ele>409.00000000000006</ele><time>2026-04-15T06:56:01.272Z</time></trkpt><trkpt lat="45.6555953" lon="13.881086"><ele>409.0</ele><time>2026-04-15T06:56:04.284Z</time></trkpt><trkpt lat="45.655574" lon="13.880999"><ele>409.0</ele><time>2026-04-15T06:56:07.264Z</time></trkpt><trkpt lat="45.6554782" lon="13.8809813"><ele>409.0</ele><time>2026-04-15T06:56:09.291Z</time></trkpt><trkpt lat="45.6554104" lon="13.8810849"><ele>409.00000000000006</ele><time>2026-04-15T06:56:11.281Z</time></trkpt><trkpt lat="45.6553925" lon="13.8811763"><ele>409.0</ele><time>2026-04-15T06:56:12.293Z</time></trkpt><trkpt lat="45.6554111" lon="13.8814683"><ele>409.00000000000006</ele><time>2026-04-15T06:56:15.267Z</time></trkpt><trkpt lat="45.6554307" lon="13.8815635"><ele>409.0</ele><time>2026-04-15T06:56:16.272Z</time></trkpt><trkpt lat="45.6554278" lon="13.8817023"><ele>409.0</ele><time>2026-04-15T06:56:18.281Z</time></trkpt><trkpt lat="45.6553678" lon="13.8817669"><ele>409.0</ele><time>2026-04-15T06:56:20.37Z</time></trkpt><trkpt lat="45.6552901" lon="13.8817597"><ele>409.00000000000006</ele><time>2026-04-15T06:56:22.266Z</time></trkpt><trkpt lat="45.6552289" lon="13.8816971"><ele>409.0</ele><time>2026-04-15T06:56:23.272Z</time></trkpt><trkpt lat="45.6551681" lon="13.8816016"><ele>409.79999999999995</ele><time>2026-04-15T06:56:24.365Z</time></trkpt><trkpt lat="45.6550985" lon="13.8815044"><ele>410.59999999999997</ele><time>2026-04-15T06:56:25.363Z</time></trkpt><trkpt lat="45.6550253" lon="13.8813978"><ele>411.4</ele><time>2026-04-15T06:56:26.361Z</time></trkpt><trkpt lat="45.6549314" lon="13.8812837"><ele>412.2</ele><time>2026-04-15T06:56:27.37Z</time></trkpt><trkpt lat="45.654841" lon="13.8811802"><ele>413.0</ele><time>2026-04-15T06:56:28.357Z</time></trkpt><trkpt lat="45.6547481" lon="13.8810889"><ele>413.0</ele><time>2026-04-15T06:56:29.276Z</time></trkpt><trkpt lat="45.654655" lon="13.8810155"><ele>413.0</ele><time>2026-04-15T06:56:30.375Z</time></trkpt><trkpt lat="45.6545602" lon="13.8809486"><ele>413.0</ele><time>2026-04-15T06:56:31.368Z</time></trkpt><trkpt lat="45.6544661" lon="13.8808751"><ele>413.0</ele><time>2026-04-15T06:56:32.367Z</time></trkpt><trkpt lat="45.6543718" lon="13.8807932"><ele>413.0</ele><time>2026-04-15T06:56:33.362Z</time></trkpt><trkpt lat="45.6542721" lon="13.8807096"><ele>412.75</ele><time>2026-04-15T06:56:34.369Z</time></trkpt><trkpt lat="45.6541637" lon="13.880624"><ele>412.5</ele><time>2026-04-15T06:56:35.368Z</time></trkpt><trkpt lat="45.6540461" lon="13.8805379"><ele>412.25</ele><time>2026-04-15T06:56:36.361Z</time></trkpt><trkpt lat="45.6539173" lon="13.8804503"><ele>412.0</ele><time>2026-04-15T06:56:37.366Z</time></trkpt><trkpt lat="45.6537903" lon="13.8803592"><ele>412.0</ele><time>2026-04-15T06:56:38.358Z</time></trkpt><trkpt lat="45.6536748" lon="13.8802732"><ele>412.0</ele><time>2026-04-15T06:56:39.371Z</time></trkpt><trkpt lat="45.6535654" lon="13.8801951"><ele>412.0</ele><time>2026-04-15T06:56:40.357Z</time></trkpt><trkpt lat="45.65346" lon="13.8801187"><ele>412.0</ele><time>2026-04-15T06:56:41.359Z</time></trkpt><trkpt lat="45.6533512" lon="13.8800437"><ele>410.75</ele><time>2026-04-15T06:56:42.372Z</time></trkpt><trkpt lat="45.653246" lon="13.8799692"><ele>409.5</ele><time>2026-04-15T06:56:43.362Z</time></trkpt><trkpt lat="45.6531355" lon="13.879907"><ele>408.25</ele><time>2026-04-15T06:56:44.377Z</time></trkpt><trkpt lat="45.6530239" lon="13.879843"><ele>407.0</ele><time>2026-04-15T06:56:45.36Z</time></trkpt><trkpt lat="45.6529128" lon="13.879778"><ele>407.0</ele><time>2026-04-15T06:56:46.367Z</time></trkpt><trkpt lat="45.6528045" lon="13.8797088"><ele>407.0</ele><time>2026-04-15T06:56:47.368Z</time></trkpt><trkpt lat="45.6526919" lon="13.8796332"><ele>407.0</ele><time>2026-04-15T06:56:48.368Z</time></trkpt><trkpt lat="45.652579" lon="13.8795578"><ele>407.0</ele><time>2026-04-15T06:56:49.377Z</time></trkpt><trkpt lat="45.6524696" lon="13.8794873"><ele>407.0</ele><time>2026-04-15T06:56:50.361Z</time></trkpt><trkpt lat="45.6523618" lon="13.8794142"><ele>407.0</ele><time>2026-04-15T06:56:51.365Z</time></trkpt><trkpt lat="45.652254" lon="13.8793413"><ele>407.0</ele><time>2026-04-15T06:56:52.379Z</time></trkpt><trkpt lat="45.6521491" lon="13.8792592"><ele>407.0</ele><time>2026-04-15T06:56:53.363Z</time></trkpt><trkpt lat="45.6520453" lon="13.8791773"><ele>406.40000000000003</ele><time>2026-04-15T06:56:54.362Z</time></trkpt><trkpt lat="45.651945" lon="13.8791003"><ele>405.8</ele><time>2026-04-15T06:56:55.371Z</time></trkpt><trkpt lat="45.6518513" lon="13.8790234"><ele>405.2</ele><time>2026-04-15T06:56:56.372Z</time></trkpt><trkpt lat="45.6517655" lon="13.8789442"><ele>404.6</ele><time>2026-04-15T06:56:57.372Z</time></trkpt><trkpt lat="45.6516809" lon="13.8788595"><ele>404.0</ele><time>2026-04-15T06:56:58.356Z</time></trkpt><trkpt lat="45.6516012" lon="13.8787713"><ele>404.0</ele><time>2026-04-15T06:56:59.366Z</time></trkpt><trkpt lat="45.6515255" lon="13.8786699"><ele>404.0</ele><time>2026-04-15T06:57:00.373Z</time></trkpt><trkpt lat="45.6514435" lon="13.8785616"><ele>404.0</ele><time>2026-04-15T06:57:01.386Z</time></trkpt><trkpt lat="45.6513593" lon="13.8784548"><ele>404.0</ele><time>2026-04-15T06:57:02.374Z</time></trkpt><trkpt lat="45.6512664" lon="13.8783468"><ele>404.0</ele><time>2026-04-15T06:57:03.388Z</time></trkpt><trkpt lat="45.6511607" lon="13.8782348"><ele>403.3333333333333</ele><time>2026-04-15T06:57:04.367Z</time></trkpt><trkpt lat="45.6510478" lon="13.8780967"><ele>402.66666666666663</ele><time>2026-04-15T06:57:05.374Z</time></trkpt><trkpt lat="45.6509266" lon="13.8779481"><ele>402.0</ele><time>2026-04-15T06:57:06.355Z</time></trkpt><trkpt lat="45.6507924" lon="13.8778001"><ele>402.0</ele><time>2026-04-15T06:57:07.354Z</time></trkpt><trkpt lat="45.650661" lon="13.8776469"><ele>402.0</ele><time>2026-04-15T06:57:08.36Z</time></trkpt><trkpt lat="45.6505281" lon="13.8774953"><ele>402.0</ele><time>2026-04-15T06:57:09.375Z</time></trkpt><trkpt lat="45.6503911" lon="13.8773401"><ele>400.66666666666663</ele><time>2026-04-15T06:57:10.372Z</time></trkpt><trkpt lat="45.6502481" lon="13.877185"><ele>399.3333333333333</ele><time>2026-04-15T06:57:11.365Z</time></trkpt><trkpt lat="45.6501099" lon="13.877027"><ele>398.0</ele><time>2026-04-15T06:57:12.422Z</time></trkpt><trkpt lat="45.6499675" lon="13.8768699"><ele>397.66666666666663</ele><time>2026-04-15T06:57:13.375Z</time></trkpt><trkpt lat="45.6498276" lon="13.8767095"><ele>397.33333333333337</ele><time>2026-04-15T06:57:14.354Z</time></trkpt><trkpt lat="45.6496792" lon="13.8765516"><ele>397.0</ele><time>2026-04-15T06:57:15.356Z</time></trkpt><trkpt lat="45.6493972" lon="13.876241"><ele>397.0</ele><time>2026-04-15T06:57:17.363Z</time></trkpt><trkpt lat="45.6492586" lon="13.8760902"><ele>397.0</ele><time>2026-04-15T06:57:18.35Z</time></trkpt><trkpt lat="45.6491178" lon="13.8759341"><ele>397.0</ele><time>2026-04-15T06:57:19.362Z</time></trkpt><trkpt lat="45.648974" lon="13.8757798"><ele>396.0</ele><time>2026-04-15T06:57:20.366Z</time></trkpt><trkpt lat="45.6488097" lon="13.8756065"><ele>395.0</ele><time>2026-04-15T06:57:21.353Z</time></trkpt><trkpt lat="45.6486274" lon="13.8754153"><ele>394.0</ele><time>2026-04-15T06:57:22.362Z</time></trkpt><trkpt lat="45.6484437" lon="13.8752195"><ele>392.5</ele><time>2026-04-15T06:57:23.376Z</time></trkpt><trkpt lat="45.6482598" lon="13.8750061"><ele>391.0</ele><time>2026-04-15T06:57:24.354Z</time></trkpt><trkpt lat="45.6480724" lon="13.8747911"><ele>391.0</ele><time>2026-04-15T06:57:25.366Z</time></trkpt><trkpt lat="45.6478829" lon="13.8745787"><ele>391.0</ele><time>2026-04-15T06:57:26.349Z</time></trkpt><trkpt lat="45.6476956" lon="13.8743601"><ele>390.5</ele><time>2026-04-15T06:57:27.367Z</time></trkpt><trkpt lat="45.6475041" lon="13.8741392"><ele>390.0</ele><time>2026-04-15T06:57:28.355Z</time></trkpt><trkpt lat="45.6473156" lon="13.8739203"><ele>390.0</ele><time>2026-04-15T06:57:29.355Z</time></trkpt><trkpt lat="45.6471248" lon="13.8737077"><ele>390.0</ele><time>2026-04-15T06:57:30.35Z</time></trkpt><trkpt lat="45.6469365" lon="13.873495"><ele>389.0</ele><time>2026-04-15T06:57:31.35Z</time></trkpt><trkpt lat="45.6467417" lon="13.8732888"><ele>388.0</ele><time>2026-04-15T06:57:32.36Z</time></trkpt><trkpt lat="45.6465517" lon="13.8730789"><ele>388.0</ele><time>2026-04-15T06:57:33.349Z</time></trkpt><trkpt lat="45.6461909" lon="13.8726708"><ele>388.33333333333337</ele><time>2026-04-15T06:57:35.364Z</time></trkpt><trkpt lat="45.646033" lon="13.8724713"><ele>388.66666666666663</ele><time>2026-04-15T06:57:36.351Z</time></trkpt><trkpt lat="45.6458742" lon="13.8722542"><ele>389.0</ele><time>2026-04-15T06:57:37.358Z</time></trkpt><trkpt lat="45.6457308" lon="13.8720126"><ele>388.0</ele><time>2026-04-15T06:57:38.365Z</time></trkpt><trkpt lat="45.6456065" lon="13.8717479"><ele>387.0</ele><time>2026-04-15T06:57:39.354Z</time></trkpt><trkpt lat="45.6454772" lon="13.8714839"><ele>386.0</ele><time>2026-04-15T06:57:40.348Z</time></trkpt><trkpt lat="45.6453507" lon="13.8712216"><ele>386.3333333333333</ele><time>2026-04-15T06:57:41.355Z</time></trkpt><trkpt lat="45.6452289" lon="13.8709624"><ele>386.66666666666663</ele><time>2026-04-15T06:57:42.349Z</time></trkpt><trkpt lat="45.6451056" lon="13.8707097"><ele>387.0</ele><time>2026-04-15T06:57:43.352Z</time></trkpt><trkpt lat="45.6449796" lon="13.870463"><ele>386.66666666666663</ele><time>2026-04-15T06:57:44.349Z</time></trkpt><trkpt lat="45.6448573" lon="13.8702202"><ele>386.3333333333333</ele><time>2026-04-15T06:57:45.365Z</time></trkpt><trkpt lat="45.6447332" lon="13.8699813"><ele>386.0</ele><time>2026-04-15T06:57:46.361Z</time></trkpt><trkpt lat="45.6446125" lon="13.8697451"><ele>386.0</ele><time>2026-04-15T06:57:47.348Z</time></trkpt><trkpt lat="45.644497" lon="13.8695106"><ele>386.0</ele><time>2026-04-15T06:57:48.362Z</time></trkpt><trkpt lat="45.644383" lon="13.8692892"><ele>386.0</ele><time>2026-04-15T06:57:49.352Z</time></trkpt><trkpt lat="45.6442728" lon="13.8690766"><ele>386.0</ele><time>2026-04-15T06:57:50.355Z</time></trkpt><trkpt lat="45.6441663" lon="13.868866"><ele>386.0</ele><time>2026-04-15T06:57:51.357Z</time></trkpt><trkpt lat="45.6440578" lon="13.8686598"><ele>386.0</ele><time>2026-04-15T06:57:52.371Z</time></trkpt><trkpt lat="45.6439538" lon="13.8684513"><ele>385.66666666666663</ele><time>2026-04-15T06:57:53.356Z</time></trkpt><trkpt lat="45.6438476" lon="13.8682463"><ele>385.33333333333337</ele><time>2026-04-15T06:57:54.348Z</time></trkpt><trkpt lat="45.6437387" lon="13.8680383"><ele>385.0</ele><time>2026-04-15T06:57:55.351Z</time></trkpt><trkpt lat="45.6436277" lon="13.8678296"><ele>385.0</ele><time>2026-04-15T06:57:56.371Z</time></trkpt><trkpt lat="45.6435143" lon="13.8676298"><ele>385.0</ele><time>2026-04-15T06:57:57.355Z</time></trkpt><trkpt lat="45.6434048" lon="13.8674289"><ele>385.0</ele><time>2026-04-15T06:57:58.354Z</time></trkpt><trkpt lat="45.6433003" lon="13.8672196"><ele>384.6666666666667</ele><time>2026-04-15T06:57:59.346Z</time></trkpt><trkpt lat="45.6431953" lon="13.8670183"><ele>384.33333333333337</ele><time>2026-04-15T06:58:00.351Z</time></trkpt><trkpt lat="45.6430942" lon="13.866826"><ele>384.0</ele><time>2026-04-15T06:58:01.348Z</time></trkpt><trkpt lat="45.6429965" lon="13.8666379"><ele>383.6666666666667</ele><time>2026-04-15T06:58:02.366Z</time></trkpt><trkpt lat="45.642901" lon="13.8664519"><ele>383.33333333333337</ele><time>2026-04-15T06:58:03.351Z</time></trkpt><trkpt lat="45.6428095" lon="13.8662699"><ele>383.0</ele><time>2026-04-15T06:58:04.357Z</time></trkpt><trkpt lat="45.6427204" lon="13.8660959"><ele>382.75</ele><time>2026-04-15T06:58:05.355Z</time></trkpt><trkpt lat="45.6426336" lon="13.8659232"><ele>382.5</ele><time>2026-04-15T06:58:06.354Z</time></trkpt><trkpt lat="45.6425461" lon="13.8657514"><ele>382.25</ele><time>2026-04-15T06:58:07.365Z</time></trkpt><trkpt lat="45.6424596" lon="13.8655869"><ele>382.0</ele><time>2026-04-15T06:58:08.356Z</time></trkpt><trkpt lat="45.6423719" lon="13.8654161"><ele>382.0</ele><time>2026-04-15T06:58:09.344Z</time></trkpt><trkpt lat="45.6422894" lon="13.865245"><ele>382.0</ele><time>2026-04-15T06:58:10.347Z</time></trkpt><trkpt lat="45.6422063" lon="13.8650717"><ele>382.0</ele><time>2026-04-15T06:58:11.352Z</time></trkpt><trkpt lat="45.6421259" lon="13.8649031"><ele>382.0</ele><time>2026-04-15T06:58:12.352Z</time></trkpt><trkpt lat="45.6420537" lon="13.8647397"><ele>381.75</ele><time>2026-04-15T06:58:13.351Z</time></trkpt><trkpt lat="45.6419941" lon="13.8645759"><ele>381.5</ele><time>2026-04-15T06:58:14.356Z</time></trkpt><trkpt lat="45.6419437" lon="13.8644136"><ele>381.25</ele><time>2026-04-15T06:58:15.373Z</time></trkpt><trkpt lat="45.6418949" lon="13.8642552"><ele>381.0</ele><time>2026-04-15T06:58:16.371Z</time></trkpt><trkpt lat="45.6418521" lon="13.8640996"><ele>381.0</ele><time>2026-04-15T06:58:17.345Z</time></trkpt><trkpt lat="45.6418093" lon="13.863956"><ele>381.0</ele><time>2026-04-15T06:58:18.343Z</time></trkpt><trkpt lat="45.6417688" lon="13.8638186"><ele>381.0</ele><time>2026-04-15T06:58:19.348Z</time></trkpt><trkpt lat="45.641732" lon="13.8636738"><ele>381.0</ele><time>2026-04-15T06:58:20.35Z</time></trkpt><trkpt lat="45.6416905" lon="13.8635316"><ele>381.0</ele><time>2026-04-15T06:58:21.358Z</time></trkpt><trkpt lat="45.6416494" lon="13.8633892"><ele>380.75</ele><time>2026-04-15T06:58:22.364Z</time></trkpt><trkpt lat="45.6416064" lon="13.8632417"><ele>380.5</ele><time>2026-04-15T06:58:23.339Z</time></trkpt><trkpt lat="45.6415668" lon="13.8630825"><ele>380.25</ele><time>2026-04-15T06:58:24.358Z</time></trkpt><trkpt lat="45.6415236" lon="13.8629273"><ele>380.0</ele><time>2026-04-15T06:58:25.358Z</time></trkpt><trkpt lat="45.6414767" lon="13.8627704"><ele>379.6</ele><time>2026-04-15T06:58:26.35Z</time></trkpt><trkpt lat="45.6414286" lon="13.8626068"><ele>379.2</ele><time>2026-04-15T06:58:27.351Z</time></trkpt><trkpt lat="45.6413889" lon="13.8624583"><ele>378.79999999999995</ele><time>2026-04-15T06:58:28.347Z</time></trkpt><trkpt lat="45.6413609" lon="13.8623438"><ele>378.4</ele><time>2026-04-15T06:58:29.344Z</time></trkpt><trkpt lat="45.6413463" lon="13.8622543"><ele>378.0</ele><time>2026-04-15T06:58:30.354Z</time></trkpt><trkpt lat="45.6413343" lon="13.8621579"><ele>378.0</ele><time>2026-04-15T06:58:32.354Z</time></trkpt><trkpt lat="45.6412901" lon="13.8620602"><ele>378.0</ele><time>2026-04-15T06:58:36.349Z</time></trkpt><trkpt lat="45.6412637" lon="13.8619653"><ele>378.0</ele><time>2026-04-15T06:58:38.364Z</time></trkpt><trkpt lat="45.6412388" lon="13.8618228"><ele>378.0</ele><time>2026-04-15T06:58:40.35Z</time></trkpt><trkpt lat="45.6412003" lon="13.8616331"><ele>378.0</ele><time>2026-04-15T06:58:42.35Z</time></trkpt><trkpt lat="45.6411697" lon="13.861503"><ele>378.25</ele><time>2026-04-15T06:58:43.349Z</time></trkpt><trkpt lat="45.6411342" lon="13.861362"><ele>378.5</ele><time>2026-04-15T06:58:44.37Z</time></trkpt><trkpt lat="45.6411077" lon="13.8612161"><ele>378.75</ele><time>2026-04-15T06:58:45.34Z</time></trkpt><trkpt lat="45.6410749" lon="13.8610533"><ele>379.0</ele><time>2026-04-15T06:58:46.354Z</time></trkpt><trkpt lat="45.6410368" lon="13.8608869"><ele>379.0</ele><time>2026-04-15T06:58:47.34Z</time></trkpt><trkpt lat="45.6409991" lon="13.8607239"><ele>379.0</ele><time>2026-04-15T06:58:48.367Z</time></trkpt><trkpt lat="45.6409625" lon="13.8605632"><ele>379.0</ele><time>2026-04-15T06:58:49.355Z</time></trkpt><trkpt lat="45.6409318" lon="13.8604054"><ele>379.0</ele><time>2026-04-15T06:58:50.347Z</time></trkpt><trkpt lat="45.6409008" lon="13.8602463"><ele>378.5</ele><time>2026-04-15T06:58:51.343Z</time></trkpt><trkpt lat="45.6408655" lon="13.8600827"><ele>378.0</ele><time>2026-04-15T06:58:52.364Z</time></trkpt><trkpt lat="45.6408291" lon="13.8599174"><ele>377.5</ele><time>2026-04-15T06:58:53.337Z</time></trkpt><trkpt lat="45.6407899" lon="13.8597413"><ele>377.0</ele><time>2026-04-15T06:58:54.338Z</time></trkpt><trkpt lat="45.640755" lon="13.8595606"><ele>377.0</ele><time>2026-04-15T06:58:55.347Z</time></trkpt><trkpt lat="45.6407176" lon="13.8593805"><ele>377.0</ele><time>2026-04-15T06:58:56.355Z</time></trkpt><trkpt lat="45.6406763" lon="13.8592054"><ele>377.0</ele><time>2026-04-15T06:58:57.358Z</time></trkpt><trkpt lat="45.6406388" lon="13.8590354"><ele>377.0</ele><time>2026-04-15T06:58:58.34Z</time></trkpt><trkpt lat="45.640611" lon="13.858875"><ele>376.20000000000005</ele><time>2026-04-15T06:58:59.351Z</time></trkpt><trkpt lat="45.6405908" lon="13.8587421"><ele>375.4</ele><time>2026-04-15T06:59:00.35Z</time></trkpt><trkpt lat="45.6405702" lon="13.858615"><ele>374.6</ele><time>2026-04-15T06:59:01.334Z</time></trkpt><trkpt lat="45.640539" lon="13.8584799"><ele>373.79999999999995</ele><time>2026-04-15T06:59:02.339Z</time></trkpt><trkpt lat="45.6405103" lon="13.8583291"><ele>373.0</ele><time>2026-04-15T06:59:03.337Z</time></trkpt><trkpt lat="45.6404751" lon="13.858159"><ele>372.5</ele><time>2026-04-15T06:59:04.341Z</time></trkpt><trkpt lat="45.6404382" lon="13.8579616"><ele>372.0</ele><time>2026-04-15T06:59:05.346Z</time></trkpt><trkpt lat="45.6403943" lon="13.8577651"><ele>371.5</ele><time>2026-04-15T06:59:06.337Z</time></trkpt><trkpt lat="45.64035" lon="13.857565"><ele>371.0</ele><time>2026-04-15T06:59:07.339Z</time></trkpt><trkpt lat="45.6403018" lon="13.8573565"><ele>370.6666666666667</ele><time>2026-04-15T06:59:08.339Z</time></trkpt><trkpt lat="45.6402541" lon="13.857147"><ele>370.3333333333333</ele><time>2026-04-15T06:59:09.337Z</time></trkpt><trkpt lat="45.6402082" lon="13.8569275"><ele>370.0</ele><time>2026-04-15T06:59:10.341Z</time></trkpt><trkpt lat="45.6401576" lon="13.8567058"><ele>368.66666666666663</ele><time>2026-04-15T06:59:11.34Z</time></trkpt><trkpt lat="45.6401058" lon="13.8564762"><ele>367.3333333333333</ele><time>2026-04-15T06:59:12.34Z</time></trkpt><trkpt lat="45.6400573" lon="13.8562491"><ele>366.0</ele><time>2026-04-15T06:59:13.372Z</time></trkpt><trkpt lat="45.6400092" lon="13.8560159"><ele>365.3333333333333</ele><time>2026-04-15T06:59:14.337Z</time></trkpt><trkpt lat="45.6399594" lon="13.8557788"><ele>364.66666666666663</ele><time>2026-04-15T06:59:15.336Z</time></trkpt><trkpt lat="45.6399056" lon="13.8555421"><ele>364.0</ele><time>2026-04-15T06:59:16.345Z</time></trkpt><trkpt lat="45.6398497" lon="13.8553052"><ele>363.66666666666663</ele><time>2026-04-15T06:59:17.34Z</time></trkpt><trkpt lat="45.6397908" lon="13.8550574"><ele>363.3333333333333</ele><time>2026-04-15T06:59:18.362Z</time></trkpt><trkpt lat="45.6397264" lon="13.8548073"><ele>363.0</ele><time>2026-04-15T06:59:19.33Z</time></trkpt><trkpt lat="45.6396644" lon="13.8545525"><ele>363.0</ele><time>2026-04-15T06:59:20.341Z</time></trkpt><trkpt lat="45.6396096" lon="13.8543058"><ele>363.0</ele><time>2026-04-15T06:59:21.331Z</time></trkpt><trkpt lat="45.6395576" lon="13.8540625"><ele>363.0</ele><time>2026-04-15T06:59:22.344Z</time></trkpt><trkpt lat="45.6395044" lon="13.8538164"><ele>363.0</ele><time>2026-04-15T06:59:23.34Z</time></trkpt><trkpt lat="45.6394517" lon="13.8535754"><ele>363.0</ele><time>2026-04-15T06:59:24.349Z</time></trkpt><trkpt lat="45.6393977" lon="13.8533368"><ele>363.0</ele><time>2026-04-15T06:59:25.344Z</time></trkpt><trkpt lat="45.6393427" lon="13.8530959"><ele>363.0</ele><time>2026-04-15T06:59:26.34Z</time></trkpt><trkpt lat="45.6392922" lon="13.8528623"><ele>363.0</ele><time>2026-04-15T06:59:27.33Z</time></trkpt><trkpt lat="45.6392428" lon="13.8526241"><ele>363.0</ele><time>2026-04-15T06:59:28.338Z</time></trkpt><trkpt lat="45.6391872" lon="13.852378"><ele>363.3333333333333</ele><time>2026-04-15T06:59:29.338Z</time></trkpt><trkpt lat="45.6391148" lon="13.8521044"><ele>363.66666666666663</ele><time>2026-04-15T06:59:30.338Z</time></trkpt><trkpt lat="45.6390436" lon="13.8518021"><ele>364.0</ele><time>2026-04-15T06:59:31.344Z</time></trkpt><trkpt lat="45.6389869" lon="13.8514884"><ele>365.5</ele><time>2026-04-15T06:59:32.345Z</time></trkpt><trkpt lat="45.6389244" lon="13.851161"><ele>367.0</ele><time>2026-04-15T06:59:33.333Z</time></trkpt><trkpt lat="45.6388575" lon="13.8508288"><ele>368.0</ele><time>2026-04-15T06:59:34.343Z</time></trkpt><trkpt lat="45.6387815" lon="13.8504926"><ele>369.0</ele><time>2026-04-15T06:59:35.345Z</time></trkpt><trkpt lat="45.63871" lon="13.8501652"><ele>369.0</ele><time>2026-04-15T06:59:36.339Z</time></trkpt><trkpt lat="45.6386368" lon="13.8498415"><ele>369.0</ele><time>2026-04-15T06:59:37.329Z</time></trkpt><trkpt lat="45.6385647" lon="13.849523"><ele>369.5</ele><time>2026-04-15T06:59:38.33Z</time></trkpt><trkpt lat="45.6384969" lon="13.8492092"><ele>370.0</ele><time>2026-04-15T06:59:39.336Z</time></trkpt><trkpt lat="45.6384323" lon="13.8489001"><ele>370.0</ele><time>2026-04-15T06:59:40.341Z</time></trkpt><trkpt lat="45.6383667" lon="13.8485988"><ele>370.0</ele><time>2026-04-15T06:59:41.332Z</time></trkpt><trkpt lat="45.6382315" lon="13.8480173"><ele>371.0</ele><time>2026-04-15T06:59:43.339Z</time></trkpt><trkpt lat="45.6381689" lon="13.8477426"><ele>372.0</ele><time>2026-04-15T06:59:44.328Z</time></trkpt><trkpt lat="45.6380422" lon="13.8472377"><ele>372.3333333333333</ele><time>2026-04-15T06:59:46.336Z</time></trkpt><trkpt lat="45.6379836" lon="13.8469977"><ele>372.66666666666663</ele><time>2026-04-15T06:59:47.325Z</time></trkpt><trkpt lat="45.6379299" lon="13.8467683"><ele>373.0</ele><time>2026-04-15T06:59:48.326Z</time></trkpt><trkpt lat="45.6378857" lon="13.8465455"><ele>373.0</ele><time>2026-04-15T06:59:49.333Z</time></trkpt><trkpt lat="45.6378382" lon="13.846339"><ele>373.0</ele><time>2026-04-15T06:59:50.329Z</time></trkpt><trkpt lat="45.6377924" lon="13.8461446"><ele>373.0</ele><time>2026-04-15T06:59:51.332Z</time></trkpt><trkpt lat="45.6377452" lon="13.8459516"><ele>373.0</ele><time>2026-04-15T06:59:52.345Z</time></trkpt><trkpt lat="45.6376967" lon="13.8457655"><ele>372.25</ele><time>2026-04-15T06:59:53.33Z</time></trkpt><trkpt lat="45.6376489" lon="13.8455758"><ele>371.5</ele><time>2026-04-15T06:59:54.335Z</time></trkpt><trkpt lat="45.637604" lon="13.8453964"><ele>370.75</ele><time>2026-04-15T06:59:55.329Z</time></trkpt><trkpt lat="45.6375607" lon="13.8452153"><ele>370.0</ele><time>2026-04-15T06:59:56.33Z</time></trkpt><trkpt lat="45.6375191" lon="13.8450353"><ele>370.0</ele><time>2026-04-15T06:59:57.327Z</time></trkpt><trkpt lat="45.6374755" lon="13.8448527"><ele>370.0</ele><time>2026-04-15T06:59:58.349Z</time></trkpt><trkpt lat="45.6374302" lon="13.8446781"><ele>370.0</ele><time>2026-04-15T06:59:59.332Z</time></trkpt><trkpt lat="45.6373834" lon="13.8445152"><ele>370.0</ele><time>2026-04-15T07:00:00.335Z</time></trkpt><trkpt lat="45.6373281" lon="13.8443577"><ele>369.5</ele><time>2026-04-15T07:00:01.333Z</time></trkpt><trkpt lat="45.6372594" lon="13.8442137"><ele>369.0</ele><time>2026-04-15T07:00:02.329Z</time></trkpt><trkpt lat="45.6371748" lon="13.8440899"><ele>368.5</ele><time>2026-04-15T07:00:03.32Z</time></trkpt><trkpt lat="45.6370818" lon="13.8439879"><ele>368.0</ele><time>2026-04-15T07:00:04.32Z</time></trkpt><trkpt lat="45.636977" lon="13.8438957"><ele>367.5</ele><time>2026-04-15T07:00:05.339Z</time></trkpt><trkpt lat="45.6368666" lon="13.843812"><ele>367.0</ele><time>2026-04-15T07:00:06.323Z</time></trkpt><trkpt lat="45.6367534" lon="13.8437424"><ele>366.5</ele><time>2026-04-15T07:00:07.323Z</time></trkpt><trkpt lat="45.6366381" lon="13.8436846"><ele>366.0</ele><time>2026-04-15T07:00:08.329Z</time></trkpt><trkpt lat="45.6365026" lon="13.8436754"><ele>366.0</ele><time>2026-04-15T07:00:09.325Z</time></trkpt><trkpt lat="45.636358" lon="13.8436914"><ele>366.0</ele><time>2026-04-15T07:00:10.331Z</time></trkpt><trkpt lat="45.6362121" lon="13.8437241"><ele>366.0</ele><time>2026-04-15T07:00:11.321Z</time></trkpt><trkpt lat="45.636063" lon="13.8437499"><ele>366.0</ele><time>2026-04-15T07:00:12.338Z</time></trkpt><trkpt lat="45.6359246" lon="13.8437809"><ele>365.25</ele><time>2026-04-15T07:00:13.328Z</time></trkpt><trkpt lat="45.63579" lon="13.8438286"><ele>364.5</ele><time>2026-04-15T07:00:14.32Z</time></trkpt><trkpt lat="45.63565" lon="13.843878"><ele>363.75</ele><time>2026-04-15T07:00:15.318Z</time></trkpt><trkpt lat="45.6355187" lon="13.8439032"><ele>363.0</ele><time>2026-04-15T07:00:16.331Z</time></trkpt><trkpt lat="45.6354009" lon="13.8439117"><ele>362.2</ele><time>2026-04-15T07:00:17.33Z</time></trkpt><trkpt lat="45.635292" lon="13.8438998"><ele>361.4</ele><time>2026-04-15T07:00:18.322Z</time></trkpt><trkpt lat="45.6352098" lon="13.8438387"><ele>360.59999999999997</ele><time>2026-04-15T07:00:19.323Z</time></trkpt><trkpt lat="45.6351552" lon="13.8437227"><ele>359.79999999999995</ele><time>2026-04-15T07:00:20.318Z</time></trkpt><trkpt lat="45.635136" lon="13.8435933"><ele>359.0</ele><time>2026-04-15T07:00:21.334Z</time></trkpt><trkpt lat="45.6351476" lon="13.8434528"><ele>358.25</ele><time>2026-04-15T07:00:22.343Z</time></trkpt><trkpt lat="45.6352099" lon="13.8433213"><ele>357.5</ele><time>2026-04-15T07:00:23.327Z</time></trkpt><trkpt lat="45.635289" lon="13.843226"><ele>356.75</ele><time>2026-04-15T07:00:24.327Z</time></trkpt><trkpt lat="45.6353853" lon="13.8431364"><ele>356.0</ele><time>2026-04-15T07:00:25.322Z</time></trkpt><trkpt lat="45.6354926" lon="13.8430509"><ele>356.0</ele><time>2026-04-15T07:00:26.328Z</time></trkpt><trkpt lat="45.6355999" lon="13.8429458"><ele>356.0</ele><time>2026-04-15T07:00:27.317Z</time></trkpt><trkpt lat="45.6356979" lon="13.8428186"><ele>356.0</ele><time>2026-04-15T07:00:28.323Z</time></trkpt><trkpt lat="45.6357787" lon="13.8426756"><ele>356.0</ele><time>2026-04-15T07:00:29.319Z</time></trkpt><trkpt lat="45.6358475" lon="13.8425145"><ele>354.0</ele><time>2026-04-15T07:00:30.322Z</time></trkpt><trkpt lat="45.6358987" lon="13.842318"><ele>352.0</ele><time>2026-04-15T07:00:31.329Z</time></trkpt><trkpt lat="45.6359507" lon="13.8421224"><ele>350.0</ele><time>2026-04-15T07:00:32.319Z</time></trkpt><trkpt lat="45.6360039" lon="13.8419284"><ele>348.0</ele><time>2026-04-15T07:00:33.318Z</time></trkpt><trkpt lat="45.6360458" lon="13.8417217"><ele>346.0</ele><time>2026-04-15T07:00:34.339Z</time></trkpt><trkpt lat="45.6360748" lon="13.8415016"><ele>344.0</ele><time>2026-04-15T07:00:35.323Z</time></trkpt><trkpt lat="45.6360743" lon="13.8412691"><ele>342.0</ele><time>2026-04-15T07:00:36.354Z</time></trkpt><trkpt lat="45.6360488" lon="13.8410406"><ele>340.6666666666667</ele><time>2026-04-15T07:00:37.334Z</time></trkpt><trkpt lat="45.6360241" lon="13.8408196"><ele>339.33333333333337</ele><time>2026-04-15T07:00:38.315Z</time></trkpt><trkpt lat="45.6360041" lon="13.840608"><ele>338.0</ele><time>2026-04-15T07:00:39.32Z</time></trkpt><trkpt lat="45.635985" lon="13.8403968"><ele>338.0</ele><time>2026-04-15T07:00:40.338Z</time></trkpt><trkpt lat="45.6359722" lon="13.8402003"><ele>338.0</ele><time>2026-04-15T07:00:41.327Z</time></trkpt><trkpt lat="45.6359666" lon="13.840002"><ele>338.0</ele><time>2026-04-15T07:00:42.319Z</time></trkpt><trkpt lat="45.635973" lon="13.8397849"><ele>338.0</ele><time>2026-04-15T07:00:43.328Z</time></trkpt><trkpt lat="45.6360013" lon="13.8395632"><ele>338.0</ele><time>2026-04-15T07:00:44.331Z</time></trkpt><trkpt lat="45.6360509" lon="13.8393432"><ele>338.0</ele><time>2026-04-15T07:00:45.322Z</time></trkpt><trkpt lat="45.636129" lon="13.8391203"><ele>338.0</ele><time>2026-04-15T07:00:46.324Z</time></trkpt><trkpt lat="45.6362188" lon="13.8389054"><ele>338.0</ele><time>2026-04-15T07:00:47.327Z</time></trkpt><trkpt lat="45.636329" lon="13.8387042"><ele>338.0</ele><time>2026-04-15T07:00:48.335Z</time></trkpt><trkpt lat="45.636448" lon="13.8385137"><ele>338.0</ele><time>2026-04-15T07:00:49.335Z</time></trkpt><trkpt lat="45.6365746" lon="13.8383154"><ele>334.0</ele><time>2026-04-15T07:00:50.322Z</time></trkpt><trkpt lat="45.6367261" lon="13.8380897"><ele>330.0</ele><time>2026-04-15T07:00:51.32Z</time></trkpt><trkpt lat="45.6368939" lon="13.8378597"><ele>330.6666666666667</ele><time>2026-04-15T07:00:52.328Z</time></trkpt><trkpt lat="45.6370534" lon="13.8376403"><ele>331.33333333333337</ele><time>2026-04-15T07:00:53.33Z</time></trkpt><trkpt lat="45.637195" lon="13.8374227"><ele>332.0</ele><time>2026-04-15T07:00:54.328Z</time></trkpt><trkpt lat="45.6373302" lon="13.8372293"><ele>329.6666666666667</ele><time>2026-04-15T07:00:55.33Z</time></trkpt><trkpt lat="45.6374599" lon="13.8370446"><ele>327.3333333333333</ele><time>2026-04-15T07:00:56.331Z</time></trkpt><trkpt lat="45.6375741" lon="13.8368802"><ele>325.0</ele><time>2026-04-15T07:00:57.314Z</time></trkpt><trkpt lat="45.6376763" lon="13.8367333"><ele>325.0</ele><time>2026-04-15T07:00:58.324Z</time></trkpt><trkpt lat="45.6377583" lon="13.8366111"><ele>325.0</ele><time>2026-04-15T07:00:59.32Z</time></trkpt><trkpt lat="45.6378229" lon="13.8364952"><ele>325.0</ele><time>2026-04-15T07:01:00.331Z</time></trkpt><trkpt lat="45.6378692" lon="13.8364112"><ele>325.0</ele><time>2026-04-15T07:01:01.317Z</time></trkpt><trkpt lat="45.6379096" lon="13.8363323"><ele>325.0</ele><time>2026-04-15T07:01:03.333Z</time></trkpt><trkpt lat="45.6379544" lon="13.8362448"><ele>325.0</ele><time>2026-04-15T07:01:06.323Z</time></trkpt><trkpt lat="45.6379839" lon="13.8361405"><ele>325.0</ele><time>2026-04-15T07:01:08.329Z</time></trkpt><trkpt lat="45.6378972" lon="13.8361628"><ele>325.0</ele><time>2026-04-15T07:01:10.33Z</time></trkpt><trkpt lat="45.6378301" lon="13.8362279"><ele>325.0</ele><time>2026-04-15T07:01:11.322Z</time></trkpt><trkpt lat="45.6377539" lon="13.8363159"><ele>325.0</ele><time>2026-04-15T07:01:12.326Z</time></trkpt><trkpt lat="45.6376597" lon="13.8364252"><ele>325.0</ele><time>2026-04-15T07:01:13.323Z</time></trkpt><trkpt lat="45.637509" lon="13.8365604"><ele>325.0</ele><time>2026-04-15T07:01:14.319Z</time></trkpt><trkpt lat="45.6373236" lon="13.8366923"><ele>325.0</ele><time>2026-04-15T07:01:15.329Z</time></trkpt><trkpt lat="45.6371231" lon="13.8368176"><ele>325.0</ele><time>2026-04-15T07:01:16.321Z</time></trkpt><trkpt lat="45.6369183" lon="13.8369352"><ele>319.5</ele><time>2026-04-15T07:01:17.333Z</time></trkpt><trkpt lat="45.6367189" lon="13.8370719"><ele>314.0</ele><time>2026-04-15T07:01:18.341Z</time></trkpt><trkpt lat="45.6365129" lon="13.8372308"><ele>314.0</ele><time>2026-04-15T07:01:19.329Z</time></trkpt><trkpt lat="45.6362984" lon="13.8373927"><ele>314.0</ele><time>2026-04-15T07:01:20.316Z</time></trkpt><trkpt lat="45.6360791" lon="13.837542"><ele>314.0</ele><time>2026-04-15T07:01:21.322Z</time></trkpt><trkpt lat="45.6358519" lon="13.8376889"><ele>314.0</ele><time>2026-04-15T07:01:22.32Z</time></trkpt><trkpt lat="45.6356356" lon="13.8378379"><ele>314.0</ele><time>2026-04-15T07:01:23.324Z</time></trkpt><trkpt lat="45.6354257" lon="13.8379929"><ele>314.0</ele><time>2026-04-15T07:01:24.333Z</time></trkpt><trkpt lat="45.6352104" lon="13.838155"><ele>313.5</ele><time>2026-04-15T07:01:25.318Z</time></trkpt><trkpt lat="45.6350001" lon="13.8383098"><ele>313.0</ele><time>2026-04-15T07:01:26.319Z</time></trkpt><trkpt lat="45.6348032" lon="13.8384739"><ele>313.0</ele><time>2026-04-15T07:01:27.314Z</time></trkpt><trkpt lat="45.6346145" lon="13.8386459"><ele>313.0</ele><time>2026-04-15T07:01:28.325Z</time></trkpt><trkpt lat="45.6344332" lon="13.8388421"><ele>309.0</ele><time>2026-04-15T07:01:29.334Z</time></trkpt><trkpt lat="45.6342698" lon="13.8390554"><ele>305.0</ele><time>2026-04-15T07:01:30.316Z</time></trkpt><trkpt lat="45.6341186" lon="13.8392904"><ele>301.0</ele><time>2026-04-15T07:01:31.316Z</time></trkpt><trkpt lat="45.6339885" lon="13.8395615"><ele>301.0</ele><time>2026-04-15T07:01:32.324Z</time></trkpt><trkpt lat="45.6338486" lon="13.8398404"><ele>301.0</ele><time>2026-04-15T07:01:33.318Z</time></trkpt><trkpt lat="45.6337352" lon="13.8400414"><ele>301.0</ele><time>2026-04-15T07:01:34.317Z</time></trkpt><trkpt lat="45.6336283" lon="13.8401938"><ele>298.8</ele><time>2026-04-15T07:01:35.32Z</time></trkpt><trkpt lat="45.6335236" lon="13.8402969"><ele>296.6</ele><time>2026-04-15T07:01:36.322Z</time></trkpt><trkpt lat="45.6334291" lon="13.8403519"><ele>294.4</ele><time>2026-04-15T07:01:37.313Z</time></trkpt><trkpt lat="45.6333461" lon="13.8403639"><ele>292.2</ele><time>2026-04-15T07:01:38.315Z</time></trkpt><trkpt lat="45.6332631" lon="13.8403363"><ele>290.0</ele><time>2026-04-15T07:01:39.321Z</time></trkpt><trkpt lat="45.6332098" lon="13.8402743"><ele>290.0</ele><time>2026-04-15T07:01:40.317Z</time></trkpt><trkpt lat="45.633175" lon="13.8401869"><ele>290.0</ele><time>2026-04-15T07:01:41.312Z</time></trkpt><trkpt lat="45.63317" lon="13.8400657"><ele>290.0</ele><time>2026-04-15T07:01:42.313Z</time></trkpt><trkpt lat="45.6332394" lon="13.8399041"><ele>290.0</ele><time>2026-04-15T07:01:43.32Z</time></trkpt><trkpt lat="45.6333425" lon="13.839751"><ele>290.0</ele><time>2026-04-15T07:01:44.308Z</time></trkpt><trkpt lat="45.6336043" lon="13.8395431"><ele>288.0</ele><time>2026-04-15T07:01:46.326Z</time></trkpt><trkpt lat="45.6337476" lon="13.839461"><ele>286.0</ele><time>2026-04-15T07:01:47.316Z</time></trkpt><trkpt lat="45.6338731" lon="13.839341"><ele>284.0</ele><time>2026-04-15T07:01:48.332Z</time></trkpt><trkpt lat="45.6339941" lon="13.8391977"><ele>284.0</ele><time>2026-04-15T07:01:49.324Z</time></trkpt><trkpt lat="45.6341028" lon="13.8390447"><ele>284.0</ele><time>2026-04-15T07:01:50.307Z</time></trkpt><trkpt lat="45.6341962" lon="13.8388968"><ele>284.0</ele><time>2026-04-15T07:01:51.31Z</time></trkpt><trkpt lat="45.6342642" lon="13.8387616"><ele>284.0</ele><time>2026-04-15T07:01:52.316Z</time></trkpt><trkpt lat="45.6342934" lon="13.8386635"><ele>284.0</ele><time>2026-04-15T07:01:53.31Z</time></trkpt><trkpt lat="45.6342792" lon="13.8385129"><ele>284.0</ele><time>2026-04-15T07:01:55.308Z</time></trkpt><trkpt lat="45.6342562" lon="13.8383972"><ele>284.0</ele><time>2026-04-15T07:01:56.326Z</time></trkpt><trkpt lat="45.6342173" lon="13.8382268"><ele>284.0</ele><time>2026-04-15T07:01:57.321Z</time></trkpt><trkpt lat="45.6341437" lon="13.8380282"><ele>278.33333333333337</ele><time>2026-04-15T07:01:58.319Z</time></trkpt><trkpt lat="45.6340404" lon="13.8378238"><ele>272.6666666666667</ele><time>2026-04-15T07:01:59.329Z</time></trkpt><trkpt lat="45.6339471" lon="13.8376189"><ele>267.0</ele><time>2026-04-15T07:02:00.31Z</time></trkpt><trkpt lat="45.6338572" lon="13.837399"><ele>263.6666666666667</ele><time>2026-04-15T07:02:01.313Z</time></trkpt><trkpt lat="45.6338007" lon="13.837181"><ele>260.33333333333337</ele><time>2026-04-15T07:02:02.314Z</time></trkpt><trkpt lat="45.6337934" lon="13.8369669"><ele>257.0</ele><time>2026-04-15T07:02:03.317Z</time></trkpt><trkpt lat="45.6338101" lon="13.8367441"><ele>255.66666666666669</ele><time>2026-04-15T07:02:04.309Z</time></trkpt><trkpt lat="45.6338533" lon="13.8365079"><ele>254.33333333333331</ele><time>2026-04-15T07:02:05.307Z</time></trkpt><trkpt lat="45.6338907" lon="13.836265"><ele>253.0</ele><time>2026-04-15T07:02:06.314Z</time></trkpt><trkpt lat="45.6339238" lon="13.8360352"><ele>253.33333333333331</ele><time>2026-04-15T07:02:07.307Z</time></trkpt><trkpt lat="45.6339592" lon="13.8358081"><ele>253.66666666666669</ele><time>2026-04-15T07:02:08.317Z</time></trkpt><trkpt lat="45.6339905" lon="13.8355891"><ele>254.0</ele><time>2026-04-15T07:02:09.309Z</time></trkpt><trkpt lat="45.6340225" lon="13.8353752"><ele>254.0</ele><time>2026-04-15T07:02:10.309Z</time></trkpt><trkpt lat="45.6340572" lon="13.8351643"><ele>254.0</ele><time>2026-04-15T07:02:11.311Z</time></trkpt><trkpt lat="45.6340933" lon="13.8349479"><ele>254.0</ele><time>2026-04-15T07:02:12.306Z</time></trkpt><trkpt lat="45.6341245" lon="13.8347286"><ele>254.33333333333334</ele><time>2026-04-15T07:02:13.321Z</time></trkpt><trkpt lat="45.6341651" lon="13.8345113"><ele>254.66666666666669</ele><time>2026-04-15T07:02:14.312Z</time></trkpt><trkpt lat="45.6342108" lon="13.8342841"><ele>255.0</ele><time>2026-04-15T07:02:15.303Z</time></trkpt><trkpt lat="45.634258" lon="13.8340641"><ele>254.0</ele><time>2026-04-15T07:02:16.312Z</time></trkpt><trkpt lat="45.6343019" lon="13.8338558"><ele>253.0</ele><time>2026-04-15T07:02:17.333Z</time></trkpt><trkpt lat="45.6343405" lon="13.8336636"><ele>252.0</ele><time>2026-04-15T07:02:18.303Z</time></trkpt><trkpt lat="45.634428" lon="13.8333118"><ele>254.33333333333331</ele><time>2026-04-15T07:02:20.347Z</time></trkpt><trkpt lat="45.6344743" lon="13.833132"><ele>256.66666666666663</ele><time>2026-04-15T07:02:21.386Z</time></trkpt><trkpt lat="45.634569" lon="13.8327929"><ele>259.0</ele><time>2026-04-15T07:02:23.311Z</time></trkpt><trkpt lat="45.6346756" lon="13.8324169"><ele>259.0</ele><time>2026-04-15T07:02:26.332Z</time></trkpt><trkpt lat="45.6346976" lon="13.832324"><ele>259.0</ele><time>2026-04-15T07:02:27.318Z</time></trkpt><trkpt lat="45.6347162" lon="13.8322262"><ele>259.0</ele><time>2026-04-15T07:02:28.318Z</time></trkpt><trkpt lat="45.6347376" lon="13.8321289"><ele>259.0</ele><time>2026-04-15T07:02:29.306Z</time></trkpt><trkpt lat="45.6347569" lon="13.8320394"><ele>259.0</ele><time>2026-04-15T07:02:30.317Z</time></trkpt><trkpt lat="45.6347759" lon="13.8319377"><ele>259.0</ele><time>2026-04-15T07:02:31.31Z</time></trkpt><trkpt lat="45.6348066" lon="13.8317989"><ele>256.66666666666663</ele><time>2026-04-15T07:02:32.307Z</time></trkpt><trkpt lat="45.6348491" lon="13.8316346"><ele>254.33333333333331</ele><time>2026-04-15T07:02:33.303Z</time></trkpt><trkpt lat="45.6349624" lon="13.831235"><ele>252.0</ele><time>2026-04-15T07:02:35.304Z</time></trkpt><trkpt lat="45.6351387" lon="13.8304641"><ele>251.33333333333331</ele><time>2026-04-15T07:02:38.304Z</time></trkpt><trkpt lat="45.6352018" lon="13.830198"><ele>250.66666666666666</ele><time>2026-04-15T07:02:39.306Z</time></trkpt><trkpt lat="45.6352476" lon="13.8299372"><ele>250.0</ele><time>2026-04-15T07:02:40.302Z</time></trkpt><trkpt lat="45.6353133" lon="13.829689"><ele>248.33333333333331</ele><time>2026-04-15T07:02:41.302Z</time></trkpt><trkpt lat="45.6353759" lon="13.8294569"><ele>246.66666666666669</ele><time>2026-04-15T07:02:42.302Z</time></trkpt><trkpt lat="45.6354302" lon="13.8292199"><ele>245.0</ele><time>2026-04-15T07:02:43.315Z</time></trkpt><trkpt lat="45.6354912" lon="13.8289739"><ele>244.0</ele><time>2026-04-15T07:02:44.375Z</time></trkpt><trkpt lat="45.6355506" lon="13.8287331"><ele>243.0</ele><time>2026-04-15T07:02:45.311Z</time></trkpt><trkpt lat="45.6356136" lon="13.8284931"><ele>242.0</ele><time>2026-04-15T07:02:46.316Z</time></trkpt><trkpt lat="45.6356826" lon="13.8282442"><ele>241.0</ele><time>2026-04-15T07:02:47.3Z</time></trkpt><trkpt lat="45.6357498" lon="13.8279907"><ele>240.0</ele><time>2026-04-15T07:02:48.311Z</time></trkpt><trkpt lat="45.6358099" lon="13.827729"><ele>239.0</ele><time>2026-04-15T07:02:49.304Z</time></trkpt><trkpt lat="45.6358744" lon="13.8274678"><ele>238.0</ele><time>2026-04-15T07:02:50.306Z</time></trkpt><trkpt lat="45.6359385" lon="13.8271975"><ele>237.0</ele><time>2026-04-15T07:02:51.335Z</time></trkpt><trkpt lat="45.6360025" lon="13.8269285"><ele>236.0</ele><time>2026-04-15T07:02:52.298Z</time></trkpt><trkpt lat="45.6360701" lon="13.8266602"><ele>230.66666666666669</ele><time>2026-04-15T07:02:53.31Z</time></trkpt><trkpt lat="45.6361398" lon="13.8263875"><ele>225.33333333333331</ele><time>2026-04-15T07:02:54.301Z</time></trkpt><trkpt lat="45.6362071" lon="13.8261034"><ele>220.0</ele><time>2026-04-15T07:02:55.3Z</time></trkpt><trkpt lat="45.6362807" lon="13.8258261"><ele>218.0</ele><time>2026-04-15T07:02:56.298Z</time></trkpt><trkpt lat="45.6364216" lon="13.8252745"><ele>216.0</ele><time>2026-04-15T07:02:58.298Z</time></trkpt><trkpt lat="45.6364878" lon="13.8249978"><ele>216.0</ele><time>2026-04-15T07:02:59.304Z</time></trkpt><trkpt lat="45.6365526" lon="13.8247285"><ele>216.0</ele><time>2026-04-15T07:03:00.299Z</time></trkpt><trkpt lat="45.6366151" lon="13.824456"><ele>216.0</ele><time>2026-04-15T07:03:01.3Z</time></trkpt><trkpt lat="45.6367524" lon="13.8239383"><ele>216.0</ele><time>2026-04-15T07:03:03.297Z</time></trkpt><trkpt lat="45.636821" lon="13.8236802"><ele>216.0</ele><time>2026-04-15T07:03:04.315Z</time></trkpt><trkpt lat="45.6368878" lon="13.82341"><ele>216.0</ele><time>2026-04-15T07:03:05.298Z</time></trkpt><trkpt lat="45.636956" lon="13.8231403"><ele>212.0</ele><time>2026-04-15T07:03:06.298Z</time></trkpt><trkpt lat="45.6370222" lon="13.8228749"><ele>208.0</ele><time>2026-04-15T07:03:07.309Z</time></trkpt><trkpt lat="45.6370857" lon="13.8226192"><ele>204.0</ele><time>2026-04-15T07:03:08.302Z</time></trkpt><trkpt lat="45.6371429" lon="13.8223627"><ele>204.33333333333331</ele><time>2026-04-15T07:03:09.302Z</time></trkpt><trkpt lat="45.6372003" lon="13.8221001"><ele>204.66666666666666</ele><time>2026-04-15T07:03:10.311Z</time></trkpt><trkpt lat="45.6372588" lon="13.8218406"><ele>205.0</ele><time>2026-04-15T07:03:11.298Z</time></trkpt><trkpt lat="45.6373204" lon="13.8215813"><ele>205.0</ele><time>2026-04-15T07:03:12.295Z</time></trkpt><trkpt lat="45.6373847" lon="13.8213193"><ele>205.0</ele><time>2026-04-15T07:03:13.307Z</time></trkpt><trkpt lat="45.6374487" lon="13.821062"><ele>205.0</ele><time>2026-04-15T07:03:14.31Z</time></trkpt><trkpt lat="45.6375164" lon="13.8207978"><ele>206.0</ele><time>2026-04-15T07:03:15.297Z</time></trkpt><trkpt lat="45.6375836" lon="13.8205319"><ele>207.0</ele><time>2026-04-15T07:03:16.296Z</time></trkpt><trkpt lat="45.6376503" lon="13.8202695"><ele>208.0</ele><time>2026-04-15T07:03:17.3Z</time></trkpt><trkpt lat="45.6377107" lon="13.8200084"><ele>206.0</ele><time>2026-04-15T07:03:18.316Z</time></trkpt><trkpt lat="45.637774" lon="13.8197397"><ele>204.0</ele><time>2026-04-15T07:03:19.3Z</time></trkpt><trkpt lat="45.6378343" lon="13.8194785"><ele>202.0</ele><time>2026-04-15T07:03:20.294Z</time></trkpt><trkpt lat="45.6378951" lon="13.8192154"><ele>196.33333333333331</ele><time>2026-04-15T07:03:21.3Z</time></trkpt><trkpt lat="45.6379578" lon="13.8189465"><ele>190.66666666666666</ele><time>2026-04-15T07:03:22.299Z</time></trkpt><trkpt lat="45.6380212" lon="13.8186738"><ele>185.0</ele><time>2026-04-15T07:03:23.304Z</time></trkpt><trkpt lat="45.6382269" lon="13.8178536"><ele>184.66666666666666</ele><time>2026-04-15T07:03:26.312Z</time></trkpt><trkpt lat="45.6382867" lon="13.8175728"><ele>184.33333333333334</ele><time>2026-04-15T07:03:27.303Z</time></trkpt><trkpt lat="45.6383399" lon="13.8172775"><ele>184.0</ele><time>2026-04-15T07:03:28.301Z</time></trkpt><trkpt lat="45.63838" lon="13.8169803"><ele>183.33333333333334</ele><time>2026-04-15T07:03:29.295Z</time></trkpt><trkpt lat="45.6384123" lon="13.8166824"><ele>182.66666666666666</ele><time>2026-04-15T07:03:30.302Z</time></trkpt><trkpt lat="45.638445" lon="13.8163812"><ele>182.0</ele><time>2026-04-15T07:03:31.295Z</time></trkpt><trkpt lat="45.6384769" lon="13.8160819"><ele>181.66666666666666</ele><time>2026-04-15T07:03:32.295Z</time></trkpt><trkpt lat="45.6385001" lon="13.8157829"><ele>181.33333333333334</ele><time>2026-04-15T07:03:33.304Z</time></trkpt><trkpt lat="45.6385153" lon="13.8154871"><ele>181.0</ele><time>2026-04-15T07:03:34.31Z</time></trkpt><trkpt lat="45.6385358" lon="13.8151886"><ele>180.66666666666669</ele><time>2026-04-15T07:03:35.295Z</time></trkpt><trkpt lat="45.6385661" lon="13.8148964"><ele>180.33333333333334</ele><time>2026-04-15T07:03:36.299Z</time></trkpt><trkpt lat="45.6385878" lon="13.8146071"><ele>180.0</ele><time>2026-04-15T07:03:37.296Z</time></trkpt><trkpt lat="45.6386189" lon="13.8143214"><ele>173.33333333333334</ele><time>2026-04-15T07:03:38.293Z</time></trkpt><trkpt lat="45.638646" lon="13.8140452"><ele>166.66666666666669</ele><time>2026-04-15T07:03:39.317Z</time></trkpt><trkpt lat="45.6386776" lon="13.81377"><ele>160.0</ele><time>2026-04-15T07:03:40.291Z</time></trkpt><trkpt lat="45.6387089" lon="13.813492"><ele>160.0</ele><time>2026-04-15T07:03:41.298Z</time></trkpt><trkpt lat="45.6387398" lon="13.8132095"><ele>160.0</ele><time>2026-04-15T07:03:42.291Z</time></trkpt><trkpt lat="45.6387695" lon="13.8129265"><ele>160.0</ele><time>2026-04-15T07:03:43.295Z</time></trkpt><trkpt lat="45.6387977" lon="13.8126425"><ele>159.33333333333334</ele><time>2026-04-15T07:03:44.298Z</time></trkpt><trkpt lat="45.6388258" lon="13.8123532"><ele>158.66666666666666</ele><time>2026-04-15T07:03:45.304Z</time></trkpt><trkpt lat="45.6388542" lon="13.8120644"><ele>158.0</ele><time>2026-04-15T07:03:46.298Z</time></trkpt><trkpt lat="45.638878" lon="13.811775"><ele>156.33333333333331</ele><time>2026-04-15T07:03:47.306Z</time></trkpt><trkpt lat="45.6388949" lon="13.8114815"><ele>154.66666666666666</ele><time>2026-04-15T07:03:48.296Z</time></trkpt><trkpt lat="45.6389073" lon="13.8111882"><ele>153.0</ele><time>2026-04-15T07:03:49.298Z</time></trkpt><trkpt lat="45.6389197" lon="13.8108925"><ele>151.0</ele><time>2026-04-15T07:03:50.289Z</time></trkpt><trkpt lat="45.6389264" lon="13.8105894"><ele>149.0</ele><time>2026-04-15T07:03:51.304Z</time></trkpt><trkpt lat="45.6389253" lon="13.8102812"><ele>147.0</ele><time>2026-04-15T07:03:52.297Z</time></trkpt><trkpt lat="45.6389057" lon="13.809975"><ele>145.66666666666666</ele><time>2026-04-15T07:03:53.3Z</time></trkpt><trkpt lat="45.6388831" lon="13.8096653"><ele>144.33333333333331</ele><time>2026-04-15T07:03:54.289Z</time></trkpt><trkpt lat="45.6388561" lon="13.8093636"><ele>143.0</ele><time>2026-04-15T07:03:55.295Z</time></trkpt><trkpt lat="45.6388271" lon="13.8090711"><ele>141.0</ele><time>2026-04-15T07:03:56.294Z</time></trkpt><trkpt lat="45.6387947" lon="13.8087771"><ele>139.0</ele><time>2026-04-15T07:03:57.292Z</time></trkpt><trkpt lat="45.6387592" lon="13.8084749"><ele>137.0</ele><time>2026-04-15T07:03:58.303Z</time></trkpt><trkpt lat="45.6387268" lon="13.8081677"><ele>138.66666666666666</ele><time>2026-04-15T07:03:59.31Z</time></trkpt><trkpt lat="45.6386944" lon="13.8078656"><ele>140.33333333333334</ele><time>2026-04-15T07:04:00.292Z</time></trkpt><trkpt lat="45.6386576" lon="13.8075606"><ele>142.0</ele><time>2026-04-15T07:04:01.296Z</time></trkpt><trkpt lat="45.6386225" lon="13.8072616"><ele>142.0</ele><time>2026-04-15T07:04:02.305Z</time></trkpt><trkpt lat="45.6385897" lon="13.8069594"><ele>142.0</ele><time>2026-04-15T07:04:03.297Z</time></trkpt><trkpt lat="45.6385553" lon="13.8066592"><ele>142.0</ele><time>2026-04-15T07:04:04.286Z</time></trkpt><trkpt lat="45.6385195" lon="13.8063624"><ele>139.33333333333334</ele><time>2026-04-15T07:04:05.304Z</time></trkpt><trkpt lat="45.6384872" lon="13.806065"><ele>136.66666666666666</ele><time>2026-04-15T07:04:06.298Z</time></trkpt><trkpt lat="45.6384583" lon="13.8057737"><ele>134.0</ele><time>2026-04-15T07:04:07.301Z</time></trkpt><trkpt lat="45.6384282" lon="13.8054784"><ele>131.33333333333331</ele><time>2026-04-15T07:04:08.289Z</time></trkpt><trkpt lat="45.6383966" lon="13.8051793"><ele>128.66666666666666</ele><time>2026-04-15T07:04:09.306Z</time></trkpt><trkpt lat="45.6383649" lon="13.8048734"><ele>126.0</ele><time>2026-04-15T07:04:10.298Z</time></trkpt><trkpt lat="45.6383299" lon="13.8045649"><ele>123.33333333333334</ele><time>2026-04-15T07:04:11.288Z</time></trkpt><trkpt lat="45.638294" lon="13.8042528"><ele>120.66666666666667</ele><time>2026-04-15T07:04:12.296Z</time></trkpt><trkpt lat="45.6382621" lon="13.8039417"><ele>118.0</ele><time>2026-04-15T07:04:13.291Z</time></trkpt><trkpt lat="45.6382286" lon="13.8036358"><ele>114.66666666666667</ele><time>2026-04-15T07:04:14.288Z</time></trkpt><trkpt lat="45.6381994" lon="13.8033375"><ele>111.33333333333334</ele><time>2026-04-15T07:04:15.292Z</time></trkpt><trkpt lat="45.6381704" lon="13.8030391"><ele>108.0</ele><time>2026-04-15T07:04:16.294Z</time></trkpt><trkpt lat="45.6381401" lon="13.8027499"><ele>106.0</ele><time>2026-04-15T07:04:17.298Z</time></trkpt><trkpt lat="45.6381124" lon="13.8024713"><ele>104.0</ele><time>2026-04-15T07:04:18.299Z</time></trkpt><trkpt lat="45.6380845" lon="13.8022111"><ele>102.0</ele><time>2026-04-15T07:04:19.293Z</time></trkpt><trkpt lat="45.6380575" lon="13.8019652"><ele>101.25</ele><time>2026-04-15T07:04:20.296Z</time></trkpt><trkpt lat="45.6380321" lon="13.8017439"><ele>100.5</ele><time>2026-04-15T07:04:21.314Z</time></trkpt><trkpt lat="45.6380078" lon="13.8015423"><ele>99.75</ele><time>2026-04-15T07:04:22.29Z</time></trkpt><trkpt lat="45.6379868" lon="13.8013572"><ele>99.0</ele><time>2026-04-15T07:04:23.295Z</time></trkpt><trkpt lat="45.6379855" lon="13.8011809"><ele>99.0</ele><time>2026-04-15T07:04:24.297Z</time></trkpt><trkpt lat="45.6379991" lon="13.8010076"><ele>99.0</ele><time>2026-04-15T07:04:25.302Z</time></trkpt><trkpt lat="45.6380187" lon="13.8008196"><ele>99.0</ele><time>2026-04-15T07:04:26.311Z</time></trkpt><trkpt lat="45.6380348" lon="13.8006238"><ele>99.0</ele><time>2026-04-15T07:04:27.289Z</time></trkpt><trkpt lat="45.6380554" lon="13.8004224"><ele>98.5</ele><time>2026-04-15T07:04:28.287Z</time></trkpt><trkpt lat="45.6380862" lon="13.8002092"><ele>98.0</ele><time>2026-04-15T07:04:29.297Z</time></trkpt><trkpt lat="45.638112" lon="13.8000009"><ele>97.5</ele><time>2026-04-15T07:04:30.285Z</time></trkpt><trkpt lat="45.638139" lon="13.7997953"><ele>97.0</ele><time>2026-04-15T07:04:31.289Z</time></trkpt><trkpt lat="45.6381605" lon="13.7995941"><ele>95.0</ele><time>2026-04-15T07:04:32.293Z</time></trkpt><trkpt lat="45.6381836" lon="13.7994064"><ele>93.0</ele><time>2026-04-15T07:04:33.283Z</time></trkpt><trkpt lat="45.6382068" lon="13.7992098"><ele>91.0</ele><time>2026-04-15T07:04:34.287Z</time></trkpt><trkpt lat="45.6382223" lon="13.7989989"><ele>89.0</ele><time>2026-04-15T07:04:35.295Z</time></trkpt><trkpt lat="45.6382305" lon="13.798771"><ele>86.0</ele><time>2026-04-15T07:04:36.296Z</time></trkpt><trkpt lat="45.6381524" lon="13.7983022"><ele>83.0</ele><time>2026-04-15T07:04:38.296Z</time></trkpt><trkpt lat="45.6380799" lon="13.7980968"><ele>83.0</ele><time>2026-04-15T07:04:39.29Z</time></trkpt><trkpt lat="45.6380292" lon="13.7979136"><ele>83.0</ele><time>2026-04-15T07:04:40.305Z</time></trkpt><trkpt lat="45.6379979" lon="13.7977571"><ele>83.0</ele><time>2026-04-15T07:04:41.293Z</time></trkpt><trkpt lat="45.6379919" lon="13.7976247"><ele>83.0</ele><time>2026-04-15T07:04:42.291Z</time></trkpt><trkpt lat="45.63809" lon="13.79746"><ele>83.0</ele><time>2026-04-15T07:04:44.283Z</time></trkpt><trkpt lat="45.638167" lon="13.7974783"><ele>83.0</ele><time>2026-04-15T07:04:45.29Z</time></trkpt><trkpt lat="45.6382339" lon="13.797591"><ele>83.0</ele><time>2026-04-15T07:04:46.286Z</time></trkpt><trkpt lat="45.6382403" lon="13.7977261"><ele>83.0</ele><time>2026-04-15T07:04:47.297Z</time></trkpt><trkpt lat="45.6382193" lon="13.7978666"><ele>83.0</ele><time>2026-04-15T07:04:48.285Z</time></trkpt><trkpt lat="45.6382275" lon="13.7980015"><ele>83.0</ele><time>2026-04-15T07:04:49.282Z</time></trkpt><trkpt lat="45.6382857" lon="13.7981124"><ele>83.0</ele><time>2026-04-15T07:04:50.288Z</time></trkpt><trkpt lat="45.6383888" lon="13.7981777"><ele>83.0</ele><time>2026-04-15T07:04:51.298Z</time></trkpt><trkpt lat="45.6385065" lon="13.7981864"><ele>83.0</ele><time>2026-04-15T07:04:52.29Z</time></trkpt><trkpt lat="45.6386283" lon="13.7981303"><ele>79.5</ele><time>2026-04-15T07:04:53.31Z</time></trkpt><trkpt lat="45.6387401" lon="13.7980542"><ele>76.0</ele><time>2026-04-15T07:04:54.295Z</time></trkpt><trkpt lat="45.6388157" lon="13.797946"><ele>72.5</ele><time>2026-04-15T07:04:55.288Z</time></trkpt><trkpt lat="45.6388408" lon="13.7977961"><ele>69.0</ele><time>2026-04-15T07:04:56.312Z</time></trkpt><trkpt lat="45.6388327" lon="13.7976236"><ele>68.0</ele><time>2026-04-15T07:04:57.297Z</time></trkpt><trkpt lat="45.6387992" lon="13.797458"><ele>67.0</ele><time>2026-04-15T07:04:58.295Z</time></trkpt><trkpt lat="45.63876" lon="13.7972915"><ele>66.0</ele><time>2026-04-15T07:04:59.281Z</time></trkpt><trkpt lat="45.6386971" lon="13.7971155"><ele>65.0</ele><time>2026-04-15T07:05:00.283Z</time></trkpt><trkpt lat="45.6386364" lon="13.7969414"><ele>64.5</ele><time>2026-04-15T07:05:01.283Z</time></trkpt><trkpt lat="45.63861" lon="13.7967798"><ele>64.0</ele><time>2026-04-15T07:05:02.285Z</time></trkpt><trkpt lat="45.6386055" lon="13.796616"><ele>63.5</ele><time>2026-04-15T07:05:03.281Z</time></trkpt><trkpt lat="45.6386436" lon="13.7964646"><ele>63.0</ele><time>2026-04-15T07:05:04.294Z</time></trkpt><trkpt lat="45.6386868" lon="13.7963184"><ele>63.0</ele><time>2026-04-15T07:05:05.289Z</time></trkpt><trkpt lat="45.6387292" lon="13.7961858"><ele>63.0</ele><time>2026-04-15T07:05:06.29Z</time></trkpt><trkpt lat="45.6387598" lon="13.7960561"><ele>63.0</ele><time>2026-04-15T07:05:07.301Z</time></trkpt><trkpt lat="45.6387892" lon="13.7959294"><ele>63.0</ele><time>2026-04-15T07:05:08.296Z</time></trkpt><trkpt lat="45.638826" lon="13.7958021"><ele>63.0</ele><time>2026-04-15T07:05:09.292Z</time></trkpt><trkpt lat="45.6388651" lon="13.7956814"><ele>62.2</ele><time>2026-04-15T07:05:10.28Z</time></trkpt><trkpt lat="45.638902" lon="13.7955595"><ele>61.4</ele><time>2026-04-15T07:05:11.282Z</time></trkpt><trkpt lat="45.6389323" lon="13.795427"><ele>60.60000000000001</ele><time>2026-04-15T07:05:12.294Z</time></trkpt><trkpt lat="45.6389627" lon="13.7953063"><ele>59.800000000000004</ele><time>2026-04-15T07:05:13.284Z</time></trkpt><trkpt lat="45.6389921" lon="13.7951869"><ele>59.0</ele><time>2026-04-15T07:05:14.281Z</time></trkpt><trkpt lat="45.6390226" lon="13.7950574"><ele>58.800000000000004</ele><time>2026-04-15T07:05:15.297Z</time></trkpt><trkpt lat="45.6390644" lon="13.7949328"><ele>58.60000000000001</ele><time>2026-04-15T07:05:16.291Z</time></trkpt><trkpt lat="45.6391067" lon="13.7948003"><ele>58.4</ele><time>2026-04-15T07:05:17.282Z</time></trkpt><trkpt lat="45.6391516" lon="13.7946667"><ele>58.2</ele><time>2026-04-15T07:05:18.29Z</time></trkpt><trkpt lat="45.639201" lon="13.7945406"><ele>58.0</ele><time>2026-04-15T07:05:19.286Z</time></trkpt><trkpt lat="45.6392513" lon="13.7944156"><ele>58.166666666666664</ele><time>2026-04-15T07:05:20.279Z</time></trkpt><trkpt lat="45.6393039" lon="13.7942949"><ele>58.33333333333333</ele><time>2026-04-15T07:05:21.285Z</time></trkpt><trkpt lat="45.6393492" lon="13.7941838"><ele>58.5</ele><time>2026-04-15T07:05:22.287Z</time></trkpt><trkpt lat="45.6393987" lon="13.7940825"><ele>58.66666666666667</ele><time>2026-04-15T07:05:23.282Z</time></trkpt><trkpt lat="45.6394471" lon="13.7939966"><ele>58.833333333333336</ele><time>2026-04-15T07:05:24.285Z</time></trkpt><trkpt lat="45.6395011" lon="13.7939365"><ele>59.0</ele><time>2026-04-15T07:05:25.278Z</time></trkpt><trkpt lat="45.6395631" lon="13.7939104"><ele>59.00000000000001</ele><time>2026-04-15T07:05:26.291Z</time></trkpt><trkpt lat="45.6396556" lon="13.7939199"><ele>59.0</ele><time>2026-04-15T07:05:28.291Z</time></trkpt><trkpt lat="45.6397199" lon="13.793892"><ele>59.0</ele><time>2026-04-15T07:05:32.285Z</time></trkpt><trkpt lat="45.639778" lon="13.7938034"><ele>59.0</ele><time>2026-04-15T07:05:34.281Z</time></trkpt><trkpt lat="45.639804" lon="13.7937167"><ele>59.00000000000001</ele><time>2026-04-15T07:05:35.309Z</time></trkpt><trkpt lat="45.6398113" lon="13.7935995"><ele>59.0</ele><time>2026-04-15T07:05:36.283Z</time></trkpt><trkpt lat="45.6398015" lon="13.7934614"><ele>60.0</ele><time>2026-04-15T07:05:37.277Z</time></trkpt><trkpt lat="45.6397902" lon="13.793306"><ele>61.0</ele><time>2026-04-15T07:05:38.28Z</time></trkpt><trkpt lat="45.639785" lon="13.7931663"><ele>62.0</ele><time>2026-04-15T07:05:39.276Z</time></trkpt><trkpt lat="45.6397553" lon="13.7929025"><ele>63.0</ele><time>2026-04-15T07:05:41.27Z</time></trkpt><trkpt lat="45.6397457" lon="13.79276"><ele>62.33333333333333</ele><time>2026-04-15T07:05:42.278Z</time></trkpt><trkpt lat="45.639736" lon="13.792615"><ele>61.666666666666664</ele><time>2026-04-15T07:05:43.277Z</time></trkpt><trkpt lat="45.6397186" lon="13.7921828"><ele>61.0</ele><time>2026-04-15T07:05:46.297Z</time></trkpt><trkpt lat="45.6397129" lon="13.7920513"><ele>61.0</ele><time>2026-04-15T07:05:47.289Z</time></trkpt><trkpt lat="45.6397053" lon="13.7919252"><ele>60.99999999999999</ele><time>2026-04-15T07:05:48.283Z</time></trkpt><trkpt lat="45.639688" lon="13.7917862"><ele>60.99999999999999</ele><time>2026-04-15T07:05:49.283Z</time></trkpt><trkpt lat="45.6396853" lon="13.791639"><ele>61.0</ele><time>2026-04-15T07:05:50.27Z</time></trkpt><trkpt lat="45.6396702" lon="13.7914902"><ele>61.0</ele><time>2026-04-15T07:05:51.275Z</time></trkpt><trkpt lat="45.6396601" lon="13.7913373"><ele>60.166666666666664</ele><time>2026-04-15T07:05:52.281Z</time></trkpt><trkpt lat="45.6396609" lon="13.7911801"><ele>59.33333333333333</ele><time>2026-04-15T07:05:53.282Z</time></trkpt><trkpt lat="45.6396584" lon="13.7910338"><ele>58.5</ele><time>2026-04-15T07:05:54.276Z</time></trkpt><trkpt lat="45.6396571" lon="13.7909092"><ele>57.66666666666667</ele><time>2026-04-15T07:05:55.273Z</time></trkpt><trkpt lat="45.6396705" lon="13.7908182"><ele>56.833333333333336</ele><time>2026-04-15T07:05:56.272Z</time></trkpt><trkpt lat="45.6396694" lon="13.790727"><ele>56.0</ele><time>2026-04-15T07:06:00.28Z</time></trkpt><trkpt lat="45.6396554" lon="13.7906368"><ele>55.8</ele><time>2026-04-15T07:06:06.278Z</time></trkpt><trkpt lat="45.6396494" lon="13.7905052"><ele>55.599999999999994</ele><time>2026-04-15T07:06:08.272Z</time></trkpt><trkpt lat="45.6396328" lon="13.7903176"><ele>55.4</ele><time>2026-04-15T07:06:10.284Z</time></trkpt><trkpt lat="45.6396274" lon="13.7902061"><ele>55.2</ele><time>2026-04-15T07:06:11.277Z</time></trkpt><trkpt lat="45.6396229" lon="13.7901045"><ele>55.0</ele><time>2026-04-15T07:06:12.271Z</time></trkpt><trkpt lat="45.6396299" lon="13.7899568"><ele>54.8</ele><time>2026-04-15T07:06:14.282Z</time></trkpt><trkpt lat="45.6396376" lon="13.7898585"><ele>54.6</ele><time>2026-04-15T07:06:16.283Z</time></trkpt><trkpt lat="45.6396519" lon="13.7896939"><ele>54.400000000000006</ele><time>2026-04-15T07:06:18.27Z</time></trkpt><trkpt lat="45.6396645" lon="13.7895869"><ele>54.2</ele><time>2026-04-15T07:06:19.27Z</time></trkpt><trkpt lat="45.6396978" lon="13.7894605"><ele>54.0</ele><time>2026-04-15T07:06:20.28Z</time></trkpt><trkpt lat="45.6397314" lon="13.7893225"><ele>53.400000000000006</ele><time>2026-04-15T07:06:21.267Z</time></trkpt><trkpt lat="45.6397707" lon="13.7891867"><ele>52.800000000000004</ele><time>2026-04-15T07:06:22.272Z</time></trkpt><trkpt lat="45.6398085" lon="13.7890424"><ele>52.2</ele><time>2026-04-15T07:06:23.277Z</time></trkpt><trkpt lat="45.6398434" lon="13.788906"><ele>51.599999999999994</ele><time>2026-04-15T07:06:24.278Z</time></trkpt><trkpt lat="45.6398735" lon="13.7887619"><ele>51.0</ele><time>2026-04-15T07:06:25.277Z</time></trkpt><trkpt lat="45.6399503" lon="13.7885013"><ele>51.0</ele><time>2026-04-15T07:06:27.272Z</time></trkpt><trkpt lat="45.6399987" lon="13.7883797"><ele>51.0</ele><time>2026-04-15T07:06:28.273Z</time></trkpt><trkpt lat="45.6400554" lon="13.7882531"><ele>51.0</ele><time>2026-04-15T07:06:29.276Z</time></trkpt><trkpt lat="45.6401216" lon="13.7881318"><ele>51.0</ele><time>2026-04-15T07:06:30.271Z</time></trkpt><trkpt lat="45.6401902" lon="13.7880183"><ele>51.0</ele><time>2026-04-15T07:06:31.269Z</time></trkpt><trkpt lat="45.6402668" lon="13.7879075"><ele>50.599999999999994</ele><time>2026-04-15T07:06:32.268Z</time></trkpt><trkpt lat="45.6403438" lon="13.7877975"><ele>50.2</ele><time>2026-04-15T07:06:33.275Z</time></trkpt><trkpt lat="45.6404209" lon="13.7876924"><ele>49.8</ele><time>2026-04-15T07:06:34.278Z</time></trkpt><trkpt lat="45.6404916" lon="13.7875934"><ele>49.400000000000006</ele><time>2026-04-15T07:06:35.267Z</time></trkpt><trkpt lat="45.6405696" lon="13.7874952"><ele>49.0</ele><time>2026-04-15T07:06:36.277Z</time></trkpt><trkpt lat="45.6406461" lon="13.7874034"><ele>48.800000000000004</ele><time>2026-04-15T07:06:37.269Z</time></trkpt><trkpt lat="45.6407185" lon="13.7873069"><ele>48.6</ele><time>2026-04-15T07:06:38.267Z</time></trkpt><trkpt lat="45.6407883" lon="13.7872151"><ele>48.4</ele><time>2026-04-15T07:06:39.27Z</time></trkpt><trkpt lat="45.6408543" lon="13.7871173"><ele>48.2</ele><time>2026-04-15T07:06:40.27Z</time></trkpt><trkpt lat="45.6409211" lon="13.7870243"><ele>48.0</ele><time>2026-04-15T07:06:41.264Z</time></trkpt><trkpt lat="45.6409965" lon="13.7869262"><ele>47.4</ele><time>2026-04-15T07:06:42.265Z</time></trkpt><trkpt lat="45.6410727" lon="13.7868231"><ele>46.8</ele><time>2026-04-15T07:06:43.263Z</time></trkpt><trkpt lat="45.6411448" lon="13.7867199"><ele>46.2</ele><time>2026-04-15T07:06:44.275Z</time></trkpt><trkpt lat="45.6412114" lon="13.7866287"><ele>45.6</ele><time>2026-04-15T07:06:45.266Z</time></trkpt><trkpt lat="45.6412689" lon="13.7865504"><ele>45.0</ele><time>2026-04-15T07:06:46.278Z</time></trkpt><trkpt lat="45.641336" lon="13.7864735"><ele>46.4</ele><time>2026-04-15T07:06:47.272Z</time></trkpt><trkpt lat="45.6413981" lon="13.7863834"><ele>47.8</ele><time>2026-04-15T07:06:48.268Z</time></trkpt><trkpt lat="45.6414668" lon="13.7863025"><ele>49.2</ele><time>2026-04-15T07:06:49.267Z</time></trkpt><trkpt lat="45.6415358" lon="13.7862217"><ele>50.6</ele><time>2026-04-15T07:06:50.27Z</time></trkpt><trkpt lat="45.6415978" lon="13.7861257"><ele>52.0</ele><time>2026-04-15T07:06:51.279Z</time></trkpt><trkpt lat="45.6416647" lon="13.7860328"><ele>50.0</ele><time>2026-04-15T07:06:52.27Z</time></trkpt><trkpt lat="45.6417343" lon="13.7859437"><ele>48.0</ele><time>2026-04-15T07:06:53.278Z</time></trkpt><trkpt lat="45.6418012" lon="13.7858591"><ele>46.0</ele><time>2026-04-15T07:06:54.259Z</time></trkpt><trkpt lat="45.6418624" lon="13.7857772"><ele>44.0</ele><time>2026-04-15T07:06:55.261Z</time></trkpt><trkpt lat="45.6419337" lon="13.7856891"><ele>42.0</ele><time>2026-04-15T07:06:56.263Z</time></trkpt><trkpt lat="45.6420085" lon="13.7855953"><ele>42.0</ele><time>2026-04-15T07:06:57.266Z</time></trkpt><trkpt lat="45.642094" lon="13.7854882"><ele>42.0</ele><time>2026-04-15T07:06:58.261Z</time></trkpt><trkpt lat="45.642184" lon="13.785374"><ele>42.0</ele><time>2026-04-15T07:06:59.263Z</time></trkpt><trkpt lat="45.6422788" lon="13.7852595"><ele>42.0</ele><time>2026-04-15T07:07:00.262Z</time></trkpt><trkpt lat="45.642371" lon="13.7851499"><ele>42.0</ele><time>2026-04-15T07:07:01.267Z</time></trkpt><trkpt lat="45.6424505" lon="13.7850437"><ele>42.0</ele><time>2026-04-15T07:07:02.263Z</time></trkpt><trkpt lat="45.6425165" lon="13.7849395"><ele>42.0</ele><time>2026-04-15T07:07:03.271Z</time></trkpt><trkpt lat="45.6425834" lon="13.7848452"><ele>42.0</ele><time>2026-04-15T07:07:04.262Z</time></trkpt><trkpt lat="45.6426415" lon="13.7847604"><ele>42.0</ele><time>2026-04-15T07:07:05.264Z</time></trkpt><trkpt lat="45.6426993" lon="13.7846812"><ele>42.0</ele><time>2026-04-15T07:07:06.272Z</time></trkpt><trkpt lat="45.6427557" lon="13.7845944"><ele>42.0</ele><time>2026-04-15T07:07:07.262Z</time></trkpt><trkpt lat="45.642812" lon="13.7845064"><ele>42.0</ele><time>2026-04-15T07:07:08.261Z</time></trkpt><trkpt lat="45.6428769" lon="13.7844227"><ele>42.0</ele><time>2026-04-15T07:07:09.263Z</time></trkpt><trkpt lat="45.6429392" lon="13.7843393"><ele>42.0</ele><time>2026-04-15T07:07:10.258Z</time></trkpt><trkpt lat="45.6429924" lon="13.7842623"><ele>42.0</ele><time>2026-04-15T07:07:11.256Z</time></trkpt><trkpt lat="45.6430406" lon="13.7841827"><ele>41.666666666666664</ele><time>2026-04-15T07:07:12.263Z</time></trkpt><trkpt lat="45.6430872" lon="13.7841039"><ele>41.333333333333336</ele><time>2026-04-15T07:07:13.261Z</time></trkpt><trkpt lat="45.6431446" lon="13.7840238"><ele>41.0</ele><time>2026-04-15T07:07:14.267Z</time></trkpt><trkpt lat="45.6431952" lon="13.7839509"><ele>40.66666666666667</ele><time>2026-04-15T07:07:15.261Z</time></trkpt><trkpt lat="45.6432544" lon="13.783886"><ele>40.333333333333336</ele><time>2026-04-15T07:07:16.258Z</time></trkpt><trkpt lat="45.6433163" lon="13.7838248"><ele>40.0</ele><time>2026-04-15T07:07:17.256Z</time></trkpt><trkpt lat="45.6433801" lon="13.783739"><ele>40.0</ele><time>2026-04-15T07:07:18.274Z</time></trkpt><trkpt lat="45.643442" lon="13.7836508"><ele>40.0</ele><time>2026-04-15T07:07:19.261Z</time></trkpt><trkpt lat="45.643503" lon="13.78355"><ele>40.0</ele><time>2026-04-15T07:07:20.27Z</time></trkpt><trkpt lat="45.6435733" lon="13.7834638"><ele>40.0</ele><time>2026-04-15T07:07:21.265Z</time></trkpt><trkpt lat="45.6436431" lon="13.7833842"><ele>40.0</ele><time>2026-04-15T07:07:22.272Z</time></trkpt><trkpt lat="45.6437212" lon="13.7833048"><ele>38.8</ele><time>2026-04-15T07:07:23.255Z</time></trkpt><trkpt lat="45.6437958" lon="13.7832187"><ele>37.6</ele><time>2026-04-15T07:07:24.274Z</time></trkpt><trkpt lat="45.6438615" lon="13.7831309"><ele>36.4</ele><time>2026-04-15T07:07:25.284Z</time></trkpt><trkpt lat="45.6439312" lon="13.7830429"><ele>35.2</ele><time>2026-04-15T07:07:26.269Z</time></trkpt><trkpt lat="45.6440015" lon="13.7829482"><ele>34.0</ele><time>2026-04-15T07:07:27.261Z</time></trkpt><trkpt lat="45.6440597" lon="13.7828655"><ele>33.99999999999999</ele><time>2026-04-15T07:07:28.263Z</time></trkpt><trkpt lat="45.6441201" lon="13.7827867"><ele>34.0</ele><time>2026-04-15T07:07:29.266Z</time></trkpt><trkpt lat="45.6441797" lon="13.7827163"><ele>34.0</ele><time>2026-04-15T07:07:30.279Z</time></trkpt><trkpt lat="45.6442381" lon="13.7826486"><ele>34.0</ele><time>2026-04-15T07:07:31.261Z</time></trkpt><trkpt lat="45.6442917" lon="13.7825867"><ele>34.0</ele><time>2026-04-15T07:07:32.254Z</time></trkpt><trkpt lat="45.6443432" lon="13.7825267"><ele>33.99999999999999</ele><time>2026-04-15T07:07:33.269Z</time></trkpt><trkpt lat="45.6444061" lon="13.7824641"><ele>34.0</ele><time>2026-04-15T07:07:34.256Z</time></trkpt><trkpt lat="45.6444674" lon="13.7823864"><ele>32.8</ele><time>2026-04-15T07:07:35.271Z</time></trkpt><trkpt lat="45.6445336" lon="13.7822869"><ele>31.599999999999998</ele><time>2026-04-15T07:07:36.257Z</time></trkpt><trkpt lat="45.644603" lon="13.7821807"><ele>30.4</ele><time>2026-04-15T07:07:37.361Z</time></trkpt><trkpt lat="45.6446681" lon="13.7820636"><ele>29.2</ele><time>2026-04-15T07:07:38.268Z</time></trkpt><trkpt lat="45.6447255" lon="13.7819735"><ele>28.0</ele><time>2026-04-15T07:07:39.263Z</time></trkpt><trkpt lat="45.6447821" lon="13.7818863"><ele>28.000000000000004</ele><time>2026-04-15T07:07:40.252Z</time></trkpt><trkpt lat="45.644826" lon="13.7817955"><ele>28.0</ele><time>2026-04-15T07:07:41.284Z</time></trkpt><trkpt lat="45.6449184" lon="13.7816348"><ele>28.0</ele><time>2026-04-15T07:07:43.361Z</time></trkpt><trkpt lat="45.6449732" lon="13.7815581"><ele>28.0</ele><time>2026-04-15T07:07:44.356Z</time></trkpt><trkpt lat="45.6450184" lon="13.7814827"><ele>28.000000000000004</ele><time>2026-04-15T07:07:45.354Z</time></trkpt><trkpt lat="45.6450634" lon="13.7814156"><ele>28.0</ele><time>2026-04-15T07:07:46.266Z</time></trkpt><trkpt lat="45.6451618" lon="13.7813125"><ele>28.0</ele><time>2026-04-15T07:07:48.265Z</time></trkpt><trkpt lat="45.6452559" lon="13.7812209"><ele>27.999999999999996</ele><time>2026-04-15T07:07:50.352Z</time></trkpt><trkpt lat="45.6453282" lon="13.7811343"><ele>27.999999999999996</ele><time>2026-04-15T07:07:52.364Z</time></trkpt><trkpt lat="45.6454064" lon="13.7810333"><ele>28.0</ele><time>2026-04-15T07:07:54.259Z</time></trkpt><trkpt lat="45.6454994" lon="13.7809273"><ele>28.0</ele><time>2026-04-15T07:07:56.357Z</time></trkpt><trkpt lat="45.6455541" lon="13.7808614"><ele>26.833333333333336</ele><time>2026-04-15T07:07:57.354Z</time></trkpt><trkpt lat="45.6456086" lon="13.7807998"><ele>25.666666666666668</ele><time>2026-04-15T07:07:58.362Z</time></trkpt><trkpt lat="45.645655" lon="13.7807234"><ele>24.5</ele><time>2026-04-15T07:07:59.354Z</time></trkpt><trkpt lat="45.6457051" lon="13.780654"><ele>23.333333333333336</ele><time>2026-04-15T07:08:00.27Z</time></trkpt><trkpt lat="45.6457673" lon="13.7806014"><ele>22.166666666666668</ele><time>2026-04-15T07:08:01.362Z</time></trkpt><trkpt lat="45.6458336" lon="13.7805821"><ele>21.0</ele><time>2026-04-15T07:08:02.353Z</time></trkpt><trkpt lat="45.6459538" lon="13.7805228"><ele>21.0</ele><time>2026-04-15T07:08:04.354Z</time></trkpt><trkpt lat="45.6460229" lon="13.7805105"><ele>21.0</ele><time>2026-04-15T07:08:05.358Z</time></trkpt><trkpt lat="45.6460891" lon="13.7804986"><ele>21.0</ele><time>2026-04-15T07:08:06.357Z</time></trkpt><trkpt lat="45.6461562" lon="13.7804812"><ele>21.0</ele><time>2026-04-15T07:08:07.268Z</time></trkpt><trkpt lat="45.6462251" lon="13.7804603"><ele>21.0</ele><time>2026-04-15T07:08:08.354Z</time></trkpt><trkpt lat="45.6462936" lon="13.7804462"><ele>21.0</ele><time>2026-04-15T07:08:09.353Z</time></trkpt><trkpt lat="45.6464427" lon="13.7804175"><ele>21.0</ele><time>2026-04-15T07:08:11.358Z</time></trkpt><trkpt lat="45.6465146" lon="13.7803829"><ele>21.0</ele><time>2026-04-15T07:08:12.357Z</time></trkpt><trkpt lat="45.6465732" lon="13.7803292"><ele>21.0</ele><time>2026-04-15T07:08:13.352Z</time></trkpt><trkpt lat="45.646625" lon="13.7802775"><ele>21.0</ele><time>2026-04-15T07:08:14.349Z</time></trkpt><trkpt lat="45.6467219" lon="13.7801698"><ele>21.0</ele><time>2026-04-15T07:08:16.349Z</time></trkpt><trkpt lat="45.6468217" lon="13.7800732"><ele>20.833333333333332</ele><time>2026-04-15T07:08:18.359Z</time></trkpt><trkpt lat="45.6469114" lon="13.7799628"><ele>20.666666666666668</ele><time>2026-04-15T07:08:20.352Z</time></trkpt><trkpt lat="45.6469618" lon="13.7799041"><ele>20.5</ele><time>2026-04-15T07:08:21.36Z</time></trkpt><trkpt lat="45.64702" lon="13.7798488"><ele>20.333333333333336</ele><time>2026-04-15T07:08:22.356Z</time></trkpt><trkpt lat="45.6470779" lon="13.7797981"><ele>20.166666666666668</ele><time>2026-04-15T07:08:23.349Z</time></trkpt><trkpt lat="45.6471374" lon="13.7797527"><ele>20.0</ele><time>2026-04-15T07:08:24.359Z</time></trkpt><trkpt lat="45.6472619" lon="13.7796689"><ele>21.5</ele><time>2026-04-15T07:08:26.366Z</time></trkpt><trkpt lat="45.6473562" lon="13.7796084"><ele>23.0</ele><time>2026-04-15T07:08:28.352Z</time></trkpt><trkpt lat="45.6474184" lon="13.7796827"><ele>24.5</ele><time>2026-04-15T07:08:31.355Z</time></trkpt><trkpt lat="45.6474266" lon="13.7797848"><ele>26.0</ele><time>2026-04-15T07:08:32.358Z</time></trkpt><trkpt lat="45.6474585" lon="13.7799058"><ele>27.499999999999996</ele><time>2026-04-15T07:08:33.357Z</time></trkpt><trkpt lat="45.6474816" lon="13.7800137"><ele>29.0</ele><time>2026-04-15T07:08:34.362Z</time></trkpt><trkpt lat="45.6475063" lon="13.7800968"><ele>29.0</ele><time>2026-04-15T07:08:35.353Z</time></trkpt><trkpt lat="45.6475528" lon="13.780216"><ele>29.0</ele><time>2026-04-15T07:08:37.358Z</time></trkpt><trkpt lat="45.6476479" lon="13.7803201"><ele>29.0</ele><time>2026-04-15T07:10:05.339Z</time></trkpt><trkpt lat="45.6476759" lon="13.7804448"><ele>29.0</ele><time>2026-04-15T07:11:07.323Z</time></trkpt><trkpt lat="45.6476979" lon="13.7805763"><ele>29.0</ele><time>2026-04-15T07:11:08.335Z</time></trkpt><trkpt lat="45.6477162" lon="13.7807"><ele>28.999999999999996</ele><time>2026-04-15T07:11:09.325Z</time></trkpt><trkpt lat="45.6477358" lon="13.780825"><ele>29.0</ele><time>2026-04-15T07:11:10.325Z</time></trkpt><trkpt lat="45.6477604" lon="13.7809485"><ele>29.0</ele><time>2026-04-15T07:11:11.334Z</time></trkpt><trkpt lat="45.6477836" lon="13.7810517"><ele>29.0</ele><time>2026-04-15T07:11:12.344Z</time></trkpt><trkpt lat="45.6478185" lon="13.7811399"><ele>28.999999999999996</ele><time>2026-04-15T07:11:13.319Z</time></trkpt><trkpt lat="45.6478849" lon="13.7812314"><ele>29.0</ele><time>2026-04-15T07:11:15.347Z</time></trkpt><trkpt lat="45.6478068" lon="13.7813331"><ele>28.5</ele><time>2026-04-15T07:11:18.327Z</time></trkpt><trkpt lat="45.6477066" lon="13.7814353"><ele>28.0</ele><time>2026-04-15T07:11:19.324Z</time></trkpt><trkpt lat="45.6475941" lon="13.7815411"><ele>27.5</ele><time>2026-04-15T07:11:20.347Z</time></trkpt><trkpt lat="45.6475021" lon="13.7816513"><ele>27.0</ele><time>2026-04-15T07:11:21.342Z</time></trkpt><trkpt lat="45.647389" lon="13.7817606"><ele>27.0</ele><time>2026-04-15T07:11:22.342Z</time></trkpt><trkpt lat="45.6472793" lon="13.7818471"><ele>27.0</ele><time>2026-04-15T07:11:23.318Z</time></trkpt><trkpt lat="45.6472018" lon="13.7819055"><ele>27.0</ele><time>2026-04-15T07:11:24.325Z</time></trkpt><trkpt lat="45.6471392" lon="13.78196"><ele>27.0</ele><time>2026-04-15T07:11:25.344Z</time></trkpt><trkpt lat="45.6470686" lon="13.7820027"><ele>27.0</ele><time>2026-04-15T07:11:26.35Z</time></trkpt><trkpt lat="45.6470195" lon="13.7820677"><ele>27.0</ele><time>2026-04-15T07:11:27.338Z</time></trkpt><trkpt lat="45.646869" lon="13.7822273"><ele>28.200000000000003</ele><time>2026-04-15T07:11:29.367Z</time></trkpt><trkpt lat="45.6467731" lon="13.7823129"><ele>29.400000000000002</ele><time>2026-04-15T07:11:30.336Z</time></trkpt><trkpt lat="45.6466555" lon="13.7823698"><ele>30.599999999999998</ele><time>2026-04-15T07:11:31.33Z</time></trkpt><trkpt lat="45.6465612" lon="13.7824392"><ele>31.799999999999997</ele><time>2026-04-15T07:11:32.327Z</time></trkpt><trkpt lat="45.6464969" lon="13.7824942"><ele>33.0</ele><time>2026-04-15T07:11:33.33Z</time></trkpt><trkpt lat="45.6465169" lon="13.7825918"><ele>32.75</ele><time>2026-04-15T07:11:36.337Z</time></trkpt><trkpt lat="45.646548" lon="13.7826938"><ele>32.5</ele><time>2026-04-15T07:11:37.323Z</time></trkpt><trkpt lat="45.6465909" lon="13.7828295"><ele>32.25</ele><time>2026-04-15T07:11:38.324Z</time></trkpt><trkpt lat="45.6466324" lon="13.7829809"><ele>32.0</ele><time>2026-04-15T07:11:39.319Z</time></trkpt><trkpt lat="45.6467343" lon="13.7833214"><ele>32.0</ele><time>2026-04-15T07:11:41.329Z</time></trkpt><trkpt lat="45.6467746" lon="13.7834768"><ele>32.0</ele><time>2026-04-15T07:11:42.338Z</time></trkpt><trkpt lat="45.6468144" lon="13.7836181"><ele>32.0</ele><time>2026-04-15T07:11:43.337Z</time></trkpt><trkpt lat="45.6468548" lon="13.7837471"><ele>32.0</ele><time>2026-04-15T07:11:44.326Z</time></trkpt><trkpt lat="45.6468795" lon="13.7838518"><ele>32.0</ele><time>2026-04-15T07:11:45.333Z</time></trkpt><trkpt lat="45.646904" lon="13.7839445"><ele>31.999999999999996</ele><time>2026-04-15T07:11:47.323Z</time></trkpt><trkpt lat="45.6469256" lon="13.784048"><ele>32.0</ele><time>2026-04-15T07:11:51.346Z</time></trkpt><trkpt lat="45.6469846" lon="13.7841087"><ele>32.0</ele><time>2026-04-15T07:11:54.318Z</time></trkpt><trkpt lat="45.6470351" lon="13.7841688"><ele>32.0</ele><time>2026-04-15T07:11:56.339Z</time></trkpt><trkpt lat="45.6470746" lon="13.7843191"><ele>31.999999999999996</ele><time>2026-04-15T07:11:58.333Z</time></trkpt><trkpt lat="45.647097" lon="13.7844681"><ele>32.0</ele><time>2026-04-15T07:11:59.319Z</time></trkpt><trkpt lat="45.6471536" lon="13.7846511"><ele>33.25</ele><time>2026-04-15T07:12:00.326Z</time></trkpt><trkpt lat="45.6472154" lon="13.7848296"><ele>34.5</ele><time>2026-04-15T07:12:01.317Z</time></trkpt><trkpt lat="45.6472902" lon="13.7850036"><ele>35.75</ele><time>2026-04-15T07:12:02.344Z</time></trkpt><trkpt lat="45.6473466" lon="13.7852095"><ele>37.0</ele><time>2026-04-15T07:12:03.321Z</time></trkpt><trkpt lat="45.647411" lon="13.7854139"><ele>38.0</ele><time>2026-04-15T07:12:04.322Z</time></trkpt><trkpt lat="45.6474744" lon="13.7856003"><ele>39.0</ele><time>2026-04-15T07:12:05.328Z</time></trkpt><trkpt lat="45.6475308" lon="13.7857696"><ele>40.0</ele><time>2026-04-15T07:12:06.341Z</time></trkpt><trkpt lat="45.6475756" lon="13.7859065"><ele>41.0</ele><time>2026-04-15T07:12:07.325Z</time></trkpt><trkpt lat="45.6476079" lon="13.7860175"><ele>41.599999999999994</ele><time>2026-04-15T07:12:08.321Z</time></trkpt><trkpt lat="45.6476402" lon="13.7861449"><ele>42.2</ele><time>2026-04-15T07:12:10.328Z</time></trkpt><trkpt lat="45.6476547" lon="13.7862596"><ele>42.8</ele><time>2026-04-15T07:12:21.318Z</time></trkpt><trkpt lat="45.6477233" lon="13.7863054"><ele>43.400000000000006</ele><time>2026-04-15T07:12:23.333Z</time></trkpt><trkpt lat="45.6478215" lon="13.7862757"><ele>44.0</ele><time>2026-04-15T07:12:24.333Z</time></trkpt><trkpt lat="45.6479235" lon="13.7862364"><ele>44.0</ele><time>2026-04-15T07:12:25.32Z</time></trkpt><trkpt lat="45.6480058" lon="13.7861883"><ele>44.0</ele><time>2026-04-15T07:12:26.321Z</time></trkpt><trkpt lat="45.6480791" lon="13.7861523"><ele>44.0</ele><time>2026-04-15T07:12:27.327Z</time></trkpt><trkpt lat="45.6481426" lon="13.7861006"><ele>44.0</ele><time>2026-04-15T07:12:28.328Z</time></trkpt><trkpt lat="45.6482204" lon="13.7860594"><ele>44.0</ele><time>2026-04-15T07:12:29.316Z</time></trkpt><trkpt lat="45.6482849" lon="13.7859938"><ele>44.0</ele><time>2026-04-15T07:12:30.31Z</time></trkpt><trkpt lat="45.6483585" lon="13.7859327"><ele>44.0</ele><time>2026-04-15T07:12:31.316Z</time></trkpt><trkpt lat="45.6484269" lon="13.785865"><ele>44.0</ele><time>2026-04-15T07:12:32.317Z</time></trkpt><trkpt lat="45.6484921" lon="13.7858065"><ele>44.0</ele><time>2026-04-15T07:12:33.324Z</time></trkpt><trkpt lat="45.6485499" lon="13.7857356"><ele>44.0</ele><time>2026-04-15T07:12:34.322Z</time></trkpt><trkpt lat="45.6486073" lon="13.7856824"><ele>44.0</ele><time>2026-04-15T07:12:35.312Z</time></trkpt><trkpt lat="45.6486704" lon="13.7856322"><ele>44.0</ele><time>2026-04-15T07:12:36.322Z</time></trkpt><trkpt lat="45.6487192" lon="13.7855639"><ele>44.0</ele><time>2026-04-15T07:12:37.328Z</time></trkpt><trkpt lat="45.6487781" lon="13.7855032"><ele>44.0</ele><time>2026-04-15T07:12:38.328Z</time></trkpt><trkpt lat="45.64884" lon="13.7854582"><ele>44.0</ele><time>2026-04-15T07:12:39.318Z</time></trkpt><trkpt lat="45.6489039" lon="13.7854033"><ele>44.0</ele><time>2026-04-15T07:12:40.32Z</time></trkpt><trkpt lat="45.6489683" lon="13.7853334"><ele>44.0</ele><time>2026-04-15T07:12:41.318Z</time></trkpt><trkpt lat="45.6490368" lon="13.7852577"><ele>44.0</ele><time>2026-04-15T07:12:42.329Z</time></trkpt><trkpt lat="45.6491076" lon="13.7851776"><ele>44.0</ele><time>2026-04-15T07:12:43.324Z</time></trkpt><trkpt lat="45.6491721" lon="13.785105"><ele>43.83333333333333</ele><time>2026-04-15T07:12:44.314Z</time></trkpt><trkpt lat="45.6492264" lon="13.7850343"><ele>43.666666666666664</ele><time>2026-04-15T07:12:45.323Z</time></trkpt><trkpt lat="45.6492773" lon="13.7849662"><ele>43.5</ele><time>2026-04-15T07:12:46.316Z</time></trkpt><trkpt lat="45.6493387" lon="13.7849106"><ele>43.333333333333336</ele><time>2026-04-15T07:12:47.331Z</time></trkpt><trkpt lat="45.6494089" lon="13.7848468"><ele>43.16666666666667</ele><time>2026-04-15T07:12:48.317Z</time></trkpt><trkpt lat="45.6494767" lon="13.7847814"><ele>43.0</ele><time>2026-04-15T07:12:49.328Z</time></trkpt><trkpt lat="45.6495439" lon="13.7847213"><ele>43.0</ele><time>2026-04-15T07:12:50.313Z</time></trkpt><trkpt lat="45.6495982" lon="13.7846501"><ele>43.0</ele><time>2026-04-15T07:12:51.32Z</time></trkpt><trkpt lat="45.6496652" lon="13.7845985"><ele>43.0</ele><time>2026-04-15T07:12:52.316Z</time></trkpt><trkpt lat="45.6497366" lon="13.7845693"><ele>43.0</ele><time>2026-04-15T07:12:53.316Z</time></trkpt><trkpt lat="45.6498001" lon="13.7845323"><ele>43.0</ele><time>2026-04-15T07:12:54.316Z</time></trkpt><trkpt lat="45.6498655" lon="13.7844978"><ele>43.0</ele><time>2026-04-15T07:12:55.317Z</time></trkpt><trkpt lat="45.6499747" lon="13.7844402"><ele>43.0</ele><time>2026-04-15T07:12:57.314Z</time></trkpt><trkpt lat="45.6500878" lon="13.7843926"><ele>43.0</ele><time>2026-04-15T07:12:59.321Z</time></trkpt><trkpt lat="45.6501896" lon="13.7843463"><ele>43.0</ele><time>2026-04-15T07:13:01.313Z</time></trkpt><trkpt lat="45.6502465" lon="13.7842843"><ele>43.0</ele><time>2026-04-15T07:13:03.324Z</time></trkpt><trkpt lat="45.6502964" lon="13.7842139"><ele>43.0</ele><time>2026-04-15T07:13:05.317Z</time></trkpt><trkpt lat="45.6503565" lon="13.7841397"><ele>43.0</ele><time>2026-04-15T07:13:07.313Z</time></trkpt><trkpt lat="45.6504641" lon="13.7841273"><ele>42.599999999999994</ele><time>2026-04-15T07:13:09.315Z</time></trkpt><trkpt lat="45.6505407" lon="13.7841507"><ele>42.199999999999996</ele><time>2026-04-15T07:13:11.313Z</time></trkpt><trkpt lat="45.6506058" lon="13.7841344"><ele>41.8</ele><time>2026-04-15T07:13:13.325Z</time></trkpt><trkpt lat="45.6505987" lon="13.7839699"><ele>41.4</ele><time>2026-04-15T07:13:16.327Z</time></trkpt><trkpt lat="45.6505508" lon="13.7838008"><ele>41.0</ele><time>2026-04-15T07:13:18.331Z</time></trkpt><trkpt lat="45.6505152" lon="13.7836593"><ele>39.599999999999994</ele><time>2026-04-15T07:13:20.314Z</time></trkpt><trkpt lat="45.6504605" lon="13.78351"><ele>38.199999999999996</ele><time>2026-04-15T07:13:22.337Z</time></trkpt><trkpt lat="45.6504236" lon="13.7833592"><ele>36.8</ele><time>2026-04-15T07:13:24.313Z</time></trkpt><trkpt lat="45.6504101" lon="13.7831728"><ele>35.4</ele><time>2026-04-15T07:13:26.316Z</time></trkpt><trkpt lat="45.6504072" lon="13.7830634"><ele>34.0</ele><time>2026-04-15T07:13:27.313Z</time></trkpt><trkpt lat="45.6504206" lon="13.7829572"><ele>34.0</ele><time>2026-04-15T07:13:28.319Z</time></trkpt><trkpt lat="45.6504356" lon="13.7828501"><ele>34.0</ele><time>2026-04-15T07:13:29.333Z</time></trkpt><trkpt lat="45.6504523" lon="13.7827346"><ele>34.0</ele><time>2026-04-15T07:13:30.316Z</time></trkpt><trkpt lat="45.6504706" lon="13.7826287"><ele>34.0</ele><time>2026-04-15T07:13:31.318Z</time></trkpt><trkpt lat="45.6505003" lon="13.7825188"><ele>34.0</ele><time>2026-04-15T07:13:32.326Z</time></trkpt><trkpt lat="45.6505175" lon="13.7824212"><ele>34.0</ele><time>2026-04-15T07:13:33.318Z</time></trkpt><trkpt lat="45.6505511" lon="13.7822923"><ele>32.6</ele><time>2026-04-15T07:13:35.321Z</time></trkpt><trkpt lat="45.6506048" lon="13.7822227"><ele>31.2</ele><time>2026-04-15T07:13:37.381Z</time></trkpt><trkpt lat="45.6507162" lon="13.7821931"><ele>29.800000000000004</ele><time>2026-04-15T07:13:39.328Z</time></trkpt><trkpt lat="45.6508319" lon="13.7821526"><ele>28.400000000000002</ele><time>2026-04-15T07:13:41.318Z</time></trkpt><trkpt lat="45.6509195" lon="13.7821064"><ele>27.0</ele><time>2026-04-15T07:13:43.313Z</time></trkpt><trkpt lat="45.6509907" lon="13.7820852"><ele>27.0</ele><time>2026-04-15T07:13:44.331Z</time></trkpt><trkpt lat="45.6510505" lon="13.7820568"><ele>27.000000000000004</ele><time>2026-04-15T07:13:45.34Z</time></trkpt><trkpt lat="45.6511692" lon="13.7820502"><ele>27.000000000000004</ele><time>2026-04-15T07:13:47.326Z</time></trkpt><trkpt lat="45.6512908" lon="13.7820175"><ele>27.0</ele><time>2026-04-15T07:13:49.321Z</time></trkpt><trkpt lat="45.6513529" lon="13.7819934"><ele>27.0</ele><time>2026-04-15T07:13:50.316Z</time></trkpt><trkpt lat="45.65144" lon="13.7819497"><ele>27.166666666666668</ele><time>2026-04-15T07:13:52.321Z</time></trkpt><trkpt lat="45.6515131" lon="13.7819123"><ele>27.333333333333336</ele><time>2026-04-15T07:14:07.321Z</time></trkpt><trkpt lat="45.6515962" lon="13.7818681"><ele>27.5</ele><time>2026-04-15T07:14:10.324Z</time></trkpt><trkpt lat="45.6516701" lon="13.7818481"><ele>27.666666666666668</ele><time>2026-04-15T07:14:12.322Z</time></trkpt><trkpt lat="45.6517524" lon="13.7818202"><ele>27.833333333333336</ele><time>2026-04-15T07:14:14.325Z</time></trkpt><trkpt lat="45.651825" lon="13.7818608"><ele>28.0</ele><time>2026-04-15T07:14:18.324Z</time></trkpt><trkpt lat="45.6518939" lon="13.7818458"><ele>28.0</ele><time>2026-04-15T07:14:48.303Z</time></trkpt><trkpt lat="45.6519542" lon="13.7817995"><ele>27.999999999999996</ele><time>2026-04-15T07:14:51.303Z</time></trkpt><trkpt lat="45.6520325" lon="13.7817764"><ele>27.999999999999996</ele><time>2026-04-15T07:14:53.313Z</time></trkpt><trkpt lat="45.6520975" lon="13.7816571"><ele>28.0</ele><time>2026-04-15T07:14:55.309Z</time></trkpt><trkpt lat="45.652209" lon="13.7815233"><ele>28.0</ele><time>2026-04-15T07:14:57.311Z</time></trkpt><trkpt lat="45.6522846" lon="13.7814698"><ele>26.599999999999998</ele><time>2026-04-15T07:14:58.313Z</time></trkpt><trkpt lat="45.6523599" lon="13.7814429"><ele>25.199999999999996</ele><time>2026-04-15T07:14:59.317Z</time></trkpt><trkpt lat="45.6524347" lon="13.7814095"><ele>23.8</ele><time>2026-04-15T07:15:00.314Z</time></trkpt><trkpt lat="45.6525286" lon="13.7813204"><ele>22.4</ele><time>2026-04-15T07:15:02.323Z</time></trkpt><trkpt lat="45.6526182" lon="13.7812412"><ele>21.0</ele><time>2026-04-15T07:15:04.312Z</time></trkpt><trkpt lat="45.6526845" lon="13.7811374"><ele>21.0</ele><time>2026-04-15T07:15:06.314Z</time></trkpt><trkpt lat="45.6527951" lon="13.7810485"><ele>21.0</ele><time>2026-04-15T07:15:08.317Z</time></trkpt><trkpt lat="45.6528336" lon="13.7809651"><ele>21.0</ele><time>2026-04-15T07:15:09.316Z</time></trkpt><trkpt lat="45.6528882" lon="13.7808868"><ele>21.0</ele><time>2026-04-15T07:15:10.301Z</time></trkpt><trkpt lat="45.652964" lon="13.7808085"><ele>21.0</ele><time>2026-04-15T07:15:11.322Z</time></trkpt><trkpt lat="45.6530402" lon="13.7807304"><ele>21.0</ele><time>2026-04-15T07:15:12.316Z</time></trkpt><trkpt lat="45.6531129" lon="13.7806632"><ele>21.0</ele><time>2026-04-15T07:15:13.311Z</time></trkpt><trkpt lat="45.6531939" lon="13.7806087"><ele>21.0</ele><time>2026-04-15T07:15:14.317Z</time></trkpt><trkpt lat="45.6532742" lon="13.780554"><ele>21.0</ele><time>2026-04-15T07:15:15.314Z</time></trkpt><trkpt lat="45.6533623" lon="13.7804969"><ele>21.0</ele><time>2026-04-15T07:15:16.318Z</time></trkpt><trkpt lat="45.6534484" lon="13.780421"><ele>21.0</ele><time>2026-04-15T07:15:17.311Z</time></trkpt><trkpt lat="45.6535401" lon="13.7803324"><ele>21.0</ele><time>2026-04-15T07:15:18.306Z</time></trkpt><trkpt lat="45.6536261" lon="13.7802381"><ele>21.0</ele><time>2026-04-15T07:15:19.329Z</time></trkpt><trkpt lat="45.6536988" lon="13.7801394"><ele>21.0</ele><time>2026-04-15T07:15:20.32Z</time></trkpt><trkpt lat="45.6537815" lon="13.7800668"><ele>21.0</ele><time>2026-04-15T07:15:21.307Z</time></trkpt><trkpt lat="45.653858" lon="13.7799985"><ele>20.857142857142858</ele><time>2026-04-15T07:15:22.331Z</time></trkpt><trkpt lat="45.6539212" lon="13.7799292"><ele>20.714285714285715</ele><time>2026-04-15T07:15:23.315Z</time></trkpt><trkpt lat="45.6539812" lon="13.7798761"><ele>20.57142857142857</ele><time>2026-04-15T07:15:24.314Z</time></trkpt><trkpt lat="45.6540413" lon="13.7798256"><ele>20.42857142857143</ele><time>2026-04-15T07:15:25.307Z</time></trkpt><trkpt lat="45.6540987" lon="13.7797696"><ele>20.285714285714285</ele><time>2026-04-15T07:15:26.305Z</time></trkpt><trkpt lat="45.6541696" lon="13.7797073"><ele>20.142857142857142</ele><time>2026-04-15T07:15:28.316Z</time></trkpt><trkpt lat="45.654234" lon="13.7796529"><ele>20.0</ele><time>2026-04-15T07:16:18.307Z</time></trkpt><trkpt lat="45.6542894" lon="13.7795882"><ele>20.0</ele><time>2026-04-15T07:16:20.301Z</time></trkpt><trkpt lat="45.6543565" lon="13.7794944"><ele>20.0</ele><time>2026-04-15T07:16:21.295Z</time></trkpt><trkpt lat="45.6544671" lon="13.7794109"><ele>20.0</ele><time>2026-04-15T07:16:22.306Z</time></trkpt><trkpt lat="45.6545775" lon="13.7793174"><ele>20.0</ele><time>2026-04-15T07:16:23.308Z</time></trkpt><trkpt lat="45.6546934" lon="13.7792329"><ele>20.0</ele><time>2026-04-15T07:16:24.307Z</time></trkpt><trkpt lat="45.6548074" lon="13.7791433"><ele>20.0</ele><time>2026-04-15T07:16:25.307Z</time></trkpt><trkpt lat="45.6549354" lon="13.7790796"><ele>20.0</ele><time>2026-04-15T07:16:26.307Z</time></trkpt><trkpt lat="45.6550656" lon="13.7790315"><ele>20.0</ele><time>2026-04-15T07:16:27.304Z</time></trkpt><trkpt lat="45.655192" lon="13.7790012"><ele>20.833333333333336</ele><time>2026-04-15T07:16:28.293Z</time></trkpt><trkpt lat="45.6553023" lon="13.7789781"><ele>21.666666666666668</ele><time>2026-04-15T07:16:29.3Z</time></trkpt><trkpt lat="45.655394" lon="13.7789519"><ele>22.5</ele><time>2026-04-15T07:16:30.315Z</time></trkpt><trkpt lat="45.6554626" lon="13.7789286"><ele>23.333333333333336</ele><time>2026-04-15T07:16:31.296Z</time></trkpt><trkpt lat="45.6555246" lon="13.7788889"><ele>24.166666666666668</ele><time>2026-04-15T07:16:33.294Z</time></trkpt><trkpt lat="45.6555349" lon="13.7787655"><ele>25.0</ele><time>2026-04-15T07:16:35.31Z</time></trkpt><trkpt lat="45.6555341" lon="13.7786665"><ele>25.0</ele><time>2026-04-15T07:16:36.298Z</time></trkpt><trkpt lat="45.6555194" lon="13.7785189"><ele>25.0</ele><time>2026-04-15T07:16:37.298Z</time></trkpt><trkpt lat="45.6554954" lon="13.7782991"><ele>25.0</ele><time>2026-04-15T07:16:38.302Z</time></trkpt><trkpt lat="45.655481" lon="13.7780646"><ele>25.0</ele><time>2026-04-15T07:16:39.315Z</time></trkpt><trkpt lat="45.6554553" lon="13.7778217"><ele>25.0</ele><time>2026-04-15T07:16:40.289Z</time></trkpt><trkpt lat="45.6554274" lon="13.7775873"><ele>25.0</ele><time>2026-04-15T07:16:41.303Z</time></trkpt><trkpt lat="45.6554142" lon="13.7773743"><ele>25.0</ele><time>2026-04-15T07:16:42.305Z</time></trkpt><trkpt lat="45.6553928" lon="13.77716"><ele>25.0</ele><time>2026-04-15T07:16:43.309Z</time></trkpt><trkpt lat="45.6553704" lon="13.7769597"><ele>25.0</ele><time>2026-04-15T07:16:44.308Z</time></trkpt><trkpt lat="45.6553346" lon="13.7767658"><ele>25.0</ele><time>2026-04-15T07:16:45.314Z</time></trkpt><trkpt lat="45.6553348" lon="13.7765996"><ele>25.0</ele><time>2026-04-15T07:16:46.299Z</time></trkpt><trkpt lat="45.6553225" lon="13.7764683"><ele>25.000000000000004</ele><time>2026-04-15T07:16:47.315Z</time></trkpt><trkpt lat="45.6553199" lon="13.7763669"><ele>25.0</ele><time>2026-04-15T07:16:48.29Z</time></trkpt><trkpt lat="45.6553053" lon="13.7761967"><ele>25.0</ele><time>2026-04-15T07:16:50.293Z</time></trkpt><trkpt lat="45.6552961" lon="13.7760708"><ele>25.0</ele><time>2026-04-15T07:16:52.295Z</time></trkpt><trkpt lat="45.6552697" lon="13.7759874"><ele>25.000000000000004</ele><time>2026-04-15T07:16:59.289Z</time></trkpt><trkpt lat="45.6552702" lon="13.775881"><ele>25.0</ele><time>2026-04-15T07:17:02.298Z</time></trkpt><trkpt lat="45.655262" lon="13.7757767"><ele>24.000000000000004</ele><time>2026-04-15T07:17:05.307Z</time></trkpt><trkpt lat="45.6552432" lon="13.7756682"><ele>23.0</ele><time>2026-04-15T07:17:08.316Z</time></trkpt><trkpt lat="45.6552204" lon="13.7755463"><ele>22.0</ele><time>2026-04-15T07:17:10.289Z</time></trkpt><trkpt lat="45.6552391" lon="13.7753884"><ele>21.0</ele><time>2026-04-15T07:17:12.301Z</time></trkpt><trkpt lat="45.6552942" lon="13.7752809"><ele>20.0</ele><time>2026-04-15T07:17:14.29Z</time></trkpt><trkpt lat="45.6553237" lon="13.7752008"><ele>19.0</ele><time>2026-04-15T07:17:16.292Z</time></trkpt><trkpt lat="45.6553851" lon="13.7751167"><ele>19.0</ele><time>2026-04-15T07:17:19.292Z</time></trkpt><trkpt lat="45.6554752" lon="13.7751804"><ele>19.0</ele><time>2026-04-15T07:17:21.291Z</time></trkpt><trkpt lat="45.6555842" lon="13.7752409"><ele>19.0</ele><time>2026-04-15T07:17:23.298Z</time></trkpt><trkpt lat="45.6556471" lon="13.775265"><ele>19.0</ele><time>2026-04-15T07:17:24.296Z</time></trkpt><trkpt lat="45.6557185" lon="13.7753026"><ele>19.0</ele><time>2026-04-15T07:17:25.301Z</time></trkpt><trkpt lat="45.6557843" lon="13.7753436"><ele>19.0</ele><time>2026-04-15T07:17:26.337Z</time></trkpt><trkpt lat="45.6558425" lon="13.7753885"><ele>19.0</ele><time>2026-04-15T07:17:27.321Z</time></trkpt><trkpt lat="45.6559309" lon="13.7753843"><ele>19.0</ele><time>2026-04-15T07:17:29.3Z</time></trkpt><trkpt lat="45.6559988" lon="13.7753322"><ele>19.0</ele><time>2026-04-15T07:17:33.294Z</time></trkpt><trkpt lat="45.65608" lon="13.7752824"><ele>19.0</ele><time>2026-04-15T07:17:52.289Z</time></trkpt><trkpt lat="45.6561446" lon="13.7751923"><ele>19.0</ele><time>2026-04-15T07:17:54.297Z</time></trkpt><trkpt lat="45.6561956" lon="13.7750892"><ele>19.0</ele><time>2026-04-15T07:17:56.299Z</time></trkpt><trkpt lat="45.6561961" lon="13.7749543"><ele>19.4</ele><time>2026-04-15T07:17:59.291Z</time></trkpt><trkpt lat="45.6561513" lon="13.7748834"><ele>19.799999999999997</ele><time>2026-04-15T07:18:01.288Z</time></trkpt><trkpt lat="45.656091" lon="13.7748303"><ele>20.200000000000003</ele><time>2026-04-15T07:18:02.312Z</time></trkpt><trkpt lat="45.6560124" lon="13.7747712"><ele>20.6</ele><time>2026-04-15T07:18:03.286Z</time></trkpt><trkpt lat="45.6559136" lon="13.7746926"><ele>21.0</ele><time>2026-04-15T07:18:04.301Z</time></trkpt><trkpt lat="45.6558118" lon="13.7746295"><ele>20.333333333333332</ele><time>2026-04-15T07:18:05.288Z</time></trkpt><trkpt lat="45.6557391" lon="13.7745914"><ele>19.666666666666668</ele><time>2026-04-15T07:18:06.287Z</time></trkpt><trkpt lat="45.6556562" lon="13.7745361"><ele>19.0</ele><time>2026-04-15T07:18:08.286Z</time></trkpt><trkpt lat="45.6556287" lon="13.7744269"><ele>18.333333333333336</ele><time>2026-04-15T07:19:06.283Z</time></trkpt><trkpt lat="45.6556588" lon="13.7743109"><ele>17.666666666666668</ele><time>2026-04-15T07:19:07.283Z</time></trkpt><trkpt lat="45.6556903" lon="13.7741622"><ele>17.0</ele><time>2026-04-15T07:19:08.278Z</time></trkpt><trkpt lat="45.6557341" lon="13.7739759"><ele>17.0</ele><time>2026-04-15T07:19:09.281Z</time></trkpt><trkpt lat="45.6557853" lon="13.7737819"><ele>17.0</ele><time>2026-04-15T07:19:10.273Z</time></trkpt><trkpt lat="45.6558303" lon="13.7736076"><ele>17.0</ele><time>2026-04-15T07:19:11.274Z</time></trkpt><trkpt lat="45.6558692" lon="13.7734629"><ele>17.0</ele><time>2026-04-15T07:19:12.268Z</time></trkpt><trkpt lat="45.6558979" lon="13.7733485"><ele>17.166666666666668</ele><time>2026-04-15T07:19:13.277Z</time></trkpt><trkpt lat="45.6559373" lon="13.7732704"><ele>17.333333333333336</ele><time>2026-04-15T07:19:14.302Z</time></trkpt><trkpt lat="45.6560255" lon="13.7731943"><ele>17.5</ele><time>2026-04-15T07:19:16.292Z</time></trkpt><trkpt lat="45.6560997" lon="13.7731694"><ele>17.666666666666668</ele><time>2026-04-15T07:19:17.283Z</time></trkpt><trkpt lat="45.6561693" lon="13.7731331"><ele>17.833333333333332</ele><time>2026-04-15T07:19:18.279Z</time></trkpt><trkpt lat="45.6562428" lon="13.7731043"><ele>18.0</ele><time>2026-04-15T07:19:19.281Z</time></trkpt><trkpt lat="45.6563075" lon="13.7730821"><ele>17.666666666666668</ele><time>2026-04-15T07:19:20.286Z</time></trkpt><trkpt lat="45.656358" lon="13.7730233"><ele>17.333333333333332</ele><time>2026-04-15T07:19:23.275Z</time></trkpt><trkpt lat="45.6564446" lon="13.7729961"><ele>17.0</ele><time>2026-04-15T07:19:51.271Z</time></trkpt><trkpt lat="45.6565156" lon="13.7729961"><ele>16.666666666666664</ele><time>2026-04-15T07:19:52.282Z</time></trkpt><trkpt lat="45.6566163" lon="13.7730062"><ele>16.333333333333332</ele><time>2026-04-15T07:19:53.278Z</time></trkpt><trkpt lat="45.656737" lon="13.7730078"><ele>16.0</ele><time>2026-04-15T07:19:54.269Z</time></trkpt><trkpt lat="45.6568792" lon="13.772986"><ele>15.666666666666666</ele><time>2026-04-15T07:19:55.275Z</time></trkpt><trkpt lat="45.6570392" lon="13.7729249"><ele>15.333333333333332</ele><time>2026-04-15T07:19:56.274Z</time></trkpt><trkpt lat="45.6571818" lon="13.7728555"><ele>15.0</ele><time>2026-04-15T07:19:57.281Z</time></trkpt><trkpt lat="45.6573168" lon="13.77279"><ele>15.0</ele><time>2026-04-15T07:19:58.27Z</time></trkpt><trkpt lat="45.657445" lon="13.7727234"><ele>15.0</ele><time>2026-04-15T07:19:59.296Z</time></trkpt><trkpt lat="45.657572" lon="13.7726571"><ele>15.0</ele><time>2026-04-15T07:20:00.279Z</time></trkpt><trkpt lat="45.6576983" lon="13.7725996"><ele>15.0</ele><time>2026-04-15T07:20:01.268Z</time></trkpt><trkpt lat="45.6578186" lon="13.7725383"><ele>14.0</ele><time>2026-04-15T07:20:02.282Z</time></trkpt><trkpt lat="45.6579369" lon="13.7724846"><ele>13.0</ele><time>2026-04-15T07:20:03.271Z</time></trkpt><trkpt lat="45.6580533" lon="13.7724356"><ele>12.0</ele><time>2026-04-15T07:20:04.275Z</time></trkpt><trkpt lat="45.6581659" lon="13.7723804"><ele>11.0</ele><time>2026-04-15T07:20:05.272Z</time></trkpt><trkpt lat="45.6582732" lon="13.7723225"><ele>11.0</ele><time>2026-04-15T07:20:06.277Z</time></trkpt><trkpt lat="45.6583823" lon="13.7722601"><ele>11.0</ele><time>2026-04-15T07:20:07.271Z</time></trkpt><trkpt lat="45.6584845" lon="13.7722013"><ele>11.0</ele><time>2026-04-15T07:20:08.267Z</time></trkpt><trkpt lat="45.6585801" lon="13.7721441"><ele>11.0</ele><time>2026-04-15T07:20:09.273Z</time></trkpt><trkpt lat="45.6586692" lon="13.7720831"><ele>11.0</ele><time>2026-04-15T07:20:10.292Z</time></trkpt><trkpt lat="45.658744" lon="13.7720403"><ele>10.714285714285715</ele><time>2026-04-15T07:20:11.273Z</time></trkpt><trkpt lat="45.6588082" lon="13.7720062"><ele>10.428571428571429</ele><time>2026-04-15T07:20:12.272Z</time></trkpt><trkpt lat="45.6588705" lon="13.771972"><ele>10.142857142857142</ele><time>2026-04-15T07:20:13.276Z</time></trkpt><trkpt lat="45.6589355" lon="13.7719385"><ele>9.857142857142858</ele><time>2026-04-15T07:20:14.277Z</time></trkpt><trkpt lat="45.6590051" lon="13.7718942"><ele>9.571428571428571</ele><time>2026-04-15T07:20:15.275Z</time></trkpt><trkpt lat="45.6590813" lon="13.7718477"><ele>9.285714285714286</ele><time>2026-04-15T07:20:16.281Z</time></trkpt><trkpt lat="45.6591571" lon="13.7718086"><ele>9.0</ele><time>2026-04-15T07:20:17.266Z</time></trkpt><trkpt lat="45.6592341" lon="13.7717692"><ele>9.0</ele><time>2026-04-15T07:20:18.27Z</time></trkpt><trkpt lat="45.6593094" lon="13.7717229"><ele>9.0</ele><time>2026-04-15T07:20:19.267Z</time></trkpt><trkpt lat="45.6593801" lon="13.7716865"><ele>9.0</ele><time>2026-04-15T07:20:20.269Z</time></trkpt><trkpt lat="45.6594492" lon="13.77165"><ele>9.0</ele><time>2026-04-15T07:20:21.27Z</time></trkpt><trkpt lat="45.6595149" lon="13.7716088"><ele>9.0</ele><time>2026-04-15T07:20:22.266Z</time></trkpt><trkpt lat="45.6595876" lon="13.7715687"><ele>9.0</ele><time>2026-04-15T07:20:23.266Z</time></trkpt><trkpt lat="45.6596628" lon="13.771533"><ele>10.8</ele><time>2026-04-15T07:20:24.267Z</time></trkpt><trkpt lat="45.6597455" lon="13.7714914"><ele>12.600000000000001</ele><time>2026-04-15T07:20:25.279Z</time></trkpt><trkpt lat="45.6598347" lon="13.7714396"><ele>14.4</ele><time>2026-04-15T07:20:26.277Z</time></trkpt><trkpt lat="45.6599254" lon="13.7713916"><ele>16.2</ele><time>2026-04-15T07:20:27.266Z</time></trkpt><trkpt lat="45.6600275" lon="13.7713339"><ele>18.0</ele><time>2026-04-15T07:20:28.267Z</time></trkpt><trkpt lat="45.6601475" lon="13.7712611"><ele>18.0</ele><time>2026-04-15T07:20:29.261Z</time></trkpt><trkpt lat="45.6602761" lon="13.7711816"><ele>18.0</ele><time>2026-04-15T07:20:30.266Z</time></trkpt><trkpt lat="45.6604081" lon="13.7711116"><ele>18.0</ele><time>2026-04-15T07:20:31.264Z</time></trkpt><trkpt lat="45.6605378" lon="13.7710475"><ele>18.0</ele><time>2026-04-15T07:20:32.266Z</time></trkpt><trkpt lat="45.6606593" lon="13.7709774"><ele>15.75</ele><time>2026-04-15T07:20:33.265Z</time></trkpt><trkpt lat="45.6607702" lon="13.7709039"><ele>13.5</ele><time>2026-04-15T07:20:34.268Z</time></trkpt><trkpt lat="45.6608771" lon="13.770846"><ele>11.25</ele><time>2026-04-15T07:20:35.263Z</time></trkpt><trkpt lat="45.6609803" lon="13.7707821"><ele>9.0</ele><time>2026-04-15T07:20:36.269Z</time></trkpt><trkpt lat="45.661081" lon="13.7707287"><ele>10.2</ele><time>2026-04-15T07:20:37.277Z</time></trkpt><trkpt lat="45.6611755" lon="13.7706751"><ele>11.4</ele><time>2026-04-15T07:20:38.278Z</time></trkpt><trkpt lat="45.6612688" lon="13.7706223"><ele>12.6</ele><time>2026-04-15T07:20:39.271Z</time></trkpt><trkpt lat="45.6613598" lon="13.7705695"><ele>13.8</ele><time>2026-04-15T07:20:40.265Z</time></trkpt><trkpt lat="45.6614463" lon="13.7705231"><ele>15.0</ele><time>2026-04-15T07:20:41.274Z</time></trkpt><trkpt lat="45.6615267" lon="13.7704789"><ele>15.0</ele><time>2026-04-15T07:20:42.302Z</time></trkpt><trkpt lat="45.6616016" lon="13.7704333"><ele>15.0</ele><time>2026-04-15T07:20:43.267Z</time></trkpt><trkpt lat="45.6617438" lon="13.7703545"><ele>15.0</ele><time>2026-04-15T07:20:45.268Z</time></trkpt><trkpt lat="45.661819" lon="13.7703177"><ele>15.0</ele><time>2026-04-15T07:20:46.269Z</time></trkpt><trkpt lat="45.6619024" lon="13.7702857"><ele>15.0</ele><time>2026-04-15T07:20:47.271Z</time></trkpt><trkpt lat="45.66199" lon="13.7702411"><ele>14.5</ele><time>2026-04-15T07:20:48.265Z</time></trkpt><trkpt lat="45.6620726" lon="13.7701919"><ele>14.0</ele><time>2026-04-15T07:20:49.262Z</time></trkpt><trkpt lat="45.6621468" lon="13.7701439"><ele>13.5</ele><time>2026-04-15T07:20:50.259Z</time></trkpt><trkpt lat="45.6622178" lon="13.7700957"><ele>13.0</ele><time>2026-04-15T07:20:51.262Z</time></trkpt><trkpt lat="45.662284" lon="13.7700495"><ele>12.5</ele><time>2026-04-15T07:20:52.27Z</time></trkpt><trkpt lat="45.662344" lon="13.7700135"><ele>12.0</ele><time>2026-04-15T07:20:53.255Z</time></trkpt><trkpt lat="45.6624018" lon="13.7699768"><ele>12.0</ele><time>2026-04-15T07:20:54.26Z</time></trkpt><trkpt lat="45.662501" lon="13.7699179"><ele>12.0</ele><time>2026-04-15T07:20:56.258Z</time></trkpt><trkpt lat="45.6625892" lon="13.7698659"><ele>12.0</ele><time>2026-04-15T07:20:58.269Z</time></trkpt><trkpt lat="45.6626653" lon="13.7698164"><ele>12.0</ele><time>2026-04-15T07:21:00.262Z</time></trkpt><trkpt lat="45.6627264" lon="13.7697845"><ele>12.0</ele><time>2026-04-15T07:21:01.26Z</time></trkpt><trkpt lat="45.6628184" lon="13.7697395"><ele>12.0</ele><time>2026-04-15T07:21:02.256Z</time></trkpt><trkpt lat="45.6629141" lon="13.7696926"><ele>13.0</ele><time>2026-04-15T07:21:03.258Z</time></trkpt><trkpt lat="45.6630114" lon="13.7696355"><ele>14.0</ele><time>2026-04-15T07:21:04.26Z</time></trkpt><trkpt lat="45.6631055" lon="13.7695696"><ele>15.0</ele><time>2026-04-15T07:21:05.258Z</time></trkpt><trkpt lat="45.6632007" lon="13.769511"><ele>16.0</ele><time>2026-04-15T07:21:06.262Z</time></trkpt><trkpt lat="45.6632917" lon="13.7694657"><ele>17.0</ele><time>2026-04-15T07:21:07.261Z</time></trkpt><trkpt lat="45.6633785" lon="13.7694252"><ele>17.0</ele><time>2026-04-15T07:21:08.266Z</time></trkpt><trkpt lat="45.6634702" lon="13.7693838"><ele>17.0</ele><time>2026-04-15T07:21:09.273Z</time></trkpt><trkpt lat="45.663549" lon="13.7693146"><ele>17.0</ele><time>2026-04-15T07:21:10.271Z</time></trkpt><trkpt lat="45.6636314" lon="13.7692369"><ele>17.0</ele><time>2026-04-15T07:21:11.268Z</time></trkpt><trkpt lat="45.6637113" lon="13.7691435"><ele>17.0</ele><time>2026-04-15T07:21:12.256Z</time></trkpt><trkpt lat="45.663781" lon="13.7690129"><ele>16.5</ele><time>2026-04-15T07:21:13.266Z</time></trkpt><trkpt lat="45.6638483" lon="13.7688818"><ele>16.0</ele><time>2026-04-15T07:21:14.258Z</time></trkpt><trkpt lat="45.6639313" lon="13.7687497"><ele>15.5</ele><time>2026-04-15T07:21:15.28Z</time></trkpt><trkpt lat="45.6640106" lon="13.7686073"><ele>15.0</ele><time>2026-04-15T07:21:16.259Z</time></trkpt><trkpt lat="45.6640998" lon="13.7684604"><ele>15.5</ele><time>2026-04-15T07:21:17.271Z</time></trkpt><trkpt lat="45.6641971" lon="13.7683097"><ele>16.0</ele><time>2026-04-15T07:21:18.263Z</time></trkpt><trkpt lat="45.6642935" lon="13.7681599"><ele>16.5</ele><time>2026-04-15T07:21:19.258Z</time></trkpt><trkpt lat="45.6643894" lon="13.768003"><ele>17.0</ele><time>2026-04-15T07:21:20.266Z</time></trkpt><trkpt lat="45.664488" lon="13.7678476"><ele>16.333333333333336</ele><time>2026-04-15T07:21:21.279Z</time></trkpt><trkpt lat="45.6645905" lon="13.7676899"><ele>15.666666666666668</ele><time>2026-04-15T07:21:22.266Z</time></trkpt><trkpt lat="45.664691" lon="13.7675268"><ele>15.0</ele><time>2026-04-15T07:21:23.262Z</time></trkpt><trkpt lat="45.6647871" lon="13.7673504"><ele>15.0</ele><time>2026-04-15T07:21:24.265Z</time></trkpt><trkpt lat="45.6648843" lon="13.7671641"><ele>15.0</ele><time>2026-04-15T07:21:25.264Z</time></trkpt><trkpt lat="45.6649767" lon="13.7669714"><ele>15.0</ele><time>2026-04-15T07:21:26.271Z</time></trkpt><trkpt lat="45.6650633" lon="13.7667705"><ele>13.666666666666666</ele><time>2026-04-15T07:21:27.285Z</time></trkpt><trkpt lat="45.6651423" lon="13.7665631"><ele>12.333333333333332</ele><time>2026-04-15T07:21:28.255Z</time></trkpt><trkpt lat="45.6652172" lon="13.7663571"><ele>11.0</ele><time>2026-04-15T07:21:29.268Z</time></trkpt><trkpt lat="45.665367" lon="13.7659205"><ele>15.333333333333332</ele><time>2026-04-15T07:21:31.26Z</time></trkpt><trkpt lat="45.6654325" lon="13.7656956"><ele>19.666666666666668</ele><time>2026-04-15T07:21:32.262Z</time></trkpt><trkpt lat="45.6654877" lon="13.7654748"><ele>24.0</ele><time>2026-04-15T07:21:33.259Z</time></trkpt><trkpt lat="45.6655305" lon="13.7652481"><ele>19.333333333333332</ele><time>2026-04-15T07:21:34.257Z</time></trkpt><trkpt lat="45.6655607" lon="13.7650185"><ele>14.666666666666668</ele><time>2026-04-15T07:21:35.262Z</time></trkpt><trkpt lat="45.6655876" lon="13.7647823"><ele>10.0</ele><time>2026-04-15T07:21:36.263Z</time></trkpt><trkpt lat="45.6656151" lon="13.7645466"><ele>9.666666666666668</ele><time>2026-04-15T07:21:37.269Z</time></trkpt><trkpt lat="45.6656414" lon="13.7643151"><ele>9.333333333333334</ele><time>2026-04-15T07:21:38.267Z</time></trkpt><trkpt lat="45.6656724" lon="13.764095"><ele>9.0</ele><time>2026-04-15T07:21:39.258Z</time></trkpt><trkpt lat="45.6657069" lon="13.7638898"><ele>9.0</ele><time>2026-04-15T07:21:40.257Z</time></trkpt><trkpt lat="45.6657515" lon="13.7636925"><ele>9.0</ele><time>2026-04-15T07:21:41.265Z</time></trkpt><trkpt lat="45.6658312" lon="13.7635162"><ele>9.0</ele><time>2026-04-15T07:21:42.265Z</time></trkpt><trkpt lat="45.6659313" lon="13.7633735"><ele>9.0</ele><time>2026-04-15T07:21:43.263Z</time></trkpt><trkpt lat="45.6660481" lon="13.7632495"><ele>9.25</ele><time>2026-04-15T07:21:44.259Z</time></trkpt><trkpt lat="45.6661691" lon="13.7631336"><ele>9.5</ele><time>2026-04-15T07:21:45.259Z</time></trkpt><trkpt lat="45.6662884" lon="13.7630171"><ele>9.75</ele><time>2026-04-15T07:21:46.262Z</time></trkpt><trkpt lat="45.6664" lon="13.7629232"><ele>10.0</ele><time>2026-04-15T07:21:47.267Z</time></trkpt><trkpt lat="45.6665083" lon="13.762843"><ele>10.0</ele><time>2026-04-15T07:21:48.26Z</time></trkpt><trkpt lat="45.6666131" lon="13.7627574"><ele>10.0</ele><time>2026-04-15T07:21:49.27Z</time></trkpt><trkpt lat="45.6667209" lon="13.762668"><ele>10.0</ele><time>2026-04-15T07:21:50.267Z</time></trkpt><trkpt lat="45.6668307" lon="13.76258"><ele>10.0</ele><time>2026-04-15T07:21:51.257Z</time></trkpt><trkpt lat="45.6669423" lon="13.7624978"><ele>10.5</ele><time>2026-04-15T07:21:52.264Z</time></trkpt><trkpt lat="45.6670525" lon="13.7624109"><ele>11.0</ele><time>2026-04-15T07:21:53.271Z</time></trkpt><trkpt lat="45.6671614" lon="13.7623325"><ele>11.5</ele><time>2026-04-15T07:21:54.274Z</time></trkpt><trkpt lat="45.667266" lon="13.7622465"><ele>12.0</ele><time>2026-04-15T07:21:55.267Z</time></trkpt><trkpt lat="45.6673635" lon="13.7621359"><ele>12.0</ele><time>2026-04-15T07:21:56.266Z</time></trkpt><trkpt lat="45.6674626" lon="13.761995"><ele>12.0</ele><time>2026-04-15T07:21:57.264Z</time></trkpt><trkpt lat="45.6675472" lon="13.7618393"><ele>12.0</ele><time>2026-04-15T07:21:58.272Z</time></trkpt><trkpt lat="45.6676144" lon="13.7616758"><ele>12.0</ele><time>2026-04-15T07:21:59.27Z</time></trkpt><trkpt lat="45.6676939" lon="13.7615188"><ele>10.5</ele><time>2026-04-15T07:22:00.26Z</time></trkpt><trkpt lat="45.6677901" lon="13.7613916"><ele>9.0</ele><time>2026-04-15T07:22:01.268Z</time></trkpt><trkpt lat="45.6679047" lon="13.7612606"><ele>7.5</ele><time>2026-04-15T07:22:02.26Z</time></trkpt><trkpt lat="45.6680381" lon="13.76112"><ele>6.0</ele><time>2026-04-15T07:22:03.26Z</time></trkpt><trkpt lat="45.6681894" lon="13.7609748"><ele>6.0</ele><time>2026-04-15T07:22:04.261Z</time></trkpt><trkpt lat="45.668348" lon="13.7608393"><ele>6.0</ele><time>2026-04-15T07:22:05.262Z</time></trkpt><trkpt lat="45.6684995" lon="13.7607089"><ele>6.0</ele><time>2026-04-15T07:22:06.268Z</time></trkpt><trkpt lat="45.6686331" lon="13.7605677"><ele>6.666666666666666</ele><time>2026-04-15T07:22:07.262Z</time></trkpt><trkpt lat="45.668767" lon="13.7604241"><ele>7.333333333333333</ele><time>2026-04-15T07:22:08.268Z</time></trkpt><trkpt lat="45.6688981" lon="13.7602755"><ele>8.0</ele><time>2026-04-15T07:22:09.271Z</time></trkpt><trkpt lat="45.6690359" lon="13.7601285"><ele>8.0</ele><time>2026-04-15T07:22:10.279Z</time></trkpt><trkpt lat="45.6691735" lon="13.7599725"><ele>8.0</ele><time>2026-04-15T07:22:11.254Z</time></trkpt><trkpt lat="45.6693166" lon="13.7598116"><ele>8.0</ele><time>2026-04-15T07:22:12.263Z</time></trkpt><trkpt lat="45.6694599" lon="13.7596534"><ele>8.5</ele><time>2026-04-15T07:22:13.253Z</time></trkpt><trkpt lat="45.6697658" lon="13.7593502"><ele>9.0</ele><time>2026-04-15T07:22:15.276Z</time></trkpt><trkpt lat="45.6699297" lon="13.7592213"><ele>9.0</ele><time>2026-04-15T07:22:16.261Z</time></trkpt><trkpt lat="45.6701014" lon="13.7591068"><ele>9.0</ele><time>2026-04-15T07:22:17.262Z</time></trkpt><trkpt lat="45.6702723" lon="13.7590002"><ele>9.0</ele><time>2026-04-15T07:22:18.285Z</time></trkpt><trkpt lat="45.6704433" lon="13.758892"><ele>15.333333333333334</ele><time>2026-04-15T07:22:19.265Z</time></trkpt><trkpt lat="45.6706181" lon="13.758796"><ele>21.666666666666668</ele><time>2026-04-15T07:22:20.277Z</time></trkpt><trkpt lat="45.6707893" lon="13.7586967"><ele>28.0</ele><time>2026-04-15T07:22:21.273Z</time></trkpt><trkpt lat="45.6709579" lon="13.7585983"><ele>22.333333333333336</ele><time>2026-04-15T07:22:22.266Z</time></trkpt><trkpt lat="45.67113" lon="13.7584921"><ele>16.666666666666668</ele><time>2026-04-15T07:22:23.259Z</time></trkpt><trkpt lat="45.671299" lon="13.7583904"><ele>11.0</ele><time>2026-04-15T07:22:24.254Z</time></trkpt><trkpt lat="45.6714683" lon="13.7582993"><ele>11.0</ele><time>2026-04-15T07:22:25.269Z</time></trkpt><trkpt lat="45.6716358" lon="13.7582178"><ele>11.0</ele><time>2026-04-15T07:22:26.256Z</time></trkpt><trkpt lat="45.6717984" lon="13.7581401"><ele>11.0</ele><time>2026-04-15T07:22:27.26Z</time></trkpt><trkpt lat="45.6719607" lon="13.7580744"><ele>13.666666666666666</ele><time>2026-04-15T07:22:28.27Z</time></trkpt><trkpt lat="45.6721257" lon="13.7580215"><ele>16.333333333333332</ele><time>2026-04-15T07:22:29.269Z</time></trkpt><trkpt lat="45.6722918" lon="13.7579674"><ele>19.0</ele><time>2026-04-15T07:22:30.26Z</time></trkpt><trkpt lat="45.672457" lon="13.7579192"><ele>19.0</ele><time>2026-04-15T07:22:31.251Z</time></trkpt><trkpt lat="45.6726194" lon="13.7578518"><ele>19.0</ele><time>2026-04-15T07:22:32.262Z</time></trkpt><trkpt lat="45.6727785" lon="13.757765"><ele>19.0</ele><time>2026-04-15T07:22:33.261Z</time></trkpt><trkpt lat="45.6729317" lon="13.7576618"><ele>16.0</ele><time>2026-04-15T07:22:34.266Z</time></trkpt><trkpt lat="45.6730836" lon="13.7575452"><ele>13.0</ele><time>2026-04-15T07:22:35.254Z</time></trkpt><trkpt lat="45.6732334" lon="13.7574193"><ele>10.0</ele><time>2026-04-15T07:22:36.264Z</time></trkpt><trkpt lat="45.6733822" lon="13.7573026"><ele>10.0</ele><time>2026-04-15T07:22:37.254Z</time></trkpt><trkpt lat="45.6735299" lon="13.7571867"><ele>10.0</ele><time>2026-04-15T07:22:38.256Z</time></trkpt><trkpt lat="45.6736702" lon="13.7570694"><ele>10.0</ele><time>2026-04-15T07:22:39.258Z</time></trkpt><trkpt lat="45.6738091" lon="13.7569583"><ele>9.666666666666668</ele><time>2026-04-15T07:22:40.26Z</time></trkpt><trkpt lat="45.6739468" lon="13.756844"><ele>9.333333333333334</ele><time>2026-04-15T07:22:41.258Z</time></trkpt><trkpt lat="45.6740861" lon="13.7567305"><ele>9.0</ele><time>2026-04-15T07:22:42.257Z</time></trkpt><trkpt lat="45.6743604" lon="13.7565173"><ele>18.0</ele><time>2026-04-15T07:22:44.266Z</time></trkpt><trkpt lat="45.674498" lon="13.7564061"><ele>27.0</ele><time>2026-04-15T07:22:45.264Z</time></trkpt><trkpt lat="45.674633" lon="13.7562938"><ele>36.0</ele><time>2026-04-15T07:22:46.258Z</time></trkpt><trkpt lat="45.6747518" lon="13.7561973"><ele>36.0</ele><time>2026-04-15T07:22:47.265Z</time></trkpt><trkpt lat="45.6748386" lon="13.7561241"><ele>36.0</ele><time>2026-04-15T07:22:48.268Z</time></trkpt><trkpt lat="45.6749167" lon="13.7560699"><ele>36.0</ele><time>2026-04-15T07:22:49.263Z</time></trkpt><trkpt lat="45.675011" lon="13.7559933"><ele>36.0</ele><time>2026-04-15T07:22:50.251Z</time></trkpt><trkpt lat="45.6751301" lon="13.7558944"><ele>36.0</ele><time>2026-04-15T07:22:51.251Z</time></trkpt><trkpt lat="45.6752732" lon="13.7557815"><ele>33.0</ele><time>2026-04-15T07:22:52.252Z</time></trkpt><trkpt lat="45.6754333" lon="13.7556521"><ele>30.0</ele><time>2026-04-15T07:22:53.262Z</time></trkpt><trkpt lat="45.6756038" lon="13.7555211"><ele>27.0</ele><time>2026-04-15T07:22:54.254Z</time></trkpt><trkpt lat="45.6757851" lon="13.7553861"><ele>27.0</ele><time>2026-04-15T07:22:55.258Z</time></trkpt><trkpt lat="45.6759679" lon="13.7552533"><ele>27.0</ele><time>2026-04-15T07:22:56.248Z</time></trkpt><trkpt lat="45.6761521" lon="13.7551321"><ele>27.0</ele><time>2026-04-15T07:22:57.253Z</time></trkpt><trkpt lat="45.6763408" lon="13.7550222"><ele>21.333333333333332</ele><time>2026-04-15T07:22:58.253Z</time></trkpt><trkpt lat="45.6765318" lon="13.7549211"><ele>15.666666666666668</ele><time>2026-04-15T07:22:59.262Z</time></trkpt><trkpt lat="45.6767152" lon="13.7548194"><ele>10.0</ele><time>2026-04-15T07:23:00.256Z</time></trkpt><trkpt lat="45.6768917" lon="13.7547126"><ele>9.666666666666668</ele><time>2026-04-15T07:23:01.254Z</time></trkpt><trkpt lat="45.6770637" lon="13.7546153"><ele>9.333333333333334</ele><time>2026-04-15T07:23:02.26Z</time></trkpt><trkpt lat="45.6772279" lon="13.7545662"><ele>9.0</ele><time>2026-04-15T07:23:03.258Z</time></trkpt><trkpt lat="45.6773794" lon="13.7545499"><ele>9.0</ele><time>2026-04-15T07:23:04.249Z</time></trkpt><trkpt lat="45.6775209" lon="13.7545486"><ele>9.0</ele><time>2026-04-15T07:23:05.258Z</time></trkpt><trkpt lat="45.6776449" lon="13.7545425"><ele>9.0</ele><time>2026-04-15T07:23:06.255Z</time></trkpt><trkpt lat="45.6777578" lon="13.7545489"><ele>9.0</ele><time>2026-04-15T07:23:07.26Z</time></trkpt><trkpt lat="45.6778616" lon="13.7545533"><ele>8.5</ele><time>2026-04-15T07:23:08.248Z</time></trkpt><trkpt lat="45.6779543" lon="13.7545534"><ele>8.0</ele><time>2026-04-15T07:23:09.254Z</time></trkpt><trkpt lat="45.6780378" lon="13.7545541"><ele>7.5</ele><time>2026-04-15T07:23:10.253Z</time></trkpt><trkpt lat="45.6781132" lon="13.7545519"><ele>7.0</ele><time>2026-04-15T07:23:11.253Z</time></trkpt><trkpt lat="45.6781887" lon="13.7545449"><ele>6.5</ele><time>2026-04-15T07:23:12.254Z</time></trkpt><trkpt lat="45.6782673" lon="13.754537"><ele>6.0</ele><time>2026-04-15T07:23:13.262Z</time></trkpt><trkpt lat="45.6783474" lon="13.7545319"><ele>6.0</ele><time>2026-04-15T07:23:14.252Z</time></trkpt><trkpt lat="45.6784306" lon="13.7545196"><ele>6.0</ele><time>2026-04-15T07:23:15.261Z</time></trkpt><trkpt lat="45.6785147" lon="13.7545266"><ele>6.0</ele><time>2026-04-15T07:23:16.245Z</time></trkpt><trkpt lat="45.6785954" lon="13.754523"><ele>6.0</ele><time>2026-04-15T07:23:17.252Z</time></trkpt><trkpt lat="45.6786742" lon="13.7545239"><ele>6.0</ele><time>2026-04-15T07:23:18.251Z</time></trkpt><trkpt lat="45.6787586" lon="13.7545177"><ele>6.0</ele><time>2026-04-15T07:23:19.257Z</time></trkpt><trkpt lat="45.6788527" lon="13.7545098"><ele>5.75</ele><time>2026-04-15T07:23:20.255Z</time></trkpt><trkpt lat="45.6789644" lon="13.7545074"><ele>5.5</ele><time>2026-04-15T07:23:21.246Z</time></trkpt><trkpt lat="45.6790883" lon="13.7545027"><ele>5.25</ele><time>2026-04-15T07:23:22.255Z</time></trkpt><trkpt lat="45.6792197" lon="13.7544991"><ele>5.0</ele><time>2026-04-15T07:23:23.245Z</time></trkpt><trkpt lat="45.6793527" lon="13.7545042"><ele>5.0</ele><time>2026-04-15T07:23:24.26Z</time></trkpt><trkpt lat="45.679475" lon="13.7545075"><ele>5.0</ele><time>2026-04-15T07:23:25.25Z</time></trkpt><trkpt lat="45.6795991" lon="13.7544803"><ele>5.0</ele><time>2026-04-15T07:23:26.247Z</time></trkpt><trkpt lat="45.6797165" lon="13.754431"><ele>5.0</ele><time>2026-04-15T07:23:27.253Z</time></trkpt><trkpt lat="45.6798259" lon="13.7543714"><ele>4.6</ele><time>2026-04-15T07:23:28.353Z</time></trkpt><trkpt lat="45.6799284" lon="13.7542989"><ele>4.2</ele><time>2026-04-15T07:23:29.259Z</time></trkpt><trkpt lat="45.6800175" lon="13.7542216"><ele>3.8</ele><time>2026-04-15T07:23:30.253Z</time></trkpt><trkpt lat="45.6801095" lon="13.7541397"><ele>3.4</ele><time>2026-04-15T07:23:31.252Z</time></trkpt><trkpt lat="45.6802015" lon="13.7540579"><ele>3.0</ele><time>2026-04-15T07:23:32.263Z</time></trkpt><trkpt lat="45.6802941" lon="13.7539663"><ele>4.333333333333334</ele><time>2026-04-15T07:23:33.259Z</time></trkpt><trkpt lat="45.6803955" lon="13.7538807"><ele>5.666666666666667</ele><time>2026-04-15T07:23:34.352Z</time></trkpt><trkpt lat="45.6806074" lon="13.7536874"><ele>7.0</ele><time>2026-04-15T07:23:36.25Z</time></trkpt><trkpt lat="45.6807142" lon="13.7535881"><ele>6.25</ele><time>2026-04-15T07:23:37.26Z</time></trkpt><trkpt lat="45.6808203" lon="13.7534871"><ele>5.5</ele><time>2026-04-15T07:23:38.246Z</time></trkpt><trkpt lat="45.6809259" lon="13.7533887"><ele>4.75</ele><time>2026-04-15T07:23:39.244Z</time></trkpt><trkpt lat="45.6810322" lon="13.7532887"><ele>4.0</ele><time>2026-04-15T07:23:40.351Z</time></trkpt><trkpt lat="45.6811368" lon="13.7531929"><ele>6.0</ele><time>2026-04-15T07:23:41.347Z</time></trkpt><trkpt lat="45.6812378" lon="13.7531005"><ele>8.0</ele><time>2026-04-15T07:23:42.351Z</time></trkpt><trkpt lat="45.6814425" lon="13.7529071"><ele>10.0</ele><time>2026-04-15T07:23:44.262Z</time></trkpt><trkpt lat="45.6815396" lon="13.7528075"><ele>10.0</ele><time>2026-04-15T07:23:45.254Z</time></trkpt><trkpt lat="45.6816348" lon="13.7527062"><ele>10.0</ele><time>2026-04-15T07:23:46.35Z</time></trkpt><trkpt lat="45.6817278" lon="13.7526113"><ele>10.0</ele><time>2026-04-15T07:23:47.349Z</time></trkpt><trkpt lat="45.6818239" lon="13.7525163"><ele>10.0</ele><time>2026-04-15T07:23:48.352Z</time></trkpt><trkpt lat="45.6819238" lon="13.7524182"><ele>10.333333333333334</ele><time>2026-04-15T07:23:49.351Z</time></trkpt><trkpt lat="45.6820228" lon="13.7523188"><ele>10.666666666666666</ele><time>2026-04-15T07:23:50.349Z</time></trkpt><trkpt lat="45.6822216" lon="13.752123"><ele>11.0</ele><time>2026-04-15T07:23:52.364Z</time></trkpt><trkpt lat="45.6823098" lon="13.7520367"><ele>11.0</ele><time>2026-04-15T07:23:53.355Z</time></trkpt><trkpt lat="45.6823942" lon="13.7519454"><ele>11.0</ele><time>2026-04-15T07:23:54.36Z</time></trkpt><trkpt lat="45.6824852" lon="13.751844"><ele>11.0</ele><time>2026-04-15T07:23:55.356Z</time></trkpt><trkpt lat="45.6826016" lon="13.7517444"><ele>11.0</ele><time>2026-04-15T07:23:56.344Z</time></trkpt><trkpt lat="45.6827209" lon="13.7516546"><ele>11.0</ele><time>2026-04-15T07:23:57.355Z</time></trkpt><trkpt lat="45.6829073" lon="13.7514969"><ele>11.0</ele><time>2026-04-15T07:23:59.357Z</time></trkpt><trkpt lat="45.6829714" lon="13.7514233"><ele>11.0</ele><time>2026-04-15T07:24:00.351Z</time></trkpt><trkpt lat="45.6830345" lon="13.7513429"><ele>11.0</ele><time>2026-04-15T07:24:01.347Z</time></trkpt><trkpt lat="45.6831018" lon="13.7512555"><ele>11.0</ele><time>2026-04-15T07:24:02.363Z</time></trkpt><trkpt lat="45.6831643" lon="13.7511832"><ele>11.0</ele><time>2026-04-15T07:24:03.35Z</time></trkpt><trkpt lat="45.6832273" lon="13.7511164"><ele>11.0</ele><time>2026-04-15T07:24:04.347Z</time></trkpt><trkpt lat="45.6832934" lon="13.7510474"><ele>11.0</ele><time>2026-04-15T07:24:05.249Z</time></trkpt><trkpt lat="45.6833636" lon="13.7509818"><ele>11.0</ele><time>2026-04-15T07:24:06.348Z</time></trkpt><trkpt lat="45.6834279" lon="13.7509147"><ele>11.0</ele><time>2026-04-15T07:24:07.378Z</time></trkpt><trkpt lat="45.6834981" lon="13.7508431"><ele>10.0</ele><time>2026-04-15T07:24:08.356Z</time></trkpt><trkpt lat="45.6835755" lon="13.750761"><ele>9.0</ele><time>2026-04-15T07:24:09.355Z</time></trkpt><trkpt lat="45.6836631" lon="13.7506707"><ele>8.0</ele><time>2026-04-15T07:24:10.359Z</time></trkpt><trkpt lat="45.6837562" lon="13.7505649"><ele>7.0</ele><time>2026-04-15T07:24:11.362Z</time></trkpt><trkpt lat="45.6838581" lon="13.75045"><ele>7.333333333333334</ele><time>2026-04-15T07:24:12.363Z</time></trkpt><trkpt lat="45.6839845" lon="13.7503103"><ele>7.666666666666666</ele><time>2026-04-15T07:24:13.349Z</time></trkpt><trkpt lat="45.6841314" lon="13.7501772"><ele>8.0</ele><time>2026-04-15T07:24:14.352Z</time></trkpt><trkpt lat="45.6842769" lon="13.7500503"><ele>8.0</ele><time>2026-04-15T07:24:15.359Z</time></trkpt><trkpt lat="45.6844067" lon="13.7499181"><ele>8.0</ele><time>2026-04-15T07:24:16.347Z</time></trkpt><trkpt lat="45.6845207" lon="13.749791"><ele>8.0</ele><time>2026-04-15T07:24:17.353Z</time></trkpt><trkpt lat="45.6846266" lon="13.7496877"><ele>8.0</ele><time>2026-04-15T07:24:18.362Z</time></trkpt><trkpt lat="45.684719" lon="13.7495921"><ele>8.200000000000001</ele><time>2026-04-15T07:24:19.35Z</time></trkpt><trkpt lat="45.6848008" lon="13.7494974"><ele>8.4</ele><time>2026-04-15T07:24:20.347Z</time></trkpt><trkpt lat="45.6848753" lon="13.7494265"><ele>8.600000000000001</ele><time>2026-04-15T07:24:21.348Z</time></trkpt><trkpt lat="45.6849437" lon="13.7493596"><ele>8.8</ele><time>2026-04-15T07:24:22.345Z</time></trkpt><trkpt lat="45.685013" lon="13.7492834"><ele>9.0</ele><time>2026-04-15T07:24:23.359Z</time></trkpt><trkpt lat="45.685085" lon="13.7491919"><ele>9.0</ele><time>2026-04-15T07:24:24.372Z</time></trkpt><trkpt lat="45.6851542" lon="13.7490952"><ele>9.0</ele><time>2026-04-15T07:24:25.351Z</time></trkpt><trkpt lat="45.6852265" lon="13.749"><ele>9.0</ele><time>2026-04-15T07:24:26.356Z</time></trkpt><trkpt lat="45.6853018" lon="13.7489052"><ele>9.0</ele><time>2026-04-15T07:24:27.351Z</time></trkpt><trkpt lat="45.6853744" lon="13.7488058"><ele>9.0</ele><time>2026-04-15T07:24:28.364Z</time></trkpt><trkpt lat="45.6854501" lon="13.7487027"><ele>9.5</ele><time>2026-04-15T07:24:29.353Z</time></trkpt><trkpt lat="45.68553" lon="13.7485848"><ele>10.0</ele><time>2026-04-15T07:24:30.349Z</time></trkpt><trkpt lat="45.6856157" lon="13.7484559"><ele>10.5</ele><time>2026-04-15T07:24:31.357Z</time></trkpt><trkpt lat="45.6856999" lon="13.7483353"><ele>11.0</ele><time>2026-04-15T07:24:32.34Z</time></trkpt><trkpt lat="45.6857823" lon="13.7482137"><ele>11.0</ele><time>2026-04-15T07:24:33.353Z</time></trkpt><trkpt lat="45.6858618" lon="13.748102"><ele>11.0</ele><time>2026-04-15T07:24:34.344Z</time></trkpt><trkpt lat="45.6859392" lon="13.7479922"><ele>11.0</ele><time>2026-04-15T07:24:35.355Z</time></trkpt><trkpt lat="45.6860226" lon="13.7478681"><ele>11.0</ele><time>2026-04-15T07:24:36.345Z</time></trkpt><trkpt lat="45.6862135" lon="13.7476108"><ele>11.25</ele><time>2026-04-15T07:24:38.344Z</time></trkpt><trkpt lat="45.6863108" lon="13.7474782"><ele>11.5</ele><time>2026-04-15T07:24:39.348Z</time></trkpt><trkpt lat="45.6864046" lon="13.7473439"><ele>11.75</ele><time>2026-04-15T07:24:40.358Z</time></trkpt><trkpt lat="45.6864995" lon="13.7472147"><ele>12.0</ele><time>2026-04-15T07:24:41.342Z</time></trkpt><trkpt lat="45.6865934" lon="13.7470845"><ele>12.0</ele><time>2026-04-15T07:24:42.346Z</time></trkpt><trkpt lat="45.6866893" lon="13.7469498"><ele>12.0</ele><time>2026-04-15T07:24:43.349Z</time></trkpt><trkpt lat="45.6867826" lon="13.7468161"><ele>12.0</ele><time>2026-04-15T07:24:44.358Z</time></trkpt><trkpt lat="45.6868752" lon="13.746683"><ele>12.0</ele><time>2026-04-15T07:24:45.348Z</time></trkpt><trkpt lat="45.6869688" lon="13.7465511"><ele>14.5</ele><time>2026-04-15T07:24:46.345Z</time></trkpt><trkpt lat="45.6870616" lon="13.746419"><ele>17.0</ele><time>2026-04-15T07:24:47.345Z</time></trkpt><trkpt lat="45.6871548" lon="13.7462899"><ele>19.5</ele><time>2026-04-15T07:24:48.341Z</time></trkpt><trkpt lat="45.6872445" lon="13.7461644"><ele>22.0</ele><time>2026-04-15T07:24:49.366Z</time></trkpt><trkpt lat="45.6873242" lon="13.7460485"><ele>19.666666666666664</ele><time>2026-04-15T07:24:50.355Z</time></trkpt><trkpt lat="45.687391" lon="13.7459523"><ele>17.333333333333332</ele><time>2026-04-15T07:24:51.342Z</time></trkpt><trkpt lat="45.6874426" lon="13.7458744"><ele>15.0</ele><time>2026-04-15T07:24:52.353Z</time></trkpt><trkpt lat="45.6875014" lon="13.7457941"><ele>12.666666666666666</ele><time>2026-04-15T07:24:54.344Z</time></trkpt><trkpt lat="45.6875546" lon="13.7457458"><ele>10.333333333333332</ele><time>2026-04-15T07:25:00.341Z</time></trkpt><trkpt lat="45.6876159" lon="13.7456907"><ele>8.0</ele><time>2026-04-15T07:25:02.342Z</time></trkpt><trkpt lat="45.6876682" lon="13.7456049"><ele>8.0</ele><time>2026-04-15T07:25:03.337Z</time></trkpt><trkpt lat="45.6877422" lon="13.745489"><ele>8.0</ele><time>2026-04-15T07:25:04.359Z</time></trkpt><trkpt lat="45.6878395" lon="13.7453438"><ele>8.0</ele><time>2026-04-15T07:25:05.343Z</time></trkpt><trkpt lat="45.6879686" lon="13.7451844"><ele>8.0</ele><time>2026-04-15T07:25:06.347Z</time></trkpt><trkpt lat="45.6880988" lon="13.7449928"><ele>7.0</ele><time>2026-04-15T07:25:07.353Z</time></trkpt><trkpt lat="45.6882348" lon="13.7447841"><ele>6.0</ele><time>2026-04-15T07:25:08.336Z</time></trkpt><trkpt lat="45.6883773" lon="13.7445715"><ele>5.0</ele><time>2026-04-15T07:25:09.352Z</time></trkpt><trkpt lat="45.6885291" lon="13.7443649"><ele>12.666666666666668</ele><time>2026-04-15T07:25:10.358Z</time></trkpt><trkpt lat="45.6886822" lon="13.744152"><ele>20.333333333333336</ele><time>2026-04-15T07:25:11.341Z</time></trkpt><trkpt lat="45.6888312" lon="13.7439425"><ele>28.0</ele><time>2026-04-15T07:25:12.348Z</time></trkpt><trkpt lat="45.6889799" lon="13.7437316"><ele>21.0</ele><time>2026-04-15T07:25:13.354Z</time></trkpt><trkpt lat="45.6891245" lon="13.7435259"><ele>14.0</ele><time>2026-04-15T07:25:14.365Z</time></trkpt><trkpt lat="45.6892666" lon="13.7433248"><ele>7.0</ele><time>2026-04-15T07:25:15.343Z</time></trkpt><trkpt lat="45.6894061" lon="13.7431184"><ele>10.0</ele><time>2026-04-15T07:25:16.351Z</time></trkpt><trkpt lat="45.6895457" lon="13.7429195"><ele>13.0</ele><time>2026-04-15T07:25:17.341Z</time></trkpt><trkpt lat="45.689687" lon="13.7427255"><ele>16.0</ele><time>2026-04-15T07:25:18.36Z</time></trkpt><trkpt lat="45.6898279" lon="13.7425372"><ele>16.0</ele><time>2026-04-15T07:25:19.352Z</time></trkpt><trkpt lat="45.6899675" lon="13.7423521"><ele>16.0</ele><time>2026-04-15T07:25:20.355Z</time></trkpt><trkpt lat="45.6901062" lon="13.7421703"><ele>16.0</ele><time>2026-04-15T07:25:21.342Z</time></trkpt><trkpt lat="45.6902471" lon="13.7419969"><ele>18.0</ele><time>2026-04-15T07:25:22.351Z</time></trkpt><trkpt lat="45.6903899" lon="13.7418278"><ele>20.0</ele><time>2026-04-15T07:25:23.35Z</time></trkpt><trkpt lat="45.6905321" lon="13.7416561"><ele>22.0</ele><time>2026-04-15T07:25:24.351Z</time></trkpt><trkpt lat="45.6906693" lon="13.741479"><ele>22.0</ele><time>2026-04-15T07:25:25.338Z</time></trkpt><trkpt lat="45.6908119" lon="13.741299"><ele>22.0</ele><time>2026-04-15T07:25:26.342Z</time></trkpt><trkpt lat="45.6909573" lon="13.7411191"><ele>22.0</ele><time>2026-04-15T07:25:27.341Z</time></trkpt><trkpt lat="45.6910993" lon="13.7409398"><ele>23.333333333333332</ele><time>2026-04-15T07:25:28.36Z</time></trkpt><trkpt lat="45.691238" lon="13.7407537"><ele>24.666666666666664</ele><time>2026-04-15T07:25:29.348Z</time></trkpt><trkpt lat="45.6913774" lon="13.7405756"><ele>26.0</ele><time>2026-04-15T07:25:30.354Z</time></trkpt><trkpt lat="45.6915176" lon="13.7404048"><ele>26.0</ele><time>2026-04-15T07:25:31.351Z</time></trkpt><trkpt lat="45.6916597" lon="13.7402321"><ele>26.0</ele><time>2026-04-15T07:25:32.335Z</time></trkpt><trkpt lat="45.6917991" lon="13.7400696"><ele>26.0</ele><time>2026-04-15T07:25:33.352Z</time></trkpt><trkpt lat="45.6919376" lon="13.739898"><ele>25.0</ele><time>2026-04-15T07:25:34.332Z</time></trkpt><trkpt lat="45.6920757" lon="13.7397209"><ele>24.0</ele><time>2026-04-15T07:25:35.34Z</time></trkpt><trkpt lat="45.6922171" lon="13.7395371"><ele>23.0</ele><time>2026-04-15T07:25:36.343Z</time></trkpt><trkpt lat="45.6923592" lon="13.7393564"><ele>25.0</ele><time>2026-04-15T07:25:37.341Z</time></trkpt><trkpt lat="45.692505" lon="13.739176"><ele>27.0</ele><time>2026-04-15T07:25:38.336Z</time></trkpt><trkpt lat="45.6926536" lon="13.7389858"><ele>29.0</ele><time>2026-04-15T07:25:39.335Z</time></trkpt><trkpt lat="45.6927998" lon="13.7387896"><ele>29.0</ele><time>2026-04-15T07:25:40.343Z</time></trkpt><trkpt lat="45.6929428" lon="13.738592"><ele>29.0</ele><time>2026-04-15T07:25:41.341Z</time></trkpt><trkpt lat="45.6930875" lon="13.7383984"><ele>29.0</ele><time>2026-04-15T07:25:42.345Z</time></trkpt><trkpt lat="45.6932337" lon="13.7382128"><ele>24.0</ele><time>2026-04-15T07:25:43.349Z</time></trkpt><trkpt lat="45.6933811" lon="13.7380314"><ele>19.0</ele><time>2026-04-15T07:25:44.341Z</time></trkpt><trkpt lat="45.6935304" lon="13.737843"><ele>14.0</ele><time>2026-04-15T07:25:45.34Z</time></trkpt><trkpt lat="45.6936695" lon="13.7376534"><ele>14.0</ele><time>2026-04-15T07:25:46.337Z</time></trkpt><trkpt lat="45.6938011" lon="13.737467"><ele>14.0</ele><time>2026-04-15T07:25:47.347Z</time></trkpt><trkpt lat="45.6939236" lon="13.7372938"><ele>14.0</ele><time>2026-04-15T07:25:48.34Z</time></trkpt><trkpt lat="45.6940433" lon="13.7371267"><ele>14.0</ele><time>2026-04-15T07:25:49.335Z</time></trkpt><trkpt lat="45.6941647" lon="13.7369556"><ele>14.0</ele><time>2026-04-15T07:25:50.335Z</time></trkpt><trkpt lat="45.694288" lon="13.7367871"><ele>14.0</ele><time>2026-04-15T07:25:51.336Z</time></trkpt><trkpt lat="45.6944124" lon="13.7366132"><ele>16.0</ele><time>2026-04-15T07:25:52.34Z</time></trkpt><trkpt lat="45.6945433" lon="13.7364401"><ele>18.0</ele><time>2026-04-15T07:25:53.335Z</time></trkpt><trkpt lat="45.6946757" lon="13.7362648"><ele>20.0</ele><time>2026-04-15T07:25:54.331Z</time></trkpt><trkpt lat="45.6948091" lon="13.7360827"><ele>15.666666666666668</ele><time>2026-04-15T07:25:55.341Z</time></trkpt><trkpt lat="45.694942" lon="13.735896"><ele>11.333333333333334</ele><time>2026-04-15T07:25:56.347Z</time></trkpt><trkpt lat="45.6950807" lon="13.7357093"><ele>7.0</ele><time>2026-04-15T07:25:57.348Z</time></trkpt><trkpt lat="45.6952213" lon="13.7355194"><ele>9.666666666666668</ele><time>2026-04-15T07:25:58.33Z</time></trkpt><trkpt lat="45.69536" lon="13.7353174"><ele>12.333333333333334</ele><time>2026-04-15T07:25:59.333Z</time></trkpt><trkpt lat="45.6954986" lon="13.7351034"><ele>15.0</ele><time>2026-04-15T07:26:00.343Z</time></trkpt><trkpt lat="45.6956387" lon="13.7348843"><ele>15.0</ele><time>2026-04-15T07:26:01.339Z</time></trkpt><trkpt lat="45.6957815" lon="13.7346622"><ele>15.0</ele><time>2026-04-15T07:26:02.332Z</time></trkpt><trkpt lat="45.6959263" lon="13.7344335"><ele>15.0</ele><time>2026-04-15T07:26:03.337Z</time></trkpt><trkpt lat="45.6960718" lon="13.734207"><ele>18.666666666666664</ele><time>2026-04-15T07:26:04.346Z</time></trkpt><trkpt lat="45.6962161" lon="13.7339894"><ele>22.333333333333332</ele><time>2026-04-15T07:26:05.343Z</time></trkpt><trkpt lat="45.696347" lon="13.7337776"><ele>26.0</ele><time>2026-04-15T07:26:06.334Z</time></trkpt><trkpt lat="45.6964731" lon="13.7335667"><ele>22.333333333333332</ele><time>2026-04-15T07:26:07.352Z</time></trkpt><trkpt lat="45.6965964" lon="13.73335"><ele>18.666666666666664</ele><time>2026-04-15T07:26:08.334Z</time></trkpt><trkpt lat="45.6966986" lon="13.7331079"><ele>15.0</ele><time>2026-04-15T07:26:09.332Z</time></trkpt><trkpt lat="45.696785" lon="13.7328447"><ele>12.0</ele><time>2026-04-15T07:26:10.339Z</time></trkpt><trkpt lat="45.6968587" lon="13.7325656"><ele>9.0</ele><time>2026-04-15T07:26:11.338Z</time></trkpt><trkpt lat="45.6969255" lon="13.7322929"><ele>6.0</ele><time>2026-04-15T07:26:12.335Z</time></trkpt><trkpt lat="45.6969875" lon="13.7320267"><ele>14.666666666666666</ele><time>2026-04-15T07:26:13.335Z</time></trkpt><trkpt lat="45.6970587" lon="13.7317638"><ele>23.333333333333332</ele><time>2026-04-15T07:26:14.335Z</time></trkpt><trkpt lat="45.6971439" lon="13.731502"><ele>32.0</ele><time>2026-04-15T07:26:15.336Z</time></trkpt><trkpt lat="45.6972505" lon="13.7312485"><ele>28.0</ele><time>2026-04-15T07:26:16.354Z</time></trkpt><trkpt lat="45.6973731" lon="13.7310007"><ele>24.0</ele><time>2026-04-15T07:26:17.337Z</time></trkpt><trkpt lat="45.6975064" lon="13.7307366"><ele>20.0</ele><time>2026-04-15T07:26:18.331Z</time></trkpt><trkpt lat="45.6976312" lon="13.7304574"><ele>29.0</ele><time>2026-04-15T07:26:19.342Z</time></trkpt><trkpt lat="45.6977579" lon="13.7301827"><ele>38.0</ele><time>2026-04-15T07:26:20.332Z</time></trkpt><trkpt lat="45.6978867" lon="13.7299098"><ele>38.0</ele><time>2026-04-15T07:26:21.347Z</time></trkpt><trkpt lat="45.6980086" lon="13.7296346"><ele>38.0</ele><time>2026-04-15T07:26:22.341Z</time></trkpt><trkpt lat="45.698133" lon="13.7293532"><ele>27.5</ele><time>2026-04-15T07:26:23.338Z</time></trkpt><trkpt lat="45.6982518" lon="13.7290681"><ele>17.0</ele><time>2026-04-15T07:26:24.339Z</time></trkpt><trkpt lat="45.6983669" lon="13.7287823"><ele>11.5</ele><time>2026-04-15T07:26:25.334Z</time></trkpt><trkpt lat="45.6984816" lon="13.7284998"><ele>6.0</ele><time>2026-04-15T07:26:26.348Z</time></trkpt><trkpt lat="45.6985941" lon="13.7282182"><ele>12.333333333333334</ele><time>2026-04-15T07:26:27.34Z</time></trkpt><trkpt lat="45.6987095" lon="13.7279387"><ele>18.666666666666668</ele><time>2026-04-15T07:26:28.344Z</time></trkpt><trkpt lat="45.6988224" lon="13.7276662"><ele>25.0</ele><time>2026-04-15T07:26:29.334Z</time></trkpt><trkpt lat="45.6989352" lon="13.7273991"><ele>25.0</ele><time>2026-04-15T07:26:30.337Z</time></trkpt><trkpt lat="45.6990467" lon="13.7271354"><ele>25.0</ele><time>2026-04-15T07:26:31.335Z</time></trkpt><trkpt lat="45.699156" lon="13.7268825"><ele>25.0</ele><time>2026-04-15T07:26:32.345Z</time></trkpt><trkpt lat="45.6992622" lon="13.7266385"><ele>26.666666666666668</ele><time>2026-04-15T07:26:33.331Z</time></trkpt><trkpt lat="45.6993633" lon="13.7263972"><ele>28.333333333333336</ele><time>2026-04-15T07:26:34.329Z</time></trkpt><trkpt lat="45.6994642" lon="13.7261678"><ele>30.0</ele><time>2026-04-15T07:26:35.346Z</time></trkpt><trkpt lat="45.6995608" lon="13.725947"><ele>30.0</ele><time>2026-04-15T07:26:36.35Z</time></trkpt><trkpt lat="45.6996498" lon="13.7257493"><ele>30.0</ele><time>2026-04-15T07:26:37.349Z</time></trkpt><trkpt lat="45.699733" lon="13.7255527"><ele>30.0</ele><time>2026-04-15T07:26:38.344Z</time></trkpt><trkpt lat="45.6998157" lon="13.7253627"><ele>27.5</ele><time>2026-04-15T07:26:39.338Z</time></trkpt><trkpt lat="45.6998966" lon="13.7251851"><ele>25.0</ele><time>2026-04-15T07:26:40.354Z</time></trkpt><trkpt lat="45.6999714" lon="13.7250168"><ele>22.5</ele><time>2026-04-15T07:26:41.339Z</time></trkpt><trkpt lat="45.700048" lon="13.7248556"><ele>20.0</ele><time>2026-04-15T07:26:42.338Z</time></trkpt><trkpt lat="45.7001255" lon="13.7246916"><ele>20.0</ele><time>2026-04-15T07:26:43.335Z</time></trkpt><trkpt lat="45.7002038" lon="13.7245196"><ele>20.0</ele><time>2026-04-15T07:26:44.333Z</time></trkpt><trkpt lat="45.7002802" lon="13.7243486"><ele>20.0</ele><time>2026-04-15T07:26:45.33Z</time></trkpt><trkpt lat="45.7003579" lon="13.7241791"><ele>20.0</ele><time>2026-04-15T07:26:46.354Z</time></trkpt><trkpt lat="45.7004356" lon="13.7240108"><ele>20.0</ele><time>2026-04-15T07:26:47.329Z</time></trkpt><trkpt lat="45.7005176" lon="13.7238352"><ele>20.0</ele><time>2026-04-15T07:26:48.34Z</time></trkpt><trkpt lat="45.7006054" lon="13.7236506"><ele>20.0</ele><time>2026-04-15T07:26:49.34Z</time></trkpt><trkpt lat="45.7006909" lon="13.7234656"><ele>20.0</ele><time>2026-04-15T07:26:50.33Z</time></trkpt><trkpt lat="45.7007758" lon="13.723278"><ele>20.0</ele><time>2026-04-15T07:26:51.341Z</time></trkpt><trkpt lat="45.7008661" lon="13.7230902"><ele>20.0</ele><time>2026-04-15T07:26:52.346Z</time></trkpt><trkpt lat="45.7009606" lon="13.7228773"><ele>17.0</ele><time>2026-04-15T07:26:53.326Z</time></trkpt><trkpt lat="45.7010602" lon="13.7226608"><ele>14.0</ele><time>2026-04-15T07:26:54.334Z</time></trkpt><trkpt lat="45.7011567" lon="13.7224356"><ele>11.0</ele><time>2026-04-15T07:26:55.335Z</time></trkpt><trkpt lat="45.7012529" lon="13.722213"><ele>17.666666666666668</ele><time>2026-04-15T07:26:56.335Z</time></trkpt><trkpt lat="45.7013525" lon="13.721992"><ele>24.333333333333336</ele><time>2026-04-15T07:26:57.336Z</time></trkpt><trkpt lat="45.7014487" lon="13.7217607"><ele>31.0</ele><time>2026-04-15T07:26:58.327Z</time></trkpt><trkpt lat="45.7015378" lon="13.7215347"><ele>31.0</ele><time>2026-04-15T07:26:59.347Z</time></trkpt><trkpt lat="45.7016182" lon="13.7212947"><ele>31.0</ele><time>2026-04-15T07:27:00.331Z</time></trkpt><trkpt lat="45.7016983" lon="13.7210336"><ele>31.0</ele><time>2026-04-15T07:27:01.34Z</time></trkpt><trkpt lat="45.7017797" lon="13.7207233"><ele>33.5</ele><time>2026-04-15T07:27:02.339Z</time></trkpt><trkpt lat="45.701864" lon="13.7203867"><ele>36.0</ele><time>2026-04-15T07:27:03.334Z</time></trkpt><trkpt lat="45.7019529" lon="13.7200626"><ele>36.0</ele><time>2026-04-15T07:27:04.326Z</time></trkpt><trkpt lat="45.7020454" lon="13.7197667"><ele>36.0</ele><time>2026-04-15T07:27:05.328Z</time></trkpt><trkpt lat="45.7021271" lon="13.7194802"><ele>36.0</ele><time>2026-04-15T07:27:06.33Z</time></trkpt><trkpt lat="45.7022193" lon="13.7192144"><ele>34.666666666666664</ele><time>2026-04-15T07:27:07.329Z</time></trkpt><trkpt lat="45.702323" lon="13.7189601"><ele>33.33333333333333</ele><time>2026-04-15T07:27:08.331Z</time></trkpt><trkpt lat="45.7024489" lon="13.7187281"><ele>32.0</ele><time>2026-04-15T07:27:09.334Z</time></trkpt><trkpt lat="45.7025793" lon="13.7185059"><ele>31.333333333333332</ele><time>2026-04-15T07:27:10.327Z</time></trkpt><trkpt lat="45.702718" lon="13.7183173"><ele>30.666666666666664</ele><time>2026-04-15T07:27:11.325Z</time></trkpt><trkpt lat="45.7028567" lon="13.7181454"><ele>30.0</ele><time>2026-04-15T07:27:12.339Z</time></trkpt><trkpt lat="45.702996" lon="13.7179874"><ele>31.666666666666664</ele><time>2026-04-15T07:27:13.325Z</time></trkpt><trkpt lat="45.7031388" lon="13.7178454"><ele>33.33333333333333</ele><time>2026-04-15T07:27:14.324Z</time></trkpt><trkpt lat="45.7032793" lon="13.7177129"><ele>35.0</ele><time>2026-04-15T07:27:15.322Z</time></trkpt><trkpt lat="45.7034312" lon="13.7175983"><ele>39.0</ele><time>2026-04-15T07:27:16.338Z</time></trkpt><trkpt lat="45.70359" lon="13.7174958"><ele>43.0</ele><time>2026-04-15T07:27:17.33Z</time></trkpt><trkpt lat="45.7037454" lon="13.7173939"><ele>47.0</ele><time>2026-04-15T07:27:18.336Z</time></trkpt><trkpt lat="45.7039095" lon="13.7172994"><ele>47.0</ele><time>2026-04-15T07:27:19.344Z</time></trkpt><trkpt lat="45.7040713" lon="13.7172077"><ele>47.0</ele><time>2026-04-15T07:27:20.331Z</time></trkpt><trkpt lat="45.7042313" lon="13.7171135"><ele>47.0</ele><time>2026-04-15T07:27:21.321Z</time></trkpt><trkpt lat="45.7048414" lon="13.7167521"><ele>49.33333333333333</ele><time>2026-04-15T07:27:25.328Z</time></trkpt><trkpt lat="45.7050238" lon="13.7166514"><ele>51.666666666666664</ele><time>2026-04-15T07:27:26.323Z</time></trkpt><trkpt lat="45.7052206" lon="13.7165881"><ele>54.0</ele><time>2026-04-15T07:27:27.338Z</time></trkpt><trkpt lat="45.7053773" lon="13.7165281"><ele>52.5</ele><time>2026-04-15T07:27:28.323Z</time></trkpt><trkpt lat="45.7055206" lon="13.7164863"><ele>51.0</ele><time>2026-04-15T07:27:29.335Z</time></trkpt><trkpt lat="45.7062637" lon="13.7162358"><ele>51.0</ele><time>2026-04-15T07:27:36.344Z</time></trkpt><trkpt lat="45.7064011" lon="13.7162054"><ele>51.0</ele><time>2026-04-15T07:27:38.328Z</time></trkpt><trkpt lat="45.7065156" lon="13.7161711"><ele>51.0</ele><time>2026-04-15T07:27:39.328Z</time></trkpt><trkpt lat="45.7066294" lon="13.716131"><ele>51.0</ele><time>2026-04-15T07:27:40.326Z</time></trkpt><trkpt lat="45.7067305" lon="13.7161034"><ele>49.199999999999996</ele><time>2026-04-15T07:27:41.333Z</time></trkpt><trkpt lat="45.7068422" lon="13.7160536"><ele>47.4</ele><time>2026-04-15T07:27:42.331Z</time></trkpt><trkpt lat="45.7069539" lon="13.716018"><ele>45.6</ele><time>2026-04-15T07:27:43.321Z</time></trkpt><trkpt lat="45.7070513" lon="13.7159827"><ele>43.8</ele><time>2026-04-15T07:27:44.329Z</time></trkpt><trkpt lat="45.7071622" lon="13.7159342"><ele>42.0</ele><time>2026-04-15T07:27:45.331Z</time></trkpt><trkpt lat="45.7073065" lon="13.7158864"><ele>42.333333333333336</ele><time>2026-04-15T07:27:46.33Z</time></trkpt><trkpt lat="45.7074807" lon="13.7158267"><ele>42.66666666666667</ele><time>2026-04-15T07:27:47.335Z</time></trkpt><trkpt lat="45.7076672" lon="13.715777"><ele>43.0</ele><time>2026-04-15T07:27:48.349Z</time></trkpt><trkpt lat="45.7078629" lon="13.7157346"><ele>43.0</ele><time>2026-04-15T07:27:49.33Z</time></trkpt><trkpt lat="45.7080821" lon="13.7156721"><ele>43.0</ele><time>2026-04-15T07:27:50.329Z</time></trkpt><trkpt lat="45.708295" lon="13.7156078"><ele>43.0</ele><time>2026-04-15T07:27:51.341Z</time></trkpt><trkpt lat="45.7085189" lon="13.7155365"><ele>47.0</ele><time>2026-04-15T07:27:52.342Z</time></trkpt><trkpt lat="45.7087326" lon="13.7154632"><ele>51.0</ele><time>2026-04-15T07:27:53.333Z</time></trkpt><trkpt lat="45.7089333" lon="13.715392"><ele>55.0</ele><time>2026-04-15T07:27:54.336Z</time></trkpt><trkpt lat="45.7091243" lon="13.7153251"><ele>55.0</ele><time>2026-04-15T07:27:55.322Z</time></trkpt><trkpt lat="45.7093116" lon="13.715246"><ele>55.0</ele><time>2026-04-15T07:27:56.358Z</time></trkpt><trkpt lat="45.7094964" lon="13.7151523"><ele>55.0</ele><time>2026-04-15T07:27:57.318Z</time></trkpt><trkpt lat="45.7096812" lon="13.7150299"><ele>55.5</ele><time>2026-04-15T07:27:58.321Z</time></trkpt><trkpt lat="45.7100332" lon="13.7147203"><ele>56.0</ele><time>2026-04-15T07:28:00.323Z</time></trkpt><trkpt lat="45.7102036" lon="13.714539"><ele>61.5</ele><time>2026-04-15T07:28:01.327Z</time></trkpt><trkpt lat="45.7103701" lon="13.7143343"><ele>67.0</ele><time>2026-04-15T07:28:02.348Z</time></trkpt><trkpt lat="45.7106886" lon="13.7138448"><ele>67.0</ele><time>2026-04-15T07:28:04.352Z</time></trkpt><trkpt lat="45.7108379" lon="13.7135942"><ele>67.0</ele><time>2026-04-15T07:28:05.317Z</time></trkpt><trkpt lat="45.710984" lon="13.713333"><ele>75.0</ele><time>2026-04-15T07:28:06.324Z</time></trkpt><trkpt lat="45.7112624" lon="13.7128253"><ele>69.5</ele><time>2026-04-15T07:28:08.322Z</time></trkpt><trkpt lat="45.7114064" lon="13.7125722"><ele>64.0</ele><time>2026-04-15T07:28:09.326Z</time></trkpt><trkpt lat="45.7116975" lon="13.7120717"><ele>69.5</ele><time>2026-04-15T07:28:11.341Z</time></trkpt><trkpt lat="45.7118415" lon="13.711822"><ele>75.0</ele><time>2026-04-15T07:28:12.329Z</time></trkpt><trkpt lat="45.7119846" lon="13.7115677"><ele>60.0</ele><time>2026-04-15T07:28:13.32Z</time></trkpt><trkpt lat="45.7122723" lon="13.7110602"><ele>60.0</ele><time>2026-04-15T07:28:15.337Z</time></trkpt><trkpt lat="45.7124119" lon="13.7107979"><ele>60.0</ele><time>2026-04-15T07:28:16.336Z</time></trkpt><trkpt lat="45.7125534" lon="13.7105316"><ele>60.0</ele><time>2026-04-15T07:28:17.327Z</time></trkpt><trkpt lat="45.7127043" lon="13.7102767"><ele>60.0</ele><time>2026-04-15T07:28:18.33Z</time></trkpt><trkpt lat="45.7128626" lon="13.7100279"><ele>67.0</ele><time>2026-04-15T07:28:19.329Z</time></trkpt><trkpt lat="45.7130296" lon="13.7097831"><ele>74.0</ele><time>2026-04-15T07:28:20.328Z</time></trkpt><trkpt lat="45.7132048" lon="13.7095453"><ele>62.5</ele><time>2026-04-15T07:28:21.336Z</time></trkpt><trkpt lat="45.7133807" lon="13.7093029"><ele>51.0</ele><time>2026-04-15T07:28:22.329Z</time></trkpt><trkpt lat="45.7135549" lon="13.7090525"><ele>65.0</ele><time>2026-04-15T07:28:23.32Z</time></trkpt><trkpt lat="45.7139049" lon="13.7085412"><ele>65.0</ele><time>2026-04-15T07:28:25.324Z</time></trkpt><trkpt lat="45.7142552" lon="13.7080233"><ele>69.0</ele><time>2026-04-15T07:28:27.327Z</time></trkpt><trkpt lat="45.7144285" lon="13.7077673"><ele>73.0</ele><time>2026-04-15T07:28:28.343Z</time></trkpt><trkpt lat="45.7146026" lon="13.7075133"><ele>73.0</ele><time>2026-04-15T07:28:29.329Z</time></trkpt><trkpt lat="45.7147786" lon="13.7072585"><ele>73.0</ele><time>2026-04-15T07:28:30.364Z</time></trkpt><trkpt lat="45.7149501" lon="13.7070145"><ele>78.0</ele><time>2026-04-15T07:28:31.321Z</time></trkpt><trkpt lat="45.7151181" lon="13.7067752"><ele>83.0</ele><time>2026-04-15T07:28:32.319Z</time></trkpt><trkpt lat="45.7152907" lon="13.7065414"><ele>83.0</ele><time>2026-04-15T07:28:33.326Z</time></trkpt><trkpt lat="45.7156623" lon="13.7060999"><ele>86.5</ele><time>2026-04-15T07:28:35.322Z</time></trkpt><trkpt lat="45.71585" lon="13.7059118"><ele>90.0</ele><time>2026-04-15T07:28:36.347Z</time></trkpt><trkpt lat="45.7161877" lon="13.7054779"><ele>81.5</ele><time>2026-04-15T07:28:38.327Z</time></trkpt><trkpt lat="45.7163155" lon="13.7052021"><ele>73.0</ele><time>2026-04-15T07:28:39.328Z</time></trkpt><trkpt lat="45.7164381" lon="13.7049078"><ele>73.0</ele><time>2026-04-15T07:28:40.327Z</time></trkpt><trkpt lat="45.716566" lon="13.7046159"><ele>73.0</ele><time>2026-04-15T07:28:41.316Z</time></trkpt><trkpt lat="45.7167132" lon="13.704344"><ele>81.5</ele><time>2026-04-15T07:28:42.326Z</time></trkpt><trkpt lat="45.7168676" lon="13.7040721"><ele>90.0</ele><time>2026-04-15T07:28:43.321Z</time></trkpt><trkpt lat="45.7170324" lon="13.7038207"><ele>66.0</ele><time>2026-04-15T07:28:44.326Z</time></trkpt><trkpt lat="45.7173701" lon="13.7033073"><ele>66.0</ele><time>2026-04-15T07:28:46.326Z</time></trkpt><trkpt lat="45.7175334" lon="13.7030552"><ele>66.0</ele><time>2026-04-15T07:28:47.316Z</time></trkpt><trkpt lat="45.7178811" lon="13.702566"><ele>72.0</ele><time>2026-04-15T07:28:49.327Z</time></trkpt><trkpt lat="45.7180713" lon="13.702345"><ele>78.0</ele><time>2026-04-15T07:28:50.334Z</time></trkpt><trkpt lat="45.7182644" lon="13.7021441"><ele>78.0</ele><time>2026-04-15T07:28:51.318Z</time></trkpt><trkpt lat="45.7184506" lon="13.701936"><ele>78.0</ele><time>2026-04-15T07:28:52.327Z</time></trkpt><trkpt lat="45.718626" lon="13.7017053"><ele>79.5</ele><time>2026-04-15T07:28:53.336Z</time></trkpt><trkpt lat="45.718785" lon="13.701446"><ele>81.0</ele><time>2026-04-15T07:28:54.326Z</time></trkpt><trkpt lat="45.7189313" lon="13.701178"><ele>72.5</ele><time>2026-04-15T07:28:55.322Z</time></trkpt><trkpt lat="45.7190752" lon="13.7009016"><ele>64.0</ele><time>2026-04-15T07:28:56.33Z</time></trkpt><trkpt lat="45.7192185" lon="13.7006348"><ele>64.0</ele><time>2026-04-15T07:28:57.327Z</time></trkpt><trkpt lat="45.719365" lon="13.7003738"><ele>64.0</ele><time>2026-04-15T07:28:58.342Z</time></trkpt><trkpt lat="45.719713" lon="13.6998721"><ele>67.5</ele><time>2026-04-15T07:29:00.32Z</time></trkpt><trkpt lat="45.719905" lon="13.6996141"><ele>71.0</ele><time>2026-04-15T07:29:01.318Z</time></trkpt><trkpt lat="45.7201034" lon="13.6993416"><ele>73.5</ele><time>2026-04-15T07:29:02.323Z</time></trkpt><trkpt lat="45.720305" lon="13.6990832"><ele>76.0</ele><time>2026-04-15T07:29:03.357Z</time></trkpt><trkpt lat="45.720511" lon="13.698833"><ele>76.0</ele><time>2026-04-15T07:29:04.339Z</time></trkpt><trkpt lat="45.7207058" lon="13.6985912"><ele>76.0</ele><time>2026-04-15T07:29:05.316Z</time></trkpt><trkpt lat="45.7208908" lon="13.6983452"><ele>83.5</ele><time>2026-04-15T07:29:06.317Z</time></trkpt><trkpt lat="45.7210676" lon="13.6981121"><ele>91.0</ele><time>2026-04-15T07:29:07.324Z</time></trkpt><trkpt lat="45.7212406" lon="13.6978959"><ele>79.0</ele><time>2026-04-15T07:29:08.323Z</time></trkpt><trkpt lat="45.7214061" lon="13.6976882"><ele>67.0</ele><time>2026-04-15T07:29:09.315Z</time></trkpt><trkpt lat="45.7217177" lon="13.6972831"><ele>67.0</ele><time>2026-04-15T07:29:11.319Z</time></trkpt><trkpt lat="45.7218741" lon="13.6970926"><ele>67.0</ele><time>2026-04-15T07:29:12.339Z</time></trkpt><trkpt lat="45.7220345" lon="13.6968999"><ele>67.0</ele><time>2026-04-15T07:29:13.325Z</time></trkpt><trkpt lat="45.7221922" lon="13.6967093"><ele>70.0</ele><time>2026-04-15T07:29:14.325Z</time></trkpt><trkpt lat="45.7223484" lon="13.696509"><ele>73.0</ele><time>2026-04-15T07:29:15.32Z</time></trkpt><trkpt lat="45.7225032" lon="13.6962991"><ele>76.0</ele><time>2026-04-15T07:29:16.315Z</time></trkpt><trkpt lat="45.7226576" lon="13.6960878"><ele>76.0</ele><time>2026-04-15T07:29:17.314Z</time></trkpt><trkpt lat="45.7228195" lon="13.6958699"><ele>76.0</ele><time>2026-04-15T07:29:18.335Z</time></trkpt><trkpt lat="45.7229788" lon="13.695652"><ele>76.0</ele><time>2026-04-15T07:29:19.321Z</time></trkpt><trkpt lat="45.7231386" lon="13.6954351"><ele>78.5</ele><time>2026-04-15T07:29:20.325Z</time></trkpt><trkpt lat="45.7234638" lon="13.6950229"><ele>81.0</ele><time>2026-04-15T07:29:22.315Z</time></trkpt><trkpt lat="45.7236417" lon="13.6948365"><ele>81.0</ele><time>2026-04-15T07:29:23.32Z</time></trkpt><trkpt lat="45.7238319" lon="13.6946826"><ele>81.0</ele><time>2026-04-15T07:29:24.327Z</time></trkpt><trkpt lat="45.7240289" lon="13.6945531"><ele>81.0</ele><time>2026-04-15T07:29:25.329Z</time></trkpt><trkpt lat="45.7244037" lon="13.6943323"><ele>77.0</ele><time>2026-04-15T07:29:27.353Z</time></trkpt><trkpt lat="45.7245719" lon="13.6942294"><ele>73.0</ele><time>2026-04-15T07:29:28.327Z</time></trkpt><trkpt lat="45.7247415" lon="13.6941484"><ele>69.0</ele><time>2026-04-15T07:29:29.315Z</time></trkpt><trkpt lat="45.7248999" lon="13.6940847"><ele>69.0</ele><time>2026-04-15T07:29:30.326Z</time></trkpt><trkpt lat="45.7250606" lon="13.694033"><ele>69.0</ele><time>2026-04-15T07:29:31.326Z</time></trkpt><trkpt lat="45.7253905" lon="13.6938755"><ele>65.5</ele><time>2026-04-15T07:29:33.312Z</time></trkpt><trkpt lat="45.7257118" lon="13.6936349"><ele>62.0</ele><time>2026-04-15T07:29:35.326Z</time></trkpt><trkpt lat="45.7258493" lon="13.6934419"><ele>62.0</ele><time>2026-04-15T07:29:36.325Z</time></trkpt><trkpt lat="45.725985" lon="13.6932249"><ele>62.0</ele><time>2026-04-15T07:29:37.328Z</time></trkpt><trkpt lat="45.7261401" lon="13.6929795"><ele>62.0</ele><time>2026-04-15T07:29:38.317Z</time></trkpt><trkpt lat="45.726307" lon="13.6927351"><ele>66.0</ele><time>2026-04-15T07:29:39.306Z</time></trkpt><trkpt lat="45.7264661" lon="13.6924968"><ele>70.0</ele><time>2026-04-15T07:29:40.314Z</time></trkpt><trkpt lat="45.7266271" lon="13.6922776"><ele>71.0</ele><time>2026-04-15T07:29:41.317Z</time></trkpt><trkpt lat="45.7269911" lon="13.6918916"><ele>71.0</ele><time>2026-04-15T07:29:43.309Z</time></trkpt><trkpt lat="45.7273896" lon="13.691549"><ele>71.0</ele><time>2026-04-15T07:29:45.323Z</time></trkpt><trkpt lat="45.7275571" lon="13.6913591"><ele>71.0</ele><time>2026-04-15T07:29:46.313Z</time></trkpt><trkpt lat="45.7277184" lon="13.6911573"><ele>71.0</ele><time>2026-04-15T07:29:47.316Z</time></trkpt><trkpt lat="45.7278767" lon="13.6909545"><ele>73.66666666666667</ele><time>2026-04-15T07:29:48.323Z</time></trkpt><trkpt lat="45.728024" lon="13.6907394"><ele>76.33333333333333</ele><time>2026-04-15T07:29:49.331Z</time></trkpt><trkpt lat="45.7281692" lon="13.6905271"><ele>79.0</ele><time>2026-04-15T07:29:50.308Z</time></trkpt><trkpt lat="45.7283237" lon="13.6903055"><ele>83.5</ele><time>2026-04-15T07:29:51.314Z</time></trkpt><trkpt lat="45.7284843" lon="13.6900792"><ele>88.0</ele><time>2026-04-15T07:29:52.32Z</time></trkpt><trkpt lat="45.7286494" lon="13.68986"><ele>64.0</ele><time>2026-04-15T07:29:53.31Z</time></trkpt><trkpt lat="45.7292126" lon="13.6892524"><ele>64.0</ele><time>2026-04-15T07:29:56.312Z</time></trkpt><trkpt lat="45.7293725" lon="13.689023"><ele>64.0</ele><time>2026-04-15T07:29:57.311Z</time></trkpt><trkpt lat="45.7295063" lon="13.6887683"><ele>64.0</ele><time>2026-04-15T07:29:58.321Z</time></trkpt><trkpt lat="45.7296248" lon="13.6885116"><ele>67.0</ele><time>2026-04-15T07:29:59.309Z</time></trkpt><trkpt lat="45.7298724" lon="13.6880618"><ele>70.0</ele><time>2026-04-15T07:30:01.3Z</time></trkpt><trkpt lat="45.7300181" lon="13.6878682"><ele>73.0</ele><time>2026-04-15T07:30:02.311Z</time></trkpt><trkpt lat="45.7301755" lon="13.6876917"><ele>76.0</ele><time>2026-04-15T07:30:03.307Z</time></trkpt><trkpt lat="45.7307967" lon="13.6870403"><ele>80.33333333333333</ele><time>2026-04-15T07:30:07.307Z</time></trkpt><trkpt lat="45.7309266" lon="13.6868473"><ele>84.66666666666667</ele><time>2026-04-15T07:30:08.313Z</time></trkpt><trkpt lat="45.7310405" lon="13.686645"><ele>89.0</ele><time>2026-04-15T07:30:09.313Z</time></trkpt><trkpt lat="45.7311534" lon="13.6864146"><ele>89.0</ele><time>2026-04-15T07:30:10.33Z</time></trkpt><trkpt lat="45.7312656" lon="13.6861837"><ele>89.0</ele><time>2026-04-15T07:30:11.306Z</time></trkpt><trkpt lat="45.7313815" lon="13.6859593"><ele>89.0</ele><time>2026-04-15T07:30:12.319Z</time></trkpt><trkpt lat="45.7315118" lon="13.6857484"><ele>85.66666666666667</ele><time>2026-04-15T07:30:13.318Z</time></trkpt><trkpt lat="45.7316579" lon="13.6855416"><ele>82.33333333333333</ele><time>2026-04-15T07:30:14.321Z</time></trkpt><trkpt lat="45.7318127" lon="13.6853163"><ele>79.0</ele><time>2026-04-15T07:30:15.31Z</time></trkpt><trkpt lat="45.7321439" lon="13.684828"><ele>70.0</ele><time>2026-04-15T07:30:17.324Z</time></trkpt><trkpt lat="45.7324711" lon="13.6843936"><ele>61.0</ele><time>2026-04-15T07:30:19.307Z</time></trkpt><trkpt lat="45.7326286" lon="13.6841745"><ele>63.666666666666664</ele><time>2026-04-15T07:30:20.317Z</time></trkpt><trkpt lat="45.7327857" lon="13.6839492"><ele>66.33333333333333</ele><time>2026-04-15T07:30:21.301Z</time></trkpt><trkpt lat="45.7329406" lon="13.6837391"><ele>69.0</ele><time>2026-04-15T07:30:22.31Z</time></trkpt><trkpt lat="45.7330981" lon="13.6835327"><ele>69.0</ele><time>2026-04-15T07:30:23.312Z</time></trkpt><trkpt lat="45.7332646" lon="13.6833309"><ele>69.0</ele><time>2026-04-15T07:30:24.327Z</time></trkpt><trkpt lat="45.7334527" lon="13.6831263"><ele>70.0</ele><time>2026-04-15T07:30:25.308Z</time></trkpt><trkpt lat="45.7336645" lon="13.6829295"><ele>71.0</ele><time>2026-04-15T07:30:26.308Z</time></trkpt><trkpt lat="45.734101" lon="13.6825303"><ele>88.5</ele><time>2026-04-15T07:30:28.315Z</time></trkpt><trkpt lat="45.7344769" lon="13.6821791"><ele>106.0</ele><time>2026-04-15T07:30:30.328Z</time></trkpt><trkpt lat="45.734642" lon="13.6820301"><ele>96.0</ele><time>2026-04-15T07:30:31.308Z</time></trkpt><trkpt lat="45.7347941" lon="13.6818747"><ele>86.0</ele><time>2026-04-15T07:30:32.312Z</time></trkpt><trkpt lat="45.7349455" lon="13.6817078"><ele>76.0</ele><time>2026-04-15T07:30:33.301Z</time></trkpt><trkpt lat="45.7351016" lon="13.6815124"><ele>82.0</ele><time>2026-04-15T07:30:34.308Z</time></trkpt><trkpt lat="45.7352616" lon="13.6812856"><ele>88.0</ele><time>2026-04-15T07:30:35.311Z</time></trkpt><trkpt lat="45.7354253" lon="13.6810639"><ele>88.0</ele><time>2026-04-15T07:30:36.321Z</time></trkpt><trkpt lat="45.735581" lon="13.6808616"><ele>88.0</ele><time>2026-04-15T07:30:37.305Z</time></trkpt><trkpt lat="45.7357266" lon="13.6806663"><ele>88.0</ele><time>2026-04-15T07:30:38.313Z</time></trkpt><trkpt lat="45.7358667" lon="13.6804766"><ele>92.0</ele><time>2026-04-15T07:30:39.304Z</time></trkpt><trkpt lat="45.7361576" lon="13.6801426"><ele>96.0</ele><time>2026-04-15T07:30:41.302Z</time></trkpt><trkpt lat="45.7362968" lon="13.6800096"><ele>96.0</ele><time>2026-04-15T07:30:42.317Z</time></trkpt><trkpt lat="45.7364257" lon="13.6798724"><ele>96.0</ele><time>2026-04-15T07:30:43.308Z</time></trkpt><trkpt lat="45.7365485" lon="13.6797314"><ele>96.0</ele><time>2026-04-15T07:30:44.305Z</time></trkpt><trkpt lat="45.7366784" lon="13.6795718"><ele>99.66666666666666</ele><time>2026-04-15T07:30:45.311Z</time></trkpt><trkpt lat="45.7368141" lon="13.6793677"><ele>103.33333333333333</ele><time>2026-04-15T07:30:46.317Z</time></trkpt><trkpt lat="45.7369492" lon="13.6791256"><ele>107.0</ele><time>2026-04-15T07:30:47.322Z</time></trkpt><trkpt lat="45.7370881" lon="13.6788608"><ele>90.5</ele><time>2026-04-15T07:30:48.307Z</time></trkpt><trkpt lat="45.7372312" lon="13.6785963"><ele>74.0</ele><time>2026-04-15T07:30:49.323Z</time></trkpt><trkpt lat="45.7373758" lon="13.6783456"><ele>74.0</ele><time>2026-04-15T07:30:50.305Z</time></trkpt><trkpt lat="45.7377049" lon="13.6778716"><ele>77.66666666666667</ele><time>2026-04-15T07:30:52.313Z</time></trkpt><trkpt lat="45.7378869" lon="13.6776779"><ele>81.33333333333333</ele><time>2026-04-15T07:30:53.3Z</time></trkpt><trkpt lat="45.7380636" lon="13.6774955"><ele>85.0</ele><time>2026-04-15T07:30:54.312Z</time></trkpt><trkpt lat="45.7382315" lon="13.6773304"><ele>85.0</ele><time>2026-04-15T07:30:55.3Z</time></trkpt><trkpt lat="45.7383929" lon="13.677157"><ele>85.0</ele><time>2026-04-15T07:30:56.308Z</time></trkpt><trkpt lat="45.7385484" lon="13.6769578"><ele>85.0</ele><time>2026-04-15T07:30:57.308Z</time></trkpt><trkpt lat="45.738718" lon="13.6767444"><ele>89.5</ele><time>2026-04-15T07:30:58.307Z</time></trkpt><trkpt lat="45.7388952" lon="13.6765164"><ele>94.0</ele><time>2026-04-15T07:30:59.308Z</time></trkpt><trkpt lat="45.7390718" lon="13.676276"><ele>102.5</ele><time>2026-04-15T07:31:00.305Z</time></trkpt><trkpt lat="45.7393709" lon="13.6758377"><ele>111.0</ele><time>2026-04-15T07:31:02.325Z</time></trkpt><trkpt lat="45.7395031" lon="13.6756408"><ele>111.0</ele><time>2026-04-15T07:31:03.303Z</time></trkpt><trkpt lat="45.7396291" lon="13.6754355"><ele>111.0</ele><time>2026-04-15T07:31:04.306Z</time></trkpt><trkpt lat="45.7397489" lon="13.6752417"><ele>111.0</ele><time>2026-04-15T07:31:05.293Z</time></trkpt><trkpt lat="45.7398608" lon="13.6750728"><ele>103.0</ele><time>2026-04-15T07:31:06.307Z</time></trkpt><trkpt lat="45.7399709" lon="13.6748962"><ele>95.0</ele><time>2026-04-15T07:31:07.328Z</time></trkpt><trkpt lat="45.7400812" lon="13.6747126"><ele>87.0</ele><time>2026-04-15T07:31:08.293Z</time></trkpt><trkpt lat="45.7401927" lon="13.674526"><ele>91.66666666666666</ele><time>2026-04-15T07:31:09.301Z</time></trkpt><trkpt lat="45.7402951" lon="13.6743227"><ele>96.33333333333333</ele><time>2026-04-15T07:31:10.295Z</time></trkpt><trkpt lat="45.7403959" lon="13.6740967"><ele>101.0</ele><time>2026-04-15T07:31:11.292Z</time></trkpt><trkpt lat="45.7404998" lon="13.67384"><ele>94.33333333333333</ele><time>2026-04-15T07:31:12.294Z</time></trkpt><trkpt lat="45.7406147" lon="13.6735732"><ele>87.66666666666666</ele><time>2026-04-15T07:31:13.3Z</time></trkpt><trkpt lat="45.7407254" lon="13.6733193"><ele>81.0</ele><time>2026-04-15T07:31:14.303Z</time></trkpt><trkpt lat="45.7408298" lon="13.6730794"><ele>81.0</ele><time>2026-04-15T07:31:15.3Z</time></trkpt><trkpt lat="45.7409369" lon="13.672846"><ele>81.0</ele><time>2026-04-15T07:31:16.298Z</time></trkpt><trkpt lat="45.7410437" lon="13.6726122"><ele>81.0</ele><time>2026-04-15T07:31:17.297Z</time></trkpt><trkpt lat="45.7411451" lon="13.6723852"><ele>85.0</ele><time>2026-04-15T07:31:18.305Z</time></trkpt><trkpt lat="45.7412428" lon="13.6721536"><ele>89.0</ele><time>2026-04-15T07:31:19.293Z</time></trkpt><trkpt lat="45.7413394" lon="13.6719174"><ele>93.0</ele><time>2026-04-15T07:31:20.314Z</time></trkpt><trkpt lat="45.7414312" lon="13.6716709"><ele>93.0</ele><time>2026-04-15T07:31:21.305Z</time></trkpt><trkpt lat="45.7415208" lon="13.6714248"><ele>93.0</ele><time>2026-04-15T07:31:22.306Z</time></trkpt><trkpt lat="45.7416094" lon="13.6711894"><ele>93.0</ele><time>2026-04-15T07:31:23.305Z</time></trkpt><trkpt lat="45.7416969" lon="13.6709524"><ele>96.0</ele><time>2026-04-15T07:31:24.299Z</time></trkpt><trkpt lat="45.7417864" lon="13.6707127"><ele>99.0</ele><time>2026-04-15T07:31:25.3Z</time></trkpt><trkpt lat="45.7418798" lon="13.6704746"><ele>102.0</ele><time>2026-04-15T07:31:26.296Z</time></trkpt><trkpt lat="45.7419685" lon="13.6702248"><ele>102.0</ele><time>2026-04-15T07:31:27.296Z</time></trkpt><trkpt lat="45.7420677" lon="13.6699728"><ele>102.0</ele><time>2026-04-15T07:31:28.3Z</time></trkpt><trkpt lat="45.7421728" lon="13.6697233"><ele>102.0</ele><time>2026-04-15T07:31:29.305Z</time></trkpt><trkpt lat="45.7422819" lon="13.6694797"><ele>95.33333333333333</ele><time>2026-04-15T07:31:30.301Z</time></trkpt><trkpt lat="45.7423991" lon="13.6692248"><ele>88.66666666666666</ele><time>2026-04-15T07:31:31.301Z</time></trkpt><trkpt lat="45.7425194" lon="13.6689696"><ele>82.0</ele><time>2026-04-15T07:31:32.299Z</time></trkpt><trkpt lat="45.7426386" lon="13.6687122"><ele>90.0</ele><time>2026-04-15T07:31:33.294Z</time></trkpt><trkpt lat="45.7427598" lon="13.6684581"><ele>98.0</ele><time>2026-04-15T07:31:34.3Z</time></trkpt><trkpt lat="45.7428805" lon="13.6682056"><ele>106.0</ele><time>2026-04-15T07:31:35.299Z</time></trkpt><trkpt lat="45.7429977" lon="13.6679491"><ele>100.66666666666667</ele><time>2026-04-15T07:31:36.307Z</time></trkpt><trkpt lat="45.7431083" lon="13.6676921"><ele>95.33333333333334</ele><time>2026-04-15T07:31:37.304Z</time></trkpt><trkpt lat="45.743211" lon="13.667433"><ele>90.0</ele><time>2026-04-15T07:31:38.306Z</time></trkpt><trkpt lat="45.7433081" lon="13.6671747"><ele>82.0</ele><time>2026-04-15T07:31:39.301Z</time></trkpt><trkpt lat="45.7434024" lon="13.6669113"><ele>74.0</ele><time>2026-04-15T07:31:40.305Z</time></trkpt><trkpt lat="45.7435037" lon="13.6666505"><ele>66.0</ele><time>2026-04-15T07:31:41.293Z</time></trkpt><trkpt lat="45.7436108" lon="13.6663977"><ele>76.66666666666666</ele><time>2026-04-15T07:31:42.307Z</time></trkpt><trkpt lat="45.743738" lon="13.666157"><ele>87.33333333333333</ele><time>2026-04-15T07:31:43.303Z</time></trkpt><trkpt lat="45.7438807" lon="13.6659211"><ele>98.0</ele><time>2026-04-15T07:31:44.313Z</time></trkpt><trkpt lat="45.7440284" lon="13.6656887"><ele>98.0</ele><time>2026-04-15T07:31:45.301Z</time></trkpt><trkpt lat="45.7441768" lon="13.6654472"><ele>98.0</ele><time>2026-04-15T07:31:46.292Z</time></trkpt><trkpt lat="45.7443265" lon="13.66521"><ele>98.0</ele><time>2026-04-15T07:31:47.318Z</time></trkpt><trkpt lat="45.744803" lon="13.6645581"><ele>92.0</ele><time>2026-04-15T07:31:50.294Z</time></trkpt><trkpt lat="45.7450047" lon="13.6643448"><ele>86.0</ele><time>2026-04-15T07:31:51.302Z</time></trkpt><trkpt lat="45.7451939" lon="13.6641193"><ele>115.0</ele><time>2026-04-15T07:31:52.292Z</time></trkpt><trkpt lat="45.745371" lon="13.6638994"><ele>144.0</ele><time>2026-04-15T07:31:53.294Z</time></trkpt><trkpt lat="45.7455546" lon="13.6636697"><ele>126.0</ele><time>2026-04-15T07:31:54.31Z</time></trkpt><trkpt lat="45.745734" lon="13.6634378"><ele>108.0</ele><time>2026-04-15T07:31:55.296Z</time></trkpt><trkpt lat="45.7459081" lon="13.6632031"><ele>113.5</ele><time>2026-04-15T07:31:56.304Z</time></trkpt><trkpt lat="45.7460802" lon="13.6629601"><ele>119.0</ele><time>2026-04-15T07:31:57.304Z</time></trkpt><trkpt lat="45.7462476" lon="13.6627043"><ele>119.0</ele><time>2026-04-15T07:31:58.304Z</time></trkpt><trkpt lat="45.7464221" lon="13.6624815"><ele>119.0</ele><time>2026-04-15T07:31:59.297Z</time></trkpt><trkpt lat="45.7466057" lon="13.6622587"><ele>119.0</ele><time>2026-04-15T07:32:00.311Z</time></trkpt><trkpt lat="45.7467975" lon="13.6620525"><ele>119.0</ele><time>2026-04-15T07:32:01.3Z</time></trkpt><trkpt lat="45.7469984" lon="13.6618602"><ele>117.0</ele><time>2026-04-15T07:32:02.294Z</time></trkpt><trkpt lat="45.7472021" lon="13.6616672"><ele>115.0</ele><time>2026-04-15T07:32:03.291Z</time></trkpt><trkpt lat="45.7474038" lon="13.6614902"><ele>115.0</ele><time>2026-04-15T07:32:04.293Z</time></trkpt><trkpt lat="45.7476032" lon="13.6612947"><ele>115.0</ele><time>2026-04-15T07:32:05.291Z</time></trkpt><trkpt lat="45.7478065" lon="13.6610882"><ele>110.0</ele><time>2026-04-15T07:32:06.294Z</time></trkpt><trkpt lat="45.748005" lon="13.6608857"><ele>105.0</ele><time>2026-04-15T07:32:07.286Z</time></trkpt><trkpt lat="45.7482064" lon="13.6606713"><ele>105.0</ele><time>2026-04-15T07:32:08.29Z</time></trkpt><trkpt lat="45.7484097" lon="13.6604566"><ele>105.0</ele><time>2026-04-15T07:32:09.296Z</time></trkpt><trkpt lat="45.7486151" lon="13.6602437"><ele>104.5</ele><time>2026-04-15T07:32:10.303Z</time></trkpt><trkpt lat="45.7488186" lon="13.6600226"><ele>104.0</ele><time>2026-04-15T07:32:11.292Z</time></trkpt><trkpt lat="45.7490207" lon="13.6597958"><ele>104.0</ele><time>2026-04-15T07:32:12.299Z</time></trkpt><trkpt lat="45.7492146" lon="13.6595638"><ele>104.0</ele><time>2026-04-15T07:32:13.289Z</time></trkpt><trkpt lat="45.7494048" lon="13.6593236"><ele>109.5</ele><time>2026-04-15T07:32:14.293Z</time></trkpt><trkpt lat="45.7495904" lon="13.6590835"><ele>115.0</ele><time>2026-04-15T07:32:15.292Z</time></trkpt><trkpt lat="45.7497754" lon="13.6588443"><ele>97.5</ele><time>2026-04-15T07:32:16.306Z</time></trkpt><trkpt lat="45.7499633" lon="13.6586094"><ele>80.0</ele><time>2026-04-15T07:32:17.322Z</time></trkpt><trkpt lat="45.7501474" lon="13.6583737"><ele>101.5</ele><time>2026-04-15T07:32:18.299Z</time></trkpt><trkpt lat="45.7503204" lon="13.6581441"><ele>123.0</ele><time>2026-04-15T07:32:19.294Z</time></trkpt><trkpt lat="45.7504878" lon="13.6579004"><ele>109.0</ele><time>2026-04-15T07:32:20.291Z</time></trkpt><trkpt lat="45.7506409" lon="13.6576487"><ele>95.0</ele><time>2026-04-15T07:32:21.291Z</time></trkpt><trkpt lat="45.7507798" lon="13.6573847"><ele>95.0</ele><time>2026-04-15T07:32:22.286Z</time></trkpt><trkpt lat="45.7509106" lon="13.6570864"><ele>95.0</ele><time>2026-04-15T07:32:23.293Z</time></trkpt><trkpt lat="45.751052" lon="13.6567679"><ele>106.0</ele><time>2026-04-15T07:32:24.291Z</time></trkpt><trkpt lat="45.7512121" lon="13.6564614"><ele>117.0</ele><time>2026-04-15T07:32:25.297Z</time></trkpt><trkpt lat="45.751375" lon="13.6561491"><ele>104.0</ele><time>2026-04-15T07:32:26.293Z</time></trkpt><trkpt lat="45.7515297" lon="13.6558226"><ele>91.0</ele><time>2026-04-15T07:32:27.289Z</time></trkpt><trkpt lat="45.7516615" lon="13.6554928"><ele>82.5</ele><time>2026-04-15T07:32:28.283Z</time></trkpt><trkpt lat="45.7517842" lon="13.6551711"><ele>74.0</ele><time>2026-04-15T07:32:29.288Z</time></trkpt><trkpt lat="45.7519103" lon="13.654859"><ele>89.0</ele><time>2026-04-15T07:32:30.289Z</time></trkpt><trkpt lat="45.7520441" lon="13.6545497"><ele>104.0</ele><time>2026-04-15T07:32:31.299Z</time></trkpt><trkpt lat="45.7521891" lon="13.6542524"><ele>104.0</ele><time>2026-04-15T07:32:32.29Z</time></trkpt><trkpt lat="45.7523395" lon="13.6539638"><ele>104.0</ele><time>2026-04-15T07:32:33.291Z</time></trkpt><trkpt lat="45.7524958" lon="13.6536837"><ele>114.0</ele><time>2026-04-15T07:32:34.29Z</time></trkpt><trkpt lat="45.752657" lon="13.6534145"><ele>124.0</ele><time>2026-04-15T07:32:35.295Z</time></trkpt><trkpt lat="45.7528231" lon="13.6531561"><ele>124.0</ele><time>2026-04-15T07:32:36.291Z</time></trkpt><trkpt lat="45.7529914" lon="13.6528953"><ele>124.0</ele><time>2026-04-15T07:32:37.29Z</time></trkpt><trkpt lat="45.7531548" lon="13.6526414"><ele>108.0</ele><time>2026-04-15T07:32:38.285Z</time></trkpt><trkpt lat="45.7533169" lon="13.6523837"><ele>92.0</ele><time>2026-04-15T07:32:39.284Z</time></trkpt><trkpt lat="45.7534821" lon="13.6521284"><ele>98.5</ele><time>2026-04-15T07:32:40.287Z</time></trkpt><trkpt lat="45.7536427" lon="13.6518757"><ele>105.0</ele><time>2026-04-15T07:32:41.284Z</time></trkpt><trkpt lat="45.7538052" lon="13.6516288"><ele>105.0</ele><time>2026-04-15T07:32:42.302Z</time></trkpt><trkpt lat="45.7539687" lon="13.6513754"><ele>105.0</ele><time>2026-04-15T07:32:43.284Z</time></trkpt><trkpt lat="45.7541331" lon="13.6511189"><ele>111.5</ele><time>2026-04-15T07:32:44.291Z</time></trkpt><trkpt lat="45.7542939" lon="13.6508753"><ele>118.0</ele><time>2026-04-15T07:32:45.288Z</time></trkpt><trkpt lat="45.7544454" lon="13.650645"><ele>118.0</ele><time>2026-04-15T07:32:46.286Z</time></trkpt><trkpt lat="45.7545894" lon="13.6504302"><ele>118.0</ele><time>2026-04-15T07:32:47.295Z</time></trkpt><trkpt lat="45.754725" lon="13.6502261"><ele>118.0</ele><time>2026-04-15T07:32:48.286Z</time></trkpt><trkpt lat="45.7548593" lon="13.6500182"><ele>114.0</ele><time>2026-04-15T07:32:49.292Z</time></trkpt><trkpt lat="45.7549933" lon="13.6498117"><ele>110.0</ele><time>2026-04-15T07:32:50.297Z</time></trkpt><trkpt lat="45.7551287" lon="13.6496158"><ele>106.0</ele><time>2026-04-15T07:32:51.284Z</time></trkpt><trkpt lat="45.7552601" lon="13.6494158"><ele>106.0</ele><time>2026-04-15T07:32:52.292Z</time></trkpt><trkpt lat="45.7553831" lon="13.6492097"><ele>106.0</ele><time>2026-04-15T07:32:53.293Z</time></trkpt><trkpt lat="45.7555012" lon="13.6489931"><ele>106.0</ele><time>2026-04-15T07:32:54.287Z</time></trkpt><trkpt lat="45.7556103" lon="13.6487717"><ele>101.33333333333334</ele><time>2026-04-15T07:32:55.291Z</time></trkpt><trkpt lat="45.7557089" lon="13.648542"><ele>96.66666666666667</ele><time>2026-04-15T07:32:56.285Z</time></trkpt><trkpt lat="45.7557952" lon="13.6483099"><ele>92.0</ele><time>2026-04-15T07:32:57.286Z</time></trkpt><trkpt lat="45.7558804" lon="13.6480738"><ele>92.0</ele><time>2026-04-15T07:32:58.284Z</time></trkpt><trkpt lat="45.7559605" lon="13.6478406"><ele>92.0</ele><time>2026-04-15T07:32:59.292Z</time></trkpt><trkpt lat="45.7560422" lon="13.6476052"><ele>92.0</ele><time>2026-04-15T07:33:00.285Z</time></trkpt><trkpt lat="45.7561246" lon="13.6473677"><ele>97.33333333333334</ele><time>2026-04-15T07:33:01.283Z</time></trkpt><trkpt lat="45.7562045" lon="13.6471334"><ele>102.66666666666667</ele><time>2026-04-15T07:33:02.287Z</time></trkpt><trkpt lat="45.756282" lon="13.6469058"><ele>108.0</ele><time>2026-04-15T07:33:03.294Z</time></trkpt><trkpt lat="45.7563624" lon="13.6466819"><ele>108.0</ele><time>2026-04-15T07:33:04.287Z</time></trkpt><trkpt lat="45.7564398" lon="13.6464615"><ele>108.0</ele><time>2026-04-15T07:33:05.284Z</time></trkpt><trkpt lat="45.7565189" lon="13.6462444"><ele>108.0</ele><time>2026-04-15T07:33:06.306Z</time></trkpt><trkpt lat="45.7565941" lon="13.646028"><ele>101.66666666666667</ele><time>2026-04-15T07:33:07.285Z</time></trkpt><trkpt lat="45.7566698" lon="13.6458111"><ele>95.33333333333334</ele><time>2026-04-15T07:33:08.288Z</time></trkpt><trkpt lat="45.7567577" lon="13.6455644"><ele>89.0</ele><time>2026-04-15T07:33:09.29Z</time></trkpt><trkpt lat="45.7568659" lon="13.6453012"><ele>99.5</ele><time>2026-04-15T07:33:10.295Z</time></trkpt><trkpt lat="45.7570022" lon="13.6450453"><ele>110.0</ele><time>2026-04-15T07:33:11.285Z</time></trkpt><trkpt lat="45.7571409" lon="13.6447723"><ele>110.0</ele><time>2026-04-15T07:33:12.288Z</time></trkpt><trkpt lat="45.7572851" lon="13.6444914"><ele>110.0</ele><time>2026-04-15T07:33:13.3Z</time></trkpt><trkpt lat="45.7574422" lon="13.6442174"><ele>114.5</ele><time>2026-04-15T07:33:14.29Z</time></trkpt><trkpt lat="45.7576106" lon="13.6439571"><ele>119.0</ele><time>2026-04-15T07:33:15.293Z</time></trkpt><trkpt lat="45.7577776" lon="13.6437338"><ele>113.66666666666666</ele><time>2026-04-15T07:33:16.287Z</time></trkpt><trkpt lat="45.7579223" lon="13.6435038"><ele>108.33333333333334</ele><time>2026-04-15T07:33:17.286Z</time></trkpt><trkpt lat="45.7580575" lon="13.6432774"><ele>103.0</ele><time>2026-04-15T07:33:18.289Z</time></trkpt><trkpt lat="45.758188" lon="13.6430694"><ele>103.0</ele><time>2026-04-15T07:33:19.286Z</time></trkpt><trkpt lat="45.7583167" lon="13.6428935"><ele>103.0</ele><time>2026-04-15T07:33:20.285Z</time></trkpt><trkpt lat="45.7584478" lon="13.6427441"><ele>103.0</ele><time>2026-04-15T07:33:21.292Z</time></trkpt><trkpt lat="45.7585908" lon="13.6426097"><ele>104.33333333333334</ele><time>2026-04-15T07:33:22.291Z</time></trkpt><trkpt lat="45.7587403" lon="13.6424766"><ele>105.66666666666666</ele><time>2026-04-15T07:33:23.294Z</time></trkpt><trkpt lat="45.758893" lon="13.6423481"><ele>107.0</ele><time>2026-04-15T07:33:24.284Z</time></trkpt><trkpt lat="45.7590477" lon="13.6422219"><ele>107.0</ele><time>2026-04-15T07:33:25.3Z</time></trkpt><trkpt lat="45.7592068" lon="13.642104"><ele>107.0</ele><time>2026-04-15T07:33:26.292Z</time></trkpt><trkpt lat="45.7593588" lon="13.6419834"><ele>107.0</ele><time>2026-04-15T07:33:27.284Z</time></trkpt><trkpt lat="45.7595039" lon="13.6418694"><ele>103.66666666666666</ele><time>2026-04-15T07:33:28.288Z</time></trkpt><trkpt lat="45.7596456" lon="13.6417503"><ele>100.33333333333334</ele><time>2026-04-15T07:33:29.278Z</time></trkpt><trkpt lat="45.7597906" lon="13.6416297"><ele>97.0</ele><time>2026-04-15T07:33:30.277Z</time></trkpt><trkpt lat="45.7599405" lon="13.641515"><ele>97.0</ele><time>2026-04-15T07:33:31.282Z</time></trkpt><trkpt lat="45.7600902" lon="13.6413979"><ele>97.0</ele><time>2026-04-15T07:33:32.295Z</time></trkpt><trkpt lat="45.7602541" lon="13.6412572"><ele>97.0</ele><time>2026-04-15T07:33:33.284Z</time></trkpt><trkpt lat="45.7604418" lon="13.6411092"><ele>93.0</ele><time>2026-04-15T07:33:34.284Z</time></trkpt><trkpt lat="45.7606355" lon="13.6409561"><ele>89.0</ele><time>2026-04-15T07:33:35.274Z</time></trkpt><trkpt lat="45.7610217" lon="13.6406327"><ele>94.0</ele><time>2026-04-15T07:33:37.277Z</time></trkpt><trkpt lat="45.7612264" lon="13.6404859"><ele>99.0</ele><time>2026-04-15T07:33:38.287Z</time></trkpt><trkpt lat="45.7614299" lon="13.6403489"><ele>97.5</ele><time>2026-04-15T07:33:39.276Z</time></trkpt><trkpt lat="45.7616283" lon="13.6402064"><ele>96.0</ele><time>2026-04-15T07:33:40.318Z</time></trkpt><trkpt lat="45.7620217" lon="13.6399377"><ele>96.0</ele><time>2026-04-15T07:33:42.28Z</time></trkpt><trkpt lat="45.7622153" lon="13.6398278"><ele>96.0</ele><time>2026-04-15T07:33:43.283Z</time></trkpt><trkpt lat="45.7623879" lon="13.6397379"><ele>96.0</ele><time>2026-04-15T07:33:44.288Z</time></trkpt><trkpt lat="45.7625457" lon="13.6396663"><ele>96.0</ele><time>2026-04-15T07:33:45.278Z</time></trkpt><trkpt lat="45.7626969" lon="13.6396194"><ele>96.0</ele><time>2026-04-15T07:33:46.315Z</time></trkpt><trkpt lat="45.7628406" lon="13.6395695"><ele>96.0</ele><time>2026-04-15T07:33:47.356Z</time></trkpt><trkpt lat="45.7629787" lon="13.6395171"><ele>96.0</ele><time>2026-04-15T07:33:48.294Z</time></trkpt><trkpt lat="45.7631294" lon="13.6394701"><ele>92.0</ele><time>2026-04-15T07:33:49.283Z</time></trkpt><trkpt lat="45.7632889" lon="13.6394208"><ele>88.0</ele><time>2026-04-15T07:33:50.279Z</time></trkpt><trkpt lat="45.7634452" lon="13.6393845"><ele>84.0</ele><time>2026-04-15T07:33:51.28Z</time></trkpt><trkpt lat="45.7635976" lon="13.6393495"><ele>84.0</ele><time>2026-04-15T07:33:52.287Z</time></trkpt><trkpt lat="45.7637524" lon="13.6393343"><ele>84.0</ele><time>2026-04-15T07:33:53.283Z</time></trkpt><trkpt lat="45.763912" lon="13.6393129"><ele>84.0</ele><time>2026-04-15T07:33:54.278Z</time></trkpt><trkpt lat="45.7640694" lon="13.6392954"><ele>84.0</ele><time>2026-04-15T07:33:55.275Z</time></trkpt><trkpt lat="45.7642271" lon="13.6392864"><ele>84.0</ele><time>2026-04-15T07:33:56.287Z</time></trkpt><trkpt lat="45.7643863" lon="13.6392927"><ele>84.0</ele><time>2026-04-15T07:33:57.286Z</time></trkpt><trkpt lat="45.7645444" lon="13.6392932"><ele>83.66666666666667</ele><time>2026-04-15T07:33:58.288Z</time></trkpt><trkpt lat="45.7647081" lon="13.6392996"><ele>83.33333333333334</ele><time>2026-04-15T07:33:59.285Z</time></trkpt><trkpt lat="45.7648667" lon="13.6392937"><ele>83.0</ele><time>2026-04-15T07:34:00.276Z</time></trkpt><trkpt lat="45.7650242" lon="13.6392863"><ele>83.0</ele><time>2026-04-15T07:34:01.278Z</time></trkpt><trkpt lat="45.7651795" lon="13.6392789"><ele>83.0</ele><time>2026-04-15T07:34:02.281Z</time></trkpt><trkpt lat="45.7653326" lon="13.6392795"><ele>83.0</ele><time>2026-04-15T07:34:03.281Z</time></trkpt><trkpt lat="45.7654855" lon="13.6392783"><ele>82.33333333333334</ele><time>2026-04-15T07:34:04.278Z</time></trkpt><trkpt lat="45.765635" lon="13.6392812"><ele>81.66666666666667</ele><time>2026-04-15T07:34:05.286Z</time></trkpt><trkpt lat="45.7657859" lon="13.6392799"><ele>81.0</ele><time>2026-04-15T07:34:06.29Z</time></trkpt><trkpt lat="45.7659366" lon="13.6392784"><ele>81.66666666666667</ele><time>2026-04-15T07:34:07.279Z</time></trkpt><trkpt lat="45.766089" lon="13.6392771"><ele>82.33333333333334</ele><time>2026-04-15T07:34:08.279Z</time></trkpt><trkpt lat="45.7662419" lon="13.6392707"><ele>83.0</ele><time>2026-04-15T07:34:09.28Z</time></trkpt><trkpt lat="45.7663952" lon="13.6392676"><ele>83.0</ele><time>2026-04-15T07:34:10.289Z</time></trkpt><trkpt lat="45.7665507" lon="13.6392672"><ele>83.0</ele><time>2026-04-15T07:34:11.281Z</time></trkpt><trkpt lat="45.766707" lon="13.6392741"><ele>83.0</ele><time>2026-04-15T07:34:12.277Z</time></trkpt><trkpt lat="45.7668649" lon="13.6392735"><ele>83.0</ele><time>2026-04-15T07:34:13.288Z</time></trkpt><trkpt lat="45.7670271" lon="13.6392728"><ele>83.0</ele><time>2026-04-15T07:34:14.282Z</time></trkpt><trkpt lat="45.7671912" lon="13.6392737"><ele>83.0</ele><time>2026-04-15T07:34:15.275Z</time></trkpt><trkpt lat="45.767357" lon="13.6392721"><ele>83.0</ele><time>2026-04-15T07:34:16.269Z</time></trkpt><trkpt lat="45.7675152" lon="13.6392699"><ele>83.0</ele><time>2026-04-15T07:34:17.318Z</time></trkpt><trkpt lat="45.7676586" lon="13.6392665"><ele>83.0</ele><time>2026-04-15T07:34:18.283Z</time></trkpt><trkpt lat="45.7677912" lon="13.6392606"><ele>83.0</ele><time>2026-04-15T07:34:19.279Z</time></trkpt><trkpt lat="45.7679175" lon="13.6392598"><ele>83.0</ele><time>2026-04-15T07:34:20.279Z</time></trkpt><trkpt lat="45.768042" lon="13.6392578"><ele>83.0</ele><time>2026-04-15T07:34:21.285Z</time></trkpt><trkpt lat="45.7681702" lon="13.6392554"><ele>83.0</ele><time>2026-04-15T07:34:22.304Z</time></trkpt><trkpt lat="45.7683054" lon="13.6392537"><ele>83.0</ele><time>2026-04-15T07:34:23.276Z</time></trkpt><trkpt lat="45.7684414" lon="13.6392554"><ele>82.5</ele><time>2026-04-15T07:34:24.281Z</time></trkpt><trkpt lat="45.7685821" lon="13.6392496"><ele>82.0</ele><time>2026-04-15T07:34:25.279Z</time></trkpt><trkpt lat="45.768721" lon="13.6392487"><ele>81.5</ele><time>2026-04-15T07:34:26.297Z</time></trkpt><trkpt lat="45.7688571" lon="13.6392394"><ele>81.0</ele><time>2026-04-15T07:34:27.283Z</time></trkpt><trkpt lat="45.7689895" lon="13.6392341"><ele>81.0</ele><time>2026-04-15T07:34:28.28Z</time></trkpt><trkpt lat="45.7691215" lon="13.6392232"><ele>81.0</ele><time>2026-04-15T07:34:29.277Z</time></trkpt><trkpt lat="45.769242" lon="13.6392113"><ele>81.0</ele><time>2026-04-15T07:34:30.277Z</time></trkpt><trkpt lat="45.7693511" lon="13.6392001"><ele>81.0</ele><time>2026-04-15T07:34:31.306Z</time></trkpt><trkpt lat="45.7694509" lon="13.6391882"><ele>80.75</ele><time>2026-04-15T07:34:32.272Z</time></trkpt><trkpt lat="45.7696561" lon="13.6391517"><ele>80.5</ele><time>2026-04-15T07:34:34.28Z</time></trkpt><trkpt lat="45.7697455" lon="13.6391032"><ele>80.25</ele><time>2026-04-15T07:34:35.275Z</time></trkpt><trkpt lat="45.7698196" lon="13.6390445"><ele>80.0</ele><time>2026-04-15T07:34:36.285Z</time></trkpt><trkpt lat="45.7698854" lon="13.638985"><ele>80.0</ele><time>2026-04-15T07:34:37.283Z</time></trkpt><trkpt lat="45.7699544" lon="13.6389452"><ele>80.0</ele><time>2026-04-15T07:34:38.278Z</time></trkpt><trkpt lat="45.7700156" lon="13.6389162"><ele>80.0</ele><time>2026-04-15T07:34:39.274Z</time></trkpt><trkpt lat="45.7700803" lon="13.6389346"><ele>80.0</ele><time>2026-04-15T07:34:40.293Z</time></trkpt><trkpt lat="45.7701405" lon="13.638984"><ele>80.0</ele><time>2026-04-15T07:34:41.295Z</time></trkpt><trkpt lat="45.7701953" lon="13.6390412"><ele>80.0</ele><time>2026-04-15T07:34:42.281Z</time></trkpt><trkpt lat="45.7702552" lon="13.6390899"><ele>80.0</ele><time>2026-04-15T07:34:43.278Z</time></trkpt><trkpt lat="45.7703209" lon="13.6390985"><ele>79.33333333333334</ele><time>2026-04-15T07:34:44.273Z</time></trkpt><trkpt lat="45.7704438" lon="13.639065"><ele>78.66666666666667</ele><time>2026-04-15T07:34:46.289Z</time></trkpt><trkpt lat="45.7705362" lon="13.63896"><ele>78.0</ele><time>2026-04-15T07:34:48.264Z</time></trkpt><trkpt lat="45.7706425" lon="13.6386756"><ele>78.2</ele><time>2026-04-15T07:34:51.302Z</time></trkpt><trkpt lat="45.7706912" lon="13.6385826"><ele>78.4</ele><time>2026-04-15T07:34:52.288Z</time></trkpt><trkpt lat="45.7707379" lon="13.6384888"><ele>78.60000000000001</ele><time>2026-04-15T07:34:53.289Z</time></trkpt><trkpt lat="45.7707805" lon="13.638407"><ele>78.8</ele><time>2026-04-15T07:34:54.285Z</time></trkpt><trkpt lat="45.7708622" lon="13.638287"><ele>79.0</ele><time>2026-04-15T07:34:56.27Z</time></trkpt><trkpt lat="45.7709497" lon="13.6381704"><ele>78.33333333333333</ele><time>2026-04-15T07:34:58.273Z</time></trkpt><trkpt lat="45.771038" lon="13.638045"><ele>77.66666666666666</ele><time>2026-04-15T07:35:00.276Z</time></trkpt><trkpt lat="45.7710844" lon="13.6379826"><ele>77.0</ele><time>2026-04-15T07:35:01.284Z</time></trkpt><trkpt lat="45.7711306" lon="13.6379191"><ele>76.33333333333333</ele><time>2026-04-15T07:35:02.271Z</time></trkpt><trkpt lat="45.7711723" lon="13.6378471"><ele>75.66666666666667</ele><time>2026-04-15T07:35:03.277Z</time></trkpt><trkpt lat="45.7712168" lon="13.6377777"><ele>75.0</ele><time>2026-04-15T07:35:04.273Z</time></trkpt><trkpt lat="45.7712687" lon="13.6376977"><ele>75.0</ele><time>2026-04-15T07:35:05.278Z</time></trkpt><trkpt lat="45.7713183" lon="13.6376154"><ele>75.0</ele><time>2026-04-15T07:35:06.278Z</time></trkpt><trkpt lat="45.7713679" lon="13.6375348"><ele>75.0</ele><time>2026-04-15T07:35:07.271Z</time></trkpt><trkpt lat="45.771409" lon="13.6374617"><ele>75.0</ele><time>2026-04-15T07:35:08.269Z</time></trkpt><trkpt lat="45.7714921" lon="13.6373223"><ele>75.0</ele><time>2026-04-15T07:35:10.276Z</time></trkpt><trkpt lat="45.771548" lon="13.6372318"><ele>75.0</ele><time>2026-04-15T07:35:11.27Z</time></trkpt><trkpt lat="45.7716024" lon="13.6371359"><ele>75.0</ele><time>2026-04-15T07:35:12.274Z</time></trkpt><trkpt lat="45.7716567" lon="13.6370464"><ele>75.0</ele><time>2026-04-15T07:35:13.27Z</time></trkpt><trkpt lat="45.7717067" lon="13.6369628"><ele>75.0</ele><time>2026-04-15T07:35:14.277Z</time></trkpt><trkpt lat="45.7717589" lon="13.6368846"><ele>75.0</ele><time>2026-04-15T07:35:15.282Z</time></trkpt><trkpt lat="45.7718106" lon="13.6368103"><ele>75.0</ele><time>2026-04-15T07:35:16.272Z</time></trkpt><trkpt lat="45.7718583" lon="13.6367401"><ele>75.0</ele><time>2026-04-15T07:35:17.285Z</time></trkpt><trkpt lat="45.7719057" lon="13.6366606"><ele>74.83333333333333</ele><time>2026-04-15T07:35:18.267Z</time></trkpt><trkpt lat="45.7719576" lon="13.6365794"><ele>74.66666666666667</ele><time>2026-04-15T07:35:19.263Z</time></trkpt><trkpt lat="45.7720092" lon="13.636499"><ele>74.5</ele><time>2026-04-15T07:35:20.266Z</time></trkpt><trkpt lat="45.7720597" lon="13.6364094"><ele>74.33333333333334</ele><time>2026-04-15T07:35:21.267Z</time></trkpt><trkpt lat="45.772112" lon="13.6363178"><ele>74.16666666666667</ele><time>2026-04-15T07:35:22.269Z</time></trkpt><trkpt lat="45.772166" lon="13.6362143"><ele>74.0</ele><time>2026-04-15T07:35:23.28Z</time></trkpt><trkpt lat="45.7722147" lon="13.6361106"><ele>74.0</ele><time>2026-04-15T07:35:24.267Z</time></trkpt><trkpt lat="45.7722657" lon="13.6360009"><ele>74.0</ele><time>2026-04-15T07:35:25.265Z</time></trkpt><trkpt lat="45.7723173" lon="13.6358909"><ele>74.0</ele><time>2026-04-15T07:35:26.269Z</time></trkpt><trkpt lat="45.77237" lon="13.6357757"><ele>74.0</ele><time>2026-04-15T07:35:27.281Z</time></trkpt><trkpt lat="45.7724254" lon="13.6356556"><ele>74.0</ele><time>2026-04-15T07:35:28.272Z</time></trkpt><trkpt lat="45.7724889" lon="13.6355401"><ele>74.0</ele><time>2026-04-15T07:35:29.274Z</time></trkpt><trkpt lat="45.7725588" lon="13.6354142"><ele>74.0</ele><time>2026-04-15T07:35:30.265Z</time></trkpt><trkpt lat="45.7726383" lon="13.6352886"><ele>74.0</ele><time>2026-04-15T07:35:31.264Z</time></trkpt><trkpt lat="45.7727335" lon="13.6351725"><ele>74.0</ele><time>2026-04-15T07:35:32.266Z</time></trkpt><trkpt lat="45.7728292" lon="13.6350738"><ele>75.0</ele><time>2026-04-15T07:35:33.277Z</time></trkpt><trkpt lat="45.7729188" lon="13.6349794"><ele>76.0</ele><time>2026-04-15T07:35:34.278Z</time></trkpt><trkpt lat="45.7730104" lon="13.6348845"><ele>77.0</ele><time>2026-04-15T07:35:35.27Z</time></trkpt><trkpt lat="45.7731059" lon="13.6347851"><ele>78.0</ele><time>2026-04-15T07:35:36.289Z</time></trkpt><trkpt lat="45.7731998" lon="13.6346787"><ele>78.0</ele><time>2026-04-15T07:35:37.266Z</time></trkpt><trkpt lat="45.7732888" lon="13.6345601"><ele>78.0</ele><time>2026-04-15T07:35:38.265Z</time></trkpt><trkpt lat="45.7733757" lon="13.6344444"><ele>78.0</ele><time>2026-04-15T07:35:39.269Z</time></trkpt><trkpt lat="45.7734575" lon="13.6343392"><ele>78.0</ele><time>2026-04-15T07:35:40.269Z</time></trkpt><trkpt lat="45.7735379" lon="13.6342284"><ele>77.25</ele><time>2026-04-15T07:35:41.262Z</time></trkpt><trkpt lat="45.7736109" lon="13.6340928"><ele>76.5</ele><time>2026-04-15T07:35:42.267Z</time></trkpt><trkpt lat="45.7736666" lon="13.6339319"><ele>75.75</ele><time>2026-04-15T07:35:43.27Z</time></trkpt><trkpt lat="45.7737012" lon="13.6337398"><ele>75.0</ele><time>2026-04-15T07:35:44.269Z</time></trkpt><trkpt lat="45.7737148" lon="13.6335453"><ele>74.75</ele><time>2026-04-15T07:35:45.287Z</time></trkpt><trkpt lat="45.7737106" lon="13.6333592"><ele>74.5</ele><time>2026-04-15T07:35:46.263Z</time></trkpt><trkpt lat="45.7736855" lon="13.6331685"><ele>74.25</ele><time>2026-04-15T07:35:47.281Z</time></trkpt><trkpt lat="45.7736547" lon="13.6329697"><ele>74.0</ele><time>2026-04-15T07:35:48.267Z</time></trkpt><trkpt lat="45.7736212" lon="13.6327786"><ele>73.5</ele><time>2026-04-15T07:35:49.262Z</time></trkpt><trkpt lat="45.773592" lon="13.632593"><ele>73.0</ele><time>2026-04-15T07:35:50.264Z</time></trkpt><trkpt lat="45.7735661" lon="13.6324198"><ele>72.5</ele><time>2026-04-15T07:35:51.266Z</time></trkpt><trkpt lat="45.7735387" lon="13.6322327"><ele>72.0</ele><time>2026-04-15T07:35:52.27Z</time></trkpt><trkpt lat="45.77351" lon="13.6320443"><ele>70.75</ele><time>2026-04-15T07:35:53.27Z</time></trkpt><trkpt lat="45.7734858" lon="13.6318566"><ele>69.5</ele><time>2026-04-15T07:35:54.266Z</time></trkpt><trkpt lat="45.773459" lon="13.6316667"><ele>68.25</ele><time>2026-04-15T07:35:55.265Z</time></trkpt><trkpt lat="45.7734343" lon="13.6314802"><ele>67.0</ele><time>2026-04-15T07:35:56.271Z</time></trkpt><trkpt lat="45.7734096" lon="13.6312971"><ele>67.0</ele><time>2026-04-15T07:35:57.261Z</time></trkpt><trkpt lat="45.7733822" lon="13.6311117"><ele>67.0</ele><time>2026-04-15T07:35:58.262Z</time></trkpt><trkpt lat="45.7733562" lon="13.630928"><ele>67.0</ele><time>2026-04-15T07:35:59.283Z</time></trkpt><trkpt lat="45.7733317" lon="13.6307472"><ele>67.0</ele><time>2026-04-15T07:36:00.27Z</time></trkpt><trkpt lat="45.7733039" lon="13.630564"><ele>67.0</ele><time>2026-04-15T07:36:01.273Z</time></trkpt><trkpt lat="45.773278" lon="13.6303759"><ele>67.0</ele><time>2026-04-15T07:36:02.266Z</time></trkpt><trkpt lat="45.7732475" lon="13.6301901"><ele>67.0</ele><time>2026-04-15T07:36:03.265Z</time></trkpt><trkpt lat="45.7732218" lon="13.630006"><ele>67.0</ele><time>2026-04-15T07:36:04.26Z</time></trkpt><trkpt lat="45.7731934" lon="13.6298195"><ele>66.5</ele><time>2026-04-15T07:36:05.261Z</time></trkpt><trkpt lat="45.7731665" lon="13.6296347"><ele>66.0</ele><time>2026-04-15T07:36:06.261Z</time></trkpt><trkpt lat="45.7731386" lon="13.6294468"><ele>65.5</ele><time>2026-04-15T07:36:07.265Z</time></trkpt><trkpt lat="45.7731102" lon="13.6292554"><ele>65.0</ele><time>2026-04-15T07:36:08.265Z</time></trkpt><trkpt lat="45.7730823" lon="13.6290727"><ele>64.5</ele><time>2026-04-15T07:36:09.258Z</time></trkpt><trkpt lat="45.7730545" lon="13.6289057"><ele>64.0</ele><time>2026-04-15T07:36:10.269Z</time></trkpt><trkpt lat="45.773033" lon="13.6287405"><ele>63.5</ele><time>2026-04-15T07:36:11.268Z</time></trkpt><trkpt lat="45.773015" lon="13.6285838"><ele>63.0</ele><time>2026-04-15T07:36:12.263Z</time></trkpt><trkpt lat="45.7729931" lon="13.6284243"><ele>62.0</ele><time>2026-04-15T07:36:13.258Z</time></trkpt><trkpt lat="45.7729707" lon="13.6282494"><ele>61.0</ele><time>2026-04-15T07:36:14.261Z</time></trkpt><trkpt lat="45.7729497" lon="13.6280647"><ele>60.0</ele><time>2026-04-15T07:36:15.266Z</time></trkpt><trkpt lat="45.77292" lon="13.6278729"><ele>59.0</ele><time>2026-04-15T07:36:16.26Z</time></trkpt><trkpt lat="45.7728877" lon="13.6276838"><ele>58.5</ele><time>2026-04-15T07:36:17.264Z</time></trkpt><trkpt lat="45.7728592" lon="13.6274969"><ele>58.0</ele><time>2026-04-15T07:36:18.27Z</time></trkpt><trkpt lat="45.7728382" lon="13.6273043"><ele>57.5</ele><time>2026-04-15T07:36:19.263Z</time></trkpt><trkpt lat="45.7728251" lon="13.62711"><ele>57.0</ele><time>2026-04-15T07:36:20.269Z</time></trkpt><trkpt lat="45.7728156" lon="13.6269019"><ele>57.0</ele><time>2026-04-15T07:36:21.271Z</time></trkpt><trkpt lat="45.7728128" lon="13.6266924"><ele>57.0</ele><time>2026-04-15T07:36:22.258Z</time></trkpt><trkpt lat="45.7728191" lon="13.6264641"><ele>57.0</ele><time>2026-04-15T07:36:23.275Z</time></trkpt><trkpt lat="45.7728309" lon="13.6262542"><ele>58.0</ele><time>2026-04-15T07:36:24.262Z</time></trkpt><trkpt lat="45.7728494" lon="13.6260501"><ele>59.0</ele><time>2026-04-15T07:36:25.264Z</time></trkpt><trkpt lat="45.7728645" lon="13.6258426"><ele>60.0</ele><time>2026-04-15T07:36:26.26Z</time></trkpt><trkpt lat="45.7728786" lon="13.6256487"><ele>61.0</ele><time>2026-04-15T07:36:27.265Z</time></trkpt><trkpt lat="45.7728956" lon="13.6254724"><ele>61.33333333333333</ele><time>2026-04-15T07:36:28.258Z</time></trkpt><trkpt lat="45.7729209" lon="13.6252717"><ele>61.66666666666667</ele><time>2026-04-15T07:36:29.262Z</time></trkpt><trkpt lat="45.7729457" lon="13.6250267"><ele>62.0</ele><time>2026-04-15T07:36:30.26Z</time></trkpt><trkpt lat="45.7729827" lon="13.6247414"><ele>62.0</ele><time>2026-04-15T07:36:31.259Z</time></trkpt><trkpt lat="45.7730338" lon="13.6244668"><ele>62.0</ele><time>2026-04-15T07:36:32.257Z</time></trkpt><trkpt lat="45.7730638" lon="13.6241989"><ele>62.0</ele><time>2026-04-15T07:36:33.272Z</time></trkpt><trkpt lat="45.7730885" lon="13.6239535"><ele>62.0</ele><time>2026-04-15T07:36:34.258Z</time></trkpt><trkpt lat="45.7731102" lon="13.6237052"><ele>62.0</ele><time>2026-04-15T07:36:35.265Z</time></trkpt><trkpt lat="45.7731203" lon="13.6234219"><ele>62.0</ele><time>2026-04-15T07:36:36.26Z</time></trkpt><trkpt lat="45.7731379" lon="13.6231189"><ele>61.66666666666667</ele><time>2026-04-15T07:36:37.265Z</time></trkpt><trkpt lat="45.7731731" lon="13.6228228"><ele>61.33333333333333</ele><time>2026-04-15T07:36:38.279Z</time></trkpt><trkpt lat="45.7732062" lon="13.6225317"><ele>61.0</ele><time>2026-04-15T07:36:39.273Z</time></trkpt><trkpt lat="45.7732335" lon="13.6222309"><ele>61.0</ele><time>2026-04-15T07:36:40.256Z</time></trkpt><trkpt lat="45.7732653" lon="13.621925"><ele>61.0</ele><time>2026-04-15T07:36:41.265Z</time></trkpt><trkpt lat="45.7733027" lon="13.6216185"><ele>61.0</ele><time>2026-04-15T07:36:42.253Z</time></trkpt><trkpt lat="45.7733382" lon="13.6213096"><ele>61.0</ele><time>2026-04-15T07:36:43.284Z</time></trkpt><trkpt lat="45.7733621" lon="13.6209942"><ele>61.0</ele><time>2026-04-15T07:36:44.266Z</time></trkpt><trkpt lat="45.7733823" lon="13.6206776"><ele>61.0</ele><time>2026-04-15T07:36:45.257Z</time></trkpt><trkpt lat="45.7734039" lon="13.6203518"><ele>61.5</ele><time>2026-04-15T07:36:46.265Z</time></trkpt><trkpt lat="45.7734295" lon="13.6200277"><ele>62.0</ele><time>2026-04-15T07:36:47.262Z</time></trkpt><trkpt lat="45.7734558" lon="13.6197"><ele>60.333333333333336</ele><time>2026-04-15T07:36:48.269Z</time></trkpt><trkpt lat="45.7734827" lon="13.6193803"><ele>58.66666666666667</ele><time>2026-04-15T07:36:49.252Z</time></trkpt><trkpt lat="45.7735048" lon="13.6190639"><ele>57.0</ele><time>2026-04-15T07:36:50.266Z</time></trkpt><trkpt lat="45.7735235" lon="13.6187515"><ele>56.33333333333333</ele><time>2026-04-15T07:36:51.252Z</time></trkpt><trkpt lat="45.7735425" lon="13.6184494"><ele>55.666666666666664</ele><time>2026-04-15T07:36:52.265Z</time></trkpt><trkpt lat="45.7735604" lon="13.6181497"><ele>55.0</ele><time>2026-04-15T07:36:53.258Z</time></trkpt><trkpt lat="45.7735781" lon="13.6178572"><ele>55.666666666666664</ele><time>2026-04-15T07:36:54.256Z</time></trkpt><trkpt lat="45.7735965" lon="13.6175822"><ele>56.33333333333333</ele><time>2026-04-15T07:36:55.265Z</time></trkpt><trkpt lat="45.7736208" lon="13.6173135"><ele>57.0</ele><time>2026-04-15T07:36:56.268Z</time></trkpt><trkpt lat="45.7736581" lon="13.6170339"><ele>58.0</ele><time>2026-04-15T07:36:57.252Z</time></trkpt><trkpt lat="45.7737423" lon="13.6167636"><ele>59.0</ele><time>2026-04-15T07:36:58.255Z</time></trkpt><trkpt lat="45.773858" lon="13.6165069"><ele>60.0</ele><time>2026-04-15T07:36:59.255Z</time></trkpt><trkpt lat="45.7739657" lon="13.6162424"><ele>60.66666666666667</ele><time>2026-04-15T07:37:00.257Z</time></trkpt><trkpt lat="45.7740724" lon="13.6159757"><ele>61.333333333333336</ele><time>2026-04-15T07:37:01.262Z</time></trkpt><trkpt lat="45.7741783" lon="13.6157129"><ele>62.0</ele><time>2026-04-15T07:37:02.256Z</time></trkpt><trkpt lat="45.7742817" lon="13.6154434"><ele>61.333333333333336</ele><time>2026-04-15T07:37:03.254Z</time></trkpt><trkpt lat="45.7743781" lon="13.6151685"><ele>60.66666666666667</ele><time>2026-04-15T07:37:04.26Z</time></trkpt><trkpt lat="45.7744725" lon="13.614897"><ele>60.0</ele><time>2026-04-15T07:37:05.259Z</time></trkpt><trkpt lat="45.7745612" lon="13.614625"><ele>60.0</ele><time>2026-04-15T07:37:06.256Z</time></trkpt><trkpt lat="45.7746296" lon="13.6143559"><ele>60.0</ele><time>2026-04-15T07:37:07.262Z</time></trkpt><trkpt lat="45.7746835" lon="13.6140808"><ele>60.0</ele><time>2026-04-15T07:37:08.25Z</time></trkpt><trkpt lat="45.7747148" lon="13.613806"><ele>59.33333333333333</ele><time>2026-04-15T07:37:09.257Z</time></trkpt><trkpt lat="45.7747335" lon="13.6135375"><ele>58.666666666666664</ele><time>2026-04-15T07:37:10.255Z</time></trkpt><trkpt lat="45.7747476" lon="13.6132639"><ele>58.0</ele><time>2026-04-15T07:37:11.251Z</time></trkpt><trkpt lat="45.7747675" lon="13.612991"><ele>57.666666666666664</ele><time>2026-04-15T07:37:12.265Z</time></trkpt><trkpt lat="45.7747925" lon="13.6127323"><ele>57.33333333333333</ele><time>2026-04-15T07:37:13.26Z</time></trkpt><trkpt lat="45.7748168" lon="13.6124677"><ele>57.0</ele><time>2026-04-15T07:37:14.257Z</time></trkpt><trkpt lat="45.774836" lon="13.6121983"><ele>56.66666666666667</ele><time>2026-04-15T07:37:15.256Z</time></trkpt><trkpt lat="45.7748545" lon="13.6119356"><ele>56.333333333333336</ele><time>2026-04-15T07:37:16.252Z</time></trkpt><trkpt lat="45.7748667" lon="13.6116731"><ele>56.0</ele><time>2026-04-15T07:37:17.264Z</time></trkpt><trkpt lat="45.7748672" lon="13.6114097"><ele>56.333333333333336</ele><time>2026-04-15T07:37:18.264Z</time></trkpt><trkpt lat="45.7748402" lon="13.6111543"><ele>56.66666666666667</ele><time>2026-04-15T07:37:19.253Z</time></trkpt><trkpt lat="45.7747964" lon="13.6109036"><ele>57.0</ele><time>2026-04-15T07:37:20.258Z</time></trkpt><trkpt lat="45.7747479" lon="13.6106446"><ele>57.0</ele><time>2026-04-15T07:37:21.263Z</time></trkpt><trkpt lat="45.7747005" lon="13.6103928"><ele>57.0</ele><time>2026-04-15T07:37:22.272Z</time></trkpt><trkpt lat="45.7746612" lon="13.6101561"><ele>57.0</ele><time>2026-04-15T07:37:23.25Z</time></trkpt><trkpt lat="45.7746245" lon="13.6099375"><ele>55.75</ele><time>2026-04-15T07:37:24.258Z</time></trkpt><trkpt lat="45.7745899" lon="13.609739"><ele>54.5</ele><time>2026-04-15T07:37:25.249Z</time></trkpt><trkpt lat="45.7745529" lon="13.6095637"><ele>53.25</ele><time>2026-04-15T07:37:26.252Z</time></trkpt><trkpt lat="45.7745088" lon="13.6093925"><ele>52.0</ele><time>2026-04-15T07:37:27.271Z</time></trkpt><trkpt lat="45.7744486" lon="13.6092188"><ele>51.75</ele><time>2026-04-15T07:37:28.249Z</time></trkpt><trkpt lat="45.7743807" lon="13.6090415"><ele>51.5</ele><time>2026-04-15T07:37:29.262Z</time></trkpt><trkpt lat="45.7743045" lon="13.6088745"><ele>51.25</ele><time>2026-04-15T07:37:30.257Z</time></trkpt><trkpt lat="45.7742191" lon="13.6087275"><ele>51.0</ele><time>2026-04-15T07:37:31.251Z</time></trkpt><trkpt lat="45.7741297" lon="13.608597"><ele>51.0</ele><time>2026-04-15T07:37:32.257Z</time></trkpt><trkpt lat="45.7740389" lon="13.6084759"><ele>51.0</ele><time>2026-04-15T07:37:33.26Z</time></trkpt><trkpt lat="45.7739423" lon="13.6083438"><ele>51.0</ele><time>2026-04-15T07:37:34.259Z</time></trkpt><trkpt lat="45.7738452" lon="13.6082088"><ele>51.0</ele><time>2026-04-15T07:37:35.267Z</time></trkpt><trkpt lat="45.7737499" lon="13.6080709"><ele>51.0</ele><time>2026-04-15T07:37:36.253Z</time></trkpt><trkpt lat="45.7736541" lon="13.6079358"><ele>51.0</ele><time>2026-04-15T07:37:37.249Z</time></trkpt><trkpt lat="45.7735552" lon="13.6077968"><ele>51.0</ele><time>2026-04-15T07:37:38.25Z</time></trkpt><trkpt lat="45.7734599" lon="13.6076516"><ele>51.0</ele><time>2026-04-15T07:37:39.249Z</time></trkpt><trkpt lat="45.7733666" lon="13.6074985"><ele>50.5</ele><time>2026-04-15T07:37:40.266Z</time></trkpt><trkpt lat="45.7732996" lon="13.6073254"><ele>50.0</ele><time>2026-04-15T07:37:41.26Z</time></trkpt><trkpt lat="45.7732556" lon="13.6071432"><ele>49.5</ele><time>2026-04-15T07:37:42.25Z</time></trkpt><trkpt lat="45.7732267" lon="13.6069651"><ele>49.0</ele><time>2026-04-15T07:37:43.255Z</time></trkpt><trkpt lat="45.7732106" lon="13.6067895"><ele>48.5</ele><time>2026-04-15T07:37:44.267Z</time></trkpt><trkpt lat="45.7732087" lon="13.6066105"><ele>48.0</ele><time>2026-04-15T07:37:45.252Z</time></trkpt><trkpt lat="45.7732172" lon="13.6064307"><ele>47.5</ele><time>2026-04-15T07:37:46.246Z</time></trkpt><trkpt lat="45.773228" lon="13.6062517"><ele>47.0</ele><time>2026-04-15T07:37:47.269Z</time></trkpt><trkpt lat="45.7732341" lon="13.6060772"><ele>45.75</ele><time>2026-04-15T07:37:48.258Z</time></trkpt><trkpt lat="45.773237" lon="13.6058983"><ele>44.5</ele><time>2026-04-15T07:37:49.265Z</time></trkpt><trkpt lat="45.7732405" lon="13.6057214"><ele>43.25</ele><time>2026-04-15T07:37:50.259Z</time></trkpt><trkpt lat="45.7732493" lon="13.6055471"><ele>42.0</ele><time>2026-04-15T07:37:51.25Z</time></trkpt><trkpt lat="45.7732721" lon="13.6053786"><ele>42.5</ele><time>2026-04-15T07:37:52.257Z</time></trkpt><trkpt lat="45.773298" lon="13.6052088"><ele>43.0</ele><time>2026-04-15T07:37:53.25Z</time></trkpt><trkpt lat="45.7733225" lon="13.6050341"><ele>43.5</ele><time>2026-04-15T07:37:54.244Z</time></trkpt><trkpt lat="45.7733518" lon="13.604867"><ele>44.0</ele><time>2026-04-15T07:37:55.243Z</time></trkpt><trkpt lat="45.7733796" lon="13.6047028"><ele>44.0</ele><time>2026-04-15T07:37:56.248Z</time></trkpt><trkpt lat="45.7734014" lon="13.6045748"><ele>44.0</ele><time>2026-04-15T07:37:57.243Z</time></trkpt><trkpt lat="45.7734109" lon="13.6044742"><ele>44.0</ele><time>2026-04-15T07:37:58.246Z</time></trkpt><trkpt lat="45.7734004" lon="13.6043339"><ele>44.0</ele><time>2026-04-15T07:38:00.249Z</time></trkpt><trkpt lat="45.7733897" lon="13.604195"><ele>44.0</ele><time>2026-04-15T07:38:02.247Z</time></trkpt><trkpt lat="45.7734579" lon="13.6040354"><ele>42.800000000000004</ele><time>2026-04-15T07:38:04.254Z</time></trkpt><trkpt lat="45.7735311" lon="13.6039659"><ele>41.6</ele><time>2026-04-15T07:38:05.244Z</time></trkpt><trkpt lat="45.7736042" lon="13.6038731"><ele>40.4</ele><time>2026-04-15T07:38:06.252Z</time></trkpt><trkpt lat="45.7736811" lon="13.6037393"><ele>39.2</ele><time>2026-04-15T07:38:07.238Z</time></trkpt><trkpt lat="45.7737686" lon="13.6035937"><ele>38.0</ele><time>2026-04-15T07:38:08.257Z</time></trkpt><trkpt lat="45.7738543" lon="13.6034416"><ele>37.25</ele><time>2026-04-15T07:38:09.244Z</time></trkpt><trkpt lat="45.7739506" lon="13.6032843"><ele>36.5</ele><time>2026-04-15T07:38:10.247Z</time></trkpt><trkpt lat="45.7740424" lon="13.6031237"><ele>35.75</ele><time>2026-04-15T07:38:11.245Z</time></trkpt><trkpt lat="45.7741275" lon="13.6029636"><ele>35.0</ele><time>2026-04-15T07:38:12.243Z</time></trkpt><trkpt lat="45.7742111" lon="13.6027977"><ele>34.0</ele><time>2026-04-15T07:38:13.248Z</time></trkpt><trkpt lat="45.7742852" lon="13.6026259"><ele>33.0</ele><time>2026-04-15T07:38:14.354Z</time></trkpt><trkpt lat="45.7744119" lon="13.6022608"><ele>32.0</ele><time>2026-04-15T07:38:16.242Z</time></trkpt><trkpt lat="45.7744748" lon="13.6020795"><ele>31.0</ele><time>2026-04-15T07:38:17.245Z</time></trkpt><trkpt lat="45.774538" lon="13.6019011"><ele>30.0</ele><time>2026-04-15T07:38:18.245Z</time></trkpt><trkpt lat="45.7746062" lon="13.6017197"><ele>29.0</ele><time>2026-04-15T07:38:19.242Z</time></trkpt><trkpt lat="45.7746694" lon="13.6015463"><ele>28.0</ele><time>2026-04-15T07:38:20.245Z</time></trkpt><trkpt lat="45.7747265" lon="13.6013738"><ele>28.0</ele><time>2026-04-15T07:38:21.349Z</time></trkpt><trkpt lat="45.7747851" lon="13.6012057"><ele>28.0</ele><time>2026-04-15T07:38:22.348Z</time></trkpt><trkpt lat="45.7748443" lon="13.6010374"><ele>28.0</ele><time>2026-04-15T07:38:23.345Z</time></trkpt><trkpt lat="45.7749546" lon="13.6007208"><ele>28.0</ele><time>2026-04-15T07:38:25.244Z</time></trkpt><trkpt lat="45.7750079" lon="13.6005771"><ele>28.0</ele><time>2026-04-15T07:38:26.24Z</time></trkpt><trkpt lat="45.7750607" lon="13.6004295"><ele>28.0</ele><time>2026-04-15T07:38:27.247Z</time></trkpt><trkpt lat="45.7751175" lon="13.6002875"><ele>28.0</ele><time>2026-04-15T07:38:28.348Z</time></trkpt><trkpt lat="45.775181" lon="13.6001613"><ele>28.5</ele><time>2026-04-15T07:38:29.347Z</time></trkpt><trkpt lat="45.7752613" lon="13.6000637"><ele>29.0</ele><time>2026-04-15T07:38:30.346Z</time></trkpt><trkpt lat="45.7753613" lon="13.5999888"><ele>29.5</ele><time>2026-04-15T07:38:31.253Z</time></trkpt><trkpt lat="45.7754734" lon="13.5999445"><ele>30.0</ele><time>2026-04-15T07:38:32.242Z</time></trkpt><trkpt lat="45.7755907" lon="13.5999341"><ele>30.0</ele><time>2026-04-15T07:38:33.355Z</time></trkpt><trkpt lat="45.7757092" lon="13.5999655"><ele>30.0</ele><time>2026-04-15T07:38:34.344Z</time></trkpt><trkpt lat="45.7758413" lon="13.6000181"><ele>30.0</ele><time>2026-04-15T07:38:35.35Z</time></trkpt><trkpt lat="45.775996" lon="13.6001028"><ele>30.0</ele><time>2026-04-15T07:38:36.349Z</time></trkpt><trkpt lat="45.7761582" lon="13.6001802"><ele>31.0</ele><time>2026-04-15T07:38:37.345Z</time></trkpt><trkpt lat="45.7764347" lon="13.6003145"><ele>32.0</ele><time>2026-04-15T07:38:39.281Z</time></trkpt><trkpt lat="45.7765604" lon="13.6003709"><ele>33.0</ele><time>2026-04-15T07:38:40.348Z</time></trkpt><trkpt lat="45.776678" lon="13.6004355"><ele>33.0</ele><time>2026-04-15T07:38:41.342Z</time></trkpt><trkpt lat="45.7767885" lon="13.6005077"><ele>33.0</ele><time>2026-04-15T07:38:42.367Z</time></trkpt><trkpt lat="45.7768964" lon="13.6005926"><ele>33.0</ele><time>2026-04-15T07:38:43.359Z</time></trkpt><trkpt lat="45.7769888" lon="13.6006788"><ele>33.0</ele><time>2026-04-15T07:38:44.36Z</time></trkpt><trkpt lat="45.777101" lon="13.6008151"><ele>35.0</ele><time>2026-04-15T07:38:46.348Z</time></trkpt><trkpt lat="45.7771939" lon="13.6007949"><ele>37.0</ele><time>2026-04-15T07:38:51.345Z</time></trkpt><trkpt lat="45.7774213" lon="13.6005374"><ele>39.0</ele><time>2026-04-15T07:38:53.358Z</time></trkpt><trkpt lat="45.777569" lon="13.6003515"><ele>39.0</ele><time>2026-04-15T07:38:54.34Z</time></trkpt><trkpt lat="45.7777405" lon="13.6001582"><ele>39.0</ele><time>2026-04-15T07:38:55.34Z</time></trkpt><trkpt lat="45.7779173" lon="13.5999526"><ele>39.0</ele><time>2026-04-15T07:38:56.346Z</time></trkpt><trkpt lat="45.7781064" lon="13.5997403"><ele>39.0</ele><time>2026-04-15T07:38:57.341Z</time></trkpt><trkpt lat="45.7782933" lon="13.5995357"><ele>39.0</ele><time>2026-04-15T07:38:58.344Z</time></trkpt><trkpt lat="45.7784686" lon="13.5993377"><ele>37.333333333333336</ele><time>2026-04-15T07:38:59.336Z</time></trkpt><trkpt lat="45.7786301" lon="13.5991549"><ele>35.66666666666667</ele><time>2026-04-15T07:39:00.341Z</time></trkpt><trkpt lat="45.7787836" lon="13.5989793"><ele>34.0</ele><time>2026-04-15T07:39:01.348Z</time></trkpt><trkpt lat="45.7789316" lon="13.5988041"><ele>33.66666666666667</ele><time>2026-04-15T07:39:02.342Z</time></trkpt><trkpt lat="45.7790766" lon="13.5986413"><ele>33.333333333333336</ele><time>2026-04-15T07:39:03.337Z</time></trkpt><trkpt lat="45.7792141" lon="13.598478"><ele>33.0</ele><time>2026-04-15T07:39:04.343Z</time></trkpt><trkpt lat="45.7794775" lon="13.5981504"><ele>33.0</ele><time>2026-04-15T07:39:06.334Z</time></trkpt><trkpt lat="45.7795975" lon="13.5979953"><ele>33.0</ele><time>2026-04-15T07:39:07.344Z</time></trkpt><trkpt lat="45.779714" lon="13.5978535"><ele>33.0</ele><time>2026-04-15T07:39:08.349Z</time></trkpt><trkpt lat="45.7798251" lon="13.5977265"><ele>32.75</ele><time>2026-04-15T07:39:09.348Z</time></trkpt><trkpt lat="45.7799303" lon="13.5976148"><ele>32.5</ele><time>2026-04-15T07:39:10.339Z</time></trkpt><trkpt lat="45.78003" lon="13.5975071"><ele>32.25</ele><time>2026-04-15T07:39:11.352Z</time></trkpt><trkpt lat="45.7801326" lon="13.5974055"><ele>32.0</ele><time>2026-04-15T07:39:12.333Z</time></trkpt><trkpt lat="45.7802472" lon="13.5973056"><ele>32.0</ele><time>2026-04-15T07:39:13.345Z</time></trkpt><trkpt lat="45.7803756" lon="13.5972104"><ele>32.0</ele><time>2026-04-15T07:39:14.333Z</time></trkpt><trkpt lat="45.7805174" lon="13.5971201"><ele>32.0</ele><time>2026-04-15T07:39:15.337Z</time></trkpt><trkpt lat="45.7806725" lon="13.5970518"><ele>32.0</ele><time>2026-04-15T07:39:16.336Z</time></trkpt><trkpt lat="45.7808435" lon="13.5970207"><ele>32.0</ele><time>2026-04-15T07:39:17.34Z</time></trkpt><trkpt lat="45.7810239" lon="13.5970119"><ele>32.0</ele><time>2026-04-15T07:39:18.347Z</time></trkpt><trkpt lat="45.7812245" lon="13.5969893"><ele>27.0</ele><time>2026-04-15T07:39:19.339Z</time></trkpt><trkpt lat="45.7814637" lon="13.5969737"><ele>22.0</ele><time>2026-04-15T07:39:20.342Z</time></trkpt><trkpt lat="45.7817323" lon="13.596964"><ele>21.5</ele><time>2026-04-15T07:39:21.34Z</time></trkpt><trkpt lat="45.7820057" lon="13.5969612"><ele>21.0</ele><time>2026-04-15T07:39:22.335Z</time></trkpt><trkpt lat="45.7822748" lon="13.5969625"><ele>21.0</ele><time>2026-04-15T07:39:23.344Z</time></trkpt><trkpt lat="45.7825376" lon="13.5969662"><ele>21.0</ele><time>2026-04-15T07:39:24.341Z</time></trkpt><trkpt lat="45.7827874" lon="13.5969637"><ele>22.0</ele><time>2026-04-15T07:39:25.332Z</time></trkpt><trkpt lat="45.7830242" lon="13.5969511"><ele>23.0</ele><time>2026-04-15T07:39:26.338Z</time></trkpt><trkpt lat="45.7832569" lon="13.5969263"><ele>23.0</ele><time>2026-04-15T07:39:27.342Z</time></trkpt><trkpt lat="45.7834873" lon="13.5968521"><ele>23.0</ele><time>2026-04-15T07:39:28.339Z</time></trkpt><trkpt lat="45.7837059" lon="13.5967513"><ele>23.0</ele><time>2026-04-15T07:39:29.344Z</time></trkpt><trkpt lat="45.7839114" lon="13.5965926"><ele>23.0</ele><time>2026-04-15T07:39:30.343Z</time></trkpt><trkpt lat="45.7840962" lon="13.5964098"><ele>23.0</ele><time>2026-04-15T07:39:31.335Z</time></trkpt><trkpt lat="45.7842655" lon="13.5961799"><ele>23.0</ele><time>2026-04-15T07:39:32.339Z</time></trkpt><trkpt lat="45.7844132" lon="13.5959095"><ele>23.5</ele><time>2026-04-15T07:39:33.388Z</time></trkpt><trkpt lat="45.7845329" lon="13.595594"><ele>24.0</ele><time>2026-04-15T07:39:34.335Z</time></trkpt><trkpt lat="45.7846407" lon="13.5952849"><ele>22.5</ele><time>2026-04-15T07:39:35.35Z</time></trkpt><trkpt lat="45.7847487" lon="13.5949743"><ele>21.0</ele><time>2026-04-15T07:39:36.336Z</time></trkpt><trkpt lat="45.7848639" lon="13.5946891"><ele>20.333333333333332</ele><time>2026-04-15T07:39:37.36Z</time></trkpt><trkpt lat="45.7849781" lon="13.594456"><ele>19.666666666666664</ele><time>2026-04-15T07:39:38.334Z</time></trkpt><trkpt lat="45.7850927" lon="13.594269"><ele>19.0</ele><time>2026-04-15T07:39:39.333Z</time></trkpt><trkpt lat="45.7855787" lon="13.5938735"><ele>19.0</ele><time>2026-04-15T07:39:42.342Z</time></trkpt><trkpt lat="45.7857979" lon="13.5938539"><ele>19.0</ele><time>2026-04-15T07:39:43.337Z</time></trkpt><trkpt lat="45.7860111" lon="13.5938354"><ele>19.0</ele><time>2026-04-15T07:39:44.33Z</time></trkpt><trkpt lat="45.7862226" lon="13.5937805"><ele>19.333333333333332</ele><time>2026-04-15T07:39:45.349Z</time></trkpt><trkpt lat="45.7864285" lon="13.5936727"><ele>19.666666666666668</ele><time>2026-04-15T07:39:46.331Z</time></trkpt><trkpt lat="45.7866123" lon="13.5935071"><ele>20.0</ele><time>2026-04-15T07:39:47.345Z</time></trkpt><trkpt lat="45.7867846" lon="13.5933303"><ele>18.666666666666668</ele><time>2026-04-15T07:39:48.335Z</time></trkpt><trkpt lat="45.7869369" lon="13.5931575"><ele>17.333333333333332</ele><time>2026-04-15T07:39:49.336Z</time></trkpt><trkpt lat="45.7870765" lon="13.5929874"><ele>16.0</ele><time>2026-04-15T07:39:50.336Z</time></trkpt><trkpt lat="45.7872106" lon="13.5928175"><ele>13.666666666666666</ele><time>2026-04-15T07:39:51.336Z</time></trkpt><trkpt lat="45.7873433" lon="13.5926589"><ele>11.333333333333332</ele><time>2026-04-15T07:39:52.341Z</time></trkpt><trkpt lat="45.7874728" lon="13.5925013"><ele>9.0</ele><time>2026-04-15T07:39:53.333Z</time></trkpt><trkpt lat="45.7875939" lon="13.5923401"><ele>8.0</ele><time>2026-04-15T07:39:54.347Z</time></trkpt><trkpt lat="45.7877191" lon="13.5921934"><ele>7.0</ele><time>2026-04-15T07:39:55.341Z</time></trkpt><trkpt lat="45.7878446" lon="13.5920431"><ele>6.0</ele><time>2026-04-15T07:39:56.342Z</time></trkpt><trkpt lat="45.7879748" lon="13.5918915"><ele>6.0</ele><time>2026-04-15T07:39:57.331Z</time></trkpt><trkpt lat="45.7881003" lon="13.5917356"><ele>6.0</ele><time>2026-04-15T07:39:58.34Z</time></trkpt><trkpt lat="45.7882282" lon="13.5915819"><ele>6.0</ele><time>2026-04-15T07:39:59.335Z</time></trkpt><trkpt lat="45.7883572" lon="13.5914209"><ele>6.0</ele><time>2026-04-15T07:40:00.333Z</time></trkpt><trkpt lat="45.7884835" lon="13.5912508"><ele>6.0</ele><time>2026-04-15T07:40:01.332Z</time></trkpt><trkpt lat="45.7886092" lon="13.5910741"><ele>6.0</ele><time>2026-04-15T07:40:02.335Z</time></trkpt><trkpt lat="45.788737" lon="13.5908946"><ele>7.666666666666666</ele><time>2026-04-15T07:40:03.343Z</time></trkpt><trkpt lat="45.7888635" lon="13.5907132"><ele>9.333333333333332</ele><time>2026-04-15T07:40:04.326Z</time></trkpt><trkpt lat="45.7889939" lon="13.5905345"><ele>11.0</ele><time>2026-04-15T07:40:05.335Z</time></trkpt><trkpt lat="45.7891275" lon="13.5903451"><ele>11.666666666666666</ele><time>2026-04-15T07:40:06.333Z</time></trkpt><trkpt lat="45.7892636" lon="13.5901536"><ele>12.333333333333332</ele><time>2026-04-15T07:40:07.336Z</time></trkpt><trkpt lat="45.789403" lon="13.5899565"><ele>13.0</ele><time>2026-04-15T07:40:08.338Z</time></trkpt><trkpt lat="45.7895421" lon="13.5897493"><ele>13.0</ele><time>2026-04-15T07:40:09.333Z</time></trkpt><trkpt lat="45.789682" lon="13.5895427"><ele>13.0</ele><time>2026-04-15T07:40:10.353Z</time></trkpt><trkpt lat="45.7898274" lon="13.5893277"><ele>13.0</ele><time>2026-04-15T07:40:11.334Z</time></trkpt><trkpt lat="45.7899744" lon="13.5891183"><ele>12.0</ele><time>2026-04-15T07:40:12.331Z</time></trkpt><trkpt lat="45.7901209" lon="13.5888985"><ele>11.0</ele><time>2026-04-15T07:40:13.339Z</time></trkpt><trkpt lat="45.7902688" lon="13.5886667"><ele>10.0</ele><time>2026-04-15T07:40:14.336Z</time></trkpt><trkpt lat="45.790419" lon="13.5884319"><ele>7.0</ele><time>2026-04-15T07:40:15.326Z</time></trkpt><trkpt lat="45.79057" lon="13.5881942"><ele>4.0</ele><time>2026-04-15T07:40:16.333Z</time></trkpt><trkpt lat="45.7907246" lon="13.5879543"><ele>3.333333333333333</ele><time>2026-04-15T07:40:17.329Z</time></trkpt><trkpt lat="45.7908769" lon="13.5877338"><ele>2.6666666666666665</ele><time>2026-04-15T07:40:18.326Z</time></trkpt><trkpt lat="45.7910273" lon="13.5874986"><ele>2.0</ele><time>2026-04-15T07:40:19.336Z</time></trkpt><trkpt lat="45.7911777" lon="13.5872621"><ele>3.333333333333333</ele><time>2026-04-15T07:40:20.334Z</time></trkpt><trkpt lat="45.7913383" lon="13.5870548"><ele>4.666666666666667</ele><time>2026-04-15T07:40:21.332Z</time></trkpt><trkpt lat="45.7914873" lon="13.5868484"><ele>6.0</ele><time>2026-04-15T07:40:22.335Z</time></trkpt><trkpt lat="45.7916374" lon="13.5866583"><ele>6.0</ele><time>2026-04-15T07:40:23.326Z</time></trkpt><trkpt lat="45.7917925" lon="13.5864808"><ele>6.0</ele><time>2026-04-15T07:40:24.331Z</time></trkpt><trkpt lat="45.7919495" lon="13.5863065"><ele>6.0</ele><time>2026-04-15T07:40:25.34Z</time></trkpt><trkpt lat="45.7921019" lon="13.5861329"><ele>6.333333333333334</ele><time>2026-04-15T07:40:26.328Z</time></trkpt><trkpt lat="45.7922602" lon="13.5859675"><ele>6.666666666666667</ele><time>2026-04-15T07:40:27.326Z</time></trkpt><trkpt lat="45.792419" lon="13.585802"><ele>7.0</ele><time>2026-04-15T07:40:28.342Z</time></trkpt><trkpt lat="45.7925782" lon="13.5856412"><ele>6.666666666666667</ele><time>2026-04-15T07:40:29.329Z</time></trkpt><trkpt lat="45.7927404" lon="13.5854834"><ele>6.333333333333334</ele><time>2026-04-15T07:40:30.33Z</time></trkpt><trkpt lat="45.7929047" lon="13.5853226"><ele>6.0</ele><time>2026-04-15T07:40:31.347Z</time></trkpt><trkpt lat="45.7930644" lon="13.5851603"><ele>6.0</ele><time>2026-04-15T07:40:32.343Z</time></trkpt><trkpt lat="45.7932273" lon="13.5849963"><ele>6.0</ele><time>2026-04-15T07:40:33.329Z</time></trkpt><trkpt lat="45.7933906" lon="13.5848298"><ele>6.0</ele><time>2026-04-15T07:40:34.335Z</time></trkpt><trkpt lat="45.7935561" lon="13.5846602"><ele>6.0</ele><time>2026-04-15T07:40:35.335Z</time></trkpt><trkpt lat="45.7938964" lon="13.5843235"><ele>6.0</ele><time>2026-04-15T07:40:37.331Z</time></trkpt><trkpt lat="45.7940708" lon="13.5841439"><ele>6.0</ele><time>2026-04-15T07:40:38.323Z</time></trkpt><trkpt lat="45.7942419" lon="13.5839704"><ele>6.0</ele><time>2026-04-15T07:40:39.325Z</time></trkpt><trkpt lat="45.7944157" lon="13.5837984"><ele>6.0</ele><time>2026-04-15T07:40:40.33Z</time></trkpt><trkpt lat="45.7945866" lon="13.5836288"><ele>6.0</ele><time>2026-04-15T07:40:41.332Z</time></trkpt><trkpt lat="45.7947535" lon="13.5834614"><ele>6.0</ele><time>2026-04-15T07:40:42.335Z</time></trkpt><trkpt lat="45.7949242" lon="13.5832913"><ele>6.0</ele><time>2026-04-15T07:40:43.336Z</time></trkpt><trkpt lat="45.7950876" lon="13.5831172"><ele>4.333333333333333</ele><time>2026-04-15T07:40:44.32Z</time></trkpt><trkpt lat="45.7952527" lon="13.5829478"><ele>2.6666666666666665</ele><time>2026-04-15T07:40:45.324Z</time></trkpt><trkpt lat="45.7954174" lon="13.5827759"><ele>1.0</ele><time>2026-04-15T07:40:46.319Z</time></trkpt><trkpt lat="45.7955835" lon="13.5826151"><ele>1.0</ele><time>2026-04-15T07:40:47.327Z</time></trkpt><trkpt lat="45.7957475" lon="13.5824515"><ele>1.0</ele><time>2026-04-15T07:40:48.335Z</time></trkpt><trkpt lat="45.7959145" lon="13.5822861"><ele>1.0</ele><time>2026-04-15T07:40:49.337Z</time></trkpt><trkpt lat="45.7960835" lon="13.582116"><ele>1.5</ele><time>2026-04-15T07:40:50.325Z</time></trkpt><trkpt lat="45.7962492" lon="13.5819404"><ele>2.0</ele><time>2026-04-15T07:40:51.322Z</time></trkpt><trkpt lat="45.7965729" lon="13.5815995"><ele>2.0</ele><time>2026-04-15T07:40:53.323Z</time></trkpt><trkpt lat="45.7967341" lon="13.5814353"><ele>2.0</ele><time>2026-04-15T07:40:54.326Z</time></trkpt><trkpt lat="45.796891" lon="13.5812726"><ele>2.0</ele><time>2026-04-15T07:40:55.324Z</time></trkpt><trkpt lat="45.7970441" lon="13.5811116"><ele>4.0</ele><time>2026-04-15T07:40:56.334Z</time></trkpt><trkpt lat="45.7971926" lon="13.5809356"><ele>6.0</ele><time>2026-04-15T07:40:57.325Z</time></trkpt><trkpt lat="45.797334" lon="13.5807503"><ele>8.0</ele><time>2026-04-15T07:40:58.331Z</time></trkpt><trkpt lat="45.7974659" lon="13.5805631"><ele>8.0</ele><time>2026-04-15T07:40:59.32Z</time></trkpt><trkpt lat="45.7975917" lon="13.5803713"><ele>8.0</ele><time>2026-04-15T07:41:00.344Z</time></trkpt><trkpt lat="45.7977131" lon="13.5801801"><ele>8.0</ele><time>2026-04-15T07:41:01.322Z</time></trkpt><trkpt lat="45.7978262" lon="13.5799869"><ele>8.0</ele><time>2026-04-15T07:41:02.325Z</time></trkpt><trkpt lat="45.7979358" lon="13.5797895"><ele>8.0</ele><time>2026-04-15T07:41:03.329Z</time></trkpt><trkpt lat="45.7980323" lon="13.5795874"><ele>8.0</ele><time>2026-04-15T07:41:04.334Z</time></trkpt><trkpt lat="45.7981185" lon="13.5793767"><ele>8.0</ele><time>2026-04-15T07:41:05.331Z</time></trkpt><trkpt lat="45.7982001" lon="13.5791603"><ele>8.0</ele><time>2026-04-15T07:41:06.327Z</time></trkpt><trkpt lat="45.7982814" lon="13.5789353"><ele>8.0</ele><time>2026-04-15T07:41:07.323Z</time></trkpt><trkpt lat="45.7983604" lon="13.5787077"><ele>6.0</ele><time>2026-04-15T07:41:08.337Z</time></trkpt><trkpt lat="45.7984461" lon="13.5784559"><ele>4.0</ele><time>2026-04-15T07:41:09.318Z</time></trkpt><trkpt lat="45.7985417" lon="13.5781743"><ele>2.0</ele><time>2026-04-15T07:41:10.338Z</time></trkpt><trkpt lat="45.7986402" lon="13.5778692"><ele>6.5</ele><time>2026-04-15T07:41:11.326Z</time></trkpt><trkpt lat="45.7987511" lon="13.5775429"><ele>11.0</ele><time>2026-04-15T07:41:12.331Z</time></trkpt><trkpt lat="45.7988675" lon="13.577207"><ele>10.5</ele><time>2026-04-15T07:41:13.325Z</time></trkpt><trkpt lat="45.7989901" lon="13.5768825"><ele>10.0</ele><time>2026-04-15T07:41:14.319Z</time></trkpt><trkpt lat="45.7991177" lon="13.5765556"><ele>10.0</ele><time>2026-04-15T07:41:15.337Z</time></trkpt><trkpt lat="45.7992382" lon="13.5762081"><ele>10.0</ele><time>2026-04-15T07:41:16.321Z</time></trkpt><trkpt lat="45.7993559" lon="13.5758611"><ele>11.5</ele><time>2026-04-15T07:41:17.325Z</time></trkpt><trkpt lat="45.7994741" lon="13.5755171"><ele>13.0</ele><time>2026-04-15T07:41:18.335Z</time></trkpt><trkpt lat="45.7995891" lon="13.5751784"><ele>13.0</ele><time>2026-04-15T07:41:19.319Z</time></trkpt><trkpt lat="45.7997047" lon="13.5748408"><ele>13.0</ele><time>2026-04-15T07:41:20.318Z</time></trkpt><trkpt lat="45.7998207" lon="13.5745074"><ele>8.5</ele><time>2026-04-15T07:41:21.314Z</time></trkpt><trkpt lat="45.7999335" lon="13.5741756"><ele>4.0</ele><time>2026-04-15T07:41:22.321Z</time></trkpt><trkpt lat="45.8000446" lon="13.5738538"><ele>6.0</ele><time>2026-04-15T07:41:23.309Z</time></trkpt><trkpt lat="45.8001566" lon="13.5735378"><ele>8.0</ele><time>2026-04-15T07:41:24.322Z</time></trkpt><trkpt lat="45.8002587" lon="13.573211"><ele>8.0</ele><time>2026-04-15T07:41:25.341Z</time></trkpt><trkpt lat="45.8003513" lon="13.5728651"><ele>8.0</ele><time>2026-04-15T07:41:26.331Z</time></trkpt><trkpt lat="45.8004358" lon="13.572508"><ele>7.5</ele><time>2026-04-15T07:41:27.322Z</time></trkpt><trkpt lat="45.8005019" lon="13.5721543"><ele>7.0</ele><time>2026-04-15T07:41:28.323Z</time></trkpt><trkpt lat="45.8005451" lon="13.5717951"><ele>6.5</ele><time>2026-04-15T07:41:29.317Z</time></trkpt><trkpt lat="45.8005773" lon="13.5714398"><ele>6.0</ele><time>2026-04-15T07:41:30.314Z</time></trkpt><trkpt lat="45.8005979" lon="13.5710876"><ele>5.5</ele><time>2026-04-15T07:41:31.323Z</time></trkpt><trkpt lat="45.8006129" lon="13.5707527"><ele>5.0</ele><time>2026-04-15T07:41:32.324Z</time></trkpt><trkpt lat="45.8006319" lon="13.5704299"><ele>4.666666666666667</ele><time>2026-04-15T07:41:33.319Z</time></trkpt><trkpt lat="45.8006558" lon="13.570123"><ele>4.333333333333333</ele><time>2026-04-15T07:41:34.333Z</time></trkpt><trkpt lat="45.8006823" lon="13.5698241"><ele>4.0</ele><time>2026-04-15T07:41:35.325Z</time></trkpt><trkpt lat="45.8007" lon="13.5695336"><ele>4.333333333333333</ele><time>2026-04-15T07:41:36.318Z</time></trkpt><trkpt lat="45.8007175" lon="13.5692506"><ele>4.666666666666667</ele><time>2026-04-15T07:41:37.32Z</time></trkpt><trkpt lat="45.8007354" lon="13.5689796"><ele>5.0</ele><time>2026-04-15T07:41:38.322Z</time></trkpt><trkpt lat="45.8007481" lon="13.568713"><ele>5.333333333333334</ele><time>2026-04-15T07:41:39.323Z</time></trkpt><trkpt lat="45.8007621" lon="13.5684597"><ele>5.666666666666667</ele><time>2026-04-15T07:41:40.328Z</time></trkpt><trkpt lat="45.8007747" lon="13.5682212"><ele>6.0</ele><time>2026-04-15T07:41:41.327Z</time></trkpt><trkpt lat="45.8007859" lon="13.5679955"><ele>6.333333333333334</ele><time>2026-04-15T07:41:42.324Z</time></trkpt><trkpt lat="45.8008015" lon="13.5677756"><ele>6.666666666666667</ele><time>2026-04-15T07:41:43.33Z</time></trkpt><trkpt lat="45.8008117" lon="13.5675573"><ele>7.0</ele><time>2026-04-15T07:41:44.32Z</time></trkpt><trkpt lat="45.8008227" lon="13.5673414"><ele>7.0</ele><time>2026-04-15T07:41:45.331Z</time></trkpt><trkpt lat="45.800835" lon="13.567134"><ele>7.0</ele><time>2026-04-15T07:41:46.322Z</time></trkpt><trkpt lat="45.8008503" lon="13.5669428"><ele>7.0</ele><time>2026-04-15T07:41:47.325Z</time></trkpt><trkpt lat="45.8008616" lon="13.5667364"><ele>7.0</ele><time>2026-04-15T07:41:48.329Z</time></trkpt><trkpt lat="45.8008701" lon="13.5665297"><ele>6.5</ele><time>2026-04-15T07:41:49.317Z</time></trkpt><trkpt lat="45.8008808" lon="13.5663373"><ele>6.0</ele><time>2026-04-15T07:41:50.326Z</time></trkpt><trkpt lat="45.8008915" lon="13.5661563"><ele>5.5</ele><time>2026-04-15T07:41:51.32Z</time></trkpt><trkpt lat="45.8008969" lon="13.5659978"><ele>5.0</ele><time>2026-04-15T07:41:52.331Z</time></trkpt><trkpt lat="45.8009039" lon="13.5658391"><ele>5.0</ele><time>2026-04-15T07:41:53.345Z</time></trkpt><trkpt lat="45.8009119" lon="13.5656804"><ele>5.0</ele><time>2026-04-15T07:41:54.318Z</time></trkpt><trkpt lat="45.8009224" lon="13.5655287"><ele>5.0</ele><time>2026-04-15T07:41:55.318Z</time></trkpt><trkpt lat="45.8009336" lon="13.5653727"><ele>5.0</ele><time>2026-04-15T07:41:56.317Z</time></trkpt><trkpt lat="45.8009463" lon="13.5652142"><ele>5.0</ele><time>2026-04-15T07:41:57.335Z</time></trkpt><trkpt lat="45.8009584" lon="13.5650527"><ele>4.75</ele><time>2026-04-15T07:41:58.319Z</time></trkpt><trkpt lat="45.8009703" lon="13.5648823"><ele>4.5</ele><time>2026-04-15T07:41:59.324Z</time></trkpt><trkpt lat="45.800983" lon="13.5647082"><ele>4.25</ele><time>2026-04-15T07:42:00.326Z</time></trkpt><trkpt lat="45.8009946" lon="13.5645314"><ele>4.0</ele><time>2026-04-15T07:42:01.326Z</time></trkpt><trkpt lat="45.8010052" lon="13.5643518"><ele>5.5</ele><time>2026-04-15T07:42:02.315Z</time></trkpt><trkpt lat="45.8010158" lon="13.5641669"><ele>7.0</ele><time>2026-04-15T07:42:03.324Z</time></trkpt><trkpt lat="45.8010257" lon="13.5639766"><ele>8.5</ele><time>2026-04-15T07:42:04.325Z</time></trkpt><trkpt lat="45.8010384" lon="13.5637842"><ele>10.0</ele><time>2026-04-15T07:42:05.32Z</time></trkpt><trkpt lat="45.8010492" lon="13.5635934"><ele>10.0</ele><time>2026-04-15T07:42:06.333Z</time></trkpt><trkpt lat="45.8010557" lon="13.563408"><ele>10.0</ele><time>2026-04-15T07:42:07.324Z</time></trkpt><trkpt lat="45.8010645" lon="13.5632192"><ele>10.0</ele><time>2026-04-15T07:42:08.316Z</time></trkpt><trkpt lat="45.801076" lon="13.563034"><ele>10.0</ele><time>2026-04-15T07:42:09.324Z</time></trkpt><trkpt lat="45.8010853" lon="13.5628475"><ele>9.75</ele><time>2026-04-15T07:42:10.337Z</time></trkpt><trkpt lat="45.8010945" lon="13.5626646"><ele>9.5</ele><time>2026-04-15T07:42:11.314Z</time></trkpt><trkpt lat="45.8011043" lon="13.5624787"><ele>9.25</ele><time>2026-04-15T07:42:12.322Z</time></trkpt><trkpt lat="45.8011143" lon="13.5622988"><ele>9.0</ele><time>2026-04-15T07:42:13.322Z</time></trkpt><trkpt lat="45.8011268" lon="13.5621231"><ele>8.75</ele><time>2026-04-15T07:42:14.32Z</time></trkpt><trkpt lat="45.8011409" lon="13.5619438"><ele>8.5</ele><time>2026-04-15T07:42:15.321Z</time></trkpt><trkpt lat="45.8011555" lon="13.5617667"><ele>8.25</ele><time>2026-04-15T07:42:16.325Z</time></trkpt><trkpt lat="45.801167" lon="13.5615929"><ele>8.0</ele><time>2026-04-15T07:42:17.326Z</time></trkpt><trkpt lat="45.8011794" lon="13.5614128"><ele>8.0</ele><time>2026-04-15T07:42:18.327Z</time></trkpt><trkpt lat="45.8011915" lon="13.5612386"><ele>8.0</ele><time>2026-04-15T07:42:19.326Z</time></trkpt><trkpt lat="45.8011981" lon="13.5610675"><ele>8.0</ele><time>2026-04-15T07:42:20.318Z</time></trkpt><trkpt lat="45.801207" lon="13.5609008"><ele>8.0</ele><time>2026-04-15T07:42:21.317Z</time></trkpt><trkpt lat="45.8012196" lon="13.5607387"><ele>7.800000000000001</ele><time>2026-04-15T07:42:22.339Z</time></trkpt><trkpt lat="45.8012357" lon="13.5605861"><ele>7.6000000000000005</ele><time>2026-04-15T07:42:23.312Z</time></trkpt><trkpt lat="45.8012534" lon="13.5604488"><ele>7.3999999999999995</ele><time>2026-04-15T07:42:24.322Z</time></trkpt><trkpt lat="45.8012754" lon="13.560313"><ele>7.199999999999999</ele><time>2026-04-15T07:42:25.317Z</time></trkpt><trkpt lat="45.8013042" lon="13.5601854"><ele>7.0</ele><time>2026-04-15T07:42:26.329Z</time></trkpt><trkpt lat="45.8013472" lon="13.5600545"><ele>7.0</ele><time>2026-04-15T07:42:27.317Z</time></trkpt><trkpt lat="45.8014133" lon="13.5599351"><ele>6.999999999999999</ele><time>2026-04-15T07:42:28.322Z</time></trkpt><trkpt lat="45.8014925" lon="13.5598391"><ele>6.999999999999999</ele><time>2026-04-15T07:42:29.32Z</time></trkpt><trkpt lat="45.8015775" lon="13.5597411"><ele>7.0</ele><time>2026-04-15T07:42:30.326Z</time></trkpt><trkpt lat="45.8016512" lon="13.5596056"><ele>7.0</ele><time>2026-04-15T07:42:31.314Z</time></trkpt><trkpt lat="45.8017116" lon="13.5594439"><ele>6.5</ele><time>2026-04-15T07:42:32.322Z</time></trkpt><trkpt lat="45.8017603" lon="13.5592773"><ele>6.0</ele><time>2026-04-15T07:42:33.319Z</time></trkpt><trkpt lat="45.8018063" lon="13.5591059"><ele>5.5</ele><time>2026-04-15T07:42:34.318Z</time></trkpt><trkpt lat="45.8018625" lon="13.5589531"><ele>5.0</ele><time>2026-04-15T07:42:35.317Z</time></trkpt><trkpt lat="45.8019224" lon="13.5588095"><ele>6.5</ele><time>2026-04-15T07:42:36.328Z</time></trkpt><trkpt lat="45.8019759" lon="13.5586612"><ele>8.0</ele><time>2026-04-15T07:42:37.319Z</time></trkpt><trkpt lat="45.8020262" lon="13.5585143"><ele>9.5</ele><time>2026-04-15T07:42:38.334Z</time></trkpt><trkpt lat="45.8020806" lon="13.5583581"><ele>11.0</ele><time>2026-04-15T07:42:39.308Z</time></trkpt><trkpt lat="45.8021355" lon="13.5581997"><ele>11.0</ele><time>2026-04-15T07:42:40.311Z</time></trkpt><trkpt lat="45.8021943" lon="13.558034"><ele>11.0</ele><time>2026-04-15T07:42:41.313Z</time></trkpt><trkpt lat="45.8022542" lon="13.5578552"><ele>11.0</ele><time>2026-04-15T07:42:42.326Z</time></trkpt><trkpt lat="45.8023073" lon="13.5576644"><ele>11.0</ele><time>2026-04-15T07:42:43.31Z</time></trkpt><trkpt lat="45.8023548" lon="13.5574787"><ele>10.5</ele><time>2026-04-15T07:42:44.309Z</time></trkpt><trkpt lat="45.8023959" lon="13.5572914"><ele>10.0</ele><time>2026-04-15T07:42:45.317Z</time></trkpt><trkpt lat="45.8024359" lon="13.5571045"><ele>9.5</ele><time>2026-04-15T07:42:46.315Z</time></trkpt><trkpt lat="45.8024774" lon="13.5569144"><ele>9.0</ele><time>2026-04-15T07:42:47.319Z</time></trkpt><trkpt lat="45.802519" lon="13.5567192"><ele>9.25</ele><time>2026-04-15T07:42:48.314Z</time></trkpt><trkpt lat="45.8025622" lon="13.5565232"><ele>9.5</ele><time>2026-04-15T07:42:49.317Z</time></trkpt><trkpt lat="45.8026044" lon="13.5563284"><ele>9.75</ele><time>2026-04-15T07:42:50.345Z</time></trkpt><trkpt lat="45.8026469" lon="13.5561334"><ele>10.0</ele><time>2026-04-15T07:42:51.315Z</time></trkpt><trkpt lat="45.8026889" lon="13.5559423"><ele>10.0</ele><time>2026-04-15T07:42:52.315Z</time></trkpt><trkpt lat="45.8027268" lon="13.5557626"><ele>10.0</ele><time>2026-04-15T07:42:53.316Z</time></trkpt><trkpt lat="45.8027691" lon="13.5555749"><ele>10.0</ele><time>2026-04-15T07:42:54.325Z</time></trkpt><trkpt lat="45.8028091" lon="13.5553959"><ele>10.0</ele><time>2026-04-15T07:42:55.307Z</time></trkpt><trkpt lat="45.8028494" lon="13.5552203"><ele>10.0</ele><time>2026-04-15T07:42:56.329Z</time></trkpt><trkpt lat="45.8028891" lon="13.5550466"><ele>10.0</ele><time>2026-04-15T07:42:57.308Z</time></trkpt><trkpt lat="45.8029311" lon="13.5548699"><ele>10.0</ele><time>2026-04-15T07:42:58.344Z</time></trkpt><trkpt lat="45.8029706" lon="13.5546988"><ele>10.0</ele><time>2026-04-15T07:42:59.318Z</time></trkpt><trkpt lat="45.8030087" lon="13.5545293"><ele>10.0</ele><time>2026-04-15T07:43:00.316Z</time></trkpt><trkpt lat="45.8030477" lon="13.5543698"><ele>10.0</ele><time>2026-04-15T07:43:01.309Z</time></trkpt><trkpt lat="45.8030869" lon="13.5542163"><ele>10.0</ele><time>2026-04-15T07:43:02.32Z</time></trkpt><trkpt lat="45.8031319" lon="13.5540628"><ele>10.0</ele><time>2026-04-15T07:43:03.305Z</time></trkpt><trkpt lat="45.8031728" lon="13.5539125"><ele>10.0</ele><time>2026-04-15T07:43:04.316Z</time></trkpt><trkpt lat="45.8032135" lon="13.5537638"><ele>10.0</ele><time>2026-04-15T07:43:05.312Z</time></trkpt><trkpt lat="45.8032565" lon="13.5536114"><ele>10.0</ele><time>2026-04-15T07:43:06.311Z</time></trkpt><trkpt lat="45.8032976" lon="13.5534554"><ele>10.0</ele><time>2026-04-15T07:43:07.309Z</time></trkpt><trkpt lat="45.803337" lon="13.5533083"><ele>9.4</ele><time>2026-04-15T07:43:08.309Z</time></trkpt><trkpt lat="45.8033732" lon="13.5531542"><ele>8.8</ele><time>2026-04-15T07:43:09.305Z</time></trkpt><trkpt lat="45.8034037" lon="13.5529981"><ele>8.2</ele><time>2026-04-15T07:43:10.303Z</time></trkpt><trkpt lat="45.8034343" lon="13.552848"><ele>7.6</ele><time>2026-04-15T07:43:11.313Z</time></trkpt><trkpt lat="45.8034641" lon="13.5527142"><ele>7.0</ele><time>2026-04-15T07:43:12.31Z</time></trkpt><trkpt lat="45.8034917" lon="13.5526005"><ele>8.0</ele><time>2026-04-15T07:43:13.311Z</time></trkpt><trkpt lat="45.8035238" lon="13.5524912"><ele>9.0</ele><time>2026-04-15T07:43:14.312Z</time></trkpt><trkpt lat="45.8035568" lon="13.552369"><ele>10.0</ele><time>2026-04-15T07:43:15.31Z</time></trkpt><trkpt lat="45.8035836" lon="13.5522314"><ele>11.0</ele><time>2026-04-15T07:43:16.33Z</time></trkpt><trkpt lat="45.8036214" lon="13.5520959"><ele>12.0</ele><time>2026-04-15T07:43:17.315Z</time></trkpt><trkpt lat="45.8036555" lon="13.5519437"><ele>12.0</ele><time>2026-04-15T07:43:18.302Z</time></trkpt><trkpt lat="45.8036994" lon="13.5517907"><ele>12.0</ele><time>2026-04-15T07:43:19.301Z</time></trkpt><trkpt lat="45.8037506" lon="13.5516389"><ele>12.0</ele><time>2026-04-15T07:43:20.302Z</time></trkpt><trkpt lat="45.8038122" lon="13.5514791"><ele>12.0</ele><time>2026-04-15T07:43:21.304Z</time></trkpt><trkpt lat="45.8038702" lon="13.5513232"><ele>11.75</ele><time>2026-04-15T07:43:22.317Z</time></trkpt><trkpt lat="45.8039281" lon="13.5511725"><ele>11.5</ele><time>2026-04-15T07:43:23.31Z</time></trkpt><trkpt lat="45.8039843" lon="13.5510074"><ele>11.25</ele><time>2026-04-15T07:43:24.298Z</time></trkpt><trkpt lat="45.8040442" lon="13.550851"><ele>11.0</ele><time>2026-04-15T07:43:25.306Z</time></trkpt><trkpt lat="45.8041005" lon="13.5507005"><ele>11.0</ele><time>2026-04-15T07:43:26.321Z</time></trkpt><trkpt lat="45.8042062" lon="13.5504123"><ele>11.0</ele><time>2026-04-15T07:43:28.301Z</time></trkpt><trkpt lat="45.8042574" lon="13.5502733"><ele>11.0</ele><time>2026-04-15T07:43:29.304Z</time></trkpt><trkpt lat="45.8043152" lon="13.5501345"><ele>11.0</ele><time>2026-04-15T07:43:30.303Z</time></trkpt><trkpt lat="45.8043669" lon="13.5500088"><ele>10.8</ele><time>2026-04-15T07:43:31.3Z</time></trkpt><trkpt lat="45.8044239" lon="13.5498858"><ele>10.600000000000001</ele><time>2026-04-15T07:43:32.307Z</time></trkpt><trkpt lat="45.8044821" lon="13.5497548"><ele>10.4</ele><time>2026-04-15T07:43:33.311Z</time></trkpt><trkpt lat="45.8045405" lon="13.5496351"><ele>10.2</ele><time>2026-04-15T07:43:34.308Z</time></trkpt><trkpt lat="45.8045942" lon="13.5494935"><ele>10.0</ele><time>2026-04-15T07:43:35.31Z</time></trkpt><trkpt lat="45.8046402" lon="13.5493494"><ele>10.0</ele><time>2026-04-15T07:43:36.312Z</time></trkpt><trkpt lat="45.8046933" lon="13.5492106"><ele>10.0</ele><time>2026-04-15T07:43:37.322Z</time></trkpt><trkpt lat="45.80474" lon="13.549076"><ele>10.0</ele><time>2026-04-15T07:43:38.303Z</time></trkpt><trkpt lat="45.8047854" lon="13.54894"><ele>10.0</ele><time>2026-04-15T07:43:39.304Z</time></trkpt><trkpt lat="45.8048215" lon="13.5488106"><ele>10.0</ele><time>2026-04-15T07:43:40.309Z</time></trkpt><trkpt lat="45.804849" lon="13.5486895"><ele>9.8</ele><time>2026-04-15T07:43:41.309Z</time></trkpt><trkpt lat="45.8048676" lon="13.5485767"><ele>9.6</ele><time>2026-04-15T07:43:42.305Z</time></trkpt><trkpt lat="45.8048897" lon="13.5484693"><ele>9.4</ele><time>2026-04-15T07:43:43.302Z</time></trkpt><trkpt lat="45.8049318" lon="13.5483596"><ele>9.2</ele><time>2026-04-15T07:43:45.311Z</time></trkpt><trkpt lat="45.805" lon="13.5482127"><ele>9.0</ele><time>2026-04-15T07:44:20.308Z</time></trkpt><trkpt lat="45.8050528" lon="13.548083"><ele>9.0</ele><time>2026-04-15T07:44:21.292Z</time></trkpt><trkpt lat="45.8050838" lon="13.5478839"><ele>9.0</ele><time>2026-04-15T07:44:22.321Z</time></trkpt><trkpt lat="45.8051079" lon="13.5476685"><ele>9.0</ele><time>2026-04-15T07:44:23.293Z</time></trkpt><trkpt lat="45.8051363" lon="13.5474455"><ele>9.666666666666666</ele><time>2026-04-15T07:44:24.299Z</time></trkpt><trkpt lat="45.8051693" lon="13.5472167"><ele>10.333333333333332</ele><time>2026-04-15T07:44:25.295Z</time></trkpt><trkpt lat="45.805211" lon="13.5469988"><ele>11.0</ele><time>2026-04-15T07:44:26.301Z</time></trkpt><trkpt lat="45.8052473" lon="13.5467959"><ele>11.0</ele><time>2026-04-15T07:44:27.3Z</time></trkpt><trkpt lat="45.8052818" lon="13.546603"><ele>11.0</ele><time>2026-04-15T07:44:28.298Z</time></trkpt><trkpt lat="45.805315" lon="13.5464235"><ele>11.0</ele><time>2026-04-15T07:44:29.303Z</time></trkpt><trkpt lat="45.8053427" lon="13.5462375"><ele>11.0</ele><time>2026-04-15T07:44:30.304Z</time></trkpt><trkpt lat="45.8053765" lon="13.5460545"><ele>11.25</ele><time>2026-04-15T07:44:31.309Z</time></trkpt><trkpt lat="45.8054064" lon="13.5458673"><ele>11.5</ele><time>2026-04-15T07:44:32.298Z</time></trkpt><trkpt lat="45.8054383" lon="13.5456723"><ele>11.75</ele><time>2026-04-15T07:44:33.313Z</time></trkpt><trkpt lat="45.8054826" lon="13.5454707"><ele>12.0</ele><time>2026-04-15T07:44:34.305Z</time></trkpt><trkpt lat="45.8055273" lon="13.5452759"><ele>11.5</ele><time>2026-04-15T07:44:35.304Z</time></trkpt><trkpt lat="45.8055776" lon="13.5450808"><ele>11.0</ele><time>2026-04-15T07:44:36.302Z</time></trkpt><trkpt lat="45.8056239" lon="13.54489"><ele>10.5</ele><time>2026-04-15T07:44:37.304Z</time></trkpt><trkpt lat="45.8056674" lon="13.544696"><ele>10.0</ele><time>2026-04-15T07:44:38.298Z</time></trkpt><trkpt lat="45.8057155" lon="13.5444984"><ele>10.0</ele><time>2026-04-15T07:44:39.295Z</time></trkpt><trkpt lat="45.8057609" lon="13.5443085"><ele>10.0</ele><time>2026-04-15T07:44:40.307Z</time></trkpt><trkpt lat="45.8058049" lon="13.5441135"><ele>10.0</ele><time>2026-04-15T07:44:41.304Z</time></trkpt><trkpt lat="45.8058483" lon="13.5439177"><ele>10.0</ele><time>2026-04-15T07:44:42.319Z</time></trkpt><trkpt lat="45.805893" lon="13.5437241"><ele>10.5</ele><time>2026-04-15T07:44:43.303Z</time></trkpt><trkpt lat="45.8059403" lon="13.5435345"><ele>11.0</ele><time>2026-04-15T07:44:44.31Z</time></trkpt><trkpt lat="45.8059781" lon="13.5433501"><ele>11.5</ele><time>2026-04-15T07:44:45.294Z</time></trkpt><trkpt lat="45.8060145" lon="13.5431736"><ele>12.0</ele><time>2026-04-15T07:44:46.311Z</time></trkpt><trkpt lat="45.8060565" lon="13.5429991"><ele>13.0</ele><time>2026-04-15T07:44:47.293Z</time></trkpt><trkpt lat="45.8060988" lon="13.5428241"><ele>14.0</ele><time>2026-04-15T07:44:48.305Z</time></trkpt><trkpt lat="45.8061415" lon="13.5426456"><ele>15.0</ele><time>2026-04-15T07:44:49.296Z</time></trkpt><trkpt lat="45.8061831" lon="13.5424719"><ele>16.0</ele><time>2026-04-15T07:44:50.302Z</time></trkpt><trkpt lat="45.806231" lon="13.542283"><ele>16.0</ele><time>2026-04-15T07:44:51.305Z</time></trkpt><trkpt lat="45.8062787" lon="13.542097"><ele>16.0</ele><time>2026-04-15T07:44:52.31Z</time></trkpt><trkpt lat="45.8063245" lon="13.5419104"><ele>16.0</ele><time>2026-04-15T07:44:53.296Z</time></trkpt><trkpt lat="45.8063709" lon="13.5417221"><ele>16.0</ele><time>2026-04-15T07:44:54.311Z</time></trkpt><trkpt lat="45.8064207" lon="13.541541"><ele>16.25</ele><time>2026-04-15T07:44:55.298Z</time></trkpt><trkpt lat="45.8064803" lon="13.5413693"><ele>16.5</ele><time>2026-04-15T07:44:56.301Z</time></trkpt><trkpt lat="45.8065508" lon="13.5412115"><ele>16.75</ele><time>2026-04-15T07:44:57.305Z</time></trkpt><trkpt lat="45.8066141" lon="13.5410512"><ele>17.0</ele><time>2026-04-15T07:44:58.315Z</time></trkpt><trkpt lat="45.8066749" lon="13.5408994"><ele>17.8</ele><time>2026-04-15T07:44:59.299Z</time></trkpt><trkpt lat="45.8067411" lon="13.5407606"><ele>18.6</ele><time>2026-04-15T07:45:00.313Z</time></trkpt><trkpt lat="45.806798" lon="13.5406561"><ele>19.400000000000002</ele><time>2026-04-15T07:45:01.3Z</time></trkpt><trkpt lat="45.8068537" lon="13.5405804"><ele>20.2</ele><time>2026-04-15T07:45:02.322Z</time></trkpt><trkpt lat="45.8069111" lon="13.5405172"><ele>21.0</ele><time>2026-04-15T07:45:05.3Z</time></trkpt><trkpt lat="45.8069772" lon="13.5403275"><ele>17.666666666666668</ele><time>2026-04-15T07:45:07.305Z</time></trkpt><trkpt lat="45.8070581" lon="13.5401342"><ele>14.333333333333332</ele><time>2026-04-15T07:45:08.314Z</time></trkpt><trkpt lat="45.8071493" lon="13.5399405"><ele>11.0</ele><time>2026-04-15T07:45:09.29Z</time></trkpt><trkpt lat="45.8072375" lon="13.539729"><ele>10.0</ele><time>2026-04-15T07:45:10.303Z</time></trkpt><trkpt lat="45.8073228" lon="13.5395425"><ele>9.0</ele><time>2026-04-15T07:45:11.291Z</time></trkpt><trkpt lat="45.8074047" lon="13.5393685"><ele>8.0</ele><time>2026-04-15T07:45:12.306Z</time></trkpt><trkpt lat="45.8074805" lon="13.5391962"><ele>7.0</ele><time>2026-04-15T07:45:13.29Z</time></trkpt><trkpt lat="45.8075507" lon="13.5390269"><ele>7.0</ele><time>2026-04-15T07:45:14.296Z</time></trkpt><trkpt lat="45.8076137" lon="13.5388726"><ele>7.0</ele><time>2026-04-15T07:45:15.305Z</time></trkpt><trkpt lat="45.807669" lon="13.5387302"><ele>7.0</ele><time>2026-04-15T07:45:16.307Z</time></trkpt><trkpt lat="45.8077268" lon="13.5385918"><ele>7.0</ele><time>2026-04-15T07:45:17.308Z</time></trkpt><trkpt lat="45.8077835" lon="13.5384509"><ele>7.666666666666667</ele><time>2026-04-15T07:45:18.302Z</time></trkpt><trkpt lat="45.8078412" lon="13.5383301"><ele>8.333333333333334</ele><time>2026-04-15T07:45:19.303Z</time></trkpt><trkpt lat="45.8078731" lon="13.5382049"><ele>9.0</ele><time>2026-04-15T07:45:20.316Z</time></trkpt><trkpt lat="45.8079096" lon="13.5381118"><ele>9.666666666666666</ele><time>2026-04-15T07:45:21.296Z</time></trkpt><trkpt lat="45.8079351" lon="13.5380165"><ele>10.333333333333332</ele><time>2026-04-15T07:45:23.298Z</time></trkpt><trkpt lat="45.8079067" lon="13.5379292"><ele>11.0</ele><time>2026-04-15T07:45:25.297Z</time></trkpt><trkpt lat="45.8078057" lon="13.537852"><ele>11.0</ele><time>2026-04-15T07:45:26.296Z</time></trkpt><trkpt lat="45.8076893" lon="13.5377665"><ele>11.0</ele><time>2026-04-15T07:45:27.304Z</time></trkpt><trkpt lat="45.8075634" lon="13.5376946"><ele>11.0</ele><time>2026-04-15T07:45:28.298Z</time></trkpt><trkpt lat="45.8074352" lon="13.5376111"><ele>11.0</ele><time>2026-04-15T07:45:29.301Z</time></trkpt><trkpt lat="45.8073221" lon="13.5375187"><ele>11.0</ele><time>2026-04-15T07:45:30.3Z</time></trkpt><trkpt lat="45.8072224" lon="13.5374402"><ele>11.0</ele><time>2026-04-15T07:45:31.303Z</time></trkpt><trkpt lat="45.8071176" lon="13.5373754"><ele>11.0</ele><time>2026-04-15T07:45:32.304Z</time></trkpt><trkpt lat="45.807029" lon="13.537307"><ele>11.0</ele><time>2026-04-15T07:45:33.303Z</time></trkpt><trkpt lat="45.8069451" lon="13.5372529"><ele>11.0</ele><time>2026-04-15T07:45:34.296Z</time></trkpt><trkpt lat="45.8068896" lon="13.5372006"><ele>11.0</ele><time>2026-04-15T07:45:35.293Z</time></trkpt><trkpt lat="45.8068425" lon="13.5371267"><ele>11.0</ele><time>2026-04-15T07:45:38.29Z</time></trkpt><trkpt lat="45.8068301" lon="13.536993"><ele>11.0</ele><time>2026-04-15T07:45:40.291Z</time></trkpt><trkpt lat="45.8068674" lon="13.5368724"><ele>11.0</ele><time>2026-04-15T07:45:41.299Z</time></trkpt><trkpt lat="45.8069177" lon="13.5367205"><ele>11.0</ele><time>2026-04-15T07:45:42.309Z</time></trkpt><trkpt lat="45.8069553" lon="13.5365704"><ele>11.0</ele><time>2026-04-15T07:45:43.29Z</time></trkpt><trkpt lat="45.8069849" lon="13.5364153"><ele>11.0</ele><time>2026-04-15T07:45:44.297Z</time></trkpt><trkpt lat="45.8070199" lon="13.5362797"><ele>11.0</ele><time>2026-04-15T07:45:45.286Z</time></trkpt><trkpt lat="45.807052" lon="13.5361536"><ele>11.0</ele><time>2026-04-15T07:45:46.302Z</time></trkpt><trkpt lat="45.8070881" lon="13.5360225"><ele>11.0</ele><time>2026-04-15T07:45:47.29Z</time></trkpt><trkpt lat="45.8071229" lon="13.5359076"><ele>11.0</ele><time>2026-04-15T07:45:48.297Z</time></trkpt><trkpt lat="45.8071549" lon="13.5357723"><ele>11.0</ele><time>2026-04-15T07:45:49.288Z</time></trkpt><trkpt lat="45.8071893" lon="13.5356323"><ele>11.0</ele><time>2026-04-15T07:45:50.308Z</time></trkpt><trkpt lat="45.8072238" lon="13.5354857"><ele>11.0</ele><time>2026-04-15T07:45:51.287Z</time></trkpt><trkpt lat="45.8072683" lon="13.5353197"><ele>11.0</ele><time>2026-04-15T07:45:52.29Z</time></trkpt><trkpt lat="45.8073132" lon="13.5351556"><ele>11.25</ele><time>2026-04-15T07:45:53.282Z</time></trkpt><trkpt lat="45.8073548" lon="13.534997"><ele>11.5</ele><time>2026-04-15T07:45:54.287Z</time></trkpt><trkpt lat="45.8073979" lon="13.5348508"><ele>11.75</ele><time>2026-04-15T07:45:55.285Z</time></trkpt><trkpt lat="45.8074384" lon="13.5347034"><ele>12.0</ele><time>2026-04-15T07:45:56.291Z</time></trkpt><trkpt lat="45.8074752" lon="13.534554"><ele>11.333333333333334</ele><time>2026-04-15T07:45:57.29Z</time></trkpt><trkpt lat="45.8075044" lon="13.5344173"><ele>10.666666666666666</ele><time>2026-04-15T07:45:58.301Z</time></trkpt><trkpt lat="45.8075358" lon="13.5342963"><ele>10.0</ele><time>2026-04-15T07:45:59.309Z</time></trkpt><trkpt lat="45.8075687" lon="13.5341921"><ele>9.333333333333332</ele><time>2026-04-15T07:46:00.296Z</time></trkpt><trkpt lat="45.807603" lon="13.5340938"><ele>8.666666666666666</ele><time>2026-04-15T07:46:01.289Z</time></trkpt><trkpt lat="45.8076332" lon="13.5339973"><ele>8.0</ele><time>2026-04-15T07:46:02.292Z</time></trkpt><trkpt lat="45.8076596" lon="13.5338992"><ele>7.833333333333333</ele><time>2026-04-15T07:46:03.288Z</time></trkpt><trkpt lat="45.8076812" lon="13.5338073"><ele>7.666666666666666</ele><time>2026-04-15T07:46:04.297Z</time></trkpt><trkpt lat="45.8077327" lon="13.5336675"><ele>7.5</ele><time>2026-04-15T07:46:06.295Z</time></trkpt><trkpt lat="45.8077895" lon="13.5335542"><ele>7.333333333333334</ele><time>2026-04-15T07:46:08.31Z</time></trkpt><trkpt lat="45.8078203" lon="13.5334615"><ele>7.166666666666667</ele><time>2026-04-15T07:46:10.29Z</time></trkpt><trkpt lat="45.8078653" lon="13.533393"><ele>7.0</ele><time>2026-04-15T07:46:17.295Z</time></trkpt><trkpt lat="45.8079328" lon="13.5333066"><ele>7.000000000000001</ele><time>2026-04-15T07:46:19.314Z</time></trkpt><trkpt lat="45.8080138" lon="13.5332284"><ele>7.0</ele><time>2026-04-15T07:46:21.287Z</time></trkpt><trkpt lat="45.8080705" lon="13.5331769"><ele>7.0</ele><time>2026-04-15T07:46:23.303Z</time></trkpt><trkpt lat="45.8081245" lon="13.5331236"><ele>7.0</ele><time>2026-04-15T07:46:25.284Z</time></trkpt><trkpt lat="45.8082237" lon="13.5330366"><ele>7.000000000000001</ele><time>2026-04-15T07:46:27.286Z</time></trkpt><trkpt lat="45.8082832" lon="13.5329771"><ele>7.0</ele><time>2026-04-15T07:46:28.293Z</time></trkpt><trkpt lat="45.8083475" lon="13.5329105"><ele>7.166666666666667</ele><time>2026-04-15T07:46:29.291Z</time></trkpt><trkpt lat="45.808416" lon="13.5328485"><ele>7.333333333333334</ele><time>2026-04-15T07:46:30.298Z</time></trkpt><trkpt lat="45.8084877" lon="13.532796"><ele>7.5</ele><time>2026-04-15T07:46:31.307Z</time></trkpt><trkpt lat="45.8085604" lon="13.5327583"><ele>7.666666666666666</ele><time>2026-04-15T07:46:32.281Z</time></trkpt><trkpt lat="45.8086185" lon="13.5327102"><ele>7.833333333333333</ele><time>2026-04-15T07:46:33.287Z</time></trkpt><trkpt lat="45.8086752" lon="13.5326645"><ele>8.0</ele><time>2026-04-15T07:46:34.291Z</time></trkpt><trkpt lat="45.8087755" lon="13.5325673"><ele>8.0</ele><time>2026-04-15T07:46:36.283Z</time></trkpt><trkpt lat="45.808884" lon="13.5324687"><ele>8.0</ele><time>2026-04-15T07:46:38.286Z</time></trkpt><trkpt lat="45.8090459" lon="13.5323389"><ele>8.0</ele><time>2026-04-15T07:46:41.288Z</time></trkpt><trkpt lat="45.8091276" lon="13.5322712"><ele>8.0</ele><time>2026-04-15T07:46:43.299Z</time></trkpt><trkpt lat="45.8092135" lon="13.5321178"><ele>7.800000000000001</ele><time>2026-04-15T07:46:51.282Z</time></trkpt><trkpt lat="45.809259" lon="13.5320254"><ele>7.6000000000000005</ele><time>2026-04-15T07:46:52.313Z</time></trkpt><trkpt lat="45.8093084" lon="13.5318898"><ele>7.3999999999999995</ele><time>2026-04-15T07:46:54.293Z</time></trkpt><trkpt lat="45.8093283" lon="13.5317629"><ele>7.199999999999999</ele><time>2026-04-15T07:46:57.292Z</time></trkpt><trkpt lat="45.8093331" lon="13.5316593"><ele>7.0</ele><time>2026-04-15T07:46:59.295Z</time></trkpt><trkpt lat="45.8093389" lon="13.5314908"><ele>7.000000000000001</ele><time>2026-04-15T07:47:01.297Z</time></trkpt><trkpt lat="45.8093421" lon="13.5313896"><ele>7.0</ele><time>2026-04-15T07:47:02.292Z</time></trkpt><trkpt lat="45.8093467" lon="13.5312789"><ele>7.0</ele><time>2026-04-15T07:47:03.283Z</time></trkpt><trkpt lat="45.8093558" lon="13.5311593"><ele>7.0</ele><time>2026-04-15T07:47:04.293Z</time></trkpt><trkpt lat="45.8093605" lon="13.5310236"><ele>7.000000000000001</ele><time>2026-04-15T07:47:05.286Z</time></trkpt><trkpt lat="45.8093603" lon="13.5308778"><ele>7.0</ele><time>2026-04-15T07:47:06.303Z</time></trkpt><trkpt lat="45.8093677" lon="13.5307236"><ele>7.0</ele><time>2026-04-15T07:47:07.289Z</time></trkpt><trkpt lat="45.8093857" lon="13.5305647"><ele>6.999999999999999</ele><time>2026-04-15T07:47:08.285Z</time></trkpt><trkpt lat="45.809401" lon="13.5304222"><ele>6.999999999999999</ele><time>2026-04-15T07:47:09.288Z</time></trkpt><trkpt lat="45.8094137" lon="13.5302852"><ele>7.0</ele><time>2026-04-15T07:47:10.299Z</time></trkpt><trkpt lat="45.8094205" lon="13.5301292"><ele>7.0</ele><time>2026-04-15T07:47:11.28Z</time></trkpt><trkpt lat="45.8094269" lon="13.5299534"><ele>7.25</ele><time>2026-04-15T07:47:12.285Z</time></trkpt><trkpt lat="45.8094358" lon="13.5297616"><ele>7.5</ele><time>2026-04-15T07:47:13.283Z</time></trkpt><trkpt lat="45.8094503" lon="13.5295781"><ele>7.75</ele><time>2026-04-15T07:47:14.287Z</time></trkpt><trkpt lat="45.8094641" lon="13.5294127"><ele>8.0</ele><time>2026-04-15T07:47:15.297Z</time></trkpt><trkpt lat="45.8094821" lon="13.5292611"><ele>7.6000000000000005</ele><time>2026-04-15T07:47:16.301Z</time></trkpt><trkpt lat="45.8095019" lon="13.5291155"><ele>7.200000000000001</ele><time>2026-04-15T07:47:17.277Z</time></trkpt><trkpt lat="45.8095263" lon="13.5289708"><ele>6.8</ele><time>2026-04-15T07:47:18.276Z</time></trkpt><trkpt lat="45.8095586" lon="13.5288235"><ele>6.4</ele><time>2026-04-15T07:47:19.304Z</time></trkpt><trkpt lat="45.8095881" lon="13.5286866"><ele>6.0</ele><time>2026-04-15T07:47:20.294Z</time></trkpt><trkpt lat="45.8096086" lon="13.5285433"><ele>5.8</ele><time>2026-04-15T07:47:21.289Z</time></trkpt><trkpt lat="45.8096295" lon="13.5284126"><ele>5.6</ele><time>2026-04-15T07:47:22.276Z</time></trkpt><trkpt lat="45.8096528" lon="13.5282921"><ele>5.4</ele><time>2026-04-15T07:47:23.278Z</time></trkpt><trkpt lat="45.8096718" lon="13.5281857"><ele>5.2</ele><time>2026-04-15T07:47:24.286Z</time></trkpt><trkpt lat="45.8096867" lon="13.5280923"><ele>5.0</ele><time>2026-04-15T07:47:25.28Z</time></trkpt><trkpt lat="45.809719" lon="13.5279159"><ele>5.166666666666667</ele><time>2026-04-15T07:47:27.285Z</time></trkpt><trkpt lat="45.8097367" lon="13.5278127"><ele>5.333333333333334</ele><time>2026-04-15T07:47:28.279Z</time></trkpt><trkpt lat="45.8097567" lon="13.5277036"><ele>5.5</ele><time>2026-04-15T07:47:29.276Z</time></trkpt><trkpt lat="45.8097764" lon="13.5275933"><ele>5.666666666666667</ele><time>2026-04-15T07:47:30.279Z</time></trkpt><trkpt lat="45.8097958" lon="13.5274738"><ele>5.833333333333333</ele><time>2026-04-15T07:47:31.283Z</time></trkpt><trkpt lat="45.8098115" lon="13.5273516"><ele>6.0</ele><time>2026-04-15T07:47:32.277Z</time></trkpt><trkpt lat="45.8098262" lon="13.527228"><ele>6.0</ele><time>2026-04-15T07:47:33.301Z</time></trkpt><trkpt lat="45.8098402" lon="13.5271074"><ele>6.0</ele><time>2026-04-15T07:47:34.277Z</time></trkpt><trkpt lat="45.8098558" lon="13.5269828"><ele>6.0</ele><time>2026-04-15T07:47:35.271Z</time></trkpt><trkpt lat="45.8098708" lon="13.5268566"><ele>6.0</ele><time>2026-04-15T07:47:36.284Z</time></trkpt><trkpt lat="45.8098835" lon="13.5267346"><ele>6.0</ele><time>2026-04-15T07:47:37.296Z</time></trkpt><trkpt lat="45.8098937" lon="13.526604"><ele>6.0</ele><time>2026-04-15T07:47:38.29Z</time></trkpt><trkpt lat="45.8099023" lon="13.5264716"><ele>6.333333333333333</ele><time>2026-04-15T07:47:39.277Z</time></trkpt><trkpt lat="45.8099187" lon="13.5263485"><ele>6.666666666666666</ele><time>2026-04-15T07:47:40.288Z</time></trkpt><trkpt lat="45.8099311" lon="13.5262311"><ele>7.0</ele><time>2026-04-15T07:47:41.289Z</time></trkpt><trkpt lat="45.8099479" lon="13.5261343"><ele>7.333333333333333</ele><time>2026-04-15T07:47:42.29Z</time></trkpt><trkpt lat="45.8099599" lon="13.5260412"><ele>7.666666666666666</ele><time>2026-04-15T07:47:43.283Z</time></trkpt><trkpt lat="45.8099667" lon="13.5259132"><ele>8.0</ele><time>2026-04-15T07:47:45.292Z</time></trkpt><trkpt lat="45.8099777" lon="13.5258138"><ele>8.166666666666666</ele><time>2026-04-15T07:47:47.287Z</time></trkpt><trkpt lat="45.8100121" lon="13.5257235"><ele>8.333333333333332</ele><time>2026-04-15T07:47:49.284Z</time></trkpt><trkpt lat="45.8100364" lon="13.5256244"><ele>8.5</ele><time>2026-04-15T07:47:53.287Z</time></trkpt><trkpt lat="45.8100447" lon="13.525497"><ele>8.666666666666666</ele><time>2026-04-15T07:47:55.286Z</time></trkpt><trkpt lat="45.8100515" lon="13.5253918"><ele>8.833333333333334</ele><time>2026-04-15T07:47:56.277Z</time></trkpt><trkpt lat="45.8100675" lon="13.5252843"><ele>9.0</ele><time>2026-04-15T07:47:57.284Z</time></trkpt><trkpt lat="45.8100966" lon="13.5251817"><ele>8.666666666666666</ele><time>2026-04-15T07:47:58.282Z</time></trkpt><trkpt lat="45.8101158" lon="13.5250687"><ele>8.333333333333334</ele><time>2026-04-15T07:47:59.301Z</time></trkpt><trkpt lat="45.8101227" lon="13.5249627"><ele>8.0</ele><time>2026-04-15T07:48:00.281Z</time></trkpt><trkpt lat="45.8101234" lon="13.5248686"><ele>7.666666666666667</ele><time>2026-04-15T07:48:01.28Z</time></trkpt><trkpt lat="45.8101454" lon="13.5247446"><ele>7.333333333333334</ele><time>2026-04-15T07:48:02.29Z</time></trkpt><trkpt lat="45.8101659" lon="13.5246188"><ele>7.0</ele><time>2026-04-15T07:48:03.291Z</time></trkpt><trkpt lat="45.8102057" lon="13.5244995"><ele>6.199999999999999</ele><time>2026-04-15T07:48:04.289Z</time></trkpt><trkpt lat="45.8102466" lon="13.5243738"><ele>5.3999999999999995</ele><time>2026-04-15T07:48:05.288Z</time></trkpt><trkpt lat="45.8102846" lon="13.5242418"><ele>4.6</ele><time>2026-04-15T07:48:06.294Z</time></trkpt><trkpt lat="45.8103277" lon="13.5241034"><ele>3.8</ele><time>2026-04-15T07:48:07.289Z</time></trkpt><trkpt lat="45.8103774" lon="13.5239763"><ele>3.0</ele><time>2026-04-15T07:48:08.291Z</time></trkpt><trkpt lat="45.8104329" lon="13.5238502"><ele>3.25</ele><time>2026-04-15T07:48:09.283Z</time></trkpt><trkpt lat="45.8104844" lon="13.5236956"><ele>3.5</ele><time>2026-04-15T07:48:10.29Z</time></trkpt><trkpt lat="45.8105459" lon="13.5235479"><ele>3.75</ele><time>2026-04-15T07:48:11.276Z</time></trkpt><trkpt lat="45.8106017" lon="13.5233995"><ele>4.0</ele><time>2026-04-15T07:48:12.274Z</time></trkpt><trkpt lat="45.8106907" lon="13.5231527"><ele>4.0</ele><time>2026-04-15T07:48:14.28Z</time></trkpt><trkpt lat="45.8107685" lon="13.5229693"><ele>4.0</ele><time>2026-04-15T07:48:16.3Z</time></trkpt><trkpt lat="45.81083" lon="13.5228255"><ele>4.0</ele><time>2026-04-15T07:48:18.277Z</time></trkpt><trkpt lat="45.8108855" lon="13.5226879"><ele>4.0</ele><time>2026-04-15T07:48:20.281Z</time></trkpt><trkpt lat="45.8109664" lon="13.522425"><ele>4.2</ele><time>2026-04-15T07:48:23.283Z</time></trkpt><trkpt lat="45.8109957" lon="13.5223212"><ele>4.4</ele><time>2026-04-15T07:48:24.295Z</time></trkpt><trkpt lat="45.8110233" lon="13.522212"><ele>4.6</ele><time>2026-04-15T07:48:25.319Z</time></trkpt><trkpt lat="45.8110979" lon="13.521987"><ele>4.8</ele><time>2026-04-15T07:48:27.285Z</time></trkpt><trkpt lat="45.8111329" lon="13.521863"><ele>5.0</ele><time>2026-04-15T07:48:28.346Z</time></trkpt><trkpt lat="45.8111626" lon="13.5217323"><ele>5.25</ele><time>2026-04-15T07:48:29.33Z</time></trkpt><trkpt lat="45.8112374" lon="13.5214456"><ele>5.5</ele><time>2026-04-15T07:48:32.281Z</time></trkpt><trkpt lat="45.811269" lon="13.5213444"><ele>5.75</ele><time>2026-04-15T07:48:33.293Z</time></trkpt><trkpt lat="45.811305" lon="13.5212391"><ele>6.0</ele><time>2026-04-15T07:48:34.277Z</time></trkpt><trkpt lat="45.811344" lon="13.521126"><ele>6.0</ele><time>2026-04-15T07:48:35.296Z</time></trkpt><trkpt lat="45.8113824" lon="13.52101"><ele>6.0</ele><time>2026-04-15T07:48:36.278Z</time></trkpt><trkpt lat="45.8114229" lon="13.5208914"><ele>6.0</ele><time>2026-04-15T07:48:37.276Z</time></trkpt><trkpt lat="45.8114608" lon="13.5207705"><ele>6.0</ele><time>2026-04-15T07:48:38.292Z</time></trkpt><trkpt lat="45.8115168" lon="13.5205285"><ele>6.0</ele><time>2026-04-15T07:48:40.275Z</time></trkpt><trkpt lat="45.8115756" lon="13.5203383"><ele>6.0</ele><time>2026-04-15T07:48:42.311Z</time></trkpt><trkpt lat="45.8116002" lon="13.5201994"><ele>6.0</ele><time>2026-04-15T07:48:44.295Z</time></trkpt><trkpt lat="45.8115212" lon="13.5201887"><ele>6.0</ele><time>2026-04-15T07:48:46.298Z</time></trkpt><trkpt lat="45.811386" lon="13.5202829"><ele>6.0</ele><time>2026-04-15T07:48:49.292Z</time></trkpt><trkpt lat="45.8114758" lon="13.5203288"><ele>6.0</ele><time>2026-04-15T07:48:54.277Z</time></trkpt><trkpt lat="45.8115298" lon="13.5204148"><ele>6.0</ele><time>2026-04-15T07:48:56.279Z</time></trkpt><trkpt lat="45.8114802" lon="13.5205945"><ele>6.0</ele><time>2026-04-15T07:48:58.279Z</time></trkpt><trkpt lat="45.81144" lon="13.5207227"><ele>6.0</ele><time>2026-04-15T07:48:59.29Z</time></trkpt><trkpt lat="45.8114051" lon="13.5208867"><ele>6.0</ele><time>2026-04-15T07:49:00.276Z</time></trkpt><trkpt lat="45.8113654" lon="13.5210571"><ele>6.0</ele><time>2026-04-15T07:49:01.276Z</time></trkpt><trkpt lat="45.8113159" lon="13.521221"><ele>6.0</ele><time>2026-04-15T07:49:02.282Z</time></trkpt><trkpt lat="45.8112707" lon="13.5213855"><ele>6.0</ele><time>2026-04-15T07:49:03.277Z</time></trkpt><trkpt lat="45.8112216" lon="13.5215413"><ele>6.199999999999999</ele><time>2026-04-15T07:49:04.278Z</time></trkpt><trkpt lat="45.8111732" lon="13.5216808"><ele>6.3999999999999995</ele><time>2026-04-15T07:49:05.291Z</time></trkpt><trkpt lat="45.8111322" lon="13.5218087"><ele>6.6</ele><time>2026-04-15T07:49:06.301Z</time></trkpt><trkpt lat="45.811089" lon="13.5219201"><ele>6.8</ele><time>2026-04-15T07:49:07.292Z</time></trkpt><trkpt lat="45.8110527" lon="13.522015"><ele>7.0</ele><time>2026-04-15T07:49:08.292Z</time></trkpt><trkpt lat="45.8110039" lon="13.5221374"><ele>6.8</ele><time>2026-04-15T07:49:10.291Z</time></trkpt><trkpt lat="45.8109784" lon="13.5222441"><ele>6.6</ele><time>2026-04-15T07:49:52.278Z</time></trkpt><trkpt lat="45.8109336" lon="13.5223287"><ele>6.3999999999999995</ele><time>2026-04-15T07:49:53.321Z</time></trkpt><trkpt lat="45.8108862" lon="13.5224584"><ele>6.199999999999999</ele><time>2026-04-15T07:49:54.284Z</time></trkpt><trkpt lat="45.8108255" lon="13.5226211"><ele>6.0</ele><time>2026-04-15T07:49:55.281Z</time></trkpt><trkpt lat="45.8107597" lon="13.5227898"><ele>5.5</ele><time>2026-04-15T07:49:56.276Z</time></trkpt><trkpt lat="45.8107053" lon="13.522939"><ele>5.0</ele><time>2026-04-15T07:49:57.289Z</time></trkpt><trkpt lat="45.8106499" lon="13.5230923"><ele>4.5</ele><time>2026-04-15T07:49:58.277Z</time></trkpt><trkpt lat="45.810594" lon="13.523248"><ele>4.0</ele><time>2026-04-15T07:49:59.284Z</time></trkpt><trkpt lat="45.8105411" lon="13.5233831"><ele>3.9999999999999996</ele><time>2026-04-15T07:50:00.288Z</time></trkpt><trkpt lat="45.8104895" lon="13.5235126"><ele>4.0</ele><time>2026-04-15T07:50:01.278Z</time></trkpt><trkpt lat="45.8104419" lon="13.5236271"><ele>4.0</ele><time>2026-04-15T07:50:02.308Z</time></trkpt><trkpt lat="45.810401" lon="13.5237119"><ele>4.0</ele><time>2026-04-15T07:50:03.288Z</time></trkpt><trkpt lat="45.8103631" lon="13.5237975"><ele>3.9999999999999996</ele><time>2026-04-15T07:50:05.279Z</time></trkpt><trkpt lat="45.8103244" lon="13.5238907"><ele>4.0</ele><time>2026-04-15T07:50:20.288Z</time></trkpt><trkpt lat="45.8102721" lon="13.5240366"><ele>3.833333333333333</ele><time>2026-04-15T07:50:22.279Z</time></trkpt><trkpt lat="45.8102019" lon="13.5241712"><ele>3.6666666666666665</ele><time>2026-04-15T07:50:24.277Z</time></trkpt><trkpt lat="45.8101442" lon="13.5242168"><ele>3.5</ele><time>2026-04-15T07:50:25.301Z</time></trkpt><trkpt lat="45.8100664" lon="13.5242301"><ele>3.333333333333333</ele><time>2026-04-15T07:50:26.296Z</time></trkpt><trkpt lat="45.8099969" lon="13.5242076"><ele>3.1666666666666665</ele><time>2026-04-15T07:50:27.28Z</time></trkpt><trkpt lat="45.8099129" lon="13.5241418"><ele>3.0</ele><time>2026-04-15T07:50:28.277Z</time></trkpt><trkpt lat="45.8097999" lon="13.5240657"><ele>3.75</ele><time>2026-04-15T07:50:29.291Z</time></trkpt><trkpt lat="45.8096845" lon="13.5239885"><ele>4.5</ele><time>2026-04-15T07:50:30.277Z</time></trkpt><trkpt lat="45.8095773" lon="13.5238914"><ele>5.25</ele><time>2026-04-15T07:50:31.288Z</time></trkpt><trkpt lat="45.8094871" lon="13.5237661"><ele>6.0</ele><time>2026-04-15T07:50:32.283Z</time></trkpt><trkpt lat="45.8094048" lon="13.5236051"><ele>5.5</ele><time>2026-04-15T07:50:33.295Z</time></trkpt><trkpt lat="45.8091499" lon="13.5231506"><ele>5.0</ele><time>2026-04-15T07:50:36.279Z</time></trkpt><trkpt lat="45.8090675" lon="13.5229867"><ele>4.75</ele><time>2026-04-15T07:50:37.28Z</time></trkpt><trkpt lat="45.8089874" lon="13.5228272"><ele>4.5</ele><time>2026-04-15T07:50:38.278Z</time></trkpt><trkpt lat="45.808911" lon="13.5226797"><ele>4.25</ele><time>2026-04-15T07:50:39.287Z</time></trkpt><trkpt lat="45.8088381" lon="13.5225369"><ele>4.0</ele><time>2026-04-15T07:50:40.291Z</time></trkpt><trkpt lat="45.8087725" lon="13.5224091"><ele>4.0</ele><time>2026-04-15T07:50:41.29Z</time></trkpt><trkpt lat="45.8087071" lon="13.5222972"><ele>4.0</ele><time>2026-04-15T07:50:42.275Z</time></trkpt><trkpt lat="45.8086535" lon="13.5221935"><ele>4.0</ele><time>2026-04-15T07:50:43.274Z</time></trkpt><trkpt lat="45.808607" lon="13.5221024"><ele>4.0</ele><time>2026-04-15T07:50:44.293Z</time></trkpt><trkpt lat="45.8085644" lon="13.5220236"><ele>4.0</ele><time>2026-04-15T07:50:45.28Z</time></trkpt><trkpt lat="45.8084973" lon="13.5218987"><ele>4.25</ele><time>2026-04-15T07:50:47.281Z</time></trkpt><trkpt lat="45.8084533" lon="13.5218118"><ele>4.5</ele><time>2026-04-15T07:50:49.278Z</time></trkpt><trkpt lat="45.8084209" lon="13.5216357"><ele>4.75</ele><time>2026-04-15T07:51:11.284Z</time></trkpt><trkpt lat="45.8083664" lon="13.5214717"><ele>5.0</ele><time>2026-04-15T07:51:12.272Z</time></trkpt><trkpt lat="45.8083108" lon="13.5213071"><ele>4.8</ele><time>2026-04-15T07:51:13.275Z</time></trkpt><trkpt lat="45.8082576" lon="13.5211414"><ele>4.6</ele><time>2026-04-15T07:51:14.273Z</time></trkpt><trkpt lat="45.8082141" lon="13.5209913"><ele>4.4</ele><time>2026-04-15T07:51:15.295Z</time></trkpt><trkpt lat="45.8081701" lon="13.520854"><ele>4.2</ele><time>2026-04-15T07:51:16.272Z</time></trkpt><trkpt lat="45.8081184" lon="13.5207334"><ele>4.0</ele><time>2026-04-15T07:51:17.288Z</time></trkpt><trkpt lat="45.8080675" lon="13.5206224"><ele>3.9999999999999996</ele><time>2026-04-15T07:51:18.278Z</time></trkpt><trkpt lat="45.80802" lon="13.5205311"><ele>4.0</ele><time>2026-04-15T07:51:19.288Z</time></trkpt><trkpt lat="45.807973" lon="13.5204479"><ele>4.0</ele><time>2026-04-15T07:51:20.282Z</time></trkpt><trkpt lat="45.8079284" lon="13.5203603"><ele>4.0</ele><time>2026-04-15T07:51:21.294Z</time></trkpt><trkpt lat="45.8078835" lon="13.5202904"><ele>3.9999999999999996</ele><time>2026-04-15T07:51:22.285Z</time></trkpt><trkpt lat="45.807805" lon="13.5202155"><ele>4.0</ele><time>2026-04-15T07:51:24.272Z</time></trkpt><trkpt lat="45.8077652" lon="13.5201259"><ele>4.4</ele><time>2026-04-15T07:51:36.282Z</time></trkpt><trkpt lat="45.8077231" lon="13.5200529"><ele>4.800000000000001</ele><time>2026-04-15T07:51:37.277Z</time></trkpt><trkpt lat="45.8076632" lon="13.5199456"><ele>5.199999999999999</ele><time>2026-04-15T07:51:38.268Z</time></trkpt><trkpt lat="45.8076035" lon="13.5198154"><ele>5.6</ele><time>2026-04-15T07:51:39.279Z</time></trkpt><trkpt lat="45.8075276" lon="13.519671"><ele>6.0</ele><time>2026-04-15T07:51:40.269Z</time></trkpt><trkpt lat="45.8074473" lon="13.5195205"><ele>6.0</ele><time>2026-04-15T07:51:41.27Z</time></trkpt><trkpt lat="45.8073559" lon="13.5193478"><ele>6.0</ele><time>2026-04-15T07:51:42.269Z</time></trkpt><trkpt lat="45.8072546" lon="13.5191631"><ele>6.0</ele><time>2026-04-15T07:51:43.27Z</time></trkpt><trkpt lat="45.8071579" lon="13.5189778"><ele>6.0</ele><time>2026-04-15T07:51:44.274Z</time></trkpt><trkpt lat="45.8070657" lon="13.5188007"><ele>6.0</ele><time>2026-04-15T07:51:45.283Z</time></trkpt><trkpt lat="45.8069827" lon="13.5186271"><ele>6.0</ele><time>2026-04-15T07:51:46.277Z</time></trkpt><trkpt lat="45.8068961" lon="13.5184527"><ele>6.0</ele><time>2026-04-15T07:51:47.276Z</time></trkpt><trkpt lat="45.8068098" lon="13.5182843"><ele>6.0</ele><time>2026-04-15T07:51:48.27Z</time></trkpt><trkpt lat="45.8067232" lon="13.5181255"><ele>6.0</ele><time>2026-04-15T07:51:49.271Z</time></trkpt><trkpt lat="45.8066382" lon="13.5179647"><ele>6.0</ele><time>2026-04-15T07:51:50.275Z</time></trkpt><trkpt lat="45.806569" lon="13.5178171"><ele>6.5</ele><time>2026-04-15T07:51:51.288Z</time></trkpt><trkpt lat="45.8065265" lon="13.517661"><ele>7.0</ele><time>2026-04-15T07:51:52.268Z</time></trkpt><trkpt lat="45.8065279" lon="13.5174885"><ele>7.5</ele><time>2026-04-15T07:51:53.283Z</time></trkpt><trkpt lat="45.8065502" lon="13.5173023"><ele>8.0</ele><time>2026-04-15T07:51:54.295Z</time></trkpt><trkpt lat="45.8065781" lon="13.5171016"><ele>7.75</ele><time>2026-04-15T07:51:55.282Z</time></trkpt><trkpt lat="45.8066101" lon="13.5168962"><ele>7.5</ele><time>2026-04-15T07:51:56.27Z</time></trkpt><trkpt lat="45.8066429" lon="13.5166934"><ele>7.25</ele><time>2026-04-15T07:51:57.27Z</time></trkpt><trkpt lat="45.8066745" lon="13.5164864"><ele>7.0</ele><time>2026-04-15T07:51:58.277Z</time></trkpt><trkpt lat="45.8067043" lon="13.5162834"><ele>6.5</ele><time>2026-04-15T07:51:59.277Z</time></trkpt><trkpt lat="45.8067262" lon="13.51611"><ele>6.0</ele><time>2026-04-15T07:52:00.273Z</time></trkpt><trkpt lat="45.8067367" lon="13.5159492"><ele>5.5</ele><time>2026-04-15T07:52:01.272Z</time></trkpt><trkpt lat="45.8067405" lon="13.5157724"><ele>5.0</ele><time>2026-04-15T07:52:02.274Z</time></trkpt><trkpt lat="45.8067431" lon="13.5155942"><ele>4.75</ele><time>2026-04-15T07:52:03.282Z</time></trkpt><trkpt lat="45.8067479" lon="13.5154004"><ele>4.5</ele><time>2026-04-15T07:52:04.274Z</time></trkpt><trkpt lat="45.8067475" lon="13.5151938"><ele>4.25</ele><time>2026-04-15T07:52:05.273Z</time></trkpt><trkpt lat="45.8067493" lon="13.5149839"><ele>4.0</ele><time>2026-04-15T07:52:06.282Z</time></trkpt><trkpt lat="45.8067446" lon="13.5147593"><ele>4.333333333333333</ele><time>2026-04-15T07:52:07.286Z</time></trkpt><trkpt lat="45.8067348" lon="13.5145365"><ele>4.666666666666667</ele><time>2026-04-15T07:52:08.276Z</time></trkpt><trkpt lat="45.8067127" lon="13.5143154"><ele>5.0</ele><time>2026-04-15T07:52:09.298Z</time></trkpt><trkpt lat="45.8066856" lon="13.514101"><ele>5.0</ele><time>2026-04-15T07:52:10.278Z</time></trkpt><trkpt lat="45.8066453" lon="13.5139001"><ele>5.0</ele><time>2026-04-15T07:52:11.287Z</time></trkpt><trkpt lat="45.8065937" lon="13.5137017"><ele>5.0</ele><time>2026-04-15T07:52:12.271Z</time></trkpt><trkpt lat="45.8065332" lon="13.5134972"><ele>5.0</ele><time>2026-04-15T07:52:13.276Z</time></trkpt><trkpt lat="45.8064671" lon="13.5133056"><ele>4.75</ele><time>2026-04-15T07:52:14.273Z</time></trkpt><trkpt lat="45.8063935" lon="13.5131165"><ele>4.5</ele><time>2026-04-15T07:52:15.27Z</time></trkpt><trkpt lat="45.8063209" lon="13.5129371"><ele>4.25</ele><time>2026-04-15T07:52:16.293Z</time></trkpt><trkpt lat="45.8062547" lon="13.5127467"><ele>4.0</ele><time>2026-04-15T07:52:17.28Z</time></trkpt><trkpt lat="45.8061874" lon="13.5125596"><ele>4.0</ele><time>2026-04-15T07:52:18.28Z</time></trkpt><trkpt lat="45.8061289" lon="13.5123669"><ele>4.0</ele><time>2026-04-15T07:52:19.272Z</time></trkpt><trkpt lat="45.8060889" lon="13.5121671"><ele>4.0</ele><time>2026-04-15T07:52:20.277Z</time></trkpt><trkpt lat="45.8060451" lon="13.5117421"><ele>4.0</ele><time>2026-04-15T07:52:22.281Z</time></trkpt><trkpt lat="45.8060341" lon="13.5115234"><ele>4.0</ele><time>2026-04-15T07:52:23.284Z</time></trkpt><trkpt lat="45.8060197" lon="13.511304"><ele>4.0</ele><time>2026-04-15T07:52:24.283Z</time></trkpt><trkpt lat="45.80599" lon="13.5108961"><ele>4.0</ele><time>2026-04-15T07:52:26.269Z</time></trkpt><trkpt lat="45.8059755" lon="13.5107245"><ele>4.0</ele><time>2026-04-15T07:52:27.289Z</time></trkpt><trkpt lat="45.8059601" lon="13.5105606"><ele>4.0</ele><time>2026-04-15T07:52:28.271Z</time></trkpt><trkpt lat="45.8059355" lon="13.5104221"><ele>4.0</ele><time>2026-04-15T07:52:29.284Z</time></trkpt><trkpt lat="45.8058983" lon="13.5103092"><ele>4.0</ele><time>2026-04-15T07:52:30.295Z</time></trkpt><trkpt lat="45.8058715" lon="13.510213"><ele>4.0</ele><time>2026-04-15T07:52:31.284Z</time></trkpt><trkpt lat="45.8058427" lon="13.5101219"><ele>3.9999999999999996</ele><time>2026-04-15T07:52:32.281Z</time></trkpt><trkpt lat="45.8058123" lon="13.5100381"><ele>4.0</ele><time>2026-04-15T07:52:33.276Z</time></trkpt><trkpt lat="45.8057796" lon="13.5099405"><ele>4.0</ele><time>2026-04-15T07:52:34.289Z</time></trkpt><trkpt lat="45.805747" lon="13.5098403"><ele>3.9999999999999996</ele><time>2026-04-15T07:52:35.277Z</time></trkpt><trkpt lat="45.8057185" lon="13.5097344"><ele>4.0</ele><time>2026-04-15T07:52:36.276Z</time></trkpt><trkpt lat="45.805698" lon="13.5096365"><ele>4.0</ele><time>2026-04-15T07:52:37.275Z</time></trkpt><trkpt lat="45.8056816" lon="13.5095357"><ele>4.0</ele><time>2026-04-15T07:52:38.281Z</time></trkpt><trkpt lat="45.8056674" lon="13.5094211"><ele>4.0</ele><time>2026-04-15T07:52:39.275Z</time></trkpt><trkpt lat="45.8056511" lon="13.5092669"><ele>4.0</ele><time>2026-04-15T07:52:40.271Z</time></trkpt><trkpt lat="45.8056535" lon="13.5090822"><ele>4.0</ele><time>2026-04-15T07:52:41.276Z</time></trkpt><trkpt lat="45.8056693" lon="13.5088894"><ele>4.0</ele><time>2026-04-15T07:52:42.286Z</time></trkpt><trkpt lat="45.8056921" lon="13.5086798"><ele>4.0</ele><time>2026-04-15T07:52:43.278Z</time></trkpt><trkpt lat="45.8056996" lon="13.5084544"><ele>4.0</ele><time>2026-04-15T07:52:44.271Z</time></trkpt><trkpt lat="45.8057132" lon="13.5082337"><ele>4.0</ele><time>2026-04-15T07:52:45.28Z</time></trkpt><trkpt lat="45.8057219" lon="13.508008"><ele>4.0</ele><time>2026-04-15T07:52:46.269Z</time></trkpt><trkpt lat="45.8057369" lon="13.5077772"><ele>4.0</ele><time>2026-04-15T07:52:47.276Z</time></trkpt><trkpt lat="45.8057406" lon="13.5075448"><ele>4.0</ele><time>2026-04-15T07:52:48.299Z</time></trkpt><trkpt lat="45.8057464" lon="13.5073179"><ele>4.0</ele><time>2026-04-15T07:52:49.286Z</time></trkpt><trkpt lat="45.8057537" lon="13.5070969"><ele>4.0</ele><time>2026-04-15T07:52:50.291Z</time></trkpt><trkpt lat="45.8057615" lon="13.5068851"><ele>4.0</ele><time>2026-04-15T07:52:51.282Z</time></trkpt><trkpt lat="45.8057715" lon="13.5066847"><ele>4.0</ele><time>2026-04-15T07:52:52.277Z</time></trkpt><trkpt lat="45.8057793" lon="13.5065051"><ele>4.0</ele><time>2026-04-15T07:52:53.274Z</time></trkpt><trkpt lat="45.8057949" lon="13.5063357"><ele>4.0</ele><time>2026-04-15T07:52:54.29Z</time></trkpt><trkpt lat="45.805821" lon="13.5061704"><ele>4.0</ele><time>2026-04-15T07:52:55.29Z</time></trkpt><trkpt lat="45.8058609" lon="13.5060141"><ele>4.0</ele><time>2026-04-15T07:52:56.275Z</time></trkpt><trkpt lat="45.8059191" lon="13.5058635"><ele>4.0</ele><time>2026-04-15T07:52:57.276Z</time></trkpt><trkpt lat="45.8059805" lon="13.5057271"><ele>4.0</ele><time>2026-04-15T07:52:58.274Z</time></trkpt><trkpt lat="45.8060212" lon="13.5055973"><ele>4.0</ele><time>2026-04-15T07:52:59.281Z</time></trkpt><trkpt lat="45.8060082" lon="13.505464"><ele>4.0</ele><time>2026-04-15T07:53:00.276Z</time></trkpt><trkpt lat="45.8059549" lon="13.5053642"><ele>4.0</ele><time>2026-04-15T07:53:01.28Z</time></trkpt><trkpt lat="45.8058725" lon="13.5053002"><ele>4.0</ele><time>2026-04-15T07:53:02.274Z</time></trkpt><trkpt lat="45.8057985" lon="13.5052137"><ele>4.0</ele><time>2026-04-15T07:53:03.271Z</time></trkpt><trkpt lat="45.8057293" lon="13.5050576"><ele>4.0</ele><time>2026-04-15T07:53:04.276Z</time></trkpt><trkpt lat="45.8056787" lon="13.5048857"><ele>4.0</ele><time>2026-04-15T07:53:05.298Z</time></trkpt><trkpt lat="45.8056231" lon="13.5046985"><ele>4.0</ele><time>2026-04-15T07:53:06.286Z</time></trkpt><trkpt lat="45.8055486" lon="13.504518"><ele>4.0</ele><time>2026-04-15T07:53:07.278Z</time></trkpt><trkpt lat="45.805377" lon="13.5041767"><ele>4.25</ele><time>2026-04-15T07:53:09.28Z</time></trkpt><trkpt lat="45.8052947" lon="13.5040098"><ele>4.5</ele><time>2026-04-15T07:53:10.273Z</time></trkpt><trkpt lat="45.8052201" lon="13.5038441"><ele>4.75</ele><time>2026-04-15T07:53:11.269Z</time></trkpt><trkpt lat="45.8051455" lon="13.5036886"><ele>5.0</ele><time>2026-04-15T07:53:12.268Z</time></trkpt><trkpt lat="45.8050666" lon="13.5035312"><ele>5.0</ele><time>2026-04-15T07:53:13.279Z</time></trkpt><trkpt lat="45.8049926" lon="13.5033718"><ele>5.0</ele><time>2026-04-15T07:53:14.275Z</time></trkpt><trkpt lat="45.8049192" lon="13.5032081"><ele>5.0</ele><time>2026-04-15T07:53:15.271Z</time></trkpt><trkpt lat="45.8048449" lon="13.5030508"><ele>5.0</ele><time>2026-04-15T07:53:16.267Z</time></trkpt><trkpt lat="45.8047688" lon="13.502896"><ele>5.25</ele><time>2026-04-15T07:53:17.278Z</time></trkpt><trkpt lat="45.8046907" lon="13.5027358"><ele>5.5</ele><time>2026-04-15T07:53:18.279Z</time></trkpt><trkpt lat="45.8046114" lon="13.5025713"><ele>5.75</ele><time>2026-04-15T07:53:19.279Z</time></trkpt><trkpt lat="45.8045329" lon="13.5024017"><ele>6.0</ele><time>2026-04-15T07:53:20.279Z</time></trkpt><trkpt lat="45.8044509" lon="13.5022287"><ele>5.75</ele><time>2026-04-15T07:53:21.278Z</time></trkpt><trkpt lat="45.8043701" lon="13.5020482"><ele>5.5</ele><time>2026-04-15T07:53:22.276Z</time></trkpt><trkpt lat="45.8042977" lon="13.5018667"><ele>5.25</ele><time>2026-04-15T07:53:23.288Z</time></trkpt><trkpt lat="45.8042431" lon="13.5016922"><ele>5.0</ele><time>2026-04-15T07:53:24.265Z</time></trkpt><trkpt lat="45.8042038" lon="13.5015444"><ele>4.8</ele><time>2026-04-15T07:53:25.271Z</time></trkpt><trkpt lat="45.8041696" lon="13.5014051"><ele>4.6</ele><time>2026-04-15T07:53:26.27Z</time></trkpt><trkpt lat="45.8041456" lon="13.5013053"><ele>4.4</ele><time>2026-04-15T07:53:27.274Z</time></trkpt><trkpt lat="45.8041194" lon="13.5012124"><ele>4.2</ele><time>2026-04-15T07:53:30.264Z</time></trkpt><trkpt lat="45.8041349" lon="13.5009852"><ele>4.0</ele><time>2026-04-15T07:54:16.263Z</time></trkpt><trkpt lat="45.8041076" lon="13.5008073"><ele>3.75</ele><time>2026-04-15T07:54:17.275Z</time></trkpt><trkpt lat="45.8040881" lon="13.5006148"><ele>3.5</ele><time>2026-04-15T07:54:18.271Z</time></trkpt><trkpt lat="45.8040694" lon="13.5003983"><ele>3.25</ele><time>2026-04-15T07:54:19.267Z</time></trkpt><trkpt lat="45.8040697" lon="13.5001918"><ele>3.0</ele><time>2026-04-15T07:54:20.315Z</time></trkpt><trkpt lat="45.8040807" lon="13.4999859"><ele>3.0</ele><time>2026-04-15T07:54:21.271Z</time></trkpt><trkpt lat="45.8041057" lon="13.4997803"><ele>3.0</ele><time>2026-04-15T07:54:22.272Z</time></trkpt><trkpt lat="45.8041452" lon="13.4995729"><ele>3.0</ele><time>2026-04-15T07:54:23.281Z</time></trkpt><trkpt lat="45.8041997" lon="13.4993629"><ele>3.0</ele><time>2026-04-15T07:54:24.276Z</time></trkpt><trkpt lat="45.8042688" lon="13.4991652"><ele>3.0</ele><time>2026-04-15T07:54:25.291Z</time></trkpt><trkpt lat="45.8043431" lon="13.4989691"><ele>3.0</ele><time>2026-04-15T07:54:26.264Z</time></trkpt><trkpt lat="45.8044312" lon="13.4987854"><ele>3.333333333333333</ele><time>2026-04-15T07:54:27.269Z</time></trkpt><trkpt lat="45.8045196" lon="13.4986021"><ele>3.6666666666666665</ele><time>2026-04-15T07:54:28.269Z</time></trkpt><trkpt lat="45.8046089" lon="13.4984271"><ele>4.0</ele><time>2026-04-15T07:54:29.264Z</time></trkpt><trkpt lat="45.8046955" lon="13.4982543"><ele>4.0</ele><time>2026-04-15T07:54:30.27Z</time></trkpt><trkpt lat="45.804777" lon="13.4980847"><ele>4.0</ele><time>2026-04-15T07:54:31.286Z</time></trkpt><trkpt lat="45.8048591" lon="13.4979198"><ele>4.0</ele><time>2026-04-15T07:54:32.268Z</time></trkpt><trkpt lat="45.8049396" lon="13.4977591"><ele>4.0</ele><time>2026-04-15T07:54:33.268Z</time></trkpt><trkpt lat="45.8050177" lon="13.4976058"><ele>4.0</ele><time>2026-04-15T07:54:34.273Z</time></trkpt><trkpt lat="45.805095" lon="13.4974529"><ele>4.0</ele><time>2026-04-15T07:54:35.283Z</time></trkpt><trkpt lat="45.8051691" lon="13.4972912"><ele>4.0</ele><time>2026-04-15T07:54:36.265Z</time></trkpt><trkpt lat="45.8052414" lon="13.4971175"><ele>4.0</ele><time>2026-04-15T07:54:37.268Z</time></trkpt><trkpt lat="45.8053125" lon="13.4969419"><ele>4.25</ele><time>2026-04-15T07:54:38.269Z</time></trkpt><trkpt lat="45.8053823" lon="13.4967676"><ele>4.5</ele><time>2026-04-15T07:54:39.263Z</time></trkpt><trkpt lat="45.8054507" lon="13.4966034"><ele>4.75</ele><time>2026-04-15T07:54:40.283Z</time></trkpt><trkpt lat="45.8055158" lon="13.4964374"><ele>5.0</ele><time>2026-04-15T07:54:41.266Z</time></trkpt><trkpt lat="45.8055794" lon="13.4962729"><ele>5.0</ele><time>2026-04-15T07:54:42.275Z</time></trkpt><trkpt lat="45.8056425" lon="13.496105"><ele>5.0</ele><time>2026-04-15T07:54:43.268Z</time></trkpt><trkpt lat="45.805707" lon="13.4959338"><ele>5.0</ele><time>2026-04-15T07:54:44.273Z</time></trkpt><trkpt lat="45.8057802" lon="13.4957658"><ele>5.0</ele><time>2026-04-15T07:54:45.275Z</time></trkpt><trkpt lat="45.8058544" lon="13.4955905"><ele>5.0</ele><time>2026-04-15T07:54:46.264Z</time></trkpt><trkpt lat="45.8059223" lon="13.4954103"><ele>5.0</ele><time>2026-04-15T07:54:47.265Z</time></trkpt><trkpt lat="45.8059853" lon="13.4952219"><ele>5.0</ele><time>2026-04-15T07:54:48.269Z</time></trkpt><trkpt lat="45.806039" lon="13.4950258"><ele>5.0</ele><time>2026-04-15T07:54:49.265Z</time></trkpt><trkpt lat="45.8060863" lon="13.4948221"><ele>4.5</ele><time>2026-04-15T07:54:50.267Z</time></trkpt><trkpt lat="45.8061203" lon="13.4946251"><ele>4.0</ele><time>2026-04-15T07:54:51.274Z</time></trkpt><trkpt lat="45.8061305" lon="13.4944274"><ele>3.5</ele><time>2026-04-15T07:54:52.275Z</time></trkpt><trkpt lat="45.8061125" lon="13.4942212"><ele>3.0</ele><time>2026-04-15T07:54:53.269Z</time></trkpt><trkpt lat="45.806084" lon="13.4940066"><ele>3.0</ele><time>2026-04-15T07:54:54.274Z</time></trkpt><trkpt lat="45.8060515" lon="13.493785"><ele>3.0</ele><time>2026-04-15T07:54:55.261Z</time></trkpt><trkpt lat="45.8060324" lon="13.4935822"><ele>3.0</ele><time>2026-04-15T07:54:56.271Z</time></trkpt><trkpt lat="45.8060059" lon="13.4933694"><ele>3.25</ele><time>2026-04-15T07:54:57.273Z</time></trkpt><trkpt lat="45.8059845" lon="13.4931611"><ele>3.5</ele><time>2026-04-15T07:54:58.266Z</time></trkpt><trkpt lat="45.8059654" lon="13.4929574"><ele>3.75</ele><time>2026-04-15T07:54:59.283Z</time></trkpt><trkpt lat="45.8059441" lon="13.4927607"><ele>4.0</ele><time>2026-04-15T07:55:00.266Z</time></trkpt><trkpt lat="45.8059226" lon="13.4925786"><ele>4.25</ele><time>2026-04-15T07:55:01.286Z</time></trkpt><trkpt lat="45.8059002" lon="13.4923947"><ele>4.5</ele><time>2026-04-15T07:55:02.267Z</time></trkpt><trkpt lat="45.8058832" lon="13.492222"><ele>4.75</ele><time>2026-04-15T07:55:03.272Z</time></trkpt><trkpt lat="45.8058629" lon="13.4920495"><ele>5.0</ele><time>2026-04-15T07:55:04.282Z</time></trkpt><trkpt lat="45.8058412" lon="13.4918777"><ele>4.5</ele><time>2026-04-15T07:55:05.265Z</time></trkpt><trkpt lat="45.8058224" lon="13.4917128"><ele>4.0</ele><time>2026-04-15T07:55:06.28Z</time></trkpt><trkpt lat="45.8058006" lon="13.4915548"><ele>3.5</ele><time>2026-04-15T07:55:07.279Z</time></trkpt><trkpt lat="45.8057847" lon="13.4913918"><ele>3.0</ele><time>2026-04-15T07:55:08.265Z</time></trkpt><trkpt lat="45.805769" lon="13.4912275"><ele>2.75</ele><time>2026-04-15T07:55:09.275Z</time></trkpt><trkpt lat="45.8057542" lon="13.4910619"><ele>2.5</ele><time>2026-04-15T07:55:10.279Z</time></trkpt><trkpt lat="45.8057358" lon="13.4908887"><ele>2.25</ele><time>2026-04-15T07:55:11.272Z</time></trkpt><trkpt lat="45.8057163" lon="13.4907082"><ele>2.0</ele><time>2026-04-15T07:55:12.29Z</time></trkpt><trkpt lat="45.8056997" lon="13.4905255"><ele>2.5</ele><time>2026-04-15T07:55:13.264Z</time></trkpt><trkpt lat="45.8056849" lon="13.4903482"><ele>3.0</ele><time>2026-04-15T07:55:14.28Z</time></trkpt><trkpt lat="45.80567" lon="13.4901712"><ele>3.5</ele><time>2026-04-15T07:55:15.273Z</time></trkpt><trkpt lat="45.8056602" lon="13.4900078"><ele>4.0</ele><time>2026-04-15T07:55:16.268Z</time></trkpt><trkpt lat="45.8056446" lon="13.4898438"><ele>4.0</ele><time>2026-04-15T07:55:17.273Z</time></trkpt><trkpt lat="45.8056255" lon="13.4896912"><ele>4.0</ele><time>2026-04-15T07:55:18.275Z</time></trkpt><trkpt lat="45.8056091" lon="13.4895424"><ele>4.0</ele><time>2026-04-15T07:55:19.28Z</time></trkpt><trkpt lat="45.8055972" lon="13.4894021"><ele>4.0</ele><time>2026-04-15T07:55:20.271Z</time></trkpt><trkpt lat="45.8055881" lon="13.4892641"><ele>4.0</ele><time>2026-04-15T07:55:21.277Z</time></trkpt><trkpt lat="45.8055765" lon="13.48915"><ele>3.833333333333333</ele><time>2026-04-15T07:55:22.276Z</time></trkpt><trkpt lat="45.805566" lon="13.4890594"><ele>3.6666666666666665</ele><time>2026-04-15T07:55:23.267Z</time></trkpt><trkpt lat="45.8055508" lon="13.4889461"><ele>3.5</ele><time>2026-04-15T07:55:25.259Z</time></trkpt><trkpt lat="45.8055404" lon="13.4888369"><ele>3.333333333333333</ele><time>2026-04-15T07:55:27.27Z</time></trkpt><trkpt lat="45.8055336" lon="13.4887431"><ele>3.1666666666666665</ele><time>2026-04-15T07:55:30.27Z</time></trkpt><trkpt lat="45.805541" lon="13.4886045"><ele>3.0</ele><time>2026-04-15T07:55:36.289Z</time></trkpt><trkpt lat="45.8055674" lon="13.4884903"><ele>3.0</ele><time>2026-04-15T07:55:38.276Z</time></trkpt><trkpt lat="45.8056072" lon="13.4884138"><ele>3.0</ele><time>2026-04-15T07:55:39.274Z</time></trkpt><trkpt lat="45.8056501" lon="13.4883069"><ele>3.0</ele><time>2026-04-15T07:55:40.267Z</time></trkpt><trkpt lat="45.8056708" lon="13.4881865"><ele>3.0</ele><time>2026-04-15T07:55:41.272Z</time></trkpt><trkpt lat="45.8056549" lon="13.4880176"><ele>3.0</ele><time>2026-04-15T07:55:42.285Z</time></trkpt><trkpt lat="45.8055961" lon="13.4878424"><ele>3.25</ele><time>2026-04-15T07:55:43.259Z</time></trkpt><trkpt lat="45.8055062" lon="13.487676"><ele>3.5</ele><time>2026-04-15T07:55:44.266Z</time></trkpt><trkpt lat="45.8054093" lon="13.4875046"><ele>3.75</ele><time>2026-04-15T07:55:45.266Z</time></trkpt><trkpt lat="45.8053199" lon="13.4873522"><ele>4.0</ele><time>2026-04-15T07:55:46.273Z</time></trkpt><trkpt lat="45.8052113" lon="13.4871953"><ele>3.333333333333333</ele><time>2026-04-15T07:55:47.274Z</time></trkpt><trkpt lat="45.8050946" lon="13.4870442"><ele>2.6666666666666665</ele><time>2026-04-15T07:55:48.262Z</time></trkpt><trkpt lat="45.804966" lon="13.4868924"><ele>2.0</ele><time>2026-04-15T07:55:49.268Z</time></trkpt><trkpt lat="45.8048334" lon="13.4867416"><ele>2.0</ele><time>2026-04-15T07:55:50.271Z</time></trkpt><trkpt lat="45.8047013" lon="13.4865966"><ele>2.0</ele><time>2026-04-15T07:55:51.269Z</time></trkpt><trkpt lat="45.804564" lon="13.4864514"><ele>2.0</ele><time>2026-04-15T07:55:52.263Z</time></trkpt><trkpt lat="45.8044405" lon="13.4863095"><ele>2.75</ele><time>2026-04-15T07:55:53.275Z</time></trkpt><trkpt lat="45.8043158" lon="13.4861745"><ele>3.5</ele><time>2026-04-15T07:55:54.272Z</time></trkpt><trkpt lat="45.8042025" lon="13.4860463"><ele>4.25</ele><time>2026-04-15T07:55:55.271Z</time></trkpt><trkpt lat="45.8040938" lon="13.485921"><ele>5.0</ele><time>2026-04-15T07:55:56.282Z</time></trkpt><trkpt lat="45.8039876" lon="13.4858"><ele>5.0</ele><time>2026-04-15T07:55:57.271Z</time></trkpt><trkpt lat="45.8038813" lon="13.4856807"><ele>5.0</ele><time>2026-04-15T07:55:58.263Z</time></trkpt><trkpt lat="45.8037809" lon="13.4855684"><ele>5.0</ele><time>2026-04-15T07:55:59.272Z</time></trkpt><trkpt lat="45.8036862" lon="13.4854542"><ele>5.0</ele><time>2026-04-15T07:56:00.265Z</time></trkpt><trkpt lat="45.8035891" lon="13.4853449"><ele>4.75</ele><time>2026-04-15T07:56:01.273Z</time></trkpt><trkpt lat="45.8034947" lon="13.485226"><ele>4.5</ele><time>2026-04-15T07:56:02.273Z</time></trkpt><trkpt lat="45.8034054" lon="13.4851039"><ele>4.25</ele><time>2026-04-15T07:56:03.274Z</time></trkpt><trkpt lat="45.8033216" lon="13.4849787"><ele>4.0</ele><time>2026-04-15T07:56:04.262Z</time></trkpt><trkpt lat="45.8032432" lon="13.484844"><ele>4.0</ele><time>2026-04-15T07:56:05.259Z</time></trkpt><trkpt lat="45.8031698" lon="13.4847023"><ele>4.0</ele><time>2026-04-15T07:56:06.272Z</time></trkpt><trkpt lat="45.8031035" lon="13.4845585"><ele>4.0</ele><time>2026-04-15T07:56:07.265Z</time></trkpt><trkpt lat="45.8030483" lon="13.4844125"><ele>4.0</ele><time>2026-04-15T07:56:08.267Z</time></trkpt><trkpt lat="45.8030043" lon="13.4842593"><ele>4.0</ele><time>2026-04-15T07:56:09.263Z</time></trkpt><trkpt lat="45.8029624" lon="13.4841092"><ele>4.0</ele><time>2026-04-15T07:56:10.279Z</time></trkpt><trkpt lat="45.8029284" lon="13.4839561"><ele>4.0</ele><time>2026-04-15T07:56:11.272Z</time></trkpt><trkpt lat="45.802899" lon="13.4837974"><ele>4.0</ele><time>2026-04-15T07:56:12.277Z</time></trkpt><trkpt lat="45.8028714" lon="13.4836417"><ele>4.0</ele><time>2026-04-15T07:56:13.266Z</time></trkpt><trkpt lat="45.8028431" lon="13.4834847"><ele>4.0</ele><time>2026-04-15T07:56:14.287Z</time></trkpt><trkpt lat="45.8028151" lon="13.4833314"><ele>4.0</ele><time>2026-04-15T07:56:15.281Z</time></trkpt><trkpt lat="45.8027842" lon="13.4831668"><ele>4.0</ele><time>2026-04-15T07:56:16.282Z</time></trkpt><trkpt lat="45.8027535" lon="13.4830005"><ele>3.75</ele><time>2026-04-15T07:56:17.275Z</time></trkpt><trkpt lat="45.8027209" lon="13.4828294"><ele>3.5</ele><time>2026-04-15T07:56:18.287Z</time></trkpt><trkpt lat="45.8026938" lon="13.4826671"><ele>3.25</ele><time>2026-04-15T07:56:19.271Z</time></trkpt><trkpt lat="45.8026663" lon="13.4825087"><ele>3.0</ele><time>2026-04-15T07:56:20.258Z</time></trkpt><trkpt lat="45.8026389" lon="13.4823537"><ele>3.0</ele><time>2026-04-15T07:56:21.263Z</time></trkpt><trkpt lat="45.8026076" lon="13.4821939"><ele>3.0</ele><time>2026-04-15T07:56:22.268Z</time></trkpt><trkpt lat="45.8025788" lon="13.4820315"><ele>3.0</ele><time>2026-04-15T07:56:23.271Z</time></trkpt><trkpt lat="45.8025496" lon="13.481869"><ele>3.0</ele><time>2026-04-15T07:56:24.273Z</time></trkpt><trkpt lat="45.8025198" lon="13.4817025"><ele>3.0</ele><time>2026-04-15T07:56:25.274Z</time></trkpt><trkpt lat="45.8024915" lon="13.4815324"><ele>3.0</ele><time>2026-04-15T07:56:26.269Z</time></trkpt><trkpt lat="45.8024593" lon="13.4813576"><ele>3.0</ele><time>2026-04-15T07:56:27.26Z</time></trkpt><trkpt lat="45.8024291" lon="13.4811797"><ele>3.0</ele><time>2026-04-15T07:56:28.268Z</time></trkpt><trkpt lat="45.8023949" lon="13.4810035"><ele>2.75</ele><time>2026-04-15T07:56:29.278Z</time></trkpt><trkpt lat="45.8023593" lon="13.4808178"><ele>2.5</ele><time>2026-04-15T07:56:30.259Z</time></trkpt><trkpt lat="45.8023232" lon="13.4806177"><ele>2.25</ele><time>2026-04-15T07:56:31.268Z</time></trkpt><trkpt lat="45.8022868" lon="13.4804025"><ele>2.0</ele><time>2026-04-15T07:56:32.266Z</time></trkpt><trkpt lat="45.8022383" lon="13.4801754"><ele>2.0</ele><time>2026-04-15T07:56:33.263Z</time></trkpt><trkpt lat="45.8021877" lon="13.4799203"><ele>2.0</ele><time>2026-04-15T07:56:34.255Z</time></trkpt><trkpt lat="45.8021435" lon="13.479637"><ele>2.0</ele><time>2026-04-15T07:56:35.265Z</time></trkpt><trkpt lat="45.8021061" lon="13.4793567"><ele>2.0</ele><time>2026-04-15T07:56:36.264Z</time></trkpt><trkpt lat="45.8020574" lon="13.479076"><ele>2.0</ele><time>2026-04-15T07:56:37.274Z</time></trkpt><trkpt lat="45.8020064" lon="13.4788025"><ele>2.0</ele><time>2026-04-15T07:56:38.263Z</time></trkpt><trkpt lat="45.8019536" lon="13.47853"><ele>2.0</ele><time>2026-04-15T07:56:39.269Z</time></trkpt><trkpt lat="45.8018981" lon="13.4782733"><ele>2.0</ele><time>2026-04-15T07:56:40.271Z</time></trkpt><trkpt lat="45.8018485" lon="13.4780231"><ele>2.0</ele><time>2026-04-15T07:56:41.275Z</time></trkpt><trkpt lat="45.8018025" lon="13.4777763"><ele>2.0</ele><time>2026-04-15T07:56:42.262Z</time></trkpt><trkpt lat="45.8017584" lon="13.4775325"><ele>2.0</ele><time>2026-04-15T07:56:43.261Z</time></trkpt><trkpt lat="45.8017148" lon="13.4772866"><ele>2.0</ele><time>2026-04-15T07:56:44.265Z</time></trkpt><trkpt lat="45.8016717" lon="13.4770419"><ele>2.6666666666666665</ele><time>2026-04-15T07:56:45.273Z</time></trkpt><trkpt lat="45.801627" lon="13.4767949"><ele>3.333333333333333</ele><time>2026-04-15T07:56:46.272Z</time></trkpt><trkpt lat="45.8015815" lon="13.4765537"><ele>4.0</ele><time>2026-04-15T07:56:47.272Z</time></trkpt><trkpt lat="45.8015368" lon="13.4763072"><ele>3.0</ele><time>2026-04-15T07:56:48.266Z</time></trkpt><trkpt lat="45.8014902" lon="13.4760513"><ele>2.0</ele><time>2026-04-15T07:56:49.273Z</time></trkpt><trkpt lat="45.8014447" lon="13.4757847"><ele>1.0</ele><time>2026-04-15T07:56:50.268Z</time></trkpt><trkpt lat="45.8014007" lon="13.4755183"><ele>0.3333333333333333</ele><time>2026-04-15T07:56:51.273Z</time></trkpt><trkpt lat="45.8013594" lon="13.4752532"><ele>-0.3333333333333333</ele><time>2026-04-15T07:56:52.268Z</time></trkpt><trkpt lat="45.8013221" lon="13.4749868"><ele>-1.0</ele><time>2026-04-15T07:56:53.264Z</time></trkpt><trkpt lat="45.8012785" lon="13.4747232"><ele>0.33333333333333337</ele><time>2026-04-15T07:56:54.269Z</time></trkpt><trkpt lat="45.8012384" lon="13.4744621"><ele>1.6666666666666667</ele><time>2026-04-15T07:56:55.279Z</time></trkpt><trkpt lat="45.8011958" lon="13.4741909"><ele>3.0</ele><time>2026-04-15T07:56:56.27Z</time></trkpt><trkpt lat="45.8011498" lon="13.4739157"><ele>3.0</ele><time>2026-04-15T07:56:57.268Z</time></trkpt><trkpt lat="45.8011069" lon="13.4736351"><ele>3.0</ele><time>2026-04-15T07:56:58.264Z</time></trkpt><trkpt lat="45.8010629" lon="13.473352"><ele>3.0</ele><time>2026-04-15T07:56:59.258Z</time></trkpt><trkpt lat="45.8010164" lon="13.473077"><ele>2.6666666666666665</ele><time>2026-04-15T07:57:00.259Z</time></trkpt><trkpt lat="45.8009521" lon="13.4728114"><ele>2.333333333333333</ele><time>2026-04-15T07:57:01.254Z</time></trkpt><trkpt lat="45.8008667" lon="13.4725573"><ele>2.0</ele><time>2026-04-15T07:57:02.259Z</time></trkpt><trkpt lat="45.8007598" lon="13.4723266"><ele>1.3333333333333333</ele><time>2026-04-15T07:57:03.263Z</time></trkpt><trkpt lat="45.8006445" lon="13.4721046"><ele>0.6666666666666666</ele><time>2026-04-15T07:57:04.268Z</time></trkpt><trkpt lat="45.8005259" lon="13.4718806"><ele>0.0</ele><time>2026-04-15T07:57:05.261Z</time></trkpt><trkpt lat="45.8004163" lon="13.4716586"><ele>0.0</ele><time>2026-04-15T07:57:06.256Z</time></trkpt><trkpt lat="45.8003091" lon="13.4714396"><ele>0.0</ele><time>2026-04-15T07:57:07.262Z</time></trkpt><trkpt lat="45.8002007" lon="13.4712231"><ele>0.0</ele><time>2026-04-15T07:57:08.271Z</time></trkpt><trkpt lat="45.800102" lon="13.4710081"><ele>0.6666666666666666</ele><time>2026-04-15T07:57:09.268Z</time></trkpt><trkpt lat="45.8000076" lon="13.470799"><ele>1.3333333333333333</ele><time>2026-04-15T07:57:10.267Z</time></trkpt><trkpt lat="45.799917" lon="13.4705963"><ele>2.0</ele><time>2026-04-15T07:57:11.275Z</time></trkpt><trkpt lat="45.7998399" lon="13.4703855"><ele>2.0</ele><time>2026-04-15T07:57:12.27Z</time></trkpt><trkpt lat="45.7997806" lon="13.4701673"><ele>2.0</ele><time>2026-04-15T07:57:13.266Z</time></trkpt><trkpt lat="45.7997333" lon="13.469942"><ele>2.0</ele><time>2026-04-15T07:57:14.266Z</time></trkpt><trkpt lat="45.7996942" lon="13.4697294"><ele>1.75</ele><time>2026-04-15T07:57:15.268Z</time></trkpt><trkpt lat="45.7996593" lon="13.4695272"><ele>1.5</ele><time>2026-04-15T07:57:16.26Z</time></trkpt><trkpt lat="45.799631" lon="13.4693369"><ele>1.25</ele><time>2026-04-15T07:57:17.275Z</time></trkpt><trkpt lat="45.799604" lon="13.4691579"><ele>1.0</ele><time>2026-04-15T07:57:18.266Z</time></trkpt><trkpt lat="45.7995809" lon="13.4689874"><ele>1.0</ele><time>2026-04-15T07:57:19.267Z</time></trkpt><trkpt lat="45.7995592" lon="13.4688282"><ele>1.0</ele><time>2026-04-15T07:57:20.256Z</time></trkpt><trkpt lat="45.7995392" lon="13.468688"><ele>1.0</ele><time>2026-04-15T07:57:21.28Z</time></trkpt><trkpt lat="45.7995197" lon="13.4685454"><ele>1.0</ele><time>2026-04-15T07:57:22.258Z</time></trkpt><trkpt lat="45.7994965" lon="13.4684013"><ele>1.0</ele><time>2026-04-15T07:57:23.262Z</time></trkpt><trkpt lat="45.7994741" lon="13.4682573"><ele>1.0</ele><time>2026-04-15T07:57:24.27Z</time></trkpt><trkpt lat="45.7994606" lon="13.4681149"><ele>1.0</ele><time>2026-04-15T07:57:25.268Z</time></trkpt><trkpt lat="45.7994412" lon="13.4679688"><ele>1.0</ele><time>2026-04-15T07:57:26.281Z</time></trkpt><trkpt lat="45.799421" lon="13.4678252"><ele>1.0</ele><time>2026-04-15T07:57:27.261Z</time></trkpt><trkpt lat="45.7993977" lon="13.4676777"><ele>1.0</ele><time>2026-04-15T07:57:28.266Z</time></trkpt><trkpt lat="45.7993797" lon="13.4675321"><ele>1.0</ele><time>2026-04-15T07:57:29.265Z</time></trkpt><trkpt lat="45.7993524" lon="13.4673803"><ele>1.0</ele><time>2026-04-15T07:57:30.276Z</time></trkpt><trkpt lat="45.7993309" lon="13.4672251"><ele>1.0</ele><time>2026-04-15T07:57:31.266Z</time></trkpt><trkpt lat="45.799309" lon="13.4670675"><ele>1.0</ele><time>2026-04-15T07:57:32.257Z</time></trkpt><trkpt lat="45.7992827" lon="13.4669031"><ele>1.0</ele><time>2026-04-15T07:57:33.262Z</time></trkpt><trkpt lat="45.7992611" lon="13.4667454"><ele>1.0</ele><time>2026-04-15T07:57:34.266Z</time></trkpt><trkpt lat="45.7992388" lon="13.4665853"><ele>1.0</ele><time>2026-04-15T07:57:35.265Z</time></trkpt><trkpt lat="45.799214" lon="13.4664213"><ele>1.0</ele><time>2026-04-15T07:57:36.261Z</time></trkpt><trkpt lat="45.7991947" lon="13.4662545"><ele>1.0</ele><time>2026-04-15T07:57:37.269Z</time></trkpt><trkpt lat="45.7991713" lon="13.466084"><ele>1.0</ele><time>2026-04-15T07:57:38.274Z</time></trkpt><trkpt lat="45.7991467" lon="13.4659118"><ele>1.0</ele><time>2026-04-15T07:57:39.278Z</time></trkpt><trkpt lat="45.7991224" lon="13.4657409"><ele>1.0</ele><time>2026-04-15T07:57:40.257Z</time></trkpt><trkpt lat="45.7990938" lon="13.4655652"><ele>1.0</ele><time>2026-04-15T07:57:41.256Z</time></trkpt><trkpt lat="45.7990721" lon="13.4653958"><ele>1.0</ele><time>2026-04-15T07:57:42.269Z</time></trkpt><trkpt lat="45.7990462" lon="13.4652238"><ele>1.0</ele><time>2026-04-15T07:57:43.27Z</time></trkpt><trkpt lat="45.799021" lon="13.4650557"><ele>1.0</ele><time>2026-04-15T07:57:44.252Z</time></trkpt><trkpt lat="45.7989986" lon="13.4648942"><ele>1.0</ele><time>2026-04-15T07:57:45.259Z</time></trkpt><trkpt lat="45.7989812" lon="13.4647494"><ele>1.0</ele><time>2026-04-15T07:57:46.265Z</time></trkpt><trkpt lat="45.7989622" lon="13.4646266"><ele>1.0</ele><time>2026-04-15T07:57:47.262Z</time></trkpt><trkpt lat="45.798948" lon="13.4645315"><ele>1.0</ele><time>2026-04-15T07:57:48.257Z</time></trkpt><trkpt lat="45.7989082" lon="13.4643655"><ele>1.0</ele><time>2026-04-15T07:57:50.261Z</time></trkpt><trkpt lat="45.7988947" lon="13.4642323"><ele>1.0</ele><time>2026-04-15T07:57:51.26Z</time></trkpt><trkpt lat="45.7989159" lon="13.4640287"><ele>1.3333333333333333</ele><time>2026-04-15T07:57:52.267Z</time></trkpt><trkpt lat="45.7989401" lon="13.4638159"><ele>1.6666666666666665</ele><time>2026-04-15T07:57:53.269Z</time></trkpt><trkpt lat="45.7989771" lon="13.4636013"><ele>2.0</ele><time>2026-04-15T07:57:54.275Z</time></trkpt><trkpt lat="45.7990219" lon="13.4633722"><ele>2.0</ele><time>2026-04-15T07:57:55.261Z</time></trkpt><trkpt lat="45.7990884" lon="13.4631539"><ele>2.0</ele><time>2026-04-15T07:57:56.26Z</time></trkpt><trkpt lat="45.7991672" lon="13.4629168"><ele>2.0</ele><time>2026-04-15T07:57:57.265Z</time></trkpt><trkpt lat="45.7992434" lon="13.4626523"><ele>1.6666666666666665</ele><time>2026-04-15T07:57:58.323Z</time></trkpt><trkpt lat="45.7993108" lon="13.4623621"><ele>1.3333333333333333</ele><time>2026-04-15T07:57:59.267Z</time></trkpt><trkpt lat="45.7993853" lon="13.4620626"><ele>1.0</ele><time>2026-04-15T07:58:00.282Z</time></trkpt><trkpt lat="45.7994682" lon="13.4617641"><ele>1.0</ele><time>2026-04-15T07:58:01.265Z</time></trkpt><trkpt lat="45.7995465" lon="13.4614673"><ele>1.0</ele><time>2026-04-15T07:58:02.257Z</time></trkpt><trkpt lat="45.7996243" lon="13.461177"><ele>1.0</ele><time>2026-04-15T07:58:03.267Z</time></trkpt><trkpt lat="45.7997776" lon="13.4605997"><ele>2.0</ele><time>2026-04-15T07:58:05.256Z</time></trkpt><trkpt lat="45.7998492" lon="13.4603167"><ele>3.0</ele><time>2026-04-15T07:58:06.268Z</time></trkpt><trkpt lat="45.7999219" lon="13.4600386"><ele>4.0</ele><time>2026-04-15T07:58:07.274Z</time></trkpt><trkpt lat="45.7999956" lon="13.4597734"><ele>4.0</ele><time>2026-04-15T07:58:08.256Z</time></trkpt><trkpt lat="45.8000665" lon="13.4595057"><ele>4.0</ele><time>2026-04-15T07:58:09.271Z</time></trkpt><trkpt lat="45.8001366" lon="13.4592469"><ele>4.0</ele><time>2026-04-15T07:58:10.252Z</time></trkpt><trkpt lat="45.8002047" lon="13.4589886"><ele>4.0</ele><time>2026-04-15T07:58:11.252Z</time></trkpt><trkpt lat="45.8002725" lon="13.4587291"><ele>4.0</ele><time>2026-04-15T07:58:12.283Z</time></trkpt><trkpt lat="45.8003399" lon="13.4584762"><ele>4.0</ele><time>2026-04-15T07:58:13.263Z</time></trkpt><trkpt lat="45.8004071" lon="13.4582228"><ele>4.0</ele><time>2026-04-15T07:58:14.271Z</time></trkpt><trkpt lat="45.8004773" lon="13.4579655"><ele>4.0</ele><time>2026-04-15T07:58:15.277Z</time></trkpt><trkpt lat="45.8005427" lon="13.4577068"><ele>4.0</ele><time>2026-04-15T07:58:16.251Z</time></trkpt><trkpt lat="45.800612" lon="13.457451"><ele>4.0</ele><time>2026-04-15T07:58:17.274Z</time></trkpt><trkpt lat="45.8006806" lon="13.4571945"><ele>4.0</ele><time>2026-04-15T07:58:18.264Z</time></trkpt><trkpt lat="45.8007496" lon="13.4569439"><ele>4.0</ele><time>2026-04-15T07:58:19.263Z</time></trkpt><trkpt lat="45.800817" lon="13.4566907"><ele>4.0</ele><time>2026-04-15T07:58:20.266Z</time></trkpt><trkpt lat="45.8008858" lon="13.4564298"><ele>4.0</ele><time>2026-04-15T07:58:21.277Z</time></trkpt><trkpt lat="45.8009574" lon="13.4561643"><ele>4.0</ele><time>2026-04-15T07:58:22.26Z</time></trkpt><trkpt lat="45.8010253" lon="13.4558958"><ele>4.0</ele><time>2026-04-15T07:58:23.27Z</time></trkpt><trkpt lat="45.8010962" lon="13.4556333"><ele>4.0</ele><time>2026-04-15T07:58:24.264Z</time></trkpt><trkpt lat="45.8011662" lon="13.4553655"><ele>4.0</ele><time>2026-04-15T07:58:25.256Z</time></trkpt><trkpt lat="45.8012372" lon="13.4550969"><ele>4.0</ele><time>2026-04-15T07:58:26.265Z</time></trkpt><trkpt lat="45.8013117" lon="13.45483"><ele>4.0</ele><time>2026-04-15T07:58:27.254Z</time></trkpt><trkpt lat="45.8013864" lon="13.4545595"><ele>4.0</ele><time>2026-04-15T07:58:28.266Z</time></trkpt><trkpt lat="45.8014541" lon="13.4543001"><ele>4.0</ele><time>2026-04-15T07:58:29.263Z</time></trkpt><trkpt lat="45.8015125" lon="13.4540653"><ele>4.0</ele><time>2026-04-15T07:58:30.268Z</time></trkpt><trkpt lat="45.8015688" lon="13.4538494"><ele>4.0</ele><time>2026-04-15T07:58:31.261Z</time></trkpt><trkpt lat="45.8016144" lon="13.4536606"><ele>4.0</ele><time>2026-04-15T07:58:32.275Z</time></trkpt><trkpt lat="45.8016557" lon="13.4534881"><ele>4.0</ele><time>2026-04-15T07:58:33.267Z</time></trkpt><trkpt lat="45.8017395" lon="13.4531945"><ele>4.0</ele><time>2026-04-15T07:58:35.261Z</time></trkpt><trkpt lat="45.8017747" lon="13.4530613"><ele>4.0</ele><time>2026-04-15T07:58:36.256Z</time></trkpt><trkpt lat="45.8018139" lon="13.452931"><ele>3.75</ele><time>2026-04-15T07:58:37.255Z</time></trkpt><trkpt lat="45.8018535" lon="13.452789"><ele>3.5</ele><time>2026-04-15T07:58:38.268Z</time></trkpt><trkpt lat="45.8018945" lon="13.4526266"><ele>3.25</ele><time>2026-04-15T07:58:39.26Z</time></trkpt><trkpt lat="45.8019416" lon="13.4524431"><ele>3.0</ele><time>2026-04-15T07:58:40.279Z</time></trkpt><trkpt lat="45.8019958" lon="13.4522307"><ele>3.333333333333333</ele><time>2026-04-15T07:58:41.268Z</time></trkpt><trkpt lat="45.8020562" lon="13.4519892"><ele>3.6666666666666665</ele><time>2026-04-15T07:58:42.266Z</time></trkpt><trkpt lat="45.8021201" lon="13.4517405"><ele>4.0</ele><time>2026-04-15T07:58:43.259Z</time></trkpt><trkpt lat="45.8021882" lon="13.4514759"><ele>4.333333333333333</ele><time>2026-04-15T07:58:44.268Z</time></trkpt><trkpt lat="45.8022589" lon="13.4512095"><ele>4.666666666666667</ele><time>2026-04-15T07:58:45.26Z</time></trkpt><trkpt lat="45.8023267" lon="13.4509503"><ele>5.0</ele><time>2026-04-15T07:58:46.266Z</time></trkpt><trkpt lat="45.8023977" lon="13.4506892"><ele>3.666666666666667</ele><time>2026-04-15T07:58:47.262Z</time></trkpt><trkpt lat="45.8024667" lon="13.4504316"><ele>2.3333333333333335</ele><time>2026-04-15T07:58:48.257Z</time></trkpt><trkpt lat="45.8025349" lon="13.4501737"><ele>1.0</ele><time>2026-04-15T07:58:49.261Z</time></trkpt><trkpt lat="45.8026054" lon="13.449914"><ele>1.6666666666666665</ele><time>2026-04-15T07:58:50.258Z</time></trkpt><trkpt lat="45.8026764" lon="13.4496556"><ele>2.3333333333333335</ele><time>2026-04-15T07:58:51.256Z</time></trkpt><trkpt lat="45.8027459" lon="13.449408"><ele>3.0</ele><time>2026-04-15T07:58:52.259Z</time></trkpt><trkpt lat="45.8028121" lon="13.4491573"><ele>3.0</ele><time>2026-04-15T07:58:53.255Z</time></trkpt><trkpt lat="45.8028746" lon="13.4489118"><ele>3.0</ele><time>2026-04-15T07:58:54.254Z</time></trkpt><trkpt lat="45.8029358" lon="13.448665"><ele>3.0</ele><time>2026-04-15T07:58:55.266Z</time></trkpt><trkpt lat="45.8029984" lon="13.4484343"><ele>3.0</ele><time>2026-04-15T07:58:56.266Z</time></trkpt><trkpt lat="45.8030576" lon="13.4482134"><ele>3.0</ele><time>2026-04-15T07:58:57.256Z</time></trkpt><trkpt lat="45.8031154" lon="13.4479973"><ele>3.0</ele><time>2026-04-15T07:58:58.26Z</time></trkpt><trkpt lat="45.8031712" lon="13.4477899"><ele>2.75</ele><time>2026-04-15T07:58:59.251Z</time></trkpt><trkpt lat="45.8032208" lon="13.447596"><ele>2.5</ele><time>2026-04-15T07:59:00.272Z</time></trkpt><trkpt lat="45.8032566" lon="13.4474242"><ele>2.25</ele><time>2026-04-15T07:59:01.254Z</time></trkpt><trkpt lat="45.8032718" lon="13.4472722"><ele>2.0</ele><time>2026-04-15T07:59:02.255Z</time></trkpt><trkpt lat="45.8032833" lon="13.4471203"><ele>2.4000000000000004</ele><time>2026-04-15T07:59:03.253Z</time></trkpt><trkpt lat="45.8033193" lon="13.4469777"><ele>2.8000000000000003</ele><time>2026-04-15T07:59:04.261Z</time></trkpt><trkpt lat="45.803372" lon="13.4468354"><ele>3.2</ele><time>2026-04-15T07:59:05.263Z</time></trkpt><trkpt lat="45.8034422" lon="13.446703"><ele>3.6</ele><time>2026-04-15T07:59:06.264Z</time></trkpt><trkpt lat="45.8035081" lon="13.4465766"><ele>4.0</ele><time>2026-04-15T07:59:07.251Z</time></trkpt><trkpt lat="45.8035655" lon="13.4464492"><ele>4.0</ele><time>2026-04-15T07:59:08.254Z</time></trkpt><trkpt lat="45.8036214" lon="13.4463273"><ele>4.0</ele><time>2026-04-15T07:59:09.28Z</time></trkpt><trkpt lat="45.8036793" lon="13.4462034"><ele>4.0</ele><time>2026-04-15T07:59:10.243Z</time></trkpt><trkpt lat="45.803739" lon="13.4460722"><ele>4.0</ele><time>2026-04-15T07:59:11.255Z</time></trkpt><trkpt lat="45.8037972" lon="13.445942"><ele>4.0</ele><time>2026-04-15T07:59:12.261Z</time></trkpt><trkpt lat="45.8038545" lon="13.4458124"><ele>4.25</ele><time>2026-04-15T07:59:13.244Z</time></trkpt><trkpt lat="45.8039184" lon="13.4456852"><ele>4.5</ele><time>2026-04-15T07:59:14.262Z</time></trkpt><trkpt lat="45.8039842" lon="13.4455512"><ele>4.75</ele><time>2026-04-15T07:59:15.272Z</time></trkpt><trkpt lat="45.8040551" lon="13.4454176"><ele>5.0</ele><time>2026-04-15T07:59:16.251Z</time></trkpt><trkpt lat="45.8041316" lon="13.4452914"><ele>5.0</ele><time>2026-04-15T07:59:17.25Z</time></trkpt><trkpt lat="45.8042122" lon="13.445162"><ele>5.0</ele><time>2026-04-15T07:59:18.254Z</time></trkpt><trkpt lat="45.8042954" lon="13.4450428"><ele>5.0</ele><time>2026-04-15T07:59:19.253Z</time></trkpt><trkpt lat="45.8043789" lon="13.4449352"><ele>5.0</ele><time>2026-04-15T07:59:20.25Z</time></trkpt><trkpt lat="45.8044624" lon="13.4448273"><ele>4.75</ele><time>2026-04-15T07:59:21.255Z</time></trkpt><trkpt lat="45.8045458" lon="13.4447109"><ele>4.5</ele><time>2026-04-15T07:59:22.254Z</time></trkpt><trkpt lat="45.8046321" lon="13.4445948"><ele>4.25</ele><time>2026-04-15T07:59:23.257Z</time></trkpt><trkpt lat="45.80472" lon="13.4444841"><ele>4.0</ele><time>2026-04-15T07:59:24.249Z</time></trkpt><trkpt lat="45.8048078" lon="13.4443724"><ele>4.0</ele><time>2026-04-15T07:59:25.275Z</time></trkpt><trkpt lat="45.8048965" lon="13.4442592"><ele>4.0</ele><time>2026-04-15T07:59:26.245Z</time></trkpt><trkpt lat="45.8049999" lon="13.4441171"><ele>4.0</ele><time>2026-04-15T07:59:27.256Z</time></trkpt><trkpt lat="45.8051288" lon="13.4439472"><ele>4.0</ele><time>2026-04-15T07:59:28.25Z</time></trkpt><trkpt lat="45.8052741" lon="13.4437713"><ele>3.6666666666666665</ele><time>2026-04-15T07:59:29.248Z</time></trkpt><trkpt lat="45.8054075" lon="13.4436198"><ele>3.333333333333333</ele><time>2026-04-15T07:59:30.25Z</time></trkpt><trkpt lat="45.8055247" lon="13.4434716"><ele>3.0</ele><time>2026-04-15T07:59:31.249Z</time></trkpt><trkpt lat="45.8056291" lon="13.4433246"><ele>3.0</ele><time>2026-04-15T07:59:32.252Z</time></trkpt><trkpt lat="45.8057245" lon="13.4432122"><ele>3.0</ele><time>2026-04-15T07:59:33.258Z</time></trkpt><trkpt lat="45.8058044" lon="13.4431074"><ele>3.0</ele><time>2026-04-15T07:59:34.251Z</time></trkpt><trkpt lat="45.8058815" lon="13.4430119"><ele>3.0</ele><time>2026-04-15T07:59:35.259Z</time></trkpt><trkpt lat="45.8059638" lon="13.4429163"><ele>3.0</ele><time>2026-04-15T07:59:36.264Z</time></trkpt><trkpt lat="45.8060464" lon="13.4428132"><ele>3.25</ele><time>2026-04-15T07:59:37.248Z</time></trkpt><trkpt lat="45.806133" lon="13.4426917"><ele>3.5</ele><time>2026-04-15T07:59:38.255Z</time></trkpt><trkpt lat="45.8062328" lon="13.4425554"><ele>3.75</ele><time>2026-04-15T07:59:39.259Z</time></trkpt><trkpt lat="45.8063431" lon="13.4424047"><ele>4.0</ele><time>2026-04-15T07:59:40.254Z</time></trkpt><trkpt lat="45.8064687" lon="13.4422531"><ele>4.0</ele><time>2026-04-15T07:59:41.252Z</time></trkpt><trkpt lat="45.8065991" lon="13.4420929"><ele>4.0</ele><time>2026-04-15T07:59:42.255Z</time></trkpt><trkpt lat="45.8067397" lon="13.4419124"><ele>4.0</ele><time>2026-04-15T07:59:43.244Z</time></trkpt><trkpt lat="45.8068883" lon="13.4417254"><ele>4.0</ele><time>2026-04-15T07:59:44.246Z</time></trkpt><trkpt lat="45.8070404" lon="13.441527"><ele>4.0</ele><time>2026-04-15T07:59:45.26Z</time></trkpt><trkpt lat="45.8071914" lon="13.4413231"><ele>4.0</ele><time>2026-04-15T07:59:46.252Z</time></trkpt><trkpt lat="45.807338" lon="13.4411367"><ele>4.666666666666666</ele><time>2026-04-15T07:59:47.258Z</time></trkpt><trkpt lat="45.8074736" lon="13.4409736"><ele>5.333333333333333</ele><time>2026-04-15T07:59:48.26Z</time></trkpt><trkpt lat="45.8075994" lon="13.4408043"><ele>6.0</ele><time>2026-04-15T07:59:49.248Z</time></trkpt><trkpt lat="45.8077107" lon="13.440643"><ele>6.0</ele><time>2026-04-15T07:59:50.275Z</time></trkpt><trkpt lat="45.8078093" lon="13.4404996"><ele>6.0</ele><time>2026-04-15T07:59:51.249Z</time></trkpt><trkpt lat="45.8079192" lon="13.4403832"><ele>6.0</ele><time>2026-04-15T07:59:52.25Z</time></trkpt><trkpt lat="45.8080241" lon="13.4403317"><ele>6.0</ele><time>2026-04-15T07:59:53.251Z</time></trkpt><trkpt lat="45.8081097" lon="13.4402637"><ele>5.8</ele><time>2026-04-15T07:59:54.252Z</time></trkpt><trkpt lat="45.8081633" lon="13.4401629"><ele>5.6</ele><time>2026-04-15T07:59:55.264Z</time></trkpt><trkpt lat="45.808163" lon="13.4400268"><ele>5.4</ele><time>2026-04-15T07:59:56.25Z</time></trkpt><trkpt lat="45.808131" lon="13.4398752"><ele>5.2</ele><time>2026-04-15T07:59:57.248Z</time></trkpt><trkpt lat="45.8080939" lon="13.4397354"><ele>5.0</ele><time>2026-04-15T07:59:58.253Z</time></trkpt><trkpt lat="45.8080552" lon="13.4395604"><ele>5.0</ele><time>2026-04-15T07:59:59.254Z</time></trkpt><trkpt lat="45.8080227" lon="13.439371"><ele>5.0</ele><time>2026-04-15T08:00:00.257Z</time></trkpt><trkpt lat="45.8079881" lon="13.439181"><ele>5.0</ele><time>2026-04-15T08:00:01.265Z</time></trkpt><trkpt lat="45.8079472" lon="13.4389779"><ele>5.0</ele><time>2026-04-15T08:00:02.246Z</time></trkpt><trkpt lat="45.8079121" lon="13.4387655"><ele>4.666666666666667</ele><time>2026-04-15T08:00:03.245Z</time></trkpt><trkpt lat="45.8078766" lon="13.438546"><ele>4.333333333333333</ele><time>2026-04-15T08:00:04.249Z</time></trkpt><trkpt lat="45.8078306" lon="13.4383194"><ele>4.0</ele><time>2026-04-15T08:00:05.255Z</time></trkpt><trkpt lat="45.8077872" lon="13.4380926"><ele>4.0</ele><time>2026-04-15T08:00:06.251Z</time></trkpt><trkpt lat="45.8077443" lon="13.4378479"><ele>4.0</ele><time>2026-04-15T08:00:07.251Z</time></trkpt><trkpt lat="45.8076985" lon="13.437588"><ele>4.0</ele><time>2026-04-15T08:00:08.245Z</time></trkpt><trkpt lat="45.8075996" lon="13.4370558"><ele>4.666666666666666</ele><time>2026-04-15T08:00:10.249Z</time></trkpt><trkpt lat="45.8075533" lon="13.4367829"><ele>5.333333333333333</ele><time>2026-04-15T08:00:11.255Z</time></trkpt><trkpt lat="45.8075084" lon="13.4365193"><ele>6.0</ele><time>2026-04-15T08:00:12.245Z</time></trkpt><trkpt lat="45.8073546" lon="13.4357048"><ele>6.666666666666666</ele><time>2026-04-15T08:00:15.263Z</time></trkpt><trkpt lat="45.8072954" lon="13.4354231"><ele>7.333333333333333</ele><time>2026-04-15T08:00:16.251Z</time></trkpt><trkpt lat="45.807231" lon="13.4351357"><ele>8.0</ele><time>2026-04-15T08:00:17.249Z</time></trkpt><trkpt lat="45.8071634" lon="13.4348474"><ele>7.666666666666666</ele><time>2026-04-15T08:00:18.259Z</time></trkpt><trkpt lat="45.8070899" lon="13.4345533"><ele>7.333333333333334</ele><time>2026-04-15T08:00:19.245Z</time></trkpt><trkpt lat="45.8070036" lon="13.4342516"><ele>7.0</ele><time>2026-04-15T08:00:20.249Z</time></trkpt><trkpt lat="45.806918" lon="13.4339502"><ele>6.0</ele><time>2026-04-15T08:00:21.245Z</time></trkpt><trkpt lat="45.8068357" lon="13.433642"><ele>5.0</ele><time>2026-04-15T08:00:22.267Z</time></trkpt><trkpt lat="45.8067477" lon="13.4333344"><ele>7.5</ele><time>2026-04-15T08:00:23.246Z</time></trkpt><trkpt lat="45.8066587" lon="13.4330218"><ele>10.0</ele><time>2026-04-15T08:00:24.246Z</time></trkpt><trkpt lat="45.8065643" lon="13.4326991"><ele>10.0</ele><time>2026-04-15T08:00:25.244Z</time></trkpt><trkpt lat="45.8064703" lon="13.4323771"><ele>10.0</ele><time>2026-04-15T08:00:26.266Z</time></trkpt><trkpt lat="45.8063778" lon="13.4320532"><ele>7.5</ele><time>2026-04-15T08:00:27.244Z</time></trkpt><trkpt lat="45.8062828" lon="13.4317295"><ele>5.0</ele><time>2026-04-15T08:00:28.245Z</time></trkpt><trkpt lat="45.806192" lon="13.4314094"><ele>4.0</ele><time>2026-04-15T08:00:29.244Z</time></trkpt><trkpt lat="45.8061003" lon="13.4311058"><ele>3.0</ele><time>2026-04-15T08:00:30.265Z</time></trkpt><trkpt lat="45.8060126" lon="13.4308142"><ele>3.333333333333333</ele><time>2026-04-15T08:00:31.262Z</time></trkpt><trkpt lat="45.8059326" lon="13.430525"><ele>3.6666666666666665</ele><time>2026-04-15T08:00:32.236Z</time></trkpt><trkpt lat="45.8058491" lon="13.4302338"><ele>4.0</ele><time>2026-04-15T08:00:33.239Z</time></trkpt><trkpt lat="45.8057689" lon="13.4299501"><ele>4.0</ele><time>2026-04-15T08:00:34.246Z</time></trkpt><trkpt lat="45.8056924" lon="13.429678"><ele>4.0</ele><time>2026-04-15T08:00:35.243Z</time></trkpt><trkpt lat="45.8056175" lon="13.42943"><ele>4.0</ele><time>2026-04-15T08:00:36.247Z</time></trkpt><trkpt lat="45.8055536" lon="13.4292017"><ele>3.75</ele><time>2026-04-15T08:00:37.239Z</time></trkpt><trkpt lat="45.8054927" lon="13.4289994"><ele>3.5</ele><time>2026-04-15T08:00:38.247Z</time></trkpt><trkpt lat="45.8054382" lon="13.4288042"><ele>3.25</ele><time>2026-04-15T08:00:39.245Z</time></trkpt><trkpt lat="45.8053852" lon="13.4286252"><ele>3.0</ele><time>2026-04-15T08:00:40.245Z</time></trkpt><trkpt lat="45.8053346" lon="13.4284407"><ele>4.25</ele><time>2026-04-15T08:00:41.253Z</time></trkpt><trkpt lat="45.8052856" lon="13.4282609"><ele>5.5</ele><time>2026-04-15T08:00:42.25Z</time></trkpt><trkpt lat="45.8052334" lon="13.4280783"><ele>6.75</ele><time>2026-04-15T08:00:43.263Z</time></trkpt><trkpt lat="45.80518" lon="13.427895"><ele>8.0</ele><time>2026-04-15T08:00:44.248Z</time></trkpt><trkpt lat="45.8051228" lon="13.4277049"><ele>8.666666666666666</ele><time>2026-04-15T08:00:45.246Z</time></trkpt><trkpt lat="45.8050658" lon="13.4275055"><ele>9.333333333333334</ele><time>2026-04-15T08:00:46.255Z</time></trkpt><trkpt lat="45.8050145" lon="13.4273004"><ele>10.0</ele><time>2026-04-15T08:00:47.262Z</time></trkpt><trkpt lat="45.8049639" lon="13.4270874"><ele>10.0</ele><time>2026-04-15T08:00:48.257Z</time></trkpt><trkpt lat="45.8049203" lon="13.426864"><ele>10.0</ele><time>2026-04-15T08:00:49.246Z</time></trkpt><trkpt lat="45.8048858" lon="13.4266405"><ele>10.0</ele><time>2026-04-15T08:00:50.241Z</time></trkpt><trkpt lat="45.8048649" lon="13.4264342"><ele>9.25</ele><time>2026-04-15T08:00:51.248Z</time></trkpt><trkpt lat="45.8048534" lon="13.4262363"><ele>8.5</ele><time>2026-04-15T08:00:52.238Z</time></trkpt><trkpt lat="45.8048458" lon="13.4260354"><ele>7.75</ele><time>2026-04-15T08:00:53.25Z</time></trkpt><trkpt lat="45.8048417" lon="13.4258283"><ele>7.0</ele><time>2026-04-15T08:00:54.25Z</time></trkpt><trkpt lat="45.8048469" lon="13.4256165"><ele>6.333333333333334</ele><time>2026-04-15T08:00:55.268Z</time></trkpt><trkpt lat="45.8048594" lon="13.425397"><ele>5.666666666666667</ele><time>2026-04-15T08:00:56.246Z</time></trkpt><trkpt lat="45.8048752" lon="13.4251719"><ele>5.0</ele><time>2026-04-15T08:00:57.244Z</time></trkpt><trkpt lat="45.8048844" lon="13.4249533"><ele>5.0</ele><time>2026-04-15T08:00:58.245Z</time></trkpt><trkpt lat="45.8048922" lon="13.4247335"><ele>5.0</ele><time>2026-04-15T08:00:59.258Z</time></trkpt><trkpt lat="45.8048998" lon="13.4245197"><ele>5.0</ele><time>2026-04-15T08:01:00.236Z</time></trkpt><trkpt lat="45.8049111" lon="13.4243018"><ele>5.0</ele><time>2026-04-15T08:01:01.239Z</time></trkpt><trkpt lat="45.8049253" lon="13.4240759"><ele>5.0</ele><time>2026-04-15T08:01:02.267Z</time></trkpt><trkpt lat="45.8049342" lon="13.4238584"><ele>5.0</ele><time>2026-04-15T08:01:03.242Z</time></trkpt><trkpt lat="45.8049437" lon="13.4236453"><ele>5.0</ele><time>2026-04-15T08:01:04.258Z</time></trkpt><trkpt lat="45.8049534" lon="13.4234334"><ele>5.0</ele><time>2026-04-15T08:01:05.246Z</time></trkpt><trkpt lat="45.8049668" lon="13.4232283"><ele>5.0</ele><time>2026-04-15T08:01:06.264Z</time></trkpt><trkpt lat="45.8049774" lon="13.4230188"><ele>5.0</ele><time>2026-04-15T08:01:07.249Z</time></trkpt><trkpt lat="45.8049841" lon="13.4228159"><ele>5.0</ele><time>2026-04-15T08:01:08.251Z</time></trkpt><trkpt lat="45.8049961" lon="13.4226087"><ele>5.0</ele><time>2026-04-15T08:01:09.245Z</time></trkpt><trkpt lat="45.8050105" lon="13.422401"><ele>5.0</ele><time>2026-04-15T08:01:10.247Z</time></trkpt><trkpt lat="45.8050244" lon="13.4221917"><ele>5.0</ele><time>2026-04-15T08:01:11.25Z</time></trkpt><trkpt lat="45.8050371" lon="13.4219897"><ele>5.666666666666667</ele><time>2026-04-15T08:01:12.249Z</time></trkpt><trkpt lat="45.8050434" lon="13.4217769"><ele>6.333333333333334</ele><time>2026-04-15T08:01:13.243Z</time></trkpt><trkpt lat="45.8050525" lon="13.4215557"><ele>7.0</ele><time>2026-04-15T08:01:14.24Z</time></trkpt><trkpt lat="45.8050663" lon="13.4213379"><ele>6.75</ele><time>2026-04-15T08:01:15.251Z</time></trkpt><trkpt lat="45.80508" lon="13.4211262"><ele>6.5</ele><time>2026-04-15T08:01:16.253Z</time></trkpt><trkpt lat="45.8050917" lon="13.4209163"><ele>6.25</ele><time>2026-04-15T08:01:17.243Z</time></trkpt><trkpt lat="45.8050997" lon="13.4207079"><ele>6.0</ele><time>2026-04-15T08:01:18.248Z</time></trkpt><trkpt lat="45.8051095" lon="13.4204963"><ele>5.75</ele><time>2026-04-15T08:01:19.243Z</time></trkpt><trkpt lat="45.8051191" lon="13.4202875"><ele>5.5</ele><time>2026-04-15T08:01:20.237Z</time></trkpt><trkpt lat="45.805127" lon="13.4200787"><ele>5.25</ele><time>2026-04-15T08:01:21.244Z</time></trkpt><trkpt lat="45.8051388" lon="13.4198752"><ele>5.0</ele><time>2026-04-15T08:01:22.242Z</time></trkpt><trkpt lat="45.8051494" lon="13.4196672"><ele>5.0</ele><time>2026-04-15T08:01:23.258Z</time></trkpt><trkpt lat="45.8051591" lon="13.4194566"><ele>5.0</ele><time>2026-04-15T08:01:24.249Z</time></trkpt><trkpt lat="45.8051749" lon="13.4192488"><ele>5.0</ele><time>2026-04-15T08:01:25.243Z</time></trkpt><trkpt lat="45.8051833" lon="13.4190409"><ele>5.0</ele><time>2026-04-15T08:01:26.258Z</time></trkpt><trkpt lat="45.8051927" lon="13.4188247"><ele>5.0</ele><time>2026-04-15T08:01:27.246Z</time></trkpt><trkpt lat="45.8052065" lon="13.4186156"><ele>5.0</ele><time>2026-04-15T08:01:28.253Z</time></trkpt><trkpt lat="45.8052183" lon="13.4184063"><ele>5.0</ele><time>2026-04-15T08:01:29.243Z</time></trkpt><trkpt lat="45.8052301" lon="13.4181921"><ele>5.0</ele><time>2026-04-15T08:01:30.235Z</time></trkpt><trkpt lat="45.8052398" lon="13.4179813"><ele>5.0</ele><time>2026-04-15T08:01:31.235Z</time></trkpt><trkpt lat="45.8052506" lon="13.4177642"><ele>5.0</ele><time>2026-04-15T08:01:32.247Z</time></trkpt><trkpt lat="45.8052626" lon="13.4175495"><ele>5.0</ele><time>2026-04-15T08:01:33.254Z</time></trkpt><trkpt lat="45.8052746" lon="13.4173307"><ele>4.666666666666667</ele><time>2026-04-15T08:01:34.247Z</time></trkpt><trkpt lat="45.8052884" lon="13.4171123"><ele>4.333333333333333</ele><time>2026-04-15T08:01:35.243Z</time></trkpt><trkpt lat="45.8053027" lon="13.4168927"><ele>4.0</ele><time>2026-04-15T08:01:36.237Z</time></trkpt><trkpt lat="45.8053172" lon="13.4166737"><ele>4.0</ele><time>2026-04-15T08:01:37.232Z</time></trkpt><trkpt lat="45.8053268" lon="13.4164506"><ele>4.0</ele><time>2026-04-15T08:01:38.245Z</time></trkpt><trkpt lat="45.8053321" lon="13.4162315"><ele>4.0</ele><time>2026-04-15T08:01:39.239Z</time></trkpt><trkpt lat="45.805344" lon="13.4160202"><ele>4.25</ele><time>2026-04-15T08:01:40.249Z</time></trkpt><trkpt lat="45.8053556" lon="13.4158095"><ele>4.5</ele><time>2026-04-15T08:01:41.245Z</time></trkpt><trkpt lat="45.8053639" lon="13.4156048"><ele>4.75</ele><time>2026-04-15T08:01:42.256Z</time></trkpt><trkpt lat="45.8053734" lon="13.415409"><ele>5.0</ele><time>2026-04-15T08:01:43.261Z</time></trkpt><trkpt lat="45.8053855" lon="13.4152252"><ele>5.25</ele><time>2026-04-15T08:01:44.264Z</time></trkpt><trkpt lat="45.805396" lon="13.4150467"><ele>5.5</ele><time>2026-04-15T08:01:45.242Z</time></trkpt><trkpt lat="45.8054083" lon="13.414867"><ele>5.75</ele><time>2026-04-15T08:01:46.257Z</time></trkpt><trkpt lat="45.8054181" lon="13.4146881"><ele>6.0</ele><time>2026-04-15T08:01:47.243Z</time></trkpt><trkpt lat="45.8054254" lon="13.4145128"><ele>6.0</ele><time>2026-04-15T08:01:48.242Z</time></trkpt><trkpt lat="45.8054357" lon="13.4143506"><ele>6.0</ele><time>2026-04-15T08:01:49.242Z</time></trkpt><trkpt lat="45.8054446" lon="13.4141999"><ele>6.0</ele><time>2026-04-15T08:01:50.253Z</time></trkpt><trkpt lat="45.8054484" lon="13.4140598"><ele>6.0</ele><time>2026-04-15T08:01:51.243Z</time></trkpt><trkpt lat="45.8054542" lon="13.4139482"><ele>6.0</ele><time>2026-04-15T08:01:52.237Z</time></trkpt><trkpt lat="45.8054565" lon="13.4138578"><ele>5.666666666666667</ele><time>2026-04-15T08:01:53.234Z</time></trkpt><trkpt lat="45.8054702" lon="13.4137041"><ele>5.333333333333333</ele><time>2026-04-15T08:01:55.25Z</time></trkpt><trkpt lat="45.8054792" lon="13.4136115"><ele>5.0</ele><time>2026-04-15T08:01:56.24Z</time></trkpt><trkpt lat="45.8054899" lon="13.4134973"><ele>4.666666666666666</ele><time>2026-04-15T08:01:57.249Z</time></trkpt><trkpt lat="45.8054923" lon="13.413368"><ele>4.333333333333333</ele><time>2026-04-15T08:01:58.235Z</time></trkpt><trkpt lat="45.805493" lon="13.4132342"><ele>4.0</ele><time>2026-04-15T08:01:59.252Z</time></trkpt><trkpt lat="45.8054982" lon="13.4130819"><ele>3.75</ele><time>2026-04-15T08:02:00.238Z</time></trkpt><trkpt lat="45.8055029" lon="13.4129249"><ele>3.5</ele><time>2026-04-15T08:02:01.236Z</time></trkpt><trkpt lat="45.8055096" lon="13.4127592"><ele>3.25</ele><time>2026-04-15T08:02:02.231Z</time></trkpt><trkpt lat="45.8055158" lon="13.4125594"><ele>3.0</ele><time>2026-04-15T08:02:03.245Z</time></trkpt><trkpt lat="45.8055229" lon="13.4123119"><ele>4.0</ele><time>2026-04-15T08:02:04.244Z</time></trkpt><trkpt lat="45.8055362" lon="13.4120242"><ele>5.0</ele><time>2026-04-15T08:02:05.241Z</time></trkpt><trkpt lat="45.8055606" lon="13.4117183"><ele>6.0</ele><time>2026-04-15T08:02:06.237Z</time></trkpt><trkpt lat="45.8055793" lon="13.4114096"><ele>5.5</ele><time>2026-04-15T08:02:07.232Z</time></trkpt><trkpt lat="45.8055992" lon="13.4111053"><ele>5.0</ele><time>2026-04-15T08:02:08.234Z</time></trkpt><trkpt lat="45.805627" lon="13.4104937"><ele>5.0</ele><time>2026-04-15T08:02:10.271Z</time></trkpt><trkpt lat="45.8056433" lon="13.4101946"><ele>5.0</ele><time>2026-04-15T08:02:11.244Z</time></trkpt><trkpt lat="45.8056589" lon="13.4098954"><ele>5.0</ele><time>2026-04-15T08:02:12.24Z</time></trkpt><trkpt lat="45.8056748" lon="13.4095876"><ele>5.0</ele><time>2026-04-15T08:02:13.243Z</time></trkpt><trkpt lat="45.805689" lon="13.4092907"><ele>5.0</ele><time>2026-04-15T08:02:14.255Z</time></trkpt><trkpt lat="45.805702" lon="13.4090001"><ele>5.0</ele><time>2026-04-15T08:02:15.236Z</time></trkpt><trkpt lat="45.8057161" lon="13.4087098"><ele>5.0</ele><time>2026-04-15T08:02:16.236Z</time></trkpt><trkpt lat="45.8057323" lon="13.4084256"><ele>5.0</ele><time>2026-04-15T08:02:17.233Z</time></trkpt><trkpt lat="45.8057464" lon="13.4081495"><ele>5.0</ele><time>2026-04-15T08:02:18.238Z</time></trkpt><trkpt lat="45.8057629" lon="13.4078707"><ele>5.666666666666667</ele><time>2026-04-15T08:02:19.255Z</time></trkpt><trkpt lat="45.8057764" lon="13.4075932"><ele>6.333333333333334</ele><time>2026-04-15T08:02:20.239Z</time></trkpt><trkpt lat="45.805791" lon="13.4073194"><ele>7.0</ele><time>2026-04-15T08:02:21.243Z</time></trkpt><trkpt lat="45.8058043" lon="13.4070488"><ele>7.333333333333334</ele><time>2026-04-15T08:02:22.247Z</time></trkpt><trkpt lat="45.8058169" lon="13.4067823"><ele>7.666666666666666</ele><time>2026-04-15T08:02:23.235Z</time></trkpt><trkpt lat="45.8058259" lon="13.4065111"><ele>8.0</ele><time>2026-04-15T08:02:24.24Z</time></trkpt><trkpt lat="45.8058379" lon="13.40624"><ele>8.0</ele><time>2026-04-15T08:02:25.24Z</time></trkpt><trkpt lat="45.8058504" lon="13.4059696"><ele>8.0</ele><time>2026-04-15T08:02:26.247Z</time></trkpt><trkpt lat="45.8058647" lon="13.4057024"><ele>8.0</ele><time>2026-04-15T08:02:27.233Z</time></trkpt><trkpt lat="45.8058778" lon="13.4054361"><ele>7.333333333333333</ele><time>2026-04-15T08:02:28.229Z</time></trkpt><trkpt lat="45.8058946" lon="13.40517"><ele>6.666666666666666</ele><time>2026-04-15T08:02:29.251Z</time></trkpt><trkpt lat="45.8059085" lon="13.4048977"><ele>6.0</ele><time>2026-04-15T08:02:30.254Z</time></trkpt><trkpt lat="45.8059189" lon="13.4046216"><ele>5.666666666666667</ele><time>2026-04-15T08:02:31.237Z</time></trkpt><trkpt lat="45.8059334" lon="13.404344"><ele>5.333333333333334</ele><time>2026-04-15T08:02:32.226Z</time></trkpt><trkpt lat="45.8059492" lon="13.4040598"><ele>5.0</ele><time>2026-04-15T08:02:33.228Z</time></trkpt><trkpt lat="45.8059627" lon="13.4037615"><ele>5.0</ele><time>2026-04-15T08:02:34.244Z</time></trkpt><trkpt lat="45.8059788" lon="13.4034563"><ele>5.0</ele><time>2026-04-15T08:02:35.235Z</time></trkpt><trkpt lat="45.805998" lon="13.4031663"><ele>5.0</ele><time>2026-04-15T08:02:36.246Z</time></trkpt><trkpt lat="45.8060123" lon="13.4028912"><ele>5.333333333333334</ele><time>2026-04-15T08:02:37.236Z</time></trkpt><trkpt lat="45.8060251" lon="13.4026369"><ele>5.666666666666667</ele><time>2026-04-15T08:02:38.233Z</time></trkpt><trkpt lat="45.8060351" lon="13.4024086"><ele>6.0</ele><time>2026-04-15T08:02:39.238Z</time></trkpt><trkpt lat="45.8060426" lon="13.4021994"><ele>6.0</ele><time>2026-04-15T08:02:40.239Z</time></trkpt><trkpt lat="45.8060553" lon="13.4019975"><ele>6.0</ele><time>2026-04-15T08:02:41.248Z</time></trkpt><trkpt lat="45.8060655" lon="13.4018046"><ele>6.0</ele><time>2026-04-15T08:02:42.234Z</time></trkpt><trkpt lat="45.806072" lon="13.4016148"><ele>6.0</ele><time>2026-04-15T08:02:43.233Z</time></trkpt><trkpt lat="45.8060812" lon="13.4014301"><ele>6.25</ele><time>2026-04-15T08:02:44.246Z</time></trkpt><trkpt lat="45.8060946" lon="13.4012458"><ele>6.5</ele><time>2026-04-15T08:02:45.235Z</time></trkpt><trkpt lat="45.8061138" lon="13.4010611"><ele>6.75</ele><time>2026-04-15T08:02:46.244Z</time></trkpt><trkpt lat="45.8061364" lon="13.4008913"><ele>7.0</ele><time>2026-04-15T08:02:47.232Z</time></trkpt><trkpt lat="45.8061692" lon="13.4007408"><ele>7.0</ele><time>2026-04-15T08:02:48.238Z</time></trkpt><trkpt lat="45.8062266" lon="13.4006053"><ele>7.0</ele><time>2026-04-15T08:02:49.229Z</time></trkpt><trkpt lat="45.8062994" lon="13.4004676"><ele>7.0</ele><time>2026-04-15T08:02:50.227Z</time></trkpt><trkpt lat="45.8063748" lon="13.4003423"><ele>7.0</ele><time>2026-04-15T08:02:51.239Z</time></trkpt><trkpt lat="45.8064367" lon="13.4002069"><ele>7.0</ele><time>2026-04-15T08:02:52.235Z</time></trkpt><trkpt lat="45.8065015" lon="13.4000701"><ele>7.0</ele><time>2026-04-15T08:02:53.244Z</time></trkpt><trkpt lat="45.8065814" lon="13.3999523"><ele>7.0</ele><time>2026-04-15T08:02:54.229Z</time></trkpt><trkpt lat="45.8067115" lon="13.3998955"><ele>7.0</ele><time>2026-04-15T08:02:55.236Z</time></trkpt><trkpt lat="45.8068705" lon="13.3998766"><ele>8.0</ele><time>2026-04-15T08:02:56.23Z</time></trkpt><trkpt lat="45.8070424" lon="13.3998861"><ele>9.0</ele><time>2026-04-15T08:02:57.334Z</time></trkpt><trkpt lat="45.8074281" lon="13.3999933"><ele>9.0</ele><time>2026-04-15T08:02:59.23Z</time></trkpt><trkpt lat="45.8076304" lon="13.4000639"><ele>9.0</ele><time>2026-04-15T08:03:00.234Z</time></trkpt><trkpt lat="45.8078293" lon="13.4001321"><ele>9.0</ele><time>2026-04-15T08:03:01.233Z</time></trkpt><trkpt lat="45.8080279" lon="13.400195"><ele>8.333333333333334</ele><time>2026-04-15T08:03:02.237Z</time></trkpt><trkpt lat="45.8082202" lon="13.4002425"><ele>7.666666666666667</ele><time>2026-04-15T08:03:03.367Z</time></trkpt><trkpt lat="45.8084129" lon="13.4002683"><ele>7.0</ele><time>2026-04-15T08:03:04.342Z</time></trkpt><trkpt lat="45.8087908" lon="13.4001775"><ele>6.666666666666667</ele><time>2026-04-15T08:03:06.245Z</time></trkpt><trkpt lat="45.8089801" lon="13.4000914"><ele>6.333333333333334</ele><time>2026-04-15T08:03:07.239Z</time></trkpt><trkpt lat="45.8091679" lon="13.400008"><ele>6.0</ele><time>2026-04-15T08:03:08.254Z</time></trkpt><trkpt lat="45.8095307" lon="13.3998381"><ele>6.0</ele><time>2026-04-15T08:03:10.328Z</time></trkpt><trkpt lat="45.8097207" lon="13.3997624"><ele>6.0</ele><time>2026-04-15T08:03:11.329Z</time></trkpt><trkpt lat="45.8099031" lon="13.399683"><ele>6.0</ele><time>2026-04-15T08:03:12.237Z</time></trkpt><trkpt lat="45.8100957" lon="13.3996051"><ele>5.666666666666667</ele><time>2026-04-15T08:03:13.23Z</time></trkpt><trkpt lat="45.8102827" lon="13.3995258"><ele>5.333333333333334</ele><time>2026-04-15T08:03:14.238Z</time></trkpt><trkpt lat="45.8104709" lon="13.399453"><ele>5.0</ele><time>2026-04-15T08:03:15.228Z</time></trkpt><trkpt lat="45.8106562" lon="13.3993919"><ele>5.0</ele><time>2026-04-15T08:03:16.323Z</time></trkpt><trkpt lat="45.8108602" lon="13.3993518"><ele>5.0</ele><time>2026-04-15T08:03:17.335Z</time></trkpt><trkpt lat="45.811068" lon="13.399332"><ele>5.0</ele><time>2026-04-15T08:03:18.345Z</time></trkpt><trkpt lat="45.8114952" lon="13.3993123"><ele>5.0</ele><time>2026-04-15T08:03:20.231Z</time></trkpt><trkpt lat="45.8117129" lon="13.3993009"><ele>5.0</ele><time>2026-04-15T08:03:21.235Z</time></trkpt><trkpt lat="45.8119244" lon="13.3992861"><ele>5.0</ele><time>2026-04-15T08:03:22.24Z</time></trkpt><trkpt lat="45.8121359" lon="13.3992614"><ele>5.0</ele><time>2026-04-15T08:03:23.336Z</time></trkpt><trkpt lat="45.8123421" lon="13.3992167"><ele>5.0</ele><time>2026-04-15T08:03:24.327Z</time></trkpt><trkpt lat="45.8125371" lon="13.3991537"><ele>5.0</ele><time>2026-04-15T08:03:25.328Z</time></trkpt><trkpt lat="45.812725" lon="13.3990795"><ele>4.5</ele><time>2026-04-15T08:03:26.233Z</time></trkpt><trkpt lat="45.813084" lon="13.3989119"><ele>4.0</ele><time>2026-04-15T08:03:28.229Z</time></trkpt><trkpt lat="45.8132349" lon="13.3988265"><ele>4.666666666666666</ele><time>2026-04-15T08:03:29.334Z</time></trkpt><trkpt lat="45.8133736" lon="13.3987387"><ele>5.333333333333333</ele><time>2026-04-15T08:03:30.335Z</time></trkpt><trkpt lat="45.8135132" lon="13.398656"><ele>6.0</ele><time>2026-04-15T08:03:31.326Z</time></trkpt><trkpt lat="45.8138049" lon="13.3984775"><ele>6.333333333333334</ele><time>2026-04-15T08:03:33.252Z</time></trkpt><trkpt lat="45.8139509" lon="13.3983907"><ele>6.666666666666667</ele><time>2026-04-15T08:03:34.232Z</time></trkpt><trkpt lat="45.8140988" lon="13.3983061"><ele>7.0</ele><time>2026-04-15T08:03:35.226Z</time></trkpt><trkpt lat="45.814241" lon="13.3982202"><ele>7.333333333333334</ele><time>2026-04-15T08:03:36.332Z</time></trkpt><trkpt lat="45.8143842" lon="13.3981234"><ele>7.666666666666666</ele><time>2026-04-15T08:03:37.34Z</time></trkpt><trkpt lat="45.8145295" lon="13.3980339"><ele>8.0</ele><time>2026-04-15T08:03:38.331Z</time></trkpt><trkpt lat="45.8146783" lon="13.3979565"><ele>8.0</ele><time>2026-04-15T08:03:39.325Z</time></trkpt><trkpt lat="45.8148245" lon="13.3978738"><ele>8.0</ele><time>2026-04-15T08:03:40.242Z</time></trkpt><trkpt lat="45.8149713" lon="13.3977982"><ele>8.0</ele><time>2026-04-15T08:03:41.233Z</time></trkpt><trkpt lat="45.815112" lon="13.3977331"><ele>7.5</ele><time>2026-04-15T08:03:42.347Z</time></trkpt><trkpt lat="45.8152528" lon="13.3976954"><ele>7.0</ele><time>2026-04-15T08:03:43.34Z</time></trkpt><trkpt lat="45.8153913" lon="13.3976838"><ele>6.5</ele><time>2026-04-15T08:03:44.32Z</time></trkpt><trkpt lat="45.815534" lon="13.3976821"><ele>6.0</ele><time>2026-04-15T08:03:45.353Z</time></trkpt><trkpt lat="45.8156789" lon="13.3976958"><ele>6.0</ele><time>2026-04-15T08:03:46.337Z</time></trkpt><trkpt lat="45.8159655" lon="13.3976718"><ele>6.0</ele><time>2026-04-15T08:03:48.231Z</time></trkpt><trkpt lat="45.8161012" lon="13.3976454"><ele>6.0</ele><time>2026-04-15T08:03:49.339Z</time></trkpt><trkpt lat="45.8162257" lon="13.397615"><ele>6.4</ele><time>2026-04-15T08:03:50.332Z</time></trkpt><trkpt lat="45.8163345" lon="13.3975833"><ele>6.8</ele><time>2026-04-15T08:03:51.334Z</time></trkpt><trkpt lat="45.8164292" lon="13.397557"><ele>7.200000000000001</ele><time>2026-04-15T08:03:52.326Z</time></trkpt><trkpt lat="45.8165089" lon="13.3975398"><ele>7.6000000000000005</ele><time>2026-04-15T08:03:53.327Z</time></trkpt><trkpt lat="45.8166196" lon="13.3975122"><ele>8.0</ele><time>2026-04-15T08:03:55.23Z</time></trkpt><trkpt lat="45.8167406" lon="13.3974542"><ele>8.0</ele><time>2026-04-15T08:03:57.325Z</time></trkpt><trkpt lat="45.8168046" lon="13.3974101"><ele>8.0</ele><time>2026-04-15T08:03:58.353Z</time></trkpt><trkpt lat="45.8168694" lon="13.3973664"><ele>8.0</ele><time>2026-04-15T08:03:59.328Z</time></trkpt><trkpt lat="45.8169501" lon="13.3973148"><ele>8.0</ele><time>2026-04-15T08:04:00.336Z</time></trkpt><trkpt lat="45.817152" lon="13.39719"><ele>7.75</ele><time>2026-04-15T08:04:02.331Z</time></trkpt><trkpt lat="45.8172608" lon="13.3971112"><ele>7.5</ele><time>2026-04-15T08:04:03.326Z</time></trkpt><trkpt lat="45.8173699" lon="13.3970306"><ele>7.25</ele><time>2026-04-15T08:04:04.334Z</time></trkpt><trkpt lat="45.8174786" lon="13.3969546"><ele>7.0</ele><time>2026-04-15T08:04:05.344Z</time></trkpt><trkpt lat="45.8175856" lon="13.3968683"><ele>7.5</ele><time>2026-04-15T08:04:06.326Z</time></trkpt><trkpt lat="45.8176932" lon="13.3967906"><ele>8.0</ele><time>2026-04-15T08:04:07.335Z</time></trkpt><trkpt lat="45.8178881" lon="13.3966541"><ele>8.5</ele><time>2026-04-15T08:04:09.33Z</time></trkpt><trkpt lat="45.8179665" lon="13.3966035"><ele>9.0</ele><time>2026-04-15T08:04:10.335Z</time></trkpt><trkpt lat="45.8180546" lon="13.3965398"><ele>9.0</ele><time>2026-04-15T08:04:12.332Z</time></trkpt><trkpt lat="45.8181128" lon="13.3964711"><ele>9.0</ele><time>2026-04-15T08:04:17.329Z</time></trkpt><trkpt lat="45.8180566" lon="13.3963195"><ele>9.0</ele><time>2026-04-15T08:04:19.329Z</time></trkpt><trkpt lat="45.8179883" lon="13.3961978"><ele>9.0</ele><time>2026-04-15T08:04:20.319Z</time></trkpt><trkpt lat="45.8179109" lon="13.3960513"><ele>9.0</ele><time>2026-04-15T08:04:21.319Z</time></trkpt><trkpt lat="45.8178166" lon="13.3958805"><ele>8.666666666666666</ele><time>2026-04-15T08:04:22.34Z</time></trkpt><trkpt lat="45.8177208" lon="13.3957199"><ele>8.333333333333332</ele><time>2026-04-15T08:04:23.335Z</time></trkpt><trkpt lat="45.8176155" lon="13.3955418"><ele>8.0</ele><time>2026-04-15T08:04:24.329Z</time></trkpt><trkpt lat="45.8175155" lon="13.3953638"><ele>8.0</ele><time>2026-04-15T08:04:25.32Z</time></trkpt><trkpt lat="45.817423" lon="13.3951958"><ele>8.0</ele><time>2026-04-15T08:04:26.326Z</time></trkpt><trkpt lat="45.8173448" lon="13.3950412"><ele>8.0</ele><time>2026-04-15T08:04:27.341Z</time></trkpt><trkpt lat="45.8172783" lon="13.39488"><ele>8.0</ele><time>2026-04-15T08:04:28.333Z</time></trkpt><trkpt lat="45.8172306" lon="13.3947118"><ele>7.75</ele><time>2026-04-15T08:04:29.335Z</time></trkpt><trkpt lat="45.817201" lon="13.3945274"><ele>7.5</ele><time>2026-04-15T08:04:30.326Z</time></trkpt><trkpt lat="45.8172083" lon="13.3943275"><ele>7.25</ele><time>2026-04-15T08:04:31.322Z</time></trkpt><trkpt lat="45.8172374" lon="13.3941138"><ele>7.0</ele><time>2026-04-15T08:04:32.33Z</time></trkpt><trkpt lat="45.8172866" lon="13.3939091"><ele>6.333333333333334</ele><time>2026-04-15T08:04:33.319Z</time></trkpt><trkpt lat="45.8173488" lon="13.3936932"><ele>5.666666666666667</ele><time>2026-04-15T08:04:34.325Z</time></trkpt><trkpt lat="45.8174157" lon="13.3934615"><ele>5.0</ele><time>2026-04-15T08:04:35.326Z</time></trkpt><trkpt lat="45.8174836" lon="13.3932277"><ele>5.0</ele><time>2026-04-15T08:04:36.341Z</time></trkpt><trkpt lat="45.817547" lon="13.3930024"><ele>5.0</ele><time>2026-04-15T08:04:37.335Z</time></trkpt><trkpt lat="45.8176122" lon="13.3927762"><ele>5.0</ele><time>2026-04-15T08:04:38.323Z</time></trkpt><trkpt lat="45.8176754" lon="13.3925471"><ele>5.0</ele><time>2026-04-15T08:04:39.327Z</time></trkpt><trkpt lat="45.8177434" lon="13.3923212"><ele>5.0</ele><time>2026-04-15T08:04:40.322Z</time></trkpt><trkpt lat="45.8178118" lon="13.3920994"><ele>5.0</ele><time>2026-04-15T08:04:41.334Z</time></trkpt><trkpt lat="45.8179437" lon="13.3916643"><ele>4.666666666666667</ele><time>2026-04-15T08:04:43.339Z</time></trkpt><trkpt lat="45.8180096" lon="13.391452"><ele>4.333333333333333</ele><time>2026-04-15T08:04:44.333Z</time></trkpt><trkpt lat="45.8180733" lon="13.39124"><ele>4.0</ele><time>2026-04-15T08:04:45.328Z</time></trkpt><trkpt lat="45.8181375" lon="13.3910359"><ele>4.5</ele><time>2026-04-15T08:04:46.372Z</time></trkpt><trkpt lat="45.8182012" lon="13.390835"><ele>5.0</ele><time>2026-04-15T08:04:47.322Z</time></trkpt><trkpt lat="45.8183273" lon="13.3904286"><ele>5.0</ele><time>2026-04-15T08:04:49.335Z</time></trkpt><trkpt lat="45.8183823" lon="13.3902284"><ele>5.0</ele><time>2026-04-15T08:04:50.33Z</time></trkpt><trkpt lat="45.8184281" lon="13.3900277"><ele>5.0</ele><time>2026-04-15T08:04:51.32Z</time></trkpt><trkpt lat="45.8184655" lon="13.3898245"><ele>5.0</ele><time>2026-04-15T08:04:52.329Z</time></trkpt><trkpt lat="45.8184924" lon="13.3896163"><ele>5.25</ele><time>2026-04-15T08:04:53.333Z</time></trkpt><trkpt lat="45.8185165" lon="13.3894076"><ele>5.5</ele><time>2026-04-15T08:04:54.328Z</time></trkpt><trkpt lat="45.8185334" lon="13.3892018"><ele>5.75</ele><time>2026-04-15T08:04:55.336Z</time></trkpt><trkpt lat="45.8185464" lon="13.3889975"><ele>6.0</ele><time>2026-04-15T08:04:56.34Z</time></trkpt><trkpt lat="45.818556" lon="13.3887951"><ele>6.0</ele><time>2026-04-15T08:04:57.342Z</time></trkpt><trkpt lat="45.8185649" lon="13.3885939"><ele>6.0</ele><time>2026-04-15T08:04:58.359Z</time></trkpt><trkpt lat="45.8185751" lon="13.3884006"><ele>6.0</ele><time>2026-04-15T08:04:59.325Z</time></trkpt><trkpt lat="45.8185835" lon="13.3882101"><ele>6.0</ele><time>2026-04-15T08:05:00.343Z</time></trkpt><trkpt lat="45.8185893" lon="13.3880245"><ele>6.0</ele><time>2026-04-15T08:05:01.342Z</time></trkpt><trkpt lat="45.8185968" lon="13.3878399"><ele>6.0</ele><time>2026-04-15T08:05:02.326Z</time></trkpt><trkpt lat="45.8186016" lon="13.3876448"><ele>6.0</ele><time>2026-04-15T08:05:03.338Z</time></trkpt><trkpt lat="45.8186121" lon="13.3874511"><ele>6.0</ele><time>2026-04-15T08:05:04.344Z</time></trkpt><trkpt lat="45.8186199" lon="13.3872488"><ele>6.25</ele><time>2026-04-15T08:05:05.334Z</time></trkpt><trkpt lat="45.8186305" lon="13.3870422"><ele>6.5</ele><time>2026-04-15T08:05:06.342Z</time></trkpt><trkpt lat="45.8186442" lon="13.3868412"><ele>6.75</ele><time>2026-04-15T08:05:07.324Z</time></trkpt><trkpt lat="45.8186525" lon="13.3866337"><ele>7.0</ele><time>2026-04-15T08:05:08.331Z</time></trkpt><trkpt lat="45.8186643" lon="13.3864252"><ele>7.333333333333334</ele><time>2026-04-15T08:05:09.325Z</time></trkpt><trkpt lat="45.8186767" lon="13.3862131"><ele>7.666666666666666</ele><time>2026-04-15T08:05:10.33Z</time></trkpt><trkpt lat="45.8186877" lon="13.385995"><ele>8.0</ele><time>2026-04-15T08:05:11.34Z</time></trkpt><trkpt lat="45.8186986" lon="13.3857659"><ele>8.0</ele><time>2026-04-15T08:05:12.338Z</time></trkpt><trkpt lat="45.8187081" lon="13.3855353"><ele>8.0</ele><time>2026-04-15T08:05:13.342Z</time></trkpt><trkpt lat="45.8187138" lon="13.3853006"><ele>8.0</ele><time>2026-04-15T08:05:14.332Z</time></trkpt><trkpt lat="45.8187262" lon="13.3850796"><ele>7.333333333333333</ele><time>2026-04-15T08:05:15.328Z</time></trkpt><trkpt lat="45.8187358" lon="13.3848548"><ele>6.666666666666666</ele><time>2026-04-15T08:05:16.332Z</time></trkpt><trkpt lat="45.8187469" lon="13.3846392"><ele>6.0</ele><time>2026-04-15T08:05:17.336Z</time></trkpt><trkpt lat="45.8187612" lon="13.3844301"><ele>5.666666666666667</ele><time>2026-04-15T08:05:18.323Z</time></trkpt><trkpt lat="45.8187712" lon="13.3842171"><ele>5.333333333333334</ele><time>2026-04-15T08:05:19.343Z</time></trkpt><trkpt lat="45.8187844" lon="13.3839939"><ele>5.0</ele><time>2026-04-15T08:05:20.337Z</time></trkpt><trkpt lat="45.8188002" lon="13.3837725"><ele>5.0</ele><time>2026-04-15T08:05:21.334Z</time></trkpt><trkpt lat="45.8188106" lon="13.3835399"><ele>5.0</ele><time>2026-04-15T08:05:22.334Z</time></trkpt><trkpt lat="45.8188218" lon="13.3833104"><ele>5.0</ele><time>2026-04-15T08:05:23.321Z</time></trkpt><trkpt lat="45.818835" lon="13.383087"><ele>5.333333333333334</ele><time>2026-04-15T08:05:24.331Z</time></trkpt><trkpt lat="45.8188464" lon="13.3828659"><ele>5.666666666666667</ele><time>2026-04-15T08:05:25.32Z</time></trkpt><trkpt lat="45.8188545" lon="13.3826463"><ele>6.0</ele><time>2026-04-15T08:05:26.326Z</time></trkpt><trkpt lat="45.8188652" lon="13.3824183"><ele>6.0</ele><time>2026-04-15T08:05:27.338Z</time></trkpt><trkpt lat="45.8188762" lon="13.3821931"><ele>6.0</ele><time>2026-04-15T08:05:28.343Z</time></trkpt><trkpt lat="45.8188885" lon="13.3819732"><ele>6.0</ele><time>2026-04-15T08:05:29.314Z</time></trkpt><trkpt lat="45.8188978" lon="13.3817538"><ele>5.666666666666667</ele><time>2026-04-15T08:05:30.318Z</time></trkpt><trkpt lat="45.8189118" lon="13.3815375"><ele>5.333333333333334</ele><time>2026-04-15T08:05:31.319Z</time></trkpt><trkpt lat="45.8189311" lon="13.3813287"><ele>5.0</ele><time>2026-04-15T08:05:32.328Z</time></trkpt><trkpt lat="45.8189562" lon="13.3811143"><ele>4.666666666666667</ele><time>2026-04-15T08:05:33.335Z</time></trkpt><trkpt lat="45.8189914" lon="13.3809022"><ele>4.333333333333333</ele><time>2026-04-15T08:05:34.338Z</time></trkpt><trkpt lat="45.8190342" lon="13.3806862"><ele>4.0</ele><time>2026-04-15T08:05:35.325Z</time></trkpt><trkpt lat="45.8190788" lon="13.3804422"><ele>4.0</ele><time>2026-04-15T08:05:36.323Z</time></trkpt><trkpt lat="45.819123" lon="13.380185"><ele>4.0</ele><time>2026-04-15T08:05:37.321Z</time></trkpt><trkpt lat="45.8191671" lon="13.379912"><ele>4.0</ele><time>2026-04-15T08:05:38.339Z</time></trkpt><trkpt lat="45.8192136" lon="13.3796387"><ele>4.0</ele><time>2026-04-15T08:05:39.338Z</time></trkpt><trkpt lat="45.8192591" lon="13.3793644"><ele>4.0</ele><time>2026-04-15T08:05:40.321Z</time></trkpt><trkpt lat="45.8193052" lon="13.3790821"><ele>4.0</ele><time>2026-04-15T08:05:41.327Z</time></trkpt><trkpt lat="45.8193507" lon="13.3787765"><ele>4.0</ele><time>2026-04-15T08:05:42.318Z</time></trkpt><trkpt lat="45.8194035" lon="13.3784515"><ele>4.0</ele><time>2026-04-15T08:05:43.324Z</time></trkpt><trkpt lat="45.8194696" lon="13.3781141"><ele>4.0</ele><time>2026-04-15T08:05:44.342Z</time></trkpt><trkpt lat="45.8195388" lon="13.3777739"><ele>4.0</ele><time>2026-04-15T08:05:45.32Z</time></trkpt><trkpt lat="45.8195999" lon="13.3774409"><ele>3.5</ele><time>2026-04-15T08:05:46.333Z</time></trkpt><trkpt lat="45.8196555" lon="13.3771082"><ele>3.0</ele><time>2026-04-15T08:05:47.33Z</time></trkpt><trkpt lat="45.8197076" lon="13.3767842"><ele>3.0</ele><time>2026-04-15T08:05:48.325Z</time></trkpt><trkpt lat="45.8197636" lon="13.3764623"><ele>3.0</ele><time>2026-04-15T08:05:49.32Z</time></trkpt><trkpt lat="45.8198191" lon="13.3761485"><ele>3.333333333333333</ele><time>2026-04-15T08:05:50.344Z</time></trkpt><trkpt lat="45.8198752" lon="13.3758394"><ele>3.6666666666666665</ele><time>2026-04-15T08:05:51.318Z</time></trkpt><trkpt lat="45.8199293" lon="13.3755295"><ele>4.0</ele><time>2026-04-15T08:05:52.315Z</time></trkpt><trkpt lat="45.8199821" lon="13.3752238"><ele>5.333333333333333</ele><time>2026-04-15T08:05:53.335Z</time></trkpt><trkpt lat="45.8200343" lon="13.3749259"><ele>6.666666666666666</ele><time>2026-04-15T08:05:54.321Z</time></trkpt><trkpt lat="45.8200865" lon="13.3746239"><ele>8.0</ele><time>2026-04-15T08:05:55.319Z</time></trkpt><trkpt lat="45.820139" lon="13.3743199"><ele>8.666666666666666</ele><time>2026-04-15T08:05:56.322Z</time></trkpt><trkpt lat="45.820189" lon="13.3740219"><ele>9.333333333333334</ele><time>2026-04-15T08:05:57.334Z</time></trkpt><trkpt lat="45.8202418" lon="13.3737201"><ele>10.0</ele><time>2026-04-15T08:05:58.323Z</time></trkpt><trkpt lat="45.8202929" lon="13.3734193"><ele>8.666666666666668</ele><time>2026-04-15T08:05:59.324Z</time></trkpt><trkpt lat="45.8203436" lon="13.3731216"><ele>7.333333333333334</ele><time>2026-04-15T08:06:00.335Z</time></trkpt><trkpt lat="45.8203944" lon="13.3728264"><ele>6.0</ele><time>2026-04-15T08:06:01.335Z</time></trkpt><trkpt lat="45.8204455" lon="13.3725318"><ele>6.0</ele><time>2026-04-15T08:06:02.332Z</time></trkpt><trkpt lat="45.8204961" lon="13.3722367"><ele>6.0</ele><time>2026-04-15T08:06:03.326Z</time></trkpt><trkpt lat="45.820546" lon="13.3719413"><ele>6.0</ele><time>2026-04-15T08:06:04.325Z</time></trkpt><trkpt lat="45.8205926" lon="13.3716353"><ele>6.5</ele><time>2026-04-15T08:06:05.321Z</time></trkpt><trkpt lat="45.8206418" lon="13.3713224"><ele>7.0</ele><time>2026-04-15T08:06:06.321Z</time></trkpt><trkpt lat="45.8206966" lon="13.3709988"><ele>7.0</ele><time>2026-04-15T08:06:07.312Z</time></trkpt><trkpt lat="45.820751" lon="13.3706534"><ele>7.0</ele><time>2026-04-15T08:06:08.331Z</time></trkpt><trkpt lat="45.820811" lon="13.3702925"><ele>7.0</ele><time>2026-04-15T08:06:09.325Z</time></trkpt><trkpt lat="45.8208754" lon="13.3699412"><ele>7.0</ele><time>2026-04-15T08:06:10.315Z</time></trkpt><trkpt lat="45.8209384" lon="13.3696039"><ele>7.666666666666667</ele><time>2026-04-15T08:06:11.326Z</time></trkpt><trkpt lat="45.8209989" lon="13.3692907"><ele>8.333333333333334</ele><time>2026-04-15T08:06:12.317Z</time></trkpt><trkpt lat="45.821052" lon="13.3689906"><ele>9.0</ele><time>2026-04-15T08:06:13.326Z</time></trkpt><trkpt lat="45.8211035" lon="13.3686867"><ele>9.0</ele><time>2026-04-15T08:06:14.325Z</time></trkpt><trkpt lat="45.8211588" lon="13.3683888"><ele>9.0</ele><time>2026-04-15T08:06:15.336Z</time></trkpt><trkpt lat="45.8212117" lon="13.3680949"><ele>9.0</ele><time>2026-04-15T08:06:16.325Z</time></trkpt><trkpt lat="45.8212606" lon="13.3678074"><ele>8.333333333333334</ele><time>2026-04-15T08:06:17.326Z</time></trkpt><trkpt lat="45.8213108" lon="13.3675121"><ele>7.666666666666667</ele><time>2026-04-15T08:06:18.34Z</time></trkpt><trkpt lat="45.8213611" lon="13.3672318"><ele>7.0</ele><time>2026-04-15T08:06:19.323Z</time></trkpt><trkpt lat="45.8214082" lon="13.3669512"><ele>6.666666666666667</ele><time>2026-04-15T08:06:20.332Z</time></trkpt><trkpt lat="45.8214545" lon="13.3666782"><ele>6.333333333333334</ele><time>2026-04-15T08:06:21.325Z</time></trkpt><trkpt lat="45.8215022" lon="13.3664224"><ele>6.0</ele><time>2026-04-15T08:06:22.338Z</time></trkpt><trkpt lat="45.8215471" lon="13.36619"><ele>6.0</ele><time>2026-04-15T08:06:23.339Z</time></trkpt><trkpt lat="45.8215825" lon="13.3659771"><ele>6.0</ele><time>2026-04-15T08:06:24.335Z</time></trkpt><trkpt lat="45.8216159" lon="13.3658035"><ele>6.0</ele><time>2026-04-15T08:06:25.326Z</time></trkpt><trkpt lat="45.8216408" lon="13.3656647"><ele>6.0</ele><time>2026-04-15T08:06:26.327Z</time></trkpt><trkpt lat="45.8216655" lon="13.3655711"><ele>6.0</ele><time>2026-04-15T08:06:27.351Z</time></trkpt><trkpt lat="45.821729" lon="13.3654637"><ele>5.75</ele><time>2026-04-15T08:06:29.324Z</time></trkpt><trkpt lat="45.8218445" lon="13.3654428"><ele>5.5</ele><time>2026-04-15T08:06:32.327Z</time></trkpt><trkpt lat="45.8219184" lon="13.3654983"><ele>5.25</ele><time>2026-04-15T08:06:33.329Z</time></trkpt><trkpt lat="45.8220285" lon="13.3655545"><ele>5.0</ele><time>2026-04-15T08:06:34.324Z</time></trkpt><trkpt lat="45.8221603" lon="13.3656053"><ele>5.666666666666667</ele><time>2026-04-15T08:06:35.327Z</time></trkpt><trkpt lat="45.8223096" lon="13.3656729"><ele>6.333333333333334</ele><time>2026-04-15T08:06:36.341Z</time></trkpt><trkpt lat="45.8224533" lon="13.3657555"><ele>7.0</ele><time>2026-04-15T08:06:37.322Z</time></trkpt><trkpt lat="45.8225857" lon="13.3658291"><ele>6.6</ele><time>2026-04-15T08:06:38.327Z</time></trkpt><trkpt lat="45.8226967" lon="13.3658853"><ele>6.199999999999999</ele><time>2026-04-15T08:06:39.318Z</time></trkpt><trkpt lat="45.8227856" lon="13.3659292"><ele>5.8</ele><time>2026-04-15T08:06:40.319Z</time></trkpt><trkpt lat="45.8228597" lon="13.3659424"><ele>5.4</ele><time>2026-04-15T08:06:41.32Z</time></trkpt><trkpt lat="45.8229242" lon="13.3658235"><ele>5.0</ele><time>2026-04-15T08:06:43.331Z</time></trkpt><trkpt lat="45.8229653" lon="13.3656976"><ele>4.666666666666667</ele><time>2026-04-15T08:06:44.319Z</time></trkpt><trkpt lat="45.8229982" lon="13.3655052"><ele>4.333333333333333</ele><time>2026-04-15T08:06:45.32Z</time></trkpt><trkpt lat="45.8230441" lon="13.3652704"><ele>4.0</ele><time>2026-04-15T08:06:46.324Z</time></trkpt><trkpt lat="45.8230899" lon="13.3649987"><ele>4.0</ele><time>2026-04-15T08:06:47.319Z</time></trkpt><trkpt lat="45.8231384" lon="13.3647023"><ele>4.0</ele><time>2026-04-15T08:06:48.339Z</time></trkpt><trkpt lat="45.8231858" lon="13.3643844"><ele>4.0</ele><time>2026-04-15T08:06:49.323Z</time></trkpt><trkpt lat="45.8232338" lon="13.3640603"><ele>3.5</ele><time>2026-04-15T08:06:50.336Z</time></trkpt><trkpt lat="45.8232789" lon="13.3637275"><ele>3.0</ele><time>2026-04-15T08:06:51.321Z</time></trkpt><trkpt lat="45.8233264" lon="13.3633902"><ele>3.0</ele><time>2026-04-15T08:06:52.323Z</time></trkpt><trkpt lat="45.8233683" lon="13.3630542"><ele>3.0</ele><time>2026-04-15T08:06:53.32Z</time></trkpt><trkpt lat="45.8234042" lon="13.3627237"><ele>3.0</ele><time>2026-04-15T08:06:54.325Z</time></trkpt><trkpt lat="45.8234441" lon="13.3623997"><ele>3.0</ele><time>2026-04-15T08:06:55.312Z</time></trkpt><trkpt lat="45.8235184" lon="13.3617756"><ele>3.0</ele><time>2026-04-15T08:06:57.327Z</time></trkpt><trkpt lat="45.8235513" lon="13.3614907"><ele>3.0</ele><time>2026-04-15T08:06:58.324Z</time></trkpt><trkpt lat="45.8235773" lon="13.3612127"><ele>3.0</ele><time>2026-04-15T08:06:59.346Z</time></trkpt><trkpt lat="45.8236041" lon="13.3609521"><ele>2.6666666666666665</ele><time>2026-04-15T08:07:00.333Z</time></trkpt><trkpt lat="45.8236241" lon="13.3607029"><ele>2.333333333333333</ele><time>2026-04-15T08:07:01.352Z</time></trkpt><trkpt lat="45.8236396" lon="13.3604633"><ele>2.0</ele><time>2026-04-15T08:07:02.344Z</time></trkpt><trkpt lat="45.8236498" lon="13.3602247"><ele>1.6666666666666665</ele><time>2026-04-15T08:07:03.327Z</time></trkpt><trkpt lat="45.8236506" lon="13.3599887"><ele>1.3333333333333333</ele><time>2026-04-15T08:07:04.329Z</time></trkpt><trkpt lat="45.823648" lon="13.3597678"><ele>1.0</ele><time>2026-04-15T08:07:05.313Z</time></trkpt><trkpt lat="45.8236455" lon="13.3595655"><ele>1.0</ele><time>2026-04-15T08:07:06.327Z</time></trkpt><trkpt lat="45.8236532" lon="13.3593955"><ele>1.0</ele><time>2026-04-15T08:07:07.336Z</time></trkpt><trkpt lat="45.8236737" lon="13.3592534"><ele>1.0</ele><time>2026-04-15T08:07:08.332Z</time></trkpt><trkpt lat="45.8237315" lon="13.3591341"><ele>1.0</ele><time>2026-04-15T08:07:09.322Z</time></trkpt><trkpt lat="45.8238125" lon="13.3590417"><ele>1.0</ele><time>2026-04-15T08:07:10.332Z</time></trkpt><trkpt lat="45.8238835" lon="13.3589393"><ele>1.2000000000000002</ele><time>2026-04-15T08:07:11.323Z</time></trkpt><trkpt lat="45.8239177" lon="13.358803"><ele>1.4000000000000001</ele><time>2026-04-15T08:07:12.318Z</time></trkpt><trkpt lat="45.8239249" lon="13.3586625"><ele>1.6</ele><time>2026-04-15T08:07:13.333Z</time></trkpt><trkpt lat="45.8238977" lon="13.3585146"><ele>1.8</ele><time>2026-04-15T08:07:14.323Z</time></trkpt><trkpt lat="45.8238544" lon="13.3583718"><ele>2.0</ele><time>2026-04-15T08:07:15.33Z</time></trkpt><trkpt lat="45.8238045" lon="13.3582446"><ele>2.0</ele><time>2026-04-15T08:07:16.338Z</time></trkpt><trkpt lat="45.8237779" lon="13.3580971"><ele>2.0</ele><time>2026-04-15T08:07:17.338Z</time></trkpt><trkpt lat="45.8237594" lon="13.3579533"><ele>2.0</ele><time>2026-04-15T08:07:18.32Z</time></trkpt><trkpt lat="45.8236944" lon="13.3578229"><ele>2.0</ele><time>2026-04-15T08:07:19.332Z</time></trkpt><trkpt lat="45.8236097" lon="13.3577162"><ele>2.0</ele><time>2026-04-15T08:07:20.318Z</time></trkpt><trkpt lat="45.8234978" lon="13.3576648"><ele>2.0</ele><time>2026-04-15T08:07:21.314Z</time></trkpt><trkpt lat="45.8233803" lon="13.3576547"><ele>2.0</ele><time>2026-04-15T08:07:22.315Z</time></trkpt><trkpt lat="45.823259" lon="13.3576257"><ele>2.0</ele><time>2026-04-15T08:07:23.327Z</time></trkpt><trkpt lat="45.8231637" lon="13.3575206"><ele>2.0</ele><time>2026-04-15T08:07:24.328Z</time></trkpt><trkpt lat="45.8231275" lon="13.3573578"><ele>2.0</ele><time>2026-04-15T08:07:25.309Z</time></trkpt><trkpt lat="45.8231218" lon="13.3572103"><ele>2.0</ele><time>2026-04-15T08:07:26.328Z</time></trkpt><trkpt lat="45.8231466" lon="13.3570742"><ele>2.0</ele><time>2026-04-15T08:07:27.316Z</time></trkpt><trkpt lat="45.8231708" lon="13.3569178"><ele>2.0</ele><time>2026-04-15T08:07:28.312Z</time></trkpt><trkpt lat="45.8231542" lon="13.3567455"><ele>2.0</ele><time>2026-04-15T08:07:29.316Z</time></trkpt><trkpt lat="45.8231025" lon="13.3565505"><ele>2.333333333333333</ele><time>2026-04-15T08:07:30.317Z</time></trkpt><trkpt lat="45.8230319" lon="13.3563569"><ele>2.6666666666666665</ele><time>2026-04-15T08:07:31.317Z</time></trkpt><trkpt lat="45.8229587" lon="13.356164"><ele>3.0</ele><time>2026-04-15T08:07:32.318Z</time></trkpt><trkpt lat="45.8228933" lon="13.3559745"><ele>3.0</ele><time>2026-04-15T08:07:33.328Z</time></trkpt><trkpt lat="45.8228309" lon="13.3557777"><ele>3.0</ele><time>2026-04-15T08:07:34.314Z</time></trkpt><trkpt lat="45.8227775" lon="13.3555752"><ele>3.0</ele><time>2026-04-15T08:07:35.317Z</time></trkpt><trkpt lat="45.8227297" lon="13.3553693"><ele>3.333333333333333</ele><time>2026-04-15T08:07:36.322Z</time></trkpt><trkpt lat="45.822696" lon="13.3551569"><ele>3.6666666666666665</ele><time>2026-04-15T08:07:37.312Z</time></trkpt><trkpt lat="45.822671" lon="13.3549385"><ele>4.0</ele><time>2026-04-15T08:07:38.318Z</time></trkpt><trkpt lat="45.8226493" lon="13.3547132"><ele>4.666666666666666</ele><time>2026-04-15T08:07:39.308Z</time></trkpt><trkpt lat="45.8226307" lon="13.3544832"><ele>5.333333333333333</ele><time>2026-04-15T08:07:40.367Z</time></trkpt><trkpt lat="45.8226058" lon="13.3542468"><ele>6.0</ele><time>2026-04-15T08:07:41.312Z</time></trkpt><trkpt lat="45.8225828" lon="13.3540063"><ele>6.0</ele><time>2026-04-15T08:07:42.312Z</time></trkpt><trkpt lat="45.8225595" lon="13.353758"><ele>6.0</ele><time>2026-04-15T08:07:43.31Z</time></trkpt><trkpt lat="45.8225314" lon="13.3535028"><ele>6.0</ele><time>2026-04-15T08:07:44.316Z</time></trkpt><trkpt lat="45.8225073" lon="13.3532458"><ele>6.0</ele><time>2026-04-15T08:07:45.321Z</time></trkpt><trkpt lat="45.8224772" lon="13.3529737"><ele>6.0</ele><time>2026-04-15T08:07:46.314Z</time></trkpt><trkpt lat="45.822451" lon="13.3526971"><ele>6.0</ele><time>2026-04-15T08:07:47.316Z</time></trkpt><trkpt lat="45.8224223" lon="13.352416"><ele>5.666666666666667</ele><time>2026-04-15T08:07:48.32Z</time></trkpt><trkpt lat="45.8223785" lon="13.3521454"><ele>5.333333333333334</ele><time>2026-04-15T08:07:49.317Z</time></trkpt><trkpt lat="45.8223089" lon="13.351919"><ele>5.0</ele><time>2026-04-15T08:07:50.318Z</time></trkpt><trkpt lat="45.8222156" lon="13.351717"><ele>5.0</ele><time>2026-04-15T08:07:51.31Z</time></trkpt><trkpt lat="45.8221003" lon="13.3515334"><ele>5.0</ele><time>2026-04-15T08:07:52.316Z</time></trkpt><trkpt lat="45.8219867" lon="13.3513634"><ele>5.0</ele><time>2026-04-15T08:07:53.316Z</time></trkpt><trkpt lat="45.8218784" lon="13.3512003"><ele>6.0</ele><time>2026-04-15T08:07:54.313Z</time></trkpt><trkpt lat="45.821776" lon="13.351032"><ele>7.0</ele><time>2026-04-15T08:07:55.329Z</time></trkpt><trkpt lat="45.8216959" lon="13.3508449"><ele>8.0</ele><time>2026-04-15T08:07:56.324Z</time></trkpt><trkpt lat="45.82164" lon="13.3506379"><ele>7.666666666666666</ele><time>2026-04-15T08:07:57.313Z</time></trkpt><trkpt lat="45.8215976" lon="13.3504126"><ele>7.333333333333334</ele><time>2026-04-15T08:07:58.319Z</time></trkpt><trkpt lat="45.821578" lon="13.3501915"><ele>7.0</ele><time>2026-04-15T08:07:59.324Z</time></trkpt><trkpt lat="45.8215699" lon="13.3499895"><ele>7.0</ele><time>2026-04-15T08:08:00.326Z</time></trkpt><trkpt lat="45.8215657" lon="13.349812"><ele>6.999999999999999</ele><time>2026-04-15T08:08:01.322Z</time></trkpt><trkpt lat="45.8215797" lon="13.349661"><ele>6.999999999999999</ele><time>2026-04-15T08:08:02.338Z</time></trkpt><trkpt lat="45.8216045" lon="13.3495373"><ele>7.0</ele><time>2026-04-15T08:08:03.312Z</time></trkpt><trkpt lat="45.821632" lon="13.3494165"><ele>7.0</ele><time>2026-04-15T08:08:04.317Z</time></trkpt><trkpt lat="45.8216664" lon="13.3493034"><ele>6.500000000000001</ele><time>2026-04-15T08:08:05.311Z</time></trkpt><trkpt lat="45.8216925" lon="13.3491955"><ele>6.0</ele><time>2026-04-15T08:08:06.314Z</time></trkpt><trkpt lat="45.8217042" lon="13.349084"><ele>5.5</ele><time>2026-04-15T08:08:07.32Z</time></trkpt><trkpt lat="45.8216944" lon="13.3489612"><ele>5.0</ele><time>2026-04-15T08:08:08.317Z</time></trkpt><trkpt lat="45.8216715" lon="13.3488226"><ele>4.5</ele><time>2026-04-15T08:08:09.318Z</time></trkpt><trkpt lat="45.8216498" lon="13.3486774"><ele>4.0</ele><time>2026-04-15T08:08:10.314Z</time></trkpt><trkpt lat="45.82164" lon="13.348527"><ele>4.0</ele><time>2026-04-15T08:08:11.328Z</time></trkpt><trkpt lat="45.8216293" lon="13.3483561"><ele>4.0</ele><time>2026-04-15T08:08:12.315Z</time></trkpt><trkpt lat="45.8216232" lon="13.348167"><ele>4.0</ele><time>2026-04-15T08:08:13.32Z</time></trkpt><trkpt lat="45.8216227" lon="13.3479644"><ele>4.0</ele><time>2026-04-15T08:08:14.309Z</time></trkpt><trkpt lat="45.821626" lon="13.3477598"><ele>4.0</ele><time>2026-04-15T08:08:15.312Z</time></trkpt><trkpt lat="45.8216293" lon="13.3475656"><ele>4.0</ele><time>2026-04-15T08:08:16.319Z</time></trkpt><trkpt lat="45.8216317" lon="13.3473726"><ele>4.0</ele><time>2026-04-15T08:08:17.326Z</time></trkpt><trkpt lat="45.8216304" lon="13.3471895"><ele>4.0</ele><time>2026-04-15T08:08:18.306Z</time></trkpt><trkpt lat="45.8216316" lon="13.3470109"><ele>3.75</ele><time>2026-04-15T08:08:19.307Z</time></trkpt><trkpt lat="45.8216349" lon="13.3468321"><ele>3.5</ele><time>2026-04-15T08:08:20.335Z</time></trkpt><trkpt lat="45.8216397" lon="13.3466585"><ele>3.25</ele><time>2026-04-15T08:08:21.32Z</time></trkpt><trkpt lat="45.8216423" lon="13.3464768"><ele>3.0</ele><time>2026-04-15T08:08:22.31Z</time></trkpt><trkpt lat="45.8216463" lon="13.3462917"><ele>3.0</ele><time>2026-04-15T08:08:23.316Z</time></trkpt><trkpt lat="45.8216517" lon="13.3461051"><ele>3.0</ele><time>2026-04-15T08:08:24.322Z</time></trkpt><trkpt lat="45.8216558" lon="13.3459051"><ele>3.0</ele><time>2026-04-15T08:08:25.312Z</time></trkpt><trkpt lat="45.8216569" lon="13.3456991"><ele>3.0</ele><time>2026-04-15T08:08:26.313Z</time></trkpt><trkpt lat="45.8216616" lon="13.3454873"><ele>3.333333333333333</ele><time>2026-04-15T08:08:27.302Z</time></trkpt><trkpt lat="45.8216659" lon="13.3452737"><ele>3.6666666666666665</ele><time>2026-04-15T08:08:28.308Z</time></trkpt><trkpt lat="45.8216654" lon="13.3450551"><ele>4.0</ele><time>2026-04-15T08:08:29.309Z</time></trkpt><trkpt lat="45.8216661" lon="13.3448395"><ele>4.2</ele><time>2026-04-15T08:08:30.307Z</time></trkpt><trkpt lat="45.821662" lon="13.3446405"><ele>4.4</ele><time>2026-04-15T08:08:31.321Z</time></trkpt><trkpt lat="45.8216607" lon="13.3444871"><ele>4.6</ele><time>2026-04-15T08:08:32.302Z</time></trkpt><trkpt lat="45.8216568" lon="13.3443419"><ele>4.8</ele><time>2026-04-15T08:08:33.313Z</time></trkpt><trkpt lat="45.8216314" lon="13.3442084"><ele>5.0</ele><time>2026-04-15T08:08:34.321Z</time></trkpt><trkpt lat="45.8215908" lon="13.3440846"><ele>5.0</ele><time>2026-04-15T08:08:35.317Z</time></trkpt><trkpt lat="45.8215379" lon="13.343966"><ele>5.0</ele><time>2026-04-15T08:08:36.319Z</time></trkpt><trkpt lat="45.821483" lon="13.3438673"><ele>5.0</ele><time>2026-04-15T08:08:37.311Z</time></trkpt><trkpt lat="45.8214315" lon="13.3437543"><ele>5.0</ele><time>2026-04-15T08:08:38.315Z</time></trkpt><trkpt lat="45.8213737" lon="13.3436285"><ele>5.0</ele><time>2026-04-15T08:08:39.306Z</time></trkpt><trkpt lat="45.82131" lon="13.3435077"><ele>4.75</ele><time>2026-04-15T08:08:40.323Z</time></trkpt><trkpt lat="45.821245" lon="13.3433833"><ele>4.5</ele><time>2026-04-15T08:08:41.318Z</time></trkpt><trkpt lat="45.821174" lon="13.3432561"><ele>4.25</ele><time>2026-04-15T08:08:42.32Z</time></trkpt><trkpt lat="45.821105" lon="13.3431235"><ele>4.0</ele><time>2026-04-15T08:08:43.319Z</time></trkpt><trkpt lat="45.8210351" lon="13.3429925"><ele>4.0</ele><time>2026-04-15T08:08:44.327Z</time></trkpt><trkpt lat="45.8209706" lon="13.3428648"><ele>4.0</ele><time>2026-04-15T08:08:45.33Z</time></trkpt><trkpt lat="45.8209131" lon="13.3427503"><ele>4.0</ele><time>2026-04-15T08:08:46.308Z</time></trkpt><trkpt lat="45.820859" lon="13.3426471"><ele>4.0</ele><time>2026-04-15T08:08:47.314Z</time></trkpt><trkpt lat="45.8208117" lon="13.3425724"><ele>4.0</ele><time>2026-04-15T08:08:48.309Z</time></trkpt><trkpt lat="45.8207477" lon="13.3424685"><ele>3.9999999999999996</ele><time>2026-04-15T08:08:50.326Z</time></trkpt><trkpt lat="45.8207149" lon="13.3423684"><ele>4.0</ele><time>2026-04-15T08:08:53.318Z</time></trkpt><trkpt lat="45.8207264" lon="13.3422655"><ele>4.0</ele><time>2026-04-15T08:08:55.317Z</time></trkpt><trkpt lat="45.8207784" lon="13.3421228"><ele>4.0</ele><time>2026-04-15T08:08:57.316Z</time></trkpt><trkpt lat="45.8208355" lon="13.3420409"><ele>3.9999999999999996</ele><time>2026-04-15T08:08:58.302Z</time></trkpt><trkpt lat="45.8209202" lon="13.3419493"><ele>4.0</ele><time>2026-04-15T08:08:59.334Z</time></trkpt><trkpt lat="45.8210223" lon="13.3418479"><ele>4.25</ele><time>2026-04-15T08:09:00.306Z</time></trkpt><trkpt lat="45.8211313" lon="13.3417308"><ele>4.5</ele><time>2026-04-15T08:09:01.302Z</time></trkpt><trkpt lat="45.8212527" lon="13.3416014"><ele>4.75</ele><time>2026-04-15T08:09:02.334Z</time></trkpt><trkpt lat="45.821378" lon="13.3414742"><ele>5.0</ele><time>2026-04-15T08:09:03.307Z</time></trkpt><trkpt lat="45.8215041" lon="13.3413459"><ele>5.0</ele><time>2026-04-15T08:09:04.308Z</time></trkpt><trkpt lat="45.8216314" lon="13.3412141"><ele>5.0</ele><time>2026-04-15T08:09:05.297Z</time></trkpt><trkpt lat="45.8217575" lon="13.3410945"><ele>5.0</ele><time>2026-04-15T08:09:06.311Z</time></trkpt><trkpt lat="45.8218676" lon="13.3409877"><ele>5.0</ele><time>2026-04-15T08:09:07.306Z</time></trkpt><trkpt lat="45.8219695" lon="13.3408788"><ele>5.0</ele><time>2026-04-15T08:09:08.309Z</time></trkpt><trkpt lat="45.8220581" lon="13.340764"><ele>5.0</ele><time>2026-04-15T08:09:09.313Z</time></trkpt><trkpt lat="45.8221289" lon="13.3406244"><ele>5.0</ele><time>2026-04-15T08:09:10.313Z</time></trkpt><trkpt lat="45.8222008" lon="13.3404674"><ele>5.0</ele><time>2026-04-15T08:09:11.303Z</time></trkpt><trkpt lat="45.8222668" lon="13.3403194"><ele>5.0</ele><time>2026-04-15T08:09:12.311Z</time></trkpt><trkpt lat="45.8223253" lon="13.3401777"><ele>5.0</ele><time>2026-04-15T08:09:13.313Z</time></trkpt><trkpt lat="45.8223746" lon="13.3400422"><ele>5.0</ele><time>2026-04-15T08:09:14.299Z</time></trkpt><trkpt lat="45.8224243" lon="13.3399084"><ele>5.0</ele><time>2026-04-15T08:09:15.321Z</time></trkpt><trkpt lat="45.8224808" lon="13.339769"><ele>5.0</ele><time>2026-04-15T08:09:16.316Z</time></trkpt><trkpt lat="45.8225292" lon="13.3396445"><ele>4.8</ele><time>2026-04-15T08:09:17.306Z</time></trkpt><trkpt lat="45.8225768" lon="13.3395246"><ele>4.6</ele><time>2026-04-15T08:09:18.302Z</time></trkpt><trkpt lat="45.8226286" lon="13.3394049"><ele>4.4</ele><time>2026-04-15T08:09:19.299Z</time></trkpt><trkpt lat="45.82269" lon="13.3392784"><ele>4.2</ele><time>2026-04-15T08:09:20.309Z</time></trkpt><trkpt lat="45.8227476" lon="13.3391436"><ele>4.0</ele><time>2026-04-15T08:09:21.302Z</time></trkpt><trkpt lat="45.8227992" lon="13.3390051"><ele>3.8000000000000003</ele><time>2026-04-15T08:09:22.324Z</time></trkpt><trkpt lat="45.8228451" lon="13.3388783"><ele>3.6000000000000005</ele><time>2026-04-15T08:09:23.307Z</time></trkpt><trkpt lat="45.8228815" lon="13.3387719"><ele>3.4</ele><time>2026-04-15T08:09:24.309Z</time></trkpt><trkpt lat="45.8229387" lon="13.3386564"><ele>3.2</ele><time>2026-04-15T08:09:26.308Z</time></trkpt><trkpt lat="45.8229989" lon="13.3385925"><ele>3.0</ele><time>2026-04-15T08:09:34.323Z</time></trkpt><trkpt lat="45.8229874" lon="13.3384277"><ele>3.0</ele><time>2026-04-15T08:09:36.305Z</time></trkpt><trkpt lat="45.8229602" lon="13.3383106"><ele>3.0</ele><time>2026-04-15T08:09:37.305Z</time></trkpt><trkpt lat="45.822931" lon="13.3381802"><ele>3.0</ele><time>2026-04-15T08:09:38.316Z</time></trkpt><trkpt lat="45.8228954" lon="13.3380412"><ele>3.0</ele><time>2026-04-15T08:09:39.305Z</time></trkpt><trkpt lat="45.822776" lon="13.3377665"><ele>3.75</ele><time>2026-04-15T08:09:41.3Z</time></trkpt><trkpt lat="45.8227129" lon="13.3376247"><ele>4.5</ele><time>2026-04-15T08:09:42.321Z</time></trkpt><trkpt lat="45.8226431" lon="13.3374794"><ele>5.25</ele><time>2026-04-15T08:09:43.303Z</time></trkpt><trkpt lat="45.8225797" lon="13.3373265"><ele>6.0</ele><time>2026-04-15T08:09:44.3Z</time></trkpt><trkpt lat="45.8225171" lon="13.3371621"><ele>6.0</ele><time>2026-04-15T08:09:45.32Z</time></trkpt><trkpt lat="45.8224577" lon="13.3370081"><ele>6.0</ele><time>2026-04-15T08:09:46.306Z</time></trkpt><trkpt lat="45.8224037" lon="13.3368582"><ele>6.0</ele><time>2026-04-15T08:09:47.296Z</time></trkpt><trkpt lat="45.8223625" lon="13.3367063"><ele>6.0</ele><time>2026-04-15T08:09:48.294Z</time></trkpt><trkpt lat="45.8223151" lon="13.3365619"><ele>6.0</ele><time>2026-04-15T08:09:49.31Z</time></trkpt><trkpt lat="45.8222615" lon="13.3364173"><ele>6.0</ele><time>2026-04-15T08:09:50.314Z</time></trkpt><trkpt lat="45.8222216" lon="13.3362751"><ele>6.0</ele><time>2026-04-15T08:09:51.299Z</time></trkpt><trkpt lat="45.8221908" lon="13.3361479"><ele>6.0</ele><time>2026-04-15T08:09:52.313Z</time></trkpt><trkpt lat="45.822153" lon="13.3360289"><ele>6.0</ele><time>2026-04-15T08:09:53.302Z</time></trkpt><trkpt lat="45.8221058" lon="13.3359265"><ele>5.75</ele><time>2026-04-15T08:09:55.304Z</time></trkpt><trkpt lat="45.8220678" lon="13.3358113"><ele>5.5</ele><time>2026-04-15T08:10:04.304Z</time></trkpt><trkpt lat="45.8220112" lon="13.3356231"><ele>5.25</ele><time>2026-04-15T08:10:06.298Z</time></trkpt><trkpt lat="45.8219575" lon="13.3354866"><ele>5.0</ele><time>2026-04-15T08:10:07.306Z</time></trkpt><trkpt lat="45.8218852" lon="13.3352817"><ele>5.0</ele><time>2026-04-15T08:10:08.293Z</time></trkpt><trkpt lat="45.8218331" lon="13.3351062"><ele>5.0</ele><time>2026-04-15T08:10:09.304Z</time></trkpt><trkpt lat="45.821777" lon="13.3349272"><ele>5.0</ele><time>2026-04-15T08:10:10.299Z</time></trkpt><trkpt lat="45.8217258" lon="13.3347484"><ele>5.0</ele><time>2026-04-15T08:10:11.3Z</time></trkpt><trkpt lat="45.8216808" lon="13.3345749"><ele>5.2</ele><time>2026-04-15T08:10:12.304Z</time></trkpt><trkpt lat="45.8216285" lon="13.3344086"><ele>5.4</ele><time>2026-04-15T08:10:13.303Z</time></trkpt><trkpt lat="45.8215831" lon="13.3342554"><ele>5.6</ele><time>2026-04-15T08:10:14.303Z</time></trkpt><trkpt lat="45.8215492" lon="13.3341292"><ele>5.8</ele><time>2026-04-15T08:10:15.303Z</time></trkpt><trkpt lat="45.8215467" lon="13.3340169"><ele>6.0</ele><time>2026-04-15T08:10:16.294Z</time></trkpt><trkpt lat="45.8215675" lon="13.3339151"><ele>5.8</ele><time>2026-04-15T08:10:17.319Z</time></trkpt><trkpt lat="45.8216146" lon="13.3338122"><ele>5.6</ele><time>2026-04-15T08:10:19.3Z</time></trkpt><trkpt lat="45.821677" lon="13.3337964"><ele>5.4</ele><time>2026-04-15T08:10:20.298Z</time></trkpt><trkpt lat="45.8217849" lon="13.3337458"><ele>5.2</ele><time>2026-04-15T08:10:22.291Z</time></trkpt><trkpt lat="45.8218656" lon="13.3336736"><ele>5.0</ele><time>2026-04-15T08:10:24.307Z</time></trkpt><trkpt lat="45.8219724" lon="13.3335846"><ele>4.5</ele><time>2026-04-15T08:10:26.292Z</time></trkpt><trkpt lat="45.8220318" lon="13.3335201"><ele>4.0</ele><time>2026-04-15T08:10:27.297Z</time></trkpt><trkpt lat="45.8220989" lon="13.3334494"><ele>3.5</ele><time>2026-04-15T08:10:28.296Z</time></trkpt><trkpt lat="45.8221719" lon="13.3333815"><ele>3.0</ele><time>2026-04-15T08:10:29.306Z</time></trkpt><trkpt lat="45.8222632" lon="13.3333305"><ele>2.5</ele><time>2026-04-15T08:10:30.301Z</time></trkpt><trkpt lat="45.8223374" lon="13.3332883"><ele>2.0</ele><time>2026-04-15T08:10:31.292Z</time></trkpt><trkpt lat="45.8224096" lon="13.3332507"><ele>2.0</ele><time>2026-04-15T08:10:32.296Z</time></trkpt><trkpt lat="45.8224748" lon="13.3332029"><ele>2.0</ele><time>2026-04-15T08:10:33.295Z</time></trkpt><trkpt lat="45.8225361" lon="13.3330831"><ele>2.0</ele><time>2026-04-15T08:10:35.294Z</time></trkpt><trkpt lat="45.8224739" lon="13.3329453"><ele>2.0</ele><time>2026-04-15T08:10:37.294Z</time></trkpt><trkpt lat="45.8224186" lon="13.3328371"><ele>2.0</ele><time>2026-04-15T08:10:38.302Z</time></trkpt><trkpt lat="45.8223544" lon="13.3327291"><ele>1.8333333333333333</ele><time>2026-04-15T08:10:39.29Z</time></trkpt><trkpt lat="45.8222912" lon="13.3326187"><ele>1.6666666666666665</ele><time>2026-04-15T08:10:40.297Z</time></trkpt><trkpt lat="45.8222255" lon="13.3325135"><ele>1.5</ele><time>2026-04-15T08:10:41.292Z</time></trkpt><trkpt lat="45.8221693" lon="13.3324161"><ele>1.3333333333333333</ele><time>2026-04-15T08:10:42.294Z</time></trkpt><trkpt lat="45.8221162" lon="13.332343"><ele>1.1666666666666665</ele><time>2026-04-15T08:10:43.298Z</time></trkpt><trkpt lat="45.8220489" lon="13.3322966"><ele>1.0</ele><time>2026-04-15T08:10:44.31Z</time></trkpt><trkpt lat="45.821972" lon="13.3323171"><ele>0.9999999999999999</ele><time>2026-04-15T08:10:45.303Z</time></trkpt><trkpt lat="45.8219018" lon="13.3323722"><ele>1.0</ele><time>2026-04-15T08:10:46.298Z</time></trkpt><trkpt lat="45.8218306" lon="13.3324553"><ele>1.0</ele><time>2026-04-15T08:10:47.291Z</time></trkpt><trkpt lat="45.8217692" lon="13.3325472"><ele>1.0</ele><time>2026-04-15T08:10:48.298Z</time></trkpt><trkpt lat="45.8217148" lon="13.3326535"><ele>0.9999999999999999</ele><time>2026-04-15T08:10:49.307Z</time></trkpt><trkpt lat="45.821646" lon="13.3327357"><ele>1.0</ele><time>2026-04-15T08:10:50.299Z</time></trkpt><trkpt lat="45.8215879" lon="13.3328101"><ele>1.1666666666666665</ele><time>2026-04-15T08:10:51.292Z</time></trkpt><trkpt lat="45.821539" lon="13.3328782"><ele>1.3333333333333333</ele><time>2026-04-15T08:10:53.297Z</time></trkpt><trkpt lat="45.8215003" lon="13.3329775"><ele>1.5</ele><time>2026-04-15T08:11:27.29Z</time></trkpt><trkpt lat="45.8214299" lon="13.3330094"><ele>1.6666666666666665</ele><time>2026-04-15T08:11:28.309Z</time></trkpt><trkpt lat="45.8213392" lon="13.3329913"><ele>1.8333333333333333</ele><time>2026-04-15T08:11:29.29Z</time></trkpt><trkpt lat="45.8212721" lon="13.3329213"><ele>2.0</ele><time>2026-04-15T08:11:30.289Z</time></trkpt><trkpt lat="45.821201" lon="13.3328221"><ele>2.0</ele><time>2026-04-15T08:11:31.287Z</time></trkpt><trkpt lat="45.8211076" lon="13.3327228"><ele>2.0</ele><time>2026-04-15T08:11:32.282Z</time></trkpt><trkpt lat="45.8210059" lon="13.3326386"><ele>2.0</ele><time>2026-04-15T08:11:33.297Z</time></trkpt><trkpt lat="45.8209019" lon="13.3325632"><ele>2.0</ele><time>2026-04-15T08:11:34.295Z</time></trkpt><trkpt lat="45.8208106" lon="13.3324728"><ele>2.25</ele><time>2026-04-15T08:11:35.288Z</time></trkpt><trkpt lat="45.8207482" lon="13.3323275"><ele>2.5</ele><time>2026-04-15T08:11:36.281Z</time></trkpt><trkpt lat="45.8206882" lon="13.3321595"><ele>2.75</ele><time>2026-04-15T08:11:37.291Z</time></trkpt><trkpt lat="45.8206182" lon="13.3320041"><ele>3.0</ele><time>2026-04-15T08:11:38.293Z</time></trkpt><trkpt lat="45.8205037" lon="13.3318714"><ele>3.0</ele><time>2026-04-15T08:11:39.315Z</time></trkpt><trkpt lat="45.8203615" lon="13.3317614"><ele>3.0</ele><time>2026-04-15T08:11:40.301Z</time></trkpt><trkpt lat="45.8202377" lon="13.3316141"><ele>3.0</ele><time>2026-04-15T08:11:41.295Z</time></trkpt><trkpt lat="45.8201361" lon="13.3314436"><ele>3.0</ele><time>2026-04-15T08:11:42.292Z</time></trkpt><trkpt lat="45.8200408" lon="13.3312687"><ele>3.0</ele><time>2026-04-15T08:11:43.289Z</time></trkpt><trkpt lat="45.8199496" lon="13.3310827"><ele>3.0</ele><time>2026-04-15T08:11:44.292Z</time></trkpt><trkpt lat="45.8198645" lon="13.3308929"><ele>3.0</ele><time>2026-04-15T08:11:45.294Z</time></trkpt><trkpt lat="45.8197964" lon="13.3306897"><ele>3.0</ele><time>2026-04-15T08:11:46.304Z</time></trkpt><trkpt lat="45.8197388" lon="13.3304793"><ele>3.0</ele><time>2026-04-15T08:11:47.333Z</time></trkpt><trkpt lat="45.8196974" lon="13.3302634"><ele>2.6666666666666665</ele><time>2026-04-15T08:11:48.292Z</time></trkpt><trkpt lat="45.819655" lon="13.3300556"><ele>2.333333333333333</ele><time>2026-04-15T08:11:49.287Z</time></trkpt><trkpt lat="45.8196071" lon="13.3298313"><ele>2.0</ele><time>2026-04-15T08:11:50.29Z</time></trkpt><trkpt lat="45.819567" lon="13.3296162"><ele>2.0</ele><time>2026-04-15T08:11:51.305Z</time></trkpt><trkpt lat="45.8194726" lon="13.329176"><ele>2.0</ele><time>2026-04-15T08:11:53.302Z</time></trkpt><trkpt lat="45.8194326" lon="13.3289582"><ele>2.333333333333333</ele><time>2026-04-15T08:11:54.295Z</time></trkpt><trkpt lat="45.8193857" lon="13.3287396"><ele>2.6666666666666665</ele><time>2026-04-15T08:11:55.296Z</time></trkpt><trkpt lat="45.8193372" lon="13.3285269"><ele>3.0</ele><time>2026-04-15T08:11:56.304Z</time></trkpt><trkpt lat="45.8192859" lon="13.3283129"><ele>3.0</ele><time>2026-04-15T08:11:57.315Z</time></trkpt><trkpt lat="45.819231" lon="13.3281134"><ele>3.0</ele><time>2026-04-15T08:11:58.304Z</time></trkpt><trkpt lat="45.8191607" lon="13.32791"><ele>3.0</ele><time>2026-04-15T08:11:59.288Z</time></trkpt><trkpt lat="45.8190786" lon="13.3277143"><ele>2.6666666666666665</ele><time>2026-04-15T08:12:00.283Z</time></trkpt><trkpt lat="45.8189855" lon="13.3275275"><ele>2.333333333333333</ele><time>2026-04-15T08:12:01.296Z</time></trkpt><trkpt lat="45.8188903" lon="13.3273375"><ele>2.0</ele><time>2026-04-15T08:12:02.291Z</time></trkpt><trkpt lat="45.8187895" lon="13.3271483"><ele>2.0</ele><time>2026-04-15T08:12:03.288Z</time></trkpt><trkpt lat="45.8186925" lon="13.3269535"><ele>2.0</ele><time>2026-04-15T08:12:04.293Z</time></trkpt><trkpt lat="45.8185907" lon="13.3267574"><ele>2.0</ele><time>2026-04-15T08:12:05.287Z</time></trkpt><trkpt lat="45.8184886" lon="13.3265624"><ele>3.0</ele><time>2026-04-15T08:12:06.308Z</time></trkpt><trkpt lat="45.8183855" lon="13.3263676"><ele>4.0</ele><time>2026-04-15T08:12:07.311Z</time></trkpt><trkpt lat="45.8182741" lon="13.3261522"><ele>5.0</ele><time>2026-04-15T08:12:08.305Z</time></trkpt><trkpt lat="45.8181532" lon="13.3259107"><ele>5.0</ele><time>2026-04-15T08:12:09.287Z</time></trkpt><trkpt lat="45.8180284" lon="13.3256764"><ele>5.0</ele><time>2026-04-15T08:12:10.299Z</time></trkpt><trkpt lat="45.8179017" lon="13.3254379"><ele>5.0</ele><time>2026-04-15T08:12:11.294Z</time></trkpt><trkpt lat="45.8177857" lon="13.3252128"><ele>5.0</ele><time>2026-04-15T08:12:12.302Z</time></trkpt><trkpt lat="45.8176788" lon="13.3249975"><ele>5.0</ele><time>2026-04-15T08:12:13.289Z</time></trkpt><trkpt lat="45.8175699" lon="13.3247956"><ele>5.0</ele><time>2026-04-15T08:12:14.292Z</time></trkpt><trkpt lat="45.8174727" lon="13.3246169"><ele>4.0</ele><time>2026-04-15T08:12:15.299Z</time></trkpt><trkpt lat="45.8173786" lon="13.3244538"><ele>3.0</ele><time>2026-04-15T08:12:16.293Z</time></trkpt><trkpt lat="45.8172853" lon="13.3243017"><ele>2.0</ele><time>2026-04-15T08:12:17.291Z</time></trkpt><trkpt lat="45.8172085" lon="13.324163"><ele>1.0</ele><time>2026-04-15T08:12:18.295Z</time></trkpt><trkpt lat="45.8171637" lon="13.3240286"><ele>1.0</ele><time>2026-04-15T08:12:19.285Z</time></trkpt><trkpt lat="45.8171624" lon="13.3238903"><ele>1.0</ele><time>2026-04-15T08:12:20.292Z</time></trkpt><trkpt lat="45.817212" lon="13.3237581"><ele>1.0</ele><time>2026-04-15T08:12:21.284Z</time></trkpt><trkpt lat="45.8173012" lon="13.3236439"><ele>1.0</ele><time>2026-04-15T08:12:22.282Z</time></trkpt><trkpt lat="45.8173983" lon="13.3235303"><ele>1.0</ele><time>2026-04-15T08:12:23.295Z</time></trkpt><trkpt lat="45.8175394" lon="13.3233825"><ele>1.0</ele><time>2026-04-15T08:12:24.281Z</time></trkpt><trkpt lat="45.8176914" lon="13.3232221"><ele>1.0</ele><time>2026-04-15T08:12:25.292Z</time></trkpt><trkpt lat="45.8178549" lon="13.3230537"><ele>1.0</ele><time>2026-04-15T08:12:26.308Z</time></trkpt><trkpt lat="45.8180245" lon="13.3228809"><ele>0.6666666666666666</ele><time>2026-04-15T08:12:27.286Z</time></trkpt><trkpt lat="45.8182004" lon="13.322717"><ele>0.3333333333333333</ele><time>2026-04-15T08:12:28.283Z</time></trkpt><trkpt lat="45.8183693" lon="13.3225478"><ele>0.0</ele><time>2026-04-15T08:12:29.316Z</time></trkpt><trkpt lat="45.8185307" lon="13.3223862"><ele>-0.3333333333333333</ele><time>2026-04-15T08:12:30.285Z</time></trkpt><trkpt lat="45.818686" lon="13.3222301"><ele>-0.6666666666666666</ele><time>2026-04-15T08:12:31.285Z</time></trkpt><trkpt lat="45.8188402" lon="13.3220782"><ele>-1.0</ele><time>2026-04-15T08:12:32.319Z</time></trkpt><trkpt lat="45.8189966" lon="13.3219253"><ele>-1.0</ele><time>2026-04-15T08:12:33.296Z</time></trkpt><trkpt lat="45.819159" lon="13.3217778"><ele>-1.0</ele><time>2026-04-15T08:12:34.309Z</time></trkpt><trkpt lat="45.8193234" lon="13.3216363"><ele>-1.0</ele><time>2026-04-15T08:12:35.303Z</time></trkpt><trkpt lat="45.8194924" lon="13.3214934"><ele>-1.6666666666666665</ele><time>2026-04-15T08:12:36.314Z</time></trkpt><trkpt lat="45.8196676" lon="13.3213513"><ele>-2.3333333333333335</ele><time>2026-04-15T08:12:37.304Z</time></trkpt><trkpt lat="45.819863" lon="13.3212083"><ele>-3.0</ele><time>2026-04-15T08:12:38.293Z</time></trkpt><trkpt lat="45.8200703" lon="13.3210785"><ele>-3.333333333333333</ele><time>2026-04-15T08:12:39.285Z</time></trkpt><trkpt lat="45.8202769" lon="13.3209586"><ele>-3.6666666666666665</ele><time>2026-04-15T08:12:40.288Z</time></trkpt><trkpt lat="45.8204862" lon="13.3208508"><ele>-4.0</ele><time>2026-04-15T08:12:41.282Z</time></trkpt><trkpt lat="45.8206907" lon="13.3207579"><ele>-4.0</ele><time>2026-04-15T08:12:42.289Z</time></trkpt><trkpt lat="45.82089" lon="13.3206772"><ele>-4.0</ele><time>2026-04-15T08:12:43.282Z</time></trkpt><trkpt lat="45.8210776" lon="13.3206069"><ele>-4.0</ele><time>2026-04-15T08:12:44.291Z</time></trkpt><trkpt lat="45.8212545" lon="13.3205559"><ele>-2.6666666666666665</ele><time>2026-04-15T08:12:45.289Z</time></trkpt><trkpt lat="45.8214192" lon="13.3205075"><ele>-1.3333333333333333</ele><time>2026-04-15T08:12:46.304Z</time></trkpt><trkpt lat="45.821569" lon="13.3204708"><ele>0.0</ele><time>2026-04-15T08:12:47.282Z</time></trkpt><trkpt lat="45.821712" lon="13.3204354"><ele>0.2</ele><time>2026-04-15T08:12:48.318Z</time></trkpt><trkpt lat="45.8218329" lon="13.3204102"><ele>0.4</ele><time>2026-04-15T08:12:49.302Z</time></trkpt><trkpt lat="45.8219402" lon="13.3203988"><ele>0.6000000000000001</ele><time>2026-04-15T08:12:50.308Z</time></trkpt><trkpt lat="45.8220361" lon="13.3203953"><ele>0.8</ele><time>2026-04-15T08:12:51.317Z</time></trkpt><trkpt lat="45.8221249" lon="13.3204223"><ele>1.0</ele><time>2026-04-15T08:12:52.293Z</time></trkpt><trkpt lat="45.8222198" lon="13.3204754"><ele>1.0</ele><time>2026-04-15T08:12:53.291Z</time></trkpt><trkpt lat="45.8223095" lon="13.3205009"><ele>1.0</ele><time>2026-04-15T08:12:54.299Z</time></trkpt><trkpt lat="45.8224035" lon="13.3204841"><ele>1.0</ele><time>2026-04-15T08:12:55.29Z</time></trkpt><trkpt lat="45.8224753" lon="13.320424"><ele>1.0</ele><time>2026-04-15T08:12:56.294Z</time></trkpt><trkpt lat="45.8225543" lon="13.3203548"><ele>1.0</ele><time>2026-04-15T08:12:57.294Z</time></trkpt><trkpt lat="45.82267" lon="13.3203155"><ele>0.0</ele><time>2026-04-15T08:12:58.338Z</time></trkpt><trkpt lat="45.8227991" lon="13.3202774"><ele>-1.0</ele><time>2026-04-15T08:12:59.325Z</time></trkpt><trkpt lat="45.8231489" lon="13.3202349"><ele>-2.0</ele><time>2026-04-15T08:13:01.281Z</time></trkpt><trkpt lat="45.8235808" lon="13.3202276"><ele>-3.0</ele><time>2026-04-15T08:13:03.297Z</time></trkpt><trkpt lat="45.8238012" lon="13.3202106"><ele>-3.0</ele><time>2026-04-15T08:13:04.29Z</time></trkpt><trkpt lat="45.8242562" lon="13.3201521"><ele>-2.0</ele><time>2026-04-15T08:13:06.29Z</time></trkpt><trkpt lat="45.8247122" lon="13.3200563"><ele>-2.0</ele><time>2026-04-15T08:13:08.299Z</time></trkpt><trkpt lat="45.824927" lon="13.3199887"><ele>-2.0</ele><time>2026-04-15T08:13:09.307Z</time></trkpt><trkpt lat="45.825353" lon="13.3198297"><ele>-0.6666666666666666</ele><time>2026-04-15T08:13:11.281Z</time></trkpt><trkpt lat="45.8255649" lon="13.3197335"><ele>0.6666666666666666</ele><time>2026-04-15T08:13:12.292Z</time></trkpt><trkpt lat="45.8257673" lon="13.3196353"><ele>2.0</ele><time>2026-04-15T08:13:13.299Z</time></trkpt><trkpt lat="45.8259751" lon="13.3195386"><ele>2.0</ele><time>2026-04-15T08:13:14.307Z</time></trkpt><trkpt lat="45.8261858" lon="13.3194503"><ele>2.0</ele><time>2026-04-15T08:13:15.285Z</time></trkpt><trkpt lat="45.826396" lon="13.3193615"><ele>2.0</ele><time>2026-04-15T08:13:16.358Z</time></trkpt><trkpt lat="45.8265984" lon="13.3192817"><ele>2.0</ele><time>2026-04-15T08:13:17.302Z</time></trkpt><trkpt lat="45.826802" lon="13.3192082"><ele>2.0</ele><time>2026-04-15T08:13:18.282Z</time></trkpt><trkpt lat="45.8272203" lon="13.3190234"><ele>1.0</ele><time>2026-04-15T08:13:20.31Z</time></trkpt><trkpt lat="45.8276345" lon="13.3188203"><ele>0.0</ele><time>2026-04-15T08:13:22.296Z</time></trkpt><trkpt lat="45.8278306" lon="13.3187281"><ele>0.0</ele><time>2026-04-15T08:13:23.288Z</time></trkpt><trkpt lat="45.8282477" lon="13.3185802"><ele>0.0</ele><time>2026-04-15T08:13:25.306Z</time></trkpt><trkpt lat="45.8284886" lon="13.3185321"><ele>0.5</ele><time>2026-04-15T08:13:26.301Z</time></trkpt><trkpt lat="45.8287314" lon="13.3185022"><ele>1.0</ele><time>2026-04-15T08:13:27.309Z</time></trkpt><trkpt lat="45.8289737" lon="13.3184811"><ele>1.0</ele><time>2026-04-15T08:13:28.308Z</time></trkpt><trkpt lat="45.8292131" lon="13.3184723"><ele>1.0</ele><time>2026-04-15T08:13:29.303Z</time></trkpt><trkpt lat="45.82945" lon="13.318467"><ele>0.5</ele><time>2026-04-15T08:13:30.284Z</time></trkpt><trkpt lat="45.8296831" lon="13.3184734"><ele>0.0</ele><time>2026-04-15T08:13:31.281Z</time></trkpt><trkpt lat="45.8299031" lon="13.3184894"><ele>0.0</ele><time>2026-04-15T08:13:32.292Z</time></trkpt><trkpt lat="45.8301079" lon="13.3185123"><ele>0.0</ele><time>2026-04-15T08:13:33.274Z</time></trkpt><trkpt lat="45.8303065" lon="13.3185323"><ele>0.0</ele><time>2026-04-15T08:13:34.287Z</time></trkpt><trkpt lat="45.8304862" lon="13.3185426"><ele>0.0</ele><time>2026-04-15T08:13:35.274Z</time></trkpt><trkpt lat="45.8306505" lon="13.3185512"><ele>0.0</ele><time>2026-04-15T08:13:36.285Z</time></trkpt><trkpt lat="45.8309308" lon="13.3186001"><ele>0.0</ele><time>2026-04-15T08:13:38.285Z</time></trkpt><trkpt lat="45.8310533" lon="13.3186544"><ele>0.6</ele><time>2026-04-15T08:13:39.307Z</time></trkpt><trkpt lat="45.8311455" lon="13.3187494"><ele>1.2</ele><time>2026-04-15T08:13:40.302Z</time></trkpt><trkpt lat="45.8312364" lon="13.3188414"><ele>1.7999999999999998</ele><time>2026-04-15T08:13:41.299Z</time></trkpt><trkpt lat="45.8313342" lon="13.3188793"><ele>2.4</ele><time>2026-04-15T08:13:42.284Z</time></trkpt><trkpt lat="45.8314342" lon="13.3188528"><ele>3.0</ele><time>2026-04-15T08:13:43.304Z</time></trkpt><trkpt lat="45.8315163" lon="13.3187976"><ele>3.0</ele><time>2026-04-15T08:13:44.299Z</time></trkpt><trkpt lat="45.8315824" lon="13.3187034"><ele>3.0</ele><time>2026-04-15T08:13:45.278Z</time></trkpt><trkpt lat="45.8316" lon="13.3184905"><ele>3.0</ele><time>2026-04-15T08:13:47.294Z</time></trkpt><trkpt lat="45.8315604" lon="13.3183893"><ele>3.0</ele><time>2026-04-15T08:13:48.287Z</time></trkpt><trkpt lat="45.8314903" lon="13.3183263"><ele>3.0</ele><time>2026-04-15T08:13:49.29Z</time></trkpt><trkpt lat="45.8314001" lon="13.3182805"><ele>3.0</ele><time>2026-04-15T08:13:50.295Z</time></trkpt><trkpt lat="45.8313155" lon="13.318291"><ele>3.0</ele><time>2026-04-15T08:13:51.293Z</time></trkpt><trkpt lat="45.8312297" lon="13.3183582"><ele>3.0</ele><time>2026-04-15T08:13:52.289Z</time></trkpt><trkpt lat="45.8311312" lon="13.3184483"><ele>3.0</ele><time>2026-04-15T08:13:53.286Z</time></trkpt><trkpt lat="45.8310152" lon="13.3185041"><ele>3.0</ele><time>2026-04-15T08:13:54.288Z</time></trkpt><trkpt lat="45.8308461" lon="13.3185232"><ele>2.0</ele><time>2026-04-15T08:13:55.291Z</time></trkpt><trkpt lat="45.8306554" lon="13.31852"><ele>1.0</ele><time>2026-04-15T08:13:56.286Z</time></trkpt><trkpt lat="45.8304596" lon="13.3185083"><ele>0.0</ele><time>2026-04-15T08:13:57.281Z</time></trkpt><trkpt lat="45.8302822" lon="13.3184898"><ele>0.0</ele><time>2026-04-15T08:13:58.307Z</time></trkpt><trkpt lat="45.830133" lon="13.3184794"><ele>0.0</ele><time>2026-04-15T08:13:59.296Z</time></trkpt><trkpt lat="45.8300055" lon="13.3184684"><ele>0.0</ele><time>2026-04-15T08:14:00.306Z</time></trkpt><trkpt lat="45.829908" lon="13.3184503"><ele>0.0</ele><time>2026-04-15T08:14:01.284Z</time></trkpt><trkpt lat="45.8298315" lon="13.3184444"><ele>0.0</ele><time>2026-04-15T08:14:02.294Z</time></trkpt><trkpt lat="45.8297452" lon="13.3184346"><ele>0.0</ele><time>2026-04-15T08:14:04.29Z</time></trkpt><trkpt lat="45.8296972" lon="13.3185068"><ele>0.0</ele><time>2026-04-15T08:15:56.274Z</time></trkpt><trkpt lat="45.8297831" lon="13.3185393"><ele>0.0</ele><time>2026-04-15T08:15:58.284Z</time></trkpt><trkpt lat="45.8298738" lon="13.3185314"><ele>0.0</ele><time>2026-04-15T08:15:59.274Z</time></trkpt><trkpt lat="45.8299876" lon="13.3185189"><ele>0.0</ele><time>2026-04-15T08:16:00.279Z</time></trkpt><trkpt lat="45.8301117" lon="13.3185234"><ele>0.0</ele><time>2026-04-15T08:16:01.294Z</time></trkpt><trkpt lat="45.8302604" lon="13.3185303"><ele>0.0</ele><time>2026-04-15T08:16:02.289Z</time></trkpt><trkpt lat="45.8304355" lon="13.3185437"><ele>0.0</ele><time>2026-04-15T08:16:03.275Z</time></trkpt><trkpt lat="45.8306185" lon="13.3185466"><ele>0.0</ele><time>2026-04-15T08:16:04.274Z</time></trkpt><trkpt lat="45.8307902" lon="13.3185635"><ele>0.0</ele><time>2026-04-15T08:16:05.286Z</time></trkpt><trkpt lat="45.8309319" lon="13.3185962"><ele>0.0</ele><time>2026-04-15T08:16:06.278Z</time></trkpt><trkpt lat="45.8310549" lon="13.3186549"><ele>0.0</ele><time>2026-04-15T08:16:07.269Z</time></trkpt><trkpt lat="45.8311689" lon="13.3187439"><ele>1.0</ele><time>2026-04-15T08:16:08.265Z</time></trkpt><trkpt lat="45.8312708" lon="13.3188451"><ele>2.0</ele><time>2026-04-15T08:16:09.281Z</time></trkpt><trkpt lat="45.8314788" lon="13.3188598"><ele>3.0</ele><time>2026-04-15T08:16:11.277Z</time></trkpt><trkpt lat="45.8317124" lon="13.3187027"><ele>2.6666666666666665</ele><time>2026-04-15T08:16:13.269Z</time></trkpt><trkpt lat="45.831864" lon="13.3186441"><ele>2.333333333333333</ele><time>2026-04-15T08:16:14.306Z</time></trkpt><trkpt lat="45.8320516" lon="13.3186461"><ele>2.0</ele><time>2026-04-15T08:16:15.293Z</time></trkpt><trkpt lat="45.8322678" lon="13.3186495"><ele>2.0</ele><time>2026-04-15T08:16:16.277Z</time></trkpt><trkpt lat="45.8325075" lon="13.3186596"><ele>2.0</ele><time>2026-04-15T08:16:17.273Z</time></trkpt><trkpt lat="45.8327629" lon="13.3186671"><ele>1.0</ele><time>2026-04-15T08:16:18.283Z</time></trkpt><trkpt lat="45.8332957" lon="13.3187001"><ele>-1.0</ele><time>2026-04-15T08:16:20.269Z</time></trkpt><trkpt lat="45.8338699" lon="13.3187322"><ele>-1.0</ele><time>2026-04-15T08:16:22.292Z</time></trkpt><trkpt lat="45.8341763" lon="13.3187509"><ele>-1.0</ele><time>2026-04-15T08:16:23.284Z</time></trkpt><trkpt lat="45.8344862" lon="13.3187696"><ele>-1.0</ele><time>2026-04-15T08:16:24.262Z</time></trkpt><trkpt lat="45.8351192" lon="13.3188225"><ele>0.0</ele><time>2026-04-15T08:16:26.269Z</time></trkpt><trkpt lat="45.8354323" lon="13.3188453"><ele>1.0</ele><time>2026-04-15T08:16:27.272Z</time></trkpt><trkpt lat="45.8357423" lon="13.3188643"><ele>1.0</ele><time>2026-04-15T08:16:28.272Z</time></trkpt><trkpt lat="45.8360504" lon="13.3188767"><ele>1.0</ele><time>2026-04-15T08:16:29.266Z</time></trkpt><trkpt lat="45.8363578" lon="13.3188773"><ele>1.0</ele><time>2026-04-15T08:16:30.27Z</time></trkpt><trkpt lat="45.836661" lon="13.3188635"><ele>1.0</ele><time>2026-04-15T08:16:31.267Z</time></trkpt><trkpt lat="45.8369621" lon="13.3188311"><ele>1.0</ele><time>2026-04-15T08:16:32.283Z</time></trkpt><trkpt lat="45.8372711" lon="13.3187779"><ele>1.0</ele><time>2026-04-15T08:16:33.276Z</time></trkpt><trkpt lat="45.8375811" lon="13.3187104"><ele>1.5</ele><time>2026-04-15T08:16:34.282Z</time></trkpt><trkpt lat="45.8378884" lon="13.3186257"><ele>2.0</ele><time>2026-04-15T08:16:35.276Z</time></trkpt><trkpt lat="45.8381956" lon="13.3185198"><ele>2.5</ele><time>2026-04-15T08:16:36.285Z</time></trkpt><trkpt lat="45.8384905" lon="13.3183858"><ele>3.0</ele><time>2026-04-15T08:16:37.278Z</time></trkpt><trkpt lat="45.8387583" lon="13.3182477"><ele>3.0</ele><time>2026-04-15T08:16:38.272Z</time></trkpt><trkpt lat="45.8390273" lon="13.3181113"><ele>3.0</ele><time>2026-04-15T08:16:39.281Z</time></trkpt><trkpt lat="45.8392718" lon="13.3179687"><ele>1.5</ele><time>2026-04-15T08:16:40.261Z</time></trkpt><trkpt lat="45.839508" lon="13.317841"><ele>0.0</ele><time>2026-04-15T08:16:41.288Z</time></trkpt><trkpt lat="45.839735" lon="13.3177237"><ele>0.0</ele><time>2026-04-15T08:16:42.273Z</time></trkpt><trkpt lat="45.8399586" lon="13.3176096"><ele>0.0</ele><time>2026-04-15T08:16:43.291Z</time></trkpt><trkpt lat="45.8406021" lon="13.3173639"><ele>0.5</ele><time>2026-04-15T08:16:46.275Z</time></trkpt><trkpt lat="45.8410105" lon="13.3172515"><ele>1.0</ele><time>2026-04-15T08:16:48.272Z</time></trkpt><trkpt lat="45.8414062" lon="13.317157"><ele>1.5</ele><time>2026-04-15T08:16:50.284Z</time></trkpt><trkpt lat="45.8418045" lon="13.3170787"><ele>2.0</ele><time>2026-04-15T08:16:52.265Z</time></trkpt><trkpt lat="45.8420014" lon="13.3170365"><ele>2.0</ele><time>2026-04-15T08:16:53.277Z</time></trkpt><trkpt lat="45.8421979" lon="13.3169974"><ele>2.0</ele><time>2026-04-15T08:16:54.275Z</time></trkpt><trkpt lat="45.8423918" lon="13.3169569"><ele>2.0</ele><time>2026-04-15T08:16:55.281Z</time></trkpt><trkpt lat="45.8425874" lon="13.3169152"><ele>2.0</ele><time>2026-04-15T08:16:56.267Z</time></trkpt><trkpt lat="45.8427889" lon="13.3168778"><ele>2.0</ele><time>2026-04-15T08:16:57.295Z</time></trkpt><trkpt lat="45.8429973" lon="13.3168367"><ele>2.0</ele><time>2026-04-15T08:16:58.283Z</time></trkpt><trkpt lat="45.8432144" lon="13.3167937"><ele>3.0</ele><time>2026-04-15T08:16:59.267Z</time></trkpt><trkpt lat="45.8437226" lon="13.3166877"><ele>3.0</ele><time>2026-04-15T08:17:01.28Z</time></trkpt><trkpt lat="45.8440157" lon="13.3166291"><ele>3.0</ele><time>2026-04-15T08:17:02.272Z</time></trkpt><trkpt lat="45.8443335" lon="13.3165778"><ele>3.5</ele><time>2026-04-15T08:17:03.266Z</time></trkpt><trkpt lat="45.84466" lon="13.316513"><ele>4.0</ele><time>2026-04-15T08:17:04.268Z</time></trkpt><trkpt lat="45.8449952" lon="13.3164382"><ele>3.5</ele><time>2026-04-15T08:17:05.281Z</time></trkpt><trkpt lat="45.8453313" lon="13.3163693"><ele>3.0</ele><time>2026-04-15T08:17:06.293Z</time></trkpt><trkpt lat="45.845667" lon="13.316294"><ele>3.0</ele><time>2026-04-15T08:17:07.279Z</time></trkpt><trkpt lat="45.8460124" lon="13.316211"><ele>3.0</ele><time>2026-04-15T08:17:08.283Z</time></trkpt><trkpt lat="45.8463568" lon="13.3161388"><ele>3.0</ele><time>2026-04-15T08:17:09.268Z</time></trkpt><trkpt lat="45.8470311" lon="13.3160007"><ele>3.0</ele><time>2026-04-15T08:17:11.269Z</time></trkpt><trkpt lat="45.8473637" lon="13.3159344"><ele>3.0</ele><time>2026-04-15T08:17:12.281Z</time></trkpt><trkpt lat="45.8477043" lon="13.3158687"><ele>4.0</ele><time>2026-04-15T08:17:13.273Z</time></trkpt><trkpt lat="45.8480523" lon="13.3157997"><ele>5.0</ele><time>2026-04-15T08:17:14.272Z</time></trkpt><trkpt lat="45.8484056" lon="13.315726"><ele>5.0</ele><time>2026-04-15T08:17:15.269Z</time></trkpt><trkpt lat="45.848763" lon="13.315651"><ele>5.0</ele><time>2026-04-15T08:17:16.284Z</time></trkpt><trkpt lat="45.8491203" lon="13.3155737"><ele>4.5</ele><time>2026-04-15T08:17:17.269Z</time></trkpt><trkpt lat="45.849485" lon="13.3155017"><ele>4.0</ele><time>2026-04-15T08:17:18.262Z</time></trkpt><trkpt lat="45.8498524" lon="13.3154256"><ele>4.0</ele><time>2026-04-15T08:17:19.267Z</time></trkpt><trkpt lat="45.8505941" lon="13.3152797"><ele>4.0</ele><time>2026-04-15T08:17:21.272Z</time></trkpt><trkpt lat="45.850957" lon="13.3151993"><ele>4.0</ele><time>2026-04-15T08:17:22.278Z</time></trkpt><trkpt lat="45.8512952" lon="13.315123"><ele>4.0</ele><time>2026-04-15T08:17:23.26Z</time></trkpt><trkpt lat="45.8516248" lon="13.3150577"><ele>4.0</ele><time>2026-04-15T08:17:24.265Z</time></trkpt><trkpt lat="45.8519502" lon="13.3150064"><ele>4.0</ele><time>2026-04-15T08:17:25.269Z</time></trkpt><trkpt lat="45.8522652" lon="13.3149637"><ele>4.0</ele><time>2026-04-15T08:17:26.271Z</time></trkpt><trkpt lat="45.8525791" lon="13.3149448"><ele>5.0</ele><time>2026-04-15T08:17:27.275Z</time></trkpt><trkpt lat="45.852892" lon="13.314942"><ele>6.0</ele><time>2026-04-15T08:17:28.268Z</time></trkpt><trkpt lat="45.8532" lon="13.3149635"><ele>6.5</ele><time>2026-04-15T08:17:29.288Z</time></trkpt><trkpt lat="45.8534974" lon="13.3149912"><ele>7.0</ele><time>2026-04-15T08:17:30.294Z</time></trkpt><trkpt lat="45.8541085" lon="13.3150518"><ele>7.0</ele><time>2026-04-15T08:17:32.268Z</time></trkpt><trkpt lat="45.8544238" lon="13.3150649"><ele>7.0</ele><time>2026-04-15T08:17:33.276Z</time></trkpt><trkpt lat="45.8547388" lon="13.3150624"><ele>7.0</ele><time>2026-04-15T08:17:34.273Z</time></trkpt><trkpt lat="45.8550573" lon="13.3150424"><ele>7.0</ele><time>2026-04-15T08:17:35.272Z</time></trkpt><trkpt lat="45.8556924" lon="13.3149481"><ele>7.0</ele><time>2026-04-15T08:17:37.282Z</time></trkpt><trkpt lat="45.856007" lon="13.314886"><ele>7.0</ele><time>2026-04-15T08:17:38.267Z</time></trkpt><trkpt lat="45.8563187" lon="13.3148123"><ele>7.0</ele><time>2026-04-15T08:17:39.264Z</time></trkpt><trkpt lat="45.8566275" lon="13.3147407"><ele>7.0</ele><time>2026-04-15T08:17:40.272Z</time></trkpt><trkpt lat="45.8572369" lon="13.314599"><ele>7.5</ele><time>2026-04-15T08:17:42.271Z</time></trkpt><trkpt lat="45.8575389" lon="13.3145323"><ele>8.0</ele><time>2026-04-15T08:17:43.274Z</time></trkpt><trkpt lat="45.8578391" lon="13.3144692"><ele>8.5</ele><time>2026-04-15T08:17:44.268Z</time></trkpt><trkpt lat="45.8581406" lon="13.3143961"><ele>9.0</ele><time>2026-04-15T08:17:45.267Z</time></trkpt><trkpt lat="45.8584443" lon="13.3143126"><ele>9.0</ele><time>2026-04-15T08:17:46.27Z</time></trkpt><trkpt lat="45.8587496" lon="13.3142379"><ele>9.0</ele><time>2026-04-15T08:17:47.281Z</time></trkpt><trkpt lat="45.8590475" lon="13.3141688"><ele>9.0</ele><time>2026-04-15T08:17:48.256Z</time></trkpt><trkpt lat="45.8593418" lon="13.3140955"><ele>9.0</ele><time>2026-04-15T08:17:49.277Z</time></trkpt><trkpt lat="45.8596308" lon="13.3140131"><ele>9.0</ele><time>2026-04-15T08:17:50.268Z</time></trkpt><trkpt lat="45.8599188" lon="13.3139136"><ele>9.0</ele><time>2026-04-15T08:17:51.264Z</time></trkpt><trkpt lat="45.8605094" lon="13.3136543"><ele>9.0</ele><time>2026-04-15T08:17:53.272Z</time></trkpt><trkpt lat="45.8608132" lon="13.3134953"><ele>9.0</ele><time>2026-04-15T08:17:54.268Z</time></trkpt><trkpt lat="45.8611257" lon="13.3133407"><ele>9.0</ele><time>2026-04-15T08:17:55.275Z</time></trkpt><trkpt lat="45.8614395" lon="13.313191"><ele>9.0</ele><time>2026-04-15T08:17:56.266Z</time></trkpt><trkpt lat="45.8617582" lon="13.3130346"><ele>10.0</ele><time>2026-04-15T08:17:57.269Z</time></trkpt><trkpt lat="45.8623672" lon="13.3126939"><ele>8.5</ele><time>2026-04-15T08:17:59.28Z</time></trkpt><trkpt lat="45.8626576" lon="13.3125238"><ele>7.0</ele><time>2026-04-15T08:18:00.27Z</time></trkpt><trkpt lat="45.8629364" lon="13.3123646"><ele>8.0</ele><time>2026-04-15T08:18:01.277Z</time></trkpt><trkpt lat="45.8632085" lon="13.3122069"><ele>9.0</ele><time>2026-04-15T08:18:02.266Z</time></trkpt><trkpt lat="45.8634757" lon="13.3120534"><ele>9.0</ele><time>2026-04-15T08:18:03.261Z</time></trkpt><trkpt lat="45.8637376" lon="13.3119033"><ele>9.0</ele><time>2026-04-15T08:18:04.264Z</time></trkpt><trkpt lat="45.8639948" lon="13.3117617"><ele>9.0</ele><time>2026-04-15T08:18:05.263Z</time></trkpt><trkpt lat="45.8642464" lon="13.3116334"><ele>9.0</ele><time>2026-04-15T08:18:06.281Z</time></trkpt><trkpt lat="45.8644999" lon="13.3115327"><ele>9.0</ele><time>2026-04-15T08:18:07.261Z</time></trkpt><trkpt lat="45.8647595" lon="13.3114692"><ele>9.0</ele><time>2026-04-15T08:18:08.263Z</time></trkpt><trkpt lat="45.8650131" lon="13.311443"><ele>10.0</ele><time>2026-04-15T08:18:09.253Z</time></trkpt><trkpt lat="45.8655257" lon="13.3114654"><ele>10.0</ele><time>2026-04-15T08:18:11.263Z</time></trkpt><trkpt lat="45.8657867" lon="13.3115298"><ele>10.0</ele><time>2026-04-15T08:18:12.283Z</time></trkpt><trkpt lat="45.8660571" lon="13.3116322"><ele>10.5</ele><time>2026-04-15T08:18:13.264Z</time></trkpt><trkpt lat="45.8663191" lon="13.3117655"><ele>11.0</ele><time>2026-04-15T08:18:14.277Z</time></trkpt><trkpt lat="45.8665701" lon="13.3119243"><ele>11.0</ele><time>2026-04-15T08:18:15.279Z</time></trkpt><trkpt lat="45.8668051" lon="13.3121233"><ele>11.0</ele><time>2026-04-15T08:18:16.264Z</time></trkpt><trkpt lat="45.8670262" lon="13.3123444"><ele>11.0</ele><time>2026-04-15T08:18:17.284Z</time></trkpt><trkpt lat="45.8672341" lon="13.312585"><ele>11.0</ele><time>2026-04-15T08:18:18.261Z</time></trkpt><trkpt lat="45.8674274" lon="13.31283"><ele>11.5</ele><time>2026-04-15T08:18:19.26Z</time></trkpt><trkpt lat="45.8676137" lon="13.3130843"><ele>12.0</ele><time>2026-04-15T08:18:20.264Z</time></trkpt><trkpt lat="45.8677848" lon="13.3133233"><ele>12.0</ele><time>2026-04-15T08:18:21.267Z</time></trkpt><trkpt lat="45.8679542" lon="13.3134983"><ele>12.0</ele><time>2026-04-15T08:18:22.262Z</time></trkpt><trkpt lat="45.8681195" lon="13.3136738"><ele>12.0</ele><time>2026-04-15T08:18:23.264Z</time></trkpt><trkpt lat="45.8682646" lon="13.3138497"><ele>12.0</ele><time>2026-04-15T08:18:24.266Z</time></trkpt><trkpt lat="45.8684049" lon="13.3140103"><ele>12.0</ele><time>2026-04-15T08:18:25.26Z</time></trkpt><trkpt lat="45.8685237" lon="13.3141639"><ele>12.0</ele><time>2026-04-15T08:18:26.285Z</time></trkpt><trkpt lat="45.8686511" lon="13.3143188"><ele>12.0</ele><time>2026-04-15T08:18:27.279Z</time></trkpt><trkpt lat="45.8687555" lon="13.3144574"><ele>12.0</ele><time>2026-04-15T08:18:28.269Z</time></trkpt><trkpt lat="45.8688546" lon="13.3145795"><ele>12.0</ele><time>2026-04-15T08:18:29.27Z</time></trkpt><trkpt lat="45.8689443" lon="13.3146914"><ele>12.0</ele><time>2026-04-15T08:18:30.282Z</time></trkpt><trkpt lat="45.8690252" lon="13.3147899"><ele>12.5</ele><time>2026-04-15T08:18:31.273Z</time></trkpt><trkpt lat="45.869092" lon="13.3148733"><ele>13.0</ele><time>2026-04-15T08:18:32.271Z</time></trkpt><trkpt lat="45.8691438" lon="13.3149626"><ele>13.5</ele><time>2026-04-15T08:18:33.262Z</time></trkpt><trkpt lat="45.8691879" lon="13.3150525"><ele>14.0</ele><time>2026-04-15T08:18:34.275Z</time></trkpt><trkpt lat="45.8692233" lon="13.3151507"><ele>14.5</ele><time>2026-04-15T08:18:35.267Z</time></trkpt><trkpt lat="45.8692489" lon="13.3152609"><ele>15.0</ele><time>2026-04-15T08:18:36.268Z</time></trkpt><trkpt lat="45.8692746" lon="13.3153726"><ele>15.0</ele><time>2026-04-15T08:18:37.272Z</time></trkpt><trkpt lat="45.869318" lon="13.3154672"><ele>15.0</ele><time>2026-04-15T08:18:38.283Z</time></trkpt><trkpt lat="45.8693835" lon="13.3155327"><ele>15.0</ele><time>2026-04-15T08:18:39.268Z</time></trkpt><trkpt lat="45.869499" lon="13.315548"><ele>15.0</ele><time>2026-04-15T08:18:41.265Z</time></trkpt><trkpt lat="45.8695645" lon="13.3155071"><ele>15.0</ele><time>2026-04-15T08:18:42.282Z</time></trkpt><trkpt lat="45.869618" lon="13.315414"><ele>15.0</ele><time>2026-04-15T08:18:43.278Z</time></trkpt><trkpt lat="45.8696733" lon="13.3153046"><ele>15.0</ele><time>2026-04-15T08:18:44.262Z</time></trkpt><trkpt lat="45.8697605" lon="13.3152108"><ele>15.0</ele><time>2026-04-15T08:18:45.273Z</time></trkpt><trkpt lat="45.8698772" lon="13.315141"><ele>15.0</ele><time>2026-04-15T08:18:46.277Z</time></trkpt><trkpt lat="45.8700012" lon="13.315082"><ele>15.0</ele><time>2026-04-15T08:18:47.273Z</time></trkpt><trkpt lat="45.870134" lon="13.3150207"><ele>15.0</ele><time>2026-04-15T08:18:48.275Z</time></trkpt><trkpt lat="45.8702783" lon="13.3149452"><ele>15.0</ele><time>2026-04-15T08:18:49.27Z</time></trkpt><trkpt lat="45.8704317" lon="13.3148509"><ele>15.0</ele><time>2026-04-15T08:18:50.297Z</time></trkpt><trkpt lat="45.8705699" lon="13.3147547"><ele>15.25</ele><time>2026-04-15T08:18:51.271Z</time></trkpt><trkpt lat="45.8706764" lon="13.3146763"><ele>15.5</ele><time>2026-04-15T08:18:52.291Z</time></trkpt><trkpt lat="45.8707796" lon="13.3146068"><ele>15.75</ele><time>2026-04-15T08:18:53.269Z</time></trkpt><trkpt lat="45.870889" lon="13.3145185"><ele>16.0</ele><time>2026-04-15T08:18:54.276Z</time></trkpt><trkpt lat="45.8710252" lon="13.3144073"><ele>15.666666666666666</ele><time>2026-04-15T08:18:55.277Z</time></trkpt><trkpt lat="45.8711856" lon="13.3142739"><ele>15.333333333333332</ele><time>2026-04-15T08:18:56.27Z</time></trkpt><trkpt lat="45.8713694" lon="13.314125"><ele>15.0</ele><time>2026-04-15T08:18:57.274Z</time></trkpt><trkpt lat="45.8718269" lon="13.3137415"><ele>15.0</ele><time>2026-04-15T08:18:59.277Z</time></trkpt><trkpt lat="45.8720669" lon="13.3135401"><ele>15.0</ele><time>2026-04-15T08:19:00.289Z</time></trkpt><trkpt lat="45.8725539" lon="13.3131558"><ele>15.5</ele><time>2026-04-15T08:19:02.267Z</time></trkpt><trkpt lat="45.8728078" lon="13.3129483"><ele>16.0</ele><time>2026-04-15T08:19:03.27Z</time></trkpt><trkpt lat="45.8730617" lon="13.3127546"><ele>14.0</ele><time>2026-04-15T08:19:04.266Z</time></trkpt><trkpt lat="45.8735588" lon="13.3123873"><ele>14.0</ele><time>2026-04-15T08:19:06.261Z</time></trkpt><trkpt lat="45.8737921" lon="13.3122058"><ele>14.0</ele><time>2026-04-15T08:19:07.271Z</time></trkpt><trkpt lat="45.8740126" lon="13.3120264"><ele>14.0</ele><time>2026-04-15T08:19:08.264Z</time></trkpt><trkpt lat="45.8742322" lon="13.3118488"><ele>14.0</ele><time>2026-04-15T08:19:09.254Z</time></trkpt><trkpt lat="45.874657" lon="13.3115083"><ele>15.0</ele><time>2026-04-15T08:19:11.258Z</time></trkpt><trkpt lat="45.8748651" lon="13.311341"><ele>16.0</ele><time>2026-04-15T08:19:12.277Z</time></trkpt><trkpt lat="45.8750745" lon="13.3111792"><ele>17.0</ele><time>2026-04-15T08:19:13.269Z</time></trkpt><trkpt lat="45.8752851" lon="13.3110169"><ele>18.0</ele><time>2026-04-15T08:19:14.269Z</time></trkpt><trkpt lat="45.8754959" lon="13.3108488"><ele>18.0</ele><time>2026-04-15T08:19:15.263Z</time></trkpt><trkpt lat="45.8757065" lon="13.3106763"><ele>18.0</ele><time>2026-04-15T08:19:16.267Z</time></trkpt><trkpt lat="45.8759233" lon="13.3105055"><ele>16.0</ele><time>2026-04-15T08:19:17.251Z</time></trkpt><trkpt lat="45.8761434" lon="13.3103319"><ele>14.0</ele><time>2026-04-15T08:19:18.264Z</time></trkpt><trkpt lat="45.8763677" lon="13.3101505"><ele>14.0</ele><time>2026-04-15T08:19:19.271Z</time></trkpt><trkpt lat="45.8765953" lon="13.3099652"><ele>14.0</ele><time>2026-04-15T08:19:20.255Z</time></trkpt><trkpt lat="45.8772984" lon="13.3094792"><ele>15.5</ele><time>2026-04-15T08:19:23.272Z</time></trkpt><trkpt lat="45.8775383" lon="13.3093578"><ele>17.0</ele><time>2026-04-15T08:19:24.258Z</time></trkpt><trkpt lat="45.8777806" lon="13.3092518"><ele>18.0</ele><time>2026-04-15T08:19:25.257Z</time></trkpt><trkpt lat="45.8782711" lon="13.3090428"><ele>18.0</ele><time>2026-04-15T08:19:27.27Z</time></trkpt><trkpt lat="45.8785105" lon="13.308944"><ele>18.0</ele><time>2026-04-15T08:19:28.253Z</time></trkpt><trkpt lat="45.8787403" lon="13.3088423"><ele>17.666666666666668</ele><time>2026-04-15T08:19:29.263Z</time></trkpt><trkpt lat="45.8789551" lon="13.3087498"><ele>17.333333333333336</ele><time>2026-04-15T08:19:30.263Z</time></trkpt><trkpt lat="45.8791692" lon="13.3086787"><ele>17.0</ele><time>2026-04-15T08:19:31.272Z</time></trkpt><trkpt lat="45.8793793" lon="13.3086265"><ele>16.5</ele><time>2026-04-15T08:19:32.254Z</time></trkpt><trkpt lat="45.8795877" lon="13.308597"><ele>16.0</ele><time>2026-04-15T08:19:33.265Z</time></trkpt><trkpt lat="45.8799832" lon="13.3086103"><ele>16.666666666666664</ele><time>2026-04-15T08:19:35.269Z</time></trkpt><trkpt lat="45.8801748" lon="13.3086193"><ele>17.333333333333332</ele><time>2026-04-15T08:19:36.254Z</time></trkpt><trkpt lat="45.8803616" lon="13.3086262"><ele>18.0</ele><time>2026-04-15T08:19:37.254Z</time></trkpt><trkpt lat="45.8805467" lon="13.3086355"><ele>18.0</ele><time>2026-04-15T08:19:38.271Z</time></trkpt><trkpt lat="45.8807281" lon="13.308644"><ele>18.0</ele><time>2026-04-15T08:19:39.27Z</time></trkpt><trkpt lat="45.8809062" lon="13.308654"><ele>18.0</ele><time>2026-04-15T08:19:40.263Z</time></trkpt><trkpt lat="45.8810815" lon="13.3086661"><ele>18.0</ele><time>2026-04-15T08:19:41.257Z</time></trkpt><trkpt lat="45.8812554" lon="13.3086763"><ele>18.0</ele><time>2026-04-15T08:19:42.271Z</time></trkpt><trkpt lat="45.881426" lon="13.3086873"><ele>18.0</ele><time>2026-04-15T08:19:43.272Z</time></trkpt><trkpt lat="45.881596" lon="13.3086973"><ele>18.333333333333332</ele><time>2026-04-15T08:19:44.259Z</time></trkpt><trkpt lat="45.8817698" lon="13.3087059"><ele>18.666666666666664</ele><time>2026-04-15T08:19:45.271Z</time></trkpt><trkpt lat="45.8819471" lon="13.3087106"><ele>19.0</ele><time>2026-04-15T08:19:46.264Z</time></trkpt><trkpt lat="45.8821222" lon="13.3087267"><ele>19.0</ele><time>2026-04-15T08:19:47.251Z</time></trkpt><trkpt lat="45.8822956" lon="13.3087355"><ele>19.0</ele><time>2026-04-15T08:19:48.262Z</time></trkpt><trkpt lat="45.8824723" lon="13.3087424"><ele>19.0</ele><time>2026-04-15T08:19:49.267Z</time></trkpt><trkpt lat="45.8826462" lon="13.3087543"><ele>18.0</ele><time>2026-04-15T08:19:50.258Z</time></trkpt><trkpt lat="45.8828174" lon="13.3087574"><ele>17.0</ele><time>2026-04-15T08:19:51.254Z</time></trkpt><trkpt lat="45.8831667" lon="13.3087756"><ele>17.0</ele><time>2026-04-15T08:19:53.282Z</time></trkpt><trkpt lat="45.8833419" lon="13.3087884"><ele>17.0</ele><time>2026-04-15T08:19:54.258Z</time></trkpt><trkpt lat="45.8835168" lon="13.3087961"><ele>17.0</ele><time>2026-04-15T08:19:55.272Z</time></trkpt><trkpt lat="45.8836909" lon="13.3088044"><ele>18.0</ele><time>2026-04-15T08:19:56.251Z</time></trkpt><trkpt lat="45.8840313" lon="13.3088208"><ele>19.0</ele><time>2026-04-15T08:19:58.266Z</time></trkpt><trkpt lat="45.884205" lon="13.3088256"><ele>19.0</ele><time>2026-04-15T08:19:59.27Z</time></trkpt><trkpt lat="45.8843789" lon="13.3088282"><ele>19.0</ele><time>2026-04-15T08:20:00.249Z</time></trkpt><trkpt lat="45.8845476" lon="13.3088356"><ele>19.0</ele><time>2026-04-15T08:20:01.257Z</time></trkpt><trkpt lat="45.8847163" lon="13.3088486"><ele>19.0</ele><time>2026-04-15T08:20:02.255Z</time></trkpt><trkpt lat="45.8848829" lon="13.3088624"><ele>19.0</ele><time>2026-04-15T08:20:03.262Z</time></trkpt><trkpt lat="45.8850528" lon="13.3088706"><ele>19.0</ele><time>2026-04-15T08:20:04.264Z</time></trkpt><trkpt lat="45.885221" lon="13.3088793"><ele>19.0</ele><time>2026-04-15T08:20:05.256Z</time></trkpt><trkpt lat="45.8853887" lon="13.3088839"><ele>19.0</ele><time>2026-04-15T08:20:06.27Z</time></trkpt><trkpt lat="45.8855554" lon="13.3088937"><ele>19.0</ele><time>2026-04-15T08:20:07.261Z</time></trkpt><trkpt lat="45.8857218" lon="13.308905"><ele>19.0</ele><time>2026-04-15T08:20:08.253Z</time></trkpt><trkpt lat="45.8858849" lon="13.3089148"><ele>19.0</ele><time>2026-04-15T08:20:09.251Z</time></trkpt><trkpt lat="45.8860418" lon="13.3089254"><ele>19.0</ele><time>2026-04-15T08:20:10.27Z</time></trkpt><trkpt lat="45.886173" lon="13.3089547"><ele>19.0</ele><time>2026-04-15T08:20:11.26Z</time></trkpt><trkpt lat="45.8862916" lon="13.3089951"><ele>19.0</ele><time>2026-04-15T08:20:12.267Z</time></trkpt><trkpt lat="45.8863889" lon="13.3090628"><ele>19.0</ele><time>2026-04-15T08:20:13.245Z</time></trkpt><trkpt lat="45.8864679" lon="13.3091541"><ele>19.0</ele><time>2026-04-15T08:20:14.303Z</time></trkpt><trkpt lat="45.8866294" lon="13.3092849"><ele>19.0</ele><time>2026-04-15T08:20:16.252Z</time></trkpt><trkpt lat="45.8867371" lon="13.3092243"><ele>19.0</ele><time>2026-04-15T08:20:17.274Z</time></trkpt><trkpt lat="45.8868432" lon="13.3091481"><ele>19.0</ele><time>2026-04-15T08:20:18.259Z</time></trkpt><trkpt lat="45.8869534" lon="13.3090788"><ele>19.0</ele><time>2026-04-15T08:20:19.269Z</time></trkpt><trkpt lat="45.8871045" lon="13.3090337"><ele>20.0</ele><time>2026-04-15T08:20:20.248Z</time></trkpt><trkpt lat="45.887457" lon="13.3090026"><ele>21.0</ele><time>2026-04-15T08:20:22.259Z</time></trkpt><trkpt lat="45.8876388" lon="13.3090028"><ele>21.0</ele><time>2026-04-15T08:20:23.255Z</time></trkpt><trkpt lat="45.8880048" lon="13.3090252"><ele>21.0</ele><time>2026-04-15T08:20:25.242Z</time></trkpt><trkpt lat="45.8881888" lon="13.3090351"><ele>21.0</ele><time>2026-04-15T08:20:26.261Z</time></trkpt><trkpt lat="45.8883748" lon="13.309043"><ele>21.0</ele><time>2026-04-15T08:20:27.264Z</time></trkpt><trkpt lat="45.8885538" lon="13.3090556"><ele>21.0</ele><time>2026-04-15T08:20:28.272Z</time></trkpt><trkpt lat="45.8887353" lon="13.309067"><ele>22.5</ele><time>2026-04-15T08:20:29.244Z</time></trkpt><trkpt lat="45.8889094" lon="13.3090783"><ele>24.0</ele><time>2026-04-15T08:20:30.271Z</time></trkpt><trkpt lat="45.88925" lon="13.3090964"><ele>23.0</ele><time>2026-04-15T08:20:32.275Z</time></trkpt><trkpt lat="45.889421" lon="13.3090993"><ele>22.0</ele><time>2026-04-15T08:20:33.255Z</time></trkpt><trkpt lat="45.8895877" lon="13.3091024"><ele>21.0</ele><time>2026-04-15T08:20:34.261Z</time></trkpt><trkpt lat="45.8897356" lon="13.3091085"><ele>21.0</ele><time>2026-04-15T08:20:35.262Z</time></trkpt><trkpt lat="45.8898654" lon="13.3091146"><ele>21.0</ele><time>2026-04-15T08:20:36.249Z</time></trkpt><trkpt lat="45.8899877" lon="13.3091199"><ele>21.0</ele><time>2026-04-15T08:20:37.237Z</time></trkpt><trkpt lat="45.8900868" lon="13.3091402"><ele>21.0</ele><time>2026-04-15T08:20:38.242Z</time></trkpt><trkpt lat="45.8901752" lon="13.3091965"><ele>21.0</ele><time>2026-04-15T08:20:39.26Z</time></trkpt><trkpt lat="45.8902419" lon="13.3092888"><ele>20.833333333333332</ele><time>2026-04-15T08:20:40.257Z</time></trkpt><trkpt lat="45.8903088" lon="13.3093741"><ele>20.666666666666668</ele><time>2026-04-15T08:20:41.245Z</time></trkpt><trkpt lat="45.8903841" lon="13.3094225"><ele>20.5</ele><time>2026-04-15T08:20:42.251Z</time></trkpt><trkpt lat="45.8904807" lon="13.3093877"><ele>20.333333333333336</ele><time>2026-04-15T08:20:43.244Z</time></trkpt><trkpt lat="45.8905499" lon="13.3093124"><ele>20.166666666666668</ele><time>2026-04-15T08:20:44.243Z</time></trkpt><trkpt lat="45.8905743" lon="13.3092097"><ele>20.0</ele><time>2026-04-15T08:20:45.256Z</time></trkpt><trkpt lat="45.8905787" lon="13.3090857"><ele>20.0</ele><time>2026-04-15T08:20:46.268Z</time></trkpt><trkpt lat="45.8905654" lon="13.3089467"><ele>20.0</ele><time>2026-04-15T08:20:47.261Z</time></trkpt><trkpt lat="45.8905613" lon="13.3087958"><ele>20.0</ele><time>2026-04-15T08:20:48.252Z</time></trkpt><trkpt lat="45.890582" lon="13.3086423"><ele>20.0</ele><time>2026-04-15T08:20:49.248Z</time></trkpt><trkpt lat="45.890611" lon="13.3084864"><ele>20.0</ele><time>2026-04-15T08:20:50.255Z</time></trkpt><trkpt lat="45.890646" lon="13.3083362"><ele>20.0</ele><time>2026-04-15T08:20:51.256Z</time></trkpt><trkpt lat="45.8906791" lon="13.3081952"><ele>20.0</ele><time>2026-04-15T08:20:52.25Z</time></trkpt><trkpt lat="45.8907189" lon="13.308082"><ele>20.0</ele><time>2026-04-15T08:20:53.257Z</time></trkpt><trkpt lat="45.8907604" lon="13.3079778"><ele>20.0</ele><time>2026-04-15T08:20:54.278Z</time></trkpt><trkpt lat="45.8908112" lon="13.3078684"><ele>20.0</ele><time>2026-04-15T08:20:55.243Z</time></trkpt><trkpt lat="45.890901" lon="13.307638"><ele>20.2</ele><time>2026-04-15T08:20:57.259Z</time></trkpt><trkpt lat="45.8909316" lon="13.3075368"><ele>20.4</ele><time>2026-04-15T08:20:58.255Z</time></trkpt><trkpt lat="45.8909518" lon="13.3074326"><ele>20.6</ele><time>2026-04-15T08:21:00.245Z</time></trkpt><trkpt lat="45.8909838" lon="13.3073443"><ele>20.8</ele><time>2026-04-15T08:21:31.246Z</time></trkpt><trkpt lat="45.8910343" lon="13.3071857"><ele>21.0</ele><time>2026-04-15T08:21:33.247Z</time></trkpt><trkpt lat="45.8910894" lon="13.306985"><ele>21.0</ele><time>2026-04-15T08:21:34.235Z</time></trkpt><trkpt lat="45.8911217" lon="13.3067751"><ele>21.0</ele><time>2026-04-15T08:21:35.246Z</time></trkpt><trkpt lat="45.8911458" lon="13.3065876"><ele>21.0</ele><time>2026-04-15T08:21:36.244Z</time></trkpt><trkpt lat="45.8911712" lon="13.3064152"><ele>21.0</ele><time>2026-04-15T08:21:37.248Z</time></trkpt><trkpt lat="45.8912127" lon="13.3062445"><ele>20.8</ele><time>2026-04-15T08:21:38.243Z</time></trkpt><trkpt lat="45.89126" lon="13.3060784"><ele>20.6</ele><time>2026-04-15T08:21:39.249Z</time></trkpt><trkpt lat="45.8913072" lon="13.3059355"><ele>20.4</ele><time>2026-04-15T08:21:40.253Z</time></trkpt><trkpt lat="45.8913592" lon="13.3058182"><ele>20.2</ele><time>2026-04-15T08:21:41.232Z</time></trkpt><trkpt lat="45.8914242" lon="13.305704"><ele>20.0</ele><time>2026-04-15T08:21:42.254Z</time></trkpt><trkpt lat="45.891497" lon="13.305613"><ele>20.0</ele><time>2026-04-15T08:21:43.247Z</time></trkpt><trkpt lat="45.8915733" lon="13.3055241"><ele>20.0</ele><time>2026-04-15T08:21:44.24Z</time></trkpt><trkpt lat="45.8916598" lon="13.3054511"><ele>20.0</ele><time>2026-04-15T08:21:45.239Z</time></trkpt><trkpt lat="45.8917554" lon="13.3054028"><ele>20.0</ele><time>2026-04-15T08:21:46.252Z</time></trkpt><trkpt lat="45.8918633" lon="13.3053779"><ele>20.0</ele><time>2026-04-15T08:21:47.249Z</time></trkpt><trkpt lat="45.8919749" lon="13.3053717"><ele>20.0</ele><time>2026-04-15T08:21:48.238Z</time></trkpt><trkpt lat="45.8920921" lon="13.3053874"><ele>20.0</ele><time>2026-04-15T08:21:49.245Z</time></trkpt><trkpt lat="45.8922172" lon="13.3054182"><ele>20.0</ele><time>2026-04-15T08:21:50.246Z</time></trkpt><trkpt lat="45.8923453" lon="13.3054608"><ele>20.0</ele><time>2026-04-15T08:21:51.235Z</time></trkpt><trkpt lat="45.8924748" lon="13.3055042"><ele>20.25</ele><time>2026-04-15T08:21:52.243Z</time></trkpt><trkpt lat="45.8925944" lon="13.3055584"><ele>20.5</ele><time>2026-04-15T08:21:53.256Z</time></trkpt><trkpt lat="45.8927127" lon="13.3056125"><ele>20.75</ele><time>2026-04-15T08:21:54.245Z</time></trkpt><trkpt lat="45.8928293" lon="13.3056669"><ele>21.0</ele><time>2026-04-15T08:21:55.24Z</time></trkpt><trkpt lat="45.8929421" lon="13.3057243"><ele>21.0</ele><time>2026-04-15T08:21:56.245Z</time></trkpt><trkpt lat="45.8930561" lon="13.3057801"><ele>21.0</ele><time>2026-04-15T08:21:57.238Z</time></trkpt><trkpt lat="45.8931654" lon="13.3058297"><ele>21.0</ele><time>2026-04-15T08:21:58.242Z</time></trkpt><trkpt lat="45.8932827" lon="13.3058816"><ele>21.0</ele><time>2026-04-15T08:21:59.229Z</time></trkpt><trkpt lat="45.8934095" lon="13.3059465"><ele>21.0</ele><time>2026-04-15T08:22:00.241Z</time></trkpt><trkpt lat="45.8935307" lon="13.306004"><ele>21.0</ele><time>2026-04-15T08:22:01.235Z</time></trkpt><trkpt lat="45.8936481" lon="13.3060389"><ele>21.0</ele><time>2026-04-15T08:22:02.245Z</time></trkpt><trkpt lat="45.8937559" lon="13.3060763"><ele>21.0</ele><time>2026-04-15T08:22:03.242Z</time></trkpt><trkpt lat="45.8941261" lon="13.3059974"><ele>21.0</ele><time>2026-04-15T08:22:06.244Z</time></trkpt><trkpt lat="45.8942347" lon="13.3059163"><ele>21.0</ele><time>2026-04-15T08:22:07.254Z</time></trkpt><trkpt lat="45.8943137" lon="13.3057925"><ele>21.0</ele><time>2026-04-15T08:22:08.238Z</time></trkpt><trkpt lat="45.8943667" lon="13.3056652"><ele>21.0</ele><time>2026-04-15T08:22:09.247Z</time></trkpt><trkpt lat="45.8944181" lon="13.3055264"><ele>20.400000000000002</ele><time>2026-04-15T08:22:10.253Z</time></trkpt><trkpt lat="45.8944433" lon="13.3053982"><ele>19.8</ele><time>2026-04-15T08:22:11.253Z</time></trkpt><trkpt lat="45.8944487" lon="13.3052561"><ele>19.200000000000003</ele><time>2026-04-15T08:22:12.228Z</time></trkpt><trkpt lat="45.8944432" lon="13.3051106"><ele>18.6</ele><time>2026-04-15T08:22:13.244Z</time></trkpt><trkpt lat="45.89442" lon="13.3049694"><ele>18.0</ele><time>2026-04-15T08:22:14.24Z</time></trkpt><trkpt lat="45.8943738" lon="13.3048266"><ele>18.5</ele><time>2026-04-15T08:22:15.248Z</time></trkpt><trkpt lat="45.8943142" lon="13.3046993"><ele>19.0</ele><time>2026-04-15T08:22:16.248Z</time></trkpt><trkpt lat="45.894244" lon="13.3045655"><ele>19.5</ele><time>2026-04-15T08:22:17.251Z</time></trkpt><trkpt lat="45.8941727" lon="13.3044319"><ele>20.0</ele><time>2026-04-15T08:22:18.247Z</time></trkpt><trkpt lat="45.8940959" lon="13.304287"><ele>20.25</ele><time>2026-04-15T08:22:19.231Z</time></trkpt><trkpt lat="45.8940208" lon="13.3041378"><ele>20.5</ele><time>2026-04-15T08:22:20.23Z</time></trkpt><trkpt lat="45.8939411" lon="13.3039891"><ele>20.75</ele><time>2026-04-15T08:22:21.23Z</time></trkpt><trkpt lat="45.8938669" lon="13.3038334"><ele>21.0</ele><time>2026-04-15T08:22:22.249Z</time></trkpt><trkpt lat="45.8938037" lon="13.3036657"><ele>21.0</ele><time>2026-04-15T08:22:23.25Z</time></trkpt><trkpt lat="45.8937623" lon="13.3034968"><ele>21.0</ele><time>2026-04-15T08:22:24.244Z</time></trkpt><trkpt lat="45.8937462" lon="13.3033026"><ele>21.0</ele><time>2026-04-15T08:22:25.235Z</time></trkpt><trkpt lat="45.8937491" lon="13.3031209"><ele>21.0</ele><time>2026-04-15T08:22:26.244Z</time></trkpt><trkpt lat="45.8937682" lon="13.3029404"><ele>21.0</ele><time>2026-04-15T08:22:27.249Z</time></trkpt><trkpt lat="45.8937968" lon="13.3027687"><ele>21.0</ele><time>2026-04-15T08:22:28.229Z</time></trkpt><trkpt lat="45.8938214" lon="13.3026102"><ele>21.0</ele><time>2026-04-15T08:22:29.244Z</time></trkpt><trkpt lat="45.8938463" lon="13.3024564"><ele>21.0</ele><time>2026-04-15T08:22:30.242Z</time></trkpt><trkpt lat="45.8938752" lon="13.3022942"><ele>21.5</ele><time>2026-04-15T08:22:31.245Z</time></trkpt><trkpt lat="45.8939056" lon="13.3021178"><ele>22.0</ele><time>2026-04-15T08:22:32.239Z</time></trkpt><trkpt lat="45.8939409" lon="13.301928"><ele>22.5</ele><time>2026-04-15T08:22:33.248Z</time></trkpt><trkpt lat="45.8939789" lon="13.3017243"><ele>23.0</ele><time>2026-04-15T08:22:34.238Z</time></trkpt><trkpt lat="45.8940251" lon="13.3015064"><ele>22.666666666666668</ele><time>2026-04-15T08:22:35.252Z</time></trkpt><trkpt lat="45.8940673" lon="13.3012859"><ele>22.333333333333332</ele><time>2026-04-15T08:22:36.248Z</time></trkpt><trkpt lat="45.8941152" lon="13.3010674"><ele>22.0</ele><time>2026-04-15T08:22:37.243Z</time></trkpt><trkpt lat="45.8941639" lon="13.3008418"><ele>22.0</ele><time>2026-04-15T08:22:38.248Z</time></trkpt><trkpt lat="45.8942143" lon="13.300613"><ele>22.0</ele><time>2026-04-15T08:22:39.246Z</time></trkpt><trkpt lat="45.8942682" lon="13.3003822"><ele>22.0</ele><time>2026-04-15T08:22:40.243Z</time></trkpt><trkpt lat="45.8943117" lon="13.3001443"><ele>21.666666666666664</ele><time>2026-04-15T08:22:41.233Z</time></trkpt><trkpt lat="45.8943586" lon="13.2998834"><ele>21.333333333333332</ele><time>2026-04-15T08:22:42.255Z</time></trkpt><trkpt lat="45.8944151" lon="13.2995877"><ele>21.0</ele><time>2026-04-15T08:22:43.269Z</time></trkpt><trkpt lat="45.8944823" lon="13.2992505"><ele>20.5</ele><time>2026-04-15T08:22:44.233Z</time></trkpt><trkpt lat="45.8945511" lon="13.2989174"><ele>20.0</ele><time>2026-04-15T08:22:45.245Z</time></trkpt><trkpt lat="45.8946193" lon="13.2985895"><ele>21.0</ele><time>2026-04-15T08:22:46.236Z</time></trkpt><trkpt lat="45.8947624" lon="13.2979321"><ele>21.0</ele><time>2026-04-15T08:22:48.245Z</time></trkpt><trkpt lat="45.894838" lon="13.2975999"><ele>21.0</ele><time>2026-04-15T08:22:49.243Z</time></trkpt><trkpt lat="45.8949101" lon="13.297264"><ele>21.0</ele><time>2026-04-15T08:22:50.241Z</time></trkpt><trkpt lat="45.8949833" lon="13.2969158"><ele>21.0</ele><time>2026-04-15T08:22:51.255Z</time></trkpt><trkpt lat="45.8950629" lon="13.2965556"><ele>20.0</ele><time>2026-04-15T08:22:52.239Z</time></trkpt><trkpt lat="45.8951426" lon="13.296176"><ele>19.0</ele><time>2026-04-15T08:22:53.221Z</time></trkpt><trkpt lat="45.8952273" lon="13.2957938"><ele>20.5</ele><time>2026-04-15T08:22:54.22Z</time></trkpt><trkpt lat="45.8953086" lon="13.2954077"><ele>22.0</ele><time>2026-04-15T08:22:55.232Z</time></trkpt><trkpt lat="45.8954745" lon="13.294619"><ele>22.0</ele><time>2026-04-15T08:22:57.241Z</time></trkpt><trkpt lat="45.8955564" lon="13.2942344"><ele>22.0</ele><time>2026-04-15T08:22:58.238Z</time></trkpt><trkpt lat="45.8956409" lon="13.2938558"><ele>21.5</ele><time>2026-04-15T08:22:59.229Z</time></trkpt><trkpt lat="45.8957273" lon="13.2934774"><ele>21.0</ele><time>2026-04-15T08:23:00.246Z</time></trkpt><trkpt lat="45.8958133" lon="13.2930919"><ele>21.5</ele><time>2026-04-15T08:23:01.236Z</time></trkpt><trkpt lat="45.8959002" lon="13.2927043"><ele>22.0</ele><time>2026-04-15T08:23:02.236Z</time></trkpt><trkpt lat="45.8959898" lon="13.2923214"><ele>21.0</ele><time>2026-04-15T08:23:03.247Z</time></trkpt><trkpt lat="45.8960883" lon="13.2919379"><ele>20.0</ele><time>2026-04-15T08:23:04.225Z</time></trkpt><trkpt lat="45.8961923" lon="13.2915486"><ele>22.0</ele><time>2026-04-15T08:23:05.245Z</time></trkpt><trkpt lat="45.8962999" lon="13.2911751"><ele>24.0</ele><time>2026-04-15T08:23:06.227Z</time></trkpt><trkpt lat="45.8964045" lon="13.2908086"><ele>24.0</ele><time>2026-04-15T08:23:07.223Z</time></trkpt><trkpt lat="45.8965102" lon="13.2904444"><ele>24.0</ele><time>2026-04-15T08:23:08.235Z</time></trkpt><trkpt lat="45.8966203" lon="13.2900799"><ele>23.0</ele><time>2026-04-15T08:23:09.24Z</time></trkpt><trkpt lat="45.8967281" lon="13.2897076"><ele>22.0</ele><time>2026-04-15T08:23:10.239Z</time></trkpt><trkpt lat="45.8968316" lon="13.2893176"><ele>23.0</ele><time>2026-04-15T08:23:11.234Z</time></trkpt><trkpt lat="45.8969212" lon="13.2889071"><ele>24.0</ele><time>2026-04-15T08:23:12.234Z</time></trkpt><trkpt lat="45.8969881" lon="13.2884967"><ele>24.0</ele><time>2026-04-15T08:23:13.232Z</time></trkpt><trkpt lat="45.8970374" lon="13.2880992"><ele>24.0</ele><time>2026-04-15T08:23:14.245Z</time></trkpt><trkpt lat="45.8970688" lon="13.2877147"><ele>24.0</ele><time>2026-04-15T08:23:15.233Z</time></trkpt><trkpt lat="45.8970821" lon="13.2873598"><ele>24.0</ele><time>2026-04-15T08:23:16.237Z</time></trkpt><trkpt lat="45.8970811" lon="13.2870158"><ele>24.0</ele><time>2026-04-15T08:23:17.246Z</time></trkpt><trkpt lat="45.8970705" lon="13.2866752"><ele>24.0</ele><time>2026-04-15T08:23:18.228Z</time></trkpt><trkpt lat="45.8970563" lon="13.2863287"><ele>24.0</ele><time>2026-04-15T08:23:19.236Z</time></trkpt><trkpt lat="45.8970235" lon="13.2859736"><ele>24.0</ele><time>2026-04-15T08:23:20.226Z</time></trkpt><trkpt lat="45.8969704" lon="13.2856272"><ele>24.0</ele><time>2026-04-15T08:23:21.227Z</time></trkpt><trkpt lat="45.89689" lon="13.2852791"><ele>24.0</ele><time>2026-04-15T08:23:22.219Z</time></trkpt><trkpt lat="45.8967995" lon="13.2849393"><ele>25.0</ele><time>2026-04-15T08:23:23.23Z</time></trkpt><trkpt lat="45.896686" lon="13.2846063"><ele>26.0</ele><time>2026-04-15T08:23:24.235Z</time></trkpt><trkpt lat="45.8965632" lon="13.2842788"><ele>26.0</ele><time>2026-04-15T08:23:25.222Z</time></trkpt><trkpt lat="45.8964396" lon="13.283983"><ele>26.0</ele><time>2026-04-15T08:23:26.238Z</time></trkpt><trkpt lat="45.8963078" lon="13.2837079"><ele>26.0</ele><time>2026-04-15T08:23:27.239Z</time></trkpt><trkpt lat="45.8961774" lon="13.2834688"><ele>26.0</ele><time>2026-04-15T08:23:28.231Z</time></trkpt><trkpt lat="45.8960537" lon="13.2832499"><ele>26.0</ele><time>2026-04-15T08:23:29.239Z</time></trkpt><trkpt lat="45.8959237" lon="13.2830593"><ele>25.0</ele><time>2026-04-15T08:23:30.234Z</time></trkpt><trkpt lat="45.8957929" lon="13.282877"><ele>24.0</ele><time>2026-04-15T08:23:31.237Z</time></trkpt><trkpt lat="45.8956615" lon="13.2827024"><ele>23.0</ele><time>2026-04-15T08:23:32.236Z</time></trkpt><trkpt lat="45.8955225" lon="13.2825326"><ele>23.0</ele><time>2026-04-15T08:23:33.237Z</time></trkpt><trkpt lat="45.8953784" lon="13.282371"><ele>23.0</ele><time>2026-04-15T08:23:34.232Z</time></trkpt><trkpt lat="45.8952292" lon="13.2822125"><ele>23.0</ele><time>2026-04-15T08:23:35.23Z</time></trkpt><trkpt lat="45.895063" lon="13.2820453"><ele>23.0</ele><time>2026-04-15T08:23:36.234Z</time></trkpt><trkpt lat="45.8948731" lon="13.2818678"><ele>23.0</ele><time>2026-04-15T08:23:37.233Z</time></trkpt><trkpt lat="45.8946612" lon="13.2816678"><ele>23.0</ele><time>2026-04-15T08:23:38.234Z</time></trkpt><trkpt lat="45.8944305" lon="13.2814422"><ele>23.0</ele><time>2026-04-15T08:23:39.235Z</time></trkpt><trkpt lat="45.8941834" lon="13.2811795"><ele>22.5</ele><time>2026-04-15T08:23:40.233Z</time></trkpt><trkpt lat="45.8939219" lon="13.280895"><ele>22.0</ele><time>2026-04-15T08:23:41.237Z</time></trkpt><trkpt lat="45.8936555" lon="13.2805777"><ele>21.5</ele><time>2026-04-15T08:23:42.243Z</time></trkpt><trkpt lat="45.8933857" lon="13.280242"><ele>21.0</ele><time>2026-04-15T08:23:43.246Z</time></trkpt><trkpt lat="45.8931104" lon="13.2798812"><ele>20.5</ele><time>2026-04-15T08:23:44.235Z</time></trkpt><trkpt lat="45.8928333" lon="13.2794913"><ele>20.0</ele><time>2026-04-15T08:23:45.233Z</time></trkpt><trkpt lat="45.8925604" lon="13.2790873"><ele>19.0</ele><time>2026-04-15T08:23:46.248Z</time></trkpt><trkpt lat="45.8922926" lon="13.2786766"><ele>18.0</ele><time>2026-04-15T08:23:47.227Z</time></trkpt><trkpt lat="45.8920373" lon="13.2782575"><ele>18.0</ele><time>2026-04-15T08:23:48.245Z</time></trkpt><trkpt lat="45.8917915" lon="13.2778234"><ele>18.0</ele><time>2026-04-15T08:23:49.239Z</time></trkpt><trkpt lat="45.8915561" lon="13.2773885"><ele>18.0</ele><time>2026-04-15T08:23:50.224Z</time></trkpt><trkpt lat="45.8913307" lon="13.2769677"><ele>18.0</ele><time>2026-04-15T08:23:51.235Z</time></trkpt><trkpt lat="45.8911159" lon="13.2765668"><ele>17.5</ele><time>2026-04-15T08:23:52.241Z</time></trkpt><trkpt lat="45.8909028" lon="13.2761768"><ele>17.0</ele><time>2026-04-15T08:23:53.233Z</time></trkpt><trkpt lat="45.8906949" lon="13.2757856"><ele>17.5</ele><time>2026-04-15T08:23:54.238Z</time></trkpt><trkpt lat="45.8904874" lon="13.2753937"><ele>18.0</ele><time>2026-04-15T08:23:55.222Z</time></trkpt><trkpt lat="45.8902784" lon="13.2750054"><ele>18.0</ele><time>2026-04-15T08:23:56.241Z</time></trkpt><trkpt lat="45.8900741" lon="13.2746161"><ele>18.0</ele><time>2026-04-15T08:23:57.227Z</time></trkpt><trkpt lat="45.8898663" lon="13.2742241"><ele>18.0</ele><time>2026-04-15T08:23:58.225Z</time></trkpt><trkpt lat="45.889661" lon="13.273838"><ele>18.0</ele><time>2026-04-15T08:23:59.223Z</time></trkpt><trkpt lat="45.8894567" lon="13.2734521"><ele>18.0</ele><time>2026-04-15T08:24:00.234Z</time></trkpt><trkpt lat="45.8892454" lon="13.2730578"><ele>18.0</ele><time>2026-04-15T08:24:01.228Z</time></trkpt><trkpt lat="45.8890253" lon="13.2726518"><ele>17.5</ele><time>2026-04-15T08:24:02.238Z</time></trkpt><trkpt lat="45.8888" lon="13.2722431"><ele>17.0</ele><time>2026-04-15T08:24:03.246Z</time></trkpt><trkpt lat="45.8885705" lon="13.2718239"><ele>17.5</ele><time>2026-04-15T08:24:04.226Z</time></trkpt><trkpt lat="45.88834" lon="13.2713976"><ele>18.0</ele><time>2026-04-15T08:24:05.228Z</time></trkpt><trkpt lat="45.8881038" lon="13.2709577"><ele>17.5</ele><time>2026-04-15T08:24:06.232Z</time></trkpt><trkpt lat="45.887868" lon="13.2705061"><ele>17.0</ele><time>2026-04-15T08:24:07.229Z</time></trkpt><trkpt lat="45.887621" lon="13.2700465"><ele>17.0</ele><time>2026-04-15T08:24:08.23Z</time></trkpt><trkpt lat="45.8873694" lon="13.2695796"><ele>17.0</ele><time>2026-04-15T08:24:09.235Z</time></trkpt><trkpt lat="45.8871124" lon="13.2690965"><ele>17.5</ele><time>2026-04-15T08:24:10.224Z</time></trkpt><trkpt lat="45.8868524" lon="13.2686147"><ele>18.0</ele><time>2026-04-15T08:24:11.229Z</time></trkpt><trkpt lat="45.886605" lon="13.2681481"><ele>18.0</ele><time>2026-04-15T08:24:12.239Z</time></trkpt><trkpt lat="45.8863768" lon="13.2676999"><ele>18.0</ele><time>2026-04-15T08:24:13.23Z</time></trkpt><trkpt lat="45.8861603" lon="13.2672657"><ele>18.0</ele><time>2026-04-15T08:24:14.233Z</time></trkpt><trkpt lat="45.8859416" lon="13.2668433"><ele>18.0</ele><time>2026-04-15T08:24:15.234Z</time></trkpt><trkpt lat="45.8857308" lon="13.2664417"><ele>16.5</ele><time>2026-04-15T08:24:16.234Z</time></trkpt><trkpt lat="45.885515" lon="13.2660487"><ele>15.0</ele><time>2026-04-15T08:24:17.238Z</time></trkpt><trkpt lat="45.8853045" lon="13.2656641"><ele>15.5</ele><time>2026-04-15T08:24:18.228Z</time></trkpt><trkpt lat="45.8850985" lon="13.2652826"><ele>16.0</ele><time>2026-04-15T08:24:19.228Z</time></trkpt><trkpt lat="45.8848985" lon="13.2649078"><ele>16.0</ele><time>2026-04-15T08:24:20.338Z</time></trkpt><trkpt lat="45.8847012" lon="13.2645361"><ele>16.0</ele><time>2026-04-15T08:24:21.328Z</time></trkpt><trkpt lat="45.8845069" lon="13.2641741"><ele>16.5</ele><time>2026-04-15T08:24:22.332Z</time></trkpt><trkpt lat="45.8843156" lon="13.2638102"><ele>17.0</ele><time>2026-04-15T08:24:23.237Z</time></trkpt><trkpt lat="45.8841244" lon="13.263444"><ele>16.5</ele><time>2026-04-15T08:24:24.232Z</time></trkpt><trkpt lat="45.8839403" lon="13.26308"><ele>16.0</ele><time>2026-04-15T08:24:25.251Z</time></trkpt><trkpt lat="45.8837623" lon="13.2627063"><ele>16.0</ele><time>2026-04-15T08:24:26.337Z</time></trkpt><trkpt lat="45.8835779" lon="13.262336"><ele>16.0</ele><time>2026-04-15T08:24:27.332Z</time></trkpt><trkpt lat="45.8833972" lon="13.2619641"><ele>16.5</ele><time>2026-04-15T08:24:28.331Z</time></trkpt><trkpt lat="45.883224" lon="13.2615862"><ele>17.0</ele><time>2026-04-15T08:24:29.333Z</time></trkpt><trkpt lat="45.8828736" lon="13.26083"><ele>16.5</ele><time>2026-04-15T08:24:31.227Z</time></trkpt><trkpt lat="45.8827033" lon="13.2604506"><ele>16.0</ele><time>2026-04-15T08:24:32.243Z</time></trkpt><trkpt lat="45.8825347" lon="13.2600736"><ele>15.5</ele><time>2026-04-15T08:24:33.33Z</time></trkpt><trkpt lat="45.8823621" lon="13.2596919"><ele>15.0</ele><time>2026-04-15T08:24:34.337Z</time></trkpt><trkpt lat="45.8821921" lon="13.2593131"><ele>15.5</ele><time>2026-04-15T08:24:35.34Z</time></trkpt><trkpt lat="45.8820245" lon="13.2589273"><ele>16.0</ele><time>2026-04-15T08:24:36.33Z</time></trkpt><trkpt lat="45.8816991" lon="13.2581526"><ele>15.5</ele><time>2026-04-15T08:24:38.243Z</time></trkpt><trkpt lat="45.8815383" lon="13.2577624"><ele>15.0</ele><time>2026-04-15T08:24:39.325Z</time></trkpt><trkpt lat="45.8813769" lon="13.2573664"><ele>14.5</ele><time>2026-04-15T08:24:40.335Z</time></trkpt><trkpt lat="45.8812204" lon="13.2569693"><ele>14.0</ele><time>2026-04-15T08:24:41.337Z</time></trkpt><trkpt lat="45.8810629" lon="13.2565699"><ele>13.5</ele><time>2026-04-15T08:24:42.328Z</time></trkpt><trkpt lat="45.8809103" lon="13.2561655"><ele>13.0</ele><time>2026-04-15T08:24:43.335Z</time></trkpt><trkpt lat="45.880605" lon="13.2553476"><ele>13.0</ele><time>2026-04-15T08:24:45.331Z</time></trkpt><trkpt lat="45.8804545" lon="13.2549385"><ele>13.0</ele><time>2026-04-15T08:24:46.334Z</time></trkpt><trkpt lat="45.8803033" lon="13.2545239"><ele>13.5</ele><time>2026-04-15T08:24:47.325Z</time></trkpt><trkpt lat="45.8801503" lon="13.254112"><ele>14.0</ele><time>2026-04-15T08:24:48.333Z</time></trkpt><trkpt lat="45.8800002" lon="13.2536995"><ele>14.0</ele><time>2026-04-15T08:24:49.331Z</time></trkpt><trkpt lat="45.8798521" lon="13.2532863"><ele>14.0</ele><time>2026-04-15T08:24:50.327Z</time></trkpt><trkpt lat="45.8797077" lon="13.2528723"><ele>14.0</ele><time>2026-04-15T08:24:51.332Z</time></trkpt><trkpt lat="45.8795617" lon="13.2524607"><ele>14.0</ele><time>2026-04-15T08:24:52.345Z</time></trkpt><trkpt lat="45.8794139" lon="13.2520584"><ele>14.0</ele><time>2026-04-15T08:24:53.322Z</time></trkpt><trkpt lat="45.8792662" lon="13.2516476"><ele>14.0</ele><time>2026-04-15T08:24:54.329Z</time></trkpt><trkpt lat="45.8791186" lon="13.2512516"><ele>14.0</ele><time>2026-04-15T08:24:55.323Z</time></trkpt><trkpt lat="45.8789706" lon="13.2508581"><ele>14.0</ele><time>2026-04-15T08:24:56.324Z</time></trkpt><trkpt lat="45.8788231" lon="13.2504633"><ele>13.5</ele><time>2026-04-15T08:24:57.325Z</time></trkpt><trkpt lat="45.878676" lon="13.250068"><ele>13.0</ele><time>2026-04-15T08:24:58.327Z</time></trkpt><trkpt lat="45.8785319" lon="13.2496793"><ele>12.5</ele><time>2026-04-15T08:24:59.333Z</time></trkpt><trkpt lat="45.878389" lon="13.2492868"><ele>12.0</ele><time>2026-04-15T08:25:00.337Z</time></trkpt><trkpt lat="45.8782429" lon="13.2488885"><ele>12.0</ele><time>2026-04-15T08:25:01.34Z</time></trkpt><trkpt lat="45.8780983" lon="13.248482"><ele>12.0</ele><time>2026-04-15T08:25:02.32Z</time></trkpt><trkpt lat="45.8779495" lon="13.2480731"><ele>12.0</ele><time>2026-04-15T08:25:03.332Z</time></trkpt><trkpt lat="45.8777984" lon="13.2476626"><ele>12.0</ele><time>2026-04-15T08:25:04.328Z</time></trkpt><trkpt lat="45.8776462" lon="13.2472475"><ele>12.5</ele><time>2026-04-15T08:25:05.34Z</time></trkpt><trkpt lat="45.8774888" lon="13.2468347"><ele>13.0</ele><time>2026-04-15T08:25:06.323Z</time></trkpt><trkpt lat="45.8773251" lon="13.2464164"><ele>14.0</ele><time>2026-04-15T08:25:07.316Z</time></trkpt><trkpt lat="45.877007" lon="13.245579"><ele>14.0</ele><time>2026-04-15T08:25:09.332Z</time></trkpt><trkpt lat="45.8768539" lon="13.2451598"><ele>14.0</ele><time>2026-04-15T08:25:10.326Z</time></trkpt><trkpt lat="45.8767019" lon="13.2447357"><ele>14.0</ele><time>2026-04-15T08:25:11.328Z</time></trkpt><trkpt lat="45.8765467" lon="13.2443141"><ele>14.0</ele><time>2026-04-15T08:25:12.329Z</time></trkpt><trkpt lat="45.8763961" lon="13.2438971"><ele>14.0</ele><time>2026-04-15T08:25:13.324Z</time></trkpt><trkpt lat="45.876244" lon="13.2434873"><ele>14.0</ele><time>2026-04-15T08:25:14.32Z</time></trkpt><trkpt lat="45.8760926" lon="13.2430866"><ele>15.0</ele><time>2026-04-15T08:25:15.328Z</time></trkpt><trkpt lat="45.8759417" lon="13.2426874"><ele>16.0</ele><time>2026-04-15T08:25:16.321Z</time></trkpt><trkpt lat="45.8757909" lon="13.242288"><ele>16.0</ele><time>2026-04-15T08:25:17.323Z</time></trkpt><trkpt lat="45.8756471" lon="13.241885"><ele>16.0</ele><time>2026-04-15T08:25:18.334Z</time></trkpt><trkpt lat="45.8755011" lon="13.2414855"><ele>14.5</ele><time>2026-04-15T08:25:19.319Z</time></trkpt><trkpt lat="45.8753579" lon="13.2410844"><ele>13.0</ele><time>2026-04-15T08:25:20.322Z</time></trkpt><trkpt lat="45.875217" lon="13.2406833"><ele>12.0</ele><time>2026-04-15T08:25:21.329Z</time></trkpt><trkpt lat="45.87508" lon="13.2402777"><ele>11.0</ele><time>2026-04-15T08:25:22.325Z</time></trkpt><trkpt lat="45.8749432" lon="13.2398732"><ele>11.0</ele><time>2026-04-15T08:25:23.319Z</time></trkpt><trkpt lat="45.8747997" lon="13.2394734"><ele>11.0</ele><time>2026-04-15T08:25:24.309Z</time></trkpt><trkpt lat="45.8746516" lon="13.23907"><ele>11.0</ele><time>2026-04-15T08:25:25.319Z</time></trkpt><trkpt lat="45.8745052" lon="13.2386729"><ele>11.0</ele><time>2026-04-15T08:25:26.331Z</time></trkpt><trkpt lat="45.8743568" lon="13.2382749"><ele>10.5</ele><time>2026-04-15T08:25:27.322Z</time></trkpt><trkpt lat="45.8742075" lon="13.237872"><ele>10.0</ele><time>2026-04-15T08:25:28.32Z</time></trkpt><trkpt lat="45.8740625" lon="13.2374776"><ele>11.0</ele><time>2026-04-15T08:25:29.328Z</time></trkpt><trkpt lat="45.8739171" lon="13.2370767"><ele>12.0</ele><time>2026-04-15T08:25:30.332Z</time></trkpt><trkpt lat="45.8737699" lon="13.236674"><ele>13.0</ele><time>2026-04-15T08:25:31.329Z</time></trkpt><trkpt lat="45.8736219" lon="13.2362672"><ele>14.0</ele><time>2026-04-15T08:25:32.318Z</time></trkpt><trkpt lat="45.8734762" lon="13.2358628"><ele>13.0</ele><time>2026-04-15T08:25:33.324Z</time></trkpt><trkpt lat="45.8733256" lon="13.2354583"><ele>12.0</ele><time>2026-04-15T08:25:34.336Z</time></trkpt><trkpt lat="45.8731727" lon="13.2350518"><ele>12.0</ele><time>2026-04-15T08:25:35.333Z</time></trkpt><trkpt lat="45.8730206" lon="13.2346473"><ele>12.0</ele><time>2026-04-15T08:25:36.312Z</time></trkpt><trkpt lat="45.8728681" lon="13.2342366"><ele>12.5</ele><time>2026-04-15T08:25:37.323Z</time></trkpt><trkpt lat="45.8727171" lon="13.2338249"><ele>13.0</ele><time>2026-04-15T08:25:38.325Z</time></trkpt><trkpt lat="45.8725655" lon="13.2334135"><ele>12.0</ele><time>2026-04-15T08:25:39.335Z</time></trkpt><trkpt lat="45.8724172" lon="13.2330011"><ele>11.0</ele><time>2026-04-15T08:25:40.318Z</time></trkpt><trkpt lat="45.8722648" lon="13.2325894"><ele>11.0</ele><time>2026-04-15T08:25:41.316Z</time></trkpt><trkpt lat="45.8721081" lon="13.2321826"><ele>11.0</ele><time>2026-04-15T08:25:42.309Z</time></trkpt><trkpt lat="45.8719509" lon="13.2317741"><ele>11.0</ele><time>2026-04-15T08:25:43.328Z</time></trkpt><trkpt lat="45.8717971" lon="13.2313626"><ele>11.0</ele><time>2026-04-15T08:25:44.326Z</time></trkpt><trkpt lat="45.8716393" lon="13.2309466"><ele>11.5</ele><time>2026-04-15T08:25:45.323Z</time></trkpt><trkpt lat="45.8714823" lon="13.2305329"><ele>12.0</ele><time>2026-04-15T08:25:46.305Z</time></trkpt><trkpt lat="45.8713272" lon="13.2301183"><ele>11.5</ele><time>2026-04-15T08:25:47.322Z</time></trkpt><trkpt lat="45.8711748" lon="13.229701"><ele>11.0</ele><time>2026-04-15T08:25:48.321Z</time></trkpt><trkpt lat="45.8710232" lon="13.2292824"><ele>10.0</ele><time>2026-04-15T08:25:49.33Z</time></trkpt><trkpt lat="45.8708704" lon="13.2288652"><ele>9.0</ele><time>2026-04-15T08:25:50.311Z</time></trkpt><trkpt lat="45.8707197" lon="13.228446"><ele>10.0</ele><time>2026-04-15T08:25:51.312Z</time></trkpt><trkpt lat="45.8704148" lon="13.2276122"><ele>10.5</ele><time>2026-04-15T08:25:53.348Z</time></trkpt><trkpt lat="45.8702602" lon="13.2271958"><ele>11.0</ele><time>2026-04-15T08:25:54.32Z</time></trkpt><trkpt lat="45.870106" lon="13.2267791"><ele>10.5</ele><time>2026-04-15T08:25:55.323Z</time></trkpt><trkpt lat="45.869954" lon="13.2263622"><ele>10.0</ele><time>2026-04-15T08:25:56.319Z</time></trkpt><trkpt lat="45.8698016" lon="13.2259447"><ele>10.5</ele><time>2026-04-15T08:25:57.313Z</time></trkpt><trkpt lat="45.8696543" lon="13.2255309"><ele>11.0</ele><time>2026-04-15T08:25:58.322Z</time></trkpt><trkpt lat="45.8695024" lon="13.2251196"><ele>10.5</ele><time>2026-04-15T08:25:59.305Z</time></trkpt><trkpt lat="45.8693487" lon="13.2247038"><ele>10.0</ele><time>2026-04-15T08:26:00.313Z</time></trkpt><trkpt lat="45.8691981" lon="13.224289"><ele>9.5</ele><time>2026-04-15T08:26:01.329Z</time></trkpt><trkpt lat="45.8690475" lon="13.2238764"><ele>9.0</ele><time>2026-04-15T08:26:02.325Z</time></trkpt><trkpt lat="45.8688976" lon="13.2234626"><ele>9.0</ele><time>2026-04-15T08:26:03.317Z</time></trkpt><trkpt lat="45.8687486" lon="13.2230525"><ele>9.0</ele><time>2026-04-15T08:26:04.326Z</time></trkpt><trkpt lat="45.8685948" lon="13.2226455"><ele>7.0</ele><time>2026-04-15T08:26:05.319Z</time></trkpt><trkpt lat="45.8682908" lon="13.2218317"><ele>7.0</ele><time>2026-04-15T08:26:07.313Z</time></trkpt><trkpt lat="45.8681407" lon="13.2214245"><ele>7.0</ele><time>2026-04-15T08:26:08.316Z</time></trkpt><trkpt lat="45.8679909" lon="13.2210152"><ele>8.0</ele><time>2026-04-15T08:26:09.312Z</time></trkpt><trkpt lat="45.8678465" lon="13.2206067"><ele>9.0</ele><time>2026-04-15T08:26:10.323Z</time></trkpt><trkpt lat="45.8677078" lon="13.2202"><ele>10.0</ele><time>2026-04-15T08:26:11.321Z</time></trkpt><trkpt lat="45.8675663" lon="13.219793"><ele>11.0</ele><time>2026-04-15T08:26:12.32Z</time></trkpt><trkpt lat="45.8674182" lon="13.2193892"><ele>10.5</ele><time>2026-04-15T08:26:13.319Z</time></trkpt><trkpt lat="45.8672678" lon="13.2189808"><ele>10.0</ele><time>2026-04-15T08:26:14.32Z</time></trkpt><trkpt lat="45.8671227" lon="13.218574"><ele>10.0</ele><time>2026-04-15T08:26:15.323Z</time></trkpt><trkpt lat="45.8669816" lon="13.218166"><ele>10.0</ele><time>2026-04-15T08:26:16.314Z</time></trkpt><trkpt lat="45.8668366" lon="13.2177594"><ele>9.0</ele><time>2026-04-15T08:26:17.324Z</time></trkpt><trkpt lat="45.8666881" lon="13.2173528"><ele>8.0</ele><time>2026-04-15T08:26:18.303Z</time></trkpt><trkpt lat="45.8665442" lon="13.216944"><ele>8.0</ele><time>2026-04-15T08:26:19.314Z</time></trkpt><trkpt lat="45.8663945" lon="13.2165428"><ele>8.0</ele><time>2026-04-15T08:26:20.312Z</time></trkpt><trkpt lat="45.8662473" lon="13.2161401"><ele>8.5</ele><time>2026-04-15T08:26:21.323Z</time></trkpt><trkpt lat="45.8661017" lon="13.2157365"><ele>9.0</ele><time>2026-04-15T08:26:22.306Z</time></trkpt><trkpt lat="45.8659646" lon="13.2153286"><ele>9.0</ele><time>2026-04-15T08:26:23.302Z</time></trkpt><trkpt lat="45.8658269" lon="13.2149153"><ele>9.0</ele><time>2026-04-15T08:26:24.31Z</time></trkpt><trkpt lat="45.8656943" lon="13.2145026"><ele>9.0</ele><time>2026-04-15T08:26:25.309Z</time></trkpt><trkpt lat="45.865559" lon="13.214088"><ele>9.0</ele><time>2026-04-15T08:26:26.311Z</time></trkpt><trkpt lat="45.8652845" lon="13.213252"><ele>9.0</ele><time>2026-04-15T08:26:28.33Z</time></trkpt><trkpt lat="45.8651426" lon="13.2128279"><ele>9.0</ele><time>2026-04-15T08:26:29.293Z</time></trkpt><trkpt lat="45.8650075" lon="13.2123995"><ele>8.0</ele><time>2026-04-15T08:26:30.299Z</time></trkpt><trkpt lat="45.8647497" lon="13.2115372"><ele>8.5</ele><time>2026-04-15T08:26:32.322Z</time></trkpt><trkpt lat="45.8646236" lon="13.2111013"><ele>9.0</ele><time>2026-04-15T08:26:33.329Z</time></trkpt><trkpt lat="45.8644901" lon="13.2106636"><ele>9.0</ele><time>2026-04-15T08:26:34.314Z</time></trkpt><trkpt lat="45.8642271" lon="13.2097911"><ele>9.0</ele><time>2026-04-15T08:26:36.313Z</time></trkpt><trkpt lat="45.8640935" lon="13.2093549"><ele>9.0</ele><time>2026-04-15T08:26:37.321Z</time></trkpt><trkpt lat="45.8639621" lon="13.2089177"><ele>8.5</ele><time>2026-04-15T08:26:38.313Z</time></trkpt><trkpt lat="45.8638345" lon="13.2084778"><ele>8.0</ele><time>2026-04-15T08:26:39.313Z</time></trkpt><trkpt lat="45.8637049" lon="13.2080449"><ele>8.0</ele><time>2026-04-15T08:26:40.313Z</time></trkpt><trkpt lat="45.863573" lon="13.2076088"><ele>8.0</ele><time>2026-04-15T08:26:41.312Z</time></trkpt><trkpt lat="45.8634431" lon="13.2071751"><ele>8.5</ele><time>2026-04-15T08:26:42.335Z</time></trkpt><trkpt lat="45.8633182" lon="13.2067436"><ele>9.0</ele><time>2026-04-15T08:26:43.317Z</time></trkpt><trkpt lat="45.8632" lon="13.2063064"><ele>9.5</ele><time>2026-04-15T08:26:44.304Z</time></trkpt><trkpt lat="45.8630875" lon="13.2058691"><ele>10.0</ele><time>2026-04-15T08:26:45.317Z</time></trkpt><trkpt lat="45.8629584" lon="13.2054503"><ele>10.0</ele><time>2026-04-15T08:26:46.329Z</time></trkpt><trkpt lat="45.8628202" lon="13.205032"><ele>10.0</ele><time>2026-04-15T08:26:47.318Z</time></trkpt><trkpt lat="45.8627" lon="13.2045999"><ele>10.0</ele><time>2026-04-15T08:26:48.301Z</time></trkpt><trkpt lat="45.8625848" lon="13.2041653"><ele>10.0</ele><time>2026-04-15T08:26:49.332Z</time></trkpt><trkpt lat="45.8623237" lon="13.2033346"><ele>8.0</ele><time>2026-04-15T08:26:51.313Z</time></trkpt><trkpt lat="45.8620878" lon="13.2024935"><ele>8.5</ele><time>2026-04-15T08:26:53.313Z</time></trkpt><trkpt lat="45.8619505" lon="13.2020841"><ele>9.0</ele><time>2026-04-15T08:26:54.314Z</time></trkpt><trkpt lat="45.8618286" lon="13.2016706"><ele>9.5</ele><time>2026-04-15T08:26:55.323Z</time></trkpt><trkpt lat="45.8617187" lon="13.2012522"><ele>10.0</ele><time>2026-04-15T08:26:56.319Z</time></trkpt><trkpt lat="45.8615937" lon="13.2008417"><ele>9.5</ele><time>2026-04-15T08:26:57.313Z</time></trkpt><trkpt lat="45.8614646" lon="13.200444"><ele>9.0</ele><time>2026-04-15T08:26:58.307Z</time></trkpt><trkpt lat="45.8613442" lon="13.2000428"><ele>9.0</ele><time>2026-04-15T08:26:59.306Z</time></trkpt><trkpt lat="45.861227" lon="13.1996426"><ele>9.0</ele><time>2026-04-15T08:27:00.31Z</time></trkpt><trkpt lat="45.8611034" lon="13.1992439"><ele>9.0</ele><time>2026-04-15T08:27:01.312Z</time></trkpt><trkpt lat="45.8609792" lon="13.1988432"><ele>9.0</ele><time>2026-04-15T08:27:02.318Z</time></trkpt><trkpt lat="45.8608572" lon="13.1984362"><ele>8.5</ele><time>2026-04-15T08:27:03.313Z</time></trkpt><trkpt lat="45.8607286" lon="13.1980185"><ele>8.0</ele><time>2026-04-15T08:27:04.306Z</time></trkpt><trkpt lat="45.8605971" lon="13.1975973"><ele>8.0</ele><time>2026-04-15T08:27:05.331Z</time></trkpt><trkpt lat="45.8604639" lon="13.1971702"><ele>8.0</ele><time>2026-04-15T08:27:06.31Z</time></trkpt><trkpt lat="45.8603326" lon="13.1967415"><ele>8.0</ele><time>2026-04-15T08:27:07.3Z</time></trkpt><trkpt lat="45.860197" lon="13.1963083"><ele>8.0</ele><time>2026-04-15T08:27:08.307Z</time></trkpt><trkpt lat="45.8600623" lon="13.1958747"><ele>8.0</ele><time>2026-04-15T08:27:09.308Z</time></trkpt><trkpt lat="45.8599244" lon="13.1954389"><ele>8.0</ele><time>2026-04-15T08:27:10.31Z</time></trkpt><trkpt lat="45.8597904" lon="13.1950038"><ele>8.0</ele><time>2026-04-15T08:27:11.331Z</time></trkpt><trkpt lat="45.8596563" lon="13.1945657"><ele>8.0</ele><time>2026-04-15T08:27:12.309Z</time></trkpt><trkpt lat="45.859527" lon="13.1941301"><ele>8.0</ele><time>2026-04-15T08:27:13.307Z</time></trkpt><trkpt lat="45.8594001" lon="13.1936969"><ele>8.0</ele><time>2026-04-15T08:27:14.308Z</time></trkpt><trkpt lat="45.8592709" lon="13.1932625"><ele>8.0</ele><time>2026-04-15T08:27:15.313Z</time></trkpt><trkpt lat="45.859148" lon="13.1928279"><ele>8.0</ele><time>2026-04-15T08:27:16.297Z</time></trkpt><trkpt lat="45.8590267" lon="13.1923935"><ele>8.5</ele><time>2026-04-15T08:27:17.312Z</time></trkpt><trkpt lat="45.8589058" lon="13.191963"><ele>9.0</ele><time>2026-04-15T08:27:18.312Z</time></trkpt><trkpt lat="45.8587823" lon="13.1915369"><ele>8.5</ele><time>2026-04-15T08:27:19.302Z</time></trkpt><trkpt lat="45.8586558" lon="13.191109"><ele>8.0</ele><time>2026-04-15T08:27:20.312Z</time></trkpt><trkpt lat="45.8585286" lon="13.1906812"><ele>8.0</ele><time>2026-04-15T08:27:21.305Z</time></trkpt><trkpt lat="45.8584051" lon="13.1902548"><ele>8.0</ele><time>2026-04-15T08:27:22.311Z</time></trkpt><trkpt lat="45.8582721" lon="13.1898304"><ele>8.5</ele><time>2026-04-15T08:27:23.31Z</time></trkpt><trkpt lat="45.8581353" lon="13.1893994"><ele>9.0</ele><time>2026-04-15T08:27:24.303Z</time></trkpt><trkpt lat="45.8579925" lon="13.1889587"><ele>9.0</ele><time>2026-04-15T08:27:25.307Z</time></trkpt><trkpt lat="45.8578484" lon="13.1885085"><ele>9.0</ele><time>2026-04-15T08:27:26.307Z</time></trkpt><trkpt lat="45.8577093" lon="13.1880492"><ele>8.5</ele><time>2026-04-15T08:27:27.302Z</time></trkpt><trkpt lat="45.8575717" lon="13.1875926"><ele>8.0</ele><time>2026-04-15T08:27:28.326Z</time></trkpt><trkpt lat="45.8574372" lon="13.1871277"><ele>8.0</ele><time>2026-04-15T08:27:29.327Z</time></trkpt><trkpt lat="45.8573103" lon="13.1866619"><ele>8.0</ele><time>2026-04-15T08:27:30.312Z</time></trkpt><trkpt lat="45.8571821" lon="13.1862094"><ele>8.0</ele><time>2026-04-15T08:27:31.307Z</time></trkpt><trkpt lat="45.8570539" lon="13.185762"><ele>8.0</ele><time>2026-04-15T08:27:32.317Z</time></trkpt><trkpt lat="45.8569218" lon="13.1853196"><ele>8.0</ele><time>2026-04-15T08:27:33.3Z</time></trkpt><trkpt lat="45.8567871" lon="13.1848796"><ele>8.0</ele><time>2026-04-15T08:27:34.305Z</time></trkpt><trkpt lat="45.8566528" lon="13.1844504"><ele>8.0</ele><time>2026-04-15T08:27:35.303Z</time></trkpt><trkpt lat="45.8565216" lon="13.1840237"><ele>8.0</ele><time>2026-04-15T08:27:36.312Z</time></trkpt><trkpt lat="45.8563948" lon="13.1835917"><ele>8.5</ele><time>2026-04-15T08:27:37.303Z</time></trkpt><trkpt lat="45.8562665" lon="13.1831603"><ele>9.0</ele><time>2026-04-15T08:27:38.307Z</time></trkpt><trkpt lat="45.8561382" lon="13.1827338"><ele>7.0</ele><time>2026-04-15T08:27:39.297Z</time></trkpt><trkpt lat="45.8558799" lon="13.1818802"><ele>6.5</ele><time>2026-04-15T08:27:41.301Z</time></trkpt><trkpt lat="45.8557511" lon="13.1814575"><ele>6.0</ele><time>2026-04-15T08:27:42.308Z</time></trkpt><trkpt lat="45.8556202" lon="13.181035"><ele>6.0</ele><time>2026-04-15T08:27:43.305Z</time></trkpt><trkpt lat="45.8554918" lon="13.1806132"><ele>6.0</ele><time>2026-04-15T08:27:44.3Z</time></trkpt><trkpt lat="45.8553617" lon="13.1801897"><ele>7.0</ele><time>2026-04-15T08:27:45.304Z</time></trkpt><trkpt lat="45.8552353" lon="13.1797632"><ele>8.0</ele><time>2026-04-15T08:27:46.32Z</time></trkpt><trkpt lat="45.8549837" lon="13.1789204"><ele>8.5</ele><time>2026-04-15T08:27:48.308Z</time></trkpt><trkpt lat="45.8548605" lon="13.1785031"><ele>9.0</ele><time>2026-04-15T08:27:49.3Z</time></trkpt><trkpt lat="45.8547391" lon="13.1780903"><ele>9.0</ele><time>2026-04-15T08:27:50.304Z</time></trkpt><trkpt lat="45.8546177" lon="13.1776794"><ele>9.0</ele><time>2026-04-15T08:27:51.31Z</time></trkpt><trkpt lat="45.8544963" lon="13.1772704"><ele>9.0</ele><time>2026-04-15T08:27:52.297Z</time></trkpt><trkpt lat="45.8543756" lon="13.1768623"><ele>9.0</ele><time>2026-04-15T08:27:53.306Z</time></trkpt><trkpt lat="45.8542493" lon="13.1764529"><ele>8.0</ele><time>2026-04-15T08:27:54.293Z</time></trkpt><trkpt lat="45.8541252" lon="13.1760448"><ele>7.0</ele><time>2026-04-15T08:27:55.295Z</time></trkpt><trkpt lat="45.8538759" lon="13.1752362"><ele>5.5</ele><time>2026-04-15T08:27:57.301Z</time></trkpt><trkpt lat="45.8537481" lon="13.1748363"><ele>4.0</ele><time>2026-04-15T08:27:58.298Z</time></trkpt><trkpt lat="45.8536245" lon="13.1744323"><ele>4.0</ele><time>2026-04-15T08:27:59.301Z</time></trkpt><trkpt lat="45.853499" lon="13.1740266"><ele>4.0</ele><time>2026-04-15T08:28:00.3Z</time></trkpt><trkpt lat="45.8533689" lon="13.173625"><ele>6.0</ele><time>2026-04-15T08:28:01.301Z</time></trkpt><trkpt lat="45.8532421" lon="13.1732234"><ele>8.0</ele><time>2026-04-15T08:28:02.313Z</time></trkpt><trkpt lat="45.8531157" lon="13.1728266"><ele>8.5</ele><time>2026-04-15T08:28:03.297Z</time></trkpt><trkpt lat="45.8529875" lon="13.1724223"><ele>9.0</ele><time>2026-04-15T08:28:04.302Z</time></trkpt><trkpt lat="45.8528581" lon="13.1720225"><ele>9.5</ele><time>2026-04-15T08:28:05.306Z</time></trkpt><trkpt lat="45.8527271" lon="13.1716196"><ele>10.0</ele><time>2026-04-15T08:28:06.312Z</time></trkpt><trkpt lat="45.8525968" lon="13.1712161"><ele>10.0</ele><time>2026-04-15T08:28:07.303Z</time></trkpt><trkpt lat="45.8524649" lon="13.1708149"><ele>10.0</ele><time>2026-04-15T08:28:08.306Z</time></trkpt><trkpt lat="45.8523317" lon="13.1704058"><ele>10.0</ele><time>2026-04-15T08:28:09.301Z</time></trkpt><trkpt lat="45.8521959" lon="13.1699955"><ele>10.0</ele><time>2026-04-15T08:28:10.301Z</time></trkpt><trkpt lat="45.8519254" lon="13.169173"><ele>9.5</ele><time>2026-04-15T08:28:12.297Z</time></trkpt><trkpt lat="45.8517873" lon="13.1687517"><ele>9.0</ele><time>2026-04-15T08:28:13.309Z</time></trkpt><trkpt lat="45.8516459" lon="13.1683291"><ele>8.0</ele><time>2026-04-15T08:28:14.294Z</time></trkpt><trkpt lat="45.8515066" lon="13.1679042"><ele>7.0</ele><time>2026-04-15T08:28:15.298Z</time></trkpt><trkpt lat="45.8513686" lon="13.1674729"><ele>7.5</ele><time>2026-04-15T08:28:16.297Z</time></trkpt><trkpt lat="45.8512277" lon="13.1670479"><ele>8.0</ele><time>2026-04-15T08:28:17.301Z</time></trkpt><trkpt lat="45.8510879" lon="13.166621"><ele>9.5</ele><time>2026-04-15T08:28:18.298Z</time></trkpt><trkpt lat="45.8509501" lon="13.1661941"><ele>11.0</ele><time>2026-04-15T08:28:19.302Z</time></trkpt><trkpt lat="45.850809" lon="13.1657672"><ele>10.5</ele><time>2026-04-15T08:28:20.303Z</time></trkpt><trkpt lat="45.8506687" lon="13.165343"><ele>10.0</ele><time>2026-04-15T08:28:21.297Z</time></trkpt><trkpt lat="45.8505297" lon="13.1649195"><ele>9.5</ele><time>2026-04-15T08:28:22.297Z</time></trkpt><trkpt lat="45.8503919" lon="13.1644916"><ele>9.0</ele><time>2026-04-15T08:28:23.296Z</time></trkpt><trkpt lat="45.8502539" lon="13.1640699"><ele>9.0</ele><time>2026-04-15T08:28:24.295Z</time></trkpt><trkpt lat="45.8501203" lon="13.1636502"><ele>9.0</ele><time>2026-04-15T08:28:25.3Z</time></trkpt><trkpt lat="45.8499891" lon="13.1632351"><ele>9.0</ele><time>2026-04-15T08:28:26.305Z</time></trkpt><trkpt lat="45.8498559" lon="13.1628189"><ele>9.0</ele><time>2026-04-15T08:28:27.287Z</time></trkpt><trkpt lat="45.8497231" lon="13.1624048"><ele>8.0</ele><time>2026-04-15T08:28:28.296Z</time></trkpt><trkpt lat="45.8495909" lon="13.1619943"><ele>7.0</ele><time>2026-04-15T08:28:29.297Z</time></trkpt><trkpt lat="45.849461" lon="13.1615879"><ele>8.0</ele><time>2026-04-15T08:28:30.308Z</time></trkpt><trkpt lat="45.8493294" lon="13.161184"><ele>9.0</ele><time>2026-04-15T08:28:31.298Z</time></trkpt><trkpt lat="45.8491998" lon="13.1607825"><ele>8.5</ele><time>2026-04-15T08:28:32.296Z</time></trkpt><trkpt lat="45.8490666" lon="13.1603862"><ele>8.0</ele><time>2026-04-15T08:28:33.297Z</time></trkpt><trkpt lat="45.848935" lon="13.1599887"><ele>6.0</ele><time>2026-04-15T08:28:34.316Z</time></trkpt><trkpt lat="45.8486771" lon="13.1592086"><ele>6.0</ele><time>2026-04-15T08:28:36.291Z</time></trkpt><trkpt lat="45.84855" lon="13.1588186"><ele>6.0</ele><time>2026-04-15T08:28:37.297Z</time></trkpt><trkpt lat="45.8484249" lon="13.1584251"><ele>5.5</ele><time>2026-04-15T08:28:38.302Z</time></trkpt><trkpt lat="45.8482946" lon="13.158028"><ele>5.0</ele><time>2026-04-15T08:28:39.299Z</time></trkpt><trkpt lat="45.8481636" lon="13.1576342"><ele>5.5</ele><time>2026-04-15T08:28:40.302Z</time></trkpt><trkpt lat="45.8480314" lon="13.1572462"><ele>6.0</ele><time>2026-04-15T08:28:41.289Z</time></trkpt><trkpt lat="45.8477715" lon="13.156454"><ele>6.0</ele><time>2026-04-15T08:28:43.306Z</time></trkpt><trkpt lat="45.847643" lon="13.1560579"><ele>6.0</ele><time>2026-04-15T08:28:44.3Z</time></trkpt><trkpt lat="45.8475135" lon="13.1556618"><ele>6.5</ele><time>2026-04-15T08:28:45.3Z</time></trkpt><trkpt lat="45.8473881" lon="13.1552669"><ele>7.0</ele><time>2026-04-15T08:28:46.294Z</time></trkpt><trkpt lat="45.8472592" lon="13.1548702"><ele>7.0</ele><time>2026-04-15T08:28:47.304Z</time></trkpt><trkpt lat="45.8471348" lon="13.1544764"><ele>7.0</ele><time>2026-04-15T08:28:48.286Z</time></trkpt><trkpt lat="45.8470033" lon="13.1540781"><ele>6.5</ele><time>2026-04-15T08:28:49.297Z</time></trkpt><trkpt lat="45.8468709" lon="13.153683"><ele>6.0</ele><time>2026-04-15T08:28:50.303Z</time></trkpt><trkpt lat="45.846741" lon="13.1532909"><ele>6.0</ele><time>2026-04-15T08:28:51.293Z</time></trkpt><trkpt lat="45.8466099" lon="13.1528939"><ele>6.0</ele><time>2026-04-15T08:28:52.295Z</time></trkpt><trkpt lat="45.8464757" lon="13.1524935"><ele>6.5</ele><time>2026-04-15T08:28:53.297Z</time></trkpt><trkpt lat="45.846344" lon="13.1520848"><ele>7.0</ele><time>2026-04-15T08:28:54.294Z</time></trkpt><trkpt lat="45.8462074" lon="13.1516787"><ele>6.5</ele><time>2026-04-15T08:28:55.295Z</time></trkpt><trkpt lat="45.8460704" lon="13.1512751"><ele>6.0</ele><time>2026-04-15T08:28:56.29Z</time></trkpt><trkpt lat="45.8459371" lon="13.1508635"><ele>6.5</ele><time>2026-04-15T08:28:57.311Z</time></trkpt><trkpt lat="45.8458005" lon="13.1504535"><ele>7.0</ele><time>2026-04-15T08:28:58.281Z</time></trkpt><trkpt lat="45.8456606" lon="13.1500423"><ele>7.0</ele><time>2026-04-15T08:28:59.294Z</time></trkpt><trkpt lat="45.8455128" lon="13.1496294"><ele>7.0</ele><time>2026-04-15T08:29:00.286Z</time></trkpt><trkpt lat="45.8453672" lon="13.1492182"><ele>7.0</ele><time>2026-04-15T08:29:01.299Z</time></trkpt><trkpt lat="45.8452251" lon="13.1487991"><ele>7.0</ele><time>2026-04-15T08:29:02.292Z</time></trkpt><trkpt lat="45.8450888" lon="13.1483773"><ele>7.0</ele><time>2026-04-15T08:29:03.3Z</time></trkpt><trkpt lat="45.8449515" lon="13.1479559"><ele>7.0</ele><time>2026-04-15T08:29:04.297Z</time></trkpt><trkpt lat="45.8448126" lon="13.1475307"><ele>7.5</ele><time>2026-04-15T08:29:05.292Z</time></trkpt><trkpt lat="45.8446754" lon="13.1471092"><ele>8.0</ele><time>2026-04-15T08:29:06.286Z</time></trkpt><trkpt lat="45.8445353" lon="13.1466881"><ele>8.0</ele><time>2026-04-15T08:29:07.291Z</time></trkpt><trkpt lat="45.8443951" lon="13.1462676"><ele>8.0</ele><time>2026-04-15T08:29:08.291Z</time></trkpt><trkpt lat="45.8442568" lon="13.1458475"><ele>7.0</ele><time>2026-04-15T08:29:09.291Z</time></trkpt><trkpt lat="45.8441206" lon="13.145425"><ele>6.0</ele><time>2026-04-15T08:29:10.309Z</time></trkpt><trkpt lat="45.8439866" lon="13.1450062"><ele>6.5</ele><time>2026-04-15T08:29:11.286Z</time></trkpt><trkpt lat="45.8438537" lon="13.1445892"><ele>7.0</ele><time>2026-04-15T08:29:12.297Z</time></trkpt><trkpt lat="45.8437169" lon="13.1441732"><ele>6.0</ele><time>2026-04-15T08:29:13.301Z</time></trkpt><trkpt lat="45.843585" lon="13.1437584"><ele>5.0</ele><time>2026-04-15T08:29:14.293Z</time></trkpt><trkpt lat="45.843454" lon="13.1433449"><ele>6.0</ele><time>2026-04-15T08:29:15.291Z</time></trkpt><trkpt lat="45.8433311" lon="13.1429344"><ele>7.0</ele><time>2026-04-15T08:29:16.295Z</time></trkpt><trkpt lat="45.8432174" lon="13.1425216"><ele>7.0</ele><time>2026-04-15T08:29:17.294Z</time></trkpt><trkpt lat="45.8430909" lon="13.1421165"><ele>7.0</ele><time>2026-04-15T08:29:18.297Z</time></trkpt><trkpt lat="45.8428235" lon="13.1413242"><ele>7.0</ele><time>2026-04-15T08:29:20.3Z</time></trkpt><trkpt lat="45.8426934" lon="13.1409298"><ele>7.0</ele><time>2026-04-15T08:29:21.296Z</time></trkpt><trkpt lat="45.8425644" lon="13.1405373"><ele>6.5</ele><time>2026-04-15T08:29:22.291Z</time></trkpt><trkpt lat="45.8424342" lon="13.140147"><ele>6.0</ele><time>2026-04-15T08:29:23.289Z</time></trkpt><trkpt lat="45.8423069" lon="13.1397616"><ele>7.0</ele><time>2026-04-15T08:29:24.283Z</time></trkpt><trkpt lat="45.8421876" lon="13.1393867"><ele>8.0</ele><time>2026-04-15T08:29:25.288Z</time></trkpt><trkpt lat="45.8420737" lon="13.1390315"><ele>9.0</ele><time>2026-04-15T08:29:26.291Z</time></trkpt><trkpt lat="45.8419604" lon="13.1386842"><ele>10.0</ele><time>2026-04-15T08:29:27.293Z</time></trkpt><trkpt lat="45.8418383" lon="13.138328"><ele>9.0</ele><time>2026-04-15T08:29:28.3Z</time></trkpt><trkpt lat="45.8417119" lon="13.1379436"><ele>8.0</ele><time>2026-04-15T08:29:29.286Z</time></trkpt><trkpt lat="45.8415841" lon="13.1375484"><ele>7.5</ele><time>2026-04-15T08:29:30.292Z</time></trkpt><trkpt lat="45.8414487" lon="13.137139"><ele>7.0</ele><time>2026-04-15T08:29:31.288Z</time></trkpt><trkpt lat="45.8413149" lon="13.1367247"><ele>8.0</ele><time>2026-04-15T08:29:32.287Z</time></trkpt><trkpt lat="45.84118" lon="13.136301"><ele>9.0</ele><time>2026-04-15T08:29:33.291Z</time></trkpt><trkpt lat="45.8410387" lon="13.1358723"><ele>9.5</ele><time>2026-04-15T08:29:34.294Z</time></trkpt><trkpt lat="45.8408941" lon="13.1354415"><ele>10.0</ele><time>2026-04-15T08:29:35.291Z</time></trkpt><trkpt lat="45.8407598" lon="13.1350295"><ele>10.0</ele><time>2026-04-15T08:29:36.307Z</time></trkpt><trkpt lat="45.840631" lon="13.1346356"><ele>10.0</ele><time>2026-04-15T08:29:37.287Z</time></trkpt><trkpt lat="45.8405073" lon="13.1342517"><ele>11.0</ele><time>2026-04-15T08:29:38.301Z</time></trkpt><trkpt lat="45.8403828" lon="13.1338635"><ele>12.0</ele><time>2026-04-15T08:29:39.28Z</time></trkpt><trkpt lat="45.8401285" lon="13.1330797"><ele>10.0</ele><time>2026-04-15T08:29:41.313Z</time></trkpt><trkpt lat="45.8399952" lon="13.1326848"><ele>8.0</ele><time>2026-04-15T08:29:42.284Z</time></trkpt><trkpt lat="45.8398608" lon="13.1322882"><ele>8.0</ele><time>2026-04-15T08:29:43.28Z</time></trkpt><trkpt lat="45.8397281" lon="13.131892"><ele>8.0</ele><time>2026-04-15T08:29:44.278Z</time></trkpt><trkpt lat="45.8394751" lon="13.1310909"><ele>8.5</ele><time>2026-04-15T08:29:46.288Z</time></trkpt><trkpt lat="45.8393446" lon="13.1306876"><ele>9.0</ele><time>2026-04-15T08:29:47.295Z</time></trkpt><trkpt lat="45.8392175" lon="13.1302925"><ele>9.0</ele><time>2026-04-15T08:29:48.312Z</time></trkpt><trkpt lat="45.8390869" lon="13.1298958"><ele>9.0</ele><time>2026-04-15T08:29:49.291Z</time></trkpt><trkpt lat="45.838956" lon="13.1294985"><ele>9.0</ele><time>2026-04-15T08:29:50.29Z</time></trkpt><trkpt lat="45.8388272" lon="13.1291021"><ele>9.0</ele><time>2026-04-15T08:29:51.292Z</time></trkpt><trkpt lat="45.8386984" lon="13.1287093"><ele>9.5</ele><time>2026-04-15T08:29:52.281Z</time></trkpt><trkpt lat="45.8385704" lon="13.1283093"><ele>10.0</ele><time>2026-04-15T08:29:53.283Z</time></trkpt><trkpt lat="45.8384396" lon="13.1279084"><ele>9.5</ele><time>2026-04-15T08:29:54.292Z</time></trkpt><trkpt lat="45.8383077" lon="13.1275129"><ele>9.0</ele><time>2026-04-15T08:29:55.272Z</time></trkpt><trkpt lat="45.8381778" lon="13.1271129"><ele>9.0</ele><time>2026-04-15T08:29:56.29Z</time></trkpt><trkpt lat="45.838041" lon="13.1267069"><ele>9.0</ele><time>2026-04-15T08:29:57.278Z</time></trkpt><trkpt lat="45.8379041" lon="13.1262994"><ele>8.5</ele><time>2026-04-15T08:29:58.311Z</time></trkpt><trkpt lat="45.8377673" lon="13.1258899"><ele>8.0</ele><time>2026-04-15T08:29:59.299Z</time></trkpt><trkpt lat="45.8376266" lon="13.1254785"><ele>8.0</ele><time>2026-04-15T08:30:00.28Z</time></trkpt><trkpt lat="45.8374846" lon="13.1250666"><ele>8.0</ele><time>2026-04-15T08:30:01.287Z</time></trkpt><trkpt lat="45.8373419" lon="13.1246541"><ele>8.0</ele><time>2026-04-15T08:30:02.302Z</time></trkpt><trkpt lat="45.8372015" lon="13.1242443"><ele>8.0</ele><time>2026-04-15T08:30:03.291Z</time></trkpt><trkpt lat="45.8370609" lon="13.1238334"><ele>7.5</ele><time>2026-04-15T08:30:04.287Z</time></trkpt><trkpt lat="45.8369249" lon="13.1234255"><ele>7.0</ele><time>2026-04-15T08:30:05.292Z</time></trkpt><trkpt lat="45.8367944" lon="13.1230231"><ele>7.0</ele><time>2026-04-15T08:30:06.288Z</time></trkpt><trkpt lat="45.8366603" lon="13.1226189"><ele>7.0</ele><time>2026-04-15T08:30:07.289Z</time></trkpt><trkpt lat="45.8365313" lon="13.122221"><ele>7.0</ele><time>2026-04-15T08:30:08.283Z</time></trkpt><trkpt lat="45.8363986" lon="13.1218201"><ele>7.0</ele><time>2026-04-15T08:30:09.287Z</time></trkpt><trkpt lat="45.8362694" lon="13.1214155"><ele>6.5</ele><time>2026-04-15T08:30:10.298Z</time></trkpt><trkpt lat="45.836138" lon="13.1210115"><ele>6.0</ele><time>2026-04-15T08:30:11.286Z</time></trkpt><trkpt lat="45.8360054" lon="13.1206107"><ele>6.0</ele><time>2026-04-15T08:30:12.28Z</time></trkpt><trkpt lat="45.8358758" lon="13.1202124"><ele>6.0</ele><time>2026-04-15T08:30:13.284Z</time></trkpt><trkpt lat="45.8357556" lon="13.1198138"><ele>6.0</ele><time>2026-04-15T08:30:14.293Z</time></trkpt><trkpt lat="45.8356428" lon="13.1194129"><ele>6.0</ele><time>2026-04-15T08:30:15.283Z</time></trkpt><trkpt lat="45.8355228" lon="13.1190133"><ele>6.0</ele><time>2026-04-15T08:30:16.274Z</time></trkpt><trkpt lat="45.8353961" lon="13.1186226"><ele>6.0</ele><time>2026-04-15T08:30:17.285Z</time></trkpt><trkpt lat="45.835273" lon="13.1182299"><ele>6.5</ele><time>2026-04-15T08:30:18.305Z</time></trkpt><trkpt lat="45.8351504" lon="13.1178335"><ele>7.0</ele><time>2026-04-15T08:30:19.297Z</time></trkpt><trkpt lat="45.8350136" lon="13.1174513"><ele>7.5</ele><time>2026-04-15T08:30:20.299Z</time></trkpt><trkpt lat="45.8348785" lon="13.1170715"><ele>8.0</ele><time>2026-04-15T08:30:21.284Z</time></trkpt><trkpt lat="45.8347553" lon="13.1166797"><ele>6.0</ele><time>2026-04-15T08:30:22.282Z</time></trkpt><trkpt lat="45.8345146" lon="13.1159068"><ele>7.0</ele><time>2026-04-15T08:30:24.269Z</time></trkpt><trkpt lat="45.83428" lon="13.1151299"><ele>7.0</ele><time>2026-04-15T08:30:26.279Z</time></trkpt><trkpt lat="45.8341724" lon="13.1147409"><ele>7.0</ele><time>2026-04-15T08:30:27.267Z</time></trkpt><trkpt lat="45.8340536" lon="13.1143587"><ele>6.0</ele><time>2026-04-15T08:30:28.286Z</time></trkpt><trkpt lat="45.8339388" lon="13.1139659"><ele>5.0</ele><time>2026-04-15T08:30:29.277Z</time></trkpt><trkpt lat="45.8338423" lon="13.1135652"><ele>5.0</ele><time>2026-04-15T08:30:30.276Z</time></trkpt><trkpt lat="45.8337492" lon="13.1131641"><ele>5.0</ele><time>2026-04-15T08:30:31.281Z</time></trkpt><trkpt lat="45.8336309" lon="13.1127648"><ele>5.0</ele><time>2026-04-15T08:30:32.291Z</time></trkpt><trkpt lat="45.8335181" lon="13.1123601"><ele>5.0</ele><time>2026-04-15T08:30:33.281Z</time></trkpt><trkpt lat="45.8334138" lon="13.1119525"><ele>5.0</ele><time>2026-04-15T08:30:34.275Z</time></trkpt><trkpt lat="45.8333178" lon="13.111544"><ele>5.0</ele><time>2026-04-15T08:30:35.284Z</time></trkpt><trkpt lat="45.8332047" lon="13.1111311"><ele>5.0</ele><time>2026-04-15T08:30:36.272Z</time></trkpt><trkpt lat="45.833092" lon="13.1107155"><ele>5.0</ele><time>2026-04-15T08:30:37.277Z</time></trkpt><trkpt lat="45.8329808" lon="13.1102901"><ele>5.0</ele><time>2026-04-15T08:30:38.289Z</time></trkpt><trkpt lat="45.8328839" lon="13.1098644"><ele>5.0</ele><time>2026-04-15T08:30:39.279Z</time></trkpt><trkpt lat="45.8327883" lon="13.10944"><ele>5.0</ele><time>2026-04-15T08:30:40.281Z</time></trkpt><trkpt lat="45.8326942" lon="13.1090203"><ele>5.0</ele><time>2026-04-15T08:30:41.274Z</time></trkpt><trkpt lat="45.8326044" lon="13.1085976"><ele>5.0</ele><time>2026-04-15T08:30:42.279Z</time></trkpt><trkpt lat="45.8325249" lon="13.1081779"><ele>5.0</ele><time>2026-04-15T08:30:43.274Z</time></trkpt><trkpt lat="45.8324515" lon="13.1077587"><ele>6.0</ele><time>2026-04-15T08:30:44.282Z</time></trkpt><trkpt lat="45.8323856" lon="13.1073335"><ele>7.0</ele><time>2026-04-15T08:30:45.28Z</time></trkpt><trkpt lat="45.8323078" lon="13.1069118"><ele>6.5</ele><time>2026-04-15T08:30:46.281Z</time></trkpt><trkpt lat="45.8322341" lon="13.1064956"><ele>6.0</ele><time>2026-04-15T08:30:47.274Z</time></trkpt><trkpt lat="45.8321609" lon="13.1060782"><ele>5.0</ele><time>2026-04-15T08:30:48.279Z</time></trkpt><trkpt lat="45.8320914" lon="13.1056611"><ele>4.0</ele><time>2026-04-15T08:30:49.277Z</time></trkpt><trkpt lat="45.8320218" lon="13.1052429"><ele>4.0</ele><time>2026-04-15T08:30:50.279Z</time></trkpt><trkpt lat="45.8319527" lon="13.1048252"><ele>4.0</ele><time>2026-04-15T08:30:51.28Z</time></trkpt><trkpt lat="45.8318837" lon="13.1044052"><ele>4.0</ele><time>2026-04-15T08:30:52.27Z</time></trkpt><trkpt lat="45.8318178" lon="13.1039829"><ele>4.0</ele><time>2026-04-15T08:30:53.275Z</time></trkpt><trkpt lat="45.8317549" lon="13.1035614"><ele>5.0</ele><time>2026-04-15T08:30:54.273Z</time></trkpt><trkpt lat="45.8316907" lon="13.1031387"><ele>6.0</ele><time>2026-04-15T08:30:55.263Z</time></trkpt><trkpt lat="45.8316268" lon="13.1027122"><ele>6.0</ele><time>2026-04-15T08:30:56.27Z</time></trkpt><trkpt lat="45.8315655" lon="13.1022864"><ele>6.0</ele><time>2026-04-15T08:30:57.268Z</time></trkpt><trkpt lat="45.8315043" lon="13.1018656"><ele>6.0</ele><time>2026-04-15T08:30:58.282Z</time></trkpt><trkpt lat="45.8314439" lon="13.1014403"><ele>6.0</ele><time>2026-04-15T08:30:59.294Z</time></trkpt><trkpt lat="45.8313821" lon="13.1010193"><ele>6.0</ele><time>2026-04-15T08:31:00.297Z</time></trkpt><trkpt lat="45.831317" lon="13.1006009"><ele>6.0</ele><time>2026-04-15T08:31:01.277Z</time></trkpt><trkpt lat="45.83125" lon="13.1001719"><ele>6.5</ele><time>2026-04-15T08:31:02.281Z</time></trkpt><trkpt lat="45.831187" lon="13.0997454"><ele>7.0</ele><time>2026-04-15T08:31:03.28Z</time></trkpt><trkpt lat="45.8311219" lon="13.0993198"><ele>7.0</ele><time>2026-04-15T08:31:04.274Z</time></trkpt><trkpt lat="45.8310606" lon="13.0988889"><ele>7.0</ele><time>2026-04-15T08:31:05.295Z</time></trkpt><trkpt lat="45.8309988" lon="13.0984663"><ele>6.0</ele><time>2026-04-15T08:31:06.29Z</time></trkpt><trkpt lat="45.8309388" lon="13.0980428"><ele>5.0</ele><time>2026-04-15T08:31:07.286Z</time></trkpt><trkpt lat="45.8308771" lon="13.0976197"><ele>4.0</ele><time>2026-04-15T08:31:08.276Z</time></trkpt><trkpt lat="45.8308179" lon="13.0972006"><ele>3.0</ele><time>2026-04-15T08:31:09.278Z</time></trkpt><trkpt lat="45.8307587" lon="13.0967823"><ele>3.0</ele><time>2026-04-15T08:31:10.308Z</time></trkpt><trkpt lat="45.8306993" lon="13.0963641"><ele>3.0</ele><time>2026-04-15T08:31:11.281Z</time></trkpt><trkpt lat="45.8306379" lon="13.0959477"><ele>2.5</ele><time>2026-04-15T08:31:12.278Z</time></trkpt><trkpt lat="45.8305731" lon="13.0955342"><ele>2.0</ele><time>2026-04-15T08:31:13.274Z</time></trkpt><trkpt lat="45.8305109" lon="13.0951177"><ele>2.5</ele><time>2026-04-15T08:31:14.271Z</time></trkpt><trkpt lat="45.8304497" lon="13.0947048"><ele>3.0</ele><time>2026-04-15T08:31:15.273Z</time></trkpt><trkpt lat="45.8303881" lon="13.0942931"><ele>3.0</ele><time>2026-04-15T08:31:16.281Z</time></trkpt><trkpt lat="45.8303258" lon="13.0938809"><ele>3.0</ele><time>2026-04-15T08:31:17.261Z</time></trkpt><trkpt lat="45.8302648" lon="13.0934706"><ele>2.5</ele><time>2026-04-15T08:31:18.276Z</time></trkpt><trkpt lat="45.8302053" lon="13.0930557"><ele>2.0</ele><time>2026-04-15T08:31:19.261Z</time></trkpt><trkpt lat="45.8301473" lon="13.0926436"><ele>2.0</ele><time>2026-04-15T08:31:20.27Z</time></trkpt><trkpt lat="45.830091" lon="13.0922321"><ele>2.0</ele><time>2026-04-15T08:31:21.272Z</time></trkpt><trkpt lat="45.8300344" lon="13.0918178"><ele>2.0</ele><time>2026-04-15T08:31:22.262Z</time></trkpt><trkpt lat="45.8299831" lon="13.091406"><ele>2.0</ele><time>2026-04-15T08:31:23.262Z</time></trkpt><trkpt lat="45.8299294" lon="13.0909938"><ele>2.0</ele><time>2026-04-15T08:31:24.268Z</time></trkpt><trkpt lat="45.8298692" lon="13.0905791"><ele>2.0</ele><time>2026-04-15T08:31:25.276Z</time></trkpt><trkpt lat="45.8297537" lon="13.0897636"><ele>2.0</ele><time>2026-04-15T08:31:27.279Z</time></trkpt><trkpt lat="45.8296971" lon="13.0893529"><ele>2.0</ele><time>2026-04-15T08:31:28.282Z</time></trkpt><trkpt lat="45.8296395" lon="13.0889419"><ele>2.0</ele><time>2026-04-15T08:31:29.281Z</time></trkpt><trkpt lat="45.8295805" lon="13.0885345"><ele>2.0</ele><time>2026-04-15T08:31:30.265Z</time></trkpt><trkpt lat="45.8295233" lon="13.0881256"><ele>1.5</ele><time>2026-04-15T08:31:31.275Z</time></trkpt><trkpt lat="45.8294632" lon="13.0877225"><ele>1.0</ele><time>2026-04-15T08:31:32.272Z</time></trkpt><trkpt lat="45.8294043" lon="13.0873155"><ele>1.0</ele><time>2026-04-15T08:31:33.27Z</time></trkpt><trkpt lat="45.8293434" lon="13.0869064"><ele>1.0</ele><time>2026-04-15T08:31:34.271Z</time></trkpt><trkpt lat="45.8292194" lon="13.086084"><ele>1.5</ele><time>2026-04-15T08:31:36.284Z</time></trkpt><trkpt lat="45.8291607" lon="13.08567"><ele>2.0</ele><time>2026-04-15T08:31:37.284Z</time></trkpt><trkpt lat="45.8290981" lon="13.0852523"><ele>2.0</ele><time>2026-04-15T08:31:38.289Z</time></trkpt><trkpt lat="45.8290324" lon="13.0848352"><ele>2.0</ele><time>2026-04-15T08:31:39.285Z</time></trkpt><trkpt lat="45.8289654" lon="13.0844192"><ele>2.0</ele><time>2026-04-15T08:31:40.296Z</time></trkpt><trkpt lat="45.8289109" lon="13.0839986"><ele>2.0</ele><time>2026-04-15T08:31:41.271Z</time></trkpt><trkpt lat="45.8288613" lon="13.0835828"><ele>1.5</ele><time>2026-04-15T08:31:42.276Z</time></trkpt><trkpt lat="45.8288028" lon="13.083169"><ele>1.0</ele><time>2026-04-15T08:31:43.268Z</time></trkpt><trkpt lat="45.8287326" lon="13.0827596"><ele>2.0</ele><time>2026-04-15T08:31:44.266Z</time></trkpt><trkpt lat="45.8286802" lon="13.0823464"><ele>3.0</ele><time>2026-04-15T08:31:45.289Z</time></trkpt><trkpt lat="45.8286259" lon="13.0819373"><ele>2.5</ele><time>2026-04-15T08:31:46.282Z</time></trkpt><trkpt lat="45.8285572" lon="13.0815384"><ele>2.0</ele><time>2026-04-15T08:31:47.263Z</time></trkpt><trkpt lat="45.8284866" lon="13.081125"><ele>2.0</ele><time>2026-04-15T08:31:48.272Z</time></trkpt><trkpt lat="45.8284342" lon="13.0807083"><ele>2.0</ele><time>2026-04-15T08:31:49.276Z</time></trkpt><trkpt lat="45.8283766" lon="13.0802907"><ele>1.0</ele><time>2026-04-15T08:31:50.276Z</time></trkpt><trkpt lat="45.8283032" lon="13.0798753"><ele>0.0</ele><time>2026-04-15T08:31:51.264Z</time></trkpt><trkpt lat="45.8282408" lon="13.0794572"><ele>0.0</ele><time>2026-04-15T08:31:52.276Z</time></trkpt><trkpt lat="45.8281918" lon="13.079039"><ele>0.0</ele><time>2026-04-15T08:31:53.255Z</time></trkpt><trkpt lat="45.8281333" lon="13.0786211"><ele>0.5</ele><time>2026-04-15T08:31:54.275Z</time></trkpt><trkpt lat="45.8280675" lon="13.0782017"><ele>1.0</ele><time>2026-04-15T08:31:55.268Z</time></trkpt><trkpt lat="45.8280127" lon="13.0777776"><ele>2.0</ele><time>2026-04-15T08:31:56.272Z</time></trkpt><trkpt lat="45.8279592" lon="13.0773537"><ele>3.0</ele><time>2026-04-15T08:31:57.272Z</time></trkpt><trkpt lat="45.8278914" lon="13.076935"><ele>3.0</ele><time>2026-04-15T08:31:58.286Z</time></trkpt><trkpt lat="45.8278188" lon="13.076519"><ele>3.0</ele><time>2026-04-15T08:31:59.276Z</time></trkpt><trkpt lat="45.8277648" lon="13.0760984"><ele>3.0</ele><time>2026-04-15T08:32:00.266Z</time></trkpt><trkpt lat="45.8277131" lon="13.0756868"><ele>3.0</ele><time>2026-04-15T08:32:01.266Z</time></trkpt><trkpt lat="45.8276458" lon="13.0752717"><ele>3.5</ele><time>2026-04-15T08:32:02.276Z</time></trkpt><trkpt lat="45.8275777" lon="13.0748497"><ele>4.0</ele><time>2026-04-15T08:32:03.267Z</time></trkpt><trkpt lat="45.82751" lon="13.074423"><ele>4.0</ele><time>2026-04-15T08:32:04.266Z</time></trkpt><trkpt lat="45.8274471" lon="13.0739979"><ele>4.0</ele><time>2026-04-15T08:32:05.267Z</time></trkpt><trkpt lat="45.8273859" lon="13.0735785"><ele>4.0</ele><time>2026-04-15T08:32:06.275Z</time></trkpt><trkpt lat="45.8273275" lon="13.0731535"><ele>4.0</ele><time>2026-04-15T08:32:07.266Z</time></trkpt><trkpt lat="45.8272687" lon="13.072733"><ele>4.0</ele><time>2026-04-15T08:32:08.271Z</time></trkpt><trkpt lat="45.8272126" lon="13.07231"><ele>4.0</ele><time>2026-04-15T08:32:09.284Z</time></trkpt><trkpt lat="45.8271564" lon="13.0718859"><ele>4.0</ele><time>2026-04-15T08:32:10.27Z</time></trkpt><trkpt lat="45.8270933" lon="13.0714617"><ele>4.0</ele><time>2026-04-15T08:32:11.278Z</time></trkpt><trkpt lat="45.8270327" lon="13.071034"><ele>4.0</ele><time>2026-04-15T08:32:12.276Z</time></trkpt><trkpt lat="45.8269723" lon="13.0706059"><ele>4.0</ele><time>2026-04-15T08:32:13.286Z</time></trkpt><trkpt lat="45.8269097" lon="13.0701747"><ele>4.0</ele><time>2026-04-15T08:32:14.279Z</time></trkpt><trkpt lat="45.8268466" lon="13.0697458"><ele>4.0</ele><time>2026-04-15T08:32:15.285Z</time></trkpt><trkpt lat="45.8267841" lon="13.0693161"><ele>5.0</ele><time>2026-04-15T08:32:16.272Z</time></trkpt><trkpt lat="45.8267237" lon="13.0688877"><ele>6.0</ele><time>2026-04-15T08:32:17.252Z</time></trkpt><trkpt lat="45.8266619" lon="13.0684554"><ele>6.0</ele><time>2026-04-15T08:32:18.282Z</time></trkpt><trkpt lat="45.8265975" lon="13.0680279"><ele>6.0</ele><time>2026-04-15T08:32:19.262Z</time></trkpt><trkpt lat="45.8265333" lon="13.0676022"><ele>5.0</ele><time>2026-04-15T08:32:20.265Z</time></trkpt><trkpt lat="45.8264709" lon="13.0671717"><ele>4.0</ele><time>2026-04-15T08:32:21.27Z</time></trkpt><trkpt lat="45.826409" lon="13.0667447"><ele>4.0</ele><time>2026-04-15T08:32:22.277Z</time></trkpt><trkpt lat="45.8263505" lon="13.0663152"><ele>4.0</ele><time>2026-04-15T08:32:23.292Z</time></trkpt><trkpt lat="45.8262261" lon="13.0654635"><ele>4.0</ele><time>2026-04-15T08:32:25.27Z</time></trkpt><trkpt lat="45.8261629" lon="13.0650385"><ele>4.0</ele><time>2026-04-15T08:32:26.277Z</time></trkpt><trkpt lat="45.8261038" lon="13.0646154"><ele>3.5</ele><time>2026-04-15T08:32:27.271Z</time></trkpt><trkpt lat="45.8260435" lon="13.0641909"><ele>3.0</ele><time>2026-04-15T08:32:28.257Z</time></trkpt><trkpt lat="45.8259814" lon="13.0637633"><ele>4.0</ele><time>2026-04-15T08:32:29.271Z</time></trkpt><trkpt lat="45.825919" lon="13.0633349"><ele>5.0</ele><time>2026-04-15T08:32:30.278Z</time></trkpt><trkpt lat="45.8258604" lon="13.0628997"><ele>5.0</ele><time>2026-04-15T08:32:31.268Z</time></trkpt><trkpt lat="45.8258008" lon="13.0624668"><ele>5.0</ele><time>2026-04-15T08:32:32.284Z</time></trkpt><trkpt lat="45.8257385" lon="13.0620348"><ele>5.0</ele><time>2026-04-15T08:32:33.268Z</time></trkpt><trkpt lat="45.8256133" lon="13.0611644"><ele>3.0</ele><time>2026-04-15T08:32:35.263Z</time></trkpt><trkpt lat="45.8254861" lon="13.0602896"><ele>3.5</ele><time>2026-04-15T08:32:37.265Z</time></trkpt><trkpt lat="45.8254225" lon="13.0598497"><ele>4.0</ele><time>2026-04-15T08:32:38.281Z</time></trkpt><trkpt lat="45.8253587" lon="13.0594088"><ele>4.0</ele><time>2026-04-15T08:32:39.266Z</time></trkpt><trkpt lat="45.8252952" lon="13.0589654"><ele>4.0</ele><time>2026-04-15T08:32:40.268Z</time></trkpt><trkpt lat="45.8252301" lon="13.0585193"><ele>4.5</ele><time>2026-04-15T08:32:41.282Z</time></trkpt><trkpt lat="45.8251676" lon="13.0580758"><ele>5.0</ele><time>2026-04-15T08:32:42.263Z</time></trkpt><trkpt lat="45.8250996" lon="13.0576329"><ele>4.5</ele><time>2026-04-15T08:32:43.262Z</time></trkpt><trkpt lat="45.8250322" lon="13.0571884"><ele>4.0</ele><time>2026-04-15T08:32:44.272Z</time></trkpt><trkpt lat="45.824967" lon="13.0567474"><ele>3.5</ele><time>2026-04-15T08:32:45.259Z</time></trkpt><trkpt lat="45.824901" lon="13.0563067"><ele>3.0</ele><time>2026-04-15T08:32:46.276Z</time></trkpt><trkpt lat="45.8248391" lon="13.0558653"><ele>3.0</ele><time>2026-04-15T08:32:47.282Z</time></trkpt><trkpt lat="45.8247721" lon="13.0554251"><ele>3.0</ele><time>2026-04-15T08:32:48.268Z</time></trkpt><trkpt lat="45.8247075" lon="13.0549819"><ele>3.0</ele><time>2026-04-15T08:32:49.26Z</time></trkpt><trkpt lat="45.8246377" lon="13.0545368"><ele>3.0</ele><time>2026-04-15T08:32:50.293Z</time></trkpt><trkpt lat="45.8245662" lon="13.0540954"><ele>3.0</ele><time>2026-04-15T08:32:51.262Z</time></trkpt><trkpt lat="45.8244954" lon="13.0536567"><ele>3.0</ele><time>2026-04-15T08:32:52.261Z</time></trkpt><trkpt lat="45.8244241" lon="13.0532192"><ele>3.5</ele><time>2026-04-15T08:32:53.256Z</time></trkpt><trkpt lat="45.8243504" lon="13.0527789"><ele>4.0</ele><time>2026-04-15T08:32:54.276Z</time></trkpt><trkpt lat="45.8242748" lon="13.0523406"><ele>4.0</ele><time>2026-04-15T08:32:55.271Z</time></trkpt><trkpt lat="45.8241959" lon="13.0519054"><ele>4.0</ele><time>2026-04-15T08:32:56.267Z</time></trkpt><trkpt lat="45.824115" lon="13.0514665"><ele>3.5</ele><time>2026-04-15T08:32:57.26Z</time></trkpt><trkpt lat="45.8240325" lon="13.0510325"><ele>3.0</ele><time>2026-04-15T08:32:58.28Z</time></trkpt><trkpt lat="45.8239561" lon="13.0505996"><ele>3.5</ele><time>2026-04-15T08:32:59.269Z</time></trkpt><trkpt lat="45.8238777" lon="13.0501681"><ele>4.0</ele><time>2026-04-15T08:33:00.257Z</time></trkpt><trkpt lat="45.8237825" lon="13.0497487"><ele>4.0</ele><time>2026-04-15T08:33:01.271Z</time></trkpt><trkpt lat="45.8236787" lon="13.0493362"><ele>4.0</ele><time>2026-04-15T08:33:02.269Z</time></trkpt><trkpt lat="45.8235854" lon="13.0489233"><ele>4.0</ele><time>2026-04-15T08:33:03.273Z</time></trkpt><trkpt lat="45.823501" lon="13.0485045"><ele>4.0</ele><time>2026-04-15T08:33:04.269Z</time></trkpt><trkpt lat="45.823408" lon="13.0480927"><ele>4.0</ele><time>2026-04-15T08:33:05.266Z</time></trkpt><trkpt lat="45.8232987" lon="13.0476837"><ele>4.0</ele><time>2026-04-15T08:33:06.272Z</time></trkpt><trkpt lat="45.8231906" lon="13.0472795"><ele>4.0</ele><time>2026-04-15T08:33:07.264Z</time></trkpt><trkpt lat="45.8230903" lon="13.0468717"><ele>4.0</ele><time>2026-04-15T08:33:08.266Z</time></trkpt><trkpt lat="45.8229864" lon="13.0464641"><ele>4.5</ele><time>2026-04-15T08:33:09.309Z</time></trkpt><trkpt lat="45.8228811" lon="13.0460595"><ele>5.0</ele><time>2026-04-15T08:33:10.27Z</time></trkpt><trkpt lat="45.8227706" lon="13.0456565"><ele>5.0</ele><time>2026-04-15T08:33:11.268Z</time></trkpt><trkpt lat="45.8226617" lon="13.0452567"><ele>5.0</ele><time>2026-04-15T08:33:12.252Z</time></trkpt><trkpt lat="45.8225464" lon="13.0448542"><ele>5.0</ele><time>2026-04-15T08:33:13.273Z</time></trkpt><trkpt lat="45.8224305" lon="13.0444545"><ele>5.0</ele><time>2026-04-15T08:33:14.276Z</time></trkpt><trkpt lat="45.8223134" lon="13.0440527"><ele>4.5</ele><time>2026-04-15T08:33:15.271Z</time></trkpt><trkpt lat="45.8221976" lon="13.0436554"><ele>4.0</ele><time>2026-04-15T08:33:16.274Z</time></trkpt><trkpt lat="45.8220828" lon="13.0432562"><ele>3.5</ele><time>2026-04-15T08:33:17.257Z</time></trkpt><trkpt lat="45.8219674" lon="13.0428577"><ele>3.0</ele><time>2026-04-15T08:33:18.259Z</time></trkpt><trkpt lat="45.8218506" lon="13.0424606"><ele>3.5</ele><time>2026-04-15T08:33:19.261Z</time></trkpt><trkpt lat="45.8217337" lon="13.0420638"><ele>4.0</ele><time>2026-04-15T08:33:20.27Z</time></trkpt><trkpt lat="45.8216196" lon="13.0416642"><ele>3.5</ele><time>2026-04-15T08:33:21.28Z</time></trkpt><trkpt lat="45.8215086" lon="13.0412683"><ele>3.0</ele><time>2026-04-15T08:33:22.268Z</time></trkpt><trkpt lat="45.8213955" lon="13.0408735"><ele>4.5</ele><time>2026-04-15T08:33:23.264Z</time></trkpt><trkpt lat="45.8212821" lon="13.0404757"><ele>6.0</ele><time>2026-04-15T08:33:24.271Z</time></trkpt><trkpt lat="45.8211691" lon="13.0400781"><ele>5.5</ele><time>2026-04-15T08:33:25.266Z</time></trkpt><trkpt lat="45.8210561" lon="13.0396828"><ele>5.0</ele><time>2026-04-15T08:33:26.275Z</time></trkpt><trkpt lat="45.8209452" lon="13.0392855"><ele>4.5</ele><time>2026-04-15T08:33:27.274Z</time></trkpt><trkpt lat="45.8208333" lon="13.0388933"><ele>4.0</ele><time>2026-04-15T08:33:28.27Z</time></trkpt><trkpt lat="45.8207189" lon="13.038498"><ele>5.0</ele><time>2026-04-15T08:33:29.271Z</time></trkpt><trkpt lat="45.820606" lon="13.0381044"><ele>6.0</ele><time>2026-04-15T08:33:30.272Z</time></trkpt><trkpt lat="45.8204882" lon="13.0377108"><ele>5.5</ele><time>2026-04-15T08:33:31.263Z</time></trkpt><trkpt lat="45.8203724" lon="13.0373166"><ele>5.0</ele><time>2026-04-15T08:33:32.277Z</time></trkpt><trkpt lat="45.8202608" lon="13.036916"><ele>6.0</ele><time>2026-04-15T08:33:33.254Z</time></trkpt><trkpt lat="45.8201488" lon="13.0365159"><ele>7.0</ele><time>2026-04-15T08:33:34.291Z</time></trkpt><trkpt lat="45.8200355" lon="13.036121"><ele>6.5</ele><time>2026-04-15T08:33:35.265Z</time></trkpt><trkpt lat="45.8199185" lon="13.0357244"><ele>6.0</ele><time>2026-04-15T08:33:36.271Z</time></trkpt><trkpt lat="45.8198032" lon="13.0353266"><ele>6.0</ele><time>2026-04-15T08:33:37.27Z</time></trkpt><trkpt lat="45.8196919" lon="13.0349259"><ele>6.0</ele><time>2026-04-15T08:33:38.259Z</time></trkpt><trkpt lat="45.8195876" lon="13.0345181"><ele>5.5</ele><time>2026-04-15T08:33:39.267Z</time></trkpt><trkpt lat="45.819489" lon="13.0341116"><ele>5.0</ele><time>2026-04-15T08:33:40.26Z</time></trkpt><trkpt lat="45.8193905" lon="13.0337016"><ele>5.0</ele><time>2026-04-15T08:33:41.263Z</time></trkpt><trkpt lat="45.8193007" lon="13.0332883"><ele>5.0</ele><time>2026-04-15T08:33:42.264Z</time></trkpt><trkpt lat="45.8192133" lon="13.0328693"><ele>4.5</ele><time>2026-04-15T08:33:43.265Z</time></trkpt><trkpt lat="45.8191339" lon="13.0324501"><ele>4.0</ele><time>2026-04-15T08:33:44.279Z</time></trkpt><trkpt lat="45.8190555" lon="13.0320315"><ele>3.5</ele><time>2026-04-15T08:33:45.256Z</time></trkpt><trkpt lat="45.8189824" lon="13.0316136"><ele>3.0</ele><time>2026-04-15T08:33:46.254Z</time></trkpt><trkpt lat="45.8188495" lon="13.0307666"><ele>4.0</ele><time>2026-04-15T08:33:48.258Z</time></trkpt><trkpt lat="45.8187965" lon="13.0303405"><ele>5.0</ele><time>2026-04-15T08:33:49.248Z</time></trkpt><trkpt lat="45.8187459" lon="13.0299134"><ele>5.0</ele><time>2026-04-15T08:33:50.26Z</time></trkpt><trkpt lat="45.8187001" lon="13.0294832"><ele>5.0</ele><time>2026-04-15T08:33:51.262Z</time></trkpt><trkpt lat="45.8186579" lon="13.029053"><ele>7.0</ele><time>2026-04-15T08:33:52.267Z</time></trkpt><trkpt lat="45.8185789" lon="13.0282023"><ele>7.0</ele><time>2026-04-15T08:33:54.257Z</time></trkpt><trkpt lat="45.8185368" lon="13.027775"><ele>7.0</ele><time>2026-04-15T08:33:55.26Z</time></trkpt><trkpt lat="45.8184962" lon="13.0273444"><ele>6.5</ele><time>2026-04-15T08:33:56.254Z</time></trkpt><trkpt lat="45.8184546" lon="13.0269168"><ele>6.0</ele><time>2026-04-15T08:33:57.266Z</time></trkpt><trkpt lat="45.8184178" lon="13.0264904"><ele>5.5</ele><time>2026-04-15T08:33:58.267Z</time></trkpt><trkpt lat="45.8183849" lon="13.0260631"><ele>5.0</ele><time>2026-04-15T08:33:59.254Z</time></trkpt><trkpt lat="45.8183526" lon="13.0256328"><ele>5.0</ele><time>2026-04-15T08:34:00.262Z</time></trkpt><trkpt lat="45.8183213" lon="13.025202"><ele>5.0</ele><time>2026-04-15T08:34:01.274Z</time></trkpt><trkpt lat="45.8182888" lon="13.0247767"><ele>5.0</ele><time>2026-04-15T08:34:02.259Z</time></trkpt><trkpt lat="45.8182569" lon="13.0243538"><ele>5.0</ele><time>2026-04-15T08:34:03.261Z</time></trkpt><trkpt lat="45.8182237" lon="13.023927"><ele>5.0</ele><time>2026-04-15T08:34:04.258Z</time></trkpt><trkpt lat="45.8181868" lon="13.023499"><ele>5.0</ele><time>2026-04-15T08:34:05.259Z</time></trkpt><trkpt lat="45.8181474" lon="13.0230728"><ele>4.0</ele><time>2026-04-15T08:34:06.257Z</time></trkpt><trkpt lat="45.8181103" lon="13.0226496"><ele>3.0</ele><time>2026-04-15T08:34:07.258Z</time></trkpt><trkpt lat="45.8180723" lon="13.0222167"><ele>3.0</ele><time>2026-04-15T08:34:08.266Z</time></trkpt><trkpt lat="45.818037" lon="13.021786"><ele>3.0</ele><time>2026-04-15T08:34:09.269Z</time></trkpt><trkpt lat="45.8180056" lon="13.0213521"><ele>4.0</ele><time>2026-04-15T08:34:10.266Z</time></trkpt><trkpt lat="45.8179746" lon="13.0209215"><ele>5.0</ele><time>2026-04-15T08:34:11.264Z</time></trkpt><trkpt lat="45.8179411" lon="13.0204931"><ele>5.0</ele><time>2026-04-15T08:34:12.257Z</time></trkpt><trkpt lat="45.817906" lon="13.0200563"><ele>5.0</ele><time>2026-04-15T08:34:13.25Z</time></trkpt><trkpt lat="45.8178343" lon="13.0191855"><ele>5.0</ele><time>2026-04-15T08:34:15.254Z</time></trkpt><trkpt lat="45.8177916" lon="13.0187489"><ele>5.0</ele><time>2026-04-15T08:34:16.275Z</time></trkpt><trkpt lat="45.8177471" lon="13.0183129"><ele>5.5</ele><time>2026-04-15T08:34:17.256Z</time></trkpt><trkpt lat="45.8177192" lon="13.017873"><ele>6.0</ele><time>2026-04-15T08:34:18.259Z</time></trkpt><trkpt lat="45.8176887" lon="13.0174429"><ele>5.5</ele><time>2026-04-15T08:34:19.259Z</time></trkpt><trkpt lat="45.8176474" lon="13.0170061"><ele>5.0</ele><time>2026-04-15T08:34:20.248Z</time></trkpt><trkpt lat="45.817608" lon="13.0165723"><ele>4.5</ele><time>2026-04-15T08:34:21.271Z</time></trkpt><trkpt lat="45.8175798" lon="13.0161352"><ele>4.0</ele><time>2026-04-15T08:34:22.257Z</time></trkpt><trkpt lat="45.817548" lon="13.0156981"><ele>5.0</ele><time>2026-04-15T08:34:23.263Z</time></trkpt><trkpt lat="45.8175023" lon="13.0152643"><ele>6.0</ele><time>2026-04-15T08:34:24.256Z</time></trkpt><trkpt lat="45.8174641" lon="13.0148339"><ele>7.0</ele><time>2026-04-15T08:34:25.251Z</time></trkpt><trkpt lat="45.8174028" lon="13.013973"><ele>7.0</ele><time>2026-04-15T08:34:27.27Z</time></trkpt><trkpt lat="45.817359" lon="13.0135404"><ele>7.0</ele><time>2026-04-15T08:34:28.253Z</time></trkpt><trkpt lat="45.8173169" lon="13.0131101"><ele>7.0</ele><time>2026-04-15T08:34:29.24Z</time></trkpt><trkpt lat="45.8172827" lon="13.0126774"><ele>7.0</ele><time>2026-04-15T08:34:30.274Z</time></trkpt><trkpt lat="45.8172465" lon="13.0122455"><ele>6.5</ele><time>2026-04-15T08:34:31.252Z</time></trkpt><trkpt lat="45.8172122" lon="13.0118233"><ele>6.0</ele><time>2026-04-15T08:34:32.257Z</time></trkpt><trkpt lat="45.8171737" lon="13.0114052"><ele>5.5</ele><time>2026-04-15T08:34:33.255Z</time></trkpt><trkpt lat="45.8171365" lon="13.0109871"><ele>5.0</ele><time>2026-04-15T08:34:34.256Z</time></trkpt><trkpt lat="45.817098" lon="13.0105719"><ele>5.0</ele><time>2026-04-15T08:34:35.269Z</time></trkpt><trkpt lat="45.8170639" lon="13.0101607"><ele>5.0</ele><time>2026-04-15T08:34:36.247Z</time></trkpt><trkpt lat="45.8170297" lon="13.0097551"><ele>5.0</ele><time>2026-04-15T08:34:37.25Z</time></trkpt><trkpt lat="45.8169541" lon="13.0089437"><ele>5.0</ele><time>2026-04-15T08:34:39.248Z</time></trkpt><trkpt lat="45.8169155" lon="13.0085365"><ele>5.0</ele><time>2026-04-15T08:34:40.292Z</time></trkpt><trkpt lat="45.8168733" lon="13.0081303"><ele>5.0</ele><time>2026-04-15T08:34:41.264Z</time></trkpt><trkpt lat="45.8168323" lon="13.0077233"><ele>5.0</ele><time>2026-04-15T08:34:42.259Z</time></trkpt><trkpt lat="45.816791" lon="13.0073085"><ele>4.5</ele><time>2026-04-15T08:34:43.253Z</time></trkpt><trkpt lat="45.8167495" lon="13.0068824"><ele>4.0</ele><time>2026-04-15T08:34:44.242Z</time></trkpt><trkpt lat="45.8167036" lon="13.0064464"><ele>5.0</ele><time>2026-04-15T08:34:45.25Z</time></trkpt><trkpt lat="45.8166477" lon="13.0059971"><ele>6.0</ele><time>2026-04-15T08:34:46.256Z</time></trkpt><trkpt lat="45.8165847" lon="13.0055309"><ele>6.0</ele><time>2026-04-15T08:34:47.246Z</time></trkpt><trkpt lat="45.8165182" lon="13.0050647"><ele>6.0</ele><time>2026-04-15T08:34:48.25Z</time></trkpt><trkpt lat="45.8164455" lon="13.0045858"><ele>6.0</ele><time>2026-04-15T08:34:49.246Z</time></trkpt><trkpt lat="45.8163691" lon="13.0041164"><ele>6.0</ele><time>2026-04-15T08:34:50.252Z</time></trkpt><trkpt lat="45.8162905" lon="13.0036507"><ele>7.0</ele><time>2026-04-15T08:34:51.24Z</time></trkpt><trkpt lat="45.8162113" lon="13.0031852"><ele>8.0</ele><time>2026-04-15T08:34:52.257Z</time></trkpt><trkpt lat="45.8161325" lon="13.0027235"><ele>7.5</ele><time>2026-04-15T08:34:53.254Z</time></trkpt><trkpt lat="45.8160548" lon="13.0022675"><ele>7.0</ele><time>2026-04-15T08:34:54.245Z</time></trkpt><trkpt lat="45.8159829" lon="13.0018101"><ele>8.0</ele><time>2026-04-15T08:34:55.25Z</time></trkpt><trkpt lat="45.8159157" lon="13.0013524"><ele>9.0</ele><time>2026-04-15T08:34:56.238Z</time></trkpt><trkpt lat="45.8158464" lon="13.0008922"><ele>8.5</ele><time>2026-04-15T08:34:57.247Z</time></trkpt><trkpt lat="45.8157757" lon="13.0004322"><ele>8.0</ele><time>2026-04-15T08:34:58.249Z</time></trkpt><trkpt lat="45.8157075" lon="12.9999727"><ele>8.0</ele><time>2026-04-15T08:34:59.25Z</time></trkpt><trkpt lat="45.815645" lon="12.9995128"><ele>8.0</ele><time>2026-04-15T08:35:00.244Z</time></trkpt><trkpt lat="45.8155842" lon="12.9990505"><ele>10.0</ele><time>2026-04-15T08:35:01.248Z</time></trkpt><trkpt lat="45.8154599" lon="12.9981207"><ele>10.0</ele><time>2026-04-15T08:35:03.253Z</time></trkpt><trkpt lat="45.8153943" lon="12.9976564"><ele>10.0</ele><time>2026-04-15T08:35:04.249Z</time></trkpt><trkpt lat="45.8153304" lon="12.9971916"><ele>9.5</ele><time>2026-04-15T08:35:05.247Z</time></trkpt><trkpt lat="45.8152654" lon="12.9967323"><ele>9.0</ele><time>2026-04-15T08:35:06.244Z</time></trkpt><trkpt lat="45.8151941" lon="12.9962678"><ele>8.5</ele><time>2026-04-15T08:35:07.248Z</time></trkpt><trkpt lat="45.8151158" lon="12.9958106"><ele>8.0</ele><time>2026-04-15T08:35:08.239Z</time></trkpt><trkpt lat="45.8150386" lon="12.9953534"><ele>8.5</ele><time>2026-04-15T08:35:09.244Z</time></trkpt><trkpt lat="45.8149596" lon="12.9948959"><ele>9.0</ele><time>2026-04-15T08:35:10.258Z</time></trkpt><trkpt lat="45.8148779" lon="12.9944403"><ele>11.0</ele><time>2026-04-15T08:35:11.253Z</time></trkpt><trkpt lat="45.8147062" lon="12.9935298"><ele>10.0</ele><time>2026-04-15T08:35:13.242Z</time></trkpt><trkpt lat="45.814624" lon="12.9930748"><ele>9.0</ele><time>2026-04-15T08:35:14.242Z</time></trkpt><trkpt lat="45.8145414" lon="12.9926191"><ele>8.5</ele><time>2026-04-15T08:35:15.26Z</time></trkpt><trkpt lat="45.8144602" lon="12.9921625"><ele>8.0</ele><time>2026-04-15T08:35:16.241Z</time></trkpt><trkpt lat="45.8143803" lon="12.9917119"><ele>8.0</ele><time>2026-04-15T08:35:17.249Z</time></trkpt><trkpt lat="45.814299" lon="12.9912634"><ele>8.0</ele><time>2026-04-15T08:35:18.24Z</time></trkpt><trkpt lat="45.8142156" lon="12.9908139"><ele>8.0</ele><time>2026-04-15T08:35:19.243Z</time></trkpt><trkpt lat="45.8141375" lon="12.9903678"><ele>8.0</ele><time>2026-04-15T08:35:20.252Z</time></trkpt><trkpt lat="45.8140594" lon="12.9899329"><ele>9.0</ele><time>2026-04-15T08:35:21.237Z</time></trkpt><trkpt lat="45.8139776" lon="12.9894938"><ele>10.0</ele><time>2026-04-15T08:35:22.245Z</time></trkpt><trkpt lat="45.8138954" lon="12.9890495"><ele>10.0</ele><time>2026-04-15T08:35:23.248Z</time></trkpt><trkpt lat="45.8138121" lon="12.9886169"><ele>10.0</ele><time>2026-04-15T08:35:24.254Z</time></trkpt><trkpt lat="45.8137338" lon="12.9881868"><ele>8.0</ele><time>2026-04-15T08:35:25.254Z</time></trkpt><trkpt lat="45.8136575" lon="12.9877527"><ele>6.0</ele><time>2026-04-15T08:35:26.253Z</time></trkpt><trkpt lat="45.8135817" lon="12.9873274"><ele>6.0</ele><time>2026-04-15T08:35:27.244Z</time></trkpt><trkpt lat="45.8135004" lon="12.986899"><ele>6.0</ele><time>2026-04-15T08:35:28.247Z</time></trkpt><trkpt lat="45.8134214" lon="12.9864701"><ele>6.5</ele><time>2026-04-15T08:35:29.245Z</time></trkpt><trkpt lat="45.8133422" lon="12.9860417"><ele>7.0</ele><time>2026-04-15T08:35:30.241Z</time></trkpt><trkpt lat="45.8132627" lon="12.9856104"><ele>7.0</ele><time>2026-04-15T08:35:31.252Z</time></trkpt><trkpt lat="45.8131877" lon="12.9851809"><ele>7.0</ele><time>2026-04-15T08:35:32.256Z</time></trkpt><trkpt lat="45.8131113" lon="12.9847551"><ele>6.5</ele><time>2026-04-15T08:35:33.254Z</time></trkpt><trkpt lat="45.8130352" lon="12.9843283"><ele>6.0</ele><time>2026-04-15T08:35:34.245Z</time></trkpt><trkpt lat="45.8129625" lon="12.9838968"><ele>6.0</ele><time>2026-04-15T08:35:35.248Z</time></trkpt><trkpt lat="45.8128928" lon="12.9834632"><ele>6.0</ele><time>2026-04-15T08:35:36.253Z</time></trkpt><trkpt lat="45.8128243" lon="12.9830329"><ele>6.0</ele><time>2026-04-15T08:35:37.252Z</time></trkpt><trkpt lat="45.8127448" lon="12.9826043"><ele>6.0</ele><time>2026-04-15T08:35:38.241Z</time></trkpt><trkpt lat="45.812658" lon="12.9821704"><ele>6.0</ele><time>2026-04-15T08:35:39.246Z</time></trkpt><trkpt lat="45.8125753" lon="12.9817307"><ele>6.0</ele><time>2026-04-15T08:35:40.251Z</time></trkpt><trkpt lat="45.8124981" lon="12.9812817"><ele>4.0</ele><time>2026-04-15T08:35:41.249Z</time></trkpt><trkpt lat="45.8124229" lon="12.9808375"><ele>2.0</ele><time>2026-04-15T08:35:42.254Z</time></trkpt><trkpt lat="45.8123527" lon="12.9804038"><ele>2.0</ele><time>2026-04-15T08:35:43.246Z</time></trkpt><trkpt lat="45.8122765" lon="12.9799772"><ele>2.0</ele><time>2026-04-15T08:35:44.251Z</time></trkpt><trkpt lat="45.812202" lon="12.979551"><ele>6.5</ele><time>2026-04-15T08:35:45.263Z</time></trkpt><trkpt lat="45.8121275" lon="12.9791335"><ele>11.0</ele><time>2026-04-15T08:35:46.244Z</time></trkpt><trkpt lat="45.8120497" lon="12.9787172"><ele>11.5</ele><time>2026-04-15T08:35:47.249Z</time></trkpt><trkpt lat="45.8119728" lon="12.9782985"><ele>12.0</ele><time>2026-04-15T08:35:48.252Z</time></trkpt><trkpt lat="45.8118971" lon="12.9778758"><ele>11.0</ele><time>2026-04-15T08:35:49.243Z</time></trkpt><trkpt lat="45.8118218" lon="12.9774518"><ele>10.0</ele><time>2026-04-15T08:35:50.257Z</time></trkpt><trkpt lat="45.8117414" lon="12.9770167"><ele>9.5</ele><time>2026-04-15T08:35:51.25Z</time></trkpt><trkpt lat="45.8116582" lon="12.9765723"><ele>9.0</ele><time>2026-04-15T08:35:52.252Z</time></trkpt><trkpt lat="45.811566" lon="12.9761018"><ele>8.5</ele><time>2026-04-15T08:35:53.255Z</time></trkpt><trkpt lat="45.8114684" lon="12.975614"><ele>8.0</ele><time>2026-04-15T08:35:54.241Z</time></trkpt><trkpt lat="45.811374" lon="12.9751165"><ele>7.5</ele><time>2026-04-15T08:35:55.233Z</time></trkpt><trkpt lat="45.8112869" lon="12.9746123"><ele>7.0</ele><time>2026-04-15T08:35:56.239Z</time></trkpt><trkpt lat="45.8112035" lon="12.9741083"><ele>7.0</ele><time>2026-04-15T08:35:57.243Z</time></trkpt><trkpt lat="45.8111151" lon="12.9736077"><ele>7.0</ele><time>2026-04-15T08:35:58.25Z</time></trkpt><trkpt lat="45.8110234" lon="12.9731238"><ele>7.0</ele><time>2026-04-15T08:35:59.246Z</time></trkpt><trkpt lat="45.8109306" lon="12.9726497"><ele>7.0</ele><time>2026-04-15T08:36:00.235Z</time></trkpt><trkpt lat="45.8108359" lon="12.9721855"><ele>7.0</ele><time>2026-04-15T08:36:01.241Z</time></trkpt><trkpt lat="45.8107413" lon="12.9717328"><ele>7.0</ele><time>2026-04-15T08:36:02.257Z</time></trkpt><trkpt lat="45.8106451" lon="12.9712837"><ele>6.5</ele><time>2026-04-15T08:36:03.247Z</time></trkpt><trkpt lat="45.8105537" lon="12.9708367"><ele>6.0</ele><time>2026-04-15T08:36:04.246Z</time></trkpt><trkpt lat="45.8104641" lon="12.9703979"><ele>6.5</ele><time>2026-04-15T08:36:05.25Z</time></trkpt><trkpt lat="45.810374" lon="12.9699653"><ele>7.0</ele><time>2026-04-15T08:36:06.243Z</time></trkpt><trkpt lat="45.8102839" lon="12.9695375"><ele>7.0</ele><time>2026-04-15T08:36:07.242Z</time></trkpt><trkpt lat="45.8101994" lon="12.9691097"><ele>7.0</ele><time>2026-04-15T08:36:08.236Z</time></trkpt><trkpt lat="45.8101122" lon="12.9686787"><ele>7.5</ele><time>2026-04-15T08:36:09.25Z</time></trkpt><trkpt lat="45.8100292" lon="12.9682517"><ele>8.0</ele><time>2026-04-15T08:36:10.251Z</time></trkpt><trkpt lat="45.8099503" lon="12.967821"><ele>7.5</ele><time>2026-04-15T08:36:11.24Z</time></trkpt><trkpt lat="45.8098752" lon="12.9673872"><ele>7.0</ele><time>2026-04-15T08:36:12.258Z</time></trkpt><trkpt lat="45.8098033" lon="12.9669516"><ele>7.0</ele><time>2026-04-15T08:36:13.259Z</time></trkpt><trkpt lat="45.8097347" lon="12.9665182"><ele>7.0</ele><time>2026-04-15T08:36:14.241Z</time></trkpt><trkpt lat="45.8096696" lon="12.9660864"><ele>6.0</ele><time>2026-04-15T08:36:15.247Z</time></trkpt><trkpt lat="45.8096098" lon="12.9656506"><ele>5.0</ele><time>2026-04-15T08:36:16.263Z</time></trkpt><trkpt lat="45.8095512" lon="12.9652128"><ele>5.5</ele><time>2026-04-15T08:36:17.245Z</time></trkpt><trkpt lat="45.8094963" lon="12.9647736"><ele>6.0</ele><time>2026-04-15T08:36:18.26Z</time></trkpt><trkpt lat="45.8094405" lon="12.9643405"><ele>6.0</ele><time>2026-04-15T08:36:19.241Z</time></trkpt><trkpt lat="45.8093873" lon="12.9639042"><ele>6.0</ele><time>2026-04-15T08:36:20.247Z</time></trkpt><trkpt lat="45.8093425" lon="12.963472"><ele>5.5</ele><time>2026-04-15T08:36:21.257Z</time></trkpt><trkpt lat="45.8092965" lon="12.9630353"><ele>5.0</ele><time>2026-04-15T08:36:22.254Z</time></trkpt><trkpt lat="45.8092532" lon="12.9625988"><ele>5.0</ele><time>2026-04-15T08:36:23.246Z</time></trkpt><trkpt lat="45.8092157" lon="12.962167"><ele>5.0</ele><time>2026-04-15T08:36:24.24Z</time></trkpt><trkpt lat="45.8091807" lon="12.9617374"><ele>5.5</ele><time>2026-04-15T08:36:25.256Z</time></trkpt><trkpt lat="45.8091476" lon="12.9613024"><ele>6.0</ele><time>2026-04-15T08:36:26.247Z</time></trkpt><trkpt lat="45.8091129" lon="12.9608671"><ele>6.0</ele><time>2026-04-15T08:36:27.252Z</time></trkpt><trkpt lat="45.8090813" lon="12.9604319"><ele>6.0</ele><time>2026-04-15T08:36:28.243Z</time></trkpt><trkpt lat="45.8090457" lon="12.9599952"><ele>5.5</ele><time>2026-04-15T08:36:29.246Z</time></trkpt><trkpt lat="45.8090104" lon="12.9595556"><ele>5.0</ele><time>2026-04-15T08:36:30.259Z</time></trkpt><trkpt lat="45.808975" lon="12.9591149"><ele>4.5</ele><time>2026-04-15T08:36:31.251Z</time></trkpt><trkpt lat="45.8089363" lon="12.958671"><ele>4.0</ele><time>2026-04-15T08:36:32.254Z</time></trkpt><trkpt lat="45.8088998" lon="12.9582263"><ele>4.0</ele><time>2026-04-15T08:36:33.245Z</time></trkpt><trkpt lat="45.8088632" lon="12.9577768"><ele>4.0</ele><time>2026-04-15T08:36:34.252Z</time></trkpt><trkpt lat="45.8088268" lon="12.9573287"><ele>4.5</ele><time>2026-04-15T08:36:35.248Z</time></trkpt><trkpt lat="45.8087913" lon="12.9568825"><ele>5.0</ele><time>2026-04-15T08:36:36.231Z</time></trkpt><trkpt lat="45.8087564" lon="12.9564314"><ele>5.0</ele><time>2026-04-15T08:36:37.245Z</time></trkpt><trkpt lat="45.8087209" lon="12.9559835"><ele>5.0</ele><time>2026-04-15T08:36:38.253Z</time></trkpt><trkpt lat="45.8086882" lon="12.9555333"><ele>4.5</ele><time>2026-04-15T08:36:39.248Z</time></trkpt><trkpt lat="45.8086542" lon="12.955084"><ele>4.0</ele><time>2026-04-15T08:36:40.244Z</time></trkpt><trkpt lat="45.808582" lon="12.9541957"><ele>3.0</ele><time>2026-04-15T08:36:42.243Z</time></trkpt><trkpt lat="45.8085438" lon="12.9537518"><ele>2.0</ele><time>2026-04-15T08:36:43.236Z</time></trkpt><trkpt lat="45.8085102" lon="12.9533052"><ele>3.0</ele><time>2026-04-15T08:36:44.228Z</time></trkpt><trkpt lat="45.8084781" lon="12.9528529"><ele>4.0</ele><time>2026-04-15T08:36:45.251Z</time></trkpt><trkpt lat="45.8084457" lon="12.9524083"><ele>4.0</ele><time>2026-04-15T08:36:46.241Z</time></trkpt><trkpt lat="45.8084121" lon="12.9519553"><ele>4.0</ele><time>2026-04-15T08:36:47.238Z</time></trkpt><trkpt lat="45.8083767" lon="12.9515011"><ele>4.0</ele><time>2026-04-15T08:36:48.237Z</time></trkpt><trkpt lat="45.8083376" lon="12.9510508"><ele>4.0</ele><time>2026-04-15T08:36:49.247Z</time></trkpt><trkpt lat="45.8082989" lon="12.9506014"><ele>4.0</ele><time>2026-04-15T08:36:50.244Z</time></trkpt><trkpt lat="45.8082615" lon="12.9501524"><ele>4.0</ele><time>2026-04-15T08:36:51.243Z</time></trkpt><trkpt lat="45.8082279" lon="12.9496987"><ele>4.0</ele><time>2026-04-15T08:36:52.24Z</time></trkpt><trkpt lat="45.8081958" lon="12.9492478"><ele>4.0</ele><time>2026-04-15T08:36:53.238Z</time></trkpt><trkpt lat="45.808165" lon="12.9487967"><ele>4.0</ele><time>2026-04-15T08:36:54.25Z</time></trkpt><trkpt lat="45.8081312" lon="12.9483504"><ele>4.0</ele><time>2026-04-15T08:36:55.243Z</time></trkpt><trkpt lat="45.8080938" lon="12.9479019"><ele>4.5</ele><time>2026-04-15T08:36:56.226Z</time></trkpt><trkpt lat="45.80806" lon="12.9474522"><ele>5.0</ele><time>2026-04-15T08:36:57.236Z</time></trkpt><trkpt lat="45.8080225" lon="12.9470041"><ele>4.5</ele><time>2026-04-15T08:36:58.249Z</time></trkpt><trkpt lat="45.8079838" lon="12.9465534"><ele>4.0</ele><time>2026-04-15T08:36:59.248Z</time></trkpt><trkpt lat="45.8079472" lon="12.9461002"><ele>4.0</ele><time>2026-04-15T08:37:00.231Z</time></trkpt><trkpt lat="45.8079104" lon="12.945649"><ele>4.0</ele><time>2026-04-15T08:37:01.247Z</time></trkpt><trkpt lat="45.8078748" lon="12.9451954"><ele>3.5</ele><time>2026-04-15T08:37:02.25Z</time></trkpt><trkpt lat="45.8078402" lon="12.9447394"><ele>3.0</ele><time>2026-04-15T08:37:03.253Z</time></trkpt><trkpt lat="45.8078058" lon="12.944284"><ele>3.0</ele><time>2026-04-15T08:37:04.239Z</time></trkpt><trkpt lat="45.8077723" lon="12.9438298"><ele>3.0</ele><time>2026-04-15T08:37:05.241Z</time></trkpt><trkpt lat="45.8077374" lon="12.9433732"><ele>3.0</ele><time>2026-04-15T08:37:06.245Z</time></trkpt><trkpt lat="45.8077006" lon="12.9429186"><ele>3.0</ele><time>2026-04-15T08:37:07.241Z</time></trkpt><trkpt lat="45.8076649" lon="12.9424663"><ele>3.0</ele><time>2026-04-15T08:37:08.239Z</time></trkpt><trkpt lat="45.8076252" lon="12.9420134"><ele>3.0</ele><time>2026-04-15T08:37:09.241Z</time></trkpt><trkpt lat="45.8075911" lon="12.9415641"><ele>3.0</ele><time>2026-04-15T08:37:10.257Z</time></trkpt><trkpt lat="45.8075579" lon="12.9411162"><ele>3.0</ele><time>2026-04-15T08:37:11.257Z</time></trkpt><trkpt lat="45.8075255" lon="12.9406725"><ele>2.5</ele><time>2026-04-15T08:37:12.257Z</time></trkpt><trkpt lat="45.8074913" lon="12.940227"><ele>2.0</ele><time>2026-04-15T08:37:13.231Z</time></trkpt><trkpt lat="45.8074563" lon="12.9397823"><ele>2.0</ele><time>2026-04-15T08:37:14.239Z</time></trkpt><trkpt lat="45.807418" lon="12.9393334"><ele>2.0</ele><time>2026-04-15T08:37:15.239Z</time></trkpt><trkpt lat="45.8073826" lon="12.9388887"><ele>3.0</ele><time>2026-04-15T08:37:16.243Z</time></trkpt><trkpt lat="45.807345" lon="12.9384393"><ele>4.0</ele><time>2026-04-15T08:37:17.239Z</time></trkpt><trkpt lat="45.8073069" lon="12.9379961"><ele>4.0</ele><time>2026-04-15T08:37:18.243Z</time></trkpt><trkpt lat="45.8072701" lon="12.9375561"><ele>4.0</ele><time>2026-04-15T08:37:19.237Z</time></trkpt><trkpt lat="45.8072368" lon="12.9371122"><ele>3.0</ele><time>2026-04-15T08:37:20.237Z</time></trkpt><trkpt lat="45.807198" lon="12.9366743"><ele>2.0</ele><time>2026-04-15T08:37:21.234Z</time></trkpt><trkpt lat="45.8071622" lon="12.9362328"><ele>2.5</ele><time>2026-04-15T08:37:22.237Z</time></trkpt><trkpt lat="45.8071272" lon="12.9357912"><ele>3.0</ele><time>2026-04-15T08:37:23.24Z</time></trkpt><trkpt lat="45.8070918" lon="12.9353429"><ele>3.5</ele><time>2026-04-15T08:37:24.225Z</time></trkpt><trkpt lat="45.807058" lon="12.934895"><ele>4.0</ele><time>2026-04-15T08:37:25.249Z</time></trkpt><trkpt lat="45.8070247" lon="12.9344491"><ele>4.0</ele><time>2026-04-15T08:37:26.24Z</time></trkpt><trkpt lat="45.8069894" lon="12.9340116"><ele>4.0</ele><time>2026-04-15T08:37:27.245Z</time></trkpt><trkpt lat="45.8069535" lon="12.9335731"><ele>4.0</ele><time>2026-04-15T08:37:28.238Z</time></trkpt><trkpt lat="45.8069165" lon="12.9331346"><ele>4.0</ele><time>2026-04-15T08:37:29.237Z</time></trkpt><trkpt lat="45.8068834" lon="12.9326954"><ele>4.0</ele><time>2026-04-15T08:37:30.239Z</time></trkpt><trkpt lat="45.8068504" lon="12.9322608"><ele>4.0</ele><time>2026-04-15T08:37:31.237Z</time></trkpt><trkpt lat="45.8067872" lon="12.9313955"><ele>4.0</ele><time>2026-04-15T08:37:33.234Z</time></trkpt><trkpt lat="45.8067517" lon="12.9309632"><ele>4.0</ele><time>2026-04-15T08:37:34.24Z</time></trkpt><trkpt lat="45.8067141" lon="12.9305303"><ele>4.0</ele><time>2026-04-15T08:37:35.248Z</time></trkpt><trkpt lat="45.8066814" lon="12.9301032"><ele>4.0</ele><time>2026-04-15T08:37:36.234Z</time></trkpt><trkpt lat="45.8066493" lon="12.929674"><ele>4.0</ele><time>2026-04-15T08:37:37.247Z</time></trkpt><trkpt lat="45.8066213" lon="12.9292403"><ele>4.0</ele><time>2026-04-15T08:37:38.239Z</time></trkpt><trkpt lat="45.8065914" lon="12.9288103"><ele>4.5</ele><time>2026-04-15T08:37:39.247Z</time></trkpt><trkpt lat="45.8065609" lon="12.9283793"><ele>5.0</ele><time>2026-04-15T08:37:40.238Z</time></trkpt><trkpt lat="45.8065294" lon="12.9279475"><ele>4.5</ele><time>2026-04-15T08:37:41.242Z</time></trkpt><trkpt lat="45.8065001" lon="12.9275117"><ele>4.0</ele><time>2026-04-15T08:37:42.233Z</time></trkpt><trkpt lat="45.806471" lon="12.9270729"><ele>3.5</ele><time>2026-04-15T08:37:43.247Z</time></trkpt><trkpt lat="45.8064427" lon="12.926632"><ele>3.0</ele><time>2026-04-15T08:37:44.243Z</time></trkpt><trkpt lat="45.8064153" lon="12.9261894"><ele>3.0</ele><time>2026-04-15T08:37:45.23Z</time></trkpt><trkpt lat="45.8063862" lon="12.9257504"><ele>3.0</ele><time>2026-04-15T08:37:46.24Z</time></trkpt><trkpt lat="45.8063531" lon="12.9253201"><ele>3.0</ele><time>2026-04-15T08:37:47.237Z</time></trkpt><trkpt lat="45.806317" lon="12.9248949"><ele>3.0</ele><time>2026-04-15T08:37:48.24Z</time></trkpt><trkpt lat="45.8062808" lon="12.9244732"><ele>3.5</ele><time>2026-04-15T08:37:49.244Z</time></trkpt><trkpt lat="45.8062478" lon="12.924055"><ele>4.0</ele><time>2026-04-15T08:37:50.239Z</time></trkpt><trkpt lat="45.806213" lon="12.9236335"><ele>4.0</ele><time>2026-04-15T08:37:51.24Z</time></trkpt><trkpt lat="45.8061818" lon="12.9232119"><ele>4.0</ele><time>2026-04-15T08:37:52.24Z</time></trkpt><trkpt lat="45.8061481" lon="12.922791"><ele>5.0</ele><time>2026-04-15T08:37:53.228Z</time></trkpt><trkpt lat="45.8061125" lon="12.9223711"><ele>6.0</ele><time>2026-04-15T08:37:54.234Z</time></trkpt><trkpt lat="45.8060789" lon="12.9219548"><ele>4.5</ele><time>2026-04-15T08:37:55.243Z</time></trkpt><trkpt lat="45.8060465" lon="12.9215408"><ele>3.0</ele><time>2026-04-15T08:37:56.221Z</time></trkpt><trkpt lat="45.8060164" lon="12.9211201"><ele>5.0</ele><time>2026-04-15T08:37:57.223Z</time></trkpt><trkpt lat="45.8059842" lon="12.9206902"><ele>7.0</ele><time>2026-04-15T08:37:58.242Z</time></trkpt><trkpt lat="45.8059482" lon="12.9202525"><ele>6.5</ele><time>2026-04-15T08:37:59.232Z</time></trkpt><trkpt lat="45.8059135" lon="12.9197935"><ele>6.0</ele><time>2026-04-15T08:38:00.242Z</time></trkpt><trkpt lat="45.805874" lon="12.9193275"><ele>6.0</ele><time>2026-04-15T08:38:01.251Z</time></trkpt><trkpt lat="45.8058363" lon="12.918861"><ele>6.0</ele><time>2026-04-15T08:38:02.229Z</time></trkpt><trkpt lat="45.8058047" lon="12.918398"><ele>5.5</ele><time>2026-04-15T08:38:03.235Z</time></trkpt><trkpt lat="45.8057664" lon="12.9179431"><ele>5.0</ele><time>2026-04-15T08:38:04.225Z</time></trkpt><trkpt lat="45.8057123" lon="12.9174905"><ele>5.0</ele><time>2026-04-15T08:38:05.245Z</time></trkpt><trkpt lat="45.8056603" lon="12.9170341"><ele>5.0</ele><time>2026-04-15T08:38:06.232Z</time></trkpt><trkpt lat="45.8056148" lon="12.9165814"><ele>5.5</ele><time>2026-04-15T08:38:07.229Z</time></trkpt><trkpt lat="45.8055718" lon="12.9161289"><ele>6.0</ele><time>2026-04-15T08:38:08.223Z</time></trkpt><trkpt lat="45.8055211" lon="12.9156762"><ele>6.0</ele><time>2026-04-15T08:38:09.22Z</time></trkpt><trkpt lat="45.805477" lon="12.9152318"><ele>6.0</ele><time>2026-04-15T08:38:10.226Z</time></trkpt><trkpt lat="45.8054418" lon="12.9147891"><ele>6.0</ele><time>2026-04-15T08:38:11.233Z</time></trkpt><trkpt lat="45.8054024" lon="12.9143527"><ele>6.0</ele><time>2026-04-15T08:38:12.244Z</time></trkpt><trkpt lat="45.8053595" lon="12.9139152"><ele>5.5</ele><time>2026-04-15T08:38:13.238Z</time></trkpt><trkpt lat="45.8053263" lon="12.9134768"><ele>5.0</ele><time>2026-04-15T08:38:14.239Z</time></trkpt><trkpt lat="45.8053018" lon="12.9130449"><ele>5.0</ele><time>2026-04-15T08:38:15.246Z</time></trkpt><trkpt lat="45.8052676" lon="12.9126086"><ele>5.0</ele><time>2026-04-15T08:38:16.229Z</time></trkpt><trkpt lat="45.8052277" lon="12.9121728"><ele>5.0</ele><time>2026-04-15T08:38:17.234Z</time></trkpt><trkpt lat="45.805198" lon="12.9117414"><ele>5.0</ele><time>2026-04-15T08:38:18.233Z</time></trkpt><trkpt lat="45.8051737" lon="12.9113152"><ele>5.0</ele><time>2026-04-15T08:38:19.244Z</time></trkpt><trkpt lat="45.8051371" lon="12.9108817"><ele>5.0</ele><time>2026-04-15T08:38:20.234Z</time></trkpt><trkpt lat="45.8051071" lon="12.9104451"><ele>4.5</ele><time>2026-04-15T08:38:21.227Z</time></trkpt><trkpt lat="45.8050924" lon="12.9100136"><ele>4.0</ele><time>2026-04-15T08:38:22.231Z</time></trkpt><trkpt lat="45.8050774" lon="12.9095818"><ele>4.5</ele><time>2026-04-15T08:38:23.229Z</time></trkpt><trkpt lat="45.805052" lon="12.9091585"><ele>5.0</ele><time>2026-04-15T08:38:24.232Z</time></trkpt><trkpt lat="45.8050312" lon="12.9087351"><ele>5.0</ele><time>2026-04-15T08:38:25.228Z</time></trkpt><trkpt lat="45.8050115" lon="12.9083093"><ele>5.0</ele><time>2026-04-15T08:38:26.222Z</time></trkpt><trkpt lat="45.8049989" lon="12.9078824"><ele>5.5</ele><time>2026-04-15T08:38:27.229Z</time></trkpt><trkpt lat="45.8049866" lon="12.9074561"><ele>6.0</ele><time>2026-04-15T08:38:28.218Z</time></trkpt><trkpt lat="45.8049745" lon="12.907032"><ele>5.0</ele><time>2026-04-15T08:38:29.229Z</time></trkpt><trkpt lat="45.8049657" lon="12.9066029"><ele>4.0</ele><time>2026-04-15T08:38:30.229Z</time></trkpt><trkpt lat="45.8049594" lon="12.9061757"><ele>4.0</ele><time>2026-04-15T08:38:31.229Z</time></trkpt><trkpt lat="45.8049533" lon="12.9057477"><ele>4.0</ele><time>2026-04-15T08:38:32.219Z</time></trkpt><trkpt lat="45.8049448" lon="12.904883"><ele>4.5</ele><time>2026-04-15T08:38:34.247Z</time></trkpt><trkpt lat="45.8049422" lon="12.9044485"><ele>5.0</ele><time>2026-04-15T08:38:35.234Z</time></trkpt><trkpt lat="45.8049427" lon="12.9040189"><ele>5.0</ele><time>2026-04-15T08:38:36.226Z</time></trkpt><trkpt lat="45.8049485" lon="12.903585"><ele>5.0</ele><time>2026-04-15T08:38:37.231Z</time></trkpt><trkpt lat="45.8049538" lon="12.9031531"><ele>4.5</ele><time>2026-04-15T08:38:38.24Z</time></trkpt><trkpt lat="45.8049572" lon="12.9027225"><ele>4.0</ele><time>2026-04-15T08:38:39.232Z</time></trkpt><trkpt lat="45.8049689" lon="12.9022942"><ele>4.0</ele><time>2026-04-15T08:38:40.226Z</time></trkpt><trkpt lat="45.80498" lon="12.9018711"><ele>4.0</ele><time>2026-04-15T08:38:41.227Z</time></trkpt><trkpt lat="45.804991" lon="12.9014461"><ele>4.5</ele><time>2026-04-15T08:38:42.222Z</time></trkpt><trkpt lat="45.8050038" lon="12.9010197"><ele>5.0</ele><time>2026-04-15T08:38:43.225Z</time></trkpt><trkpt lat="45.8050176" lon="12.9005937"><ele>5.0</ele><time>2026-04-15T08:38:44.222Z</time></trkpt><trkpt lat="45.8050328" lon="12.9001675"><ele>5.0</ele><time>2026-04-15T08:38:45.224Z</time></trkpt><trkpt lat="45.8050481" lon="12.8997428"><ele>5.5</ele><time>2026-04-15T08:38:46.228Z</time></trkpt><trkpt lat="45.8050654" lon="12.8993161"><ele>6.0</ele><time>2026-04-15T08:38:47.226Z</time></trkpt><trkpt lat="45.8050827" lon="12.8988899"><ele>6.0</ele><time>2026-04-15T08:38:48.229Z</time></trkpt><trkpt lat="45.805103" lon="12.8984694"><ele>6.0</ele><time>2026-04-15T08:38:49.225Z</time></trkpt><trkpt lat="45.8051258" lon="12.8980488"><ele>5.5</ele><time>2026-04-15T08:38:50.228Z</time></trkpt><trkpt lat="45.8051442" lon="12.8976227"><ele>5.0</ele><time>2026-04-15T08:38:51.226Z</time></trkpt><trkpt lat="45.8051595" lon="12.8971957"><ele>4.5</ele><time>2026-04-15T08:38:52.218Z</time></trkpt><trkpt lat="45.8051717" lon="12.8967675"><ele>4.0</ele><time>2026-04-15T08:38:53.211Z</time></trkpt><trkpt lat="45.8051772" lon="12.8963376"><ele>4.5</ele><time>2026-04-15T08:38:54.234Z</time></trkpt><trkpt lat="45.8051829" lon="12.8959043"><ele>5.0</ele><time>2026-04-15T08:38:55.229Z</time></trkpt><trkpt lat="45.8051921" lon="12.895473"><ele>5.0</ele><time>2026-04-15T08:38:56.223Z</time></trkpt><trkpt lat="45.8051985" lon="12.8950384"><ele>5.0</ele><time>2026-04-15T08:38:57.223Z</time></trkpt><trkpt lat="45.8052024" lon="12.894607"><ele>5.0</ele><time>2026-04-15T08:38:58.223Z</time></trkpt><trkpt lat="45.8052026" lon="12.8941731"><ele>5.0</ele><time>2026-04-15T08:38:59.241Z</time></trkpt><trkpt lat="45.8052012" lon="12.893738"><ele>5.0</ele><time>2026-04-15T08:39:00.232Z</time></trkpt><trkpt lat="45.8051978" lon="12.8933051"><ele>5.0</ele><time>2026-04-15T08:39:01.225Z</time></trkpt><trkpt lat="45.8051908" lon="12.8928705"><ele>6.0</ele><time>2026-04-15T08:39:02.229Z</time></trkpt><trkpt lat="45.8051809" lon="12.8924389"><ele>7.0</ele><time>2026-04-15T08:39:03.227Z</time></trkpt><trkpt lat="45.8051702" lon="12.892004"><ele>7.5</ele><time>2026-04-15T08:39:04.224Z</time></trkpt><trkpt lat="45.8051616" lon="12.8915722"><ele>8.0</ele><time>2026-04-15T08:39:05.225Z</time></trkpt><trkpt lat="45.8051492" lon="12.8911335"><ele>7.0</ele><time>2026-04-15T08:39:06.225Z</time></trkpt><trkpt lat="45.8051308" lon="12.8906987"><ele>6.0</ele><time>2026-04-15T08:39:07.22Z</time></trkpt><trkpt lat="45.8051121" lon="12.8902595"><ele>5.0</ele><time>2026-04-15T08:39:08.222Z</time></trkpt><trkpt lat="45.8050904" lon="12.8898112"><ele>4.0</ele><time>2026-04-15T08:39:09.228Z</time></trkpt><trkpt lat="45.805067" lon="12.8893661"><ele>5.5</ele><time>2026-04-15T08:39:10.217Z</time></trkpt><trkpt lat="45.8050385" lon="12.8889207"><ele>7.0</ele><time>2026-04-15T08:39:11.215Z</time></trkpt><trkpt lat="45.8050108" lon="12.8884741"><ele>7.0</ele><time>2026-04-15T08:39:12.239Z</time></trkpt><trkpt lat="45.8049813" lon="12.8880293"><ele>7.0</ele><time>2026-04-15T08:39:13.228Z</time></trkpt><trkpt lat="45.8049528" lon="12.8875795"><ele>7.0</ele><time>2026-04-15T08:39:14.216Z</time></trkpt><trkpt lat="45.8049188" lon="12.887134"><ele>7.0</ele><time>2026-04-15T08:39:15.219Z</time></trkpt><trkpt lat="45.8048834" lon="12.8866886"><ele>7.5</ele><time>2026-04-15T08:39:16.22Z</time></trkpt><trkpt lat="45.8048432" lon="12.8862416"><ele>8.0</ele><time>2026-04-15T08:39:17.229Z</time></trkpt><trkpt lat="45.8048002" lon="12.8858029"><ele>7.0</ele><time>2026-04-15T08:39:18.228Z</time></trkpt><trkpt lat="45.8047561" lon="12.885362"><ele>6.0</ele><time>2026-04-15T08:39:19.222Z</time></trkpt><trkpt lat="45.8047135" lon="12.884919"><ele>6.0</ele><time>2026-04-15T08:39:20.23Z</time></trkpt><trkpt lat="45.804667" lon="12.8844752"><ele>6.0</ele><time>2026-04-15T08:39:21.221Z</time></trkpt><trkpt lat="45.8046178" lon="12.8840323"><ele>7.5</ele><time>2026-04-15T08:39:22.226Z</time></trkpt><trkpt lat="45.8045636" lon="12.8835848"><ele>9.0</ele><time>2026-04-15T08:39:23.224Z</time></trkpt><trkpt lat="45.8045093" lon="12.8831381"><ele>9.0</ele><time>2026-04-15T08:39:24.316Z</time></trkpt><trkpt lat="45.8044547" lon="12.8826914"><ele>9.0</ele><time>2026-04-15T08:39:25.232Z</time></trkpt><trkpt lat="45.804401" lon="12.8822451"><ele>9.0</ele><time>2026-04-15T08:39:26.221Z</time></trkpt><trkpt lat="45.8043434" lon="12.881798"><ele>9.0</ele><time>2026-04-15T08:39:27.219Z</time></trkpt><trkpt lat="45.8042842" lon="12.8813575"><ele>7.5</ele><time>2026-04-15T08:39:28.234Z</time></trkpt><trkpt lat="45.8042218" lon="12.8809184"><ele>6.0</ele><time>2026-04-15T08:39:29.312Z</time></trkpt><trkpt lat="45.8041543" lon="12.8804786"><ele>6.0</ele><time>2026-04-15T08:39:30.232Z</time></trkpt><trkpt lat="45.8040827" lon="12.8800425"><ele>6.0</ele><time>2026-04-15T08:39:31.315Z</time></trkpt><trkpt lat="45.8040126" lon="12.8796075"><ele>5.5</ele><time>2026-04-15T08:39:32.243Z</time></trkpt><trkpt lat="45.8039414" lon="12.8791723"><ele>5.0</ele><time>2026-04-15T08:39:33.218Z</time></trkpt><trkpt lat="45.8038692" lon="12.8787397"><ele>5.5</ele><time>2026-04-15T08:39:34.233Z</time></trkpt><trkpt lat="45.8037888" lon="12.8783059"><ele>6.0</ele><time>2026-04-15T08:39:35.322Z</time></trkpt><trkpt lat="45.8037055" lon="12.8778724"><ele>6.5</ele><time>2026-04-15T08:39:36.316Z</time></trkpt><trkpt lat="45.8036244" lon="12.8774379"><ele>7.0</ele><time>2026-04-15T08:39:37.309Z</time></trkpt><trkpt lat="45.803545" lon="12.8770025"><ele>6.5</ele><time>2026-04-15T08:39:38.309Z</time></trkpt><trkpt lat="45.8034675" lon="12.8765706"><ele>6.0</ele><time>2026-04-15T08:39:39.224Z</time></trkpt><trkpt lat="45.8033772" lon="12.8761338"><ele>5.5</ele><time>2026-04-15T08:39:40.22Z</time></trkpt><trkpt lat="45.8032835" lon="12.8756919"><ele>5.0</ele><time>2026-04-15T08:39:41.232Z</time></trkpt><trkpt lat="45.8031966" lon="12.8752485"><ele>5.0</ele><time>2026-04-15T08:39:42.348Z</time></trkpt><trkpt lat="45.8031131" lon="12.8748002"><ele>5.0</ele><time>2026-04-15T08:39:43.312Z</time></trkpt><trkpt lat="45.8030334" lon="12.8743505"><ele>6.0</ele><time>2026-04-15T08:39:44.333Z</time></trkpt><trkpt lat="45.8029515" lon="12.8739031"><ele>7.0</ele><time>2026-04-15T08:39:45.307Z</time></trkpt><trkpt lat="45.8028694" lon="12.8734529"><ele>7.0</ele><time>2026-04-15T08:39:46.219Z</time></trkpt><trkpt lat="45.8027876" lon="12.8730042"><ele>7.0</ele><time>2026-04-15T08:39:47.217Z</time></trkpt><trkpt lat="45.8027044" lon="12.8725595"><ele>7.0</ele><time>2026-04-15T08:39:48.319Z</time></trkpt><trkpt lat="45.8026215" lon="12.872115"><ele>7.0</ele><time>2026-04-15T08:39:49.308Z</time></trkpt><trkpt lat="45.8025393" lon="12.8716695"><ele>7.0</ele><time>2026-04-15T08:39:50.309Z</time></trkpt><trkpt lat="45.8024598" lon="12.8712263"><ele>7.0</ele><time>2026-04-15T08:39:51.31Z</time></trkpt><trkpt lat="45.8023798" lon="12.8707821"><ele>7.0</ele><time>2026-04-15T08:39:52.31Z</time></trkpt><trkpt lat="45.8023037" lon="12.8703391"><ele>7.0</ele><time>2026-04-15T08:39:53.223Z</time></trkpt><trkpt lat="45.8022245" lon="12.8699003"><ele>7.0</ele><time>2026-04-15T08:39:54.315Z</time></trkpt><trkpt lat="45.8021497" lon="12.8694637"><ele>7.0</ele><time>2026-04-15T08:39:55.323Z</time></trkpt><trkpt lat="45.8020117" lon="12.8685876"><ele>7.5</ele><time>2026-04-15T08:39:57.312Z</time></trkpt><trkpt lat="45.8019438" lon="12.8681511"><ele>8.0</ele><time>2026-04-15T08:39:58.311Z</time></trkpt><trkpt lat="45.8016993" lon="12.8668644"><ele>6.5</ele><time>2026-04-15T08:40:01.316Z</time></trkpt><trkpt lat="45.8016225" lon="12.8664412"><ele>5.0</ele><time>2026-04-15T08:40:02.317Z</time></trkpt><trkpt lat="45.8015456" lon="12.8660153"><ele>5.0</ele><time>2026-04-15T08:40:03.308Z</time></trkpt><trkpt lat="45.8014693" lon="12.8655892"><ele>5.0</ele><time>2026-04-15T08:40:04.322Z</time></trkpt><trkpt lat="45.8013879" lon="12.8651559"><ele>6.0</ele><time>2026-04-15T08:40:05.328Z</time></trkpt><trkpt lat="45.801308" lon="12.8647227"><ele>7.0</ele><time>2026-04-15T08:40:06.315Z</time></trkpt><trkpt lat="45.8012287" lon="12.8642902"><ele>7.0</ele><time>2026-04-15T08:40:07.318Z</time></trkpt><trkpt lat="45.8010754" lon="12.8634278"><ele>5.5</ele><time>2026-04-15T08:40:09.308Z</time></trkpt><trkpt lat="45.800997" lon="12.8629996"><ele>4.0</ele><time>2026-04-15T08:40:10.311Z</time></trkpt><trkpt lat="45.8009163" lon="12.8625739"><ele>4.0</ele><time>2026-04-15T08:40:11.303Z</time></trkpt><trkpt lat="45.8008342" lon="12.8621501"><ele>4.0</ele><time>2026-04-15T08:40:12.314Z</time></trkpt><trkpt lat="45.8007529" lon="12.8617297"><ele>4.5</ele><time>2026-04-15T08:40:13.31Z</time></trkpt><trkpt lat="45.8006729" lon="12.8613049"><ele>5.0</ele><time>2026-04-15T08:40:14.309Z</time></trkpt><trkpt lat="45.8005932" lon="12.8608791"><ele>5.0</ele><time>2026-04-15T08:40:15.312Z</time></trkpt><trkpt lat="45.8005134" lon="12.8604552"><ele>5.0</ele><time>2026-04-15T08:40:16.312Z</time></trkpt><trkpt lat="45.8004342" lon="12.8600276"><ele>5.0</ele><time>2026-04-15T08:40:17.301Z</time></trkpt><trkpt lat="45.8003581" lon="12.8595976"><ele>5.0</ele><time>2026-04-15T08:40:18.304Z</time></trkpt><trkpt lat="45.8002811" lon="12.8591684"><ele>5.0</ele><time>2026-04-15T08:40:19.308Z</time></trkpt><trkpt lat="45.8001983" lon="12.858742"><ele>5.0</ele><time>2026-04-15T08:40:20.316Z</time></trkpt><trkpt lat="45.8001169" lon="12.8583144"><ele>5.0</ele><time>2026-04-15T08:40:21.313Z</time></trkpt><trkpt lat="45.8000383" lon="12.8578782"><ele>5.0</ele><time>2026-04-15T08:40:22.303Z</time></trkpt><trkpt lat="45.7999587" lon="12.8574443"><ele>5.0</ele><time>2026-04-15T08:40:23.313Z</time></trkpt><trkpt lat="45.7998836" lon="12.8570111"><ele>5.0</ele><time>2026-04-15T08:40:24.322Z</time></trkpt><trkpt lat="45.7998059" lon="12.8565761"><ele>5.0</ele><time>2026-04-15T08:40:25.313Z</time></trkpt><trkpt lat="45.7997297" lon="12.8561385"><ele>5.0</ele><time>2026-04-15T08:40:26.303Z</time></trkpt><trkpt lat="45.7996497" lon="12.8557053"><ele>5.0</ele><time>2026-04-15T08:40:27.313Z</time></trkpt><trkpt lat="45.7995648" lon="12.8552715"><ele>5.0</ele><time>2026-04-15T08:40:28.302Z</time></trkpt><trkpt lat="45.7994741" lon="12.8548383"><ele>4.5</ele><time>2026-04-15T08:40:29.322Z</time></trkpt><trkpt lat="45.7993904" lon="12.8544068"><ele>4.0</ele><time>2026-04-15T08:40:30.315Z</time></trkpt><trkpt lat="45.7993101" lon="12.8539689"><ele>5.0</ele><time>2026-04-15T08:40:31.301Z</time></trkpt><trkpt lat="45.7992325" lon="12.8535342"><ele>6.0</ele><time>2026-04-15T08:40:32.31Z</time></trkpt><trkpt lat="45.7991495" lon="12.8531008"><ele>6.5</ele><time>2026-04-15T08:40:33.3Z</time></trkpt><trkpt lat="45.7990686" lon="12.8526617"><ele>7.0</ele><time>2026-04-15T08:40:34.314Z</time></trkpt><trkpt lat="45.7989899" lon="12.8522185"><ele>6.5</ele><time>2026-04-15T08:40:35.303Z</time></trkpt><trkpt lat="45.7989111" lon="12.8517773"><ele>6.0</ele><time>2026-04-15T08:40:36.301Z</time></trkpt><trkpt lat="45.7988353" lon="12.8513408"><ele>6.0</ele><time>2026-04-15T08:40:37.3Z</time></trkpt><trkpt lat="45.7987528" lon="12.8508998"><ele>6.0</ele><time>2026-04-15T08:40:38.302Z</time></trkpt><trkpt lat="45.7986647" lon="12.8504662"><ele>5.5</ele><time>2026-04-15T08:40:39.328Z</time></trkpt><trkpt lat="45.7985764" lon="12.8500248"><ele>5.0</ele><time>2026-04-15T08:40:40.328Z</time></trkpt><trkpt lat="45.7984929" lon="12.849585"><ele>5.5</ele><time>2026-04-15T08:40:41.327Z</time></trkpt><trkpt lat="45.7984079" lon="12.8491411"><ele>6.0</ele><time>2026-04-15T08:40:42.314Z</time></trkpt><trkpt lat="45.7983267" lon="12.8486993"><ele>6.0</ele><time>2026-04-15T08:40:43.297Z</time></trkpt><trkpt lat="45.7982475" lon="12.8482546"><ele>6.0</ele><time>2026-04-15T08:40:44.312Z</time></trkpt><trkpt lat="45.7981709" lon="12.8478047"><ele>5.5</ele><time>2026-04-15T08:40:45.309Z</time></trkpt><trkpt lat="45.7980921" lon="12.8473542"><ele>5.0</ele><time>2026-04-15T08:40:46.304Z</time></trkpt><trkpt lat="45.7979281" lon="12.8464635"><ele>4.5</ele><time>2026-04-15T08:40:48.3Z</time></trkpt><trkpt lat="45.7978474" lon="12.8460212"><ele>4.0</ele><time>2026-04-15T08:40:49.327Z</time></trkpt><trkpt lat="45.7977713" lon="12.8455825"><ele>3.5</ele><time>2026-04-15T08:40:50.297Z</time></trkpt><trkpt lat="45.7976986" lon="12.8451472"><ele>3.0</ele><time>2026-04-15T08:40:51.307Z</time></trkpt><trkpt lat="45.797623" lon="12.8447162"><ele>3.5</ele><time>2026-04-15T08:40:52.312Z</time></trkpt><trkpt lat="45.7975414" lon="12.844288"><ele>4.0</ele><time>2026-04-15T08:40:53.307Z</time></trkpt><trkpt lat="45.7974602" lon="12.8438583"><ele>4.0</ele><time>2026-04-15T08:40:54.303Z</time></trkpt><trkpt lat="45.7973774" lon="12.8434275"><ele>4.0</ele><time>2026-04-15T08:40:55.299Z</time></trkpt><trkpt lat="45.7972885" lon="12.8429981"><ele>3.0</ele><time>2026-04-15T08:40:56.3Z</time></trkpt><trkpt lat="45.7971988" lon="12.842567"><ele>2.0</ele><time>2026-04-15T08:40:57.314Z</time></trkpt><trkpt lat="45.7971076" lon="12.8421385"><ele>3.0</ele><time>2026-04-15T08:40:58.302Z</time></trkpt><trkpt lat="45.7970154" lon="12.8417062"><ele>4.0</ele><time>2026-04-15T08:40:59.3Z</time></trkpt><trkpt lat="45.7969215" lon="12.8412746"><ele>4.0</ele><time>2026-04-15T08:41:00.31Z</time></trkpt><trkpt lat="45.7968221" lon="12.8408359"><ele>4.0</ele><time>2026-04-15T08:41:01.308Z</time></trkpt><trkpt lat="45.7967151" lon="12.8403989"><ele>4.0</ele><time>2026-04-15T08:41:02.306Z</time></trkpt><trkpt lat="45.7966101" lon="12.8399587"><ele>4.0</ele><time>2026-04-15T08:41:03.296Z</time></trkpt><trkpt lat="45.7965052" lon="12.8395177"><ele>3.5</ele><time>2026-04-15T08:41:04.305Z</time></trkpt><trkpt lat="45.7964005" lon="12.8390811"><ele>3.0</ele><time>2026-04-15T08:41:05.326Z</time></trkpt><trkpt lat="45.7962908" lon="12.8386514"><ele>2.5</ele><time>2026-04-15T08:41:06.302Z</time></trkpt><trkpt lat="45.7961826" lon="12.8382282"><ele>2.0</ele><time>2026-04-15T08:41:07.319Z</time></trkpt><trkpt lat="45.7960705" lon="12.8378062"><ele>1.5</ele><time>2026-04-15T08:41:08.317Z</time></trkpt><trkpt lat="45.7959606" lon="12.8373882"><ele>1.0</ele><time>2026-04-15T08:41:09.358Z</time></trkpt><trkpt lat="45.7958496" lon="12.83697"><ele>1.5</ele><time>2026-04-15T08:41:10.302Z</time></trkpt><trkpt lat="45.7957353" lon="12.8365486"><ele>2.0</ele><time>2026-04-15T08:41:11.318Z</time></trkpt><trkpt lat="45.7956164" lon="12.8361355"><ele>1.5</ele><time>2026-04-15T08:41:12.315Z</time></trkpt><trkpt lat="45.7955016" lon="12.8357245"><ele>1.0</ele><time>2026-04-15T08:41:13.322Z</time></trkpt><trkpt lat="45.7953781" lon="12.8353079"><ele>0.5</ele><time>2026-04-15T08:41:14.316Z</time></trkpt><trkpt lat="45.7952555" lon="12.8348932"><ele>0.0</ele><time>2026-04-15T08:41:15.31Z</time></trkpt><trkpt lat="45.7951301" lon="12.834484"><ele>0.0</ele><time>2026-04-15T08:41:16.304Z</time></trkpt><trkpt lat="45.7950033" lon="12.8340757"><ele>0.0</ele><time>2026-04-15T08:41:17.322Z</time></trkpt><trkpt lat="45.7948723" lon="12.8336747"><ele>1.0</ele><time>2026-04-15T08:41:18.315Z</time></trkpt><trkpt lat="45.7947408" lon="12.833276"><ele>2.0</ele><time>2026-04-15T08:41:19.322Z</time></trkpt><trkpt lat="45.7946084" lon="12.8328744"><ele>3.5</ele><time>2026-04-15T08:41:20.321Z</time></trkpt><trkpt lat="45.7944779" lon="12.8324674"><ele>5.0</ele><time>2026-04-15T08:41:21.307Z</time></trkpt><trkpt lat="45.7943495" lon="12.8320603"><ele>4.5</ele><time>2026-04-15T08:41:22.317Z</time></trkpt><trkpt lat="45.7942222" lon="12.8316515"><ele>4.0</ele><time>2026-04-15T08:41:23.297Z</time></trkpt><trkpt lat="45.794093" lon="12.8312411"><ele>4.0</ele><time>2026-04-15T08:41:24.301Z</time></trkpt><trkpt lat="45.7939599" lon="12.8308243"><ele>4.0</ele><time>2026-04-15T08:41:25.315Z</time></trkpt><trkpt lat="45.7938269" lon="12.8304026"><ele>4.5</ele><time>2026-04-15T08:41:26.297Z</time></trkpt><trkpt lat="45.7936933" lon="12.829986"><ele>5.0</ele><time>2026-04-15T08:41:27.297Z</time></trkpt><trkpt lat="45.7935591" lon="12.8295695"><ele>5.5</ele><time>2026-04-15T08:41:28.296Z</time></trkpt><trkpt lat="45.7934251" lon="12.8291541"><ele>6.0</ele><time>2026-04-15T08:41:29.384Z</time></trkpt><trkpt lat="45.7932921" lon="12.8287393"><ele>6.5</ele><time>2026-04-15T08:41:30.311Z</time></trkpt><trkpt lat="45.7931587" lon="12.8283284"><ele>7.0</ele><time>2026-04-15T08:41:31.3Z</time></trkpt><trkpt lat="45.793028" lon="12.827929"><ele>7.0</ele><time>2026-04-15T08:41:32.302Z</time></trkpt><trkpt lat="45.7928995" lon="12.8275237"><ele>7.0</ele><time>2026-04-15T08:41:33.306Z</time></trkpt><trkpt lat="45.7927743" lon="12.8271209"><ele>6.0</ele><time>2026-04-15T08:41:34.305Z</time></trkpt><trkpt lat="45.7926491" lon="12.826718"><ele>5.0</ele><time>2026-04-15T08:41:35.288Z</time></trkpt><trkpt lat="45.792522" lon="12.8263228"><ele>4.5</ele><time>2026-04-15T08:41:36.31Z</time></trkpt><trkpt lat="45.7923906" lon="12.8259223"><ele>4.0</ele><time>2026-04-15T08:41:37.296Z</time></trkpt><trkpt lat="45.7922611" lon="12.8255122"><ele>4.5</ele><time>2026-04-15T08:41:38.306Z</time></trkpt><trkpt lat="45.7921336" lon="12.8250937"><ele>5.0</ele><time>2026-04-15T08:41:39.297Z</time></trkpt><trkpt lat="45.7920027" lon="12.8246696"><ele>6.5</ele><time>2026-04-15T08:41:40.295Z</time></trkpt><trkpt lat="45.791872" lon="12.8242267"><ele>8.0</ele><time>2026-04-15T08:41:41.291Z</time></trkpt><trkpt lat="45.7917395" lon="12.8237674"><ele>7.5</ele><time>2026-04-15T08:41:42.298Z</time></trkpt><trkpt lat="45.7916107" lon="12.8233008"><ele>7.0</ele><time>2026-04-15T08:41:43.292Z</time></trkpt><trkpt lat="45.7914866" lon="12.8228399"><ele>8.0</ele><time>2026-04-15T08:41:44.294Z</time></trkpt><trkpt lat="45.7913637" lon="12.8223857"><ele>9.0</ele><time>2026-04-15T08:41:45.306Z</time></trkpt><trkpt lat="45.7912438" lon="12.8219337"><ele>10.5</ele><time>2026-04-15T08:41:46.298Z</time></trkpt><trkpt lat="45.7911256" lon="12.8214941"><ele>12.0</ele><time>2026-04-15T08:41:47.285Z</time></trkpt><trkpt lat="45.7910129" lon="12.8210542"><ele>10.0</ele><time>2026-04-15T08:41:48.298Z</time></trkpt><trkpt lat="45.7909047" lon="12.8206184"><ele>8.0</ele><time>2026-04-15T08:41:49.302Z</time></trkpt><trkpt lat="45.7906947" lon="12.8197515"><ele>6.5</ele><time>2026-04-15T08:41:51.301Z</time></trkpt><trkpt lat="45.7905914" lon="12.8193218"><ele>5.0</ele><time>2026-04-15T08:41:52.302Z</time></trkpt><trkpt lat="45.7904913" lon="12.8188943"><ele>7.0</ele><time>2026-04-15T08:41:53.311Z</time></trkpt><trkpt lat="45.7903914" lon="12.8184651"><ele>9.0</ele><time>2026-04-15T08:41:54.301Z</time></trkpt><trkpt lat="45.7902959" lon="12.8180362"><ele>9.5</ele><time>2026-04-15T08:41:55.304Z</time></trkpt><trkpt lat="45.7902053" lon="12.8176038"><ele>10.0</ele><time>2026-04-15T08:41:56.301Z</time></trkpt><trkpt lat="45.7901199" lon="12.8171685"><ele>8.0</ele><time>2026-04-15T08:41:57.308Z</time></trkpt><trkpt lat="45.7900414" lon="12.8167339"><ele>6.0</ele><time>2026-04-15T08:41:58.305Z</time></trkpt><trkpt lat="45.7899637" lon="12.8163025"><ele>6.0</ele><time>2026-04-15T08:41:59.309Z</time></trkpt><trkpt lat="45.7898894" lon="12.8158706"><ele>6.0</ele><time>2026-04-15T08:42:00.294Z</time></trkpt><trkpt lat="45.7898141" lon="12.8154357"><ele>5.5</ele><time>2026-04-15T08:42:01.311Z</time></trkpt><trkpt lat="45.7897386" lon="12.8150057"><ele>5.0</ele><time>2026-04-15T08:42:02.302Z</time></trkpt><trkpt lat="45.7896645" lon="12.8145754"><ele>5.0</ele><time>2026-04-15T08:42:03.306Z</time></trkpt><trkpt lat="45.7895923" lon="12.8141438"><ele>5.0</ele><time>2026-04-15T08:42:04.305Z</time></trkpt><trkpt lat="45.7895267" lon="12.8137147"><ele>5.0</ele><time>2026-04-15T08:42:05.308Z</time></trkpt><trkpt lat="45.7894572" lon="12.8132855"><ele>5.0</ele><time>2026-04-15T08:42:06.298Z</time></trkpt><trkpt lat="45.7893935" lon="12.8128565"><ele>4.5</ele><time>2026-04-15T08:42:07.3Z</time></trkpt><trkpt lat="45.7893315" lon="12.8124242"><ele>4.0</ele><time>2026-04-15T08:42:08.298Z</time></trkpt><trkpt lat="45.7892728" lon="12.8119955"><ele>2.5</ele><time>2026-04-15T08:42:09.299Z</time></trkpt><trkpt lat="45.7892155" lon="12.8115664"><ele>1.0</ele><time>2026-04-15T08:42:10.307Z</time></trkpt><trkpt lat="45.7890961" lon="12.8107087"><ele>0.0</ele><time>2026-04-15T08:42:12.295Z</time></trkpt><trkpt lat="45.7890403" lon="12.810282"><ele>-1.0</ele><time>2026-04-15T08:42:13.317Z</time></trkpt><trkpt lat="45.7889844" lon="12.8098602"><ele>-1.0</ele><time>2026-04-15T08:42:14.305Z</time></trkpt><trkpt lat="45.7889329" lon="12.8094369"><ele>-1.0</ele><time>2026-04-15T08:42:15.284Z</time></trkpt><trkpt lat="45.7888826" lon="12.809013"><ele>-0.5</ele><time>2026-04-15T08:42:16.294Z</time></trkpt><trkpt lat="45.7888306" lon="12.8085899"><ele>0.0</ele><time>2026-04-15T08:42:17.291Z</time></trkpt><trkpt lat="45.7887757" lon="12.8081618"><ele>-1.0</ele><time>2026-04-15T08:42:18.304Z</time></trkpt><trkpt lat="45.7887256" lon="12.8077314"><ele>-2.0</ele><time>2026-04-15T08:42:19.288Z</time></trkpt><trkpt lat="45.7886747" lon="12.807302"><ele>-2.0</ele><time>2026-04-15T08:42:20.29Z</time></trkpt><trkpt lat="45.7886227" lon="12.8068709"><ele>-2.0</ele><time>2026-04-15T08:42:21.299Z</time></trkpt><trkpt lat="45.788571" lon="12.8064392"><ele>-1.0</ele><time>2026-04-15T08:42:22.294Z</time></trkpt><trkpt lat="45.7885135" lon="12.8060106"><ele>0.0</ele><time>2026-04-15T08:42:23.304Z</time></trkpt><trkpt lat="45.7884596" lon="12.8055826"><ele>0.5</ele><time>2026-04-15T08:42:24.314Z</time></trkpt><trkpt lat="45.7884053" lon="12.8051554"><ele>1.0</ele><time>2026-04-15T08:42:25.304Z</time></trkpt><trkpt lat="45.7883533" lon="12.80473"><ele>-0.5</ele><time>2026-04-15T08:42:26.314Z</time></trkpt><trkpt lat="45.7882983" lon="12.8043037"><ele>-2.0</ele><time>2026-04-15T08:42:27.284Z</time></trkpt><trkpt lat="45.7882369" lon="12.8038829"><ele>-1.5</ele><time>2026-04-15T08:42:28.302Z</time></trkpt><trkpt lat="45.7881773" lon="12.80346"><ele>-1.0</ele><time>2026-04-15T08:42:29.291Z</time></trkpt><trkpt lat="45.7881145" lon="12.8030355"><ele>0.0</ele><time>2026-04-15T08:42:30.298Z</time></trkpt><trkpt lat="45.7880494" lon="12.8026116"><ele>1.0</ele><time>2026-04-15T08:42:31.292Z</time></trkpt><trkpt lat="45.7879805" lon="12.8021882"><ele>1.5</ele><time>2026-04-15T08:42:32.301Z</time></trkpt><trkpt lat="45.7879079" lon="12.8017604"><ele>2.0</ele><time>2026-04-15T08:42:33.281Z</time></trkpt><trkpt lat="45.7878308" lon="12.8013342"><ele>2.0</ele><time>2026-04-15T08:42:34.305Z</time></trkpt><trkpt lat="45.7877506" lon="12.8009024"><ele>2.0</ele><time>2026-04-15T08:42:35.298Z</time></trkpt><trkpt lat="45.7876678" lon="12.8004678"><ele>2.5</ele><time>2026-04-15T08:42:36.3Z</time></trkpt><trkpt lat="45.7875858" lon="12.8000301"><ele>3.0</ele><time>2026-04-15T08:42:37.301Z</time></trkpt><trkpt lat="45.7875039" lon="12.7995888"><ele>3.0</ele><time>2026-04-15T08:42:38.3Z</time></trkpt><trkpt lat="45.7874192" lon="12.799141"><ele>3.0</ele><time>2026-04-15T08:42:39.294Z</time></trkpt><trkpt lat="45.7873331" lon="12.798693"><ele>2.5</ele><time>2026-04-15T08:42:40.299Z</time></trkpt><trkpt lat="45.787247" lon="12.7982446"><ele>2.0</ele><time>2026-04-15T08:42:41.29Z</time></trkpt><trkpt lat="45.7871535" lon="12.7978002"><ele>2.0</ele><time>2026-04-15T08:42:42.299Z</time></trkpt><trkpt lat="45.7870668" lon="12.7973571"><ele>2.0</ele><time>2026-04-15T08:42:43.285Z</time></trkpt><trkpt lat="45.7869743" lon="12.7969115"><ele>2.5</ele><time>2026-04-15T08:42:44.304Z</time></trkpt><trkpt lat="45.7868789" lon="12.7964694"><ele>3.0</ele><time>2026-04-15T08:42:45.304Z</time></trkpt><trkpt lat="45.7867818" lon="12.7960287"><ele>4.0</ele><time>2026-04-15T08:42:46.295Z</time></trkpt><trkpt lat="45.7866829" lon="12.7955903"><ele>5.0</ele><time>2026-04-15T08:42:47.296Z</time></trkpt><trkpt lat="45.7865813" lon="12.7951518"><ele>5.0</ele><time>2026-04-15T08:42:48.298Z</time></trkpt><trkpt lat="45.7864786" lon="12.7947137"><ele>5.0</ele><time>2026-04-15T08:42:49.294Z</time></trkpt><trkpt lat="45.786374" lon="12.7942794"><ele>5.0</ele><time>2026-04-15T08:42:50.291Z</time></trkpt><trkpt lat="45.7862672" lon="12.7938437"><ele>5.0</ele><time>2026-04-15T08:42:51.3Z</time></trkpt><trkpt lat="45.7861659" lon="12.7934135"><ele>5.0</ele><time>2026-04-15T08:42:52.293Z</time></trkpt><trkpt lat="45.7860601" lon="12.7929844"><ele>5.0</ele><time>2026-04-15T08:42:53.299Z</time></trkpt><trkpt lat="45.7859483" lon="12.7925576"><ele>5.5</ele><time>2026-04-15T08:42:54.301Z</time></trkpt><trkpt lat="45.785839" lon="12.7921318"><ele>6.0</ele><time>2026-04-15T08:42:55.28Z</time></trkpt><trkpt lat="45.7857256" lon="12.7917081"><ele>5.5</ele><time>2026-04-15T08:42:56.309Z</time></trkpt><trkpt lat="45.7856128" lon="12.7912856"><ele>5.0</ele><time>2026-04-15T08:42:57.308Z</time></trkpt><trkpt lat="45.7854969" lon="12.7908644"><ele>5.0</ele><time>2026-04-15T08:42:58.301Z</time></trkpt><trkpt lat="45.7853791" lon="12.7904449"><ele>5.0</ele><time>2026-04-15T08:42:59.283Z</time></trkpt><trkpt lat="45.7852583" lon="12.7900222"><ele>5.0</ele><time>2026-04-15T08:43:00.283Z</time></trkpt><trkpt lat="45.7851353" lon="12.7895964"><ele>5.0</ele><time>2026-04-15T08:43:01.3Z</time></trkpt><trkpt lat="45.7850092" lon="12.789177"><ele>5.0</ele><time>2026-04-15T08:43:02.309Z</time></trkpt><trkpt lat="45.7848841" lon="12.7887504"><ele>5.0</ele><time>2026-04-15T08:43:03.281Z</time></trkpt><trkpt lat="45.7847539" lon="12.7883312"><ele>4.5</ele><time>2026-04-15T08:43:04.296Z</time></trkpt><trkpt lat="45.7846275" lon="12.7879088"><ele>4.0</ele><time>2026-04-15T08:43:05.293Z</time></trkpt><trkpt lat="45.784502" lon="12.7874935"><ele>4.5</ele><time>2026-04-15T08:43:06.286Z</time></trkpt><trkpt lat="45.7843748" lon="12.7870747"><ele>5.0</ele><time>2026-04-15T08:43:07.274Z</time></trkpt><trkpt lat="45.7842406" lon="12.7866575"><ele>5.0</ele><time>2026-04-15T08:43:08.283Z</time></trkpt><trkpt lat="45.7841049" lon="12.7862443"><ele>5.0</ele><time>2026-04-15T08:43:09.288Z</time></trkpt><trkpt lat="45.7839657" lon="12.7858299"><ele>5.0</ele><time>2026-04-15T08:43:10.297Z</time></trkpt><trkpt lat="45.7838208" lon="12.7854228"><ele>5.0</ele><time>2026-04-15T08:43:11.284Z</time></trkpt><trkpt lat="45.7836773" lon="12.7850112"><ele>5.0</ele><time>2026-04-15T08:43:12.295Z</time></trkpt><trkpt lat="45.783535" lon="12.7846018"><ele>5.0</ele><time>2026-04-15T08:43:13.292Z</time></trkpt><trkpt lat="45.783391" lon="12.7841921"><ele>5.0</ele><time>2026-04-15T08:43:14.288Z</time></trkpt><trkpt lat="45.7832406" lon="12.7837828"><ele>5.0</ele><time>2026-04-15T08:43:15.278Z</time></trkpt><trkpt lat="45.7830893" lon="12.7833762"><ele>5.0</ele><time>2026-04-15T08:43:16.295Z</time></trkpt><trkpt lat="45.7829452" lon="12.7829802"><ele>5.0</ele><time>2026-04-15T08:43:17.286Z</time></trkpt><trkpt lat="45.7828" lon="12.7825934"><ele>4.5</ele><time>2026-04-15T08:43:18.286Z</time></trkpt><trkpt lat="45.7826533" lon="12.7821988"><ele>4.0</ele><time>2026-04-15T08:43:19.285Z</time></trkpt><trkpt lat="45.7824991" lon="12.7817957"><ele>4.0</ele><time>2026-04-15T08:43:20.285Z</time></trkpt><trkpt lat="45.7823418" lon="12.781387"><ele>4.0</ele><time>2026-04-15T08:43:21.289Z</time></trkpt><trkpt lat="45.7821805" lon="12.7809801"><ele>4.0</ele><time>2026-04-15T08:43:22.294Z</time></trkpt><trkpt lat="45.7820145" lon="12.7805764"><ele>4.0</ele><time>2026-04-15T08:43:23.291Z</time></trkpt><trkpt lat="45.7816794" lon="12.7797663"><ele>4.5</ele><time>2026-04-15T08:43:25.31Z</time></trkpt><trkpt lat="45.7815125" lon="12.7793601"><ele>5.0</ele><time>2026-04-15T08:43:26.293Z</time></trkpt><trkpt lat="45.7813421" lon="12.7789601"><ele>4.5</ele><time>2026-04-15T08:43:27.291Z</time></trkpt><trkpt lat="45.7811703" lon="12.7785597"><ele>4.0</ele><time>2026-04-15T08:43:28.295Z</time></trkpt><trkpt lat="45.7809921" lon="12.7781603"><ele>4.0</ele><time>2026-04-15T08:43:29.312Z</time></trkpt><trkpt lat="45.7808169" lon="12.7777602"><ele>4.0</ele><time>2026-04-15T08:43:30.291Z</time></trkpt><trkpt lat="45.7806374" lon="12.777368"><ele>4.0</ele><time>2026-04-15T08:43:31.283Z</time></trkpt><trkpt lat="45.7804573" lon="12.7769775"><ele>4.0</ele><time>2026-04-15T08:43:32.276Z</time></trkpt><trkpt lat="45.7802748" lon="12.7765871"><ele>3.5</ele><time>2026-04-15T08:43:33.282Z</time></trkpt><trkpt lat="45.7800898" lon="12.7761985"><ele>3.0</ele><time>2026-04-15T08:43:34.299Z</time></trkpt><trkpt lat="45.7799008" lon="12.775814"><ele>2.5</ele><time>2026-04-15T08:43:35.285Z</time></trkpt><trkpt lat="45.7797115" lon="12.7754216"><ele>2.0</ele><time>2026-04-15T08:43:36.291Z</time></trkpt><trkpt lat="45.7795235" lon="12.7750331"><ele>2.0</ele><time>2026-04-15T08:43:37.286Z</time></trkpt><trkpt lat="45.7793349" lon="12.7746467"><ele>2.0</ele><time>2026-04-15T08:43:38.283Z</time></trkpt><trkpt lat="45.7791464" lon="12.774269"><ele>2.5</ele><time>2026-04-15T08:43:39.282Z</time></trkpt><trkpt lat="45.7789539" lon="12.773897"><ele>3.0</ele><time>2026-04-15T08:43:40.296Z</time></trkpt><trkpt lat="45.7787644" lon="12.7735286"><ele>2.5</ele><time>2026-04-15T08:43:41.299Z</time></trkpt><trkpt lat="45.7785735" lon="12.7731591"><ele>2.0</ele><time>2026-04-15T08:43:42.283Z</time></trkpt><trkpt lat="45.7783838" lon="12.7727905"><ele>1.5</ele><time>2026-04-15T08:43:43.283Z</time></trkpt><trkpt lat="45.7781899" lon="12.7724275"><ele>1.0</ele><time>2026-04-15T08:43:44.283Z</time></trkpt><trkpt lat="45.7779944" lon="12.7720663"><ele>0.5</ele><time>2026-04-15T08:43:45.287Z</time></trkpt><trkpt lat="45.7778015" lon="12.7717097"><ele>0.0</ele><time>2026-04-15T08:43:46.293Z</time></trkpt><trkpt lat="45.7776094" lon="12.7713496"><ele>0.0</ele><time>2026-04-15T08:43:47.289Z</time></trkpt><trkpt lat="45.7774151" lon="12.7709946"><ele>0.0</ele><time>2026-04-15T08:43:48.293Z</time></trkpt><trkpt lat="45.7772223" lon="12.7706429"><ele>0.0</ele><time>2026-04-15T08:43:49.301Z</time></trkpt><trkpt lat="45.7770259" lon="12.7702949"><ele>0.0</ele><time>2026-04-15T08:43:50.287Z</time></trkpt><trkpt lat="45.7768297" lon="12.7699453"><ele>0.5</ele><time>2026-04-15T08:43:51.284Z</time></trkpt><trkpt lat="45.7766363" lon="12.7695945"><ele>1.0</ele><time>2026-04-15T08:43:52.288Z</time></trkpt><trkpt lat="45.7764434" lon="12.7692396"><ele>1.0</ele><time>2026-04-15T08:43:53.287Z</time></trkpt><trkpt lat="45.7762482" lon="12.7688874"><ele>1.0</ele><time>2026-04-15T08:43:54.283Z</time></trkpt><trkpt lat="45.776058" lon="12.7685304"><ele>1.5</ele><time>2026-04-15T08:43:55.278Z</time></trkpt><trkpt lat="45.7758609" lon="12.7681775"><ele>2.0</ele><time>2026-04-15T08:43:56.29Z</time></trkpt><trkpt lat="45.7756654" lon="12.7678227"><ele>1.5</ele><time>2026-04-15T08:43:57.288Z</time></trkpt><trkpt lat="45.7754722" lon="12.7674678"><ele>1.0</ele><time>2026-04-15T08:43:58.294Z</time></trkpt><trkpt lat="45.775277" lon="12.7671079"><ele>2.0</ele><time>2026-04-15T08:43:59.276Z</time></trkpt><trkpt lat="45.7750834" lon="12.7667502"><ele>3.0</ele><time>2026-04-15T08:44:00.287Z</time></trkpt><trkpt lat="45.7748868" lon="12.7663953"><ele>3.0</ele><time>2026-04-15T08:44:01.274Z</time></trkpt><trkpt lat="45.7746905" lon="12.7660372"><ele>3.0</ele><time>2026-04-15T08:44:02.283Z</time></trkpt><trkpt lat="45.774494" lon="12.7656787"><ele>3.5</ele><time>2026-04-15T08:44:03.277Z</time></trkpt><trkpt lat="45.7742962" lon="12.7653177"><ele>4.0</ele><time>2026-04-15T08:44:04.294Z</time></trkpt><trkpt lat="45.774099" lon="12.7649595"><ele>4.0</ele><time>2026-04-15T08:44:05.282Z</time></trkpt><trkpt lat="45.7738991" lon="12.7645983"><ele>4.0</ele><time>2026-04-15T08:44:06.279Z</time></trkpt><trkpt lat="45.7737026" lon="12.764231"><ele>4.0</ele><time>2026-04-15T08:44:07.278Z</time></trkpt><trkpt lat="45.7735024" lon="12.7638624"><ele>4.0</ele><time>2026-04-15T08:44:08.282Z</time></trkpt><trkpt lat="45.7733015" lon="12.7634876"><ele>4.0</ele><time>2026-04-15T08:44:09.29Z</time></trkpt><trkpt lat="45.7730981" lon="12.7631156"><ele>4.0</ele><time>2026-04-15T08:44:10.292Z</time></trkpt><trkpt lat="45.7728917" lon="12.7627413"><ele>3.5</ele><time>2026-04-15T08:44:11.274Z</time></trkpt><trkpt lat="45.7726811" lon="12.7623649"><ele>3.0</ele><time>2026-04-15T08:44:12.291Z</time></trkpt><trkpt lat="45.7724744" lon="12.7619884"><ele>2.5</ele><time>2026-04-15T08:44:13.274Z</time></trkpt><trkpt lat="45.7722641" lon="12.7616106"><ele>2.0</ele><time>2026-04-15T08:44:14.297Z</time></trkpt><trkpt lat="45.7720589" lon="12.7612333"><ele>1.5</ele><time>2026-04-15T08:44:15.283Z</time></trkpt><trkpt lat="45.7718519" lon="12.760854"><ele>1.0</ele><time>2026-04-15T08:44:16.286Z</time></trkpt><trkpt lat="45.7716406" lon="12.760473"><ele>0.5</ele><time>2026-04-15T08:44:17.281Z</time></trkpt><trkpt lat="45.7714339" lon="12.7600982"><ele>0.0</ele><time>2026-04-15T08:44:18.282Z</time></trkpt><trkpt lat="45.7712248" lon="12.7597235"><ele>0.5</ele><time>2026-04-15T08:44:19.288Z</time></trkpt><trkpt lat="45.7710195" lon="12.7593493"><ele>1.0</ele><time>2026-04-15T08:44:20.283Z</time></trkpt><trkpt lat="45.7708185" lon="12.7589809"><ele>1.0</ele><time>2026-04-15T08:44:21.273Z</time></trkpt><trkpt lat="45.7706223" lon="12.7586151"><ele>1.0</ele><time>2026-04-15T08:44:22.287Z</time></trkpt><trkpt lat="45.7704217" lon="12.7582559"><ele>0.5</ele><time>2026-04-15T08:44:23.278Z</time></trkpt><trkpt lat="45.7702296" lon="12.7578968"><ele>0.0</ele><time>2026-04-15T08:44:24.293Z</time></trkpt><trkpt lat="45.7700382" lon="12.757536"><ele>0.0</ele><time>2026-04-15T08:44:25.282Z</time></trkpt><trkpt lat="45.7698484" lon="12.7571733"><ele>0.0</ele><time>2026-04-15T08:44:26.29Z</time></trkpt><trkpt lat="45.7696561" lon="12.7568203"><ele>0.5</ele><time>2026-04-15T08:44:27.288Z</time></trkpt><trkpt lat="45.7694589" lon="12.7564716"><ele>1.0</ele><time>2026-04-15T08:44:28.283Z</time></trkpt><trkpt lat="45.7692714" lon="12.75612"><ele>0.5</ele><time>2026-04-15T08:44:29.29Z</time></trkpt><trkpt lat="45.7690819" lon="12.7557704"><ele>0.0</ele><time>2026-04-15T08:44:30.29Z</time></trkpt><trkpt lat="45.7688896" lon="12.7554325"><ele>0.5</ele><time>2026-04-15T08:44:31.273Z</time></trkpt><trkpt lat="45.7686975" lon="12.7550994"><ele>1.0</ele><time>2026-04-15T08:44:32.276Z</time></trkpt><trkpt lat="45.7685171" lon="12.7547574"><ele>0.5</ele><time>2026-04-15T08:44:33.275Z</time></trkpt><trkpt lat="45.7683357" lon="12.7544242"><ele>0.0</ele><time>2026-04-15T08:44:34.297Z</time></trkpt><trkpt lat="45.7681468" lon="12.7541019"><ele>0.0</ele><time>2026-04-15T08:44:35.281Z</time></trkpt><trkpt lat="45.7679673" lon="12.7537708"><ele>0.0</ele><time>2026-04-15T08:44:36.282Z</time></trkpt><trkpt lat="45.7677904" lon="12.75344"><ele>2.0</ele><time>2026-04-15T08:44:37.285Z</time></trkpt><trkpt lat="45.7676092" lon="12.7531061"><ele>4.0</ele><time>2026-04-15T08:44:38.296Z</time></trkpt><trkpt lat="45.7674223" lon="12.7527739"><ele>3.0</ele><time>2026-04-15T08:44:39.285Z</time></trkpt><trkpt lat="45.7672369" lon="12.7524336"><ele>2.0</ele><time>2026-04-15T08:44:40.283Z</time></trkpt><trkpt lat="45.7670529" lon="12.7520898"><ele>2.0</ele><time>2026-04-15T08:44:41.283Z</time></trkpt><trkpt lat="45.7668657" lon="12.7517398"><ele>2.0</ele><time>2026-04-15T08:44:42.282Z</time></trkpt><trkpt lat="45.7666791" lon="12.7513937"><ele>2.5</ele><time>2026-04-15T08:44:43.271Z</time></trkpt><trkpt lat="45.766489" lon="12.7510444"><ele>3.0</ele><time>2026-04-15T08:44:44.282Z</time></trkpt><trkpt lat="45.7662945" lon="12.7506966"><ele>2.0</ele><time>2026-04-15T08:44:45.277Z</time></trkpt><trkpt lat="45.7661051" lon="12.7503481"><ele>1.0</ele><time>2026-04-15T08:44:46.284Z</time></trkpt><trkpt lat="45.7659114" lon="12.7500029"><ele>1.0</ele><time>2026-04-15T08:44:47.275Z</time></trkpt><trkpt lat="45.7657167" lon="12.7496608"><ele>1.0</ele><time>2026-04-15T08:44:48.266Z</time></trkpt><trkpt lat="45.7655186" lon="12.7493182"><ele>2.0</ele><time>2026-04-15T08:44:49.27Z</time></trkpt><trkpt lat="45.7651271" lon="12.7486412"><ele>2.0</ele><time>2026-04-15T08:44:51.29Z</time></trkpt><trkpt lat="45.7649275" lon="12.7483048"><ele>2.0</ele><time>2026-04-15T08:44:52.28Z</time></trkpt><trkpt lat="45.7647282" lon="12.7479699"><ele>2.0</ele><time>2026-04-15T08:44:53.285Z</time></trkpt><trkpt lat="45.7645272" lon="12.7476347"><ele>2.0</ele><time>2026-04-15T08:44:54.278Z</time></trkpt><trkpt lat="45.7643227" lon="12.7473048"><ele>2.0</ele><time>2026-04-15T08:44:55.261Z</time></trkpt><trkpt lat="45.7641175" lon="12.7469736"><ele>2.0</ele><time>2026-04-15T08:44:56.281Z</time></trkpt><trkpt lat="45.7639119" lon="12.7466435"><ele>2.0</ele><time>2026-04-15T08:44:57.272Z</time></trkpt><trkpt lat="45.7637046" lon="12.746315"><ele>2.0</ele><time>2026-04-15T08:44:58.281Z</time></trkpt><trkpt lat="45.7634986" lon="12.7459867"><ele>1.5</ele><time>2026-04-15T08:44:59.271Z</time></trkpt><trkpt lat="45.7632861" lon="12.7456626"><ele>1.0</ele><time>2026-04-15T08:45:00.286Z</time></trkpt><trkpt lat="45.7630751" lon="12.7453392"><ele>0.5</ele><time>2026-04-15T08:45:01.264Z</time></trkpt><trkpt lat="45.7628617" lon="12.7450169"><ele>0.0</ele><time>2026-04-15T08:45:02.283Z</time></trkpt><trkpt lat="45.7626499" lon="12.7446936"><ele>0.5</ele><time>2026-04-15T08:45:03.262Z</time></trkpt><trkpt lat="45.7624346" lon="12.7443659"><ele>1.0</ele><time>2026-04-15T08:45:04.277Z</time></trkpt><trkpt lat="45.7622167" lon="12.7440347"><ele>1.0</ele><time>2026-04-15T08:45:05.271Z</time></trkpt><trkpt lat="45.7619997" lon="12.7437017"><ele>1.0</ele><time>2026-04-15T08:45:06.265Z</time></trkpt><trkpt lat="45.761777" lon="12.7433668"><ele>1.0</ele><time>2026-04-15T08:45:07.275Z</time></trkpt><trkpt lat="45.7615563" lon="12.7430334"><ele>1.0</ele><time>2026-04-15T08:45:08.26Z</time></trkpt><trkpt lat="45.7613339" lon="12.7426951"><ele>1.5</ele><time>2026-04-15T08:45:09.271Z</time></trkpt><trkpt lat="45.7611129" lon="12.7423474"><ele>2.0</ele><time>2026-04-15T08:45:10.281Z</time></trkpt><trkpt lat="45.7608883" lon="12.7420045"><ele>2.0</ele><time>2026-04-15T08:45:11.273Z</time></trkpt><trkpt lat="45.7606663" lon="12.7416605"><ele>2.0</ele><time>2026-04-15T08:45:12.301Z</time></trkpt><trkpt lat="45.7604459" lon="12.7413148"><ele>2.5</ele><time>2026-04-15T08:45:13.276Z</time></trkpt><trkpt lat="45.7602206" lon="12.7409736"><ele>3.0</ele><time>2026-04-15T08:45:14.277Z</time></trkpt><trkpt lat="45.7599968" lon="12.7406299"><ele>3.0</ele><time>2026-04-15T08:45:15.268Z</time></trkpt><trkpt lat="45.7597734" lon="12.7402857"><ele>3.0</ele><time>2026-04-15T08:45:16.276Z</time></trkpt><trkpt lat="45.7595529" lon="12.7399401"><ele>3.0</ele><time>2026-04-15T08:45:17.268Z</time></trkpt><trkpt lat="45.7593308" lon="12.7395929"><ele>3.0</ele><time>2026-04-15T08:45:18.275Z</time></trkpt><trkpt lat="45.7591076" lon="12.7392485"><ele>2.5</ele><time>2026-04-15T08:45:19.267Z</time></trkpt><trkpt lat="45.7588845" lon="12.738903"><ele>2.0</ele><time>2026-04-15T08:45:20.286Z</time></trkpt><trkpt lat="45.7586621" lon="12.7385616"><ele>2.0</ele><time>2026-04-15T08:45:21.262Z</time></trkpt><trkpt lat="45.7584365" lon="12.7382153"><ele>2.0</ele><time>2026-04-15T08:45:22.282Z</time></trkpt><trkpt lat="45.7582143" lon="12.7378679"><ele>2.0</ele><time>2026-04-15T08:45:23.272Z</time></trkpt><trkpt lat="45.757989" lon="12.737524"><ele>2.0</ele><time>2026-04-15T08:45:24.27Z</time></trkpt><trkpt lat="45.757763" lon="12.7371794"><ele>1.5</ele><time>2026-04-15T08:45:25.273Z</time></trkpt><trkpt lat="45.7575364" lon="12.7368412"><ele>1.0</ele><time>2026-04-15T08:45:26.274Z</time></trkpt><trkpt lat="45.7573161" lon="12.7365006"><ele>1.0</ele><time>2026-04-15T08:45:27.278Z</time></trkpt><trkpt lat="45.7570976" lon="12.7361605"><ele>1.0</ele><time>2026-04-15T08:45:28.264Z</time></trkpt><trkpt lat="45.7568784" lon="12.7358206"><ele>1.0</ele><time>2026-04-15T08:45:29.275Z</time></trkpt><trkpt lat="45.756663" lon="12.735479"><ele>1.0</ele><time>2026-04-15T08:45:30.27Z</time></trkpt><trkpt lat="45.7564513" lon="12.7351328"><ele>1.0</ele><time>2026-04-15T08:45:31.277Z</time></trkpt><trkpt lat="45.7562415" lon="12.734783"><ele>1.0</ele><time>2026-04-15T08:45:32.274Z</time></trkpt><trkpt lat="45.7560354" lon="12.7344331"><ele>1.0</ele><time>2026-04-15T08:45:33.275Z</time></trkpt><trkpt lat="45.7558291" lon="12.7340798"><ele>1.0</ele><time>2026-04-15T08:45:34.269Z</time></trkpt><trkpt lat="45.7556259" lon="12.7337289"><ele>1.0</ele><time>2026-04-15T08:45:35.267Z</time></trkpt><trkpt lat="45.7554238" lon="12.7333729"><ele>1.0</ele><time>2026-04-15T08:45:36.271Z</time></trkpt><trkpt lat="45.7552226" lon="12.7330166"><ele>-0.5</ele><time>2026-04-15T08:45:37.27Z</time></trkpt><trkpt lat="45.7550203" lon="12.7326567"><ele>-2.0</ele><time>2026-04-15T08:45:38.271Z</time></trkpt><trkpt lat="45.7548201" lon="12.7322947"><ele>-2.0</ele><time>2026-04-15T08:45:39.274Z</time></trkpt><trkpt lat="45.7546252" lon="12.7319268"><ele>-2.0</ele><time>2026-04-15T08:45:40.265Z</time></trkpt><trkpt lat="45.7544297" lon="12.7315549"><ele>-2.0</ele><time>2026-04-15T08:45:41.273Z</time></trkpt><trkpt lat="45.754236" lon="12.7311778"><ele>-2.0</ele><time>2026-04-15T08:45:42.264Z</time></trkpt><trkpt lat="45.7540433" lon="12.7307971"><ele>-2.0</ele><time>2026-04-15T08:45:43.272Z</time></trkpt><trkpt lat="45.7538513" lon="12.7304244"><ele>-2.0</ele><time>2026-04-15T08:45:44.282Z</time></trkpt><trkpt lat="45.7536566" lon="12.7300542"><ele>-1.5</ele><time>2026-04-15T08:45:45.271Z</time></trkpt><trkpt lat="45.7534704" lon="12.729678"><ele>-1.0</ele><time>2026-04-15T08:45:46.264Z</time></trkpt><trkpt lat="45.7532957" lon="12.7292876"><ele>-1.0</ele><time>2026-04-15T08:45:47.284Z</time></trkpt><trkpt lat="45.7531184" lon="12.7289106"><ele>-1.0</ele><time>2026-04-15T08:45:48.272Z</time></trkpt><trkpt lat="45.7529352" lon="12.7285443"><ele>-1.0</ele><time>2026-04-15T08:45:49.277Z</time></trkpt><trkpt lat="45.7527607" lon="12.7281713"><ele>-1.0</ele><time>2026-04-15T08:45:50.285Z</time></trkpt><trkpt lat="45.7524302" lon="12.7274207"><ele>-0.5</ele><time>2026-04-15T08:45:52.277Z</time></trkpt><trkpt lat="45.7522637" lon="12.7270532"><ele>0.0</ele><time>2026-04-15T08:45:53.271Z</time></trkpt><trkpt lat="45.7521075" lon="12.7266799"><ele>0.0</ele><time>2026-04-15T08:45:54.263Z</time></trkpt><trkpt lat="45.7519537" lon="12.7263029"><ele>0.0</ele><time>2026-04-15T08:45:55.262Z</time></trkpt><trkpt lat="45.7517956" lon="12.7259299"><ele>0.0</ele><time>2026-04-15T08:45:56.266Z</time></trkpt><trkpt lat="45.7516361" lon="12.7255498"><ele>0.0</ele><time>2026-04-15T08:45:57.259Z</time></trkpt><trkpt lat="45.7514759" lon="12.7251669"><ele>0.0</ele><time>2026-04-15T08:45:58.261Z</time></trkpt><trkpt lat="45.7513186" lon="12.7247779"><ele>0.0</ele><time>2026-04-15T08:45:59.264Z</time></trkpt><trkpt lat="45.7511589" lon="12.7243859"><ele>-0.5</ele><time>2026-04-15T08:46:00.267Z</time></trkpt><trkpt lat="45.7510044" lon="12.7239921"><ele>-1.0</ele><time>2026-04-15T08:46:01.289Z</time></trkpt><trkpt lat="45.7508523" lon="12.7235957"><ele>-1.5</ele><time>2026-04-15T08:46:02.279Z</time></trkpt><trkpt lat="45.7507029" lon="12.7231979"><ele>-2.0</ele><time>2026-04-15T08:46:03.268Z</time></trkpt><trkpt lat="45.7505575" lon="12.7227923"><ele>-1.0</ele><time>2026-04-15T08:46:04.261Z</time></trkpt><trkpt lat="45.7504097" lon="12.7223864"><ele>0.0</ele><time>2026-04-15T08:46:05.261Z</time></trkpt><trkpt lat="45.7502671" lon="12.7219797"><ele>-1.5</ele><time>2026-04-15T08:46:06.281Z</time></trkpt><trkpt lat="45.7501244" lon="12.7215776"><ele>-3.0</ele><time>2026-04-15T08:46:07.256Z</time></trkpt><trkpt lat="45.7499824" lon="12.721173"><ele>-2.5</ele><time>2026-04-15T08:46:08.271Z</time></trkpt><trkpt lat="45.7498474" lon="12.7207692"><ele>-2.0</ele><time>2026-04-15T08:46:09.267Z</time></trkpt><trkpt lat="45.7497092" lon="12.7203631"><ele>-1.0</ele><time>2026-04-15T08:46:10.302Z</time></trkpt><trkpt lat="45.7495752" lon="12.719958"><ele>0.0</ele><time>2026-04-15T08:46:11.262Z</time></trkpt><trkpt lat="45.7494425" lon="12.7195472"><ele>1.0</ele><time>2026-04-15T08:46:12.258Z</time></trkpt><trkpt lat="45.7493092" lon="12.7191381"><ele>2.0</ele><time>2026-04-15T08:46:13.263Z</time></trkpt><trkpt lat="45.7491793" lon="12.7187275"><ele>1.5</ele><time>2026-04-15T08:46:14.282Z</time></trkpt><trkpt lat="45.7490504" lon="12.718315"><ele>1.0</ele><time>2026-04-15T08:46:15.257Z</time></trkpt><trkpt lat="45.7489191" lon="12.7178998"><ele>0.5</ele><time>2026-04-15T08:46:16.274Z</time></trkpt><trkpt lat="45.7487915" lon="12.7174889"><ele>0.0</ele><time>2026-04-15T08:46:17.256Z</time></trkpt><trkpt lat="45.7486593" lon="12.7170736"><ele>0.5</ele><time>2026-04-15T08:46:18.254Z</time></trkpt><trkpt lat="45.7485285" lon="12.7166645"><ele>1.0</ele><time>2026-04-15T08:46:19.259Z</time></trkpt><trkpt lat="45.7483993" lon="12.7162553"><ele>1.0</ele><time>2026-04-15T08:46:20.258Z</time></trkpt><trkpt lat="45.7482672" lon="12.7158474"><ele>1.0</ele><time>2026-04-15T08:46:21.254Z</time></trkpt><trkpt lat="45.7480088" lon="12.7150283"><ele>1.0</ele><time>2026-04-15T08:46:23.283Z</time></trkpt><trkpt lat="45.7478761" lon="12.7146124"><ele>1.0</ele><time>2026-04-15T08:46:24.262Z</time></trkpt><trkpt lat="45.7477384" lon="12.7141987"><ele>1.0</ele><time>2026-04-15T08:46:25.276Z</time></trkpt><trkpt lat="45.7476071" lon="12.713781"><ele>1.0</ele><time>2026-04-15T08:46:26.258Z</time></trkpt><trkpt lat="45.747477" lon="12.713363"><ele>1.0</ele><time>2026-04-15T08:46:27.276Z</time></trkpt><trkpt lat="45.74735" lon="12.712947"><ele>1.0</ele><time>2026-04-15T08:46:28.253Z</time></trkpt><trkpt lat="45.7472229" lon="12.7125275"><ele>1.0</ele><time>2026-04-15T08:46:29.276Z</time></trkpt><trkpt lat="45.7470902" lon="12.7121088"><ele>1.0</ele><time>2026-04-15T08:46:30.268Z</time></trkpt><trkpt lat="45.7469528" lon="12.7116899"><ele>0.5</ele><time>2026-04-15T08:46:31.27Z</time></trkpt><trkpt lat="45.7468199" lon="12.7112723"><ele>0.0</ele><time>2026-04-15T08:46:32.257Z</time></trkpt><trkpt lat="45.7466866" lon="12.7108568"><ele>0.0</ele><time>2026-04-15T08:46:33.27Z</time></trkpt><trkpt lat="45.746558" lon="12.7104471"><ele>0.0</ele><time>2026-04-15T08:46:34.276Z</time></trkpt><trkpt lat="45.7464257" lon="12.7100342"><ele>0.0</ele><time>2026-04-15T08:46:35.271Z</time></trkpt><trkpt lat="45.7462938" lon="12.7096202"><ele>0.0</ele><time>2026-04-15T08:46:36.266Z</time></trkpt><trkpt lat="45.7461598" lon="12.7092077"><ele>0.0</ele><time>2026-04-15T08:46:37.27Z</time></trkpt><trkpt lat="45.7460275" lon="12.7088"><ele>0.0</ele><time>2026-04-15T08:46:38.257Z</time></trkpt><trkpt lat="45.7458963" lon="12.7083911"><ele>0.0</ele><time>2026-04-15T08:46:39.267Z</time></trkpt><trkpt lat="45.7457633" lon="12.7079801"><ele>0.0</ele><time>2026-04-15T08:46:40.258Z</time></trkpt><trkpt lat="45.7456343" lon="12.70757"><ele>-0.5</ele><time>2026-04-15T08:46:41.263Z</time></trkpt><trkpt lat="45.745506" lon="12.7071634"><ele>-1.0</ele><time>2026-04-15T08:46:42.272Z</time></trkpt><trkpt lat="45.7453791" lon="12.7067633"><ele>-1.0</ele><time>2026-04-15T08:46:43.261Z</time></trkpt><trkpt lat="45.7452497" lon="12.7063642"><ele>-1.0</ele><time>2026-04-15T08:46:44.275Z</time></trkpt><trkpt lat="45.7451236" lon="12.7059632"><ele>-1.0</ele><time>2026-04-15T08:46:45.257Z</time></trkpt><trkpt lat="45.7449966" lon="12.7055641"><ele>-1.0</ele><time>2026-04-15T08:46:46.263Z</time></trkpt><trkpt lat="45.7448666" lon="12.7051616"><ele>-1.0</ele><time>2026-04-15T08:46:47.265Z</time></trkpt><trkpt lat="45.7447382" lon="12.7047576"><ele>-1.0</ele><time>2026-04-15T08:46:48.261Z</time></trkpt><trkpt lat="45.7446067" lon="12.7043573"><ele>-1.0</ele><time>2026-04-15T08:46:49.27Z</time></trkpt><trkpt lat="45.74448" lon="12.7039512"><ele>-1.0</ele><time>2026-04-15T08:46:50.274Z</time></trkpt><trkpt lat="45.7443521" lon="12.703542"><ele>-1.0</ele><time>2026-04-15T08:46:51.252Z</time></trkpt><trkpt lat="45.7442227" lon="12.7031343"><ele>-1.0</ele><time>2026-04-15T08:46:52.256Z</time></trkpt><trkpt lat="45.7440931" lon="12.7027228"><ele>-1.0</ele><time>2026-04-15T08:46:53.273Z</time></trkpt><trkpt lat="45.7439591" lon="12.7023086"><ele>-1.0</ele><time>2026-04-15T08:46:54.27Z</time></trkpt><trkpt lat="45.7438282" lon="12.7018921"><ele>-1.0</ele><time>2026-04-15T08:46:55.256Z</time></trkpt><trkpt lat="45.7435649" lon="12.7010628"><ele>0.0</ele><time>2026-04-15T08:46:57.248Z</time></trkpt><trkpt lat="45.7433057" lon="12.700241"><ele>0.0</ele><time>2026-04-15T08:46:59.263Z</time></trkpt><trkpt lat="45.7431747" lon="12.6998339"><ele>0.0</ele><time>2026-04-15T08:47:00.261Z</time></trkpt><trkpt lat="45.7430448" lon="12.6994215"><ele>-0.5</ele><time>2026-04-15T08:47:01.273Z</time></trkpt><trkpt lat="45.7429152" lon="12.6990107"><ele>-1.0</ele><time>2026-04-15T08:47:02.259Z</time></trkpt><trkpt lat="45.7427861" lon="12.6986008"><ele>0.0</ele><time>2026-04-15T08:47:03.256Z</time></trkpt><trkpt lat="45.7426561" lon="12.698196"><ele>1.0</ele><time>2026-04-15T08:47:04.248Z</time></trkpt><trkpt lat="45.7425276" lon="12.6978006"><ele>0.5</ele><time>2026-04-15T08:47:05.266Z</time></trkpt><trkpt lat="45.7423999" lon="12.6974019"><ele>0.0</ele><time>2026-04-15T08:47:06.273Z</time></trkpt><trkpt lat="45.7421488" lon="12.6966181"><ele>0.0</ele><time>2026-04-15T08:47:08.264Z</time></trkpt><trkpt lat="45.7420248" lon="12.696222"><ele>0.0</ele><time>2026-04-15T08:47:09.272Z</time></trkpt><trkpt lat="45.7419005" lon="12.6958239"><ele>-1.0</ele><time>2026-04-15T08:47:10.257Z</time></trkpt><trkpt lat="45.7417724" lon="12.6954157"><ele>-2.0</ele><time>2026-04-15T08:47:11.274Z</time></trkpt><trkpt lat="45.7416434" lon="12.6950066"><ele>-2.0</ele><time>2026-04-15T08:47:12.258Z</time></trkpt><trkpt lat="45.7415087" lon="12.6945918"><ele>-2.0</ele><time>2026-04-15T08:47:13.274Z</time></trkpt><trkpt lat="45.7413761" lon="12.6941754"><ele>-2.0</ele><time>2026-04-15T08:47:14.258Z</time></trkpt><trkpt lat="45.741246" lon="12.6937639"><ele>-2.0</ele><time>2026-04-15T08:47:15.254Z</time></trkpt><trkpt lat="45.7411129" lon="12.6933475"><ele>-1.5</ele><time>2026-04-15T08:47:16.257Z</time></trkpt><trkpt lat="45.7409824" lon="12.6929342"><ele>-1.0</ele><time>2026-04-15T08:47:17.265Z</time></trkpt><trkpt lat="45.7407263" lon="12.6921134"><ele>-1.0</ele><time>2026-04-15T08:47:19.262Z</time></trkpt><trkpt lat="45.7405923" lon="12.6917075"><ele>-1.0</ele><time>2026-04-15T08:47:20.267Z</time></trkpt><trkpt lat="45.7404623" lon="12.6913033"><ele>-0.5</ele><time>2026-04-15T08:47:21.263Z</time></trkpt><trkpt lat="45.7403302" lon="12.6908975"><ele>0.0</ele><time>2026-04-15T08:47:22.264Z</time></trkpt><trkpt lat="45.7401969" lon="12.6904674"><ele>-1.0</ele><time>2026-04-15T08:47:23.249Z</time></trkpt><trkpt lat="45.7400563" lon="12.6900224"><ele>-2.0</ele><time>2026-04-15T08:47:24.271Z</time></trkpt><trkpt lat="45.7399132" lon="12.689571"><ele>-3.0</ele><time>2026-04-15T08:47:25.276Z</time></trkpt><trkpt lat="45.7397687" lon="12.6891179"><ele>-4.0</ele><time>2026-04-15T08:47:26.275Z</time></trkpt><trkpt lat="45.7396242" lon="12.6886666"><ele>-4.0</ele><time>2026-04-15T08:47:27.254Z</time></trkpt><trkpt lat="45.7394858" lon="12.6882218"><ele>-4.0</ele><time>2026-04-15T08:47:28.255Z</time></trkpt><trkpt lat="45.7393495" lon="12.6877846"><ele>-2.5</ele><time>2026-04-15T08:47:29.26Z</time></trkpt><trkpt lat="45.7392147" lon="12.6873534"><ele>-1.0</ele><time>2026-04-15T08:47:30.303Z</time></trkpt><trkpt lat="45.7390772" lon="12.6869269"><ele>-1.0</ele><time>2026-04-15T08:47:31.257Z</time></trkpt><trkpt lat="45.7388047" lon="12.6860845"><ele>-1.0</ele><time>2026-04-15T08:47:33.251Z</time></trkpt><trkpt lat="45.7386681" lon="12.6856692"><ele>-1.0</ele><time>2026-04-15T08:47:34.259Z</time></trkpt><trkpt lat="45.7385336" lon="12.6852571"><ele>2.0</ele><time>2026-04-15T08:47:35.24Z</time></trkpt><trkpt lat="45.7383985" lon="12.6848475"><ele>5.0</ele><time>2026-04-15T08:47:36.257Z</time></trkpt><trkpt lat="45.7382658" lon="12.6844366"><ele>5.0</ele><time>2026-04-15T08:47:37.244Z</time></trkpt><trkpt lat="45.7381386" lon="12.6840205"><ele>5.0</ele><time>2026-04-15T08:47:38.255Z</time></trkpt><trkpt lat="45.7380112" lon="12.6836167"><ele>5.0</ele><time>2026-04-15T08:47:39.264Z</time></trkpt><trkpt lat="45.7377561" lon="12.6828091"><ele>4.5</ele><time>2026-04-15T08:47:41.277Z</time></trkpt><trkpt lat="45.7376298" lon="12.6824056"><ele>4.0</ele><time>2026-04-15T08:47:42.253Z</time></trkpt><trkpt lat="45.7374999" lon="12.6820147"><ele>4.0</ele><time>2026-04-15T08:47:43.258Z</time></trkpt><trkpt lat="45.7373769" lon="12.681625"><ele>4.0</ele><time>2026-04-15T08:47:44.243Z</time></trkpt><trkpt lat="45.7372592" lon="12.6812404"><ele>3.0</ele><time>2026-04-15T08:47:45.27Z</time></trkpt><trkpt lat="45.7371451" lon="12.6808552"><ele>2.0</ele><time>2026-04-15T08:47:46.256Z</time></trkpt><trkpt lat="45.7370263" lon="12.6804795"><ele>2.0</ele><time>2026-04-15T08:47:47.268Z</time></trkpt><trkpt lat="45.7368992" lon="12.6801129"><ele>2.0</ele><time>2026-04-15T08:47:48.249Z</time></trkpt><trkpt lat="45.7367811" lon="12.679745"><ele>2.0</ele><time>2026-04-15T08:47:49.259Z</time></trkpt><trkpt lat="45.7366701" lon="12.679381"><ele>2.0</ele><time>2026-04-15T08:47:50.255Z</time></trkpt><trkpt lat="45.7364327" lon="12.6786747"><ele>2.0</ele><time>2026-04-15T08:47:52.245Z</time></trkpt><trkpt lat="45.736324" lon="12.6783121"><ele>2.0</ele><time>2026-04-15T08:47:53.251Z</time></trkpt><trkpt lat="45.7362102" lon="12.6779584"><ele>1.5</ele><time>2026-04-15T08:47:54.259Z</time></trkpt><trkpt lat="45.7360941" lon="12.6776151"><ele>1.0</ele><time>2026-04-15T08:47:55.244Z</time></trkpt><trkpt lat="45.7359871" lon="12.6772627"><ele>2.0</ele><time>2026-04-15T08:47:56.253Z</time></trkpt><trkpt lat="45.7358841" lon="12.6769137"><ele>3.0</ele><time>2026-04-15T08:47:57.255Z</time></trkpt><trkpt lat="45.7357656" lon="12.6765702"><ele>3.0</ele><time>2026-04-15T08:47:58.276Z</time></trkpt><trkpt lat="45.7356597" lon="12.6762199"><ele>3.0</ele><time>2026-04-15T08:47:59.254Z</time></trkpt><trkpt lat="45.7355502" lon="12.6758685"><ele>3.0</ele><time>2026-04-15T08:48:00.26Z</time></trkpt><trkpt lat="45.7354347" lon="12.6755201"><ele>3.0</ele><time>2026-04-15T08:48:01.261Z</time></trkpt><trkpt lat="45.7352053" lon="12.6748163"><ele>3.0</ele><time>2026-04-15T08:48:03.255Z</time></trkpt><trkpt lat="45.735094" lon="12.6744688"><ele>3.0</ele><time>2026-04-15T08:48:04.248Z</time></trkpt><trkpt lat="45.7349825" lon="12.6741202"><ele>2.0</ele><time>2026-04-15T08:48:05.254Z</time></trkpt><trkpt lat="45.7348745" lon="12.6737775"><ele>1.0</ele><time>2026-04-15T08:48:06.264Z</time></trkpt><trkpt lat="45.7347636" lon="12.6734319"><ele>1.0</ele><time>2026-04-15T08:48:07.245Z</time></trkpt><trkpt lat="45.7346586" lon="12.6730908"><ele>1.0</ele><time>2026-04-15T08:48:08.256Z</time></trkpt><trkpt lat="45.734551" lon="12.6727499"><ele>1.5</ele><time>2026-04-15T08:48:09.255Z</time></trkpt><trkpt lat="45.7344382" lon="12.6724064"><ele>2.0</ele><time>2026-04-15T08:48:10.263Z</time></trkpt><trkpt lat="45.734326" lon="12.672065"><ele>2.0</ele><time>2026-04-15T08:48:11.251Z</time></trkpt><trkpt lat="45.7342153" lon="12.6717146"><ele>2.0</ele><time>2026-04-15T08:48:12.266Z</time></trkpt><trkpt lat="45.7339969" lon="12.671018"><ele>1.0</ele><time>2026-04-15T08:48:14.251Z</time></trkpt><trkpt lat="45.7338878" lon="12.6706704"><ele>0.0</ele><time>2026-04-15T08:48:15.239Z</time></trkpt><trkpt lat="45.7337762" lon="12.6703218"><ele>0.0</ele><time>2026-04-15T08:48:16.247Z</time></trkpt><trkpt lat="45.733665" lon="12.6699758"><ele>0.0</ele><time>2026-04-15T08:48:17.245Z</time></trkpt><trkpt lat="45.7335545" lon="12.6696273"><ele>-0.5</ele><time>2026-04-15T08:48:18.249Z</time></trkpt><trkpt lat="45.7334457" lon="12.6692781"><ele>-1.0</ele><time>2026-04-15T08:48:19.242Z</time></trkpt><trkpt lat="45.7333301" lon="12.6689207"><ele>0.5</ele><time>2026-04-15T08:48:20.26Z</time></trkpt><trkpt lat="45.7332135" lon="12.6685597"><ele>2.0</ele><time>2026-04-15T08:48:21.255Z</time></trkpt><trkpt lat="45.7330996" lon="12.6682097"><ele>2.0</ele><time>2026-04-15T08:48:22.249Z</time></trkpt><trkpt lat="45.7329874" lon="12.6678626"><ele>2.0</ele><time>2026-04-15T08:48:23.259Z</time></trkpt><trkpt lat="45.7327618" lon="12.6671737"><ele>0.5</ele><time>2026-04-15T08:48:25.25Z</time></trkpt><trkpt lat="45.7326543" lon="12.6668208"><ele>-1.0</ele><time>2026-04-15T08:48:26.248Z</time></trkpt><trkpt lat="45.7325444" lon="12.6664638"><ele>0.0</ele><time>2026-04-15T08:48:27.244Z</time></trkpt><trkpt lat="45.732432" lon="12.6661077"><ele>1.0</ele><time>2026-04-15T08:48:28.246Z</time></trkpt><trkpt lat="45.732318" lon="12.665754"><ele>1.0</ele><time>2026-04-15T08:48:29.251Z</time></trkpt><trkpt lat="45.7322006" lon="12.6653919"><ele>1.0</ele><time>2026-04-15T08:48:30.254Z</time></trkpt><trkpt lat="45.7320789" lon="12.6650226"><ele>1.5</ele><time>2026-04-15T08:48:31.248Z</time></trkpt><trkpt lat="45.7319604" lon="12.6646528"><ele>2.0</ele><time>2026-04-15T08:48:32.24Z</time></trkpt><trkpt lat="45.7318411" lon="12.6642849"><ele>1.0</ele><time>2026-04-15T08:48:33.258Z</time></trkpt><trkpt lat="45.73173" lon="12.6639204"><ele>0.0</ele><time>2026-04-15T08:48:34.267Z</time></trkpt><trkpt lat="45.7314918" lon="12.6632126"><ele>0.0</ele><time>2026-04-15T08:48:36.254Z</time></trkpt><trkpt lat="45.7313855" lon="12.6628591"><ele>0.0</ele><time>2026-04-15T08:48:37.265Z</time></trkpt><trkpt lat="45.7312773" lon="12.6625045"><ele>0.0</ele><time>2026-04-15T08:48:38.271Z</time></trkpt><trkpt lat="45.7311588" lon="12.6621468"><ele>0.0</ele><time>2026-04-15T08:48:39.262Z</time></trkpt><trkpt lat="45.7310386" lon="12.661766"><ele>0.5</ele><time>2026-04-15T08:48:40.237Z</time></trkpt><trkpt lat="45.7309204" lon="12.6613726"><ele>1.0</ele><time>2026-04-15T08:48:41.252Z</time></trkpt><trkpt lat="45.7307919" lon="12.6609698"><ele>1.0</ele><time>2026-04-15T08:48:42.264Z</time></trkpt><trkpt lat="45.7306653" lon="12.6605658"><ele>1.0</ele><time>2026-04-15T08:48:43.248Z</time></trkpt><trkpt lat="45.730533" lon="12.6601606"><ele>0.5</ele><time>2026-04-15T08:48:44.238Z</time></trkpt><trkpt lat="45.730401" lon="12.659754"><ele>0.0</ele><time>2026-04-15T08:48:45.257Z</time></trkpt><trkpt lat="45.7301397" lon="12.6589425"><ele>0.0</ele><time>2026-04-15T08:48:47.27Z</time></trkpt><trkpt lat="45.7300112" lon="12.6585372"><ele>0.0</ele><time>2026-04-15T08:48:48.239Z</time></trkpt><trkpt lat="45.7298815" lon="12.6581303"><ele>-0.5</ele><time>2026-04-15T08:48:49.261Z</time></trkpt><trkpt lat="45.7297565" lon="12.6577259"><ele>-1.0</ele><time>2026-04-15T08:48:50.267Z</time></trkpt><trkpt lat="45.7296335" lon="12.6573215"><ele>-1.0</ele><time>2026-04-15T08:48:51.237Z</time></trkpt><trkpt lat="45.7295094" lon="12.6569229"><ele>-1.0</ele><time>2026-04-15T08:48:52.244Z</time></trkpt><trkpt lat="45.7293776" lon="12.656524"><ele>-1.0</ele><time>2026-04-15T08:48:53.236Z</time></trkpt><trkpt lat="45.7292511" lon="12.6561291"><ele>-1.0</ele><time>2026-04-15T08:48:54.256Z</time></trkpt><trkpt lat="45.7291296" lon="12.6557396"><ele>-1.0</ele><time>2026-04-15T08:48:55.264Z</time></trkpt><trkpt lat="45.7290094" lon="12.6553552"><ele>-1.0</ele><time>2026-04-15T08:48:56.241Z</time></trkpt><trkpt lat="45.7287598" lon="12.6546045"><ele>-1.5</ele><time>2026-04-15T08:48:58.245Z</time></trkpt><trkpt lat="45.728638" lon="12.6542277"><ele>-2.0</ele><time>2026-04-15T08:48:59.25Z</time></trkpt><trkpt lat="45.7285202" lon="12.6538519"><ele>-2.5</ele><time>2026-04-15T08:49:00.245Z</time></trkpt><trkpt lat="45.7283996" lon="12.6534782"><ele>-3.0</ele><time>2026-04-15T08:49:01.262Z</time></trkpt><trkpt lat="45.7282741" lon="12.6531089"><ele>-3.0</ele><time>2026-04-15T08:49:02.26Z</time></trkpt><trkpt lat="45.7281431" lon="12.6527384"><ele>-3.0</ele><time>2026-04-15T08:49:03.245Z</time></trkpt><trkpt lat="45.7280159" lon="12.652368"><ele>-3.0</ele><time>2026-04-15T08:49:04.255Z</time></trkpt><trkpt lat="45.7278888" lon="12.6519979"><ele>-3.0</ele><time>2026-04-15T08:49:05.263Z</time></trkpt><trkpt lat="45.7277595" lon="12.6516313"><ele>-2.0</ele><time>2026-04-15T08:49:06.253Z</time></trkpt><trkpt lat="45.7276328" lon="12.6512712"><ele>-1.0</ele><time>2026-04-15T08:49:07.244Z</time></trkpt><trkpt lat="45.7275053" lon="12.6509236"><ele>-0.5</ele><time>2026-04-15T08:49:08.238Z</time></trkpt><trkpt lat="45.727378" lon="12.650577"><ele>0.0</ele><time>2026-04-15T08:49:09.25Z</time></trkpt><trkpt lat="45.7272456" lon="12.6502265"><ele>0.0</ele><time>2026-04-15T08:49:10.247Z</time></trkpt><trkpt lat="45.7271097" lon="12.6498715"><ele>0.0</ele><time>2026-04-15T08:49:11.253Z</time></trkpt><trkpt lat="45.7268462" lon="12.6491815"><ele>0.0</ele><time>2026-04-15T08:49:13.241Z</time></trkpt><trkpt lat="45.7267144" lon="12.6488395"><ele>0.0</ele><time>2026-04-15T08:49:14.25Z</time></trkpt><trkpt lat="45.7265808" lon="12.6484965"><ele>0.5</ele><time>2026-04-15T08:49:15.24Z</time></trkpt><trkpt lat="45.7264458" lon="12.648164"><ele>1.0</ele><time>2026-04-15T08:49:16.248Z</time></trkpt><trkpt lat="45.7263158" lon="12.647834"><ele>0.0</ele><time>2026-04-15T08:49:17.254Z</time></trkpt><trkpt lat="45.7261819" lon="12.64751"><ele>-1.0</ele><time>2026-04-15T08:49:18.237Z</time></trkpt><trkpt lat="45.7260492" lon="12.6471856"><ele>-1.0</ele><time>2026-04-15T08:49:19.253Z</time></trkpt><trkpt lat="45.7259151" lon="12.6468694"><ele>-1.0</ele><time>2026-04-15T08:49:20.242Z</time></trkpt><trkpt lat="45.7257802" lon="12.6465511"><ele>-1.0</ele><time>2026-04-15T08:49:21.253Z</time></trkpt><trkpt lat="45.7256446" lon="12.6462296"><ele>-1.0</ele><time>2026-04-15T08:49:22.252Z</time></trkpt><trkpt lat="45.7253664" lon="12.6455905"><ele>-2.0</ele><time>2026-04-15T08:49:24.243Z</time></trkpt><trkpt lat="45.7252273" lon="12.6452627"><ele>-3.0</ele><time>2026-04-15T08:49:25.249Z</time></trkpt><trkpt lat="45.7250849" lon="12.6449316"><ele>-3.0</ele><time>2026-04-15T08:49:26.256Z</time></trkpt><trkpt lat="45.7249337" lon="12.6445992"><ele>-3.0</ele><time>2026-04-15T08:49:27.248Z</time></trkpt><trkpt lat="45.7247813" lon="12.6442703"><ele>-3.0</ele><time>2026-04-15T08:49:28.24Z</time></trkpt><trkpt lat="45.7246234" lon="12.6439335"><ele>-3.0</ele><time>2026-04-15T08:49:29.246Z</time></trkpt><trkpt lat="45.72446" lon="12.6435811"><ele>-3.0</ele><time>2026-04-15T08:49:30.247Z</time></trkpt><trkpt lat="45.7242948" lon="12.6432275"><ele>-3.0</ele><time>2026-04-15T08:49:31.25Z</time></trkpt><trkpt lat="45.7241244" lon="12.6428782"><ele>-2.5</ele><time>2026-04-15T08:49:32.265Z</time></trkpt><trkpt lat="45.7239543" lon="12.6425302"><ele>-2.0</ele><time>2026-04-15T08:49:33.246Z</time></trkpt><trkpt lat="45.7236013" lon="12.6418243"><ele>-1.5</ele><time>2026-04-15T08:49:35.252Z</time></trkpt><trkpt lat="45.7234222" lon="12.6414595"><ele>-1.0</ele><time>2026-04-15T08:49:36.238Z</time></trkpt><trkpt lat="45.723238" lon="12.6410997"><ele>-0.5</ele><time>2026-04-15T08:49:37.243Z</time></trkpt><trkpt lat="45.7230541" lon="12.6407425"><ele>0.0</ele><time>2026-04-15T08:49:38.237Z</time></trkpt><trkpt lat="45.7228679" lon="12.6403837"><ele>0.0</ele><time>2026-04-15T08:49:39.241Z</time></trkpt><trkpt lat="45.7226793" lon="12.6400284"><ele>0.0</ele><time>2026-04-15T08:49:40.24Z</time></trkpt><trkpt lat="45.7224891" lon="12.6396716"><ele>0.0</ele><time>2026-04-15T08:49:41.242Z</time></trkpt><trkpt lat="45.7222934" lon="12.639316"><ele>0.0</ele><time>2026-04-15T08:49:42.26Z</time></trkpt><trkpt lat="45.7221011" lon="12.6389619"><ele>0.5</ele><time>2026-04-15T08:49:43.246Z</time></trkpt><trkpt lat="45.7219055" lon="12.6386054"><ele>1.0</ele><time>2026-04-15T08:49:44.236Z</time></trkpt><trkpt lat="45.7215105" lon="12.6379032"><ele>-1.5</ele><time>2026-04-15T08:49:46.254Z</time></trkpt><trkpt lat="45.7213193" lon="12.637557"><ele>-4.0</ele><time>2026-04-15T08:49:47.25Z</time></trkpt><trkpt lat="45.7211241" lon="12.6372183"><ele>-1.5</ele><time>2026-04-15T08:49:48.237Z</time></trkpt><trkpt lat="45.720931" lon="12.6368834"><ele>1.0</ele><time>2026-04-15T08:49:49.26Z</time></trkpt><trkpt lat="45.7207375" lon="12.6365555"><ele>1.0</ele><time>2026-04-15T08:49:50.254Z</time></trkpt><trkpt lat="45.7205515" lon="12.63623"><ele>1.0</ele><time>2026-04-15T08:49:51.25Z</time></trkpt><trkpt lat="45.7203702" lon="12.635917"><ele>-0.5</ele><time>2026-04-15T08:49:52.243Z</time></trkpt><trkpt lat="45.7201898" lon="12.6356119"><ele>-2.0</ele><time>2026-04-15T08:49:53.255Z</time></trkpt><trkpt lat="45.7200146" lon="12.6353061"><ele>-2.0</ele><time>2026-04-15T08:49:54.246Z</time></trkpt><trkpt lat="45.719844" lon="12.6350002"><ele>-2.0</ele><time>2026-04-15T08:49:55.25Z</time></trkpt><trkpt lat="45.7194944" lon="12.6344061"><ele>-1.0</ele><time>2026-04-15T08:49:57.292Z</time></trkpt><trkpt lat="45.7193243" lon="12.634109"><ele>0.0</ele><time>2026-04-15T08:49:58.247Z</time></trkpt><trkpt lat="45.7191527" lon="12.6338166"><ele>0.0</ele><time>2026-04-15T08:49:59.243Z</time></trkpt><trkpt lat="45.7189787" lon="12.6335208"><ele>0.0</ele><time>2026-04-15T08:50:00.232Z</time></trkpt><trkpt lat="45.7188005" lon="12.6332224"><ele>0.0</ele><time>2026-04-15T08:50:01.255Z</time></trkpt><trkpt lat="45.7186225" lon="12.6329217"><ele>0.0</ele><time>2026-04-15T08:50:02.239Z</time></trkpt><trkpt lat="45.7184454" lon="12.6326197"><ele>-1.0</ele><time>2026-04-15T08:50:03.249Z</time></trkpt><trkpt lat="45.7182683" lon="12.6323146"><ele>-2.0</ele><time>2026-04-15T08:50:04.23Z</time></trkpt><trkpt lat="45.7180908" lon="12.6320089"><ele>-2.0</ele><time>2026-04-15T08:50:05.248Z</time></trkpt><trkpt lat="45.7179182" lon="12.6317034"><ele>-2.0</ele><time>2026-04-15T08:50:06.248Z</time></trkpt><trkpt lat="45.7177462" lon="12.631396"><ele>0.0</ele><time>2026-04-15T08:50:07.252Z</time></trkpt><trkpt lat="45.7174042" lon="12.6307848"><ele>0.0</ele><time>2026-04-15T08:50:09.24Z</time></trkpt><trkpt lat="45.7172252" lon="12.6304789"><ele>0.0</ele><time>2026-04-15T08:50:10.239Z</time></trkpt><trkpt lat="45.7170473" lon="12.6301749"><ele>0.0</ele><time>2026-04-15T08:50:11.25Z</time></trkpt><trkpt lat="45.7168686" lon="12.6298679"><ele>0.0</ele><time>2026-04-15T08:50:12.246Z</time></trkpt><trkpt lat="45.7166906" lon="12.6295608"><ele>0.0</ele><time>2026-04-15T08:50:13.276Z</time></trkpt><trkpt lat="45.7165122" lon="12.6292575"><ele>0.0</ele><time>2026-04-15T08:50:14.243Z</time></trkpt><trkpt lat="45.7163358" lon="12.6289563"><ele>0.0</ele><time>2026-04-15T08:50:15.249Z</time></trkpt><trkpt lat="45.7161555" lon="12.6286484"><ele>0.0</ele><time>2026-04-15T08:50:16.242Z</time></trkpt><trkpt lat="45.7159739" lon="12.6283338"><ele>0.5</ele><time>2026-04-15T08:50:17.228Z</time></trkpt><trkpt lat="45.7157871" lon="12.628012"><ele>1.0</ele><time>2026-04-15T08:50:18.251Z</time></trkpt><trkpt lat="45.7155961" lon="12.6276889"><ele>1.0</ele><time>2026-04-15T08:50:19.235Z</time></trkpt><trkpt lat="45.7154047" lon="12.6273569"><ele>1.0</ele><time>2026-04-15T08:50:20.232Z</time></trkpt><trkpt lat="45.7152097" lon="12.6270226"><ele>0.5</ele><time>2026-04-15T08:50:21.229Z</time></trkpt><trkpt lat="45.715018" lon="12.6266822"><ele>0.0</ele><time>2026-04-15T08:50:22.246Z</time></trkpt><trkpt lat="45.7148195" lon="12.6263404"><ele>0.5</ele><time>2026-04-15T08:50:23.244Z</time></trkpt><trkpt lat="45.7146213" lon="12.6259959"><ele>1.0</ele><time>2026-04-15T08:50:24.248Z</time></trkpt><trkpt lat="45.7144189" lon="12.6256486"><ele>2.0</ele><time>2026-04-15T08:50:25.247Z</time></trkpt><trkpt lat="45.7140092" lon="12.6249431"><ele>2.0</ele><time>2026-04-15T08:50:27.247Z</time></trkpt><trkpt lat="45.7138062" lon="12.6245916"><ele>2.0</ele><time>2026-04-15T08:50:28.235Z</time></trkpt><trkpt lat="45.7136038" lon="12.6242474"><ele>1.0</ele><time>2026-04-15T08:50:29.248Z</time></trkpt><trkpt lat="45.7134026" lon="12.623903"><ele>0.0</ele><time>2026-04-15T08:50:30.227Z</time></trkpt><trkpt lat="45.7132019" lon="12.6235605"><ele>-0.5</ele><time>2026-04-15T08:50:31.252Z</time></trkpt><trkpt lat="45.7130015" lon="12.6232176"><ele>-1.0</ele><time>2026-04-15T08:50:32.226Z</time></trkpt><trkpt lat="45.7128035" lon="12.6228729"><ele>0.0</ele><time>2026-04-15T08:50:33.241Z</time></trkpt><trkpt lat="45.7126072" lon="12.622534"><ele>1.0</ele><time>2026-04-15T08:50:34.245Z</time></trkpt><trkpt lat="45.7124159" lon="12.622193"><ele>1.5</ele><time>2026-04-15T08:50:35.251Z</time></trkpt><trkpt lat="45.7122181" lon="12.6218539"><ele>2.0</ele><time>2026-04-15T08:50:36.242Z</time></trkpt><trkpt lat="45.7120207" lon="12.621527"><ele>2.0</ele><time>2026-04-15T08:50:37.249Z</time></trkpt><trkpt lat="45.7118276" lon="12.6211976"><ele>2.0</ele><time>2026-04-15T08:50:38.25Z</time></trkpt><trkpt lat="45.7116449" lon="12.6208677"><ele>2.0</ele><time>2026-04-15T08:50:39.258Z</time></trkpt><trkpt lat="45.711458" lon="12.6205431"><ele>2.0</ele><time>2026-04-15T08:50:40.235Z</time></trkpt><trkpt lat="45.7112689" lon="12.6202281"><ele>1.5</ele><time>2026-04-15T08:50:41.265Z</time></trkpt><trkpt lat="45.7110841" lon="12.6199088"><ele>1.0</ele><time>2026-04-15T08:50:42.24Z</time></trkpt><trkpt lat="45.7109071" lon="12.6195829"><ele>2.0</ele><time>2026-04-15T08:50:43.247Z</time></trkpt><trkpt lat="45.7107291" lon="12.6192666"><ele>3.0</ele><time>2026-04-15T08:50:44.24Z</time></trkpt><trkpt lat="45.7105469" lon="12.6189421"><ele>3.0</ele><time>2026-04-15T08:50:45.23Z</time></trkpt><trkpt lat="45.710377" lon="12.6186179"><ele>3.0</ele><time>2026-04-15T08:50:46.243Z</time></trkpt><trkpt lat="45.7101976" lon="12.6182869"><ele>2.5</ele><time>2026-04-15T08:50:47.233Z</time></trkpt><trkpt lat="45.7100116" lon="12.6179491"><ele>2.0</ele><time>2026-04-15T08:50:48.234Z</time></trkpt><trkpt lat="45.7096508" lon="12.6172676"><ele>2.0</ele><time>2026-04-15T08:50:50.249Z</time></trkpt><trkpt lat="45.7094735" lon="12.6169228"><ele>2.0</ele><time>2026-04-15T08:50:51.244Z</time></trkpt><trkpt lat="45.7093002" lon="12.6165751"><ele>2.0</ele><time>2026-04-15T08:50:52.236Z</time></trkpt><trkpt lat="45.709129" lon="12.6162288"><ele>2.0</ele><time>2026-04-15T08:50:53.235Z</time></trkpt><trkpt lat="45.7089564" lon="12.6158883"><ele>1.5</ele><time>2026-04-15T08:50:54.233Z</time></trkpt><trkpt lat="45.7087852" lon="12.6155475"><ele>1.0</ele><time>2026-04-15T08:50:55.236Z</time></trkpt><trkpt lat="45.7086181" lon="12.6152076"><ele>2.0</ele><time>2026-04-15T08:50:56.236Z</time></trkpt><trkpt lat="45.7084517" lon="12.6148654"><ele>3.0</ele><time>2026-04-15T08:50:57.229Z</time></trkpt><trkpt lat="45.7082886" lon="12.6145184"><ele>2.5</ele><time>2026-04-15T08:50:58.254Z</time></trkpt><trkpt lat="45.7081243" lon="12.614165"><ele>2.0</ele><time>2026-04-15T08:50:59.231Z</time></trkpt><trkpt lat="45.707798" lon="12.6134556"><ele>2.0</ele><time>2026-04-15T08:51:01.24Z</time></trkpt><trkpt lat="45.7076343" lon="12.6130955"><ele>2.0</ele><time>2026-04-15T08:51:02.234Z</time></trkpt><trkpt lat="45.7074687" lon="12.6127314"><ele>2.0</ele><time>2026-04-15T08:51:03.251Z</time></trkpt><trkpt lat="45.707308" lon="12.6123615"><ele>2.0</ele><time>2026-04-15T08:51:04.227Z</time></trkpt><trkpt lat="45.7071482" lon="12.611998"><ele>2.0</ele><time>2026-04-15T08:51:05.237Z</time></trkpt><trkpt lat="45.7069952" lon="12.611635"><ele>2.0</ele><time>2026-04-15T08:51:06.244Z</time></trkpt><trkpt lat="45.7066909" lon="12.6109098"><ele>1.5</ele><time>2026-04-15T08:51:08.242Z</time></trkpt><trkpt lat="45.7065438" lon="12.610553"><ele>1.0</ele><time>2026-04-15T08:51:09.23Z</time></trkpt><trkpt lat="45.706398" lon="12.6101955"><ele>1.0</ele><time>2026-04-15T08:51:10.241Z</time></trkpt><trkpt lat="45.7062522" lon="12.6098375"><ele>1.0</ele><time>2026-04-15T08:51:11.248Z</time></trkpt><trkpt lat="45.706108" lon="12.6094749"><ele>0.5</ele><time>2026-04-15T08:51:12.226Z</time></trkpt><trkpt lat="45.7059662" lon="12.6091078"><ele>0.0</ele><time>2026-04-15T08:51:13.23Z</time></trkpt><trkpt lat="45.705822" lon="12.608742"><ele>0.5</ele><time>2026-04-15T08:51:14.24Z</time></trkpt><trkpt lat="45.7056778" lon="12.6083681"><ele>1.0</ele><time>2026-04-15T08:51:15.236Z</time></trkpt><trkpt lat="45.7055337" lon="12.6079936"><ele>1.5</ele><time>2026-04-15T08:51:16.233Z</time></trkpt><trkpt lat="45.7053973" lon="12.6076204"><ele>2.0</ele><time>2026-04-15T08:51:17.228Z</time></trkpt><trkpt lat="45.705259" lon="12.6072438"><ele>1.5</ele><time>2026-04-15T08:51:18.235Z</time></trkpt><trkpt lat="45.7051226" lon="12.606873"><ele>1.0</ele><time>2026-04-15T08:51:19.223Z</time></trkpt><trkpt lat="45.7049905" lon="12.6065032"><ele>1.5</ele><time>2026-04-15T08:51:20.24Z</time></trkpt><trkpt lat="45.7048581" lon="12.6061312"><ele>2.0</ele><time>2026-04-15T08:51:21.23Z</time></trkpt><trkpt lat="45.7047225" lon="12.6057544"><ele>2.0</ele><time>2026-04-15T08:51:22.229Z</time></trkpt><trkpt lat="45.704583" lon="12.6053617"><ele>2.0</ele><time>2026-04-15T08:51:23.246Z</time></trkpt><trkpt lat="45.7044415" lon="12.6049658"><ele>2.0</ele><time>2026-04-15T08:51:24.239Z</time></trkpt><trkpt lat="45.7042995" lon="12.6045782"><ele>2.0</ele><time>2026-04-15T08:51:25.227Z</time></trkpt><trkpt lat="45.7041571" lon="12.6041851"><ele>2.0</ele><time>2026-04-15T08:51:26.239Z</time></trkpt><trkpt lat="45.7040199" lon="12.6037984"><ele>2.0</ele><time>2026-04-15T08:51:27.239Z</time></trkpt><trkpt lat="45.7037516" lon="12.603018"><ele>2.0</ele><time>2026-04-15T08:51:29.224Z</time></trkpt><trkpt lat="45.7036276" lon="12.602627"><ele>2.0</ele><time>2026-04-15T08:51:30.253Z</time></trkpt><trkpt lat="45.7035056" lon="12.6022461"><ele>1.5</ele><time>2026-04-15T08:51:31.221Z</time></trkpt><trkpt lat="45.7033718" lon="12.601875"><ele>1.0</ele><time>2026-04-15T08:51:32.224Z</time></trkpt><trkpt lat="45.7032344" lon="12.601507"><ele>1.5</ele><time>2026-04-15T08:51:33.223Z</time></trkpt><trkpt lat="45.7031005" lon="12.6011405"><ele>2.0</ele><time>2026-04-15T08:51:34.236Z</time></trkpt><trkpt lat="45.7029692" lon="12.6007773"><ele>2.0</ele><time>2026-04-15T08:51:35.25Z</time></trkpt><trkpt lat="45.7028392" lon="12.6004176"><ele>2.0</ele><time>2026-04-15T08:51:36.231Z</time></trkpt><trkpt lat="45.7027099" lon="12.6000572"><ele>2.0</ele><time>2026-04-15T08:51:37.219Z</time></trkpt><trkpt lat="45.7025821" lon="12.5997035"><ele>2.0</ele><time>2026-04-15T08:51:38.24Z</time></trkpt><trkpt lat="45.7023291" lon="12.5989945"><ele>2.0</ele><time>2026-04-15T08:51:40.23Z</time></trkpt><trkpt lat="45.7022037" lon="12.5986444"><ele>2.0</ele><time>2026-04-15T08:51:41.232Z</time></trkpt><trkpt lat="45.702076" lon="12.5983013"><ele>2.0</ele><time>2026-04-15T08:51:42.25Z</time></trkpt><trkpt lat="45.7019472" lon="12.5979523"><ele>2.0</ele><time>2026-04-15T08:51:43.241Z</time></trkpt><trkpt lat="45.7018118" lon="12.5976061"><ele>2.0</ele><time>2026-04-15T08:51:44.225Z</time></trkpt><trkpt lat="45.7016794" lon="12.597265"><ele>2.0</ele><time>2026-04-15T08:51:45.251Z</time></trkpt><trkpt lat="45.7015486" lon="12.5969163"><ele>2.0</ele><time>2026-04-15T08:51:46.221Z</time></trkpt><trkpt lat="45.701421" lon="12.5965639"><ele>2.0</ele><time>2026-04-15T08:51:47.239Z</time></trkpt><trkpt lat="45.7012858" lon="12.5962044"><ele>2.0</ele><time>2026-04-15T08:51:48.232Z</time></trkpt><trkpt lat="45.7011533" lon="12.595839"><ele>2.0</ele><time>2026-04-15T08:51:49.239Z</time></trkpt><trkpt lat="45.701027" lon="12.5954732"><ele>0.5</ele><time>2026-04-15T08:51:50.229Z</time></trkpt><trkpt lat="45.7008982" lon="12.5951086"><ele>-1.0</ele><time>2026-04-15T08:51:51.248Z</time></trkpt><trkpt lat="45.7007639" lon="12.5947473"><ele>-0.5</ele><time>2026-04-15T08:51:52.224Z</time></trkpt><trkpt lat="45.7006308" lon="12.5943765"><ele>0.0</ele><time>2026-04-15T08:51:53.234Z</time></trkpt><trkpt lat="45.7003708" lon="12.5936452"><ele>1.0</ele><time>2026-04-15T08:51:55.235Z</time></trkpt><trkpt lat="45.7002427" lon="12.5932809"><ele>2.0</ele><time>2026-04-15T08:51:56.221Z</time></trkpt><trkpt lat="45.7001138" lon="12.5929173"><ele>2.5</ele><time>2026-04-15T08:51:57.227Z</time></trkpt><trkpt lat="45.6999838" lon="12.592555"><ele>3.0</ele><time>2026-04-15T08:51:58.226Z</time></trkpt><trkpt lat="45.6998547" lon="12.5921961"><ele>2.5</ele><time>2026-04-15T08:51:59.239Z</time></trkpt><trkpt lat="45.6997253" lon="12.5918388"><ele>2.0</ele><time>2026-04-15T08:52:00.224Z</time></trkpt><trkpt lat="45.6995951" lon="12.5914793"><ele>1.0</ele><time>2026-04-15T08:52:01.239Z</time></trkpt><trkpt lat="45.699465" lon="12.5911188"><ele>0.0</ele><time>2026-04-15T08:52:02.231Z</time></trkpt><trkpt lat="45.699332" lon="12.5907609"><ele>0.0</ele><time>2026-04-15T08:52:03.226Z</time></trkpt><trkpt lat="45.6991961" lon="12.5904061"><ele>0.0</ele><time>2026-04-15T08:52:04.226Z</time></trkpt><trkpt lat="45.6990591" lon="12.5900468"><ele>0.0</ele><time>2026-04-15T08:52:05.226Z</time></trkpt><trkpt lat="45.6989206" lon="12.5896829"><ele>0.0</ele><time>2026-04-15T08:52:06.236Z</time></trkpt><trkpt lat="45.6987803" lon="12.5893177"><ele>0.0</ele><time>2026-04-15T08:52:07.23Z</time></trkpt><trkpt lat="45.6986395" lon="12.5889567"><ele>0.0</ele><time>2026-04-15T08:52:08.232Z</time></trkpt><trkpt lat="45.6984965" lon="12.588598"><ele>0.0</ele><time>2026-04-15T08:52:09.242Z</time></trkpt><trkpt lat="45.6983506" lon="12.5882413"><ele>0.0</ele><time>2026-04-15T08:52:10.236Z</time></trkpt><trkpt lat="45.6982017" lon="12.5878876"><ele>0.0</ele><time>2026-04-15T08:52:11.23Z</time></trkpt><trkpt lat="45.6980593" lon="12.5875311"><ele>0.0</ele><time>2026-04-15T08:52:12.259Z</time></trkpt><trkpt lat="45.6979114" lon="12.587169"><ele>0.5</ele><time>2026-04-15T08:52:13.231Z</time></trkpt><trkpt lat="45.6977594" lon="12.5868115"><ele>1.0</ele><time>2026-04-15T08:52:14.227Z</time></trkpt><trkpt lat="45.6976105" lon="12.5864553"><ele>0.5</ele><time>2026-04-15T08:52:15.244Z</time></trkpt><trkpt lat="45.6974557" lon="12.5860978"><ele>0.0</ele><time>2026-04-15T08:52:16.234Z</time></trkpt><trkpt lat="45.6972992" lon="12.585736"><ele>0.0</ele><time>2026-04-15T08:52:17.226Z</time></trkpt><trkpt lat="45.6971415" lon="12.5853769"><ele>0.0</ele><time>2026-04-15T08:52:18.229Z</time></trkpt><trkpt lat="45.6969845" lon="12.5850182"><ele>0.0</ele><time>2026-04-15T08:52:19.234Z</time></trkpt><trkpt lat="45.6968231" lon="12.5846595"><ele>0.0</ele><time>2026-04-15T08:52:20.218Z</time></trkpt><trkpt lat="45.696476" lon="12.5838962"><ele>-0.5</ele><time>2026-04-15T08:52:22.239Z</time></trkpt><trkpt lat="45.6962888" lon="12.5834973"><ele>-1.0</ele><time>2026-04-15T08:52:23.218Z</time></trkpt><trkpt lat="45.6960968" lon="12.5830833"><ele>0.5</ele><time>2026-04-15T08:52:24.24Z</time></trkpt><trkpt lat="45.6959038" lon="12.5826699"><ele>2.0</ele><time>2026-04-15T08:52:25.22Z</time></trkpt><trkpt lat="45.6957143" lon="12.5822632"><ele>2.0</ele><time>2026-04-15T08:52:26.242Z</time></trkpt><trkpt lat="45.6955257" lon="12.5818669"><ele>2.0</ele><time>2026-04-15T08:52:27.248Z</time></trkpt><trkpt lat="45.6953412" lon="12.5814814"><ele>1.0</ele><time>2026-04-15T08:52:28.22Z</time></trkpt><trkpt lat="45.6951586" lon="12.5811045"><ele>0.0</ele><time>2026-04-15T08:52:29.231Z</time></trkpt><trkpt lat="45.694982" lon="12.5807327"><ele>0.0</ele><time>2026-04-15T08:52:30.233Z</time></trkpt><trkpt lat="45.6948065" lon="12.5803658"><ele>0.0</ele><time>2026-04-15T08:52:31.244Z</time></trkpt><trkpt lat="45.6946302" lon="12.5799961"><ele>0.0</ele><time>2026-04-15T08:52:32.22Z</time></trkpt><trkpt lat="45.6944586" lon="12.5796364"><ele>0.0</ele><time>2026-04-15T08:52:33.217Z</time></trkpt><trkpt lat="45.6942862" lon="12.5792783"><ele>0.0</ele><time>2026-04-15T08:52:34.235Z</time></trkpt><trkpt lat="45.6941132" lon="12.5789173"><ele>0.0</ele><time>2026-04-15T08:52:35.216Z</time></trkpt><trkpt lat="45.6939428" lon="12.5785554"><ele>0.5</ele><time>2026-04-15T08:52:36.241Z</time></trkpt><trkpt lat="45.6937739" lon="12.5781912"><ele>1.0</ele><time>2026-04-15T08:52:37.221Z</time></trkpt><trkpt lat="45.6936003" lon="12.5778309"><ele>0.0</ele><time>2026-04-15T08:52:38.236Z</time></trkpt><trkpt lat="45.6934317" lon="12.5774787"><ele>-1.0</ele><time>2026-04-15T08:52:39.233Z</time></trkpt><trkpt lat="45.6932701" lon="12.5771468"><ele>-1.0</ele><time>2026-04-15T08:52:40.223Z</time></trkpt><trkpt lat="45.6931188" lon="12.5768259"><ele>-1.0</ele><time>2026-04-15T08:52:41.236Z</time></trkpt><trkpt lat="45.6929678" lon="12.5765118"><ele>-1.0</ele><time>2026-04-15T08:52:42.235Z</time></trkpt><trkpt lat="45.6928228" lon="12.5761977"><ele>-1.0</ele><time>2026-04-15T08:52:43.234Z</time></trkpt><trkpt lat="45.6926702" lon="12.5758845"><ele>-1.5</ele><time>2026-04-15T08:52:44.216Z</time></trkpt><trkpt lat="45.6925164" lon="12.5755681"><ele>-2.0</ele><time>2026-04-15T08:52:45.231Z</time></trkpt><trkpt lat="45.6923629" lon="12.5752517"><ele>-2.5</ele><time>2026-04-15T08:52:46.227Z</time></trkpt><trkpt lat="45.6922142" lon="12.5749321"><ele>-3.0</ele><time>2026-04-15T08:52:47.23Z</time></trkpt><trkpt lat="45.6920642" lon="12.574614"><ele>-2.0</ele><time>2026-04-15T08:52:48.236Z</time></trkpt><trkpt lat="45.6919122" lon="12.5742968"><ele>-1.0</ele><time>2026-04-15T08:52:49.223Z</time></trkpt><trkpt lat="45.6917593" lon="12.5739793"><ele>0.0</ele><time>2026-04-15T08:52:50.224Z</time></trkpt><trkpt lat="45.6916082" lon="12.5736626"><ele>1.0</ele><time>2026-04-15T08:52:51.234Z</time></trkpt><trkpt lat="45.6914581" lon="12.5733486"><ele>1.0</ele><time>2026-04-15T08:52:52.231Z</time></trkpt><trkpt lat="45.6913058" lon="12.5730333"><ele>1.0</ele><time>2026-04-15T08:52:53.225Z</time></trkpt><trkpt lat="45.6911572" lon="12.5727226"><ele>-0.5</ele><time>2026-04-15T08:52:54.23Z</time></trkpt><trkpt lat="45.6910066" lon="12.5724057"><ele>-2.0</ele><time>2026-04-15T08:52:55.229Z</time></trkpt><trkpt lat="45.6908535" lon="12.5720891"><ele>-1.5</ele><time>2026-04-15T08:52:56.229Z</time></trkpt><trkpt lat="45.6906987" lon="12.5717628"><ele>-1.0</ele><time>2026-04-15T08:52:57.253Z</time></trkpt><trkpt lat="45.6905432" lon="12.571439"><ele>-0.5</ele><time>2026-04-15T08:52:58.238Z</time></trkpt><trkpt lat="45.6903871" lon="12.571115"><ele>0.0</ele><time>2026-04-15T08:52:59.225Z</time></trkpt><trkpt lat="45.690233" lon="12.5707902"><ele>0.0</ele><time>2026-04-15T08:53:00.222Z</time></trkpt><trkpt lat="45.6900766" lon="12.5704616"><ele>0.0</ele><time>2026-04-15T08:53:01.23Z</time></trkpt><trkpt lat="45.6899194" lon="12.5701318"><ele>0.5</ele><time>2026-04-15T08:53:02.224Z</time></trkpt><trkpt lat="45.6897603" lon="12.5697944"><ele>1.0</ele><time>2026-04-15T08:53:03.221Z</time></trkpt><trkpt lat="45.6895995" lon="12.5694612"><ele>1.0</ele><time>2026-04-15T08:53:04.21Z</time></trkpt><trkpt lat="45.6894373" lon="12.5691287"><ele>1.0</ele><time>2026-04-15T08:53:05.213Z</time></trkpt><trkpt lat="45.6891241" lon="12.5684393"><ele>0.5</ele><time>2026-04-15T08:53:07.261Z</time></trkpt><trkpt lat="45.6889631" lon="12.5680958"><ele>0.0</ele><time>2026-04-15T08:53:08.212Z</time></trkpt><trkpt lat="45.6887999" lon="12.567757"><ele>0.0</ele><time>2026-04-15T08:53:09.224Z</time></trkpt><trkpt lat="45.6886332" lon="12.5674182"><ele>0.0</ele><time>2026-04-15T08:53:10.226Z</time></trkpt><trkpt lat="45.6884665" lon="12.5670733"><ele>0.5</ele><time>2026-04-15T08:53:11.229Z</time></trkpt><trkpt lat="45.6882996" lon="12.566734"><ele>1.0</ele><time>2026-04-15T08:53:12.21Z</time></trkpt><trkpt lat="45.6881357" lon="12.5663925"><ele>1.0</ele><time>2026-04-15T08:53:13.229Z</time></trkpt><trkpt lat="45.6879765" lon="12.5660499"><ele>1.0</ele><time>2026-04-15T08:53:14.225Z</time></trkpt><trkpt lat="45.6878139" lon="12.5657114"><ele>1.0</ele><time>2026-04-15T08:53:15.226Z</time></trkpt><trkpt lat="45.6876521" lon="12.5653705"><ele>1.0</ele><time>2026-04-15T08:53:16.216Z</time></trkpt><trkpt lat="45.6874869" lon="12.5650305"><ele>1.0</ele><time>2026-04-15T08:53:17.223Z</time></trkpt><trkpt lat="45.6873254" lon="12.564687"><ele>1.0</ele><time>2026-04-15T08:53:18.214Z</time></trkpt><trkpt lat="45.6871625" lon="12.5643517"><ele>1.5</ele><time>2026-04-15T08:53:19.232Z</time></trkpt><trkpt lat="45.6870037" lon="12.5640129"><ele>2.0</ele><time>2026-04-15T08:53:20.218Z</time></trkpt><trkpt lat="45.6868423" lon="12.5636708"><ele>2.0</ele><time>2026-04-15T08:53:21.222Z</time></trkpt><trkpt lat="45.6866785" lon="12.5633255"><ele>2.0</ele><time>2026-04-15T08:53:22.233Z</time></trkpt><trkpt lat="45.6865112" lon="12.5629849"><ele>1.5</ele><time>2026-04-15T08:53:23.233Z</time></trkpt><trkpt lat="45.6863468" lon="12.5626374"><ele>1.0</ele><time>2026-04-15T08:53:24.239Z</time></trkpt><trkpt lat="45.6861857" lon="12.5622887"><ele>0.0</ele><time>2026-04-15T08:53:25.215Z</time></trkpt><trkpt lat="45.6860194" lon="12.5619456"><ele>-1.0</ele><time>2026-04-15T08:53:26.226Z</time></trkpt><trkpt lat="45.685847" lon="12.5615992"><ele>-1.0</ele><time>2026-04-15T08:53:27.236Z</time></trkpt><trkpt lat="45.6856805" lon="12.5612498"><ele>-1.0</ele><time>2026-04-15T08:53:28.235Z</time></trkpt><trkpt lat="45.6855142" lon="12.5608969"><ele>-2.0</ele><time>2026-04-15T08:53:29.221Z</time></trkpt><trkpt lat="45.6853464" lon="12.5605362"><ele>-3.0</ele><time>2026-04-15T08:53:30.228Z</time></trkpt><trkpt lat="45.6851748" lon="12.560175"><ele>-1.0</ele><time>2026-04-15T08:53:31.239Z</time></trkpt><trkpt lat="45.685" lon="12.5598116"><ele>1.0</ele><time>2026-04-15T08:53:32.214Z</time></trkpt><trkpt lat="45.6848217" lon="12.5594483"><ele>1.5</ele><time>2026-04-15T08:53:33.225Z</time></trkpt><trkpt lat="45.6846468" lon="12.559076"><ele>2.0</ele><time>2026-04-15T08:53:34.253Z</time></trkpt><trkpt lat="45.6844724" lon="12.5587069"><ele>1.0</ele><time>2026-04-15T08:53:35.228Z</time></trkpt><trkpt lat="45.6842994" lon="12.5583384"><ele>0.0</ele><time>2026-04-15T08:53:36.214Z</time></trkpt><trkpt lat="45.6841249" lon="12.5579729"><ele>0.5</ele><time>2026-04-15T08:53:37.212Z</time></trkpt><trkpt lat="45.6839494" lon="12.5576075"><ele>1.0</ele><time>2026-04-15T08:53:38.237Z</time></trkpt><trkpt lat="45.6837761" lon="12.5572439"><ele>1.0</ele><time>2026-04-15T08:53:39.222Z</time></trkpt><trkpt lat="45.6836033" lon="12.5568812"><ele>1.0</ele><time>2026-04-15T08:53:40.216Z</time></trkpt><trkpt lat="45.6834297" lon="12.5565184"><ele>1.0</ele><time>2026-04-15T08:53:41.213Z</time></trkpt><trkpt lat="45.6832583" lon="12.5561574"><ele>1.0</ele><time>2026-04-15T08:53:42.222Z</time></trkpt><trkpt lat="45.6830868" lon="12.555799"><ele>1.0</ele><time>2026-04-15T08:53:43.23Z</time></trkpt><trkpt lat="45.6829137" lon="12.555444"><ele>1.0</ele><time>2026-04-15T08:53:44.21Z</time></trkpt><trkpt lat="45.6827456" lon="12.555086"><ele>1.5</ele><time>2026-04-15T08:53:45.232Z</time></trkpt><trkpt lat="45.6825768" lon="12.5547339"><ele>2.0</ele><time>2026-04-15T08:53:46.231Z</time></trkpt><trkpt lat="45.6824098" lon="12.5543777"><ele>2.0</ele><time>2026-04-15T08:53:47.231Z</time></trkpt><trkpt lat="45.682245" lon="12.5540272"><ele>2.0</ele><time>2026-04-15T08:53:48.208Z</time></trkpt><trkpt lat="45.682081" lon="12.553681"><ele>0.0</ele><time>2026-04-15T08:53:49.222Z</time></trkpt><trkpt lat="45.6819198" lon="12.5533367"><ele>-2.0</ele><time>2026-04-15T08:53:50.208Z</time></trkpt><trkpt lat="45.6817522" lon="12.5529909"><ele>-2.0</ele><time>2026-04-15T08:53:51.241Z</time></trkpt><trkpt lat="45.6815797" lon="12.5526338"><ele>-2.0</ele><time>2026-04-15T08:53:52.21Z</time></trkpt><trkpt lat="45.681407" lon="12.552273"><ele>-1.0</ele><time>2026-04-15T08:53:53.208Z</time></trkpt><trkpt lat="45.6812349" lon="12.5519106"><ele>0.0</ele><time>2026-04-15T08:53:54.235Z</time></trkpt><trkpt lat="45.6810592" lon="12.5515463"><ele>0.0</ele><time>2026-04-15T08:53:55.238Z</time></trkpt><trkpt lat="45.6808809" lon="12.5511818"><ele>0.0</ele><time>2026-04-15T08:53:56.229Z</time></trkpt><trkpt lat="45.6807024" lon="12.5508125"><ele>0.0</ele><time>2026-04-15T08:53:57.231Z</time></trkpt><trkpt lat="45.6805249" lon="12.5504424"><ele>0.0</ele><time>2026-04-15T08:53:58.222Z</time></trkpt><trkpt lat="45.680353" lon="12.5500697"><ele>0.0</ele><time>2026-04-15T08:53:59.206Z</time></trkpt><trkpt lat="45.6801736" lon="12.5497003"><ele>0.0</ele><time>2026-04-15T08:54:00.218Z</time></trkpt><trkpt lat="45.679998" lon="12.5493293"><ele>0.0</ele><time>2026-04-15T08:54:01.217Z</time></trkpt><trkpt lat="45.6798338" lon="12.5489523"><ele>0.0</ele><time>2026-04-15T08:54:02.221Z</time></trkpt><trkpt lat="45.6796762" lon="12.5485793"><ele>0.0</ele><time>2026-04-15T08:54:03.235Z</time></trkpt><trkpt lat="45.679508" lon="12.5482146"><ele>0.0</ele><time>2026-04-15T08:54:04.223Z</time></trkpt><trkpt lat="45.6793291" lon="12.5478678"><ele>2.0</ele><time>2026-04-15T08:54:05.217Z</time></trkpt><trkpt lat="45.6790002" lon="12.547162"><ele>2.0</ele><time>2026-04-15T08:54:07.217Z</time></trkpt><trkpt lat="45.678836" lon="12.5468188"><ele>2.0</ele><time>2026-04-15T08:54:08.219Z</time></trkpt><trkpt lat="45.6786718" lon="12.5464829"><ele>2.0</ele><time>2026-04-15T08:54:09.223Z</time></trkpt><trkpt lat="45.6785153" lon="12.5461388"><ele>2.0</ele><time>2026-04-15T08:54:10.208Z</time></trkpt><trkpt lat="45.6783543" lon="12.5457971"><ele>2.0</ele><time>2026-04-15T08:54:11.227Z</time></trkpt><trkpt lat="45.6781854" lon="12.5454742"><ele>2.0</ele><time>2026-04-15T08:54:12.216Z</time></trkpt><trkpt lat="45.6780228" lon="12.545135"><ele>2.0</ele><time>2026-04-15T08:54:13.225Z</time></trkpt><trkpt lat="45.677861" lon="12.5447829"><ele>2.0</ele><time>2026-04-15T08:54:14.21Z</time></trkpt><trkpt lat="45.6776931" lon="12.5444274"><ele>1.5</ele><time>2026-04-15T08:54:15.205Z</time></trkpt><trkpt lat="45.6775215" lon="12.5440783"><ele>1.0</ele><time>2026-04-15T08:54:16.207Z</time></trkpt><trkpt lat="45.6773557" lon="12.5437235"><ele>0.5</ele><time>2026-04-15T08:54:17.205Z</time></trkpt><trkpt lat="45.6771862" lon="12.5433685"><ele>0.0</ele><time>2026-04-15T08:54:18.221Z</time></trkpt><trkpt lat="45.6770164" lon="12.5430123"><ele>-0.5</ele><time>2026-04-15T08:54:19.219Z</time></trkpt><trkpt lat="45.6768478" lon="12.542657"><ele>-1.0</ele><time>2026-04-15T08:54:20.207Z</time></trkpt><trkpt lat="45.6766809" lon="12.5423034"><ele>-0.5</ele><time>2026-04-15T08:54:21.215Z</time></trkpt><trkpt lat="45.6765141" lon="12.5419521"><ele>0.0</ele><time>2026-04-15T08:54:22.224Z</time></trkpt><trkpt lat="45.6763437" lon="12.5415935"><ele>0.0</ele><time>2026-04-15T08:54:23.213Z</time></trkpt><trkpt lat="45.676173" lon="12.5412345"><ele>0.0</ele><time>2026-04-15T08:54:24.209Z</time></trkpt><trkpt lat="45.6759976" lon="12.5408721"><ele>0.0</ele><time>2026-04-15T08:54:25.21Z</time></trkpt><trkpt lat="45.6758237" lon="12.5405081"><ele>0.0</ele><time>2026-04-15T08:54:26.233Z</time></trkpt><trkpt lat="45.6756494" lon="12.5401431"><ele>0.0</ele><time>2026-04-15T08:54:27.211Z</time></trkpt><trkpt lat="45.6754785" lon="12.5397796"><ele>0.0</ele><time>2026-04-15T08:54:28.216Z</time></trkpt><trkpt lat="45.675307" lon="12.539419"><ele>0.5</ele><time>2026-04-15T08:54:29.217Z</time></trkpt><trkpt lat="45.6751374" lon="12.5390593"><ele>1.0</ele><time>2026-04-15T08:54:30.213Z</time></trkpt><trkpt lat="45.674968" lon="12.5387004"><ele>1.5</ele><time>2026-04-15T08:54:31.218Z</time></trkpt><trkpt lat="45.6747988" lon="12.5383436"><ele>2.0</ele><time>2026-04-15T08:54:32.204Z</time></trkpt><trkpt lat="45.6746284" lon="12.5379851"><ele>1.5</ele><time>2026-04-15T08:54:33.221Z</time></trkpt><trkpt lat="45.6744577" lon="12.5376318"><ele>1.0</ele><time>2026-04-15T08:54:34.218Z</time></trkpt><trkpt lat="45.6742904" lon="12.537281"><ele>2.5</ele><time>2026-04-15T08:54:35.227Z</time></trkpt><trkpt lat="45.674125" lon="12.5369292"><ele>4.0</ele><time>2026-04-15T08:54:36.225Z</time></trkpt><trkpt lat="45.6739606" lon="12.5365827"><ele>4.0</ele><time>2026-04-15T08:54:37.224Z</time></trkpt><trkpt lat="45.6737932" lon="12.5362405"><ele>4.0</ele><time>2026-04-15T08:54:38.214Z</time></trkpt><trkpt lat="45.6736256" lon="12.5359004"><ele>2.5</ele><time>2026-04-15T08:54:39.231Z</time></trkpt><trkpt lat="45.6734622" lon="12.5355617"><ele>1.0</ele><time>2026-04-15T08:54:40.211Z</time></trkpt><trkpt lat="45.6733035" lon="12.5352189"><ele>1.0</ele><time>2026-04-15T08:54:41.23Z</time></trkpt><trkpt lat="45.6731399" lon="12.5348807"><ele>1.0</ele><time>2026-04-15T08:54:42.219Z</time></trkpt><trkpt lat="45.6729775" lon="12.5345473"><ele>1.0</ele><time>2026-04-15T08:54:43.209Z</time></trkpt><trkpt lat="45.6728168" lon="12.5342108"><ele>1.0</ele><time>2026-04-15T08:54:44.224Z</time></trkpt><trkpt lat="45.6726567" lon="12.5338769"><ele>0.5</ele><time>2026-04-15T08:54:45.204Z</time></trkpt><trkpt lat="45.6724977" lon="12.533542"><ele>0.0</ele><time>2026-04-15T08:54:46.212Z</time></trkpt><trkpt lat="45.6723343" lon="12.5332053"><ele>0.5</ele><time>2026-04-15T08:54:47.217Z</time></trkpt><trkpt lat="45.6721727" lon="12.5328722"><ele>1.0</ele><time>2026-04-15T08:54:48.205Z</time></trkpt><trkpt lat="45.6720149" lon="12.5325322"><ele>1.0</ele><time>2026-04-15T08:54:49.212Z</time></trkpt><trkpt lat="45.6718566" lon="12.5322046"><ele>1.0</ele><time>2026-04-15T08:54:50.222Z</time></trkpt><trkpt lat="45.6716997" lon="12.5318689"><ele>1.0</ele><time>2026-04-15T08:54:51.218Z</time></trkpt><trkpt lat="45.6715408" lon="12.5315368"><ele>1.0</ele><time>2026-04-15T08:54:52.217Z</time></trkpt><trkpt lat="45.6713834" lon="12.5312151"><ele>1.5</ele><time>2026-04-15T08:54:53.228Z</time></trkpt><trkpt lat="45.6712289" lon="12.5308906"><ele>2.0</ele><time>2026-04-15T08:54:54.213Z</time></trkpt><trkpt lat="45.671075" lon="12.5305618"><ele>2.0</ele><time>2026-04-15T08:54:55.222Z</time></trkpt><trkpt lat="45.6709211" lon="12.5302309"><ele>2.0</ele><time>2026-04-15T08:54:56.227Z</time></trkpt><trkpt lat="45.6707613" lon="12.5298986"><ele>2.0</ele><time>2026-04-15T08:54:57.207Z</time></trkpt><trkpt lat="45.6706003" lon="12.5295641"><ele>2.0</ele><time>2026-04-15T08:54:58.209Z</time></trkpt><trkpt lat="45.6702841" lon="12.5288994"><ele>2.5</ele><time>2026-04-15T08:55:00.197Z</time></trkpt><trkpt lat="45.6701261" lon="12.528553"><ele>3.0</ele><time>2026-04-15T08:55:01.214Z</time></trkpt><trkpt lat="45.6699654" lon="12.528199"><ele>2.0</ele><time>2026-04-15T08:55:02.223Z</time></trkpt><trkpt lat="45.669804" lon="12.5278413"><ele>1.0</ele><time>2026-04-15T08:55:03.232Z</time></trkpt><trkpt lat="45.6696439" lon="12.5274802"><ele>1.0</ele><time>2026-04-15T08:55:04.212Z</time></trkpt><trkpt lat="45.6694845" lon="12.5271189"><ele>1.0</ele><time>2026-04-15T08:55:05.216Z</time></trkpt><trkpt lat="45.6693214" lon="12.5267518"><ele>1.0</ele><time>2026-04-15T08:55:06.21Z</time></trkpt><trkpt lat="45.6691641" lon="12.5263884"><ele>1.0</ele><time>2026-04-15T08:55:07.205Z</time></trkpt><trkpt lat="45.6690008" lon="12.5260196"><ele>2.0</ele><time>2026-04-15T08:55:08.199Z</time></trkpt><trkpt lat="45.6686802" lon="12.5252725"><ele>2.0</ele><time>2026-04-15T08:55:10.209Z</time></trkpt><trkpt lat="45.668532" lon="12.5248917"><ele>2.0</ele><time>2026-04-15T08:55:11.219Z</time></trkpt><trkpt lat="45.6683738" lon="12.5245214"><ele>2.0</ele><time>2026-04-15T08:55:12.239Z</time></trkpt><trkpt lat="45.6682099" lon="12.5241583"><ele>2.0</ele><time>2026-04-15T08:55:13.212Z</time></trkpt><trkpt lat="45.6680526" lon="12.5237855"><ele>2.5</ele><time>2026-04-15T08:55:14.223Z</time></trkpt><trkpt lat="45.6679081" lon="12.5233994"><ele>3.0</ele><time>2026-04-15T08:55:15.214Z</time></trkpt><trkpt lat="45.6677563" lon="12.5230295"><ele>4.0</ele><time>2026-04-15T08:55:16.206Z</time></trkpt><trkpt lat="45.6675968" lon="12.5226718"><ele>5.0</ele><time>2026-04-15T08:55:17.211Z</time></trkpt><trkpt lat="45.6674459" lon="12.5223024"><ele>5.0</ele><time>2026-04-15T08:55:18.211Z</time></trkpt><trkpt lat="45.6673072" lon="12.5219234"><ele>5.0</ele><time>2026-04-15T08:55:19.223Z</time></trkpt><trkpt lat="45.667164" lon="12.5215537"><ele>5.0</ele><time>2026-04-15T08:55:20.218Z</time></trkpt><trkpt lat="45.6670083" lon="12.5211938"><ele>5.0</ele><time>2026-04-15T08:55:21.202Z</time></trkpt><trkpt lat="45.6668593" lon="12.5208203"><ele>6.0</ele><time>2026-04-15T08:55:22.214Z</time></trkpt><trkpt lat="45.6667176" lon="12.5204451"><ele>7.0</ele><time>2026-04-15T08:55:23.214Z</time></trkpt><trkpt lat="45.6665724" lon="12.5200681"><ele>7.0</ele><time>2026-04-15T08:55:24.213Z</time></trkpt><trkpt lat="45.6664082" lon="12.5197064"><ele>7.0</ele><time>2026-04-15T08:55:25.199Z</time></trkpt><trkpt lat="45.6662488" lon="12.5193391"><ele>8.5</ele><time>2026-04-15T08:55:26.213Z</time></trkpt><trkpt lat="45.666108" lon="12.5189662"><ele>10.0</ele><time>2026-04-15T08:55:27.222Z</time></trkpt><trkpt lat="45.665966" lon="12.5186039"><ele>10.0</ele><time>2026-04-15T08:55:28.212Z</time></trkpt><trkpt lat="45.6658201" lon="12.5182416"><ele>10.0</ele><time>2026-04-15T08:55:29.209Z</time></trkpt><trkpt lat="45.6656655" lon="12.5178789"><ele>7.5</ele><time>2026-04-15T08:55:30.213Z</time></trkpt><trkpt lat="45.665512" lon="12.5175139"><ele>5.0</ele><time>2026-04-15T08:55:31.215Z</time></trkpt><trkpt lat="45.6651993" lon="12.5167673"><ele>5.0</ele><time>2026-04-15T08:55:33.219Z</time></trkpt><trkpt lat="45.6650429" lon="12.5163943"><ele>5.0</ele><time>2026-04-15T08:55:34.215Z</time></trkpt><trkpt lat="45.6648978" lon="12.5160212"><ele>5.0</ele><time>2026-04-15T08:55:35.21Z</time></trkpt><trkpt lat="45.6647506" lon="12.5156499"><ele>5.0</ele><time>2026-04-15T08:55:36.217Z</time></trkpt><trkpt lat="45.6646004" lon="12.5152754"><ele>5.0</ele><time>2026-04-15T08:55:37.198Z</time></trkpt><trkpt lat="45.6644479" lon="12.5149024"><ele>5.0</ele><time>2026-04-15T08:55:38.206Z</time></trkpt><trkpt lat="45.6642939" lon="12.514527"><ele>5.0</ele><time>2026-04-15T08:55:39.219Z</time></trkpt><trkpt lat="45.6641357" lon="12.5141473"><ele>5.0</ele><time>2026-04-15T08:55:40.204Z</time></trkpt><trkpt lat="45.6639785" lon="12.5137651"><ele>5.0</ele><time>2026-04-15T08:55:41.217Z</time></trkpt><trkpt lat="45.6638192" lon="12.513384"><ele>5.0</ele><time>2026-04-15T08:55:42.211Z</time></trkpt><trkpt lat="45.6636562" lon="12.5130071"><ele>6.0</ele><time>2026-04-15T08:55:43.21Z</time></trkpt><trkpt lat="45.6634926" lon="12.512628"><ele>7.0</ele><time>2026-04-15T08:55:44.204Z</time></trkpt><trkpt lat="45.6633287" lon="12.5122527"><ele>5.5</ele><time>2026-04-15T08:55:45.197Z</time></trkpt><trkpt lat="45.6631643" lon="12.5118705"><ele>4.0</ele><time>2026-04-15T08:55:46.21Z</time></trkpt><trkpt lat="45.6630024" lon="12.5114959"><ele>4.5</ele><time>2026-04-15T08:55:47.219Z</time></trkpt><trkpt lat="45.6628355" lon="12.5111242"><ele>5.0</ele><time>2026-04-15T08:55:48.214Z</time></trkpt><trkpt lat="45.6626699" lon="12.5107506"><ele>6.0</ele><time>2026-04-15T08:55:49.198Z</time></trkpt><trkpt lat="45.6625046" lon="12.5103828"><ele>7.0</ele><time>2026-04-15T08:55:50.221Z</time></trkpt><trkpt lat="45.6623398" lon="12.5100171"><ele>7.0</ele><time>2026-04-15T08:55:51.215Z</time></trkpt><trkpt lat="45.6621764" lon="12.509652"><ele>7.0</ele><time>2026-04-15T08:55:52.201Z</time></trkpt><trkpt lat="45.6620179" lon="12.5092949"><ele>5.5</ele><time>2026-04-15T08:55:53.207Z</time></trkpt><trkpt lat="45.6618569" lon="12.5089395"><ele>4.0</ele><time>2026-04-15T08:55:54.201Z</time></trkpt><trkpt lat="45.6616932" lon="12.5085848"><ele>4.0</ele><time>2026-04-15T08:55:55.224Z</time></trkpt><trkpt lat="45.6615325" lon="12.5082346"><ele>4.0</ele><time>2026-04-15T08:55:56.199Z</time></trkpt><trkpt lat="45.6613746" lon="12.5078819"><ele>4.0</ele><time>2026-04-15T08:55:57.204Z</time></trkpt><trkpt lat="45.6612126" lon="12.5075363"><ele>4.0</ele><time>2026-04-15T08:55:58.209Z</time></trkpt><trkpt lat="45.6610574" lon="12.5071969"><ele>4.5</ele><time>2026-04-15T08:55:59.212Z</time></trkpt><trkpt lat="45.6608973" lon="12.5068483"><ele>5.0</ele><time>2026-04-15T08:56:00.198Z</time></trkpt><trkpt lat="45.6607346" lon="12.5064919"><ele>4.5</ele><time>2026-04-15T08:56:01.304Z</time></trkpt><trkpt lat="45.6605712" lon="12.5061333"><ele>4.0</ele><time>2026-04-15T08:56:02.223Z</time></trkpt><trkpt lat="45.6603971" lon="12.5057769"><ele>4.5</ele><time>2026-04-15T08:56:03.204Z</time></trkpt><trkpt lat="45.66021" lon="12.5054104"><ele>5.0</ele><time>2026-04-15T08:56:04.203Z</time></trkpt><trkpt lat="45.6600242" lon="12.5050333"><ele>5.0</ele><time>2026-04-15T08:56:05.21Z</time></trkpt><trkpt lat="45.659845" lon="12.5046494"><ele>5.0</ele><time>2026-04-15T08:56:06.212Z</time></trkpt><trkpt lat="45.6596684" lon="12.5042646"><ele>4.5</ele><time>2026-04-15T08:56:07.209Z</time></trkpt><trkpt lat="45.6594995" lon="12.5038802"><ele>4.0</ele><time>2026-04-15T08:56:08.213Z</time></trkpt><trkpt lat="45.6593321" lon="12.5035024"><ele>3.0</ele><time>2026-04-15T08:56:09.321Z</time></trkpt><trkpt lat="45.6590073" lon="12.5027459"><ele>3.0</ele><time>2026-04-15T08:56:11.208Z</time></trkpt><trkpt lat="45.6588448" lon="12.5023692"><ele>3.0</ele><time>2026-04-15T08:56:12.211Z</time></trkpt><trkpt lat="45.6586878" lon="12.5019922"><ele>2.0</ele><time>2026-04-15T08:56:13.202Z</time></trkpt><trkpt lat="45.6583652" lon="12.5012389"><ele>2.0</ele><time>2026-04-15T08:56:15.237Z</time></trkpt><trkpt lat="45.6582047" lon="12.5008564"><ele>2.0</ele><time>2026-04-15T08:56:16.317Z</time></trkpt><trkpt lat="45.6578766" lon="12.5000898"><ele>1.5</ele><time>2026-04-15T08:56:18.208Z</time></trkpt><trkpt lat="45.657708" lon="12.4997004"><ele>1.0</ele><time>2026-04-15T08:56:19.213Z</time></trkpt><trkpt lat="45.6575401" lon="12.4993106"><ele>1.0</ele><time>2026-04-15T08:56:20.206Z</time></trkpt><trkpt lat="45.6573706" lon="12.4989169"><ele>1.0</ele><time>2026-04-15T08:56:21.313Z</time></trkpt><trkpt lat="45.6572056" lon="12.4985281"><ele>1.5</ele><time>2026-04-15T08:56:22.307Z</time></trkpt><trkpt lat="45.6570439" lon="12.4981412"><ele>2.0</ele><time>2026-04-15T08:56:23.298Z</time></trkpt><trkpt lat="45.6568828" lon="12.4977593"><ele>2.0</ele><time>2026-04-15T08:56:24.214Z</time></trkpt><trkpt lat="45.656723" lon="12.4973757"><ele>2.0</ele><time>2026-04-15T08:56:25.197Z</time></trkpt><trkpt lat="45.6565621" lon="12.4969928"><ele>2.5</ele><time>2026-04-15T08:56:26.21Z</time></trkpt><trkpt lat="45.6563993" lon="12.4966209"><ele>3.0</ele><time>2026-04-15T08:56:27.299Z</time></trkpt><trkpt lat="45.6562349" lon="12.4962447"><ele>3.0</ele><time>2026-04-15T08:56:28.307Z</time></trkpt><trkpt lat="45.6560706" lon="12.4958667"><ele>3.0</ele><time>2026-04-15T08:56:29.311Z</time></trkpt><trkpt lat="45.6559053" lon="12.495486"><ele>2.5</ele><time>2026-04-15T08:56:30.295Z</time></trkpt><trkpt lat="45.6557442" lon="12.4951085"><ele>2.0</ele><time>2026-04-15T08:56:31.212Z</time></trkpt><trkpt lat="45.6555893" lon="12.4947348"><ele>2.5</ele><time>2026-04-15T08:56:32.201Z</time></trkpt><trkpt lat="45.6554383" lon="12.4943624"><ele>3.0</ele><time>2026-04-15T08:56:33.306Z</time></trkpt><trkpt lat="45.655292" lon="12.4939892"><ele>2.5</ele><time>2026-04-15T08:56:34.299Z</time></trkpt><trkpt lat="45.6551409" lon="12.4936164"><ele>2.0</ele><time>2026-04-15T08:56:35.295Z</time></trkpt><trkpt lat="45.6549874" lon="12.4932441"><ele>2.5</ele><time>2026-04-15T08:56:36.314Z</time></trkpt><trkpt lat="45.6548326" lon="12.4928739"><ele>3.0</ele><time>2026-04-15T08:56:37.319Z</time></trkpt><trkpt lat="45.6546768" lon="12.4925056"><ele>3.0</ele><time>2026-04-15T08:56:38.22Z</time></trkpt><trkpt lat="45.6545205" lon="12.4921312"><ele>3.0</ele><time>2026-04-15T08:56:39.215Z</time></trkpt><trkpt lat="45.6543627" lon="12.4917608"><ele>2.5</ele><time>2026-04-15T08:56:40.319Z</time></trkpt><trkpt lat="45.6542077" lon="12.4913905"><ele>2.0</ele><time>2026-04-15T08:56:41.32Z</time></trkpt><trkpt lat="45.6540545" lon="12.4910248"><ele>2.0</ele><time>2026-04-15T08:56:42.299Z</time></trkpt><trkpt lat="45.653901" lon="12.4906572"><ele>2.0</ele><time>2026-04-15T08:56:43.303Z</time></trkpt><trkpt lat="45.6537466" lon="12.4902918"><ele>2.0</ele><time>2026-04-15T08:56:44.315Z</time></trkpt><trkpt lat="45.6534408" lon="12.4895603"><ele>2.0</ele><time>2026-04-15T08:56:46.211Z</time></trkpt><trkpt lat="45.6532845" lon="12.4891931"><ele>2.0</ele><time>2026-04-15T08:56:47.318Z</time></trkpt><trkpt lat="45.6531339" lon="12.4888291"><ele>2.0</ele><time>2026-04-15T08:56:48.318Z</time></trkpt><trkpt lat="45.6529756" lon="12.4884648"><ele>2.0</ele><time>2026-04-15T08:56:49.313Z</time></trkpt><trkpt lat="45.6528213" lon="12.4881009"><ele>2.0</ele><time>2026-04-15T08:56:50.306Z</time></trkpt><trkpt lat="45.6526662" lon="12.4877391"><ele>2.0</ele><time>2026-04-15T08:56:51.297Z</time></trkpt><trkpt lat="45.6525133" lon="12.4873741"><ele>2.0</ele><time>2026-04-15T08:56:52.206Z</time></trkpt><trkpt lat="45.6522035" lon="12.4866543"><ele>2.0</ele><time>2026-04-15T08:56:54.308Z</time></trkpt><trkpt lat="45.6520491" lon="12.4862948"><ele>2.0</ele><time>2026-04-15T08:56:55.307Z</time></trkpt><trkpt lat="45.6518972" lon="12.4859329"><ele>2.0</ele><time>2026-04-15T08:56:56.304Z</time></trkpt><trkpt lat="45.6517508" lon="12.4855696"><ele>2.0</ele><time>2026-04-15T08:56:57.313Z</time></trkpt><trkpt lat="45.6515994" lon="12.4852096"><ele>2.5</ele><time>2026-04-15T08:56:58.299Z</time></trkpt><trkpt lat="45.6514463" lon="12.4848542"><ele>3.0</ele><time>2026-04-15T08:56:59.205Z</time></trkpt><trkpt lat="45.6512919" lon="12.4844947"><ele>1.5</ele><time>2026-04-15T08:57:00.322Z</time></trkpt><trkpt lat="45.6511437" lon="12.4841383"><ele>0.0</ele><time>2026-04-15T08:57:01.307Z</time></trkpt><trkpt lat="45.650992" lon="12.4837788"><ele>0.5</ele><time>2026-04-15T08:57:02.292Z</time></trkpt><trkpt lat="45.6508371" lon="12.4834219"><ele>1.0</ele><time>2026-04-15T08:57:03.316Z</time></trkpt><trkpt lat="45.6506866" lon="12.483068"><ele>2.0</ele><time>2026-04-15T08:57:04.302Z</time></trkpt><trkpt lat="45.6505384" lon="12.4827148"><ele>3.0</ele><time>2026-04-15T08:57:05.3Z</time></trkpt><trkpt lat="45.6503895" lon="12.48236"><ele>2.5</ele><time>2026-04-15T08:57:06.296Z</time></trkpt><trkpt lat="45.6502395" lon="12.4820113"><ele>2.0</ele><time>2026-04-15T08:57:07.311Z</time></trkpt><trkpt lat="45.6500901" lon="12.4816602"><ele>2.0</ele><time>2026-04-15T08:57:08.308Z</time></trkpt><trkpt lat="45.6499417" lon="12.4813158"><ele>2.0</ele><time>2026-04-15T08:57:09.304Z</time></trkpt><trkpt lat="45.6497863" lon="12.4809776"><ele>2.0</ele><time>2026-04-15T08:57:10.293Z</time></trkpt><trkpt lat="45.649629" lon="12.4806331"><ele>2.0</ele><time>2026-04-15T08:57:11.307Z</time></trkpt><trkpt lat="45.6494673" lon="12.4802927"><ele>3.0</ele><time>2026-04-15T08:57:12.314Z</time></trkpt><trkpt lat="45.6493074" lon="12.4799533"><ele>4.0</ele><time>2026-04-15T08:57:13.312Z</time></trkpt><trkpt lat="45.6491507" lon="12.4796132"><ele>3.5</ele><time>2026-04-15T08:57:14.312Z</time></trkpt><trkpt lat="45.6489943" lon="12.4792734"><ele>3.0</ele><time>2026-04-15T08:57:15.303Z</time></trkpt><trkpt lat="45.6488329" lon="12.4789319"><ele>3.0</ele><time>2026-04-15T08:57:16.306Z</time></trkpt><trkpt lat="45.6486701" lon="12.4785988"><ele>3.0</ele><time>2026-04-15T08:57:17.312Z</time></trkpt><trkpt lat="45.6485035" lon="12.4782681"><ele>3.5</ele><time>2026-04-15T08:57:18.309Z</time></trkpt><trkpt lat="45.6483364" lon="12.4779378"><ele>4.0</ele><time>2026-04-15T08:57:19.299Z</time></trkpt><trkpt lat="45.6481597" lon="12.4775965"><ele>3.0</ele><time>2026-04-15T08:57:20.312Z</time></trkpt><trkpt lat="45.6479799" lon="12.477249"><ele>2.0</ele><time>2026-04-15T08:57:21.316Z</time></trkpt><trkpt lat="45.6477974" lon="12.4768986"><ele>2.5</ele><time>2026-04-15T08:57:22.302Z</time></trkpt><trkpt lat="45.6476149" lon="12.4765556"><ele>3.0</ele><time>2026-04-15T08:57:23.311Z</time></trkpt><trkpt lat="45.6474335" lon="12.476221"><ele>3.0</ele><time>2026-04-15T08:57:24.303Z</time></trkpt><trkpt lat="45.6472537" lon="12.475889"><ele>3.0</ele><time>2026-04-15T08:57:25.304Z</time></trkpt><trkpt lat="45.6470688" lon="12.475555"><ele>3.5</ele><time>2026-04-15T08:57:26.29Z</time></trkpt><trkpt lat="45.6468771" lon="12.4752067"><ele>4.0</ele><time>2026-04-15T08:57:27.305Z</time></trkpt><trkpt lat="45.6466822" lon="12.4748556"><ele>3.5</ele><time>2026-04-15T08:57:28.31Z</time></trkpt><trkpt lat="45.6464936" lon="12.4745149"><ele>3.0</ele><time>2026-04-15T08:57:29.302Z</time></trkpt><trkpt lat="45.646305" lon="12.4741756"><ele>2.5</ele><time>2026-04-15T08:57:30.293Z</time></trkpt><trkpt lat="45.64612" lon="12.4738404"><ele>2.0</ele><time>2026-04-15T08:57:31.311Z</time></trkpt><trkpt lat="45.6459393" lon="12.4735054"><ele>1.5</ele><time>2026-04-15T08:57:32.3Z</time></trkpt><trkpt lat="45.6457615" lon="12.4731833"><ele>1.0</ele><time>2026-04-15T08:57:33.316Z</time></trkpt><trkpt lat="45.6455852" lon="12.4728711"><ele>1.0</ele><time>2026-04-15T08:57:34.298Z</time></trkpt><trkpt lat="45.6454057" lon="12.4725463"><ele>1.0</ele><time>2026-04-15T08:57:35.302Z</time></trkpt><trkpt lat="45.645224" lon="12.4722116"><ele>0.5</ele><time>2026-04-15T08:57:36.306Z</time></trkpt><trkpt lat="45.645039" lon="12.4718776"><ele>0.0</ele><time>2026-04-15T08:57:37.303Z</time></trkpt><trkpt lat="45.6448494" lon="12.4715398"><ele>0.0</ele><time>2026-04-15T08:57:38.299Z</time></trkpt><trkpt lat="45.6446606" lon="12.4712004"><ele>0.0</ele><time>2026-04-15T08:57:39.299Z</time></trkpt><trkpt lat="45.6444656" lon="12.4708557"><ele>0.0</ele><time>2026-04-15T08:57:40.297Z</time></trkpt><trkpt lat="45.6442687" lon="12.47051"><ele>0.0</ele><time>2026-04-15T08:57:41.313Z</time></trkpt><trkpt lat="45.6440788" lon="12.4701559"><ele>0.0</ele><time>2026-04-15T08:57:42.3Z</time></trkpt><trkpt lat="45.6438851" lon="12.4698092"><ele>0.0</ele><time>2026-04-15T08:57:43.307Z</time></trkpt><trkpt lat="45.64369" lon="12.4694611"><ele>0.5</ele><time>2026-04-15T08:57:44.309Z</time></trkpt><trkpt lat="45.6434984" lon="12.4691171"><ele>1.0</ele><time>2026-04-15T08:57:45.312Z</time></trkpt><trkpt lat="45.643305" lon="12.4687742"><ele>1.5</ele><time>2026-04-15T08:57:46.302Z</time></trkpt><trkpt lat="45.6431137" lon="12.4684291"><ele>2.0</ele><time>2026-04-15T08:57:47.31Z</time></trkpt><trkpt lat="45.642924" lon="12.4680845"><ele>2.5</ele><time>2026-04-15T08:57:48.306Z</time></trkpt><trkpt lat="45.6427364" lon="12.4677449"><ele>3.0</ele><time>2026-04-15T08:57:49.302Z</time></trkpt><trkpt lat="45.642547" lon="12.4673962"><ele>2.5</ele><time>2026-04-15T08:57:50.288Z</time></trkpt><trkpt lat="45.6423543" lon="12.4670528"><ele>2.0</ele><time>2026-04-15T08:57:51.308Z</time></trkpt><trkpt lat="45.6421595" lon="12.4667161"><ele>2.0</ele><time>2026-04-15T08:57:52.318Z</time></trkpt><trkpt lat="45.6419669" lon="12.4663764"><ele>2.0</ele><time>2026-04-15T08:57:53.308Z</time></trkpt><trkpt lat="45.6416079" lon="12.465682"><ele>1.0</ele><time>2026-04-15T08:57:55.306Z</time></trkpt><trkpt lat="45.6414142" lon="12.4653633"><ele>0.0</ele><time>2026-04-15T08:57:56.315Z</time></trkpt><trkpt lat="45.6412253" lon="12.4650368"><ele>0.5</ele><time>2026-04-15T08:57:57.298Z</time></trkpt><trkpt lat="45.6410526" lon="12.4646934"><ele>1.0</ele><time>2026-04-15T08:57:58.309Z</time></trkpt><trkpt lat="45.6408742" lon="12.4643613"><ele>1.5</ele><time>2026-04-15T08:57:59.305Z</time></trkpt><trkpt lat="45.6406786" lon="12.464046"><ele>2.0</ele><time>2026-04-15T08:58:00.297Z</time></trkpt><trkpt lat="45.6405002" lon="12.4637193"><ele>2.0</ele><time>2026-04-15T08:58:01.303Z</time></trkpt><trkpt lat="45.6403321" lon="12.4633845"><ele>2.0</ele><time>2026-04-15T08:58:02.288Z</time></trkpt><trkpt lat="45.6401534" lon="12.4630623"><ele>1.5</ele><time>2026-04-15T08:58:03.313Z</time></trkpt><trkpt lat="45.639968" lon="12.4627538"><ele>1.0</ele><time>2026-04-15T08:58:04.302Z</time></trkpt><trkpt lat="45.6397842" lon="12.462438"><ele>1.0</ele><time>2026-04-15T08:58:05.295Z</time></trkpt><trkpt lat="45.6396034" lon="12.4621171"><ele>1.0</ele><time>2026-04-15T08:58:06.299Z</time></trkpt><trkpt lat="45.6394229" lon="12.4617896"><ele>1.5</ele><time>2026-04-15T08:58:07.303Z</time></trkpt><trkpt lat="45.6392423" lon="12.4614659"><ele>2.0</ele><time>2026-04-15T08:58:08.286Z</time></trkpt><trkpt lat="45.6390636" lon="12.4611423"><ele>2.0</ele><time>2026-04-15T08:58:09.298Z</time></trkpt><trkpt lat="45.6388804" lon="12.460818"><ele>2.0</ele><time>2026-04-15T08:58:10.301Z</time></trkpt><trkpt lat="45.6387029" lon="12.4604935"><ele>1.0</ele><time>2026-04-15T08:58:11.3Z</time></trkpt><trkpt lat="45.6385259" lon="12.4601734"><ele>0.0</ele><time>2026-04-15T08:58:12.293Z</time></trkpt><trkpt lat="45.6383447" lon="12.459853"><ele>0.0</ele><time>2026-04-15T08:58:13.309Z</time></trkpt><trkpt lat="45.6381691" lon="12.4595314"><ele>0.0</ele><time>2026-04-15T08:58:14.289Z</time></trkpt><trkpt lat="45.6379926" lon="12.4592117"><ele>0.0</ele><time>2026-04-15T08:58:15.298Z</time></trkpt><trkpt lat="45.6378132" lon="12.458886"><ele>0.0</ele><time>2026-04-15T08:58:16.312Z</time></trkpt><trkpt lat="45.6376352" lon="12.4585628"><ele>0.0</ele><time>2026-04-15T08:58:17.298Z</time></trkpt><trkpt lat="45.637452" lon="12.4582404"><ele>0.0</ele><time>2026-04-15T08:58:18.294Z</time></trkpt><trkpt lat="45.6372745" lon="12.4579158"><ele>0.0</ele><time>2026-04-15T08:58:19.295Z</time></trkpt><trkpt lat="45.6370948" lon="12.4575917"><ele>0.0</ele><time>2026-04-15T08:58:20.296Z</time></trkpt><trkpt lat="45.6369124" lon="12.4572607"><ele>0.5</ele><time>2026-04-15T08:58:21.291Z</time></trkpt><trkpt lat="45.6367326" lon="12.4569374"><ele>1.0</ele><time>2026-04-15T08:58:22.286Z</time></trkpt><trkpt lat="45.6365484" lon="12.4566136"><ele>0.5</ele><time>2026-04-15T08:58:23.298Z</time></trkpt><trkpt lat="45.6363644" lon="12.4562859"><ele>0.0</ele><time>2026-04-15T08:58:24.3Z</time></trkpt><trkpt lat="45.6361821" lon="12.4559588"><ele>0.5</ele><time>2026-04-15T08:58:25.304Z</time></trkpt><trkpt lat="45.6360014" lon="12.4556297"><ele>1.0</ele><time>2026-04-15T08:58:26.291Z</time></trkpt><trkpt lat="45.635816" lon="12.4553004"><ele>1.0</ele><time>2026-04-15T08:58:27.297Z</time></trkpt><trkpt lat="45.635629" lon="12.4549714"><ele>1.0</ele><time>2026-04-15T08:58:28.289Z</time></trkpt><trkpt lat="45.6354418" lon="12.4546428"><ele>1.5</ele><time>2026-04-15T08:58:29.304Z</time></trkpt><trkpt lat="45.6352584" lon="12.4543112"><ele>2.0</ele><time>2026-04-15T08:58:30.29Z</time></trkpt><trkpt lat="45.6350744" lon="12.4539763"><ele>1.5</ele><time>2026-04-15T08:58:31.284Z</time></trkpt><trkpt lat="45.6348864" lon="12.4536403"><ele>1.0</ele><time>2026-04-15T08:58:32.297Z</time></trkpt><trkpt lat="45.6347011" lon="12.4533048"><ele>1.0</ele><time>2026-04-15T08:58:33.295Z</time></trkpt><trkpt lat="45.6345128" lon="12.4529711"><ele>1.0</ele><time>2026-04-15T08:58:34.291Z</time></trkpt><trkpt lat="45.6343241" lon="12.4526359"><ele>2.0</ele><time>2026-04-15T08:58:35.281Z</time></trkpt><trkpt lat="45.6341337" lon="12.452299"><ele>3.0</ele><time>2026-04-15T08:58:36.287Z</time></trkpt><trkpt lat="45.6339468" lon="12.4519556"><ele>3.0</ele><time>2026-04-15T08:58:37.302Z</time></trkpt><trkpt lat="45.6335728" lon="12.451274"><ele>3.0</ele><time>2026-04-15T08:58:39.303Z</time></trkpt><trkpt lat="45.6333769" lon="12.4509435"><ele>3.0</ele><time>2026-04-15T08:58:40.297Z</time></trkpt><trkpt lat="45.6331807" lon="12.4506132"><ele>3.5</ele><time>2026-04-15T08:58:41.298Z</time></trkpt><trkpt lat="45.6329882" lon="12.4502733"><ele>4.0</ele><time>2026-04-15T08:58:42.298Z</time></trkpt><trkpt lat="45.6327994" lon="12.4499207"><ele>4.0</ele><time>2026-04-15T08:58:43.282Z</time></trkpt><trkpt lat="45.6326129" lon="12.4495639"><ele>4.0</ele><time>2026-04-15T08:58:44.295Z</time></trkpt><trkpt lat="45.6324241" lon="12.4492043"><ele>4.0</ele><time>2026-04-15T08:58:45.291Z</time></trkpt><trkpt lat="45.6322375" lon="12.4488452"><ele>4.0</ele><time>2026-04-15T08:58:46.286Z</time></trkpt><trkpt lat="45.63205" lon="12.4484828"><ele>4.0</ele><time>2026-04-15T08:58:47.285Z</time></trkpt><trkpt lat="45.6318624" lon="12.4481221"><ele>4.0</ele><time>2026-04-15T08:58:48.288Z</time></trkpt><trkpt lat="45.6316816" lon="12.447759"><ele>4.0</ele><time>2026-04-15T08:58:49.303Z</time></trkpt><trkpt lat="45.6315011" lon="12.4473902"><ele>4.0</ele><time>2026-04-15T08:58:50.285Z</time></trkpt><trkpt lat="45.6313195" lon="12.4470215"><ele>4.0</ele><time>2026-04-15T08:58:51.291Z</time></trkpt><trkpt lat="45.6311435" lon="12.4466572"><ele>4.0</ele><time>2026-04-15T08:58:52.297Z</time></trkpt><trkpt lat="45.6309719" lon="12.4462908"><ele>3.5</ele><time>2026-04-15T08:58:53.297Z</time></trkpt><trkpt lat="45.6308029" lon="12.4459232"><ele>3.0</ele><time>2026-04-15T08:58:54.299Z</time></trkpt><trkpt lat="45.6306313" lon="12.4455544"><ele>3.0</ele><time>2026-04-15T08:58:55.294Z</time></trkpt><trkpt lat="45.6304614" lon="12.4451907"><ele>3.0</ele><time>2026-04-15T08:58:56.296Z</time></trkpt><trkpt lat="45.6302915" lon="12.4448277"><ele>2.0</ele><time>2026-04-15T08:58:57.289Z</time></trkpt><trkpt lat="45.6301264" lon="12.4444613"><ele>1.0</ele><time>2026-04-15T08:58:58.31Z</time></trkpt><trkpt lat="45.6299639" lon="12.4440956"><ele>1.0</ele><time>2026-04-15T08:58:59.283Z</time></trkpt><trkpt lat="45.6297986" lon="12.4437318"><ele>1.0</ele><time>2026-04-15T08:59:00.289Z</time></trkpt><trkpt lat="45.6294619" lon="12.4430064"><ele>1.0</ele><time>2026-04-15T08:59:02.285Z</time></trkpt><trkpt lat="45.629296" lon="12.4426431"><ele>1.0</ele><time>2026-04-15T08:59:03.285Z</time></trkpt><trkpt lat="45.6291301" lon="12.4422795"><ele>0.5</ele><time>2026-04-15T08:59:04.292Z</time></trkpt><trkpt lat="45.6289669" lon="12.4419174"><ele>0.0</ele><time>2026-04-15T08:59:05.292Z</time></trkpt><trkpt lat="45.628799" lon="12.4415511"><ele>0.5</ele><time>2026-04-15T08:59:06.298Z</time></trkpt><trkpt lat="45.6286339" lon="12.4411894"><ele>1.0</ele><time>2026-04-15T08:59:07.293Z</time></trkpt><trkpt lat="45.6284694" lon="12.4408272"><ele>1.0</ele><time>2026-04-15T08:59:08.289Z</time></trkpt><trkpt lat="45.6283006" lon="12.4404681"><ele>1.0</ele><time>2026-04-15T08:59:09.297Z</time></trkpt><trkpt lat="45.6281328" lon="12.4401079"><ele>1.0</ele><time>2026-04-15T08:59:10.301Z</time></trkpt><trkpt lat="45.6278005" lon="12.4393836"><ele>1.0</ele><time>2026-04-15T08:59:12.302Z</time></trkpt><trkpt lat="45.6276386" lon="12.4390248"><ele>1.0</ele><time>2026-04-15T08:59:13.277Z</time></trkpt><trkpt lat="45.6274752" lon="12.4386655"><ele>1.0</ele><time>2026-04-15T08:59:14.29Z</time></trkpt><trkpt lat="45.6273125" lon="12.4383069"><ele>1.0</ele><time>2026-04-15T08:59:15.291Z</time></trkpt><trkpt lat="45.6271503" lon="12.4379491"><ele>2.0</ele><time>2026-04-15T08:59:16.287Z</time></trkpt><trkpt lat="45.6268251" lon="12.4372367"><ele>2.5</ele><time>2026-04-15T08:59:18.3Z</time></trkpt><trkpt lat="45.6266613" lon="12.4368756"><ele>3.0</ele><time>2026-04-15T08:59:19.301Z</time></trkpt><trkpt lat="45.6264958" lon="12.4365159"><ele>2.5</ele><time>2026-04-15T08:59:20.314Z</time></trkpt><trkpt lat="45.6263338" lon="12.4361565"><ele>2.0</ele><time>2026-04-15T08:59:21.315Z</time></trkpt><trkpt lat="45.6261715" lon="12.4357996"><ele>1.5</ele><time>2026-04-15T08:59:22.296Z</time></trkpt><trkpt lat="45.6260065" lon="12.4354416"><ele>1.0</ele><time>2026-04-15T08:59:23.28Z</time></trkpt><trkpt lat="45.6258474" lon="12.4350882"><ele>1.0</ele><time>2026-04-15T08:59:24.294Z</time></trkpt><trkpt lat="45.6256852" lon="12.4347344"><ele>1.0</ele><time>2026-04-15T08:59:25.28Z</time></trkpt><trkpt lat="45.6255235" lon="12.4343819"><ele>1.5</ele><time>2026-04-15T08:59:26.299Z</time></trkpt><trkpt lat="45.6253633" lon="12.4340297"><ele>2.0</ele><time>2026-04-15T08:59:27.29Z</time></trkpt><trkpt lat="45.6251998" lon="12.4336732"><ele>3.5</ele><time>2026-04-15T08:59:28.286Z</time></trkpt><trkpt lat="45.6250396" lon="12.4333123"><ele>5.0</ele><time>2026-04-15T08:59:29.293Z</time></trkpt><trkpt lat="45.6248762" lon="12.4329595"><ele>5.0</ele><time>2026-04-15T08:59:30.3Z</time></trkpt><trkpt lat="45.6247127" lon="12.4326022"><ele>5.0</ele><time>2026-04-15T08:59:31.288Z</time></trkpt><trkpt lat="45.6245443" lon="12.4322378"><ele>4.0</ele><time>2026-04-15T08:59:32.314Z</time></trkpt><trkpt lat="45.6243795" lon="12.4318703"><ele>3.0</ele><time>2026-04-15T08:59:33.301Z</time></trkpt><trkpt lat="45.6242083" lon="12.4315023"><ele>1.5</ele><time>2026-04-15T08:59:34.292Z</time></trkpt><trkpt lat="45.6240336" lon="12.4311426"><ele>0.0</ele><time>2026-04-15T08:59:35.281Z</time></trkpt><trkpt lat="45.623866" lon="12.4307763"><ele>0.5</ele><time>2026-04-15T08:59:36.295Z</time></trkpt><trkpt lat="45.6237075" lon="12.4304082"><ele>1.0</ele><time>2026-04-15T08:59:37.296Z</time></trkpt><trkpt lat="45.6235508" lon="12.4300396"><ele>1.0</ele><time>2026-04-15T08:59:38.288Z</time></trkpt><trkpt lat="45.6233873" lon="12.4296717"><ele>1.0</ele><time>2026-04-15T08:59:39.276Z</time></trkpt><trkpt lat="45.623222" lon="12.4293096"><ele>1.5</ele><time>2026-04-15T08:59:40.284Z</time></trkpt><trkpt lat="45.6230532" lon="12.4289438"><ele>2.0</ele><time>2026-04-15T08:59:41.291Z</time></trkpt><trkpt lat="45.6228845" lon="12.4285746"><ele>2.0</ele><time>2026-04-15T08:59:42.293Z</time></trkpt><trkpt lat="45.6227227" lon="12.4282091"><ele>2.0</ele><time>2026-04-15T08:59:43.287Z</time></trkpt><trkpt lat="45.6225556" lon="12.4278403"><ele>2.0</ele><time>2026-04-15T08:59:44.286Z</time></trkpt><trkpt lat="45.6223899" lon="12.4274707"><ele>2.0</ele><time>2026-04-15T08:59:45.275Z</time></trkpt><trkpt lat="45.6222234" lon="12.4271132"><ele>2.5</ele><time>2026-04-15T08:59:46.291Z</time></trkpt><trkpt lat="45.6220572" lon="12.4267552"><ele>3.0</ele><time>2026-04-15T08:59:47.29Z</time></trkpt><trkpt lat="45.6218918" lon="12.4263965"><ele>2.5</ele><time>2026-04-15T08:59:48.29Z</time></trkpt><trkpt lat="45.6217239" lon="12.4260366"><ele>2.0</ele><time>2026-04-15T08:59:49.294Z</time></trkpt><trkpt lat="45.6215607" lon="12.4256794"><ele>2.0</ele><time>2026-04-15T08:59:50.297Z</time></trkpt><trkpt lat="45.6213954" lon="12.4253198"><ele>2.0</ele><time>2026-04-15T08:59:51.277Z</time></trkpt><trkpt lat="45.6210673" lon="12.4245938"><ele>2.5</ele><time>2026-04-15T08:59:53.275Z</time></trkpt><trkpt lat="45.6209018" lon="12.4242304"><ele>3.0</ele><time>2026-04-15T08:59:54.288Z</time></trkpt><trkpt lat="45.6207376" lon="12.4238655"><ele>3.5</ele><time>2026-04-15T08:59:55.279Z</time></trkpt><trkpt lat="45.6205725" lon="12.4235037"><ele>4.0</ele><time>2026-04-15T08:59:56.299Z</time></trkpt><trkpt lat="45.6204047" lon="12.4231413"><ele>4.0</ele><time>2026-04-15T08:59:57.285Z</time></trkpt><trkpt lat="45.6202361" lon="12.4227763"><ele>4.0</ele><time>2026-04-15T08:59:58.29Z</time></trkpt><trkpt lat="45.6200679" lon="12.4224127"><ele>4.0</ele><time>2026-04-15T08:59:59.277Z</time></trkpt><trkpt lat="45.6199012" lon="12.4220408"><ele>4.0</ele><time>2026-04-15T09:00:00.298Z</time></trkpt><trkpt lat="45.6197324" lon="12.421668"><ele>3.5</ele><time>2026-04-15T09:00:01.281Z</time></trkpt><trkpt lat="45.6195629" lon="12.4212939"><ele>3.0</ele><time>2026-04-15T09:00:02.288Z</time></trkpt><trkpt lat="45.6193943" lon="12.4209184"><ele>4.0</ele><time>2026-04-15T09:00:03.294Z</time></trkpt><trkpt lat="45.6192225" lon="12.4205391"><ele>5.0</ele><time>2026-04-15T09:00:04.292Z</time></trkpt><trkpt lat="45.6190491" lon="12.4201629"><ele>5.5</ele><time>2026-04-15T09:00:05.278Z</time></trkpt><trkpt lat="45.6188743" lon="12.4197867"><ele>6.0</ele><time>2026-04-15T09:00:06.291Z</time></trkpt><trkpt lat="45.6187023" lon="12.4194088"><ele>5.0</ele><time>2026-04-15T09:00:07.276Z</time></trkpt><trkpt lat="45.6185337" lon="12.4190292"><ele>4.0</ele><time>2026-04-15T09:00:08.296Z</time></trkpt><trkpt lat="45.6183605" lon="12.4186516"><ele>4.0</ele><time>2026-04-15T09:00:09.289Z</time></trkpt><trkpt lat="45.6181837" lon="12.4182741"><ele>4.0</ele><time>2026-04-15T09:00:10.289Z</time></trkpt><trkpt lat="45.6180087" lon="12.4178975"><ele>4.5</ele><time>2026-04-15T09:00:11.273Z</time></trkpt><trkpt lat="45.6178406" lon="12.4175148"><ele>5.0</ele><time>2026-04-15T09:00:12.285Z</time></trkpt><trkpt lat="45.6176729" lon="12.4171348"><ele>4.0</ele><time>2026-04-15T09:00:13.303Z</time></trkpt><trkpt lat="45.6174964" lon="12.4167639"><ele>3.0</ele><time>2026-04-15T09:00:14.286Z</time></trkpt><trkpt lat="45.6173179" lon="12.4164013"><ele>3.0</ele><time>2026-04-15T09:00:15.288Z</time></trkpt><trkpt lat="45.6171469" lon="12.416032"><ele>3.0</ele><time>2026-04-15T09:00:16.285Z</time></trkpt><trkpt lat="45.6169743" lon="12.4156626"><ele>3.0</ele><time>2026-04-15T09:00:17.282Z</time></trkpt><trkpt lat="45.6167979" lon="12.4153006"><ele>3.0</ele><time>2026-04-15T09:00:18.288Z</time></trkpt><trkpt lat="45.616616" lon="12.4149361"><ele>3.0</ele><time>2026-04-15T09:00:19.285Z</time></trkpt><trkpt lat="45.6164317" lon="12.4145753"><ele>3.0</ele><time>2026-04-15T09:00:20.294Z</time></trkpt><trkpt lat="45.6162538" lon="12.4142048"><ele>3.0</ele><time>2026-04-15T09:00:21.3Z</time></trkpt><trkpt lat="45.6160759" lon="12.4138411"><ele>3.0</ele><time>2026-04-15T09:00:22.292Z</time></trkpt><trkpt lat="45.615886" lon="12.4134893"><ele>3.0</ele><time>2026-04-15T09:00:23.28Z</time></trkpt><trkpt lat="45.6156928" lon="12.4131378"><ele>3.0</ele><time>2026-04-15T09:00:24.287Z</time></trkpt><trkpt lat="45.6155071" lon="12.4127802"><ele>2.0</ele><time>2026-04-15T09:00:25.272Z</time></trkpt><trkpt lat="45.6153183" lon="12.4124265"><ele>1.0</ele><time>2026-04-15T09:00:26.295Z</time></trkpt><trkpt lat="45.615128" lon="12.4120845"><ele>1.0</ele><time>2026-04-15T09:00:27.269Z</time></trkpt><trkpt lat="45.6149338" lon="12.4117416"><ele>1.0</ele><time>2026-04-15T09:00:28.284Z</time></trkpt><trkpt lat="45.61474" lon="12.4113989"><ele>0.5</ele><time>2026-04-15T09:00:29.289Z</time></trkpt><trkpt lat="45.6145562" lon="12.4110492"><ele>0.0</ele><time>2026-04-15T09:00:30.284Z</time></trkpt><trkpt lat="45.6143694" lon="12.4107016"><ele>0.5</ele><time>2026-04-15T09:00:31.282Z</time></trkpt><trkpt lat="45.6141695" lon="12.4103626"><ele>1.0</ele><time>2026-04-15T09:00:32.284Z</time></trkpt><trkpt lat="45.6139719" lon="12.4100224"><ele>1.0</ele><time>2026-04-15T09:00:33.294Z</time></trkpt><trkpt lat="45.6137719" lon="12.4096733"><ele>1.0</ele><time>2026-04-15T09:00:34.295Z</time></trkpt><trkpt lat="45.6135665" lon="12.4093074"><ele>1.5</ele><time>2026-04-15T09:00:35.273Z</time></trkpt><trkpt lat="45.6133662" lon="12.408935"><ele>2.0</ele><time>2026-04-15T09:00:36.284Z</time></trkpt><trkpt lat="45.6131665" lon="12.4085646"><ele>2.0</ele><time>2026-04-15T09:00:37.284Z</time></trkpt><trkpt lat="45.6129659" lon="12.4082039"><ele>2.0</ele><time>2026-04-15T09:00:38.288Z</time></trkpt><trkpt lat="45.6127638" lon="12.4078439"><ele>2.0</ele><time>2026-04-15T09:00:39.286Z</time></trkpt><trkpt lat="45.6125654" lon="12.4074863"><ele>2.0</ele><time>2026-04-15T09:00:40.291Z</time></trkpt><trkpt lat="45.612373" lon="12.4071322"><ele>2.5</ele><time>2026-04-15T09:00:41.269Z</time></trkpt><trkpt lat="45.6121783" lon="12.4067798"><ele>3.0</ele><time>2026-04-15T09:00:42.282Z</time></trkpt><trkpt lat="45.6119842" lon="12.406429"><ele>3.0</ele><time>2026-04-15T09:00:43.273Z</time></trkpt><trkpt lat="45.6117992" lon="12.406077"><ele>3.0</ele><time>2026-04-15T09:00:44.271Z</time></trkpt><trkpt lat="45.6114413" lon="12.4053814"><ele>3.0</ele><time>2026-04-15T09:00:46.289Z</time></trkpt><trkpt lat="45.6112559" lon="12.4050356"><ele>3.0</ele><time>2026-04-15T09:00:47.274Z</time></trkpt><trkpt lat="45.6110637" lon="12.4046937"><ele>3.5</ele><time>2026-04-15T09:00:48.288Z</time></trkpt><trkpt lat="45.6108751" lon="12.404353"><ele>4.0</ele><time>2026-04-15T09:00:49.282Z</time></trkpt><trkpt lat="45.6106888" lon="12.4040166"><ele>3.5</ele><time>2026-04-15T09:00:50.287Z</time></trkpt><trkpt lat="45.6105084" lon="12.4036828"><ele>3.0</ele><time>2026-04-15T09:00:51.27Z</time></trkpt><trkpt lat="45.6103242" lon="12.4033417"><ele>3.0</ele><time>2026-04-15T09:00:52.281Z</time></trkpt><trkpt lat="45.6101391" lon="12.4030004"><ele>3.0</ele><time>2026-04-15T09:00:53.27Z</time></trkpt><trkpt lat="45.6099527" lon="12.4026637"><ele>3.0</ele><time>2026-04-15T09:00:54.282Z</time></trkpt><trkpt lat="45.6097668" lon="12.4023243"><ele>3.0</ele><time>2026-04-15T09:00:55.276Z</time></trkpt><trkpt lat="45.6095798" lon="12.4019887"><ele>3.0</ele><time>2026-04-15T09:00:56.292Z</time></trkpt><trkpt lat="45.6093901" lon="12.4016553"><ele>3.0</ele><time>2026-04-15T09:00:57.266Z</time></trkpt><trkpt lat="45.6092009" lon="12.4013251"><ele>3.0</ele><time>2026-04-15T09:00:58.287Z</time></trkpt><trkpt lat="45.6090154" lon="12.4009927"><ele>3.0</ele><time>2026-04-15T09:00:59.28Z</time></trkpt><trkpt lat="45.6086495" lon="12.4003286"><ele>3.0</ele><time>2026-04-15T09:01:01.273Z</time></trkpt><trkpt lat="45.6084677" lon="12.3999938"><ele>3.0</ele><time>2026-04-15T09:01:02.277Z</time></trkpt><trkpt lat="45.608285" lon="12.3996614"><ele>3.0</ele><time>2026-04-15T09:01:03.289Z</time></trkpt><trkpt lat="45.6080987" lon="12.3993269"><ele>3.0</ele><time>2026-04-15T09:01:04.288Z</time></trkpt><trkpt lat="45.6079156" lon="12.398994"><ele>2.5</ele><time>2026-04-15T09:01:05.278Z</time></trkpt><trkpt lat="45.6077348" lon="12.3986599"><ele>2.0</ele><time>2026-04-15T09:01:06.286Z</time></trkpt><trkpt lat="45.6075535" lon="12.398327"><ele>1.5</ele><time>2026-04-15T09:01:07.275Z</time></trkpt><trkpt lat="45.6073696" lon="12.3979977"><ele>1.0</ele><time>2026-04-15T09:01:08.293Z</time></trkpt><trkpt lat="45.6071894" lon="12.397669"><ele>1.0</ele><time>2026-04-15T09:01:09.278Z</time></trkpt><trkpt lat="45.6070069" lon="12.3973372"><ele>1.0</ele><time>2026-04-15T09:01:10.276Z</time></trkpt><trkpt lat="45.6066462" lon="12.3966832"><ele>1.0</ele><time>2026-04-15T09:01:12.28Z</time></trkpt><trkpt lat="45.6064641" lon="12.3963573"><ele>1.0</ele><time>2026-04-15T09:01:13.285Z</time></trkpt><trkpt lat="45.6062856" lon="12.3960281"><ele>1.0</ele><time>2026-04-15T09:01:14.27Z</time></trkpt><trkpt lat="45.6061069" lon="12.3957031"><ele>1.0</ele><time>2026-04-15T09:01:15.269Z</time></trkpt><trkpt lat="45.6059206" lon="12.3953715"><ele>1.0</ele><time>2026-04-15T09:01:16.279Z</time></trkpt><trkpt lat="45.6057399" lon="12.3950458"><ele>1.0</ele><time>2026-04-15T09:01:17.269Z</time></trkpt><trkpt lat="45.6055605" lon="12.3947191"><ele>1.5</ele><time>2026-04-15T09:01:18.278Z</time></trkpt><trkpt lat="45.6053826" lon="12.3943903"><ele>2.0</ele><time>2026-04-15T09:01:19.267Z</time></trkpt><trkpt lat="45.605205" lon="12.394061"><ele>2.5</ele><time>2026-04-15T09:01:20.287Z</time></trkpt><trkpt lat="45.6050219" lon="12.3937363"><ele>3.0</ele><time>2026-04-15T09:01:21.265Z</time></trkpt><trkpt lat="45.6046633" lon="12.39308"><ele>2.5</ele><time>2026-04-15T09:01:23.272Z</time></trkpt><trkpt lat="45.6044827" lon="12.3927506"><ele>2.0</ele><time>2026-04-15T09:01:24.275Z</time></trkpt><trkpt lat="45.604298" lon="12.3924186"><ele>2.0</ele><time>2026-04-15T09:01:25.272Z</time></trkpt><trkpt lat="45.6041138" lon="12.3920871"><ele>2.0</ele><time>2026-04-15T09:01:26.286Z</time></trkpt><trkpt lat="45.603927" lon="12.3917601"><ele>2.0</ele><time>2026-04-15T09:01:27.28Z</time></trkpt><trkpt lat="45.6037463" lon="12.3914264"><ele>2.0</ele><time>2026-04-15T09:01:28.279Z</time></trkpt><trkpt lat="45.6035651" lon="12.3910972"><ele>2.0</ele><time>2026-04-15T09:01:29.287Z</time></trkpt><trkpt lat="45.6033851" lon="12.3907691"><ele>2.0</ele><time>2026-04-15T09:01:30.288Z</time></trkpt><trkpt lat="45.6032136" lon="12.3904507"><ele>2.5</ele><time>2026-04-15T09:01:31.275Z</time></trkpt><trkpt lat="45.603045" lon="12.3901406"><ele>3.0</ele><time>2026-04-15T09:01:32.281Z</time></trkpt><trkpt lat="45.6028738" lon="12.3898344"><ele>3.0</ele><time>2026-04-15T09:01:33.264Z</time></trkpt><trkpt lat="45.6026948" lon="12.3895345"><ele>3.0</ele><time>2026-04-15T09:01:34.28Z</time></trkpt><trkpt lat="45.6025084" lon="12.3892259"><ele>3.0</ele><time>2026-04-15T09:01:35.268Z</time></trkpt><trkpt lat="45.6023182" lon="12.3889"><ele>3.0</ele><time>2026-04-15T09:01:36.278Z</time></trkpt><trkpt lat="45.6021316" lon="12.3885532"><ele>3.5</ele><time>2026-04-15T09:01:37.281Z</time></trkpt><trkpt lat="45.6019374" lon="12.388193"><ele>4.0</ele><time>2026-04-15T09:01:38.281Z</time></trkpt><trkpt lat="45.6017412" lon="12.3878195"><ele>4.0</ele><time>2026-04-15T09:01:39.27Z</time></trkpt><trkpt lat="45.6015495" lon="12.3874471"><ele>4.0</ele><time>2026-04-15T09:01:40.287Z</time></trkpt><trkpt lat="45.6011515" lon="12.386701"><ele>4.0</ele><time>2026-04-15T09:01:42.271Z</time></trkpt><trkpt lat="45.6009532" lon="12.3863388"><ele>4.0</ele><time>2026-04-15T09:01:43.275Z</time></trkpt><trkpt lat="45.6007517" lon="12.3859889"><ele>4.0</ele><time>2026-04-15T09:01:44.264Z</time></trkpt><trkpt lat="45.6005528" lon="12.3856399"><ele>4.0</ele><time>2026-04-15T09:01:45.273Z</time></trkpt><trkpt lat="45.6003534" lon="12.3852901"><ele>3.5</ele><time>2026-04-15T09:01:46.27Z</time></trkpt><trkpt lat="45.6001536" lon="12.3849456"><ele>3.0</ele><time>2026-04-15T09:01:47.264Z</time></trkpt><trkpt lat="45.5999531" lon="12.3846011"><ele>3.0</ele><time>2026-04-15T09:01:48.267Z</time></trkpt><trkpt lat="45.5997515" lon="12.3842604"><ele>3.0</ele><time>2026-04-15T09:01:49.281Z</time></trkpt><trkpt lat="45.5995479" lon="12.3839229"><ele>3.0</ele><time>2026-04-15T09:01:50.287Z</time></trkpt><trkpt lat="45.5993389" lon="12.3835804"><ele>3.0</ele><time>2026-04-15T09:01:51.265Z</time></trkpt><trkpt lat="45.5991269" lon="12.3832378"><ele>2.5</ele><time>2026-04-15T09:01:52.275Z</time></trkpt><trkpt lat="45.5989149" lon="12.3828965"><ele>2.0</ele><time>2026-04-15T09:01:53.267Z</time></trkpt><trkpt lat="45.5986999" lon="12.3825571"><ele>2.0</ele><time>2026-04-15T09:01:54.292Z</time></trkpt><trkpt lat="45.5984865" lon="12.3822139"><ele>2.0</ele><time>2026-04-15T09:01:55.283Z</time></trkpt><trkpt lat="45.5982684" lon="12.381873"><ele>2.0</ele><time>2026-04-15T09:01:56.273Z</time></trkpt><trkpt lat="45.5980507" lon="12.3815305"><ele>2.0</ele><time>2026-04-15T09:01:57.261Z</time></trkpt><trkpt lat="45.5978333" lon="12.3811972"><ele>2.5</ele><time>2026-04-15T09:01:58.275Z</time></trkpt><trkpt lat="45.5976167" lon="12.3808584"><ele>3.0</ele><time>2026-04-15T09:01:59.276Z</time></trkpt><trkpt lat="45.5973941" lon="12.3805249"><ele>3.0</ele><time>2026-04-15T09:02:00.285Z</time></trkpt><trkpt lat="45.5971663" lon="12.3801995"><ele>3.0</ele><time>2026-04-15T09:02:01.279Z</time></trkpt><trkpt lat="45.5969385" lon="12.3798714"><ele>3.0</ele><time>2026-04-15T09:02:02.275Z</time></trkpt><trkpt lat="45.5967091" lon="12.3795405"><ele>3.0</ele><time>2026-04-15T09:02:03.272Z</time></trkpt><trkpt lat="45.5964808" lon="12.3792087"><ele>3.0</ele><time>2026-04-15T09:02:04.271Z</time></trkpt><trkpt lat="45.5962531" lon="12.378877"><ele>3.0</ele><time>2026-04-15T09:02:05.289Z</time></trkpt><trkpt lat="45.5960247" lon="12.3785466"><ele>2.5</ele><time>2026-04-15T09:02:06.306Z</time></trkpt><trkpt lat="45.5957998" lon="12.378217"><ele>2.0</ele><time>2026-04-15T09:02:07.274Z</time></trkpt><trkpt lat="45.5955767" lon="12.3778875"><ele>2.0</ele><time>2026-04-15T09:02:08.275Z</time></trkpt><trkpt lat="45.5953551" lon="12.3775638"><ele>2.0</ele><time>2026-04-15T09:02:09.268Z</time></trkpt><trkpt lat="45.5951328" lon="12.3772423"><ele>2.5</ele><time>2026-04-15T09:02:10.276Z</time></trkpt><trkpt lat="45.5949075" lon="12.3769229"><ele>3.0</ele><time>2026-04-15T09:02:11.258Z</time></trkpt><trkpt lat="45.5946843" lon="12.376602"><ele>3.0</ele><time>2026-04-15T09:02:12.275Z</time></trkpt><trkpt lat="45.5944673" lon="12.3762813"><ele>3.0</ele><time>2026-04-15T09:02:13.258Z</time></trkpt><trkpt lat="45.5942543" lon="12.3759636"><ele>2.0</ele><time>2026-04-15T09:02:14.27Z</time></trkpt><trkpt lat="45.5938182" lon="12.3753279"><ele>2.0</ele><time>2026-04-15T09:02:16.264Z</time></trkpt><trkpt lat="45.5935983" lon="12.3750101"><ele>2.0</ele><time>2026-04-15T09:02:17.274Z</time></trkpt><trkpt lat="45.5933732" lon="12.3746857"><ele>2.0</ele><time>2026-04-15T09:02:18.274Z</time></trkpt><trkpt lat="45.5931477" lon="12.3743668"><ele>2.0</ele><time>2026-04-15T09:02:19.256Z</time></trkpt><trkpt lat="45.5929261" lon="12.374046"><ele>2.0</ele><time>2026-04-15T09:02:20.276Z</time></trkpt><trkpt lat="45.5927053" lon="12.3737176"><ele>2.0</ele><time>2026-04-15T09:02:21.275Z</time></trkpt><trkpt lat="45.5924899" lon="12.37339"><ele>2.0</ele><time>2026-04-15T09:02:22.276Z</time></trkpt><trkpt lat="45.5922655" lon="12.3730677"><ele>2.0</ele><time>2026-04-15T09:02:23.271Z</time></trkpt><trkpt lat="45.5920357" lon="12.3727538"><ele>2.0</ele><time>2026-04-15T09:02:24.28Z</time></trkpt><trkpt lat="45.5918134" lon="12.3724357"><ele>2.0</ele><time>2026-04-15T09:02:25.271Z</time></trkpt><trkpt lat="45.5915983" lon="12.3721045"><ele>1.0</ele><time>2026-04-15T09:02:26.276Z</time></trkpt><trkpt lat="45.5913753" lon="12.3717803"><ele>0.0</ele><time>2026-04-15T09:02:27.265Z</time></trkpt><trkpt lat="45.5911446" lon="12.3714718"><ele>0.0</ele><time>2026-04-15T09:02:28.279Z</time></trkpt><trkpt lat="45.5909109" lon="12.3711589"><ele>0.0</ele><time>2026-04-15T09:02:29.275Z</time></trkpt><trkpt lat="45.5906939" lon="12.3708284"><ele>0.5</ele><time>2026-04-15T09:02:30.266Z</time></trkpt><trkpt lat="45.5904823" lon="12.3705038"><ele>1.0</ele><time>2026-04-15T09:02:31.255Z</time></trkpt><trkpt lat="45.5902677" lon="12.370186"><ele>1.0</ele><time>2026-04-15T09:02:32.269Z</time></trkpt><trkpt lat="45.5900446" lon="12.3698718"><ele>1.0</ele><time>2026-04-15T09:02:33.273Z</time></trkpt><trkpt lat="45.5898215" lon="12.3695587"><ele>0.5</ele><time>2026-04-15T09:02:34.281Z</time></trkpt><trkpt lat="45.5895998" lon="12.3692381"><ele>0.0</ele><time>2026-04-15T09:02:35.267Z</time></trkpt><trkpt lat="45.5893841" lon="12.3689128"><ele>1.0</ele><time>2026-04-15T09:02:36.269Z</time></trkpt><trkpt lat="45.5891596" lon="12.3685899"><ele>2.0</ele><time>2026-04-15T09:02:37.265Z</time></trkpt><trkpt lat="45.588936" lon="12.3682674"><ele>2.0</ele><time>2026-04-15T09:02:38.269Z</time></trkpt><trkpt lat="45.5887132" lon="12.3679432"><ele>2.0</ele><time>2026-04-15T09:02:39.256Z</time></trkpt><trkpt lat="45.58849" lon="12.3676172"><ele>2.0</ele><time>2026-04-15T09:02:40.279Z</time></trkpt><trkpt lat="45.588269" lon="12.3672908"><ele>2.0</ele><time>2026-04-15T09:02:41.284Z</time></trkpt><trkpt lat="45.588046" lon="12.3669631"><ele>2.5</ele><time>2026-04-15T09:02:42.296Z</time></trkpt><trkpt lat="45.587825" lon="12.366643"><ele>3.0</ele><time>2026-04-15T09:02:43.277Z</time></trkpt><trkpt lat="45.5876074" lon="12.3663237"><ele>3.0</ele><time>2026-04-15T09:02:44.273Z</time></trkpt><trkpt lat="45.5873888" lon="12.3660032"><ele>3.0</ele><time>2026-04-15T09:02:45.275Z</time></trkpt><trkpt lat="45.5871699" lon="12.3656777"><ele>4.0</ele><time>2026-04-15T09:02:46.265Z</time></trkpt><trkpt lat="45.5869418" lon="12.3653488"><ele>5.0</ele><time>2026-04-15T09:02:47.253Z</time></trkpt><trkpt lat="45.5867119" lon="12.3650155"><ele>3.5</ele><time>2026-04-15T09:02:48.267Z</time></trkpt><trkpt lat="45.5864817" lon="12.3646855"><ele>2.0</ele><time>2026-04-15T09:02:49.278Z</time></trkpt><trkpt lat="45.5862541" lon="12.3643511"><ele>3.0</ele><time>2026-04-15T09:02:50.27Z</time></trkpt><trkpt lat="45.586027" lon="12.3640154"><ele>4.0</ele><time>2026-04-15T09:02:51.258Z</time></trkpt><trkpt lat="45.585797" lon="12.3636787"><ele>4.0</ele><time>2026-04-15T09:02:52.265Z</time></trkpt><trkpt lat="45.5855674" lon="12.3633385"><ele>4.0</ele><time>2026-04-15T09:02:53.263Z</time></trkpt><trkpt lat="45.5853342" lon="12.3630004"><ele>5.5</ele><time>2026-04-15T09:02:54.271Z</time></trkpt><trkpt lat="45.5850956" lon="12.3626692"><ele>7.0</ele><time>2026-04-15T09:02:55.276Z</time></trkpt><trkpt lat="45.5848626" lon="12.3623387"><ele>6.5</ele><time>2026-04-15T09:02:56.271Z</time></trkpt><trkpt lat="45.5846357" lon="12.3620115"><ele>6.0</ele><time>2026-04-15T09:02:57.263Z</time></trkpt><trkpt lat="45.5844089" lon="12.3616855"><ele>4.5</ele><time>2026-04-15T09:02:58.287Z</time></trkpt><trkpt lat="45.5841858" lon="12.3613603"><ele>3.0</ele><time>2026-04-15T09:02:59.249Z</time></trkpt><trkpt lat="45.5839653" lon="12.3610366"><ele>3.0</ele><time>2026-04-15T09:03:00.264Z</time></trkpt><trkpt lat="45.5837432" lon="12.3607122"><ele>3.0</ele><time>2026-04-15T09:03:01.268Z</time></trkpt><trkpt lat="45.5835172" lon="12.3603881"><ele>3.5</ele><time>2026-04-15T09:03:02.272Z</time></trkpt><trkpt lat="45.5832944" lon="12.3600581"><ele>4.0</ele><time>2026-04-15T09:03:03.25Z</time></trkpt><trkpt lat="45.5830685" lon="12.359732"><ele>6.0</ele><time>2026-04-15T09:03:04.262Z</time></trkpt><trkpt lat="45.5828434" lon="12.3594054"><ele>8.0</ele><time>2026-04-15T09:03:05.255Z</time></trkpt><trkpt lat="45.5826183" lon="12.3590804"><ele>6.0</ele><time>2026-04-15T09:03:06.265Z</time></trkpt><trkpt lat="45.5823923" lon="12.3587508"><ele>4.0</ele><time>2026-04-15T09:03:07.266Z</time></trkpt><trkpt lat="45.5821635" lon="12.3584213"><ele>3.5</ele><time>2026-04-15T09:03:08.265Z</time></trkpt><trkpt lat="45.5819354" lon="12.358091"><ele>3.0</ele><time>2026-04-15T09:03:09.272Z</time></trkpt><trkpt lat="45.5817061" lon="12.3577541"><ele>2.0</ele><time>2026-04-15T09:03:10.276Z</time></trkpt><trkpt lat="45.5812519" lon="12.3570859"><ele>2.0</ele><time>2026-04-15T09:03:12.274Z</time></trkpt><trkpt lat="45.5810141" lon="12.3567706"><ele>2.0</ele><time>2026-04-15T09:03:13.277Z</time></trkpt><trkpt lat="45.5807969" lon="12.3564422"><ele>2.0</ele><time>2026-04-15T09:03:14.265Z</time></trkpt><trkpt lat="45.5805818" lon="12.3561016"><ele>2.0</ele><time>2026-04-15T09:03:15.253Z</time></trkpt><trkpt lat="45.5803675" lon="12.3557714"><ele>1.5</ele><time>2026-04-15T09:03:16.258Z</time></trkpt><trkpt lat="45.5801438" lon="12.3554543"><ele>1.0</ele><time>2026-04-15T09:03:17.255Z</time></trkpt><trkpt lat="45.57993" lon="12.3551338"><ele>1.0</ele><time>2026-04-15T09:03:18.263Z</time></trkpt><trkpt lat="45.5797247" lon="12.3547923"><ele>1.0</ele><time>2026-04-15T09:03:19.265Z</time></trkpt><trkpt lat="45.579525" lon="12.3544596"><ele>1.0</ele><time>2026-04-15T09:03:20.268Z</time></trkpt><trkpt lat="45.5793168" lon="12.3541489"><ele>1.0</ele><time>2026-04-15T09:03:21.282Z</time></trkpt><trkpt lat="45.57911" lon="12.3538327"><ele>1.0</ele><time>2026-04-15T09:03:22.265Z</time></trkpt><trkpt lat="45.5789067" lon="12.3534988"><ele>1.0</ele><time>2026-04-15T09:03:23.25Z</time></trkpt><trkpt lat="45.5787045" lon="12.3531611"><ele>0.0</ele><time>2026-04-15T09:03:24.27Z</time></trkpt><trkpt lat="45.5785014" lon="12.35282"><ele>-1.0</ele><time>2026-04-15T09:03:25.263Z</time></trkpt><trkpt lat="45.5782993" lon="12.3524811"><ele>1.0</ele><time>2026-04-15T09:03:26.27Z</time></trkpt><trkpt lat="45.5781013" lon="12.3521363"><ele>3.0</ele><time>2026-04-15T09:03:27.273Z</time></trkpt><trkpt lat="45.5779026" lon="12.3517928"><ele>2.5</ele><time>2026-04-15T09:03:28.27Z</time></trkpt><trkpt lat="45.5777051" lon="12.3514483"><ele>2.0</ele><time>2026-04-15T09:03:29.263Z</time></trkpt><trkpt lat="45.5775063" lon="12.3511082"><ele>2.0</ele><time>2026-04-15T09:03:30.278Z</time></trkpt><trkpt lat="45.577308" lon="12.3507694"><ele>2.0</ele><time>2026-04-15T09:03:31.26Z</time></trkpt><trkpt lat="45.5771096" lon="12.3504352"><ele>1.5</ele><time>2026-04-15T09:03:32.254Z</time></trkpt><trkpt lat="45.5769146" lon="12.3501062"><ele>1.0</ele><time>2026-04-15T09:03:33.268Z</time></trkpt><trkpt lat="45.576724" lon="12.3497718"><ele>1.5</ele><time>2026-04-15T09:03:34.266Z</time></trkpt><trkpt lat="45.576535" lon="12.3494386"><ele>2.0</ele><time>2026-04-15T09:03:35.262Z</time></trkpt><trkpt lat="45.5763514" lon="12.349101"><ele>2.5</ele><time>2026-04-15T09:03:36.27Z</time></trkpt><trkpt lat="45.5761697" lon="12.3487623"><ele>3.0</ele><time>2026-04-15T09:03:37.264Z</time></trkpt><trkpt lat="45.575817" lon="12.3480772"><ele>3.0</ele><time>2026-04-15T09:03:39.253Z</time></trkpt><trkpt lat="45.5756435" lon="12.3477292"><ele>3.0</ele><time>2026-04-15T09:03:40.259Z</time></trkpt><trkpt lat="45.5754758" lon="12.3473754"><ele>2.5</ele><time>2026-04-15T09:03:41.271Z</time></trkpt><trkpt lat="45.5753125" lon="12.3470227"><ele>2.0</ele><time>2026-04-15T09:03:42.257Z</time></trkpt><trkpt lat="45.5751563" lon="12.3466756"><ele>2.0</ele><time>2026-04-15T09:03:43.258Z</time></trkpt><trkpt lat="45.5750057" lon="12.3463145"><ele>2.0</ele><time>2026-04-15T09:03:44.288Z</time></trkpt><trkpt lat="45.5748624" lon="12.3459563"><ele>2.0</ele><time>2026-04-15T09:03:45.27Z</time></trkpt><trkpt lat="45.5747261" lon="12.3455899"><ele>2.0</ele><time>2026-04-15T09:03:46.265Z</time></trkpt><trkpt lat="45.5745973" lon="12.345222"><ele>2.0</ele><time>2026-04-15T09:03:47.259Z</time></trkpt><trkpt lat="45.574473" lon="12.3448578"><ele>2.0</ele><time>2026-04-15T09:03:48.27Z</time></trkpt><trkpt lat="45.5743556" lon="12.3444928"><ele>2.0</ele><time>2026-04-15T09:03:49.259Z</time></trkpt><trkpt lat="45.5742466" lon="12.3441219"><ele>2.0</ele><time>2026-04-15T09:03:50.266Z</time></trkpt><trkpt lat="45.5741412" lon="12.3437414"><ele>2.0</ele><time>2026-04-15T09:03:51.243Z</time></trkpt><trkpt lat="45.5740437" lon="12.3433567"><ele>2.0</ele><time>2026-04-15T09:03:52.26Z</time></trkpt><trkpt lat="45.5739496" lon="12.3429688"><ele>2.0</ele><time>2026-04-15T09:03:53.254Z</time></trkpt><trkpt lat="45.5738626" lon="12.3425762"><ele>2.0</ele><time>2026-04-15T09:03:54.256Z</time></trkpt><trkpt lat="45.5737783" lon="12.3421796"><ele>1.0</ele><time>2026-04-15T09:03:55.25Z</time></trkpt><trkpt lat="45.5737024" lon="12.3417801"><ele>0.0</ele><time>2026-04-15T09:03:56.272Z</time></trkpt><trkpt lat="45.5736329" lon="12.341382"><ele>-0.5</ele><time>2026-04-15T09:03:57.251Z</time></trkpt><trkpt lat="45.5735672" lon="12.3409758"><ele>-1.0</ele><time>2026-04-15T09:03:58.253Z</time></trkpt><trkpt lat="45.5735087" lon="12.3405594"><ele>0.0</ele><time>2026-04-15T09:03:59.255Z</time></trkpt><trkpt lat="45.573456" lon="12.3401336"><ele>1.0</ele><time>2026-04-15T09:04:00.27Z</time></trkpt><trkpt lat="45.573416" lon="12.339713"><ele>1.5</ele><time>2026-04-15T09:04:01.269Z</time></trkpt><trkpt lat="45.5733821" lon="12.339283"><ele>2.0</ele><time>2026-04-15T09:04:02.263Z</time></trkpt><trkpt lat="45.5733579" lon="12.3388562"><ele>1.5</ele><time>2026-04-15T09:04:03.25Z</time></trkpt><trkpt lat="45.5733425" lon="12.3384276"><ele>1.0</ele><time>2026-04-15T09:04:04.261Z</time></trkpt><trkpt lat="45.5733258" lon="12.3380036"><ele>1.0</ele><time>2026-04-15T09:04:05.255Z</time></trkpt><trkpt lat="45.5733158" lon="12.3375836"><ele>1.0</ele><time>2026-04-15T09:04:06.26Z</time></trkpt><trkpt lat="45.5733248" lon="12.3371658"><ele>0.0</ele><time>2026-04-15T09:04:07.262Z</time></trkpt><trkpt lat="45.5733517" lon="12.3363382"><ele>0.0</ele><time>2026-04-15T09:04:09.25Z</time></trkpt><trkpt lat="45.5733659" lon="12.335924"><ele>0.0</ele><time>2026-04-15T09:04:10.253Z</time></trkpt><trkpt lat="45.573409" lon="12.3355134"><ele>0.0</ele><time>2026-04-15T09:04:11.247Z</time></trkpt><trkpt lat="45.5734495" lon="12.3351035"><ele>0.0</ele><time>2026-04-15T09:04:12.292Z</time></trkpt><trkpt lat="45.5734901" lon="12.3347028"><ele>-0.5</ele><time>2026-04-15T09:04:13.257Z</time></trkpt><trkpt lat="45.5735466" lon="12.3343055"><ele>-1.0</ele><time>2026-04-15T09:04:14.262Z</time></trkpt><trkpt lat="45.5736" lon="12.3339165"><ele>-1.5</ele><time>2026-04-15T09:04:15.272Z</time></trkpt><trkpt lat="45.5736518" lon="12.3335202"><ele>-2.0</ele><time>2026-04-15T09:04:16.251Z</time></trkpt><trkpt lat="45.5737163" lon="12.3331381"><ele>0.5</ele><time>2026-04-15T09:04:17.26Z</time></trkpt><trkpt lat="45.5738019" lon="12.3327555"><ele>3.0</ele><time>2026-04-15T09:04:18.252Z</time></trkpt><trkpt lat="45.573875" lon="12.332369"><ele>2.0</ele><time>2026-04-15T09:04:19.251Z</time></trkpt><trkpt lat="45.573944" lon="12.3319632"><ele>1.0</ele><time>2026-04-15T09:04:20.25Z</time></trkpt><trkpt lat="45.5740253" lon="12.3315525"><ele>1.5</ele><time>2026-04-15T09:04:21.256Z</time></trkpt><trkpt lat="45.5741177" lon="12.3311448"><ele>2.0</ele><time>2026-04-15T09:04:22.269Z</time></trkpt><trkpt lat="45.5742117" lon="12.3307294"><ele>2.0</ele><time>2026-04-15T09:04:23.257Z</time></trkpt><trkpt lat="45.5743131" lon="12.3303189"><ele>2.0</ele><time>2026-04-15T09:04:24.251Z</time></trkpt><trkpt lat="45.5744119" lon="12.3299002"><ele>2.0</ele><time>2026-04-15T09:04:25.264Z</time></trkpt><trkpt lat="45.5745109" lon="12.3294775"><ele>2.0</ele><time>2026-04-15T09:04:26.266Z</time></trkpt><trkpt lat="45.5746112" lon="12.3290575"><ele>1.0</ele><time>2026-04-15T09:04:27.267Z</time></trkpt><trkpt lat="45.5747107" lon="12.3286337"><ele>0.0</ele><time>2026-04-15T09:04:28.267Z</time></trkpt><trkpt lat="45.5748082" lon="12.3282119"><ele>0.0</ele><time>2026-04-15T09:04:29.263Z</time></trkpt><trkpt lat="45.5749015" lon="12.3277946"><ele>0.0</ele><time>2026-04-15T09:04:30.268Z</time></trkpt><trkpt lat="45.5749951" lon="12.3273843"><ele>0.5</ele><time>2026-04-15T09:04:31.258Z</time></trkpt><trkpt lat="45.5750896" lon="12.3269756"><ele>1.0</ele><time>2026-04-15T09:04:32.271Z</time></trkpt><trkpt lat="45.5751831" lon="12.3265639"><ele>1.5</ele><time>2026-04-15T09:04:33.255Z</time></trkpt><trkpt lat="45.5752813" lon="12.3261665"><ele>2.0</ele><time>2026-04-15T09:04:34.247Z</time></trkpt><trkpt lat="45.5753751" lon="12.325765"><ele>0.5</ele><time>2026-04-15T09:04:35.269Z</time></trkpt><trkpt lat="45.5754692" lon="12.3253677"><ele>-1.0</ele><time>2026-04-15T09:04:36.281Z</time></trkpt><trkpt lat="45.5755646" lon="12.3249756"><ele>0.0</ele><time>2026-04-15T09:04:37.272Z</time></trkpt><trkpt lat="45.5757717" lon="12.3242067"><ele>0.0</ele><time>2026-04-15T09:04:39.265Z</time></trkpt><trkpt lat="45.5758738" lon="12.3238245"><ele>0.0</ele><time>2026-04-15T09:04:40.266Z</time></trkpt><trkpt lat="45.575964" lon="12.3234348"><ele>0.0</ele><time>2026-04-15T09:04:41.27Z</time></trkpt><trkpt lat="45.5760577" lon="12.3230421"><ele>0.0</ele><time>2026-04-15T09:04:42.264Z</time></trkpt><trkpt lat="45.5761608" lon="12.3226593"><ele>0.5</ele><time>2026-04-15T09:04:43.258Z</time></trkpt><trkpt lat="45.5762631" lon="12.322277"><ele>1.0</ele><time>2026-04-15T09:04:44.265Z</time></trkpt><trkpt lat="45.5763505" lon="12.3218878"><ele>1.5</ele><time>2026-04-15T09:04:45.262Z</time></trkpt><trkpt lat="45.5764384" lon="12.3214936"><ele>2.0</ele><time>2026-04-15T09:04:46.257Z</time></trkpt><trkpt lat="45.5765319" lon="12.3210994"><ele>2.0</ele><time>2026-04-15T09:04:47.256Z</time></trkpt><trkpt lat="45.5766297" lon="12.3207067"><ele>2.0</ele><time>2026-04-15T09:04:48.266Z</time></trkpt><trkpt lat="45.5767176" lon="12.3203131"><ele>1.5</ele><time>2026-04-15T09:04:49.264Z</time></trkpt><trkpt lat="45.5768118" lon="12.3199214"><ele>1.0</ele><time>2026-04-15T09:04:50.277Z</time></trkpt><trkpt lat="45.5769142" lon="12.319535"><ele>1.0</ele><time>2026-04-15T09:04:51.27Z</time></trkpt><trkpt lat="45.5770135" lon="12.319146"><ele>1.0</ele><time>2026-04-15T09:04:52.249Z</time></trkpt><trkpt lat="45.5771025" lon="12.318758"><ele>0.0</ele><time>2026-04-15T09:04:53.273Z</time></trkpt><trkpt lat="45.5771882" lon="12.3183731"><ele>-1.0</ele><time>2026-04-15T09:04:54.263Z</time></trkpt><trkpt lat="45.5772819" lon="12.3179776"><ele>-1.0</ele><time>2026-04-15T09:04:55.254Z</time></trkpt><trkpt lat="45.5773849" lon="12.3175878"><ele>-1.0</ele><time>2026-04-15T09:04:56.257Z</time></trkpt><trkpt lat="45.5774697" lon="12.3171993"><ele>-0.5</ele><time>2026-04-15T09:04:57.255Z</time></trkpt><trkpt lat="45.5775557" lon="12.3168134"><ele>0.0</ele><time>2026-04-15T09:04:58.265Z</time></trkpt><trkpt lat="45.5776524" lon="12.3164285"><ele>0.0</ele><time>2026-04-15T09:04:59.272Z</time></trkpt><trkpt lat="45.5777522" lon="12.3160399"><ele>0.0</ele><time>2026-04-15T09:05:00.274Z</time></trkpt><trkpt lat="45.577922" lon="12.3152669"><ele>0.5</ele><time>2026-04-15T09:05:02.263Z</time></trkpt><trkpt lat="45.5780162" lon="12.3148729"><ele>1.0</ele><time>2026-04-15T09:05:03.246Z</time></trkpt><trkpt lat="45.5781142" lon="12.314474"><ele>1.5</ele><time>2026-04-15T09:05:04.248Z</time></trkpt><trkpt lat="45.5782105" lon="12.3140771"><ele>2.0</ele><time>2026-04-15T09:05:05.261Z</time></trkpt><trkpt lat="45.5783017" lon="12.31368"><ele>2.0</ele><time>2026-04-15T09:05:06.258Z</time></trkpt><trkpt lat="45.578397" lon="12.3132842"><ele>2.0</ele><time>2026-04-15T09:05:07.252Z</time></trkpt><trkpt lat="45.5784916" lon="12.3128822"><ele>1.0</ele><time>2026-04-15T09:05:08.27Z</time></trkpt><trkpt lat="45.5785873" lon="12.3124802"><ele>0.0</ele><time>2026-04-15T09:05:09.242Z</time></trkpt><trkpt lat="45.5786826" lon="12.3120772"><ele>0.5</ele><time>2026-04-15T09:05:10.252Z</time></trkpt><trkpt lat="45.5787776" lon="12.311673"><ele>1.0</ele><time>2026-04-15T09:05:11.267Z</time></trkpt><trkpt lat="45.5788731" lon="12.3112696"><ele>1.0</ele><time>2026-04-15T09:05:12.261Z</time></trkpt><trkpt lat="45.5789691" lon="12.3108664"><ele>1.0</ele><time>2026-04-15T09:05:13.258Z</time></trkpt><trkpt lat="45.5791637" lon="12.3100673"><ele>0.5</ele><time>2026-04-15T09:05:15.265Z</time></trkpt><trkpt lat="45.5792608" lon="12.3096703"><ele>0.0</ele><time>2026-04-15T09:05:16.269Z</time></trkpt><trkpt lat="45.5793605" lon="12.3092742"><ele>0.0</ele><time>2026-04-15T09:05:17.263Z</time></trkpt><trkpt lat="45.5794688" lon="12.3088881"><ele>0.0</ele><time>2026-04-15T09:05:18.247Z</time></trkpt><trkpt lat="45.5795767" lon="12.3084991"><ele>0.0</ele><time>2026-04-15T09:05:19.27Z</time></trkpt><trkpt lat="45.57968" lon="12.3081093"><ele>0.0</ele><time>2026-04-15T09:05:20.262Z</time></trkpt><trkpt lat="45.579777" lon="12.3077222"><ele>1.0</ele><time>2026-04-15T09:05:21.245Z</time></trkpt><trkpt lat="45.579898" lon="12.3073416"><ele>2.0</ele><time>2026-04-15T09:05:22.258Z</time></trkpt><trkpt lat="45.5800235" lon="12.3069698"><ele>2.0</ele><time>2026-04-15T09:05:23.253Z</time></trkpt><trkpt lat="45.5801361" lon="12.3066016"><ele>2.0</ele><time>2026-04-15T09:05:24.251Z</time></trkpt><trkpt lat="45.5803866" lon="12.3058855"><ele>2.0</ele><time>2026-04-15T09:05:26.273Z</time></trkpt><trkpt lat="45.5805151" lon="12.3055436"><ele>2.0</ele><time>2026-04-15T09:05:27.252Z</time></trkpt><trkpt lat="45.5806339" lon="12.3051939"><ele>2.0</ele><time>2026-04-15T09:05:28.256Z</time></trkpt><trkpt lat="45.5807726" lon="12.304851"><ele>2.0</ele><time>2026-04-15T09:05:29.25Z</time></trkpt><trkpt lat="45.5809227" lon="12.3045024"><ele>2.0</ele><time>2026-04-15T09:05:30.25Z</time></trkpt><trkpt lat="45.581075" lon="12.3041425"><ele>2.0</ele><time>2026-04-15T09:05:31.259Z</time></trkpt><trkpt lat="45.5812317" lon="12.303773"><ele>2.5</ele><time>2026-04-15T09:05:32.247Z</time></trkpt><trkpt lat="45.581395" lon="12.3034088"><ele>3.0</ele><time>2026-04-15T09:05:33.252Z</time></trkpt><trkpt lat="45.5815657" lon="12.303043"><ele>3.0</ele><time>2026-04-15T09:05:34.277Z</time></trkpt><trkpt lat="45.5817364" lon="12.3026796"><ele>3.0</ele><time>2026-04-15T09:05:35.276Z</time></trkpt><trkpt lat="45.5820869" lon="12.3019634"><ele>3.0</ele><time>2026-04-15T09:05:37.258Z</time></trkpt><trkpt lat="45.5822637" lon="12.3016172"><ele>3.0</ele><time>2026-04-15T09:05:38.261Z</time></trkpt><trkpt lat="45.5824458" lon="12.3012762"><ele>2.5</ele><time>2026-04-15T09:05:39.254Z</time></trkpt><trkpt lat="45.5826241" lon="12.3009449"><ele>2.0</ele><time>2026-04-15T09:05:40.247Z</time></trkpt><trkpt lat="45.5828027" lon="12.3006202"><ele>2.5</ele><time>2026-04-15T09:05:41.251Z</time></trkpt><trkpt lat="45.5829808" lon="12.3002981"><ele>3.0</ele><time>2026-04-15T09:05:42.25Z</time></trkpt><trkpt lat="45.5831589" lon="12.2999728"><ele>2.5</ele><time>2026-04-15T09:05:43.244Z</time></trkpt><trkpt lat="45.583336" lon="12.2996543"><ele>2.0</ele><time>2026-04-15T09:05:44.27Z</time></trkpt><trkpt lat="45.5835119" lon="12.2993326"><ele>2.0</ele><time>2026-04-15T09:05:45.247Z</time></trkpt><trkpt lat="45.5836871" lon="12.2990133"><ele>2.0</ele><time>2026-04-15T09:05:46.257Z</time></trkpt><trkpt lat="45.5838641" lon="12.2986927"><ele>2.0</ele><time>2026-04-15T09:05:47.267Z</time></trkpt><trkpt lat="45.5840403" lon="12.2983737"><ele>2.0</ele><time>2026-04-15T09:05:48.25Z</time></trkpt><trkpt lat="45.584215" lon="12.2980579"><ele>2.0</ele><time>2026-04-15T09:05:49.259Z</time></trkpt><trkpt lat="45.584388" lon="12.2977366"><ele>2.0</ele><time>2026-04-15T09:05:50.257Z</time></trkpt><trkpt lat="45.5845585" lon="12.2974189"><ele>3.0</ele><time>2026-04-15T09:05:51.253Z</time></trkpt><trkpt lat="45.5847325" lon="12.2971012"><ele>4.0</ele><time>2026-04-15T09:05:52.261Z</time></trkpt><trkpt lat="45.584906" lon="12.2967892"><ele>4.0</ele><time>2026-04-15T09:05:53.247Z</time></trkpt><trkpt lat="45.5852512" lon="12.2961807"><ele>4.0</ele><time>2026-04-15T09:05:55.255Z</time></trkpt><trkpt lat="45.5854218" lon="12.2958797"><ele>4.0</ele><time>2026-04-15T09:05:56.251Z</time></trkpt><trkpt lat="45.5855916" lon="12.295578"><ele>4.0</ele><time>2026-04-15T09:05:57.253Z</time></trkpt><trkpt lat="45.5857524" lon="12.2952758"><ele>4.0</ele><time>2026-04-15T09:05:58.256Z</time></trkpt><trkpt lat="45.5859098" lon="12.2949848"><ele>4.0</ele><time>2026-04-15T09:05:59.287Z</time></trkpt><trkpt lat="45.5860617" lon="12.2946978"><ele>4.0</ele><time>2026-04-15T09:06:00.251Z</time></trkpt><trkpt lat="45.5862108" lon="12.2944057"><ele>3.5</ele><time>2026-04-15T09:06:01.254Z</time></trkpt><trkpt lat="45.5863573" lon="12.2941229"><ele>3.0</ele><time>2026-04-15T09:06:02.262Z</time></trkpt><trkpt lat="45.5864964" lon="12.2938569"><ele>2.6666666666666665</ele><time>2026-04-15T09:06:03.245Z</time></trkpt><trkpt lat="45.5866334" lon="12.2936113"><ele>2.333333333333333</ele><time>2026-04-15T09:06:04.25Z</time></trkpt><trkpt lat="45.586765" lon="12.2934087"><ele>2.0</ele><time>2026-04-15T09:06:05.268Z</time></trkpt><trkpt lat="45.5869115" lon="12.2932641"><ele>2.0</ele><time>2026-04-15T09:06:06.248Z</time></trkpt><trkpt lat="45.5870641" lon="12.2931626"><ele>2.0</ele><time>2026-04-15T09:06:07.234Z</time></trkpt><trkpt lat="45.587219" lon="12.2930823"><ele>2.0</ele><time>2026-04-15T09:06:08.247Z</time></trkpt><trkpt lat="45.5873884" lon="12.2930367"><ele>2.0</ele><time>2026-04-15T09:06:09.24Z</time></trkpt><trkpt lat="45.5875637" lon="12.2930275"><ele>2.0</ele><time>2026-04-15T09:06:10.24Z</time></trkpt><trkpt lat="45.5877472" lon="12.2930212"><ele>2.0</ele><time>2026-04-15T09:06:11.247Z</time></trkpt><trkpt lat="45.5879373" lon="12.2930271"><ele>1.3333333333333333</ele><time>2026-04-15T09:06:12.243Z</time></trkpt><trkpt lat="45.5881334" lon="12.2930361"><ele>0.6666666666666666</ele><time>2026-04-15T09:06:13.251Z</time></trkpt><trkpt lat="45.5883193" lon="12.2930346"><ele>0.0</ele><time>2026-04-15T09:06:14.247Z</time></trkpt><trkpt lat="45.5884966" lon="12.2930108"><ele>0.0</ele><time>2026-04-15T09:06:15.265Z</time></trkpt><trkpt lat="45.588652" lon="12.2929676"><ele>0.0</ele><time>2026-04-15T09:06:16.256Z</time></trkpt><trkpt lat="45.588781" lon="12.2928652"><ele>0.0</ele><time>2026-04-15T09:06:17.25Z</time></trkpt><trkpt lat="45.5888931" lon="12.292716"><ele>0.6666666666666666</ele><time>2026-04-15T09:06:18.256Z</time></trkpt><trkpt lat="45.5889849" lon="12.2925305"><ele>1.3333333333333333</ele><time>2026-04-15T09:06:19.254Z</time></trkpt><trkpt lat="45.5890399" lon="12.2923089"><ele>2.0</ele><time>2026-04-15T09:06:20.251Z</time></trkpt><trkpt lat="45.5890733" lon="12.2920811"><ele>2.0</ele><time>2026-04-15T09:06:21.244Z</time></trkpt><trkpt lat="45.5890835" lon="12.2918326"><ele>2.0</ele><time>2026-04-15T09:06:22.264Z</time></trkpt><trkpt lat="45.58906" lon="12.2915739"><ele>2.0</ele><time>2026-04-15T09:06:23.252Z</time></trkpt><trkpt lat="45.5890119" lon="12.2913345"><ele>2.0</ele><time>2026-04-15T09:06:24.249Z</time></trkpt><trkpt lat="45.5889334" lon="12.2911034"><ele>2.0</ele><time>2026-04-15T09:06:25.261Z</time></trkpt><trkpt lat="45.5888349" lon="12.2908866"><ele>2.0</ele><time>2026-04-15T09:06:26.258Z</time></trkpt><trkpt lat="45.588708" lon="12.2906998"><ele>2.0</ele><time>2026-04-15T09:06:27.257Z</time></trkpt><trkpt lat="45.5885709" lon="12.2905461"><ele>2.0</ele><time>2026-04-15T09:06:28.277Z</time></trkpt><trkpt lat="45.5884171" lon="12.2904389"><ele>2.0</ele><time>2026-04-15T09:06:29.244Z</time></trkpt><trkpt lat="45.5882353" lon="12.2903451"><ele>2.0</ele><time>2026-04-15T09:06:30.262Z</time></trkpt><trkpt lat="45.5880365" lon="12.2902752"><ele>2.0</ele><time>2026-04-15T09:06:31.246Z</time></trkpt><trkpt lat="45.5878275" lon="12.2902066"><ele>2.0</ele><time>2026-04-15T09:06:32.247Z</time></trkpt><trkpt lat="45.5876174" lon="12.2901428"><ele>2.333333333333333</ele><time>2026-04-15T09:06:33.253Z</time></trkpt><trkpt lat="45.5874024" lon="12.2900826"><ele>2.6666666666666665</ele><time>2026-04-15T09:06:34.258Z</time></trkpt><trkpt lat="45.5871817" lon="12.290018"><ele>3.0</ele><time>2026-04-15T09:06:35.253Z</time></trkpt><trkpt lat="45.5869546" lon="12.2899449"><ele>3.5</ele><time>2026-04-15T09:06:36.25Z</time></trkpt><trkpt lat="45.5867273" lon="12.2898696"><ele>4.0</ele><time>2026-04-15T09:06:37.243Z</time></trkpt><trkpt lat="45.5864958" lon="12.289801"><ele>3.5</ele><time>2026-04-15T09:06:38.245Z</time></trkpt><trkpt lat="45.5862609" lon="12.289725"><ele>3.0</ele><time>2026-04-15T09:06:39.256Z</time></trkpt><trkpt lat="45.586026" lon="12.2896491"><ele>3.0</ele><time>2026-04-15T09:06:40.256Z</time></trkpt><trkpt lat="45.5857892" lon="12.2895704"><ele>3.0</ele><time>2026-04-15T09:06:41.244Z</time></trkpt><trkpt lat="45.5855468" lon="12.2895078"><ele>3.5</ele><time>2026-04-15T09:06:42.242Z</time></trkpt><trkpt lat="45.5853047" lon="12.2894354"><ele>4.0</ele><time>2026-04-15T09:06:43.247Z</time></trkpt><trkpt lat="45.5850656" lon="12.2893616"><ele>4.0</ele><time>2026-04-15T09:06:44.251Z</time></trkpt><trkpt lat="45.5848345" lon="12.2892909"><ele>4.0</ele><time>2026-04-15T09:06:45.273Z</time></trkpt><trkpt lat="45.5846056" lon="12.289224"><ele>3.5</ele><time>2026-04-15T09:06:46.269Z</time></trkpt><trkpt lat="45.584379" lon="12.2891543"><ele>3.0</ele><time>2026-04-15T09:06:47.261Z</time></trkpt><trkpt lat="45.5841526" lon="12.2890879"><ele>3.0</ele><time>2026-04-15T09:06:48.241Z</time></trkpt><trkpt lat="45.5836964" lon="12.2889411"><ele>3.5</ele><time>2026-04-15T09:06:50.25Z</time></trkpt><trkpt lat="45.5834636" lon="12.288867"><ele>4.0</ele><time>2026-04-15T09:06:51.26Z</time></trkpt><trkpt lat="45.5832317" lon="12.2887901"><ele>4.0</ele><time>2026-04-15T09:06:52.254Z</time></trkpt><trkpt lat="45.5829983" lon="12.2887183"><ele>4.0</ele><time>2026-04-15T09:06:53.247Z</time></trkpt><trkpt lat="45.5827643" lon="12.2886478"><ele>4.0</ele><time>2026-04-15T09:06:54.234Z</time></trkpt><trkpt lat="45.5825335" lon="12.2885778"><ele>4.0</ele><time>2026-04-15T09:06:55.257Z</time></trkpt><trkpt lat="45.5823043" lon="12.2885202"><ele>3.0</ele><time>2026-04-15T09:06:56.25Z</time></trkpt><trkpt lat="45.5818452" lon="12.2884647"><ele>3.0</ele><time>2026-04-15T09:06:58.239Z</time></trkpt><trkpt lat="45.5816142" lon="12.2884737"><ele>3.0</ele><time>2026-04-15T09:06:59.274Z</time></trkpt><trkpt lat="45.5813779" lon="12.2885122"><ele>2.6666666666666665</ele><time>2026-04-15T09:07:00.246Z</time></trkpt><trkpt lat="45.5811551" lon="12.2885688"><ele>2.333333333333333</ele><time>2026-04-15T09:07:01.254Z</time></trkpt><trkpt lat="45.5809562" lon="12.2886265"><ele>2.0</ele><time>2026-04-15T09:07:02.259Z</time></trkpt><trkpt lat="45.5807781" lon="12.2886675"><ele>2.0</ele><time>2026-04-15T09:07:03.246Z</time></trkpt><trkpt lat="45.5805897" lon="12.2886972"><ele>2.0</ele><time>2026-04-15T09:07:04.259Z</time></trkpt><trkpt lat="45.5803939" lon="12.2887089"><ele>2.0</ele><time>2026-04-15T09:07:05.244Z</time></trkpt><trkpt lat="45.5801867" lon="12.2886988"><ele>2.0</ele><time>2026-04-15T09:07:06.256Z</time></trkpt><trkpt lat="45.5799777" lon="12.2886548"><ele>2.0</ele><time>2026-04-15T09:07:07.237Z</time></trkpt><trkpt lat="45.5797658" lon="12.2885792"><ele>2.0</ele><time>2026-04-15T09:07:08.243Z</time></trkpt><trkpt lat="45.5795573" lon="12.2884722"><ele>2.0</ele><time>2026-04-15T09:07:09.242Z</time></trkpt><trkpt lat="45.579369" lon="12.2883404"><ele>2.0</ele><time>2026-04-15T09:07:10.245Z</time></trkpt><trkpt lat="45.5791903" lon="12.2881988"><ele>2.0</ele><time>2026-04-15T09:07:11.242Z</time></trkpt><trkpt lat="45.5790288" lon="12.2880425"><ele>2.0</ele><time>2026-04-15T09:07:12.248Z</time></trkpt><trkpt lat="45.578881" lon="12.2878754"><ele>2.0</ele><time>2026-04-15T09:07:13.25Z</time></trkpt><trkpt lat="45.5787445" lon="12.2877024"><ele>2.0</ele><time>2026-04-15T09:07:14.235Z</time></trkpt><trkpt lat="45.5786182" lon="12.2875191"><ele>2.0</ele><time>2026-04-15T09:07:15.246Z</time></trkpt><trkpt lat="45.5784975" lon="12.2873239"><ele>2.0</ele><time>2026-04-15T09:07:16.251Z</time></trkpt><trkpt lat="45.5783821" lon="12.2871215"><ele>2.0</ele><time>2026-04-15T09:07:17.248Z</time></trkpt><trkpt lat="45.5782695" lon="12.2869154"><ele>2.0</ele><time>2026-04-15T09:07:18.236Z</time></trkpt><trkpt lat="45.5780531" lon="12.2864784"><ele>2.0</ele><time>2026-04-15T09:07:20.237Z</time></trkpt><trkpt lat="45.5779428" lon="12.2862369"><ele>2.333333333333333</ele><time>2026-04-15T09:07:21.241Z</time></trkpt><trkpt lat="45.5778272" lon="12.285987"><ele>2.6666666666666665</ele><time>2026-04-15T09:07:22.251Z</time></trkpt><trkpt lat="45.5777064" lon="12.285741"><ele>3.0</ele><time>2026-04-15T09:07:23.247Z</time></trkpt><trkpt lat="45.5775898" lon="12.2854891"><ele>3.333333333333333</ele><time>2026-04-15T09:07:24.245Z</time></trkpt><trkpt lat="45.577481" lon="12.2852422"><ele>3.6666666666666665</ele><time>2026-04-15T09:07:25.236Z</time></trkpt><trkpt lat="45.5773752" lon="12.2850111"><ele>4.0</ele><time>2026-04-15T09:07:26.247Z</time></trkpt><trkpt lat="45.5772719" lon="12.2847933"><ele>3.6666666666666665</ele><time>2026-04-15T09:07:27.236Z</time></trkpt><trkpt lat="45.5771768" lon="12.2845939"><ele>3.333333333333333</ele><time>2026-04-15T09:07:28.245Z</time></trkpt><trkpt lat="45.5770854" lon="12.2844082"><ele>3.0</ele><time>2026-04-15T09:07:29.243Z</time></trkpt><trkpt lat="45.577006" lon="12.2842456"><ele>3.0</ele><time>2026-04-15T09:07:30.241Z</time></trkpt><trkpt lat="45.5769301" lon="12.2841115"><ele>3.0</ele><time>2026-04-15T09:07:31.239Z</time></trkpt><trkpt lat="45.5768774" lon="12.2840108"><ele>3.0</ele><time>2026-04-15T09:07:32.244Z</time></trkpt><trkpt lat="45.5768074" lon="12.2839152"><ele>3.0</ele><time>2026-04-15T09:07:34.238Z</time></trkpt><trkpt lat="45.5767465" lon="12.2838126"><ele>3.0</ele><time>2026-04-15T09:08:39.226Z</time></trkpt><trkpt lat="45.5767128" lon="12.2837254"><ele>3.0</ele><time>2026-04-15T09:08:40.256Z</time></trkpt><trkpt lat="45.5766619" lon="12.2835975"><ele>3.0</ele><time>2026-04-15T09:08:41.229Z</time></trkpt><trkpt lat="45.5765941" lon="12.2834332"><ele>3.0</ele><time>2026-04-15T09:08:42.242Z</time></trkpt><trkpt lat="45.5765229" lon="12.2832661"><ele>3.0</ele><time>2026-04-15T09:08:43.228Z</time></trkpt><trkpt lat="45.5764575" lon="12.2831173"><ele>2.8</ele><time>2026-04-15T09:08:44.233Z</time></trkpt><trkpt lat="45.5764143" lon="12.282971"><ele>2.5999999999999996</ele><time>2026-04-15T09:08:45.225Z</time></trkpt><trkpt lat="45.5763677" lon="12.2828321"><ele>2.4000000000000004</ele><time>2026-04-15T09:08:46.233Z</time></trkpt><trkpt lat="45.5763239" lon="12.2827058"><ele>2.2</ele><time>2026-04-15T09:08:47.225Z</time></trkpt><trkpt lat="45.5762874" lon="12.2826073"><ele>2.0</ele><time>2026-04-15T09:08:48.216Z</time></trkpt><trkpt lat="45.5762473" lon="12.2825272"><ele>2.0</ele><time>2026-04-15T09:08:49.224Z</time></trkpt><trkpt lat="45.5761803" lon="12.2824148"><ele>2.0</ele><time>2026-04-15T09:08:51.229Z</time></trkpt><trkpt lat="45.5761222" lon="12.28234"><ele>2.0</ele><time>2026-04-15T09:09:31.236Z</time></trkpt><trkpt lat="45.5760279" lon="12.2822945"><ele>2.0</ele><time>2026-04-15T09:09:33.235Z</time></trkpt><trkpt lat="45.5759582" lon="12.2822295"><ele>2.0</ele><time>2026-04-15T09:09:34.223Z</time></trkpt><trkpt lat="45.5758792" lon="12.2821297"><ele>2.0</ele><time>2026-04-15T09:09:35.265Z</time></trkpt><trkpt lat="45.5757867" lon="12.2820006"><ele>2.0</ele><time>2026-04-15T09:09:36.232Z</time></trkpt><trkpt lat="45.5756899" lon="12.2818375"><ele>2.0</ele><time>2026-04-15T09:09:37.228Z</time></trkpt><trkpt lat="45.5755808" lon="12.2816588"><ele>2.0</ele><time>2026-04-15T09:09:38.233Z</time></trkpt><trkpt lat="45.5754599" lon="12.2814593"><ele>2.333333333333333</ele><time>2026-04-15T09:09:39.224Z</time></trkpt><trkpt lat="45.5753415" lon="12.2812529"><ele>2.6666666666666665</ele><time>2026-04-15T09:09:40.224Z</time></trkpt><trkpt lat="45.5752154" lon="12.2810406"><ele>3.0</ele><time>2026-04-15T09:09:41.237Z</time></trkpt><trkpt lat="45.5750809" lon="12.2808066"><ele>2.5</ele><time>2026-04-15T09:09:42.222Z</time></trkpt><trkpt lat="45.57494" lon="12.2805538"><ele>2.0</ele><time>2026-04-15T09:09:43.24Z</time></trkpt><trkpt lat="45.5747859" lon="12.2802873"><ele>2.0</ele><time>2026-04-15T09:09:44.216Z</time></trkpt><trkpt lat="45.5746247" lon="12.2800003"><ele>2.0</ele><time>2026-04-15T09:09:45.223Z</time></trkpt><trkpt lat="45.5744644" lon="12.2796937"><ele>3.5</ele><time>2026-04-15T09:09:46.227Z</time></trkpt><trkpt lat="45.5742948" lon="12.2793902"><ele>5.0</ele><time>2026-04-15T09:09:47.217Z</time></trkpt><trkpt lat="45.5741194" lon="12.2791022"><ele>4.0</ele><time>2026-04-15T09:09:48.225Z</time></trkpt><trkpt lat="45.5739415" lon="12.278816"><ele>3.0</ele><time>2026-04-15T09:09:49.227Z</time></trkpt><trkpt lat="45.5737511" lon="12.2785488"><ele>3.0</ele><time>2026-04-15T09:09:50.222Z</time></trkpt><trkpt lat="45.5735599" lon="12.2782848"><ele>3.0</ele><time>2026-04-15T09:09:51.235Z</time></trkpt><trkpt lat="45.573356" lon="12.2780294"><ele>3.0</ele><time>2026-04-15T09:09:52.226Z</time></trkpt><trkpt lat="45.5731497" lon="12.2777788"><ele>3.0</ele><time>2026-04-15T09:09:53.246Z</time></trkpt><trkpt lat="45.5729377" lon="12.2775289"><ele>3.0</ele><time>2026-04-15T09:09:54.22Z</time></trkpt><trkpt lat="45.5727263" lon="12.2772854"><ele>3.0</ele><time>2026-04-15T09:09:55.228Z</time></trkpt><trkpt lat="45.5725122" lon="12.2770633"><ele>3.0</ele><time>2026-04-15T09:09:56.218Z</time></trkpt><trkpt lat="45.5722965" lon="12.2768515"><ele>3.0</ele><time>2026-04-15T09:09:57.218Z</time></trkpt><trkpt lat="45.5720829" lon="12.276655"><ele>3.0</ele><time>2026-04-15T09:09:58.221Z</time></trkpt><trkpt lat="45.5718735" lon="12.2764666"><ele>3.0</ele><time>2026-04-15T09:09:59.223Z</time></trkpt><trkpt lat="45.5716575" lon="12.276295"><ele>3.0</ele><time>2026-04-15T09:10:00.236Z</time></trkpt><trkpt lat="45.5714405" lon="12.276131"><ele>3.0</ele><time>2026-04-15T09:10:01.228Z</time></trkpt><trkpt lat="45.5712187" lon="12.2759766"><ele>3.5</ele><time>2026-04-15T09:10:02.226Z</time></trkpt><trkpt lat="45.5709993" lon="12.2758351"><ele>4.0</ele><time>2026-04-15T09:10:03.231Z</time></trkpt><trkpt lat="45.5707753" lon="12.2757001"><ele>3.0</ele><time>2026-04-15T09:10:04.221Z</time></trkpt><trkpt lat="45.5705495" lon="12.2755715"><ele>2.0</ele><time>2026-04-15T09:10:05.229Z</time></trkpt><trkpt lat="45.5703215" lon="12.2754441"><ele>2.0</ele><time>2026-04-15T09:10:06.24Z</time></trkpt><trkpt lat="45.5700963" lon="12.2753235"><ele>2.0</ele><time>2026-04-15T09:10:07.213Z</time></trkpt><trkpt lat="45.5698723" lon="12.2752105"><ele>2.0</ele><time>2026-04-15T09:10:08.221Z</time></trkpt><trkpt lat="45.569638" lon="12.2751111"><ele>2.0</ele><time>2026-04-15T09:10:09.215Z</time></trkpt><trkpt lat="45.5693971" lon="12.2750317"><ele>2.0</ele><time>2026-04-15T09:10:10.229Z</time></trkpt><trkpt lat="45.5691567" lon="12.2749587"><ele>2.0</ele><time>2026-04-15T09:10:11.213Z</time></trkpt><trkpt lat="45.5689098" lon="12.2748887"><ele>3.5</ele><time>2026-04-15T09:10:12.223Z</time></trkpt><trkpt lat="45.5686548" lon="12.274825"><ele>5.0</ele><time>2026-04-15T09:10:13.231Z</time></trkpt><trkpt lat="45.5684035" lon="12.2747703"><ele>5.0</ele><time>2026-04-15T09:10:14.219Z</time></trkpt><trkpt lat="45.5681501" lon="12.2747222"><ele>5.0</ele><time>2026-04-15T09:10:15.227Z</time></trkpt><trkpt lat="45.5678929" lon="12.2746805"><ele>4.5</ele><time>2026-04-15T09:10:16.232Z</time></trkpt><trkpt lat="45.5676385" lon="12.2746468"><ele>4.0</ele><time>2026-04-15T09:10:17.222Z</time></trkpt><trkpt lat="45.567385" lon="12.2746228"><ele>4.0</ele><time>2026-04-15T09:10:18.216Z</time></trkpt><trkpt lat="45.5671318" lon="12.2745977"><ele>4.0</ele><time>2026-04-15T09:10:19.224Z</time></trkpt><trkpt lat="45.566881" lon="12.2745696"><ele>2.5</ele><time>2026-04-15T09:10:20.24Z</time></trkpt><trkpt lat="45.5666296" lon="12.2745401"><ele>1.0</ele><time>2026-04-15T09:10:21.217Z</time></trkpt><trkpt lat="45.5663748" lon="12.2745137"><ele>1.5</ele><time>2026-04-15T09:10:22.213Z</time></trkpt><trkpt lat="45.5661205" lon="12.2744827"><ele>2.0</ele><time>2026-04-15T09:10:23.227Z</time></trkpt><trkpt lat="45.5658604" lon="12.2744494"><ele>2.0</ele><time>2026-04-15T09:10:24.219Z</time></trkpt><trkpt lat="45.565597" lon="12.2744213"><ele>2.0</ele><time>2026-04-15T09:10:25.268Z</time></trkpt><trkpt lat="45.5653286" lon="12.2743912"><ele>2.5</ele><time>2026-04-15T09:10:26.227Z</time></trkpt><trkpt lat="45.5650604" lon="12.2743558"><ele>3.0</ele><time>2026-04-15T09:10:27.224Z</time></trkpt><trkpt lat="45.5647873" lon="12.2743276"><ele>3.0</ele><time>2026-04-15T09:10:28.223Z</time></trkpt><trkpt lat="45.5645137" lon="12.2742997"><ele>3.0</ele><time>2026-04-15T09:10:29.218Z</time></trkpt><trkpt lat="45.5642391" lon="12.274273"><ele>3.0</ele><time>2026-04-15T09:10:30.24Z</time></trkpt><trkpt lat="45.5639684" lon="12.2742415"><ele>3.0</ele><time>2026-04-15T09:10:31.23Z</time></trkpt><trkpt lat="45.5636985" lon="12.2742082"><ele>3.0</ele><time>2026-04-15T09:10:32.217Z</time></trkpt><trkpt lat="45.5634288" lon="12.2741816"><ele>3.0</ele><time>2026-04-15T09:10:33.213Z</time></trkpt><trkpt lat="45.5631535" lon="12.2741563"><ele>3.0</ele><time>2026-04-15T09:10:34.232Z</time></trkpt><trkpt lat="45.5628769" lon="12.2741323"><ele>3.0</ele><time>2026-04-15T09:10:35.23Z</time></trkpt><trkpt lat="45.5626017" lon="12.2741081"><ele>3.5</ele><time>2026-04-15T09:10:36.222Z</time></trkpt><trkpt lat="45.5623271" lon="12.2740795"><ele>4.0</ele><time>2026-04-15T09:10:37.219Z</time></trkpt><trkpt lat="45.5620527" lon="12.2740511"><ele>3.0</ele><time>2026-04-15T09:10:38.217Z</time></trkpt><trkpt lat="45.5617801" lon="12.2740201"><ele>2.0</ele><time>2026-04-15T09:10:39.215Z</time></trkpt><trkpt lat="45.5615088" lon="12.27399"><ele>2.0</ele><time>2026-04-15T09:10:40.213Z</time></trkpt><trkpt lat="45.5612406" lon="12.2739645"><ele>2.0</ele><time>2026-04-15T09:10:41.227Z</time></trkpt><trkpt lat="45.5609758" lon="12.2739359"><ele>2.0</ele><time>2026-04-15T09:10:42.228Z</time></trkpt><trkpt lat="45.5607157" lon="12.2739067"><ele>2.0</ele><time>2026-04-15T09:10:43.223Z</time></trkpt><trkpt lat="45.5604581" lon="12.2738797"><ele>2.5</ele><time>2026-04-15T09:10:44.218Z</time></trkpt><trkpt lat="45.5602034" lon="12.2738492"><ele>3.0</ele><time>2026-04-15T09:10:45.211Z</time></trkpt><trkpt lat="45.5599538" lon="12.2738197"><ele>3.0</ele><time>2026-04-15T09:10:46.216Z</time></trkpt><trkpt lat="45.5597013" lon="12.2737982"><ele>3.0</ele><time>2026-04-15T09:10:47.217Z</time></trkpt><trkpt lat="45.5594519" lon="12.273766"><ele>3.5</ele><time>2026-04-15T09:10:48.217Z</time></trkpt><trkpt lat="45.5592016" lon="12.2737219"><ele>4.0</ele><time>2026-04-15T09:10:49.217Z</time></trkpt><trkpt lat="45.5589576" lon="12.2736843"><ele>4.0</ele><time>2026-04-15T09:10:50.216Z</time></trkpt><trkpt lat="45.5587172" lon="12.2736527"><ele>4.0</ele><time>2026-04-15T09:10:51.211Z</time></trkpt><trkpt lat="45.5584788" lon="12.2736194"><ele>4.0</ele><time>2026-04-15T09:10:52.215Z</time></trkpt><trkpt lat="45.5582384" lon="12.2735776"><ele>4.0</ele><time>2026-04-15T09:10:53.207Z</time></trkpt><trkpt lat="45.5579998" lon="12.2735469"><ele>3.5</ele><time>2026-04-15T09:10:54.207Z</time></trkpt><trkpt lat="45.5577595" lon="12.2735275"><ele>3.0</ele><time>2026-04-15T09:10:55.215Z</time></trkpt><trkpt lat="45.5575195" lon="12.2735044"><ele>3.0</ele><time>2026-04-15T09:10:56.215Z</time></trkpt><trkpt lat="45.5572832" lon="12.2734762"><ele>3.0</ele><time>2026-04-15T09:10:57.214Z</time></trkpt><trkpt lat="45.5570396" lon="12.2734468"><ele>3.5</ele><time>2026-04-15T09:10:58.205Z</time></trkpt><trkpt lat="45.5567962" lon="12.2734236"><ele>4.0</ele><time>2026-04-15T09:10:59.232Z</time></trkpt><trkpt lat="45.5565519" lon="12.2733945"><ele>4.0</ele><time>2026-04-15T09:11:00.232Z</time></trkpt><trkpt lat="45.5563093" lon="12.2733599"><ele>4.0</ele><time>2026-04-15T09:11:01.217Z</time></trkpt><trkpt lat="45.5560693" lon="12.2733254"><ele>3.5</ele><time>2026-04-15T09:11:02.208Z</time></trkpt><trkpt lat="45.5558286" lon="12.2733024"><ele>3.0</ele><time>2026-04-15T09:11:03.219Z</time></trkpt><trkpt lat="45.5555853" lon="12.273268"><ele>3.5</ele><time>2026-04-15T09:11:04.201Z</time></trkpt><trkpt lat="45.5553462" lon="12.2732344"><ele>4.0</ele><time>2026-04-15T09:11:05.204Z</time></trkpt><trkpt lat="45.555107" lon="12.2732072"><ele>4.0</ele><time>2026-04-15T09:11:06.23Z</time></trkpt><trkpt lat="45.5548662" lon="12.2731782"><ele>4.0</ele><time>2026-04-15T09:11:07.213Z</time></trkpt><trkpt lat="45.5546249" lon="12.273153"><ele>4.0</ele><time>2026-04-15T09:11:08.209Z</time></trkpt><trkpt lat="45.5543787" lon="12.273129"><ele>4.0</ele><time>2026-04-15T09:11:09.208Z</time></trkpt><trkpt lat="45.5541378" lon="12.2731015"><ele>4.0</ele><time>2026-04-15T09:11:10.202Z</time></trkpt><trkpt lat="45.553899" lon="12.2730701"><ele>4.0</ele><time>2026-04-15T09:11:11.206Z</time></trkpt><trkpt lat="45.5536626" lon="12.2730345"><ele>3.0</ele><time>2026-04-15T09:11:12.204Z</time></trkpt><trkpt lat="45.5534222" lon="12.2730068"><ele>2.0</ele><time>2026-04-15T09:11:13.201Z</time></trkpt><trkpt lat="45.553177" lon="12.2729879"><ele>2.0</ele><time>2026-04-15T09:11:14.209Z</time></trkpt><trkpt lat="45.5529357" lon="12.2729574"><ele>2.0</ele><time>2026-04-15T09:11:15.207Z</time></trkpt><trkpt lat="45.552692" lon="12.2729219"><ele>2.0</ele><time>2026-04-15T09:11:16.229Z</time></trkpt><trkpt lat="45.5524498" lon="12.2728928"><ele>2.0</ele><time>2026-04-15T09:11:17.207Z</time></trkpt><trkpt lat="45.5522111" lon="12.2728747"><ele>3.5</ele><time>2026-04-15T09:11:18.217Z</time></trkpt><trkpt lat="45.5519653" lon="12.2728502"><ele>5.0</ele><time>2026-04-15T09:11:19.208Z</time></trkpt><trkpt lat="45.5517223" lon="12.2728295"><ele>5.0</ele><time>2026-04-15T09:11:20.22Z</time></trkpt><trkpt lat="45.5514791" lon="12.272802"><ele>5.0</ele><time>2026-04-15T09:11:21.224Z</time></trkpt><trkpt lat="45.5512369" lon="12.2727773"><ele>5.5</ele><time>2026-04-15T09:11:22.234Z</time></trkpt><trkpt lat="45.5509963" lon="12.2727529"><ele>6.0</ele><time>2026-04-15T09:11:23.221Z</time></trkpt><trkpt lat="45.5507542" lon="12.2727234"><ele>6.0</ele><time>2026-04-15T09:11:24.23Z</time></trkpt><trkpt lat="45.5505185" lon="12.2726936"><ele>6.0</ele><time>2026-04-15T09:11:25.22Z</time></trkpt><trkpt lat="45.5502888" lon="12.2726668"><ele>4.0</ele><time>2026-04-15T09:11:26.211Z</time></trkpt><trkpt lat="45.5500567" lon="12.2726376"><ele>2.0</ele><time>2026-04-15T09:11:27.21Z</time></trkpt><trkpt lat="45.5498274" lon="12.2726066"><ele>2.0</ele><time>2026-04-15T09:11:28.216Z</time></trkpt><trkpt lat="45.549597" lon="12.2725843"><ele>2.0</ele><time>2026-04-15T09:11:29.202Z</time></trkpt><trkpt lat="45.5493673" lon="12.2725583"><ele>2.5</ele><time>2026-04-15T09:11:30.218Z</time></trkpt><trkpt lat="45.5491377" lon="12.2725385"><ele>3.0</ele><time>2026-04-15T09:11:31.229Z</time></trkpt><trkpt lat="45.5489024" lon="12.2725227"><ele>3.0</ele><time>2026-04-15T09:11:32.206Z</time></trkpt><trkpt lat="45.5486645" lon="12.2725026"><ele>3.0</ele><time>2026-04-15T09:11:33.222Z</time></trkpt><trkpt lat="45.548418" lon="12.2724857"><ele>3.0</ele><time>2026-04-15T09:11:34.211Z</time></trkpt><trkpt lat="45.5481676" lon="12.2724684"><ele>3.0</ele><time>2026-04-15T09:11:35.226Z</time></trkpt><trkpt lat="45.5479134" lon="12.2724431"><ele>2.5</ele><time>2026-04-15T09:11:36.218Z</time></trkpt><trkpt lat="45.5476592" lon="12.272425"><ele>2.0</ele><time>2026-04-15T09:11:37.2Z</time></trkpt><trkpt lat="45.5474047" lon="12.272408"><ele>2.0</ele><time>2026-04-15T09:11:38.211Z</time></trkpt><trkpt lat="45.5471519" lon="12.2723981"><ele>2.0</ele><time>2026-04-15T09:11:39.216Z</time></trkpt><trkpt lat="45.5469004" lon="12.2723962"><ele>2.0</ele><time>2026-04-15T09:11:40.221Z</time></trkpt><trkpt lat="45.5466469" lon="12.2723989"><ele>2.0</ele><time>2026-04-15T09:11:41.215Z</time></trkpt><trkpt lat="45.5461484" lon="12.2724096"><ele>1.5</ele><time>2026-04-15T09:11:43.2Z</time></trkpt><trkpt lat="45.5459026" lon="12.2724307"><ele>1.0</ele><time>2026-04-15T09:11:44.198Z</time></trkpt><trkpt lat="45.5456515" lon="12.2724605"><ele>1.0</ele><time>2026-04-15T09:11:45.205Z</time></trkpt><trkpt lat="45.5453996" lon="12.2724854"><ele>1.0</ele><time>2026-04-15T09:11:46.213Z</time></trkpt><trkpt lat="45.5451504" lon="12.2725166"><ele>1.5</ele><time>2026-04-15T09:11:47.21Z</time></trkpt><trkpt lat="45.5448986" lon="12.2725527"><ele>2.0</ele><time>2026-04-15T09:11:48.22Z</time></trkpt><trkpt lat="45.5446518" lon="12.2725901"><ele>2.0</ele><time>2026-04-15T09:11:49.216Z</time></trkpt><trkpt lat="45.5444097" lon="12.2726343"><ele>2.0</ele><time>2026-04-15T09:11:50.215Z</time></trkpt><trkpt lat="45.5441667" lon="12.2726762"><ele>2.0</ele><time>2026-04-15T09:11:51.199Z</time></trkpt><trkpt lat="45.5439243" lon="12.2727231"><ele>2.0</ele><time>2026-04-15T09:11:52.209Z</time></trkpt><trkpt lat="45.5436824" lon="12.2727826"><ele>1.5</ele><time>2026-04-15T09:11:53.208Z</time></trkpt><trkpt lat="45.5434414" lon="12.2728475"><ele>1.0</ele><time>2026-04-15T09:11:54.216Z</time></trkpt><trkpt lat="45.5432045" lon="12.2729112"><ele>1.0</ele><time>2026-04-15T09:11:55.218Z</time></trkpt><trkpt lat="45.5429674" lon="12.2729783"><ele>1.0</ele><time>2026-04-15T09:11:56.218Z</time></trkpt><trkpt lat="45.5427325" lon="12.2730519"><ele>1.5</ele><time>2026-04-15T09:11:57.218Z</time></trkpt><trkpt lat="45.5424999" lon="12.2731297"><ele>2.0</ele><time>2026-04-15T09:11:58.229Z</time></trkpt><trkpt lat="45.5422747" lon="12.2732074"><ele>2.0</ele><time>2026-04-15T09:11:59.213Z</time></trkpt><trkpt lat="45.5420589" lon="12.2732886"><ele>2.0</ele><time>2026-04-15T09:12:00.217Z</time></trkpt><trkpt lat="45.5418533" lon="12.273372"><ele>2.0</ele><time>2026-04-15T09:12:01.196Z</time></trkpt><trkpt lat="45.5416565" lon="12.2734549"><ele>2.333333333333333</ele><time>2026-04-15T09:12:02.214Z</time></trkpt><trkpt lat="45.5414644" lon="12.2735376"><ele>2.6666666666666665</ele><time>2026-04-15T09:12:03.222Z</time></trkpt><trkpt lat="45.5412741" lon="12.2736187"><ele>3.0</ele><time>2026-04-15T09:12:04.214Z</time></trkpt><trkpt lat="45.541085" lon="12.2737026"><ele>2.3333333333333335</ele><time>2026-04-15T09:12:05.21Z</time></trkpt><trkpt lat="45.540892" lon="12.2737915"><ele>1.6666666666666665</ele><time>2026-04-15T09:12:06.223Z</time></trkpt><trkpt lat="45.5406966" lon="12.2738741"><ele>1.0</ele><time>2026-04-15T09:12:07.219Z</time></trkpt><trkpt lat="45.5405057" lon="12.2739503"><ele>1.3333333333333333</ele><time>2026-04-15T09:12:08.207Z</time></trkpt><trkpt lat="45.5403171" lon="12.2740253"><ele>1.6666666666666665</ele><time>2026-04-15T09:12:09.21Z</time></trkpt><trkpt lat="45.5401348" lon="12.2741028"><ele>2.0</ele><time>2026-04-15T09:12:10.235Z</time></trkpt><trkpt lat="45.5399588" lon="12.2741785"><ele>2.0</ele><time>2026-04-15T09:12:11.214Z</time></trkpt><trkpt lat="45.5397883" lon="12.2742472"><ele>2.0</ele><time>2026-04-15T09:12:12.219Z</time></trkpt><trkpt lat="45.539622" lon="12.2743225"><ele>2.0</ele><time>2026-04-15T09:12:13.2Z</time></trkpt><trkpt lat="45.5394554" lon="12.2743983"><ele>2.0</ele><time>2026-04-15T09:12:14.216Z</time></trkpt><trkpt lat="45.5392867" lon="12.2744728"><ele>2.0</ele><time>2026-04-15T09:12:15.211Z</time></trkpt><trkpt lat="45.5391225" lon="12.2745445"><ele>2.0</ele><time>2026-04-15T09:12:16.22Z</time></trkpt><trkpt lat="45.5389572" lon="12.2746209"><ele>2.0</ele><time>2026-04-15T09:12:17.22Z</time></trkpt><trkpt lat="45.5387963" lon="12.2746923"><ele>2.0</ele><time>2026-04-15T09:12:18.214Z</time></trkpt><trkpt lat="45.5386348" lon="12.274767"><ele>2.0</ele><time>2026-04-15T09:12:19.217Z</time></trkpt><trkpt lat="45.5384716" lon="12.2748415"><ele>2.0</ele><time>2026-04-15T09:12:20.248Z</time></trkpt><trkpt lat="45.5383047" lon="12.2749148"><ele>2.0</ele><time>2026-04-15T09:12:21.208Z</time></trkpt><trkpt lat="45.5381414" lon="12.2749841"><ele>2.0</ele><time>2026-04-15T09:12:22.208Z</time></trkpt><trkpt lat="45.5379756" lon="12.2750612"><ele>2.0</ele><time>2026-04-15T09:12:23.22Z</time></trkpt><trkpt lat="45.5378109" lon="12.2751325"><ele>2.0</ele><time>2026-04-15T09:12:24.212Z</time></trkpt><trkpt lat="45.5376578" lon="12.2751961"><ele>2.0</ele><time>2026-04-15T09:12:25.201Z</time></trkpt><trkpt lat="45.5375163" lon="12.2752499"><ele>2.0</ele><time>2026-04-15T09:12:26.207Z</time></trkpt><trkpt lat="45.5373773" lon="12.2752984"><ele>2.0</ele><time>2026-04-15T09:12:27.231Z</time></trkpt><trkpt lat="45.537236" lon="12.2753474"><ele>2.0</ele><time>2026-04-15T09:12:28.22Z</time></trkpt><trkpt lat="45.5370909" lon="12.2753825"><ele>2.0</ele><time>2026-04-15T09:12:29.214Z</time></trkpt><trkpt lat="45.5369492" lon="12.2754057"><ele>1.25</ele><time>2026-04-15T09:12:30.227Z</time></trkpt><trkpt lat="45.5368088" lon="12.2754288"><ele>0.5</ele><time>2026-04-15T09:12:31.216Z</time></trkpt><trkpt lat="45.53667" lon="12.2754472"><ele>-0.25</ele><time>2026-04-15T09:12:32.249Z</time></trkpt><trkpt lat="45.5365318" lon="12.2754557"><ele>-1.0</ele><time>2026-04-15T09:12:33.231Z</time></trkpt><trkpt lat="45.5363938" lon="12.2754614"><ele>-1.0</ele><time>2026-04-15T09:12:34.21Z</time></trkpt><trkpt lat="45.5362575" lon="12.2754609"><ele>-1.0</ele><time>2026-04-15T09:12:35.214Z</time></trkpt><trkpt lat="45.5361278" lon="12.2754604"><ele>-1.0</ele><time>2026-04-15T09:12:36.211Z</time></trkpt><trkpt lat="45.5358697" lon="12.275463"><ele>-1.0</ele><time>2026-04-15T09:12:38.212Z</time></trkpt><trkpt lat="45.535742" lon="12.2754575"><ele>-1.0</ele><time>2026-04-15T09:12:39.213Z</time></trkpt><trkpt lat="45.5356124" lon="12.2754579"><ele>-1.0</ele><time>2026-04-15T09:12:40.203Z</time></trkpt><trkpt lat="45.5354832" lon="12.2754554"><ele>-1.0</ele><time>2026-04-15T09:12:41.203Z</time></trkpt><trkpt lat="45.5353514" lon="12.275457"><ele>-1.25</ele><time>2026-04-15T09:12:42.196Z</time></trkpt><trkpt lat="45.5352239" lon="12.2754574"><ele>-1.5</ele><time>2026-04-15T09:12:43.193Z</time></trkpt><trkpt lat="45.5350954" lon="12.2754601"><ele>-1.75</ele><time>2026-04-15T09:12:44.206Z</time></trkpt><trkpt lat="45.5349632" lon="12.275456"><ele>-2.0</ele><time>2026-04-15T09:12:45.211Z</time></trkpt><trkpt lat="45.5348223" lon="12.2754476"><ele>-2.0</ele><time>2026-04-15T09:12:46.21Z</time></trkpt><trkpt lat="45.5346685" lon="12.2754369"><ele>-2.0</ele><time>2026-04-15T09:12:47.199Z</time></trkpt><trkpt lat="45.5345078" lon="12.2754356"><ele>-2.0</ele><time>2026-04-15T09:12:48.218Z</time></trkpt><trkpt lat="45.5343457" lon="12.2754368"><ele>-1.5</ele><time>2026-04-15T09:12:49.206Z</time></trkpt><trkpt lat="45.5341895" lon="12.27543"><ele>-1.0</ele><time>2026-04-15T09:12:50.209Z</time></trkpt><trkpt lat="45.5340434" lon="12.2754136"><ele>-0.5</ele><time>2026-04-15T09:12:51.221Z</time></trkpt><trkpt lat="45.5339108" lon="12.2753709"><ele>0.0</ele><time>2026-04-15T09:12:52.208Z</time></trkpt><trkpt lat="45.5337825" lon="12.2753052"><ele>0.25</ele><time>2026-04-15T09:12:53.216Z</time></trkpt><trkpt lat="45.5336604" lon="12.2752252"><ele>0.5</ele><time>2026-04-15T09:12:54.192Z</time></trkpt><trkpt lat="45.533541" lon="12.2751414"><ele>0.75</ele><time>2026-04-15T09:12:55.219Z</time></trkpt><trkpt lat="45.5334341" lon="12.2750467"><ele>1.0</ele><time>2026-04-15T09:12:56.202Z</time></trkpt><trkpt lat="45.5333333" lon="12.2749411"><ele>0.6666666666666666</ele><time>2026-04-15T09:12:57.194Z</time></trkpt><trkpt lat="45.5331582" lon="12.2747146"><ele>0.3333333333333333</ele><time>2026-04-15T09:12:59.197Z</time></trkpt><trkpt lat="45.5330896" lon="12.2745852"><ele>0.0</ele><time>2026-04-15T09:13:00.205Z</time></trkpt><trkpt lat="45.5330159" lon="12.2744487"><ele>0.0</ele><time>2026-04-15T09:13:01.198Z</time></trkpt><trkpt lat="45.5329367" lon="12.274299"><ele>0.0</ele><time>2026-04-15T09:13:02.195Z</time></trkpt><trkpt lat="45.5328523" lon="12.2741476"><ele>0.0</ele><time>2026-04-15T09:13:03.199Z</time></trkpt><trkpt lat="45.53276" lon="12.2739803"><ele>0.0</ele><time>2026-04-15T09:13:04.209Z</time></trkpt><trkpt lat="45.5326659" lon="12.2738092"><ele>0.0</ele><time>2026-04-15T09:13:05.195Z</time></trkpt><trkpt lat="45.532571" lon="12.2736302"><ele>0.0</ele><time>2026-04-15T09:13:06.224Z</time></trkpt><trkpt lat="45.5324759" lon="12.2734679"><ele>0.0</ele><time>2026-04-15T09:13:07.198Z</time></trkpt><trkpt lat="45.5323882" lon="12.2733034"><ele>0.6666666666666666</ele><time>2026-04-15T09:13:08.205Z</time></trkpt><trkpt lat="45.5322227" lon="12.2729917"><ele>1.3333333333333333</ele><time>2026-04-15T09:13:10.208Z</time></trkpt><trkpt lat="45.5321421" lon="12.272842"><ele>2.0</ele><time>2026-04-15T09:13:11.195Z</time></trkpt><trkpt lat="45.5320673" lon="12.2726854"><ele>2.0</ele><time>2026-04-15T09:13:12.208Z</time></trkpt><trkpt lat="45.5319064" lon="12.2723874"><ele>2.0</ele><time>2026-04-15T09:13:14.21Z</time></trkpt><trkpt lat="45.5318264" lon="12.272236"><ele>2.0</ele><time>2026-04-15T09:13:15.24Z</time></trkpt><trkpt lat="45.5317484" lon="12.2720889"><ele>2.25</ele><time>2026-04-15T09:13:16.222Z</time></trkpt><trkpt lat="45.5316777" lon="12.2719477"><ele>2.5</ele><time>2026-04-15T09:13:17.206Z</time></trkpt><trkpt lat="45.5316053" lon="12.2718071"><ele>2.75</ele><time>2026-04-15T09:13:18.211Z</time></trkpt><trkpt lat="45.5315311" lon="12.2716632"><ele>3.0</ele><time>2026-04-15T09:13:19.203Z</time></trkpt><trkpt lat="45.5313689" lon="12.2713748"><ele>2.3333333333333335</ele><time>2026-04-15T09:13:21.195Z</time></trkpt><trkpt lat="45.531283" lon="12.2712215"><ele>1.6666666666666665</ele><time>2026-04-15T09:13:22.206Z</time></trkpt><trkpt lat="45.5311881" lon="12.2710461"><ele>1.0</ele><time>2026-04-15T09:13:23.217Z</time></trkpt><trkpt lat="45.5310906" lon="12.2708648"><ele>1.0</ele><time>2026-04-15T09:13:24.21Z</time></trkpt><trkpt lat="45.5309908" lon="12.2706859"><ele>1.0</ele><time>2026-04-15T09:13:25.208Z</time></trkpt><trkpt lat="45.5308797" lon="12.2704984"><ele>1.0</ele><time>2026-04-15T09:13:26.212Z</time></trkpt><trkpt lat="45.5307582" lon="12.2702914"><ele>0.5</ele><time>2026-04-15T09:13:27.209Z</time></trkpt><trkpt lat="45.5306199" lon="12.2700442"><ele>0.0</ele><time>2026-04-15T09:13:28.211Z</time></trkpt><trkpt lat="45.5304817" lon="12.2697846"><ele>0.5</ele><time>2026-04-15T09:13:29.215Z</time></trkpt><trkpt lat="45.5303381" lon="12.2695138"><ele>1.0</ele><time>2026-04-15T09:13:30.206Z</time></trkpt><trkpt lat="45.5300658" lon="12.2689859"><ele>1.0</ele><time>2026-04-15T09:13:32.196Z</time></trkpt><trkpt lat="45.5299279" lon="12.2687245"><ele>1.0</ele><time>2026-04-15T09:13:33.198Z</time></trkpt><trkpt lat="45.5297881" lon="12.2684662"><ele>1.0</ele><time>2026-04-15T09:13:34.213Z</time></trkpt><trkpt lat="45.5296504" lon="12.2682105"><ele>1.0</ele><time>2026-04-15T09:13:35.205Z</time></trkpt><trkpt lat="45.5295145" lon="12.2679595"><ele>1.0</ele><time>2026-04-15T09:13:36.215Z</time></trkpt><trkpt lat="45.5293769" lon="12.2677132"><ele>1.3333333333333333</ele><time>2026-04-15T09:13:37.202Z</time></trkpt><trkpt lat="45.5292428" lon="12.2674615"><ele>1.6666666666666665</ele><time>2026-04-15T09:13:38.207Z</time></trkpt><trkpt lat="45.5291099" lon="12.2672122"><ele>2.0</ele><time>2026-04-15T09:13:39.201Z</time></trkpt><trkpt lat="45.5289761" lon="12.2669633"><ele>2.0</ele><time>2026-04-15T09:13:40.207Z</time></trkpt><trkpt lat="45.5288455" lon="12.2667182"><ele>2.0</ele><time>2026-04-15T09:13:41.211Z</time></trkpt><trkpt lat="45.5285801" lon="12.2662273"><ele>2.0</ele><time>2026-04-15T09:13:43.214Z</time></trkpt><trkpt lat="45.5284452" lon="12.2659743"><ele>2.0</ele><time>2026-04-15T09:13:44.198Z</time></trkpt><trkpt lat="45.5283122" lon="12.2657196"><ele>2.0</ele><time>2026-04-15T09:13:45.206Z</time></trkpt><trkpt lat="45.5281781" lon="12.2654681"><ele>2.0</ele><time>2026-04-15T09:13:46.21Z</time></trkpt><trkpt lat="45.5280361" lon="12.2652077"><ele>2.0</ele><time>2026-04-15T09:13:47.212Z</time></trkpt><trkpt lat="45.5278922" lon="12.264944"><ele>1.5</ele><time>2026-04-15T09:13:48.198Z</time></trkpt><trkpt lat="45.5277461" lon="12.2646821"><ele>1.0</ele><time>2026-04-15T09:13:49.208Z</time></trkpt><trkpt lat="45.527602" lon="12.2644161"><ele>1.0</ele><time>2026-04-15T09:13:50.204Z</time></trkpt><trkpt lat="45.5274577" lon="12.2641476"><ele>1.0</ele><time>2026-04-15T09:13:51.217Z</time></trkpt><trkpt lat="45.5273176" lon="12.2638776"><ele>2.0</ele><time>2026-04-15T09:13:52.22Z</time></trkpt><trkpt lat="45.5270207" lon="12.2633439"><ele>1.5</ele><time>2026-04-15T09:13:54.204Z</time></trkpt><trkpt lat="45.5268696" lon="12.2630773"><ele>1.0</ele><time>2026-04-15T09:13:55.207Z</time></trkpt><trkpt lat="45.5267182" lon="12.2628083"><ele>1.0</ele><time>2026-04-15T09:13:56.215Z</time></trkpt><trkpt lat="45.5265697" lon="12.2625403"><ele>1.0</ele><time>2026-04-15T09:13:57.215Z</time></trkpt><trkpt lat="45.5264152" lon="12.2622789"><ele>1.0</ele><time>2026-04-15T09:13:58.198Z</time></trkpt><trkpt lat="45.5262572" lon="12.2620129"><ele>1.0</ele><time>2026-04-15T09:13:59.211Z</time></trkpt><trkpt lat="45.5261004" lon="12.2617521"><ele>1.0</ele><time>2026-04-15T09:14:00.206Z</time></trkpt><trkpt lat="45.5259439" lon="12.2614909"><ele>1.0</ele><time>2026-04-15T09:14:01.193Z</time></trkpt><trkpt lat="45.5257878" lon="12.2612345"><ele>1.5</ele><time>2026-04-15T09:14:02.222Z</time></trkpt><trkpt lat="45.5256294" lon="12.2609776"><ele>2.0</ele><time>2026-04-15T09:14:03.214Z</time></trkpt><trkpt lat="45.5254732" lon="12.2607203"><ele>2.0</ele><time>2026-04-15T09:14:04.205Z</time></trkpt><trkpt lat="45.5253148" lon="12.260464"><ele>2.0</ele><time>2026-04-15T09:14:05.201Z</time></trkpt><trkpt lat="45.5250003" lon="12.2599499"><ele>2.5</ele><time>2026-04-15T09:14:07.212Z</time></trkpt><trkpt lat="45.5248385" lon="12.2596969"><ele>3.0</ele><time>2026-04-15T09:14:08.204Z</time></trkpt><trkpt lat="45.5246759" lon="12.2594462"><ele>2.5</ele><time>2026-04-15T09:14:09.205Z</time></trkpt><trkpt lat="45.5245132" lon="12.2591904"><ele>2.0</ele><time>2026-04-15T09:14:10.314Z</time></trkpt><trkpt lat="45.5243478" lon="12.2589299"><ele>1.5</ele><time>2026-04-15T09:14:11.298Z</time></trkpt><trkpt lat="45.5241834" lon="12.2586753"><ele>1.0</ele><time>2026-04-15T09:14:12.308Z</time></trkpt><trkpt lat="45.5238623" lon="12.258191"><ele>1.0</ele><time>2026-04-15T09:14:14.215Z</time></trkpt><trkpt lat="45.5237034" lon="12.2579529"><ele>1.0</ele><time>2026-04-15T09:14:15.227Z</time></trkpt><trkpt lat="45.5235501" lon="12.2577126"><ele>1.0</ele><time>2026-04-15T09:14:16.202Z</time></trkpt><trkpt lat="45.5233932" lon="12.2574785"><ele>1.0</ele><time>2026-04-15T09:14:17.297Z</time></trkpt><trkpt lat="45.5232358" lon="12.2572448"><ele>0.5</ele><time>2026-04-15T09:14:18.3Z</time></trkpt><trkpt lat="45.5230801" lon="12.2570132"><ele>0.0</ele><time>2026-04-15T09:14:19.298Z</time></trkpt><trkpt lat="45.5227724" lon="12.2565461"><ele>0.6666666666666666</ele><time>2026-04-15T09:14:21.201Z</time></trkpt><trkpt lat="45.5226173" lon="12.2563144"><ele>1.3333333333333333</ele><time>2026-04-15T09:14:22.216Z</time></trkpt><trkpt lat="45.5224626" lon="12.2560823"><ele>2.0</ele><time>2026-04-15T09:14:23.297Z</time></trkpt><trkpt lat="45.5223087" lon="12.2558548"><ele>2.0</ele><time>2026-04-15T09:14:24.305Z</time></trkpt><trkpt lat="45.522156" lon="12.2556277"><ele>2.0</ele><time>2026-04-15T09:14:25.311Z</time></trkpt><trkpt lat="45.5220004" lon="12.2554017"><ele>2.0</ele><time>2026-04-15T09:14:26.308Z</time></trkpt><trkpt lat="45.5218507" lon="12.255172"><ele>1.5</ele><time>2026-04-15T09:14:27.21Z</time></trkpt><trkpt lat="45.5215462" lon="12.2547225"><ele>1.0</ele><time>2026-04-15T09:14:29.201Z</time></trkpt><trkpt lat="45.5213932" lon="12.2545053"><ele>1.0</ele><time>2026-04-15T09:14:30.311Z</time></trkpt><trkpt lat="45.5212463" lon="12.2542847"><ele>1.0</ele><time>2026-04-15T09:14:31.306Z</time></trkpt><trkpt lat="45.5210971" lon="12.2540733"><ele>1.0</ele><time>2026-04-15T09:14:32.304Z</time></trkpt><trkpt lat="45.5209561" lon="12.253859"><ele>2.3333333333333335</ele><time>2026-04-15T09:14:33.309Z</time></trkpt><trkpt lat="45.5208152" lon="12.253641"><ele>3.666666666666667</ele><time>2026-04-15T09:14:34.212Z</time></trkpt><trkpt lat="45.5206762" lon="12.2534198"><ele>5.0</ele><time>2026-04-15T09:14:35.213Z</time></trkpt><trkpt lat="45.5205366" lon="12.2532012"><ele>5.0</ele><time>2026-04-15T09:14:36.302Z</time></trkpt><trkpt lat="45.5204008" lon="12.2529911"><ele>5.0</ele><time>2026-04-15T09:14:37.3Z</time></trkpt><trkpt lat="45.5202646" lon="12.2527779"><ele>5.0</ele><time>2026-04-15T09:14:38.291Z</time></trkpt><trkpt lat="45.5201237" lon="12.2525651"><ele>5.0</ele><time>2026-04-15T09:14:39.293Z</time></trkpt><trkpt lat="45.5199797" lon="12.2523523"><ele>5.0</ele><time>2026-04-15T09:14:40.297Z</time></trkpt><trkpt lat="45.5198314" lon="12.2521392"><ele>5.0</ele><time>2026-04-15T09:14:41.199Z</time></trkpt><trkpt lat="45.5196791" lon="12.2519272"><ele>5.0</ele><time>2026-04-15T09:14:42.197Z</time></trkpt><trkpt lat="45.519533" lon="12.2517026"><ele>5.0</ele><time>2026-04-15T09:14:43.309Z</time></trkpt><trkpt lat="45.5193974" lon="12.2514623"><ele>5.0</ele><time>2026-04-15T09:14:44.301Z</time></trkpt><trkpt lat="45.5192774" lon="12.2512028"><ele>4.666666666666667</ele><time>2026-04-15T09:14:45.283Z</time></trkpt><trkpt lat="45.5191706" lon="12.2509387"><ele>4.333333333333333</ele><time>2026-04-15T09:14:46.292Z</time></trkpt><trkpt lat="45.5190808" lon="12.2506766"><ele>4.0</ele><time>2026-04-15T09:14:47.304Z</time></trkpt><trkpt lat="45.5189557" lon="12.2501584"><ele>4.0</ele><time>2026-04-15T09:14:49.31Z</time></trkpt><trkpt lat="45.5189234" lon="12.2498924"><ele>4.0</ele><time>2026-04-15T09:14:50.298Z</time></trkpt><trkpt lat="45.5189161" lon="12.2496262"><ele>4.0</ele><time>2026-04-15T09:14:51.302Z</time></trkpt><trkpt lat="45.5189186" lon="12.2493596"><ele>3.0</ele><time>2026-04-15T09:14:52.288Z</time></trkpt><trkpt lat="45.5189344" lon="12.2490932"><ele>2.0</ele><time>2026-04-15T09:14:53.291Z</time></trkpt><trkpt lat="45.5189616" lon="12.2488284"><ele>1.0</ele><time>2026-04-15T09:14:54.298Z</time></trkpt><trkpt lat="45.5189879" lon="12.2485645"><ele>1.0</ele><time>2026-04-15T09:14:55.203Z</time></trkpt><trkpt lat="45.5190185" lon="12.2482951"><ele>1.0</ele><time>2026-04-15T09:14:56.298Z</time></trkpt><trkpt lat="45.5190485" lon="12.2480258"><ele>1.0</ele><time>2026-04-15T09:14:57.299Z</time></trkpt><trkpt lat="45.519072" lon="12.2477518"><ele>1.6666666666666665</ele><time>2026-04-15T09:14:58.296Z</time></trkpt><trkpt lat="45.5190903" lon="12.2474842"><ele>2.3333333333333335</ele><time>2026-04-15T09:14:59.3Z</time></trkpt><trkpt lat="45.5190942" lon="12.2472202"><ele>3.0</ele><time>2026-04-15T09:15:00.311Z</time></trkpt><trkpt lat="45.5190821" lon="12.2469541"><ele>3.666666666666667</ele><time>2026-04-15T09:15:01.301Z</time></trkpt><trkpt lat="45.519053" lon="12.2466883"><ele>4.333333333333334</ele><time>2026-04-15T09:15:02.299Z</time></trkpt><trkpt lat="45.5190047" lon="12.2464244"><ele>5.0</ele><time>2026-04-15T09:15:03.293Z</time></trkpt><trkpt lat="45.5189297" lon="12.2461783"><ele>5.0</ele><time>2026-04-15T09:15:04.302Z</time></trkpt><trkpt lat="45.5188363" lon="12.2459675"><ele>5.0</ele><time>2026-04-15T09:15:05.297Z</time></trkpt><trkpt lat="45.5187098" lon="12.2457805"><ele>5.0</ele><time>2026-04-15T09:15:06.31Z</time></trkpt><trkpt lat="45.5185562" lon="12.2456247"><ele>5.0</ele><time>2026-04-15T09:15:07.315Z</time></trkpt><trkpt lat="45.518397" lon="12.245483"><ele>5.0</ele><time>2026-04-15T09:15:08.303Z</time></trkpt><trkpt lat="45.5182377" lon="12.245357"><ele>5.0</ele><time>2026-04-15T09:15:09.294Z</time></trkpt><trkpt lat="45.5180765" lon="12.245237"><ele>5.0</ele><time>2026-04-15T09:15:10.291Z</time></trkpt><trkpt lat="45.5179074" lon="12.245114"><ele>5.0</ele><time>2026-04-15T09:15:11.295Z</time></trkpt><trkpt lat="45.5175267" lon="12.244852"><ele>5.0</ele><time>2026-04-15T09:15:13.299Z</time></trkpt><trkpt lat="45.5173202" lon="12.2447185"><ele>5.0</ele><time>2026-04-15T09:15:14.297Z</time></trkpt><trkpt lat="45.5171176" lon="12.2445819"><ele>4.0</ele><time>2026-04-15T09:15:15.296Z</time></trkpt><trkpt lat="45.516923" lon="12.2444497"><ele>3.0</ele><time>2026-04-15T09:15:16.296Z</time></trkpt><trkpt lat="45.5167419" lon="12.2443173"><ele>2.0</ele><time>2026-04-15T09:15:17.292Z</time></trkpt><trkpt lat="45.5165753" lon="12.2442055"><ele>2.0</ele><time>2026-04-15T09:15:18.294Z</time></trkpt><trkpt lat="45.5164303" lon="12.2441048"><ele>2.0</ele><time>2026-04-15T09:15:19.291Z</time></trkpt><trkpt lat="45.5163043" lon="12.2440158"><ele>2.0</ele><time>2026-04-15T09:15:20.295Z</time></trkpt><trkpt lat="45.5161966" lon="12.243931"><ele>2.0</ele><time>2026-04-15T09:15:21.298Z</time></trkpt><trkpt lat="45.516108" lon="12.2438377"><ele>2.5</ele><time>2026-04-15T09:15:22.291Z</time></trkpt><trkpt lat="45.5160384" lon="12.2437371"><ele>3.0</ele><time>2026-04-15T09:15:23.294Z</time></trkpt><trkpt lat="45.5159757" lon="12.243632"><ele>3.5</ele><time>2026-04-15T09:15:24.289Z</time></trkpt><trkpt lat="45.5159318" lon="12.2435389"><ele>4.0</ele><time>2026-04-15T09:15:25.309Z</time></trkpt><trkpt lat="45.5158987" lon="12.2434377"><ele>4.5</ele><time>2026-04-15T09:15:27.29Z</time></trkpt><trkpt lat="45.5158723" lon="12.243354"><ele>5.0</ele><time>2026-04-15T09:15:29.291Z</time></trkpt><trkpt lat="45.5158464" lon="12.2432665"><ele>4.75</ele><time>2026-04-15T09:15:30.292Z</time></trkpt><trkpt lat="45.5158077" lon="12.2431161"><ele>4.5</ele><time>2026-04-15T09:15:31.297Z</time></trkpt><trkpt lat="45.5157683" lon="12.2429098"><ele>4.25</ele><time>2026-04-15T09:15:32.299Z</time></trkpt><trkpt lat="45.5157166" lon="12.2427027"><ele>4.0</ele><time>2026-04-15T09:15:33.282Z</time></trkpt><trkpt lat="45.5156317" lon="12.2425205"><ele>4.0</ele><time>2026-04-15T09:15:34.295Z</time></trkpt><trkpt lat="45.5155115" lon="12.2423856"><ele>4.0</ele><time>2026-04-15T09:15:35.305Z</time></trkpt><trkpt lat="45.515376" lon="12.2422832"><ele>4.0</ele><time>2026-04-15T09:15:36.315Z</time></trkpt><trkpt lat="45.5152322" lon="12.2422252"><ele>4.0</ele><time>2026-04-15T09:15:37.299Z</time></trkpt><trkpt lat="45.5150844" lon="12.2422215"><ele>4.0</ele><time>2026-04-15T09:15:38.303Z</time></trkpt><trkpt lat="45.5149447" lon="12.2422505"><ele>4.0</ele><time>2026-04-15T09:15:39.317Z</time></trkpt><trkpt lat="45.5148203" lon="12.2423287"><ele>4.0</ele><time>2026-04-15T09:15:40.301Z</time></trkpt><trkpt lat="45.514717" lon="12.2424422"><ele>4.0</ele><time>2026-04-15T09:15:41.282Z</time></trkpt><trkpt lat="45.5146375" lon="12.2425655"><ele>4.0</ele><time>2026-04-15T09:15:42.293Z</time></trkpt><trkpt lat="45.5145734" lon="12.2426883"><ele>4.0</ele><time>2026-04-15T09:15:43.3Z</time></trkpt><trkpt lat="45.5145092" lon="12.2428034"><ele>4.0</ele><time>2026-04-15T09:15:44.287Z</time></trkpt><trkpt lat="45.5144499" lon="12.2429376"><ele>4.0</ele><time>2026-04-15T09:15:45.279Z</time></trkpt><trkpt lat="45.5144007" lon="12.2430702"><ele>4.25</ele><time>2026-04-15T09:15:46.301Z</time></trkpt><trkpt lat="45.5143695" lon="12.2432222"><ele>4.5</ele><time>2026-04-15T09:15:47.278Z</time></trkpt><trkpt lat="45.5143585" lon="12.2434002"><ele>4.75</ele><time>2026-04-15T09:15:48.288Z</time></trkpt><trkpt lat="45.5143487" lon="12.243598"><ele>5.0</ele><time>2026-04-15T09:15:49.28Z</time></trkpt><trkpt lat="45.5143601" lon="12.2438203"><ele>4.75</ele><time>2026-04-15T09:15:50.312Z</time></trkpt><trkpt lat="45.5143764" lon="12.2440151"><ele>4.5</ele><time>2026-04-15T09:15:51.299Z</time></trkpt><trkpt lat="45.5144179" lon="12.2441878"><ele>4.25</ele><time>2026-04-15T09:15:52.28Z</time></trkpt><trkpt lat="45.5144854" lon="12.2443393"><ele>4.0</ele><time>2026-04-15T09:15:53.292Z</time></trkpt><trkpt lat="45.5145646" lon="12.2444742"><ele>4.0</ele><time>2026-04-15T09:15:54.305Z</time></trkpt><trkpt lat="45.514646" lon="12.2446136"><ele>4.0</ele><time>2026-04-15T09:15:55.325Z</time></trkpt><trkpt lat="45.5147142" lon="12.2447679"><ele>4.0</ele><time>2026-04-15T09:15:56.281Z</time></trkpt><trkpt lat="45.5147702" lon="12.244935"><ele>4.0</ele><time>2026-04-15T09:15:57.281Z</time></trkpt><trkpt lat="45.5148011" lon="12.2451317"><ele>4.0</ele><time>2026-04-15T09:15:58.32Z</time></trkpt><trkpt lat="45.5148089" lon="12.2453646"><ele>4.0</ele><time>2026-04-15T09:15:59.291Z</time></trkpt><trkpt lat="45.5147921" lon="12.2456046"><ele>4.0</ele><time>2026-04-15T09:16:00.302Z</time></trkpt><trkpt lat="45.5147635" lon="12.2458465"><ele>3.6666666666666665</ele><time>2026-04-15T09:16:01.304Z</time></trkpt><trkpt lat="45.5147276" lon="12.2461133"><ele>3.333333333333333</ele><time>2026-04-15T09:16:02.29Z</time></trkpt><trkpt lat="45.5146893" lon="12.2464282"><ele>3.0</ele><time>2026-04-15T09:16:03.299Z</time></trkpt><trkpt lat="45.5146505" lon="12.2467588"><ele>2.5</ele><time>2026-04-15T09:16:04.285Z</time></trkpt><trkpt lat="45.514611" lon="12.2470939"><ele>2.0</ele><time>2026-04-15T09:16:05.291Z</time></trkpt><trkpt lat="45.5145651" lon="12.2474249"><ele>2.0</ele><time>2026-04-15T09:16:06.295Z</time></trkpt><trkpt lat="45.5145122" lon="12.247772"><ele>2.0</ele><time>2026-04-15T09:16:07.281Z</time></trkpt><trkpt lat="45.5144484" lon="12.2481284"><ele>1.5</ele><time>2026-04-15T09:16:08.295Z</time></trkpt><trkpt lat="45.5143866" lon="12.2484911"><ele>1.0</ele><time>2026-04-15T09:16:09.29Z</time></trkpt><trkpt lat="45.5143246" lon="12.248852"><ele>0.5</ele><time>2026-04-15T09:16:10.283Z</time></trkpt><trkpt lat="45.5142593" lon="12.2492098"><ele>0.0</ele><time>2026-04-15T09:16:11.297Z</time></trkpt><trkpt lat="45.5141862" lon="12.2495553"><ele>1.0</ele><time>2026-04-15T09:16:12.301Z</time></trkpt><trkpt lat="45.5141169" lon="12.2498984"><ele>2.0</ele><time>2026-04-15T09:16:13.285Z</time></trkpt><trkpt lat="45.5140482" lon="12.250237"><ele>2.0</ele><time>2026-04-15T09:16:14.286Z</time></trkpt><trkpt lat="45.5139755" lon="12.2505795"><ele>2.0</ele><time>2026-04-15T09:16:15.297Z</time></trkpt><trkpt lat="45.5138968" lon="12.2509136"><ele>2.5</ele><time>2026-04-15T09:16:16.291Z</time></trkpt><trkpt lat="45.5138155" lon="12.2512441"><ele>3.0</ele><time>2026-04-15T09:16:17.28Z</time></trkpt><trkpt lat="45.5137347" lon="12.251567"><ele>2.0</ele><time>2026-04-15T09:16:18.284Z</time></trkpt><trkpt lat="45.5136581" lon="12.2518955"><ele>1.0</ele><time>2026-04-15T09:16:19.287Z</time></trkpt><trkpt lat="45.5135809" lon="12.2522379"><ele>0.5</ele><time>2026-04-15T09:16:20.291Z</time></trkpt><trkpt lat="45.5135055" lon="12.2525762"><ele>0.0</ele><time>2026-04-15T09:16:21.292Z</time></trkpt><trkpt lat="45.5134304" lon="12.252912"><ele>0.5</ele><time>2026-04-15T09:16:22.28Z</time></trkpt><trkpt lat="45.5133498" lon="12.2532571"><ele>1.0</ele><time>2026-04-15T09:16:23.292Z</time></trkpt><trkpt lat="45.5132689" lon="12.2536039"><ele>1.0</ele><time>2026-04-15T09:16:24.292Z</time></trkpt><trkpt lat="45.5131857" lon="12.2539492"><ele>1.0</ele><time>2026-04-15T09:16:25.268Z</time></trkpt><trkpt lat="45.5130998" lon="12.2542918"><ele>1.0</ele><time>2026-04-15T09:16:26.295Z</time></trkpt><trkpt lat="45.5130157" lon="12.254631"><ele>1.0</ele><time>2026-04-15T09:16:27.296Z</time></trkpt><trkpt lat="45.5129319" lon="12.254962"><ele>1.0</ele><time>2026-04-15T09:16:28.286Z</time></trkpt><trkpt lat="45.512851" lon="12.2552925"><ele>1.0</ele><time>2026-04-15T09:16:29.285Z</time></trkpt><trkpt lat="45.5127763" lon="12.2556166"><ele>2.0</ele><time>2026-04-15T09:16:30.288Z</time></trkpt><trkpt lat="45.5126991" lon="12.2559455"><ele>3.0</ele><time>2026-04-15T09:16:31.294Z</time></trkpt><trkpt lat="45.5126149" lon="12.256276"><ele>3.0</ele><time>2026-04-15T09:16:32.287Z</time></trkpt><trkpt lat="45.512541" lon="12.256605"><ele>3.0</ele><time>2026-04-15T09:16:33.303Z</time></trkpt><trkpt lat="45.5124633" lon="12.2569272"><ele>3.0</ele><time>2026-04-15T09:16:34.273Z</time></trkpt><trkpt lat="45.5123845" lon="12.2572428"><ele>3.0</ele><time>2026-04-15T09:16:35.278Z</time></trkpt><trkpt lat="45.5123083" lon="12.2575673"><ele>3.5</ele><time>2026-04-15T09:16:36.29Z</time></trkpt><trkpt lat="45.5122328" lon="12.2578902"><ele>4.0</ele><time>2026-04-15T09:16:37.281Z</time></trkpt><trkpt lat="45.5121539" lon="12.2582166"><ele>2.5</ele><time>2026-04-15T09:16:38.289Z</time></trkpt><trkpt lat="45.5120713" lon="12.2585468"><ele>1.0</ele><time>2026-04-15T09:16:39.282Z</time></trkpt><trkpt lat="45.5119884" lon="12.2588748"><ele>0.5</ele><time>2026-04-15T09:16:40.283Z</time></trkpt><trkpt lat="45.5118942" lon="12.259193"><ele>0.0</ele><time>2026-04-15T09:16:41.29Z</time></trkpt><trkpt lat="45.5117973" lon="12.2594872"><ele>0.0</ele><time>2026-04-15T09:16:42.281Z</time></trkpt><trkpt lat="45.5116956" lon="12.259768"><ele>0.0</ele><time>2026-04-15T09:16:43.286Z</time></trkpt><trkpt lat="45.5115889" lon="12.2600367"><ele>0.0</ele><time>2026-04-15T09:16:44.279Z</time></trkpt><trkpt lat="45.5114766" lon="12.2602854"><ele>-0.3333333333333333</ele><time>2026-04-15T09:16:45.289Z</time></trkpt><trkpt lat="45.5113596" lon="12.2605284"><ele>-0.6666666666666666</ele><time>2026-04-15T09:16:46.287Z</time></trkpt><trkpt lat="45.5112378" lon="12.2607596"><ele>-1.0</ele><time>2026-04-15T09:16:47.285Z</time></trkpt><trkpt lat="45.5111142" lon="12.2609887"><ele>-1.0</ele><time>2026-04-15T09:16:48.281Z</time></trkpt><trkpt lat="45.5109888" lon="12.261218"><ele>-1.0</ele><time>2026-04-15T09:16:49.287Z</time></trkpt><trkpt lat="45.5108668" lon="12.2614552"><ele>-1.0</ele><time>2026-04-15T09:16:50.287Z</time></trkpt><trkpt lat="45.5107562" lon="12.2616892"><ele>-1.0</ele><time>2026-04-15T09:16:51.292Z</time></trkpt><trkpt lat="45.5106506" lon="12.2619267"><ele>-1.0</ele><time>2026-04-15T09:16:52.292Z</time></trkpt><trkpt lat="45.5105444" lon="12.2621438"><ele>-1.0</ele><time>2026-04-15T09:16:53.283Z</time></trkpt><trkpt lat="45.5104516" lon="12.262328"><ele>-0.75</ele><time>2026-04-15T09:16:54.296Z</time></trkpt><trkpt lat="45.5103593" lon="12.2625047"><ele>-0.5</ele><time>2026-04-15T09:16:55.279Z</time></trkpt><trkpt lat="45.5102849" lon="12.2626611"><ele>-0.25</ele><time>2026-04-15T09:16:56.28Z</time></trkpt><trkpt lat="45.5102158" lon="12.2627919"><ele>0.0</ele><time>2026-04-15T09:16:57.287Z</time></trkpt><trkpt lat="45.5101455" lon="12.2628863"><ele>0.0</ele><time>2026-04-15T09:16:58.281Z</time></trkpt><trkpt lat="45.5100787" lon="12.2629458"><ele>0.0</ele><time>2026-04-15T09:16:59.289Z</time></trkpt><trkpt lat="45.5099876" lon="12.2629081"><ele>0.0</ele><time>2026-04-15T09:17:01.297Z</time></trkpt><trkpt lat="45.5099239" lon="12.2628891"><ele>0.0</ele><time>2026-04-15T09:18:06.265Z</time></trkpt><trkpt lat="45.5099479" lon="12.2629947"><ele>0.0</ele><time>2026-04-15T09:19:31.271Z</time></trkpt><trkpt lat="45.5100005" lon="12.2631495"><ele>0.0</ele><time>2026-04-15T09:19:33.281Z</time></trkpt><trkpt lat="45.50999" lon="12.2632845"><ele>0.25</ele><time>2026-04-15T09:19:34.292Z</time></trkpt><trkpt lat="45.509933" lon="12.2634198"><ele>0.5</ele><time>2026-04-15T09:19:35.263Z</time></trkpt><trkpt lat="45.5098516" lon="12.2635683"><ele>0.75</ele><time>2026-04-15T09:19:36.273Z</time></trkpt><trkpt lat="45.5097576" lon="12.2637515"><ele>1.0</ele><time>2026-04-15T09:19:37.279Z</time></trkpt><trkpt lat="45.5095461" lon="12.2641927"><ele>1.3333333333333333</ele><time>2026-04-15T09:19:39.264Z</time></trkpt><trkpt lat="45.5094387" lon="12.2644328"><ele>1.6666666666666665</ele><time>2026-04-15T09:19:40.27Z</time></trkpt><trkpt lat="45.5093299" lon="12.2646642"><ele>2.0</ele><time>2026-04-15T09:19:41.31Z</time></trkpt><trkpt lat="45.5092177" lon="12.2649188"><ele>2.0</ele><time>2026-04-15T09:19:42.282Z</time></trkpt><trkpt lat="45.5091094" lon="12.2651733"><ele>2.0</ele><time>2026-04-15T09:19:43.332Z</time></trkpt><trkpt lat="45.5089993" lon="12.2654287"><ele>2.0</ele><time>2026-04-15T09:19:44.294Z</time></trkpt><trkpt lat="45.5088839" lon="12.2656771"><ele>2.0</ele><time>2026-04-15T09:19:45.283Z</time></trkpt><trkpt lat="45.5087675" lon="12.2659209"><ele>2.0</ele><time>2026-04-15T09:19:46.324Z</time></trkpt><trkpt lat="45.508532" lon="12.2663939"><ele>0.5</ele><time>2026-04-15T09:19:48.294Z</time></trkpt><trkpt lat="45.508296" lon="12.2668803"><ele>-1.0</ele><time>2026-04-15T09:19:50.271Z</time></trkpt><trkpt lat="45.5081743" lon="12.2671324"><ele>-1.3333333333333333</ele><time>2026-04-15T09:19:51.268Z</time></trkpt><trkpt lat="45.50805" lon="12.2673955"><ele>-1.6666666666666665</ele><time>2026-04-15T09:19:52.271Z</time></trkpt><trkpt lat="45.5079245" lon="12.2676606"><ele>-2.0</ele><time>2026-04-15T09:19:53.269Z</time></trkpt><trkpt lat="45.5078006" lon="12.2679245"><ele>-1.0</ele><time>2026-04-15T09:19:54.274Z</time></trkpt><trkpt lat="45.5076781" lon="12.2681802"><ele>0.0</ele><time>2026-04-15T09:19:55.292Z</time></trkpt><trkpt lat="45.5075563" lon="12.2684332"><ele>1.0</ele><time>2026-04-15T09:19:56.27Z</time></trkpt><trkpt lat="45.5074344" lon="12.2686815"><ele>1.0</ele><time>2026-04-15T09:19:57.262Z</time></trkpt><trkpt lat="45.5073098" lon="12.2689273"><ele>1.0</ele><time>2026-04-15T09:19:58.265Z</time></trkpt><trkpt lat="45.5071841" lon="12.2691679"><ele>1.0</ele><time>2026-04-15T09:19:59.264Z</time></trkpt><trkpt lat="45.5069238" lon="12.2696371"><ele>0.6666666666666666</ele><time>2026-04-15T09:20:01.273Z</time></trkpt><trkpt lat="45.5067851" lon="12.2698555"><ele>0.3333333333333333</ele><time>2026-04-15T09:20:02.282Z</time></trkpt><trkpt lat="45.5066427" lon="12.2700598"><ele>0.0</ele><time>2026-04-15T09:20:03.282Z</time></trkpt><trkpt lat="45.5064936" lon="12.2702518"><ele>0.0</ele><time>2026-04-15T09:20:04.28Z</time></trkpt><trkpt lat="45.5063447" lon="12.2704349"><ele>0.0</ele><time>2026-04-15T09:20:05.276Z</time></trkpt><trkpt lat="45.5061939" lon="12.2705976"><ele>0.0</ele><time>2026-04-15T09:20:06.271Z</time></trkpt><trkpt lat="45.5060386" lon="12.2707583"><ele>0.3333333333333333</ele><time>2026-04-15T09:20:07.288Z</time></trkpt><trkpt lat="45.5058627" lon="12.2709249"><ele>0.6666666666666666</ele><time>2026-04-15T09:20:08.271Z</time></trkpt><trkpt lat="45.5056738" lon="12.2710771"><ele>1.0</ele><time>2026-04-15T09:20:09.286Z</time></trkpt><trkpt lat="45.5054861" lon="12.2712075"><ele>1.6666666666666665</ele><time>2026-04-15T09:20:10.272Z</time></trkpt><trkpt lat="45.5053089" lon="12.2713216"><ele>2.3333333333333335</ele><time>2026-04-15T09:20:11.274Z</time></trkpt><trkpt lat="45.5051383" lon="12.2714165"><ele>3.0</ele><time>2026-04-15T09:20:12.271Z</time></trkpt><trkpt lat="45.5049755" lon="12.2714973"><ele>3.0</ele><time>2026-04-15T09:20:13.275Z</time></trkpt><trkpt lat="45.5048208" lon="12.2715749"><ele>3.0</ele><time>2026-04-15T09:20:14.292Z</time></trkpt><trkpt lat="45.5046774" lon="12.2716398"><ele>3.0</ele><time>2026-04-15T09:20:15.279Z</time></trkpt><trkpt lat="45.5045391" lon="12.271697"><ele>3.25</ele><time>2026-04-15T09:20:16.269Z</time></trkpt><trkpt lat="45.5044037" lon="12.2717605"><ele>3.5</ele><time>2026-04-15T09:20:17.265Z</time></trkpt><trkpt lat="45.5042725" lon="12.2718301"><ele>3.75</ele><time>2026-04-15T09:20:18.28Z</time></trkpt><trkpt lat="45.5041379" lon="12.2718981"><ele>4.0</ele><time>2026-04-15T09:20:19.263Z</time></trkpt><trkpt lat="45.5040046" lon="12.2719688"><ele>4.0</ele><time>2026-04-15T09:20:20.271Z</time></trkpt><trkpt lat="45.5038612" lon="12.2720413"><ele>4.0</ele><time>2026-04-15T09:20:21.284Z</time></trkpt><trkpt lat="45.5037173" lon="12.2721122"><ele>4.0</ele><time>2026-04-15T09:20:22.273Z</time></trkpt><trkpt lat="45.5035729" lon="12.27218"><ele>3.5</ele><time>2026-04-15T09:20:23.272Z</time></trkpt><trkpt lat="45.5034306" lon="12.272247"><ele>3.0</ele><time>2026-04-15T09:20:24.273Z</time></trkpt><trkpt lat="45.503298" lon="12.2722996"><ele>2.5</ele><time>2026-04-15T09:20:25.263Z</time></trkpt><trkpt lat="45.5031787" lon="12.2723467"><ele>2.0</ele><time>2026-04-15T09:20:26.283Z</time></trkpt><trkpt lat="45.5030706" lon="12.2723931"><ele>1.9999999999999998</ele><time>2026-04-15T09:20:27.291Z</time></trkpt><trkpt lat="45.502985" lon="12.2724284"><ele>2.0</ele><time>2026-04-15T09:20:28.274Z</time></trkpt><trkpt lat="45.5028835" lon="12.2724534"><ele>2.0</ele><time>2026-04-15T09:20:30.275Z</time></trkpt><trkpt lat="45.5028089" lon="12.272468"><ele>2.0</ele><time>2026-04-15T09:20:33.265Z</time></trkpt><trkpt lat="45.5027356" lon="12.2724659"><ele>1.9999999999999998</ele><time>2026-04-15T09:20:38.274Z</time></trkpt><trkpt lat="45.5026733" lon="12.2724454"><ele>2.0</ele><time>2026-04-15T09:21:04.269Z</time></trkpt><trkpt lat="45.5025462" lon="12.2724252"><ele>1.9999999999999998</ele><time>2026-04-15T09:21:06.274Z</time></trkpt><trkpt lat="45.5024837" lon="12.2724469"><ele>2.0</ele><time>2026-04-15T09:21:07.265Z</time></trkpt><trkpt lat="45.5023715" lon="12.2725232"><ele>2.0</ele><time>2026-04-15T09:21:09.275Z</time></trkpt><trkpt lat="45.5023144" lon="12.2725677"><ele>2.0</ele><time>2026-04-15T09:21:10.272Z</time></trkpt><trkpt lat="45.5022394" lon="12.2726188"><ele>1.9999999999999998</ele><time>2026-04-15T09:21:11.281Z</time></trkpt><trkpt lat="45.5021485" lon="12.2726576"><ele>2.0</ele><time>2026-04-15T09:21:12.285Z</time></trkpt><trkpt lat="45.5020527" lon="12.2726968"><ele>2.25</ele><time>2026-04-15T09:21:13.271Z</time></trkpt><trkpt lat="45.5019454" lon="12.2727392"><ele>2.5</ele><time>2026-04-15T09:21:14.289Z</time></trkpt><trkpt lat="45.5018304" lon="12.2727822"><ele>2.75</ele><time>2026-04-15T09:21:15.282Z</time></trkpt><trkpt lat="45.5017151" lon="12.2728271"><ele>3.0</ele><time>2026-04-15T09:21:16.275Z</time></trkpt><trkpt lat="45.5015976" lon="12.2728753"><ele>3.0</ele><time>2026-04-15T09:21:17.272Z</time></trkpt><trkpt lat="45.5014787" lon="12.2729279"><ele>3.0</ele><time>2026-04-15T09:21:18.27Z</time></trkpt><trkpt lat="45.5013655" lon="12.2729809"><ele>3.0</ele><time>2026-04-15T09:21:19.26Z</time></trkpt><trkpt lat="45.5011352" lon="12.2730821"><ele>2.8</ele><time>2026-04-15T09:21:21.275Z</time></trkpt><trkpt lat="45.5010217" lon="12.2731298"><ele>2.5999999999999996</ele><time>2026-04-15T09:21:22.274Z</time></trkpt><trkpt lat="45.5009171" lon="12.2731763"><ele>2.4000000000000004</ele><time>2026-04-15T09:21:23.338Z</time></trkpt><trkpt lat="45.5008139" lon="12.2732161"><ele>2.2</ele><time>2026-04-15T09:21:24.272Z</time></trkpt><trkpt lat="45.5007153" lon="12.2732569"><ele>2.0</ele><time>2026-04-15T09:21:25.271Z</time></trkpt><trkpt lat="45.5006195" lon="12.2732926"><ele>2.0</ele><time>2026-04-15T09:21:26.272Z</time></trkpt><trkpt lat="45.5005282" lon="12.2733271"><ele>2.0</ele><time>2026-04-15T09:21:27.275Z</time></trkpt><trkpt lat="45.5004371" lon="12.2733717"><ele>2.0</ele><time>2026-04-15T09:21:28.269Z</time></trkpt><trkpt lat="45.5003471" lon="12.2734091"><ele>2.0</ele><time>2026-04-15T09:21:29.332Z</time></trkpt><trkpt lat="45.5002561" lon="12.273444"><ele>2.0</ele><time>2026-04-15T09:21:30.27Z</time></trkpt><trkpt lat="45.5001631" lon="12.2734788"><ele>1.6</ele><time>2026-04-15T09:21:31.272Z</time></trkpt><trkpt lat="45.5000683" lon="12.273515"><ele>1.2000000000000002</ele><time>2026-04-15T09:21:32.26Z</time></trkpt><trkpt lat="45.4999778" lon="12.2735492"><ele>0.8</ele><time>2026-04-15T09:21:33.275Z</time></trkpt><trkpt lat="45.4998895" lon="12.273578"><ele>0.4</ele><time>2026-04-15T09:21:34.272Z</time></trkpt><trkpt lat="45.4998059" lon="12.2735938"><ele>0.0</ele><time>2026-04-15T09:21:35.278Z</time></trkpt><trkpt lat="45.4997227" lon="12.2735808"><ele>0.0</ele><time>2026-04-15T09:21:36.281Z</time></trkpt><trkpt lat="45.4996465" lon="12.2735666"><ele>0.0</ele><time>2026-04-15T09:21:37.273Z</time></trkpt><trkpt lat="45.4995728" lon="12.2735754"><ele>0.0</ele><time>2026-04-15T09:21:38.287Z</time></trkpt><trkpt lat="45.4994642" lon="12.273649"><ele>0.0</ele><time>2026-04-15T09:21:40.278Z</time></trkpt><trkpt lat="45.4994299" lon="12.2737289"><ele>0.0</ele><time>2026-04-15T09:21:41.274Z</time></trkpt><trkpt lat="45.4994178" lon="12.2738395"><ele>0.0</ele><time>2026-04-15T09:21:42.271Z</time></trkpt><trkpt lat="45.4994281" lon="12.2739469"><ele>0.14285714285714285</ele><time>2026-04-15T09:21:43.261Z</time></trkpt><trkpt lat="45.4994605" lon="12.2740381"><ele>0.2857142857142857</ele><time>2026-04-15T09:21:44.279Z</time></trkpt><trkpt lat="45.4995205" lon="12.274105"><ele>0.42857142857142855</ele><time>2026-04-15T09:21:45.28Z</time></trkpt><trkpt lat="45.4995903" lon="12.2741459"><ele>0.5714285714285714</ele><time>2026-04-15T09:21:46.284Z</time></trkpt><trkpt lat="45.4996576" lon="12.2741324"><ele>0.7142857142857142</ele><time>2026-04-15T09:21:47.267Z</time></trkpt><trkpt lat="45.4997204" lon="12.2740656"><ele>0.8571428571428571</ele><time>2026-04-15T09:21:48.283Z</time></trkpt><trkpt lat="45.4997797" lon="12.2739969"><ele>1.0</ele><time>2026-04-15T09:21:49.282Z</time></trkpt><trkpt lat="45.4998506" lon="12.2739403"><ele>0.8</ele><time>2026-04-15T09:21:50.288Z</time></trkpt><trkpt lat="45.4999397" lon="12.2738993"><ele>0.6000000000000001</ele><time>2026-04-15T09:21:51.283Z</time></trkpt><trkpt lat="45.5000414" lon="12.2738662"><ele>0.4</ele><time>2026-04-15T09:21:52.27Z</time></trkpt><trkpt lat="45.5001552" lon="12.2738251"><ele>0.2</ele><time>2026-04-15T09:21:53.272Z</time></trkpt><trkpt lat="45.5002719" lon="12.2737788"><ele>0.0</ele><time>2026-04-15T09:21:54.27Z</time></trkpt><trkpt lat="45.5003829" lon="12.2737388"><ele>0.4</ele><time>2026-04-15T09:21:55.264Z</time></trkpt><trkpt lat="45.5004861" lon="12.2737008"><ele>0.8</ele><time>2026-04-15T09:21:56.274Z</time></trkpt><trkpt lat="45.5005798" lon="12.2736685"><ele>1.2000000000000002</ele><time>2026-04-15T09:21:57.284Z</time></trkpt><trkpt lat="45.5006515" lon="12.2736474"><ele>1.6</ele><time>2026-04-15T09:21:58.274Z</time></trkpt><trkpt lat="45.5007334" lon="12.2736291"><ele>2.0</ele><time>2026-04-15T09:22:00.267Z</time></trkpt><trkpt lat="45.5008153" lon="12.2735651"><ele>2.0</ele><time>2026-04-15T09:28:34.29Z</time></trkpt><trkpt lat="45.5008815" lon="12.2735043"><ele>2.0</ele><time>2026-04-15T09:28:35.301Z</time></trkpt><trkpt lat="45.500966" lon="12.2734627"><ele>2.0</ele><time>2026-04-15T09:28:36.299Z</time></trkpt><trkpt lat="45.5010628" lon="12.2734184"><ele>2.0</ele><time>2026-04-15T09:28:37.285Z</time></trkpt><trkpt lat="45.5011672" lon="12.2733844"><ele>2.0</ele><time>2026-04-15T09:28:38.283Z</time></trkpt><trkpt lat="45.5012827" lon="12.2733466"><ele>2.5</ele><time>2026-04-15T09:28:39.278Z</time></trkpt><trkpt lat="45.5014022" lon="12.2732986"><ele>3.0</ele><time>2026-04-15T09:28:40.274Z</time></trkpt><trkpt lat="45.5015244" lon="12.2732489"><ele>3.5</ele><time>2026-04-15T09:28:41.26Z</time></trkpt><trkpt lat="45.5016463" lon="12.2732043"><ele>4.0</ele><time>2026-04-15T09:28:42.262Z</time></trkpt><trkpt lat="45.5017706" lon="12.2731601"><ele>4.0</ele><time>2026-04-15T09:28:43.3Z</time></trkpt><trkpt lat="45.5018925" lon="12.2731129"><ele>4.0</ele><time>2026-04-15T09:28:44.275Z</time></trkpt><trkpt lat="45.5020102" lon="12.2730751"><ele>4.0</ele><time>2026-04-15T09:28:45.311Z</time></trkpt><trkpt lat="45.5021215" lon="12.2730349"><ele>4.0</ele><time>2026-04-15T09:28:46.278Z</time></trkpt><trkpt lat="45.5022121" lon="12.2730033"><ele>3.6</ele><time>2026-04-15T09:28:47.273Z</time></trkpt><trkpt lat="45.5022798" lon="12.2729802"><ele>3.2</ele><time>2026-04-15T09:28:48.306Z</time></trkpt><trkpt lat="45.5024026" lon="12.2729917"><ele>2.8000000000000003</ele><time>2026-04-15T09:28:50.28Z</time></trkpt><trkpt lat="45.5024866" lon="12.2730023"><ele>2.4000000000000004</ele><time>2026-04-15T09:28:51.272Z</time></trkpt><trkpt lat="45.5025544" lon="12.2729767"><ele>2.0</ele><time>2026-04-15T09:28:52.278Z</time></trkpt><trkpt lat="45.5026788" lon="12.2729068"><ele>2.0</ele><time>2026-04-15T09:28:54.3Z</time></trkpt><trkpt lat="45.5027564" lon="12.2728398"><ele>2.0</ele><time>2026-04-15T09:28:55.283Z</time></trkpt><trkpt lat="45.5028517" lon="12.2727783"><ele>2.0</ele><time>2026-04-15T09:28:56.263Z</time></trkpt><trkpt lat="45.5029585" lon="12.2727421"><ele>2.0</ele><time>2026-04-15T09:28:57.297Z</time></trkpt><trkpt lat="45.5030675" lon="12.272711"><ele>2.0</ele><time>2026-04-15T09:28:58.274Z</time></trkpt><trkpt lat="45.5031766" lon="12.2726696"><ele>2.0</ele><time>2026-04-15T09:28:59.287Z</time></trkpt><trkpt lat="45.5032771" lon="12.2726318"><ele>2.0</ele><time>2026-04-15T09:29:00.294Z</time></trkpt><trkpt lat="45.5033749" lon="12.2725927"><ele>2.0</ele><time>2026-04-15T09:29:01.303Z</time></trkpt><trkpt lat="45.503477" lon="12.2725503"><ele>2.0</ele><time>2026-04-15T09:29:02.291Z</time></trkpt><trkpt lat="45.5035932" lon="12.2724976"><ele>2.0</ele><time>2026-04-15T09:29:03.319Z</time></trkpt><trkpt lat="45.503725" lon="12.2724363"><ele>2.6666666666666665</ele><time>2026-04-15T09:29:04.291Z</time></trkpt><trkpt lat="45.5038676" lon="12.2723709"><ele>3.333333333333333</ele><time>2026-04-15T09:29:05.294Z</time></trkpt><trkpt lat="45.5040218" lon="12.2722951"><ele>4.0</ele><time>2026-04-15T09:29:06.29Z</time></trkpt><trkpt lat="45.5041678" lon="12.27222"><ele>4.0</ele><time>2026-04-15T09:29:07.304Z</time></trkpt><trkpt lat="45.5044397" lon="12.2720676"><ele>4.0</ele><time>2026-04-15T09:29:09.271Z</time></trkpt><trkpt lat="45.504565" lon="12.271985"><ele>4.0</ele><time>2026-04-15T09:29:10.279Z</time></trkpt><trkpt lat="45.5046885" lon="12.2718883"><ele>3.6666666666666665</ele><time>2026-04-15T09:29:11.29Z</time></trkpt><trkpt lat="45.5048221" lon="12.2717796"><ele>3.333333333333333</ele><time>2026-04-15T09:29:12.276Z</time></trkpt><trkpt lat="45.5049651" lon="12.2716587"><ele>3.0</ele><time>2026-04-15T09:29:13.28Z</time></trkpt><trkpt lat="45.5051297" lon="12.271531"><ele>3.0</ele><time>2026-04-15T09:29:14.295Z</time></trkpt><trkpt lat="45.5053076" lon="12.2714103"><ele>3.0</ele><time>2026-04-15T09:29:15.296Z</time></trkpt><trkpt lat="45.5054955" lon="12.2712945"><ele>3.0</ele><time>2026-04-15T09:29:16.298Z</time></trkpt><trkpt lat="45.5056845" lon="12.2711673"><ele>2.3333333333333335</ele><time>2026-04-15T09:29:17.293Z</time></trkpt><trkpt lat="45.5058665" lon="12.271019"><ele>1.6666666666666665</ele><time>2026-04-15T09:29:18.303Z</time></trkpt><trkpt lat="45.5060424" lon="12.2708555"><ele>1.0</ele><time>2026-04-15T09:29:19.285Z</time></trkpt><trkpt lat="45.5062133" lon="12.2706829"><ele>0.6666666666666666</ele><time>2026-04-15T09:29:20.276Z</time></trkpt><trkpt lat="45.5063807" lon="12.270498"><ele>0.3333333333333333</ele><time>2026-04-15T09:29:21.301Z</time></trkpt><trkpt lat="45.5065349" lon="12.2703095"><ele>0.0</ele><time>2026-04-15T09:29:22.299Z</time></trkpt><trkpt lat="45.5066807" lon="12.270112"><ele>0.0</ele><time>2026-04-15T09:29:23.268Z</time></trkpt><trkpt lat="45.5068218" lon="12.2699079"><ele>0.0</ele><time>2026-04-15T09:29:24.296Z</time></trkpt><trkpt lat="45.5069576" lon="12.2697001"><ele>0.0</ele><time>2026-04-15T09:29:25.276Z</time></trkpt><trkpt lat="45.5070909" lon="12.2694844"><ele>0.3333333333333333</ele><time>2026-04-15T09:29:26.289Z</time></trkpt><trkpt lat="45.5072175" lon="12.269265"><ele>0.6666666666666666</ele><time>2026-04-15T09:29:27.311Z</time></trkpt><trkpt lat="45.5073477" lon="12.2690305"><ele>1.0</ele><time>2026-04-15T09:29:28.3Z</time></trkpt><trkpt lat="45.5074859" lon="12.2687701"><ele>1.0</ele><time>2026-04-15T09:29:29.295Z</time></trkpt><trkpt lat="45.5076303" lon="12.2684977"><ele>1.0</ele><time>2026-04-15T09:29:30.302Z</time></trkpt><trkpt lat="45.507762" lon="12.2682192"><ele>0.6666666666666666</ele><time>2026-04-15T09:29:31.261Z</time></trkpt><trkpt lat="45.5078843" lon="12.2679512"><ele>0.3333333333333333</ele><time>2026-04-15T09:29:32.296Z</time></trkpt><trkpt lat="45.5080006" lon="12.2676987"><ele>0.0</ele><time>2026-04-15T09:29:33.281Z</time></trkpt><trkpt lat="45.5081168" lon="12.2674537"><ele>-0.3333333333333333</ele><time>2026-04-15T09:29:34.294Z</time></trkpt><trkpt lat="45.5082325" lon="12.2672053"><ele>-0.6666666666666666</ele><time>2026-04-15T09:29:35.27Z</time></trkpt><trkpt lat="45.508344" lon="12.266964"><ele>-1.0</ele><time>2026-04-15T09:29:36.3Z</time></trkpt><trkpt lat="45.5084558" lon="12.266725"><ele>-1.0</ele><time>2026-04-15T09:29:37.286Z</time></trkpt><trkpt lat="45.5085645" lon="12.2664907"><ele>-1.0</ele><time>2026-04-15T09:29:38.277Z</time></trkpt><trkpt lat="45.5086706" lon="12.2662634"><ele>-1.0</ele><time>2026-04-15T09:29:39.296Z</time></trkpt><trkpt lat="45.5087771" lon="12.2660364"><ele>-0.6666666666666666</ele><time>2026-04-15T09:29:40.281Z</time></trkpt><trkpt lat="45.5088864" lon="12.2658149"><ele>-0.3333333333333333</ele><time>2026-04-15T09:29:41.297Z</time></trkpt><trkpt lat="45.5089939" lon="12.2655904"><ele>0.0</ele><time>2026-04-15T09:29:42.286Z</time></trkpt><trkpt lat="45.5091008" lon="12.2653743"><ele>0.0</ele><time>2026-04-15T09:29:43.3Z</time></trkpt><trkpt lat="45.5092097" lon="12.2651549"><ele>0.0</ele><time>2026-04-15T09:29:44.271Z</time></trkpt><trkpt lat="45.5093126" lon="12.2649417"><ele>0.0</ele><time>2026-04-15T09:29:45.308Z</time></trkpt><trkpt lat="45.5094054" lon="12.264744"><ele>0.25</ele><time>2026-04-15T09:29:46.288Z</time></trkpt><trkpt lat="45.5094849" lon="12.2645672"><ele>0.5</ele><time>2026-04-15T09:29:47.292Z</time></trkpt><trkpt lat="45.5095584" lon="12.2644037"><ele>0.75</ele><time>2026-04-15T09:29:48.295Z</time></trkpt><trkpt lat="45.5096257" lon="12.2642631"><ele>1.0</ele><time>2026-04-15T09:29:49.302Z</time></trkpt><trkpt lat="45.5096884" lon="12.2641367"><ele>1.0</ele><time>2026-04-15T09:29:50.296Z</time></trkpt><trkpt lat="45.5097417" lon="12.2640255"><ele>1.0</ele><time>2026-04-15T09:29:51.297Z</time></trkpt><trkpt lat="45.5097918" lon="12.2639276"><ele>1.0</ele><time>2026-04-15T09:29:52.288Z</time></trkpt><trkpt lat="45.5098775" lon="12.2637617"><ele>1.0</ele><time>2026-04-15T09:29:54.293Z</time></trkpt><trkpt lat="45.5099134" lon="12.2636811"><ele>1.0</ele><time>2026-04-15T09:29:55.299Z</time></trkpt><trkpt lat="45.5099808" lon="12.2635483"><ele>1.0</ele><time>2026-04-15T09:29:57.3Z</time></trkpt><trkpt lat="45.5100384" lon="12.2634351"><ele>1.0</ele><time>2026-04-15T09:29:59.287Z</time></trkpt><trkpt lat="45.5100706" lon="12.263354"><ele>1.0</ele><time>2026-04-15T09:30:02.303Z</time></trkpt><trkpt lat="45.5101119" lon="12.2632766"><ele>1.0</ele><time>2026-04-15T09:30:44.274Z</time></trkpt><trkpt lat="45.5101797" lon="12.2631562"><ele>1.0</ele><time>2026-04-15T09:30:45.291Z</time></trkpt><trkpt lat="45.5102613" lon="12.2629989"><ele>0.6666666666666666</ele><time>2026-04-15T09:30:46.279Z</time></trkpt><trkpt lat="45.5103465" lon="12.2627832"><ele>0.3333333333333333</ele><time>2026-04-15T09:30:47.26Z</time></trkpt><trkpt lat="45.5104579" lon="12.2625466"><ele>0.0</ele><time>2026-04-15T09:30:48.279Z</time></trkpt><trkpt lat="45.5105769" lon="12.2623076"><ele>-1.0</ele><time>2026-04-15T09:30:49.283Z</time></trkpt><trkpt lat="45.5107124" lon="12.2620498"><ele>-2.0</ele><time>2026-04-15T09:30:50.259Z</time></trkpt><trkpt lat="45.5108501" lon="12.2617857"><ele>-2.0</ele><time>2026-04-15T09:30:51.283Z</time></trkpt><trkpt lat="45.5109789" lon="12.2615277"><ele>-2.0</ele><time>2026-04-15T09:30:52.278Z</time></trkpt><trkpt lat="45.5112225" lon="12.261017"><ele>-0.6666666666666666</ele><time>2026-04-15T09:30:54.29Z</time></trkpt><trkpt lat="45.5113429" lon="12.2607657"><ele>0.6666666666666666</ele><time>2026-04-15T09:30:55.29Z</time></trkpt><trkpt lat="45.5114577" lon="12.2605169"><ele>2.0</ele><time>2026-04-15T09:30:56.297Z</time></trkpt><trkpt lat="45.5115685" lon="12.2602725"><ele>2.0</ele><time>2026-04-15T09:30:57.304Z</time></trkpt><trkpt lat="45.5116747" lon="12.2600263"><ele>2.0</ele><time>2026-04-15T09:30:58.294Z</time></trkpt><trkpt lat="45.5117697" lon="12.2597801"><ele>2.0</ele><time>2026-04-15T09:30:59.262Z</time></trkpt><trkpt lat="45.5118578" lon="12.2595344"><ele>2.0</ele><time>2026-04-15T09:31:00.295Z</time></trkpt><trkpt lat="45.5119377" lon="12.2592857"><ele>2.0</ele><time>2026-04-15T09:31:01.286Z</time></trkpt><trkpt lat="45.5120833" lon="12.2587765"><ele>2.0</ele><time>2026-04-15T09:31:03.303Z</time></trkpt><trkpt lat="45.5121543" lon="12.2585171"><ele>2.0</ele><time>2026-04-15T09:31:04.294Z</time></trkpt><trkpt lat="45.5122196" lon="12.2582545"><ele>2.0</ele><time>2026-04-15T09:31:05.293Z</time></trkpt><trkpt lat="45.5122826" lon="12.2579861"><ele>2.333333333333333</ele><time>2026-04-15T09:31:06.283Z</time></trkpt><trkpt lat="45.5123471" lon="12.2577096"><ele>2.6666666666666665</ele><time>2026-04-15T09:31:07.306Z</time></trkpt><trkpt lat="45.5124043" lon="12.2574287"><ele>3.0</ele><time>2026-04-15T09:31:08.288Z</time></trkpt><trkpt lat="45.5124639" lon="12.2571545"><ele>3.0</ele><time>2026-04-15T09:31:09.299Z</time></trkpt><trkpt lat="45.5125209" lon="12.2568794"><ele>3.0</ele><time>2026-04-15T09:31:10.276Z</time></trkpt><trkpt lat="45.5126463" lon="12.2563338"><ele>3.0</ele><time>2026-04-15T09:31:12.291Z</time></trkpt><trkpt lat="45.5127097" lon="12.2560566"><ele>3.0</ele><time>2026-04-15T09:31:13.298Z</time></trkpt><trkpt lat="45.5127762" lon="12.2557757"><ele>3.0</ele><time>2026-04-15T09:31:14.285Z</time></trkpt><trkpt lat="45.5128417" lon="12.255497"><ele>2.3333333333333335</ele><time>2026-04-15T09:31:15.313Z</time></trkpt><trkpt lat="45.5129072" lon="12.2552185"><ele>1.6666666666666665</ele><time>2026-04-15T09:31:16.286Z</time></trkpt><trkpt lat="45.5129729" lon="12.2549438"><ele>1.0</ele><time>2026-04-15T09:31:17.297Z</time></trkpt><trkpt lat="45.5130396" lon="12.2546653"><ele>1.0</ele><time>2026-04-15T09:31:18.295Z</time></trkpt><trkpt lat="45.5131119" lon="12.2543836"><ele>1.0</ele><time>2026-04-15T09:31:19.277Z</time></trkpt><trkpt lat="45.5131863" lon="12.2540962"><ele>1.0</ele><time>2026-04-15T09:31:20.257Z</time></trkpt><trkpt lat="45.5132617" lon="12.2538013"><ele>1.0</ele><time>2026-04-15T09:31:21.261Z</time></trkpt><trkpt lat="45.5133347" lon="12.2534991"><ele>1.0</ele><time>2026-04-15T09:31:22.285Z</time></trkpt><trkpt lat="45.5134085" lon="12.2531986"><ele>1.0</ele><time>2026-04-15T09:31:23.284Z</time></trkpt><trkpt lat="45.5134804" lon="12.2528989"><ele>1.0</ele><time>2026-04-15T09:31:24.294Z</time></trkpt><trkpt lat="45.5135475" lon="12.252596"><ele>1.0</ele><time>2026-04-15T09:31:25.276Z</time></trkpt><trkpt lat="45.5136155" lon="12.2522981"><ele>1.0</ele><time>2026-04-15T09:31:26.283Z</time></trkpt><trkpt lat="45.5136849" lon="12.2520068"><ele>1.0</ele><time>2026-04-15T09:31:27.283Z</time></trkpt><trkpt lat="45.5137509" lon="12.2517204"><ele>1.0</ele><time>2026-04-15T09:31:28.282Z</time></trkpt><trkpt lat="45.5138197" lon="12.2514431"><ele>1.0</ele><time>2026-04-15T09:31:29.258Z</time></trkpt><trkpt lat="45.5138876" lon="12.2511681"><ele>1.3333333333333333</ele><time>2026-04-15T09:31:30.28Z</time></trkpt><trkpt lat="45.5139539" lon="12.2508975"><ele>1.6666666666666665</ele><time>2026-04-15T09:31:31.283Z</time></trkpt><trkpt lat="45.5140155" lon="12.2506279"><ele>2.0</ele><time>2026-04-15T09:31:32.268Z</time></trkpt><trkpt lat="45.5140772" lon="12.2503568"><ele>2.0</ele><time>2026-04-15T09:31:33.294Z</time></trkpt><trkpt lat="45.5141354" lon="12.2500855"><ele>2.0</ele><time>2026-04-15T09:31:34.287Z</time></trkpt><trkpt lat="45.5141903" lon="12.2498144"><ele>2.0</ele><time>2026-04-15T09:31:35.292Z</time></trkpt><trkpt lat="45.5142438" lon="12.2495407"><ele>1.5</ele><time>2026-04-15T09:31:36.292Z</time></trkpt><trkpt lat="45.5142932" lon="12.2492738"><ele>1.0</ele><time>2026-04-15T09:31:37.302Z</time></trkpt><trkpt lat="45.5143961" lon="12.2487372"><ele>1.0</ele><time>2026-04-15T09:31:39.293Z</time></trkpt><trkpt lat="45.5144453" lon="12.2484671"><ele>1.0</ele><time>2026-04-15T09:31:40.287Z</time></trkpt><trkpt lat="45.5144948" lon="12.2481848"><ele>1.0</ele><time>2026-04-15T09:31:41.298Z</time></trkpt><trkpt lat="45.5145431" lon="12.2479014"><ele>1.0</ele><time>2026-04-15T09:31:42.282Z</time></trkpt><trkpt lat="45.5145865" lon="12.2476128"><ele>1.0</ele><time>2026-04-15T09:31:43.287Z</time></trkpt><trkpt lat="45.5146311" lon="12.2473106"><ele>1.0</ele><time>2026-04-15T09:31:44.297Z</time></trkpt><trkpt lat="45.5146716" lon="12.247004"><ele>1.3333333333333333</ele><time>2026-04-15T09:31:45.274Z</time></trkpt><trkpt lat="45.5147108" lon="12.2466896"><ele>1.6666666666666665</ele><time>2026-04-15T09:31:46.269Z</time></trkpt><trkpt lat="45.5147479" lon="12.2463782"><ele>2.0</ele><time>2026-04-15T09:31:47.284Z</time></trkpt><trkpt lat="45.5147837" lon="12.2460796"><ele>2.333333333333333</ele><time>2026-04-15T09:31:48.288Z</time></trkpt><trkpt lat="45.5148196" lon="12.2457989"><ele>2.6666666666666665</ele><time>2026-04-15T09:31:49.26Z</time></trkpt><trkpt lat="45.5148596" lon="12.2455471"><ele>3.0</ele><time>2026-04-15T09:31:50.261Z</time></trkpt><trkpt lat="45.5149108" lon="12.2453197"><ele>3.333333333333333</ele><time>2026-04-15T09:31:51.268Z</time></trkpt><trkpt lat="45.5149853" lon="12.2451057"><ele>3.6666666666666665</ele><time>2026-04-15T09:31:52.289Z</time></trkpt><trkpt lat="45.5150879" lon="12.2449312"><ele>4.0</ele><time>2026-04-15T09:31:53.295Z</time></trkpt><trkpt lat="45.5152139" lon="12.2448054"><ele>4.0</ele><time>2026-04-15T09:31:54.282Z</time></trkpt><trkpt lat="45.5153455" lon="12.2446933"><ele>4.0</ele><time>2026-04-15T09:31:55.292Z</time></trkpt><trkpt lat="45.5154741" lon="12.2445785"><ele>4.0</ele><time>2026-04-15T09:31:56.266Z</time></trkpt><trkpt lat="45.5155895" lon="12.2444462"><ele>4.0</ele><time>2026-04-15T09:31:57.277Z</time></trkpt><trkpt lat="45.5156867" lon="12.2443006"><ele>4.0</ele><time>2026-04-15T09:31:58.277Z</time></trkpt><trkpt lat="45.5157846" lon="12.2441924"><ele>4.0</ele><time>2026-04-15T09:31:59.278Z</time></trkpt><trkpt lat="45.5159049" lon="12.2441159"><ele>4.0</ele><time>2026-04-15T09:32:00.274Z</time></trkpt><trkpt lat="45.5160366" lon="12.244093"><ele>4.0</ele><time>2026-04-15T09:32:01.274Z</time></trkpt><trkpt lat="45.5161744" lon="12.2441228"><ele>4.0</ele><time>2026-04-15T09:32:02.29Z</time></trkpt><trkpt lat="45.5163175" lon="12.2441997"><ele>4.0</ele><time>2026-04-15T09:32:03.268Z</time></trkpt><trkpt lat="45.5164818" lon="12.2442961"><ele>3.333333333333333</ele><time>2026-04-15T09:32:04.274Z</time></trkpt><trkpt lat="45.5166575" lon="12.2444091"><ele>2.6666666666666665</ele><time>2026-04-15T09:32:05.291Z</time></trkpt><trkpt lat="45.5168344" lon="12.2445349"><ele>2.0</ele><time>2026-04-15T09:32:06.284Z</time></trkpt><trkpt lat="45.5170141" lon="12.2446727"><ele>3.333333333333333</ele><time>2026-04-15T09:32:07.275Z</time></trkpt><trkpt lat="45.5172012" lon="12.2448116"><ele>4.666666666666667</ele><time>2026-04-15T09:32:08.288Z</time></trkpt><trkpt lat="45.5174044" lon="12.2449502"><ele>6.0</ele><time>2026-04-15T09:32:09.282Z</time></trkpt><trkpt lat="45.5176025" lon="12.2450883"><ele>6.0</ele><time>2026-04-15T09:32:10.27Z</time></trkpt><trkpt lat="45.5177855" lon="12.2452158"><ele>6.0</ele><time>2026-04-15T09:32:11.283Z</time></trkpt><trkpt lat="45.5179519" lon="12.2453428"><ele>6.0</ele><time>2026-04-15T09:32:12.3Z</time></trkpt><trkpt lat="45.5181051" lon="12.2454761"><ele>5.666666666666667</ele><time>2026-04-15T09:32:13.273Z</time></trkpt><trkpt lat="45.5182474" lon="12.2456259"><ele>5.333333333333334</ele><time>2026-04-15T09:32:14.268Z</time></trkpt><trkpt lat="45.5183754" lon="12.2458042"><ele>5.0</ele><time>2026-04-15T09:32:15.286Z</time></trkpt><trkpt lat="45.5184765" lon="12.246014"><ele>4.666666666666667</ele><time>2026-04-15T09:32:16.295Z</time></trkpt><trkpt lat="45.5185632" lon="12.2462377"><ele>4.333333333333333</ele><time>2026-04-15T09:32:17.284Z</time></trkpt><trkpt lat="45.5186183" lon="12.2464724"><ele>4.0</ele><time>2026-04-15T09:32:18.298Z</time></trkpt><trkpt lat="45.5186409" lon="12.2467183"><ele>4.0</ele><time>2026-04-15T09:32:19.294Z</time></trkpt><trkpt lat="45.518626" lon="12.2469594"><ele>4.0</ele><time>2026-04-15T09:32:20.284Z</time></trkpt><trkpt lat="45.5185757" lon="12.2471985"><ele>4.0</ele><time>2026-04-15T09:32:21.28Z</time></trkpt><trkpt lat="45.5184837" lon="12.2474161"><ele>3.333333333333333</ele><time>2026-04-15T09:32:22.261Z</time></trkpt><trkpt lat="45.5183671" lon="12.2476108"><ele>2.6666666666666665</ele><time>2026-04-15T09:32:23.273Z</time></trkpt><trkpt lat="45.5182198" lon="12.247768"><ele>2.0</ele><time>2026-04-15T09:32:24.269Z</time></trkpt><trkpt lat="45.5180603" lon="12.2478724"><ele>3.0</ele><time>2026-04-15T09:32:25.268Z</time></trkpt><trkpt lat="45.5178807" lon="12.2479232"><ele>4.0</ele><time>2026-04-15T09:32:26.257Z</time></trkpt><trkpt lat="45.517687" lon="12.2479088"><ele>5.0</ele><time>2026-04-15T09:32:27.251Z</time></trkpt><trkpt lat="45.5175055" lon="12.2478369"><ele>5.0</ele><time>2026-04-15T09:32:28.276Z</time></trkpt><trkpt lat="45.5173283" lon="12.2477232"><ele>5.0</ele><time>2026-04-15T09:32:29.269Z</time></trkpt><trkpt lat="45.5171681" lon="12.2475588"><ele>5.0</ele><time>2026-04-15T09:32:30.268Z</time></trkpt><trkpt lat="45.5170164" lon="12.2473645"><ele>5.0</ele><time>2026-04-15T09:32:31.292Z</time></trkpt><trkpt lat="45.5168884" lon="12.2471756"><ele>5.0</ele><time>2026-04-15T09:32:32.286Z</time></trkpt><trkpt lat="45.5167748" lon="12.246997"><ele>5.0</ele><time>2026-04-15T09:32:33.271Z</time></trkpt><trkpt lat="45.5166685" lon="12.2468218"><ele>5.0</ele><time>2026-04-15T09:32:34.275Z</time></trkpt><trkpt lat="45.5165585" lon="12.2466415"><ele>5.0</ele><time>2026-04-15T09:32:35.258Z</time></trkpt><trkpt lat="45.5164477" lon="12.2464534"><ele>5.0</ele><time>2026-04-15T09:32:36.261Z</time></trkpt><trkpt lat="45.5163244" lon="12.2462581"><ele>4.666666666666667</ele><time>2026-04-15T09:32:37.269Z</time></trkpt><trkpt lat="45.5161814" lon="12.2460494"><ele>4.333333333333333</ele><time>2026-04-15T09:32:38.276Z</time></trkpt><trkpt lat="45.5160369" lon="12.2457971"><ele>4.0</ele><time>2026-04-15T09:32:39.259Z</time></trkpt><trkpt lat="45.5158911" lon="12.245531"><ele>5.5</ele><time>2026-04-15T09:32:40.29Z</time></trkpt><trkpt lat="45.5157449" lon="12.2452611"><ele>7.0</ele><time>2026-04-15T09:32:41.301Z</time></trkpt><trkpt lat="45.5156044" lon="12.2449868"><ele>7.0</ele><time>2026-04-15T09:32:42.283Z</time></trkpt><trkpt lat="45.5154671" lon="12.2447226"><ele>7.0</ele><time>2026-04-15T09:32:43.283Z</time></trkpt><trkpt lat="45.5153271" lon="12.2444612"><ele>7.0</ele><time>2026-04-15T09:32:44.28Z</time></trkpt><trkpt lat="45.5151886" lon="12.2441969"><ele>7.0</ele><time>2026-04-15T09:32:45.29Z</time></trkpt><trkpt lat="45.51505" lon="12.2439329"><ele>6.0</ele><time>2026-04-15T09:32:46.287Z</time></trkpt><trkpt lat="45.5149083" lon="12.2436674"><ele>5.0</ele><time>2026-04-15T09:32:47.263Z</time></trkpt><trkpt lat="45.5147619" lon="12.2434056"><ele>5.0</ele><time>2026-04-15T09:32:48.267Z</time></trkpt><trkpt lat="45.5146073" lon="12.2431538"><ele>5.0</ele><time>2026-04-15T09:32:49.276Z</time></trkpt><trkpt lat="45.5144503" lon="12.2428985"><ele>4.5</ele><time>2026-04-15T09:32:50.268Z</time></trkpt><trkpt lat="45.5142883" lon="12.2426432"><ele>4.0</ele><time>2026-04-15T09:32:51.274Z</time></trkpt><trkpt lat="45.5141274" lon="12.2423862"><ele>4.0</ele><time>2026-04-15T09:32:52.268Z</time></trkpt><trkpt lat="45.5139666" lon="12.2421266"><ele>4.0</ele><time>2026-04-15T09:32:53.275Z</time></trkpt><trkpt lat="45.5138074" lon="12.2418672"><ele>4.0</ele><time>2026-04-15T09:32:54.275Z</time></trkpt><trkpt lat="45.5136429" lon="12.2416054"><ele>4.0</ele><time>2026-04-15T09:32:55.275Z</time></trkpt><trkpt lat="45.5134773" lon="12.2413407"><ele>4.5</ele><time>2026-04-15T09:32:56.275Z</time></trkpt><trkpt lat="45.5133107" lon="12.2410796"><ele>5.0</ele><time>2026-04-15T09:32:57.298Z</time></trkpt><trkpt lat="45.5131486" lon="12.2408182"><ele>5.0</ele><time>2026-04-15T09:32:58.264Z</time></trkpt><trkpt lat="45.5129828" lon="12.2405584"><ele>5.0</ele><time>2026-04-15T09:32:59.275Z</time></trkpt><trkpt lat="45.5128199" lon="12.240298"><ele>5.5</ele><time>2026-04-15T09:33:00.267Z</time></trkpt><trkpt lat="45.5126619" lon="12.2400345"><ele>6.0</ele><time>2026-04-15T09:33:01.28Z</time></trkpt><trkpt lat="45.5125023" lon="12.2397647"><ele>6.0</ele><time>2026-04-15T09:33:02.3Z</time></trkpt><trkpt lat="45.5123402" lon="12.2395011"><ele>6.0</ele><time>2026-04-15T09:33:03.255Z</time></trkpt><trkpt lat="45.5121755" lon="12.239244"><ele>5.0</ele><time>2026-04-15T09:33:04.274Z</time></trkpt><trkpt lat="45.5120156" lon="12.2389892"><ele>4.0</ele><time>2026-04-15T09:33:05.289Z</time></trkpt><trkpt lat="45.5118538" lon="12.2387253"><ele>4.0</ele><time>2026-04-15T09:33:06.289Z</time></trkpt><trkpt lat="45.5116907" lon="12.2384632"><ele>4.0</ele><time>2026-04-15T09:33:07.258Z</time></trkpt><trkpt lat="45.5115248" lon="12.2382028"><ele>4.5</ele><time>2026-04-15T09:33:08.303Z</time></trkpt><trkpt lat="45.51136" lon="12.2379498"><ele>5.0</ele><time>2026-04-15T09:33:09.269Z</time></trkpt><trkpt lat="45.5111893" lon="12.2377108"><ele>5.0</ele><time>2026-04-15T09:33:10.286Z</time></trkpt><trkpt lat="45.5110109" lon="12.2374851"><ele>5.0</ele><time>2026-04-15T09:33:11.27Z</time></trkpt><trkpt lat="45.5108266" lon="12.2372665"><ele>3.5</ele><time>2026-04-15T09:33:12.277Z</time></trkpt><trkpt lat="45.5106354" lon="12.2370541"><ele>2.0</ele><time>2026-04-15T09:33:13.284Z</time></trkpt><trkpt lat="45.5104378" lon="12.2368544"><ele>2.0</ele><time>2026-04-15T09:33:14.262Z</time></trkpt><trkpt lat="45.5102338" lon="12.2366648"><ele>2.0</ele><time>2026-04-15T09:33:15.258Z</time></trkpt><trkpt lat="45.5100202" lon="12.2364878"><ele>2.0</ele><time>2026-04-15T09:33:16.276Z</time></trkpt><trkpt lat="45.5098078" lon="12.2363317"><ele>2.0</ele><time>2026-04-15T09:33:17.273Z</time></trkpt><trkpt lat="45.509596" lon="12.2361864"><ele>2.0</ele><time>2026-04-15T09:33:18.272Z</time></trkpt><trkpt lat="45.5093777" lon="12.2360387"><ele>2.0</ele><time>2026-04-15T09:33:19.265Z</time></trkpt><trkpt lat="45.5091545" lon="12.2358941"><ele>2.0</ele><time>2026-04-15T09:33:20.278Z</time></trkpt><trkpt lat="45.5089265" lon="12.2357577"><ele>2.0</ele><time>2026-04-15T09:33:21.264Z</time></trkpt><trkpt lat="45.5086968" lon="12.2356236"><ele>3.0</ele><time>2026-04-15T09:33:22.289Z</time></trkpt><trkpt lat="45.5082394" lon="12.2353553"><ele>3.0</ele><time>2026-04-15T09:33:24.27Z</time></trkpt><trkpt lat="45.5080147" lon="12.2352219"><ele>3.0</ele><time>2026-04-15T09:33:25.272Z</time></trkpt><trkpt lat="45.5077912" lon="12.2350876"><ele>2.5</ele><time>2026-04-15T09:33:26.273Z</time></trkpt><trkpt lat="45.507569" lon="12.234946"><ele>2.0</ele><time>2026-04-15T09:33:27.297Z</time></trkpt><trkpt lat="45.5073462" lon="12.2348064"><ele>2.0</ele><time>2026-04-15T09:33:28.284Z</time></trkpt><trkpt lat="45.5071251" lon="12.2346617"><ele>2.0</ele><time>2026-04-15T09:33:29.265Z</time></trkpt><trkpt lat="45.5069076" lon="12.2345225"><ele>2.5</ele><time>2026-04-15T09:33:30.275Z</time></trkpt><trkpt lat="45.5066882" lon="12.2343838"><ele>3.0</ele><time>2026-04-15T09:33:31.274Z</time></trkpt><trkpt lat="45.5064689" lon="12.2342457"><ele>3.0</ele><time>2026-04-15T09:33:32.277Z</time></trkpt><trkpt lat="45.5062467" lon="12.2341105"><ele>3.0</ele><time>2026-04-15T09:33:33.264Z</time></trkpt><trkpt lat="45.5060296" lon="12.2339804"><ele>1.5</ele><time>2026-04-15T09:33:34.275Z</time></trkpt><trkpt lat="45.5058129" lon="12.2338414"><ele>0.0</ele><time>2026-04-15T09:33:35.265Z</time></trkpt><trkpt lat="45.5055977" lon="12.2337101"><ele>2.0</ele><time>2026-04-15T09:33:36.277Z</time></trkpt><trkpt lat="45.5053813" lon="12.2335767"><ele>4.0</ele><time>2026-04-15T09:33:37.269Z</time></trkpt><trkpt lat="45.5051647" lon="12.2334469"><ele>4.0</ele><time>2026-04-15T09:33:38.291Z</time></trkpt><trkpt lat="45.5049446" lon="12.2333146"><ele>4.0</ele><time>2026-04-15T09:33:39.291Z</time></trkpt><trkpt lat="45.5047263" lon="12.2331872"><ele>1.5</ele><time>2026-04-15T09:33:40.278Z</time></trkpt><trkpt lat="45.5045114" lon="12.2330509"><ele>-1.0</ele><time>2026-04-15T09:33:41.279Z</time></trkpt><trkpt lat="45.5042908" lon="12.2329237"><ele>-1.0</ele><time>2026-04-15T09:33:42.285Z</time></trkpt><trkpt lat="45.5040758" lon="12.2327872"><ele>-1.0</ele><time>2026-04-15T09:33:43.258Z</time></trkpt><trkpt lat="45.5038614" lon="12.2326592"><ele>0.0</ele><time>2026-04-15T09:33:44.28Z</time></trkpt><trkpt lat="45.5036458" lon="12.2325378"><ele>1.0</ele><time>2026-04-15T09:33:45.278Z</time></trkpt><trkpt lat="45.5034251" lon="12.2324144"><ele>0.5</ele><time>2026-04-15T09:33:46.269Z</time></trkpt><trkpt lat="45.5032041" lon="12.2322985"><ele>0.0</ele><time>2026-04-15T09:33:47.276Z</time></trkpt><trkpt lat="45.5029815" lon="12.2321896"><ele>1.0</ele><time>2026-04-15T09:33:48.272Z</time></trkpt><trkpt lat="45.5027568" lon="12.2320866"><ele>2.0</ele><time>2026-04-15T09:33:49.279Z</time></trkpt><trkpt lat="45.502529" lon="12.2319882"><ele>2.0</ele><time>2026-04-15T09:33:50.281Z</time></trkpt><trkpt lat="45.5022964" lon="12.2318971"><ele>2.0</ele><time>2026-04-15T09:33:51.255Z</time></trkpt><trkpt lat="45.5020652" lon="12.2318109"><ele>3.0</ele><time>2026-04-15T09:33:52.27Z</time></trkpt><trkpt lat="45.5018326" lon="12.2317279"><ele>4.0</ele><time>2026-04-15T09:33:53.274Z</time></trkpt><trkpt lat="45.5016025" lon="12.2316452"><ele>4.0</ele><time>2026-04-15T09:33:54.273Z</time></trkpt><trkpt lat="45.5013774" lon="12.2315636"><ele>4.0</ele><time>2026-04-15T09:33:55.26Z</time></trkpt><trkpt lat="45.5011549" lon="12.2314849"><ele>2.5</ele><time>2026-04-15T09:33:56.27Z</time></trkpt><trkpt lat="45.5009332" lon="12.2314018"><ele>1.0</ele><time>2026-04-15T09:33:57.313Z</time></trkpt><trkpt lat="45.5007138" lon="12.23132"><ele>1.0</ele><time>2026-04-15T09:33:58.281Z</time></trkpt><trkpt lat="45.5004947" lon="12.2312431"><ele>1.0</ele><time>2026-04-15T09:33:59.28Z</time></trkpt><trkpt lat="45.5002766" lon="12.2311654"><ele>1.0</ele><time>2026-04-15T09:34:00.287Z</time></trkpt><trkpt lat="45.5000612" lon="12.2310941"><ele>1.0</ele><time>2026-04-15T09:34:01.265Z</time></trkpt><trkpt lat="45.4998481" lon="12.2310188"><ele>1.0</ele><time>2026-04-15T09:34:02.281Z</time></trkpt><trkpt lat="45.4996401" lon="12.2309328"><ele>1.6666666666666665</ele><time>2026-04-15T09:34:03.272Z</time></trkpt><trkpt lat="45.4994313" lon="12.2308451"><ele>2.3333333333333335</ele><time>2026-04-15T09:34:04.281Z</time></trkpt><trkpt lat="45.4992231" lon="12.2307602"><ele>3.0</ele><time>2026-04-15T09:34:05.269Z</time></trkpt><trkpt lat="45.4990213" lon="12.2306709"><ele>2.6666666666666665</ele><time>2026-04-15T09:34:06.27Z</time></trkpt><trkpt lat="45.4988197" lon="12.2305767"><ele>2.333333333333333</ele><time>2026-04-15T09:34:07.262Z</time></trkpt><trkpt lat="45.4986206" lon="12.2304706"><ele>2.0</ele><time>2026-04-15T09:34:08.277Z</time></trkpt><trkpt lat="45.4984183" lon="12.2303573"><ele>2.0</ele><time>2026-04-15T09:34:09.294Z</time></trkpt><trkpt lat="45.4982154" lon="12.2302295"><ele>2.0</ele><time>2026-04-15T09:34:10.268Z</time></trkpt><trkpt lat="45.4980147" lon="12.230084"><ele>2.0</ele><time>2026-04-15T09:34:11.26Z</time></trkpt><trkpt lat="45.4978154" lon="12.2299399"><ele>0.5</ele><time>2026-04-15T09:34:12.288Z</time></trkpt><trkpt lat="45.4976144" lon="12.2297842"><ele>-1.0</ele><time>2026-04-15T09:34:13.298Z</time></trkpt><trkpt lat="45.4974187" lon="12.2296164"><ele>-1.0</ele><time>2026-04-15T09:34:14.274Z</time></trkpt><trkpt lat="45.4972225" lon="12.2294372"><ele>-1.0</ele><time>2026-04-15T09:34:15.295Z</time></trkpt><trkpt lat="45.4970312" lon="12.2292558"><ele>-1.5</ele><time>2026-04-15T09:34:16.279Z</time></trkpt><trkpt lat="45.4968408" lon="12.2290695"><ele>-2.0</ele><time>2026-04-15T09:34:17.261Z</time></trkpt><trkpt lat="45.4966547" lon="12.2288741"><ele>-2.0</ele><time>2026-04-15T09:34:18.273Z</time></trkpt><trkpt lat="45.4964748" lon="12.2286714"><ele>-2.0</ele><time>2026-04-15T09:34:19.246Z</time></trkpt><trkpt lat="45.4962986" lon="12.2284652"><ele>-1.0</ele><time>2026-04-15T09:34:20.271Z</time></trkpt><trkpt lat="45.4961262" lon="12.2282508"><ele>0.0</ele><time>2026-04-15T09:34:21.275Z</time></trkpt><trkpt lat="45.4959574" lon="12.2280297"><ele>0.0</ele><time>2026-04-15T09:34:22.286Z</time></trkpt><trkpt lat="45.4957911" lon="12.2278126"><ele>0.0</ele><time>2026-04-15T09:34:23.267Z</time></trkpt><trkpt lat="45.4956243" lon="12.2275961"><ele>0.0</ele><time>2026-04-15T09:34:24.274Z</time></trkpt><trkpt lat="45.4952838" lon="12.2271693"><ele>0.0</ele><time>2026-04-15T09:34:26.288Z</time></trkpt><trkpt lat="45.4951108" lon="12.2269579"><ele>0.0</ele><time>2026-04-15T09:34:27.287Z</time></trkpt><trkpt lat="45.4949441" lon="12.2267447"><ele>0.0</ele><time>2026-04-15T09:34:28.258Z</time></trkpt><trkpt lat="45.4947774" lon="12.2265291"><ele>0.0</ele><time>2026-04-15T09:34:29.269Z</time></trkpt><trkpt lat="45.4946138" lon="12.226317"><ele>0.0</ele><time>2026-04-15T09:34:30.291Z</time></trkpt><trkpt lat="45.4944455" lon="12.2261042"><ele>0.0</ele><time>2026-04-15T09:34:31.28Z</time></trkpt><trkpt lat="45.4942773" lon="12.2258953"><ele>0.0</ele><time>2026-04-15T09:34:32.288Z</time></trkpt><trkpt lat="45.4941137" lon="12.2256845"><ele>0.0</ele><time>2026-04-15T09:34:33.283Z</time></trkpt><trkpt lat="45.4939474" lon="12.2254768"><ele>-0.3333333333333333</ele><time>2026-04-15T09:34:34.269Z</time></trkpt><trkpt lat="45.4937813" lon="12.2252635"><ele>-0.6666666666666666</ele><time>2026-04-15T09:34:35.279Z</time></trkpt><trkpt lat="45.4936142" lon="12.2250532"><ele>-1.0</ele><time>2026-04-15T09:34:36.26Z</time></trkpt><trkpt lat="45.4934529" lon="12.2248438"><ele>-0.3333333333333333</ele><time>2026-04-15T09:34:37.292Z</time></trkpt><trkpt lat="45.4932911" lon="12.2246381"><ele>0.3333333333333333</ele><time>2026-04-15T09:34:38.277Z</time></trkpt><trkpt lat="45.4931252" lon="12.224422"><ele>1.0</ele><time>2026-04-15T09:34:39.25Z</time></trkpt><trkpt lat="45.492958" lon="12.2242099"><ele>1.6666666666666665</ele><time>2026-04-15T09:34:40.285Z</time></trkpt><trkpt lat="45.4927946" lon="12.2240015"><ele>2.3333333333333335</ele><time>2026-04-15T09:34:41.294Z</time></trkpt><trkpt lat="45.492621" lon="12.2237898"><ele>3.0</ele><time>2026-04-15T09:34:42.267Z</time></trkpt><trkpt lat="45.4924538" lon="12.2235755"><ele>3.0</ele><time>2026-04-15T09:34:43.281Z</time></trkpt><trkpt lat="45.4922835" lon="12.2233636"><ele>3.0</ele><time>2026-04-15T09:34:44.275Z</time></trkpt><trkpt lat="45.4921186" lon="12.223153"><ele>3.0</ele><time>2026-04-15T09:34:45.268Z</time></trkpt><trkpt lat="45.4919543" lon="12.2229479"><ele>4.0</ele><time>2026-04-15T09:34:46.28Z</time></trkpt><trkpt lat="45.4917898" lon="12.2227402"><ele>5.0</ele><time>2026-04-15T09:34:47.273Z</time></trkpt><trkpt lat="45.4916162" lon="12.2225445"><ele>6.0</ele><time>2026-04-15T09:34:48.265Z</time></trkpt><trkpt lat="45.4914365" lon="12.2223532"><ele>5.5</ele><time>2026-04-15T09:34:49.277Z</time></trkpt><trkpt lat="45.4912479" lon="12.2221659"><ele>5.0</ele><time>2026-04-15T09:34:50.288Z</time></trkpt><trkpt lat="45.4910576" lon="12.2219822"><ele>5.0</ele><time>2026-04-15T09:34:51.259Z</time></trkpt><trkpt lat="45.4908641" lon="12.2217996"><ele>5.0</ele><time>2026-04-15T09:34:52.282Z</time></trkpt><trkpt lat="45.4906702" lon="12.2216222"><ele>4.5</ele><time>2026-04-15T09:34:53.277Z</time></trkpt><trkpt lat="45.4904751" lon="12.2214561"><ele>4.0</ele><time>2026-04-15T09:34:54.264Z</time></trkpt><trkpt lat="45.4902792" lon="12.2212973"><ele>5.0</ele><time>2026-04-15T09:34:55.25Z</time></trkpt><trkpt lat="45.4900772" lon="12.2211461"><ele>6.0</ele><time>2026-04-15T09:34:56.263Z</time></trkpt><trkpt lat="45.489874" lon="12.2210058"><ele>6.0</ele><time>2026-04-15T09:34:57.273Z</time></trkpt><trkpt lat="45.48967" lon="12.2208691"><ele>6.0</ele><time>2026-04-15T09:34:58.276Z</time></trkpt><trkpt lat="45.4894622" lon="12.2207411"><ele>5.5</ele><time>2026-04-15T09:34:59.263Z</time></trkpt><trkpt lat="45.4892486" lon="12.2206207"><ele>5.0</ele><time>2026-04-15T09:35:00.266Z</time></trkpt><trkpt lat="45.4890348" lon="12.2204965"><ele>5.0</ele><time>2026-04-15T09:35:01.263Z</time></trkpt><trkpt lat="45.4888183" lon="12.2203785"><ele>5.0</ele><time>2026-04-15T09:35:02.286Z</time></trkpt><trkpt lat="45.4885963" lon="12.220267"><ele>3.5</ele><time>2026-04-15T09:35:03.245Z</time></trkpt><trkpt lat="45.488376" lon="12.2201749"><ele>2.0</ele><time>2026-04-15T09:35:04.273Z</time></trkpt><trkpt lat="45.4881529" lon="12.2200915"><ele>2.0</ele><time>2026-04-15T09:35:05.291Z</time></trkpt><trkpt lat="45.487928" lon="12.2200123"><ele>2.0</ele><time>2026-04-15T09:35:06.277Z</time></trkpt><trkpt lat="45.4877049" lon="12.2199366"><ele>2.0</ele><time>2026-04-15T09:35:07.257Z</time></trkpt><trkpt lat="45.4874806" lon="12.2198678"><ele>2.0</ele><time>2026-04-15T09:35:08.261Z</time></trkpt><trkpt lat="45.4872566" lon="12.219799"><ele>3.0</ele><time>2026-04-15T09:35:09.265Z</time></trkpt><trkpt lat="45.4870355" lon="12.2197353"><ele>4.0</ele><time>2026-04-15T09:35:10.291Z</time></trkpt><trkpt lat="45.4868137" lon="12.2196634"><ele>4.0</ele><time>2026-04-15T09:35:11.292Z</time></trkpt><trkpt lat="45.4865964" lon="12.2195968"><ele>4.0</ele><time>2026-04-15T09:35:12.29Z</time></trkpt><trkpt lat="45.4863847" lon="12.21953"><ele>4.0</ele><time>2026-04-15T09:35:13.279Z</time></trkpt><trkpt lat="45.4861766" lon="12.219462"><ele>4.0</ele><time>2026-04-15T09:35:14.262Z</time></trkpt><trkpt lat="45.485979" lon="12.2194034"><ele>4.0</ele><time>2026-04-15T09:35:15.274Z</time></trkpt><trkpt lat="45.4857796" lon="12.2193408"><ele>4.0</ele><time>2026-04-15T09:35:16.283Z</time></trkpt><trkpt lat="45.485583" lon="12.2192807"><ele>4.666666666666666</ele><time>2026-04-15T09:35:17.283Z</time></trkpt><trkpt lat="45.4853998" lon="12.2192193"><ele>5.333333333333333</ele><time>2026-04-15T09:35:18.258Z</time></trkpt><trkpt lat="45.4852311" lon="12.2191617"><ele>6.0</ele><time>2026-04-15T09:35:19.271Z</time></trkpt><trkpt lat="45.4850682" lon="12.2191185"><ele>6.0</ele><time>2026-04-15T09:35:20.27Z</time></trkpt><trkpt lat="45.4849134" lon="12.2190751"><ele>6.0</ele><time>2026-04-15T09:35:21.29Z</time></trkpt><trkpt lat="45.4847658" lon="12.2190323"><ele>6.0</ele><time>2026-04-15T09:35:22.27Z</time></trkpt><trkpt lat="45.4846199" lon="12.2189828"><ele>5.333333333333333</ele><time>2026-04-15T09:35:23.253Z</time></trkpt><trkpt lat="45.4844745" lon="12.2189326"><ele>4.666666666666666</ele><time>2026-04-15T09:35:24.275Z</time></trkpt><trkpt lat="45.4843321" lon="12.2188851"><ele>4.0</ele><time>2026-04-15T09:35:25.254Z</time></trkpt><trkpt lat="45.4840488" lon="12.2188089"><ele>4.0</ele><time>2026-04-15T09:35:27.277Z</time></trkpt><trkpt lat="45.4839053" lon="12.2187731"><ele>4.0</ele><time>2026-04-15T09:35:28.282Z</time></trkpt><trkpt lat="45.4837663" lon="12.2187361"><ele>4.0</ele><time>2026-04-15T09:35:29.279Z</time></trkpt><trkpt lat="45.483626" lon="12.2186922"><ele>4.0</ele><time>2026-04-15T09:35:30.276Z</time></trkpt><trkpt lat="45.4834906" lon="12.2186479"><ele>3.75</ele><time>2026-04-15T09:35:31.263Z</time></trkpt><trkpt lat="45.4833542" lon="12.2186067"><ele>3.5</ele><time>2026-04-15T09:35:32.289Z</time></trkpt><trkpt lat="45.4832218" lon="12.2185651"><ele>3.25</ele><time>2026-04-15T09:35:33.28Z</time></trkpt><trkpt lat="45.4830922" lon="12.2185218"><ele>3.0</ele><time>2026-04-15T09:35:34.283Z</time></trkpt><trkpt lat="45.4829576" lon="12.2184781"><ele>2.5</ele><time>2026-04-15T09:35:35.266Z</time></trkpt><trkpt lat="45.4828212" lon="12.2184347"><ele>2.0</ele><time>2026-04-15T09:35:36.289Z</time></trkpt><trkpt lat="45.4826874" lon="12.2183836"><ele>1.5</ele><time>2026-04-15T09:35:37.262Z</time></trkpt><trkpt lat="45.4825547" lon="12.2183265"><ele>1.0</ele><time>2026-04-15T09:35:38.268Z</time></trkpt><trkpt lat="45.4824181" lon="12.2182684"><ele>1.0</ele><time>2026-04-15T09:35:39.261Z</time></trkpt><trkpt lat="45.4822717" lon="12.2182034"><ele>1.0</ele><time>2026-04-15T09:35:40.277Z</time></trkpt><trkpt lat="45.4821189" lon="12.2181315"><ele>1.0</ele><time>2026-04-15T09:35:41.287Z</time></trkpt><trkpt lat="45.4819651" lon="12.2180558"><ele>1.0</ele><time>2026-04-15T09:35:42.281Z</time></trkpt><trkpt lat="45.4818188" lon="12.2179785"><ele>1.0</ele><time>2026-04-15T09:35:43.248Z</time></trkpt><trkpt lat="45.4816676" lon="12.2179065"><ele>1.0</ele><time>2026-04-15T09:35:44.242Z</time></trkpt><trkpt lat="45.4815061" lon="12.2178343"><ele>1.0</ele><time>2026-04-15T09:35:45.258Z</time></trkpt><trkpt lat="45.4813281" lon="12.2177479"><ele>1.0</ele><time>2026-04-15T09:35:46.252Z</time></trkpt><trkpt lat="45.4811453" lon="12.2176486"><ele>1.0</ele><time>2026-04-15T09:35:47.273Z</time></trkpt><trkpt lat="45.4809637" lon="12.2175507"><ele>1.0</ele><time>2026-04-15T09:35:48.265Z</time></trkpt><trkpt lat="45.4807806" lon="12.2174463"><ele>1.0</ele><time>2026-04-15T09:35:49.264Z</time></trkpt><trkpt lat="45.4806106" lon="12.2173354"><ele>1.0</ele><time>2026-04-15T09:35:50.26Z</time></trkpt><trkpt lat="45.4804436" lon="12.2172254"><ele>1.0</ele><time>2026-04-15T09:35:51.25Z</time></trkpt><trkpt lat="45.480282" lon="12.2171076"><ele>1.0</ele><time>2026-04-15T09:35:52.248Z</time></trkpt><trkpt lat="45.4801243" lon="12.2169938"><ele>1.0</ele><time>2026-04-15T09:35:53.278Z</time></trkpt><trkpt lat="45.4799655" lon="12.2168857"><ele>1.0</ele><time>2026-04-15T09:35:54.251Z</time></trkpt><trkpt lat="45.4798086" lon="12.2167872"><ele>1.0</ele><time>2026-04-15T09:35:55.277Z</time></trkpt><trkpt lat="45.4796543" lon="12.2166909"><ele>1.0</ele><time>2026-04-15T09:35:56.25Z</time></trkpt><trkpt lat="45.4795011" lon="12.2165958"><ele>1.0</ele><time>2026-04-15T09:35:57.26Z</time></trkpt><trkpt lat="45.479347" lon="12.216494"><ele>1.0</ele><time>2026-04-15T09:35:58.266Z</time></trkpt><trkpt lat="45.4791965" lon="12.216395"><ele>1.0</ele><time>2026-04-15T09:35:59.251Z</time></trkpt><trkpt lat="45.4790453" lon="12.2162924"><ele>1.0</ele><time>2026-04-15T09:36:00.282Z</time></trkpt><trkpt lat="45.4788909" lon="12.2161949"><ele>1.0</ele><time>2026-04-15T09:36:01.261Z</time></trkpt><trkpt lat="45.4787319" lon="12.2161031"><ele>1.0</ele><time>2026-04-15T09:36:02.27Z</time></trkpt><trkpt lat="45.4785781" lon="12.2160175"><ele>1.6666666666666665</ele><time>2026-04-15T09:36:03.261Z</time></trkpt><trkpt lat="45.4784261" lon="12.215922"><ele>2.3333333333333335</ele><time>2026-04-15T09:36:04.276Z</time></trkpt><trkpt lat="45.4782704" lon="12.215821"><ele>3.0</ele><time>2026-04-15T09:36:05.278Z</time></trkpt><trkpt lat="45.478114" lon="12.2157247"><ele>2.6666666666666665</ele><time>2026-04-15T09:36:06.275Z</time></trkpt><trkpt lat="45.4779515" lon="12.21562"><ele>2.333333333333333</ele><time>2026-04-15T09:36:07.26Z</time></trkpt><trkpt lat="45.4777867" lon="12.2155221"><ele>2.0</ele><time>2026-04-15T09:36:08.255Z</time></trkpt><trkpt lat="45.4776331" lon="12.215432"><ele>1.6666666666666665</ele><time>2026-04-15T09:36:09.262Z</time></trkpt><trkpt lat="45.4774876" lon="12.2153469"><ele>1.3333333333333333</ele><time>2026-04-15T09:36:10.268Z</time></trkpt><trkpt lat="45.4773475" lon="12.2152658"><ele>1.0</ele><time>2026-04-15T09:36:11.28Z</time></trkpt><trkpt lat="45.4772027" lon="12.2151799"><ele>1.6666666666666665</ele><time>2026-04-15T09:36:12.286Z</time></trkpt><trkpt lat="45.4770543" lon="12.2150912"><ele>2.3333333333333335</ele><time>2026-04-15T09:36:13.304Z</time></trkpt><trkpt lat="45.4769044" lon="12.2150052"><ele>3.0</ele><time>2026-04-15T09:36:14.28Z</time></trkpt><trkpt lat="45.4767553" lon="12.2149152"><ele>3.0</ele><time>2026-04-15T09:36:15.272Z</time></trkpt><trkpt lat="45.4766128" lon="12.2148297"><ele>3.0</ele><time>2026-04-15T09:36:16.294Z</time></trkpt><trkpt lat="45.4764727" lon="12.2147433"><ele>3.0</ele><time>2026-04-15T09:36:17.263Z</time></trkpt><trkpt lat="45.4763452" lon="12.2146536"><ele>3.0</ele><time>2026-04-15T09:36:18.269Z</time></trkpt><trkpt lat="45.476235" lon="12.2145578"><ele>3.5</ele><time>2026-04-15T09:36:19.268Z</time></trkpt><trkpt lat="45.4761332" lon="12.2144595"><ele>4.0</ele><time>2026-04-15T09:36:20.257Z</time></trkpt><trkpt lat="45.476035" lon="12.2143579"><ele>4.5</ele><time>2026-04-15T09:36:21.244Z</time></trkpt><trkpt lat="45.4759414" lon="12.2142546"><ele>5.0</ele><time>2026-04-15T09:36:22.253Z</time></trkpt><trkpt lat="45.475848" lon="12.2141442"><ele>5.0</ele><time>2026-04-15T09:36:23.251Z</time></trkpt><trkpt lat="45.4757576" lon="12.2140319"><ele>5.0</ele><time>2026-04-15T09:36:24.268Z</time></trkpt><trkpt lat="45.4756699" lon="12.213906"><ele>5.0</ele><time>2026-04-15T09:36:25.264Z</time></trkpt><trkpt lat="45.4755881" lon="12.2137746"><ele>5.0</ele><time>2026-04-15T09:36:26.262Z</time></trkpt><trkpt lat="45.4755139" lon="12.2136375"><ele>4.8</ele><time>2026-04-15T09:36:27.258Z</time></trkpt><trkpt lat="45.4754472" lon="12.2135076"><ele>4.6</ele><time>2026-04-15T09:36:28.273Z</time></trkpt><trkpt lat="45.475388" lon="12.2133781"><ele>4.4</ele><time>2026-04-15T09:36:29.259Z</time></trkpt><trkpt lat="45.4753329" lon="12.213252"><ele>4.2</ele><time>2026-04-15T09:36:30.277Z</time></trkpt><trkpt lat="45.4752906" lon="12.2131357"><ele>4.0</ele><time>2026-04-15T09:36:31.263Z</time></trkpt><trkpt lat="45.4752537" lon="12.2130398"><ele>3.8000000000000003</ele><time>2026-04-15T09:36:32.28Z</time></trkpt><trkpt lat="45.4752037" lon="12.2128808"><ele>3.6000000000000005</ele><time>2026-04-15T09:36:34.262Z</time></trkpt><trkpt lat="45.475179" lon="12.212786"><ele>3.4</ele><time>2026-04-15T09:36:35.273Z</time></trkpt><trkpt lat="45.4751465" lon="12.2126546"><ele>3.2</ele><time>2026-04-15T09:36:36.263Z</time></trkpt><trkpt lat="45.4751153" lon="12.2124957"><ele>3.0</ele><time>2026-04-15T09:36:37.274Z</time></trkpt><trkpt lat="45.4750954" lon="12.2123307"><ele>2.5</ele><time>2026-04-15T09:36:38.259Z</time></trkpt><trkpt lat="45.4750719" lon="12.2121591"><ele>2.0</ele><time>2026-04-15T09:36:39.259Z</time></trkpt><trkpt lat="45.4750315" lon="12.2119947"><ele>1.5</ele><time>2026-04-15T09:36:40.262Z</time></trkpt><trkpt lat="45.4749512" lon="12.2118169"><ele>1.0</ele><time>2026-04-15T09:36:41.263Z</time></trkpt><trkpt lat="45.4748477" lon="12.2116476"><ele>1.0</ele><time>2026-04-15T09:36:42.269Z</time></trkpt><trkpt lat="45.4747204" lon="12.2114978"><ele>1.0</ele><time>2026-04-15T09:36:43.266Z</time></trkpt><trkpt lat="45.474586" lon="12.2114113"><ele>1.0</ele><time>2026-04-15T09:36:44.243Z</time></trkpt><trkpt lat="45.4744617" lon="12.2113434"><ele>1.0</ele><time>2026-04-15T09:36:45.261Z</time></trkpt><trkpt lat="45.4743444" lon="12.2112965"><ele>1.75</ele><time>2026-04-15T09:36:46.266Z</time></trkpt><trkpt lat="45.4742281" lon="12.2112885"><ele>2.5</ele><time>2026-04-15T09:36:47.258Z</time></trkpt><trkpt lat="45.4740995" lon="12.2113116"><ele>3.25</ele><time>2026-04-15T09:36:48.254Z</time></trkpt><trkpt lat="45.4739605" lon="12.2113582"><ele>4.0</ele><time>2026-04-15T09:36:49.254Z</time></trkpt><trkpt lat="45.4738464" lon="12.2114348"><ele>2.75</ele><time>2026-04-15T09:36:50.259Z</time></trkpt><trkpt lat="45.4737547" lon="12.2115227"><ele>1.5</ele><time>2026-04-15T09:36:51.264Z</time></trkpt><trkpt lat="45.4736798" lon="12.2116104"><ele>0.25</ele><time>2026-04-15T09:36:52.257Z</time></trkpt><trkpt lat="45.4736184" lon="12.2117008"><ele>-1.0</ele><time>2026-04-15T09:36:53.273Z</time></trkpt><trkpt lat="45.4734978" lon="12.2119636"><ele>-1.0</ele><time>2026-04-15T09:36:55.263Z</time></trkpt><trkpt lat="45.4734509" lon="12.2120922"><ele>-1.0</ele><time>2026-04-15T09:36:56.28Z</time></trkpt><trkpt lat="45.4734148" lon="12.2121955"><ele>-1.0</ele><time>2026-04-15T09:36:57.284Z</time></trkpt><trkpt lat="45.4733884" lon="12.2123005"><ele>-1.0</ele><time>2026-04-15T09:36:58.257Z</time></trkpt><trkpt lat="45.4733592" lon="12.2124195"><ele>-1.0</ele><time>2026-04-15T09:36:59.24Z</time></trkpt><trkpt lat="45.4733233" lon="12.2125619"><ele>-1.25</ele><time>2026-04-15T09:37:00.252Z</time></trkpt><trkpt lat="45.4732628" lon="12.2127058"><ele>-1.5</ele><time>2026-04-15T09:37:01.255Z</time></trkpt><trkpt lat="45.4731789" lon="12.2128386"><ele>-1.75</ele><time>2026-04-15T09:37:02.255Z</time></trkpt><trkpt lat="45.4730691" lon="12.2129489"><ele>-2.0</ele><time>2026-04-15T09:37:03.25Z</time></trkpt><trkpt lat="45.4729268" lon="12.2130311"><ele>-2.0</ele><time>2026-04-15T09:37:04.289Z</time></trkpt><trkpt lat="45.4727733" lon="12.213087"><ele>-2.0</ele><time>2026-04-15T09:37:05.262Z</time></trkpt><trkpt lat="45.4726167" lon="12.2131212"><ele>-2.0</ele><time>2026-04-15T09:37:06.248Z</time></trkpt><trkpt lat="45.4724608" lon="12.2131515"><ele>-1.6666666666666665</ele><time>2026-04-15T09:37:07.257Z</time></trkpt><trkpt lat="45.4723005" lon="12.2131822"><ele>-1.3333333333333333</ele><time>2026-04-15T09:37:08.271Z</time></trkpt><trkpt lat="45.4721358" lon="12.2132109"><ele>-1.0</ele><time>2026-04-15T09:37:09.264Z</time></trkpt><trkpt lat="45.4719669" lon="12.2132346"><ele>-0.6666666666666666</ele><time>2026-04-15T09:37:10.275Z</time></trkpt><trkpt lat="45.471776" lon="12.2132584"><ele>-0.3333333333333333</ele><time>2026-04-15T09:37:11.276Z</time></trkpt><trkpt lat="45.4715714" lon="12.2132789"><ele>0.0</ele><time>2026-04-15T09:37:12.261Z</time></trkpt><trkpt lat="45.4713631" lon="12.2132917"><ele>0.3333333333333333</ele><time>2026-04-15T09:37:13.28Z</time></trkpt><trkpt lat="45.4711476" lon="12.2132772"><ele>0.6666666666666666</ele><time>2026-04-15T09:37:14.284Z</time></trkpt><trkpt lat="45.4709231" lon="12.2132485"><ele>1.0</ele><time>2026-04-15T09:37:15.275Z</time></trkpt><trkpt lat="45.4706898" lon="12.2132108"><ele>1.0</ele><time>2026-04-15T09:37:16.266Z</time></trkpt><trkpt lat="45.4704467" lon="12.213156"><ele>1.0</ele><time>2026-04-15T09:37:17.266Z</time></trkpt><trkpt lat="45.4701986" lon="12.2130905"><ele>0.0</ele><time>2026-04-15T09:37:18.244Z</time></trkpt><trkpt lat="45.469947" lon="12.213015"><ele>-1.0</ele><time>2026-04-15T09:37:19.265Z</time></trkpt><trkpt lat="45.4696945" lon="12.2129275"><ele>0.5</ele><time>2026-04-15T09:37:20.269Z</time></trkpt><trkpt lat="45.4694444" lon="12.212844"><ele>2.0</ele><time>2026-04-15T09:37:21.279Z</time></trkpt><trkpt lat="45.4691931" lon="12.2127576"><ele>2.0</ele><time>2026-04-15T09:37:22.268Z</time></trkpt><trkpt lat="45.4689401" lon="12.2126757"><ele>2.0</ele><time>2026-04-15T09:37:23.259Z</time></trkpt><trkpt lat="45.4686871" lon="12.212597"><ele>1.0</ele><time>2026-04-15T09:37:24.281Z</time></trkpt><trkpt lat="45.4684416" lon="12.2125162"><ele>0.0</ele><time>2026-04-15T09:37:25.276Z</time></trkpt><trkpt lat="45.4682141" lon="12.2124368"><ele>0.0</ele><time>2026-04-15T09:37:26.279Z</time></trkpt><trkpt lat="45.4679922" lon="12.2123581"><ele>0.0</ele><time>2026-04-15T09:37:27.277Z</time></trkpt><trkpt lat="45.4677747" lon="12.2122845"><ele>0.3333333333333333</ele><time>2026-04-15T09:37:28.276Z</time></trkpt><trkpt lat="45.4675631" lon="12.2122121"><ele>0.6666666666666666</ele><time>2026-04-15T09:37:29.272Z</time></trkpt><trkpt lat="45.4673414" lon="12.2121354"><ele>1.0</ele><time>2026-04-15T09:37:30.273Z</time></trkpt><trkpt lat="45.4671116" lon="12.2120499"><ele>1.0</ele><time>2026-04-15T09:37:31.242Z</time></trkpt><trkpt lat="45.466877" lon="12.2119699"><ele>1.0</ele><time>2026-04-15T09:37:32.28Z</time></trkpt><trkpt lat="45.4666436" lon="12.211892"><ele>1.0</ele><time>2026-04-15T09:37:33.258Z</time></trkpt><trkpt lat="45.4664162" lon="12.2118119"><ele>1.0</ele><time>2026-04-15T09:37:34.266Z</time></trkpt><trkpt lat="45.4661963" lon="12.211734"><ele>0.0</ele><time>2026-04-15T09:37:35.274Z</time></trkpt><trkpt lat="45.4659852" lon="12.2116604"><ele>-1.0</ele><time>2026-04-15T09:37:36.285Z</time></trkpt><trkpt lat="45.4657743" lon="12.2115851"><ele>-2.0</ele><time>2026-04-15T09:37:37.259Z</time></trkpt><trkpt lat="45.4655703" lon="12.2115115"><ele>-1.6666666666666665</ele><time>2026-04-15T09:37:38.262Z</time></trkpt><trkpt lat="45.4653698" lon="12.2114433"><ele>-1.3333333333333333</ele><time>2026-04-15T09:37:39.261Z</time></trkpt><trkpt lat="45.4651691" lon="12.2113745"><ele>-1.0</ele><time>2026-04-15T09:37:40.275Z</time></trkpt><trkpt lat="45.4649699" lon="12.2113042"><ele>-1.0</ele><time>2026-04-15T09:37:41.257Z</time></trkpt><trkpt lat="45.4647767" lon="12.2112307"><ele>-1.0</ele><time>2026-04-15T09:37:42.255Z</time></trkpt><trkpt lat="45.4645838" lon="12.2111605"><ele>-1.0</ele><time>2026-04-15T09:37:43.247Z</time></trkpt><trkpt lat="45.4643906" lon="12.2110953"><ele>-1.0</ele><time>2026-04-15T09:37:44.262Z</time></trkpt><trkpt lat="45.4641937" lon="12.2110294"><ele>-1.0</ele><time>2026-04-15T09:37:45.26Z</time></trkpt><trkpt lat="45.4639891" lon="12.2109554"><ele>-1.0</ele><time>2026-04-15T09:37:46.27Z</time></trkpt><trkpt lat="45.4637765" lon="12.2108824"><ele>-1.0</ele><time>2026-04-15T09:37:47.275Z</time></trkpt><trkpt lat="45.463557" lon="12.2108072"><ele>-1.0</ele><time>2026-04-15T09:37:48.27Z</time></trkpt><trkpt lat="45.4633432" lon="12.2107293"><ele>-1.0</ele><time>2026-04-15T09:37:49.274Z</time></trkpt><trkpt lat="45.4631358" lon="12.210657"><ele>-1.0</ele><time>2026-04-15T09:37:50.275Z</time></trkpt><trkpt lat="45.46294" lon="12.2105861"><ele>-1.0</ele><time>2026-04-15T09:37:51.256Z</time></trkpt><trkpt lat="45.4627542" lon="12.2105191"><ele>-1.0</ele><time>2026-04-15T09:37:52.269Z</time></trkpt><trkpt lat="45.4625782" lon="12.2104659"><ele>-1.0</ele><time>2026-04-15T09:37:53.254Z</time></trkpt><trkpt lat="45.4624069" lon="12.2104058"><ele>-1.0</ele><time>2026-04-15T09:37:54.273Z</time></trkpt><trkpt lat="45.4622465" lon="12.2103465"><ele>-1.0</ele><time>2026-04-15T09:37:55.266Z</time></trkpt><trkpt lat="45.4621189" lon="12.210301"><ele>-0.8</ele><time>2026-04-15T09:37:56.24Z</time></trkpt><trkpt lat="45.4620133" lon="12.2102597"><ele>-0.6000000000000001</ele><time>2026-04-15T09:37:57.25Z</time></trkpt><trkpt lat="45.4619109" lon="12.2102253"><ele>-0.4</ele><time>2026-04-15T09:37:58.245Z</time></trkpt><trkpt lat="45.461813" lon="12.2101962"><ele>-0.2</ele><time>2026-04-15T09:37:59.276Z</time></trkpt><trkpt lat="45.4617152" lon="12.2101636"><ele>0.0</ele><time>2026-04-15T09:38:00.279Z</time></trkpt><trkpt lat="45.4616247" lon="12.2101337"><ele>0.0</ele><time>2026-04-15T09:38:01.264Z</time></trkpt><trkpt lat="45.4615427" lon="12.2100944"><ele>0.0</ele><time>2026-04-15T09:38:02.27Z</time></trkpt><trkpt lat="45.4614741" lon="12.2100396"><ele>0.0</ele><time>2026-04-15T09:38:03.244Z</time></trkpt><trkpt lat="45.4613878" lon="12.2099395"><ele>0.0</ele><time>2026-04-15T09:38:05.244Z</time></trkpt><trkpt lat="45.4613097" lon="12.2098213"><ele>0.0</ele><time>2026-04-15T09:38:07.264Z</time></trkpt><trkpt lat="45.4612646" lon="12.2097107"><ele>0.0</ele><time>2026-04-15T09:38:08.241Z</time></trkpt><trkpt lat="45.4612077" lon="12.2095635"><ele>0.0</ele><time>2026-04-15T09:38:09.26Z</time></trkpt><trkpt lat="45.4611399" lon="12.209413"><ele>0.0</ele><time>2026-04-15T09:38:10.247Z</time></trkpt><trkpt lat="45.4610579" lon="12.2092698"><ele>0.0</ele><time>2026-04-15T09:38:11.274Z</time></trkpt><trkpt lat="45.4609596" lon="12.2091546"><ele>0.0</ele><time>2026-04-15T09:38:12.249Z</time></trkpt><trkpt lat="45.4608455" lon="12.2090767"><ele>0.0</ele><time>2026-04-15T09:38:13.268Z</time></trkpt><trkpt lat="45.4607236" lon="12.2090372"><ele>0.0</ele><time>2026-04-15T09:38:14.273Z</time></trkpt><trkpt lat="45.460607" lon="12.2090372"><ele>0.0</ele><time>2026-04-15T09:38:15.242Z</time></trkpt><trkpt lat="45.4604907" lon="12.2090697"><ele>1.25</ele><time>2026-04-15T09:38:16.243Z</time></trkpt><trkpt lat="45.4603869" lon="12.2091298"><ele>2.5</ele><time>2026-04-15T09:38:17.276Z</time></trkpt><trkpt lat="45.4602912" lon="12.2092211"><ele>3.75</ele><time>2026-04-15T09:38:18.288Z</time></trkpt><trkpt lat="45.4602072" lon="12.209317"><ele>5.0</ele><time>2026-04-15T09:38:19.258Z</time></trkpt><trkpt lat="45.4601059" lon="12.2094255"><ele>5.0</ele><time>2026-04-15T09:38:20.256Z</time></trkpt><trkpt lat="45.4599727" lon="12.2095205"><ele>5.0</ele><time>2026-04-15T09:38:21.232Z</time></trkpt><trkpt lat="45.459798" lon="12.2095775"><ele>5.0</ele><time>2026-04-15T09:38:22.261Z</time></trkpt><trkpt lat="45.4596103" lon="12.2095726"><ele>3.666666666666667</ele><time>2026-04-15T09:38:23.261Z</time></trkpt><trkpt lat="45.4594183" lon="12.2095278"><ele>2.3333333333333335</ele><time>2026-04-15T09:38:24.268Z</time></trkpt><trkpt lat="45.4592011" lon="12.2094896"><ele>1.0</ele><time>2026-04-15T09:38:25.253Z</time></trkpt><trkpt lat="45.4589735" lon="12.2094485"><ele>-1.0</ele><time>2026-04-15T09:38:26.262Z</time></trkpt><trkpt lat="45.4587385" lon="12.2093988"><ele>-3.0</ele><time>2026-04-15T09:38:27.272Z</time></trkpt><trkpt lat="45.4585006" lon="12.2093485"><ele>-3.0</ele><time>2026-04-15T09:38:28.265Z</time></trkpt><trkpt lat="45.4580164" lon="12.2092415"><ele>-3.5</ele><time>2026-04-15T09:38:30.26Z</time></trkpt><trkpt lat="45.4577653" lon="12.2091887"><ele>-4.0</ele><time>2026-04-15T09:38:31.254Z</time></trkpt><trkpt lat="45.457517" lon="12.2091325"><ele>-4.0</ele><time>2026-04-15T09:38:32.22Z</time></trkpt><trkpt lat="45.4572726" lon="12.209083"><ele>-4.0</ele><time>2026-04-15T09:38:33.263Z</time></trkpt><trkpt lat="45.457037" lon="12.2090376"><ele>-2.0</ele><time>2026-04-15T09:38:34.265Z</time></trkpt><trkpt lat="45.456801" lon="12.2089896"><ele>0.0</ele><time>2026-04-15T09:38:35.27Z</time></trkpt><trkpt lat="45.4565669" lon="12.208935"><ele>0.0</ele><time>2026-04-15T09:38:36.26Z</time></trkpt><trkpt lat="45.4563348" lon="12.2088721"><ele>0.0</ele><time>2026-04-15T09:38:37.278Z</time></trkpt><trkpt lat="45.456104" lon="12.2088124"><ele>-0.5</ele><time>2026-04-15T09:38:38.265Z</time></trkpt><trkpt lat="45.4558701" lon="12.2087585"><ele>-1.0</ele><time>2026-04-15T09:38:39.261Z</time></trkpt><trkpt lat="45.4556416" lon="12.2087027"><ele>-1.6666666666666665</ele><time>2026-04-15T09:38:40.261Z</time></trkpt><trkpt lat="45.4554239" lon="12.2086523"><ele>-2.3333333333333335</ele><time>2026-04-15T09:38:41.246Z</time></trkpt><trkpt lat="45.4552196" lon="12.2086012"><ele>-3.0</ele><time>2026-04-15T09:38:42.242Z</time></trkpt><trkpt lat="45.4550225" lon="12.2085581"><ele>-3.0</ele><time>2026-04-15T09:38:43.266Z</time></trkpt><trkpt lat="45.4548363" lon="12.2085161"><ele>-3.0</ele><time>2026-04-15T09:38:44.245Z</time></trkpt><trkpt lat="45.4546563" lon="12.2084705"><ele>-3.0</ele><time>2026-04-15T09:38:45.264Z</time></trkpt><trkpt lat="45.4544812" lon="12.2084335"><ele>-1.6666666666666667</ele><time>2026-04-15T09:38:46.262Z</time></trkpt><trkpt lat="45.4543072" lon="12.2083943"><ele>-0.33333333333333337</ele><time>2026-04-15T09:38:47.255Z</time></trkpt><trkpt lat="45.4541352" lon="12.2083517"><ele>1.0</ele><time>2026-04-15T09:38:48.261Z</time></trkpt><trkpt lat="45.4539635" lon="12.2083158"><ele>1.0</ele><time>2026-04-15T09:38:49.256Z</time></trkpt><trkpt lat="45.4537923" lon="12.2082787"><ele>1.0</ele><time>2026-04-15T09:38:50.263Z</time></trkpt><trkpt lat="45.4536226" lon="12.2082384"><ele>1.0</ele><time>2026-04-15T09:38:51.269Z</time></trkpt><trkpt lat="45.4534537" lon="12.2081986"><ele>0.3333333333333333</ele><time>2026-04-15T09:38:52.25Z</time></trkpt><trkpt lat="45.4532843" lon="12.2081648"><ele>-0.3333333333333333</ele><time>2026-04-15T09:38:53.269Z</time></trkpt><trkpt lat="45.4531142" lon="12.2081248"><ele>-1.0</ele><time>2026-04-15T09:38:54.278Z</time></trkpt><trkpt lat="45.4529481" lon="12.2080775"><ele>-1.0</ele><time>2026-04-15T09:38:55.245Z</time></trkpt><trkpt lat="45.4526133" lon="12.2079867"><ele>-1.0</ele><time>2026-04-15T09:38:57.235Z</time></trkpt><trkpt lat="45.4524482" lon="12.2079429"><ele>-1.0</ele><time>2026-04-15T09:38:58.247Z</time></trkpt><trkpt lat="45.4522842" lon="12.207901"><ele>-1.0</ele><time>2026-04-15T09:38:59.25Z</time></trkpt><trkpt lat="45.4521172" lon="12.2078536"><ele>-1.0</ele><time>2026-04-15T09:39:00.253Z</time></trkpt><trkpt lat="45.4519535" lon="12.2078055"><ele>-0.3333333333333333</ele><time>2026-04-15T09:39:01.253Z</time></trkpt><trkpt lat="45.4517943" lon="12.2077601"><ele>0.3333333333333333</ele><time>2026-04-15T09:39:02.265Z</time></trkpt><trkpt lat="45.4516447" lon="12.2077167"><ele>1.0</ele><time>2026-04-15T09:39:03.254Z</time></trkpt><trkpt lat="45.4515109" lon="12.2076655"><ele>1.0</ele><time>2026-04-15T09:39:04.245Z</time></trkpt><trkpt lat="45.4513847" lon="12.2076151"><ele>1.0</ele><time>2026-04-15T09:39:05.228Z</time></trkpt><trkpt lat="45.4512669" lon="12.2075608"><ele>1.0</ele><time>2026-04-15T09:39:06.268Z</time></trkpt><trkpt lat="45.4511673" lon="12.2074894"><ele>1.0</ele><time>2026-04-15T09:39:07.253Z</time></trkpt><trkpt lat="45.4510994" lon="12.2073924"><ele>1.2000000000000002</ele><time>2026-04-15T09:39:08.245Z</time></trkpt><trkpt lat="45.4510529" lon="12.2072841"><ele>1.4000000000000001</ele><time>2026-04-15T09:39:09.238Z</time></trkpt><trkpt lat="45.4510311" lon="12.2071434"><ele>1.6</ele><time>2026-04-15T09:39:10.223Z</time></trkpt><trkpt lat="45.4510316" lon="12.206983"><ele>1.8</ele><time>2026-04-15T09:39:11.259Z</time></trkpt><trkpt lat="45.4510476" lon="12.2067965"><ele>2.0</ele><time>2026-04-15T09:39:12.255Z</time></trkpt><trkpt lat="45.451058" lon="12.2065846"><ele>1.6666666666666665</ele><time>2026-04-15T09:39:13.293Z</time></trkpt><trkpt lat="45.4510533" lon="12.2063513"><ele>1.3333333333333333</ele><time>2026-04-15T09:39:14.266Z</time></trkpt><trkpt lat="45.4510236" lon="12.2061079"><ele>1.0</ele><time>2026-04-15T09:39:15.258Z</time></trkpt><trkpt lat="45.4509754" lon="12.2058732"><ele>0.0</ele><time>2026-04-15T09:39:16.26Z</time></trkpt><trkpt lat="45.4509043" lon="12.2056572"><ele>-1.0</ele><time>2026-04-15T09:39:17.228Z</time></trkpt><trkpt lat="45.45082" lon="12.2054754"><ele>-2.0</ele><time>2026-04-15T09:39:18.257Z</time></trkpt><trkpt lat="45.4507114" lon="12.2053241"><ele>-2.0</ele><time>2026-04-15T09:39:19.243Z</time></trkpt><trkpt lat="45.4505877" lon="12.2052046"><ele>-2.0</ele><time>2026-04-15T09:39:20.262Z</time></trkpt><trkpt lat="45.4504588" lon="12.2051105"><ele>-2.0</ele><time>2026-04-15T09:39:21.223Z</time></trkpt><trkpt lat="45.4503302" lon="12.2050195"><ele>-2.0</ele><time>2026-04-15T09:39:22.267Z</time></trkpt><trkpt lat="45.4501992" lon="12.2049626"><ele>-2.25</ele><time>2026-04-15T09:39:23.231Z</time></trkpt><trkpt lat="45.4500611" lon="12.2049506"><ele>-2.5</ele><time>2026-04-15T09:39:24.251Z</time></trkpt><trkpt lat="45.4499143" lon="12.2049591"><ele>-2.75</ele><time>2026-04-15T09:39:25.242Z</time></trkpt><trkpt lat="45.4497667" lon="12.204989"><ele>-3.0</ele><time>2026-04-15T09:39:26.277Z</time></trkpt><trkpt lat="45.4496168" lon="12.2050439"><ele>-2.5</ele><time>2026-04-15T09:39:27.25Z</time></trkpt><trkpt lat="45.4494813" lon="12.2051279"><ele>-2.0</ele><time>2026-04-15T09:39:28.261Z</time></trkpt><trkpt lat="45.4493572" lon="12.2052333"><ele>-1.5</ele><time>2026-04-15T09:39:29.252Z</time></trkpt><trkpt lat="45.4492476" lon="12.2053718"><ele>-1.0</ele><time>2026-04-15T09:39:30.246Z</time></trkpt><trkpt lat="45.4491494" lon="12.2055166"><ele>-1.2000000000000002</ele><time>2026-04-15T09:39:31.245Z</time></trkpt><trkpt lat="45.4490688" lon="12.2056667"><ele>-1.4000000000000001</ele><time>2026-04-15T09:39:32.251Z</time></trkpt><trkpt lat="45.4490026" lon="12.2058078"><ele>-1.6</ele><time>2026-04-15T09:39:33.26Z</time></trkpt><trkpt lat="45.4489515" lon="12.2059362"><ele>-1.8</ele><time>2026-04-15T09:39:34.272Z</time></trkpt><trkpt lat="45.4489217" lon="12.2060388"><ele>-2.0</ele><time>2026-04-15T09:39:35.261Z</time></trkpt><trkpt lat="45.4488957" lon="12.2061565"><ele>-2.0</ele><time>2026-04-15T09:39:36.252Z</time></trkpt><trkpt lat="45.4488458" lon="12.2062572"><ele>-2.0</ele><time>2026-04-15T09:39:37.234Z</time></trkpt><trkpt lat="45.4487583" lon="12.2063452"><ele>-2.0</ele><time>2026-04-15T09:39:38.26Z</time></trkpt><trkpt lat="45.4486514" lon="12.2064067"><ele>-2.0</ele><time>2026-04-15T09:39:39.26Z</time></trkpt><trkpt lat="45.4485224" lon="12.206427"><ele>-2.0</ele><time>2026-04-15T09:39:40.25Z</time></trkpt><trkpt lat="45.4483824" lon="12.2064026"><ele>-1.6666666666666665</ele><time>2026-04-15T09:39:41.239Z</time></trkpt><trkpt lat="45.4482265" lon="12.2063545"><ele>-1.3333333333333333</ele><time>2026-04-15T09:39:42.257Z</time></trkpt><trkpt lat="45.4480612" lon="12.206302"><ele>-1.0</ele><time>2026-04-15T09:39:43.263Z</time></trkpt><trkpt lat="45.4478845" lon="12.2062372"><ele>-1.0</ele><time>2026-04-15T09:39:44.221Z</time></trkpt><trkpt lat="45.4476963" lon="12.2061776"><ele>-1.0</ele><time>2026-04-15T09:39:45.239Z</time></trkpt><trkpt lat="45.4474945" lon="12.2061085"><ele>-1.0</ele><time>2026-04-15T09:39:46.266Z</time></trkpt><trkpt lat="45.4472862" lon="12.2060313"><ele>-1.5</ele><time>2026-04-15T09:39:47.271Z</time></trkpt><trkpt lat="45.4470715" lon="12.205947"><ele>-2.0</ele><time>2026-04-15T09:39:48.272Z</time></trkpt><trkpt lat="45.4466357" lon="12.2057747"><ele>-2.0</ele><time>2026-04-15T09:39:50.267Z</time></trkpt><trkpt lat="45.446419" lon="12.2056804"><ele>-2.0</ele><time>2026-04-15T09:39:51.246Z</time></trkpt><trkpt lat="45.4462146" lon="12.2055951"><ele>-2.0</ele><time>2026-04-15T09:39:52.264Z</time></trkpt><trkpt lat="45.4460178" lon="12.2055081"><ele>-2.333333333333333</ele><time>2026-04-15T09:39:53.241Z</time></trkpt><trkpt lat="45.4458241" lon="12.2054332"><ele>-2.6666666666666665</ele><time>2026-04-15T09:39:54.259Z</time></trkpt><trkpt lat="45.4456371" lon="12.2053578"><ele>-3.0</ele><time>2026-04-15T09:39:55.255Z</time></trkpt><trkpt lat="45.4454589" lon="12.2052919"><ele>-3.0</ele><time>2026-04-15T09:39:56.239Z</time></trkpt><trkpt lat="45.445282" lon="12.2052282"><ele>-3.0</ele><time>2026-04-15T09:39:57.253Z</time></trkpt><trkpt lat="45.4451004" lon="12.2051606"><ele>-3.0</ele><time>2026-04-15T09:39:58.251Z</time></trkpt><trkpt lat="45.4449169" lon="12.2050898"><ele>-3.0</ele><time>2026-04-15T09:39:59.227Z</time></trkpt><trkpt lat="45.444565" lon="12.2049402"><ele>-3.0</ele><time>2026-04-15T09:40:01.241Z</time></trkpt><trkpt lat="45.4444046" lon="12.2048728"><ele>-3.0</ele><time>2026-04-15T09:40:02.251Z</time></trkpt><trkpt lat="45.444246" lon="12.2048079"><ele>-3.0</ele><time>2026-04-15T09:40:03.253Z</time></trkpt><trkpt lat="45.4440893" lon="12.2047443"><ele>-3.0</ele><time>2026-04-15T09:40:04.244Z</time></trkpt><trkpt lat="45.443932" lon="12.2046858"><ele>-3.0</ele><time>2026-04-15T09:40:05.225Z</time></trkpt><trkpt lat="45.4437749" lon="12.2046272"><ele>-3.0</ele><time>2026-04-15T09:40:06.265Z</time></trkpt><trkpt lat="45.4436302" lon="12.2045729"><ele>-3.0</ele><time>2026-04-15T09:40:07.259Z</time></trkpt><trkpt lat="45.4435002" lon="12.2045157"><ele>-3.0</ele><time>2026-04-15T09:40:08.245Z</time></trkpt><trkpt lat="45.4433743" lon="12.204461"><ele>-3.0</ele><time>2026-04-15T09:40:09.245Z</time></trkpt><trkpt lat="45.4432501" lon="12.204402"><ele>-3.0</ele><time>2026-04-15T09:40:10.246Z</time></trkpt><trkpt lat="45.4429917" lon="12.2042597"><ele>-3.0</ele><time>2026-04-15T09:40:12.26Z</time></trkpt><trkpt lat="45.4428664" lon="12.2041741"><ele>-2.5</ele><time>2026-04-15T09:40:13.237Z</time></trkpt><trkpt lat="45.4427407" lon="12.2040875"><ele>-2.0</ele><time>2026-04-15T09:40:14.229Z</time></trkpt><trkpt lat="45.4426161" lon="12.2039927"><ele>-1.5</ele><time>2026-04-15T09:40:15.258Z</time></trkpt><trkpt lat="45.4425008" lon="12.2038993"><ele>-1.0</ele><time>2026-04-15T09:40:16.27Z</time></trkpt><trkpt lat="45.4424017" lon="12.2038008"><ele>-1.0</ele><time>2026-04-15T09:40:17.244Z</time></trkpt><trkpt lat="45.4423176" lon="12.2037082"><ele>-1.0</ele><time>2026-04-15T09:40:18.274Z</time></trkpt><trkpt lat="45.4422422" lon="12.2036199"><ele>-1.0</ele><time>2026-04-15T09:40:19.256Z</time></trkpt><trkpt lat="45.4421679" lon="12.203533"><ele>-1.0</ele><time>2026-04-15T09:40:20.246Z</time></trkpt><trkpt lat="45.4420893" lon="12.2034437"><ele>-1.0</ele><time>2026-04-15T09:40:21.25Z</time></trkpt><trkpt lat="45.4420087" lon="12.2033451"><ele>-0.8</ele><time>2026-04-15T09:40:22.236Z</time></trkpt><trkpt lat="45.4419306" lon="12.2032426"><ele>-0.6000000000000001</ele><time>2026-04-15T09:40:23.254Z</time></trkpt><trkpt lat="45.4418544" lon="12.2031409"><ele>-0.4</ele><time>2026-04-15T09:40:24.243Z</time></trkpt><trkpt lat="45.4417776" lon="12.2030412"><ele>-0.2</ele><time>2026-04-15T09:40:25.243Z</time></trkpt><trkpt lat="45.4417016" lon="12.2029432"><ele>0.0</ele><time>2026-04-15T09:40:26.249Z</time></trkpt><trkpt lat="45.4416286" lon="12.2028394"><ele>0.0</ele><time>2026-04-15T09:40:27.255Z</time></trkpt><trkpt lat="45.4415539" lon="12.2027437"><ele>0.0</ele><time>2026-04-15T09:40:28.254Z</time></trkpt><trkpt lat="45.4414774" lon="12.2026433"><ele>0.0</ele><time>2026-04-15T09:40:29.254Z</time></trkpt><trkpt lat="45.4413957" lon="12.2025337"><ele>0.0</ele><time>2026-04-15T09:40:30.24Z</time></trkpt><trkpt lat="45.4413132" lon="12.2024246"><ele>0.0</ele><time>2026-04-15T09:40:31.253Z</time></trkpt><trkpt lat="45.4412289" lon="12.2023129"><ele>-1.0</ele><time>2026-04-15T09:40:32.232Z</time></trkpt><trkpt lat="45.4411458" lon="12.2021984"><ele>-2.0</ele><time>2026-04-15T09:40:33.237Z</time></trkpt><trkpt lat="45.4410619" lon="12.2020867"><ele>-3.0</ele><time>2026-04-15T09:40:34.237Z</time></trkpt><trkpt lat="45.4409801" lon="12.2019638"><ele>-4.0</ele><time>2026-04-15T09:40:35.211Z</time></trkpt><trkpt lat="45.4408968" lon="12.2018371"><ele>-4.0</ele><time>2026-04-15T09:40:36.235Z</time></trkpt><trkpt lat="45.440815" lon="12.2017074"><ele>-4.0</ele><time>2026-04-15T09:40:37.22Z</time></trkpt><trkpt lat="45.4407357" lon="12.2015882"><ele>-4.0</ele><time>2026-04-15T09:40:38.236Z</time></trkpt><trkpt lat="45.4406648" lon="12.2014815"><ele>-4.0</ele><time>2026-04-15T09:40:39.226Z</time></trkpt><trkpt lat="45.440601" lon="12.201382"><ele>-4.0</ele><time>2026-04-15T09:40:40.238Z</time></trkpt><trkpt lat="45.4405379" lon="12.2012794"><ele>-3.6</ele><time>2026-04-15T09:40:41.24Z</time></trkpt><trkpt lat="45.4404742" lon="12.201173"><ele>-3.2</ele><time>2026-04-15T09:40:42.255Z</time></trkpt><trkpt lat="45.440411" lon="12.201063"><ele>-2.8000000000000003</ele><time>2026-04-15T09:40:43.249Z</time></trkpt><trkpt lat="45.4403453" lon="12.200953"><ele>-2.4000000000000004</ele><time>2026-04-15T09:40:44.23Z</time></trkpt><trkpt lat="45.4402777" lon="12.2008399"><ele>-2.0</ele><time>2026-04-15T09:40:45.228Z</time></trkpt><trkpt lat="45.4402091" lon="12.2007257"><ele>-1.4000000000000001</ele><time>2026-04-15T09:40:46.263Z</time></trkpt><trkpt lat="45.4401377" lon="12.2006084"><ele>-0.8000000000000002</ele><time>2026-04-15T09:40:47.256Z</time></trkpt><trkpt lat="45.4400718" lon="12.20049"><ele>-0.19999999999999996</ele><time>2026-04-15T09:40:48.246Z</time></trkpt><trkpt lat="45.4400053" lon="12.2003792"><ele>0.4</ele><time>2026-04-15T09:40:49.234Z</time></trkpt><trkpt lat="45.4399337" lon="12.2002667"><ele>1.0</ele><time>2026-04-15T09:40:50.261Z</time></trkpt><trkpt lat="45.4398636" lon="12.2001544"><ele>1.0</ele><time>2026-04-15T09:40:51.253Z</time></trkpt><trkpt lat="45.4397948" lon="12.2000395"><ele>1.0</ele><time>2026-04-15T09:40:52.269Z</time></trkpt><trkpt lat="45.4397266" lon="12.1999289"><ele>1.0</ele><time>2026-04-15T09:40:53.216Z</time></trkpt><trkpt lat="45.439648" lon="12.1998042"><ele>1.0</ele><time>2026-04-15T09:40:54.256Z</time></trkpt><trkpt lat="45.4395628" lon="12.1996688"><ele>1.25</ele><time>2026-04-15T09:40:55.239Z</time></trkpt><trkpt lat="45.439474" lon="12.1995258"><ele>1.5</ele><time>2026-04-15T09:40:56.242Z</time></trkpt><trkpt lat="45.4393844" lon="12.1993815"><ele>1.75</ele><time>2026-04-15T09:40:57.253Z</time></trkpt><trkpt lat="45.4392983" lon="12.19924"><ele>2.0</ele><time>2026-04-15T09:40:58.272Z</time></trkpt><trkpt lat="45.4392197" lon="12.1991012"><ele>2.0</ele><time>2026-04-15T09:40:59.264Z</time></trkpt><trkpt lat="45.4391393" lon="12.1989697"><ele>2.0</ele><time>2026-04-15T09:41:00.266Z</time></trkpt><trkpt lat="45.4390554" lon="12.1988351"><ele>2.0</ele><time>2026-04-15T09:41:01.217Z</time></trkpt><trkpt lat="45.4389671" lon="12.1986969"><ele>2.0</ele><time>2026-04-15T09:41:02.252Z</time></trkpt><trkpt lat="45.4388833" lon="12.1985625"><ele>2.0</ele><time>2026-04-15T09:41:03.25Z</time></trkpt><trkpt lat="45.4388032" lon="12.1984228"><ele>2.0</ele><time>2026-04-15T09:41:04.263Z</time></trkpt><trkpt lat="45.4387215" lon="12.1982852"><ele>2.0</ele><time>2026-04-15T09:41:05.228Z</time></trkpt><trkpt lat="45.4386402" lon="12.1981532"><ele>2.0</ele><time>2026-04-15T09:41:06.257Z</time></trkpt><trkpt lat="45.4385597" lon="12.1980208"><ele>1.5</ele><time>2026-04-15T09:41:07.246Z</time></trkpt><trkpt lat="45.4384768" lon="12.197888"><ele>1.0</ele><time>2026-04-15T09:41:08.249Z</time></trkpt><trkpt lat="45.4383962" lon="12.1977556"><ele>0.5</ele><time>2026-04-15T09:41:09.237Z</time></trkpt><trkpt lat="45.4383128" lon="12.1976213"><ele>0.0</ele><time>2026-04-15T09:41:10.251Z</time></trkpt><trkpt lat="45.4382315" lon="12.1974887"><ele>0.0</ele><time>2026-04-15T09:41:11.255Z</time></trkpt><trkpt lat="45.4381474" lon="12.1973513"><ele>0.0</ele><time>2026-04-15T09:41:12.24Z</time></trkpt><trkpt lat="45.4380592" lon="12.1972082"><ele>0.0</ele><time>2026-04-15T09:41:13.253Z</time></trkpt><trkpt lat="45.4379721" lon="12.1970667"><ele>0.0</ele><time>2026-04-15T09:41:14.247Z</time></trkpt><trkpt lat="45.4378929" lon="12.1969349"><ele>-0.75</ele><time>2026-04-15T09:41:15.236Z</time></trkpt><trkpt lat="45.4378115" lon="12.1968048"><ele>-1.5</ele><time>2026-04-15T09:41:16.219Z</time></trkpt><trkpt lat="45.4377255" lon="12.1966622"><ele>-2.25</ele><time>2026-04-15T09:41:17.24Z</time></trkpt><trkpt lat="45.4376387" lon="12.1965154"><ele>-3.0</ele><time>2026-04-15T09:41:18.241Z</time></trkpt><trkpt lat="45.4375536" lon="12.1963735"><ele>-3.25</ele><time>2026-04-15T09:41:19.244Z</time></trkpt><trkpt lat="45.4374782" lon="12.1962269"><ele>-3.5</ele><time>2026-04-15T09:41:20.241Z</time></trkpt><trkpt lat="45.4373975" lon="12.1960966"><ele>-3.75</ele><time>2026-04-15T09:41:21.226Z</time></trkpt><trkpt lat="45.4373168" lon="12.1959751"><ele>-4.0</ele><time>2026-04-15T09:41:22.253Z</time></trkpt><trkpt lat="45.4372468" lon="12.1958538"><ele>-4.0</ele><time>2026-04-15T09:41:23.219Z</time></trkpt><trkpt lat="45.4371763" lon="12.1957235"><ele>-4.0</ele><time>2026-04-15T09:41:24.236Z</time></trkpt><trkpt lat="45.4371038" lon="12.1955958"><ele>-4.0</ele><time>2026-04-15T09:41:25.256Z</time></trkpt><trkpt lat="45.4370301" lon="12.1954681"><ele>-4.0</ele><time>2026-04-15T09:41:26.249Z</time></trkpt><trkpt lat="45.4369422" lon="12.1953566"><ele>-3.25</ele><time>2026-04-15T09:41:27.251Z</time></trkpt><trkpt lat="45.4368591" lon="12.1952249"><ele>-2.5</ele><time>2026-04-15T09:41:28.236Z</time></trkpt><trkpt lat="45.4367754" lon="12.1950846"><ele>-1.75</ele><time>2026-04-15T09:41:29.249Z</time></trkpt><trkpt lat="45.4366851" lon="12.1949417"><ele>-1.0</ele><time>2026-04-15T09:41:30.256Z</time></trkpt><trkpt lat="45.4365942" lon="12.1948"><ele>-1.0</ele><time>2026-04-15T09:41:31.229Z</time></trkpt><trkpt lat="45.4365009" lon="12.1946505"><ele>-1.0</ele><time>2026-04-15T09:41:32.231Z</time></trkpt><trkpt lat="45.4364034" lon="12.1944933"><ele>-1.0</ele><time>2026-04-15T09:41:33.24Z</time></trkpt><trkpt lat="45.4363027" lon="12.1943387"><ele>-1.0</ele><time>2026-04-15T09:41:34.22Z</time></trkpt><trkpt lat="45.4362154" lon="12.1941879"><ele>-1.25</ele><time>2026-04-15T09:41:35.232Z</time></trkpt><trkpt lat="45.4361403" lon="12.194047"><ele>-1.5</ele><time>2026-04-15T09:41:36.243Z</time></trkpt><trkpt lat="45.4360603" lon="12.1939127"><ele>-1.75</ele><time>2026-04-15T09:41:37.249Z</time></trkpt><trkpt lat="45.4359787" lon="12.1937777"><ele>-2.0</ele><time>2026-04-15T09:41:38.248Z</time></trkpt><trkpt lat="45.4358931" lon="12.1936405"><ele>-1.5</ele><time>2026-04-15T09:41:39.246Z</time></trkpt><trkpt lat="45.4358071" lon="12.1935011"><ele>-1.0</ele><time>2026-04-15T09:41:40.244Z</time></trkpt><trkpt lat="45.4357201" lon="12.1933536"><ele>-0.5</ele><time>2026-04-15T09:41:41.255Z</time></trkpt><trkpt lat="45.4356304" lon="12.1931972"><ele>0.0</ele><time>2026-04-15T09:41:42.257Z</time></trkpt><trkpt lat="45.435536" lon="12.1930352"><ele>-0.25</ele><time>2026-04-15T09:41:43.254Z</time></trkpt><trkpt lat="45.4354356" lon="12.1928755"><ele>-0.5</ele><time>2026-04-15T09:41:44.259Z</time></trkpt><trkpt lat="45.4353371" lon="12.1927215"><ele>-0.75</ele><time>2026-04-15T09:41:45.252Z</time></trkpt><trkpt lat="45.4352408" lon="12.1925728"><ele>-1.0</ele><time>2026-04-15T09:41:46.222Z</time></trkpt><trkpt lat="45.4351493" lon="12.1924216"><ele>-1.25</ele><time>2026-04-15T09:41:47.251Z</time></trkpt><trkpt lat="45.435061" lon="12.1922794"><ele>-1.5</ele><time>2026-04-15T09:41:48.249Z</time></trkpt><trkpt lat="45.4349731" lon="12.1921369"><ele>-1.75</ele><time>2026-04-15T09:41:49.217Z</time></trkpt><trkpt lat="45.4348831" lon="12.1919968"><ele>-2.0</ele><time>2026-04-15T09:41:50.248Z</time></trkpt><trkpt lat="45.4347961" lon="12.1918559"><ele>-2.0</ele><time>2026-04-15T09:41:51.23Z</time></trkpt><trkpt lat="45.4347061" lon="12.1917148"><ele>-2.0</ele><time>2026-04-15T09:41:52.254Z</time></trkpt><trkpt lat="45.4346159" lon="12.1915696"><ele>-2.0</ele><time>2026-04-15T09:41:53.237Z</time></trkpt><trkpt lat="45.4345321" lon="12.1914352"><ele>-2.0</ele><time>2026-04-15T09:41:54.245Z</time></trkpt><trkpt lat="45.4344541" lon="12.1913134"><ele>-1.6</ele><time>2026-04-15T09:41:55.234Z</time></trkpt><trkpt lat="45.4343825" lon="12.1912047"><ele>-1.2000000000000002</ele><time>2026-04-15T09:41:56.239Z</time></trkpt><trkpt lat="45.4343211" lon="12.1911063"><ele>-0.8</ele><time>2026-04-15T09:41:57.229Z</time></trkpt><trkpt lat="45.4342713" lon="12.1910258"><ele>-0.4</ele><time>2026-04-15T09:41:58.246Z</time></trkpt><trkpt lat="45.434226" lon="12.1909561"><ele>0.0</ele><time>2026-04-15T09:41:59.221Z</time></trkpt><trkpt lat="45.4341486" lon="12.1908282"><ele>0.0</ele><time>2026-04-15T09:42:01.235Z</time></trkpt><trkpt lat="45.4340763" lon="12.1907048"><ele>0.0</ele><time>2026-04-15T09:42:03.252Z</time></trkpt><trkpt lat="45.4340451" lon="12.1905723"><ele>0.0</ele><time>2026-04-15T09:42:05.217Z</time></trkpt><trkpt lat="45.4340396" lon="12.1903624"><ele>0.0</ele><time>2026-04-15T09:42:07.242Z</time></trkpt><trkpt lat="45.434043" lon="12.1901983"><ele>-0.4</ele><time>2026-04-15T09:42:08.237Z</time></trkpt><trkpt lat="45.4340445" lon="12.1900257"><ele>-0.8</ele><time>2026-04-15T09:42:09.221Z</time></trkpt><trkpt lat="45.4340307" lon="12.1898917"><ele>-1.2000000000000002</ele><time>2026-04-15T09:42:10.23Z</time></trkpt><trkpt lat="45.433988" lon="12.1897804"><ele>-1.6</ele><time>2026-04-15T09:42:11.231Z</time></trkpt><trkpt lat="45.4339323" lon="12.1897039"><ele>-2.0</ele><time>2026-04-15T09:42:12.252Z</time></trkpt><trkpt lat="45.4338612" lon="12.1896422"><ele>-2.0</ele><time>2026-04-15T09:42:13.241Z</time></trkpt><trkpt lat="45.4337585" lon="12.1895839"><ele>-2.0</ele><time>2026-04-15T09:42:14.229Z</time></trkpt><trkpt lat="45.433646" lon="12.1895481"><ele>-2.0</ele><time>2026-04-15T09:42:15.216Z</time></trkpt><trkpt lat="45.43352" lon="12.1895223"><ele>-2.0</ele><time>2026-04-15T09:42:16.238Z</time></trkpt><trkpt lat="45.4333811" lon="12.1894906"><ele>-2.0</ele><time>2026-04-15T09:42:17.252Z</time></trkpt><trkpt lat="45.4332536" lon="12.1894182"><ele>-2.0</ele><time>2026-04-15T09:42:18.23Z</time></trkpt><trkpt lat="45.433139" lon="12.1893174"><ele>-2.0</ele><time>2026-04-15T09:42:19.212Z</time></trkpt><trkpt lat="45.4330264" lon="12.1891977"><ele>-2.0</ele><time>2026-04-15T09:42:20.247Z</time></trkpt><trkpt lat="45.432924" lon="12.1890752"><ele>-1.75</ele><time>2026-04-15T09:42:21.229Z</time></trkpt><trkpt lat="45.4328384" lon="12.188954"><ele>-1.5</ele><time>2026-04-15T09:42:22.242Z</time></trkpt><trkpt lat="45.4327557" lon="12.1888292"><ele>-1.25</ele><time>2026-04-15T09:42:23.243Z</time></trkpt><trkpt lat="45.4326681" lon="12.1887078"><ele>-1.0</ele><time>2026-04-15T09:42:24.24Z</time></trkpt><trkpt lat="45.4325782" lon="12.1885823"><ele>-1.0</ele><time>2026-04-15T09:42:25.24Z</time></trkpt><trkpt lat="45.4324854" lon="12.1884505"><ele>-1.0</ele><time>2026-04-15T09:42:26.234Z</time></trkpt><trkpt lat="45.4323933" lon="12.188314"><ele>-1.0</ele><time>2026-04-15T09:42:27.225Z</time></trkpt><trkpt lat="45.4322974" lon="12.1881733"><ele>-1.0</ele><time>2026-04-15T09:42:28.239Z</time></trkpt><trkpt lat="45.4321964" lon="12.1880253"><ele>-1.25</ele><time>2026-04-15T09:42:29.248Z</time></trkpt><trkpt lat="45.4320983" lon="12.1878798"><ele>-1.5</ele><time>2026-04-15T09:42:30.239Z</time></trkpt><trkpt lat="45.4319965" lon="12.1877379"><ele>-1.75</ele><time>2026-04-15T09:42:31.252Z</time></trkpt><trkpt lat="45.4318893" lon="12.1875947"><ele>-2.0</ele><time>2026-04-15T09:42:32.253Z</time></trkpt><trkpt lat="45.4317815" lon="12.1874531"><ele>-2.25</ele><time>2026-04-15T09:42:33.234Z</time></trkpt><trkpt lat="45.4316795" lon="12.1873082"><ele>-2.5</ele><time>2026-04-15T09:42:34.247Z</time></trkpt><trkpt lat="45.4315826" lon="12.1871574"><ele>-2.75</ele><time>2026-04-15T09:42:35.257Z</time></trkpt><trkpt lat="45.4314821" lon="12.1870104"><ele>-3.0</ele><time>2026-04-15T09:42:36.235Z</time></trkpt><trkpt lat="45.4313812" lon="12.1868649"><ele>-3.0</ele><time>2026-04-15T09:42:37.25Z</time></trkpt><trkpt lat="45.4312822" lon="12.1867195"><ele>-3.0</ele><time>2026-04-15T09:42:38.238Z</time></trkpt><trkpt lat="45.4311822" lon="12.18657"><ele>-3.0</ele><time>2026-04-15T09:42:39.245Z</time></trkpt><trkpt lat="45.4310794" lon="12.1864142"><ele>-3.0</ele><time>2026-04-15T09:42:40.245Z</time></trkpt><trkpt lat="45.4309732" lon="12.186257"><ele>-3.0</ele><time>2026-04-15T09:42:41.204Z</time></trkpt><trkpt lat="45.4308642" lon="12.186102"><ele>-3.0</ele><time>2026-04-15T09:42:42.241Z</time></trkpt><trkpt lat="45.4307493" lon="12.1859385"><ele>-3.0</ele><time>2026-04-15T09:42:43.234Z</time></trkpt><trkpt lat="45.4306345" lon="12.1857748"><ele>-3.0</ele><time>2026-04-15T09:42:44.229Z</time></trkpt><trkpt lat="45.4305137" lon="12.1856061"><ele>-3.0</ele><time>2026-04-15T09:42:45.221Z</time></trkpt><trkpt lat="45.4303921" lon="12.1854375"><ele>-3.0</ele><time>2026-04-15T09:42:46.236Z</time></trkpt><trkpt lat="45.4302716" lon="12.185265"><ele>-3.0</ele><time>2026-04-15T09:42:47.224Z</time></trkpt><trkpt lat="45.4301508" lon="12.1850945"><ele>-3.0</ele><time>2026-04-15T09:42:48.221Z</time></trkpt><trkpt lat="45.4300328" lon="12.1849269"><ele>-3.0</ele><time>2026-04-15T09:42:49.249Z</time></trkpt><trkpt lat="45.4299157" lon="12.1847596"><ele>-3.0</ele><time>2026-04-15T09:42:50.25Z</time></trkpt><trkpt lat="45.4297958" lon="12.1845893"><ele>-3.0</ele><time>2026-04-15T09:42:51.24Z</time></trkpt><trkpt lat="45.429676" lon="12.1844213"><ele>-3.0</ele><time>2026-04-15T09:42:52.229Z</time></trkpt><trkpt lat="45.4295553" lon="12.1842592"><ele>-2.6666666666666665</ele><time>2026-04-15T09:42:53.237Z</time></trkpt><trkpt lat="45.4294313" lon="12.184089"><ele>-2.333333333333333</ele><time>2026-04-15T09:42:54.238Z</time></trkpt><trkpt lat="45.4293137" lon="12.1839174"><ele>-2.0</ele><time>2026-04-15T09:42:55.225Z</time></trkpt><trkpt lat="45.4291968" lon="12.1837417"><ele>-2.0</ele><time>2026-04-15T09:42:56.234Z</time></trkpt><trkpt lat="45.4290776" lon="12.1835718"><ele>-2.0</ele><time>2026-04-15T09:42:57.223Z</time></trkpt><trkpt lat="45.4289555" lon="12.1834039"><ele>-2.0</ele><time>2026-04-15T09:42:58.223Z</time></trkpt><trkpt lat="45.4288312" lon="12.1832388"><ele>-1.6666666666666665</ele><time>2026-04-15T09:42:59.233Z</time></trkpt><trkpt lat="45.428711" lon="12.1830709"><ele>-1.3333333333333333</ele><time>2026-04-15T09:43:00.231Z</time></trkpt><trkpt lat="45.4285915" lon="12.1828972"><ele>-1.0</ele><time>2026-04-15T09:43:01.224Z</time></trkpt><trkpt lat="45.4284728" lon="12.1827207"><ele>-1.0</ele><time>2026-04-15T09:43:02.231Z</time></trkpt><trkpt lat="45.4283514" lon="12.1825492"><ele>-1.0</ele><time>2026-04-15T09:43:03.234Z</time></trkpt><trkpt lat="45.4282273" lon="12.1823788"><ele>-1.0</ele><time>2026-04-15T09:43:04.229Z</time></trkpt><trkpt lat="45.4280985" lon="12.1821976"><ele>-1.3333333333333333</ele><time>2026-04-15T09:43:05.241Z</time></trkpt><trkpt lat="45.4279703" lon="12.1820142"><ele>-1.6666666666666665</ele><time>2026-04-15T09:43:06.251Z</time></trkpt><trkpt lat="45.4278429" lon="12.1818283"><ele>-2.0</ele><time>2026-04-15T09:43:07.24Z</time></trkpt><trkpt lat="45.4277124" lon="12.1816435"><ele>-2.0</ele><time>2026-04-15T09:43:08.25Z</time></trkpt><trkpt lat="45.4275856" lon="12.1814667"><ele>-2.0</ele><time>2026-04-15T09:43:09.203Z</time></trkpt><trkpt lat="45.4274692" lon="12.181287"><ele>-2.0</ele><time>2026-04-15T09:43:10.245Z</time></trkpt><trkpt lat="45.4273523" lon="12.1811067"><ele>-2.0</ele><time>2026-04-15T09:43:11.238Z</time></trkpt><trkpt lat="45.4272312" lon="12.1809315"><ele>-2.0</ele><time>2026-04-15T09:43:12.243Z</time></trkpt><trkpt lat="45.4271076" lon="12.1807522"><ele>-2.0</ele><time>2026-04-15T09:43:13.24Z</time></trkpt><trkpt lat="45.4269845" lon="12.1805715"><ele>-2.6666666666666665</ele><time>2026-04-15T09:43:14.231Z</time></trkpt><trkpt lat="45.4268576" lon="12.1803799"><ele>-3.333333333333333</ele><time>2026-04-15T09:43:15.232Z</time></trkpt><trkpt lat="45.4267215" lon="12.1801745"><ele>-4.0</ele><time>2026-04-15T09:43:16.24Z</time></trkpt><trkpt lat="45.4265866" lon="12.179968"><ele>-3.6666666666666665</ele><time>2026-04-15T09:43:17.224Z</time></trkpt><trkpt lat="45.4264591" lon="12.1797652"><ele>-3.333333333333333</ele><time>2026-04-15T09:43:18.234Z</time></trkpt><trkpt lat="45.4263352" lon="12.1795639"><ele>-3.0</ele><time>2026-04-15T09:43:19.233Z</time></trkpt><trkpt lat="45.426209" lon="12.1793677"><ele>-3.0</ele><time>2026-04-15T09:43:20.23Z</time></trkpt><trkpt lat="45.4260853" lon="12.1791715"><ele>-3.0</ele><time>2026-04-15T09:43:21.235Z</time></trkpt><trkpt lat="45.4259626" lon="12.1789793"><ele>-3.0</ele><time>2026-04-15T09:43:22.229Z</time></trkpt><trkpt lat="45.4258376" lon="12.1787916"><ele>-3.0</ele><time>2026-04-15T09:43:23.239Z</time></trkpt><trkpt lat="45.4257143" lon="12.1785969"><ele>-3.0</ele><time>2026-04-15T09:43:24.242Z</time></trkpt><trkpt lat="45.4255915" lon="12.1784031"><ele>-3.0</ele><time>2026-04-15T09:43:25.233Z</time></trkpt><trkpt lat="45.4254659" lon="12.1782124"><ele>-2.3333333333333335</ele><time>2026-04-15T09:43:26.24Z</time></trkpt><trkpt lat="45.4253437" lon="12.1780259"><ele>-1.6666666666666665</ele><time>2026-04-15T09:43:27.234Z</time></trkpt><trkpt lat="45.4252246" lon="12.1778399"><ele>-1.0</ele><time>2026-04-15T09:43:28.227Z</time></trkpt><trkpt lat="45.4251053" lon="12.1776532"><ele>-1.0</ele><time>2026-04-15T09:43:29.214Z</time></trkpt><trkpt lat="45.4249897" lon="12.1774671"><ele>-1.0</ele><time>2026-04-15T09:43:30.227Z</time></trkpt><trkpt lat="45.4248752" lon="12.1772794"><ele>-1.0</ele><time>2026-04-15T09:43:31.233Z</time></trkpt><trkpt lat="45.4247591" lon="12.1770954"><ele>-1.0</ele><time>2026-04-15T09:43:32.241Z</time></trkpt><trkpt lat="45.4246443" lon="12.1769133"><ele>-1.0</ele><time>2026-04-15T09:43:33.233Z</time></trkpt><trkpt lat="45.4245256" lon="12.176733"><ele>-1.0</ele><time>2026-04-15T09:43:34.234Z</time></trkpt><trkpt lat="45.4244071" lon="12.176549"><ele>-1.3333333333333333</ele><time>2026-04-15T09:43:35.23Z</time></trkpt><trkpt lat="45.4242902" lon="12.1763609"><ele>-1.6666666666666665</ele><time>2026-04-15T09:43:36.236Z</time></trkpt><trkpt lat="45.4241714" lon="12.1761729"><ele>-2.0</ele><time>2026-04-15T09:43:37.229Z</time></trkpt><trkpt lat="45.4240497" lon="12.1759856"><ele>-2.0</ele><time>2026-04-15T09:43:38.23Z</time></trkpt><trkpt lat="45.4239277" lon="12.1757963"><ele>-2.0</ele><time>2026-04-15T09:43:39.23Z</time></trkpt><trkpt lat="45.4238121" lon="12.1756074"><ele>-2.0</ele><time>2026-04-15T09:43:40.219Z</time></trkpt><trkpt lat="45.4236996" lon="12.1754189"><ele>-1.6666666666666665</ele><time>2026-04-15T09:43:41.223Z</time></trkpt><trkpt lat="45.4235829" lon="12.1752402"><ele>-1.3333333333333333</ele><time>2026-04-15T09:43:42.228Z</time></trkpt><trkpt lat="45.4234693" lon="12.1750604"><ele>-1.0</ele><time>2026-04-15T09:43:43.23Z</time></trkpt><trkpt lat="45.4233506" lon="12.1748837"><ele>-1.0</ele><time>2026-04-15T09:43:44.21Z</time></trkpt><trkpt lat="45.4232328" lon="12.1747035"><ele>-1.0</ele><time>2026-04-15T09:43:45.224Z</time></trkpt><trkpt lat="45.4231181" lon="12.1745172"><ele>-1.0</ele><time>2026-04-15T09:43:46.242Z</time></trkpt><trkpt lat="45.4230002" lon="12.1743309"><ele>0.0</ele><time>2026-04-15T09:43:47.236Z</time></trkpt><trkpt lat="45.4228816" lon="12.1741448"><ele>1.0</ele><time>2026-04-15T09:43:48.24Z</time></trkpt><trkpt lat="45.422762" lon="12.1739674"><ele>2.0</ele><time>2026-04-15T09:43:49.233Z</time></trkpt><trkpt lat="45.4226441" lon="12.1737984"><ele>2.333333333333333</ele><time>2026-04-15T09:43:50.236Z</time></trkpt><trkpt lat="45.4225274" lon="12.1736186"><ele>2.6666666666666665</ele><time>2026-04-15T09:43:51.229Z</time></trkpt><trkpt lat="45.4224144" lon="12.1734344"><ele>3.0</ele><time>2026-04-15T09:43:52.252Z</time></trkpt><trkpt lat="45.4222994" lon="12.1732493"><ele>2.6666666666666665</ele><time>2026-04-15T09:43:53.231Z</time></trkpt><trkpt lat="45.4221821" lon="12.1730645"><ele>2.333333333333333</ele><time>2026-04-15T09:43:54.231Z</time></trkpt><trkpt lat="45.422065" lon="12.1728772"><ele>2.0</ele><time>2026-04-15T09:43:55.221Z</time></trkpt><trkpt lat="45.4219475" lon="12.1726952"><ele>2.0</ele><time>2026-04-15T09:43:56.236Z</time></trkpt><trkpt lat="45.4218316" lon="12.1725178"><ele>2.0</ele><time>2026-04-15T09:43:57.216Z</time></trkpt><trkpt lat="45.4217158" lon="12.1723398"><ele>2.0</ele><time>2026-04-15T09:43:58.241Z</time></trkpt><trkpt lat="45.4216024" lon="12.1721584"><ele>2.0</ele><time>2026-04-15T09:43:59.236Z</time></trkpt><trkpt lat="45.4214869" lon="12.17198"><ele>2.0</ele><time>2026-04-15T09:44:00.261Z</time></trkpt><trkpt lat="45.4213698" lon="12.1717992"><ele>2.0</ele><time>2026-04-15T09:44:01.185Z</time></trkpt><trkpt lat="45.4212512" lon="12.1716157"><ele>2.0</ele><time>2026-04-15T09:44:02.207Z</time></trkpt><trkpt lat="45.4211312" lon="12.1714301"><ele>2.0</ele><time>2026-04-15T09:44:03.216Z</time></trkpt><trkpt lat="45.4210158" lon="12.1712441"><ele>2.0</ele><time>2026-04-15T09:44:04.199Z</time></trkpt><trkpt lat="45.4209006" lon="12.1710617"><ele>2.0</ele><time>2026-04-15T09:44:05.189Z</time></trkpt><trkpt lat="45.4207903" lon="12.1708915"><ele>2.0</ele><time>2026-04-15T09:44:06.208Z</time></trkpt><trkpt lat="45.4206826" lon="12.170728"><ele>2.0</ele><time>2026-04-15T09:44:07.208Z</time></trkpt><trkpt lat="45.4205746" lon="12.1705594"><ele>0.5</ele><time>2026-04-15T09:44:08.205Z</time></trkpt><trkpt lat="45.4203631" lon="12.1701973"><ele>-1.0</ele><time>2026-04-15T09:44:10.194Z</time></trkpt><trkpt lat="45.4202535" lon="12.1700117"><ele>0.0</ele><time>2026-04-15T09:44:11.217Z</time></trkpt><trkpt lat="45.4201418" lon="12.1698309"><ele>1.0</ele><time>2026-04-15T09:44:12.206Z</time></trkpt><trkpt lat="45.4199157" lon="12.1694795"><ele>1.0</ele><time>2026-04-15T09:44:14.205Z</time></trkpt><trkpt lat="45.419801" lon="12.1693022"><ele>1.0</ele><time>2026-04-15T09:44:15.245Z</time></trkpt><trkpt lat="45.4196881" lon="12.169123"><ele>1.0</ele><time>2026-04-15T09:44:16.245Z</time></trkpt><trkpt lat="45.4194534" lon="12.1687601"><ele>0.6666666666666666</ele><time>2026-04-15T09:44:18.207Z</time></trkpt><trkpt lat="45.4193331" lon="12.1685761"><ele>0.3333333333333333</ele><time>2026-04-15T09:44:19.207Z</time></trkpt><trkpt lat="45.419212" lon="12.1683934"><ele>0.0</ele><time>2026-04-15T09:44:20.212Z</time></trkpt><trkpt lat="45.419089" lon="12.1682106"><ele>-0.3333333333333333</ele><time>2026-04-15T09:44:21.203Z</time></trkpt><trkpt lat="45.4189659" lon="12.1680227"><ele>-0.6666666666666666</ele><time>2026-04-15T09:44:22.205Z</time></trkpt><trkpt lat="45.41885" lon="12.167836"><ele>-1.0</ele><time>2026-04-15T09:44:23.204Z</time></trkpt><trkpt lat="45.4187382" lon="12.1676544"><ele>-0.3333333333333333</ele><time>2026-04-15T09:44:24.203Z</time></trkpt><trkpt lat="45.4186256" lon="12.1674819"><ele>0.3333333333333333</ele><time>2026-04-15T09:44:25.206Z</time></trkpt><trkpt lat="45.418512" lon="12.1673086"><ele>1.0</ele><time>2026-04-15T09:44:26.192Z</time></trkpt><trkpt lat="45.4183959" lon="12.1671367"><ele>1.3333333333333333</ele><time>2026-04-15T09:44:27.198Z</time></trkpt><trkpt lat="45.4182773" lon="12.1669686"><ele>1.6666666666666665</ele><time>2026-04-15T09:44:28.201Z</time></trkpt><trkpt lat="45.4181561" lon="12.1667981"><ele>2.0</ele><time>2026-04-15T09:44:29.197Z</time></trkpt><trkpt lat="45.4180305" lon="12.1666272"><ele>1.3333333333333333</ele><time>2026-04-15T09:44:30.201Z</time></trkpt><trkpt lat="45.4179007" lon="12.1664594"><ele>0.6666666666666666</ele><time>2026-04-15T09:44:31.201Z</time></trkpt><trkpt lat="45.4177695" lon="12.1662918"><ele>0.0</ele><time>2026-04-15T09:44:32.207Z</time></trkpt><trkpt lat="45.4176341" lon="12.1661304"><ele>0.0</ele><time>2026-04-15T09:44:33.201Z</time></trkpt><trkpt lat="45.4174933" lon="12.1659697"><ele>0.0</ele><time>2026-04-15T09:44:34.2Z</time></trkpt><trkpt lat="45.4173521" lon="12.1658088"><ele>0.0</ele><time>2026-04-15T09:44:35.207Z</time></trkpt><trkpt lat="45.4172102" lon="12.1656487"><ele>-0.3333333333333333</ele><time>2026-04-15T09:44:36.204Z</time></trkpt><trkpt lat="45.4170677" lon="12.1654898"><ele>-0.6666666666666666</ele><time>2026-04-15T09:44:37.21Z</time></trkpt><trkpt lat="45.4169278" lon="12.1653321"><ele>-1.0</ele><time>2026-04-15T09:44:38.213Z</time></trkpt><trkpt lat="45.4167877" lon="12.1651708"><ele>-1.0</ele><time>2026-04-15T09:44:39.203Z</time></trkpt><trkpt lat="45.4166448" lon="12.1650094"><ele>-1.0</ele><time>2026-04-15T09:44:40.21Z</time></trkpt><trkpt lat="45.4165002" lon="12.1648488"><ele>-1.0</ele><time>2026-04-15T09:44:41.196Z</time></trkpt><trkpt lat="45.4163529" lon="12.1646893"><ele>-1.3333333333333333</ele><time>2026-04-15T09:44:42.21Z</time></trkpt><trkpt lat="45.4162088" lon="12.164522"><ele>-1.6666666666666665</ele><time>2026-04-15T09:44:43.223Z</time></trkpt><trkpt lat="45.416063" lon="12.1643501"><ele>-2.0</ele><time>2026-04-15T09:44:44.206Z</time></trkpt><trkpt lat="45.4159163" lon="12.164178"><ele>-2.0</ele><time>2026-04-15T09:44:45.205Z</time></trkpt><trkpt lat="45.4157654" lon="12.1640061"><ele>-2.0</ele><time>2026-04-15T09:44:46.203Z</time></trkpt><trkpt lat="45.4156142" lon="12.163839"><ele>-2.0</ele><time>2026-04-15T09:44:47.199Z</time></trkpt><trkpt lat="45.4154602" lon="12.1636727"><ele>-2.0</ele><time>2026-04-15T09:44:48.209Z</time></trkpt><trkpt lat="45.4153087" lon="12.1635031"><ele>-2.0</ele><time>2026-04-15T09:44:49.202Z</time></trkpt><trkpt lat="45.4151519" lon="12.1633354"><ele>-2.0</ele><time>2026-04-15T09:44:50.2Z</time></trkpt><trkpt lat="45.4149957" lon="12.1631662"><ele>-2.0</ele><time>2026-04-15T09:44:51.216Z</time></trkpt><trkpt lat="45.4148408" lon="12.1629932"><ele>-2.0</ele><time>2026-04-15T09:44:52.204Z</time></trkpt><trkpt lat="45.4146856" lon="12.1628194"><ele>-2.0</ele><time>2026-04-15T09:44:53.201Z</time></trkpt><trkpt lat="45.4145317" lon="12.1626473"><ele>-2.0</ele><time>2026-04-15T09:44:54.216Z</time></trkpt><trkpt lat="45.4143769" lon="12.162475"><ele>-2.0</ele><time>2026-04-15T09:44:55.22Z</time></trkpt><trkpt lat="45.4142203" lon="12.162295"><ele>-2.0</ele><time>2026-04-15T09:44:56.211Z</time></trkpt><trkpt lat="45.4140644" lon="12.1621113"><ele>-2.0</ele><time>2026-04-15T09:44:57.196Z</time></trkpt><trkpt lat="45.4139047" lon="12.1619273"><ele>-2.0</ele><time>2026-04-15T09:44:58.207Z</time></trkpt><trkpt lat="45.4137452" lon="12.1617478"><ele>-2.0</ele><time>2026-04-15T09:44:59.208Z</time></trkpt><trkpt lat="45.4135841" lon="12.1615678"><ele>-1.6666666666666665</ele><time>2026-04-15T09:45:00.202Z</time></trkpt><trkpt lat="45.4134217" lon="12.1613884"><ele>-1.3333333333333333</ele><time>2026-04-15T09:45:01.197Z</time></trkpt><trkpt lat="45.4132605" lon="12.1612073"><ele>-1.0</ele><time>2026-04-15T09:45:02.196Z</time></trkpt><trkpt lat="45.4130994" lon="12.1610296"><ele>-0.6666666666666666</ele><time>2026-04-15T09:45:03.198Z</time></trkpt><trkpt lat="45.4129404" lon="12.1608571"><ele>-0.3333333333333333</ele><time>2026-04-15T09:45:04.21Z</time></trkpt><trkpt lat="45.4127787" lon="12.160679"><ele>0.0</ele><time>2026-04-15T09:45:05.215Z</time></trkpt><trkpt lat="45.4126185" lon="12.1604981"><ele>0.3333333333333333</ele><time>2026-04-15T09:45:06.198Z</time></trkpt><trkpt lat="45.412459" lon="12.1603254"><ele>0.6666666666666666</ele><time>2026-04-15T09:45:07.198Z</time></trkpt><trkpt lat="45.4123038" lon="12.1601617"><ele>1.0</ele><time>2026-04-15T09:45:08.207Z</time></trkpt><trkpt lat="45.4121475" lon="12.1599982"><ele>0.6666666666666666</ele><time>2026-04-15T09:45:09.201Z</time></trkpt><trkpt lat="45.4119969" lon="12.1598325"><ele>0.3333333333333333</ele><time>2026-04-15T09:45:10.198Z</time></trkpt><trkpt lat="45.4118469" lon="12.159664"><ele>0.0</ele><time>2026-04-15T09:45:11.193Z</time></trkpt><trkpt lat="45.4116968" lon="12.1594965"><ele>0.0</ele><time>2026-04-15T09:45:12.201Z</time></trkpt><trkpt lat="45.4115505" lon="12.1593286"><ele>0.0</ele><time>2026-04-15T09:45:13.193Z</time></trkpt><trkpt lat="45.4114043" lon="12.1591653"><ele>0.0</ele><time>2026-04-15T09:45:14.209Z</time></trkpt><trkpt lat="45.4112632" lon="12.1590051"><ele>-0.6666666666666666</ele><time>2026-04-15T09:45:15.208Z</time></trkpt><trkpt lat="45.4111233" lon="12.1588473"><ele>-1.3333333333333333</ele><time>2026-04-15T09:45:16.194Z</time></trkpt><trkpt lat="45.4109852" lon="12.1586878"><ele>-2.0</ele><time>2026-04-15T09:45:17.198Z</time></trkpt><trkpt lat="45.410848" lon="12.1585317"><ele>-2.0</ele><time>2026-04-15T09:45:18.21Z</time></trkpt><trkpt lat="45.4107091" lon="12.1583718"><ele>-2.0</ele><time>2026-04-15T09:45:19.194Z</time></trkpt><trkpt lat="45.4105694" lon="12.1582119"><ele>-2.0</ele><time>2026-04-15T09:45:20.208Z</time></trkpt><trkpt lat="45.410431" lon="12.1580518"><ele>-2.333333333333333</ele><time>2026-04-15T09:45:21.207Z</time></trkpt><trkpt lat="45.4102865" lon="12.1578943"><ele>-2.6666666666666665</ele><time>2026-04-15T09:45:22.206Z</time></trkpt><trkpt lat="45.410144" lon="12.1577376"><ele>-3.0</ele><time>2026-04-15T09:45:23.209Z</time></trkpt><trkpt lat="45.4099973" lon="12.1575725"><ele>-3.0</ele><time>2026-04-15T09:45:24.206Z</time></trkpt><trkpt lat="45.4098521" lon="12.1574102"><ele>-3.0</ele><time>2026-04-15T09:45:25.19Z</time></trkpt><trkpt lat="45.409704" lon="12.1572435"><ele>-3.0</ele><time>2026-04-15T09:45:26.219Z</time></trkpt><trkpt lat="45.4095576" lon="12.1570773"><ele>-2.6666666666666665</ele><time>2026-04-15T09:45:27.216Z</time></trkpt><trkpt lat="45.4094085" lon="12.1569068"><ele>-2.333333333333333</ele><time>2026-04-15T09:45:28.21Z</time></trkpt><trkpt lat="45.4092558" lon="12.1567394"><ele>-2.0</ele><time>2026-04-15T09:45:29.194Z</time></trkpt><trkpt lat="45.4091027" lon="12.1565672"><ele>-1.6666666666666665</ele><time>2026-04-15T09:45:30.199Z</time></trkpt><trkpt lat="45.4089485" lon="12.1563933"><ele>-1.3333333333333333</ele><time>2026-04-15T09:45:31.198Z</time></trkpt><trkpt lat="45.4087949" lon="12.1562259"><ele>-1.0</ele><time>2026-04-15T09:45:32.184Z</time></trkpt><trkpt lat="45.4086467" lon="12.1560588"><ele>-1.0</ele><time>2026-04-15T09:45:33.212Z</time></trkpt><trkpt lat="45.4085002" lon="12.1558967"><ele>-1.0</ele><time>2026-04-15T09:45:34.198Z</time></trkpt><trkpt lat="45.4083612" lon="12.1557411"><ele>-1.0</ele><time>2026-04-15T09:45:35.22Z</time></trkpt><trkpt lat="45.4082206" lon="12.1555862"><ele>-1.0</ele><time>2026-04-15T09:45:36.197Z</time></trkpt><trkpt lat="45.4080738" lon="12.1554259"><ele>-1.0</ele><time>2026-04-15T09:45:37.204Z</time></trkpt><trkpt lat="45.4079015" lon="12.1552438"><ele>-1.0</ele><time>2026-04-15T09:45:38.205Z</time></trkpt><trkpt lat="45.4076954" lon="12.1550194"><ele>-2.0</ele><time>2026-04-15T09:45:39.218Z</time></trkpt><trkpt lat="45.4074844" lon="12.1547931"><ele>-3.0</ele><time>2026-04-15T09:45:40.193Z</time></trkpt><trkpt lat="45.4072967" lon="12.1545775"><ele>-3.0</ele><time>2026-04-15T09:45:41.212Z</time></trkpt><trkpt lat="45.4071333" lon="12.1543847"><ele>-3.0</ele><time>2026-04-15T09:45:42.197Z</time></trkpt><trkpt lat="45.4069768" lon="12.154207"><ele>-3.0</ele><time>2026-04-15T09:45:43.21Z</time></trkpt><trkpt lat="45.4068364" lon="12.1540376"><ele>-3.0</ele><time>2026-04-15T09:45:44.199Z</time></trkpt><trkpt lat="45.4067099" lon="12.1538868"><ele>-3.0</ele><time>2026-04-15T09:45:45.199Z</time></trkpt><trkpt lat="45.406583" lon="12.1537485"><ele>-3.0</ele><time>2026-04-15T09:45:46.21Z</time></trkpt><trkpt lat="45.4064562" lon="12.1536039"><ele>-2.3333333333333335</ele><time>2026-04-15T09:45:47.216Z</time></trkpt><trkpt lat="45.4063204" lon="12.1534592"><ele>-1.6666666666666665</ele><time>2026-04-15T09:45:48.221Z</time></trkpt><trkpt lat="45.4061614" lon="12.1532947"><ele>-1.0</ele><time>2026-04-15T09:45:49.196Z</time></trkpt><trkpt lat="45.4059627" lon="12.1531061"><ele>-1.0</ele><time>2026-04-15T09:45:50.186Z</time></trkpt><trkpt lat="45.4057597" lon="12.1528922"><ele>-1.0</ele><time>2026-04-15T09:45:51.216Z</time></trkpt><trkpt lat="45.4055595" lon="12.1526607"><ele>0.0</ele><time>2026-04-15T09:45:52.198Z</time></trkpt><trkpt lat="45.4053816" lon="12.1524362"><ele>1.0</ele><time>2026-04-15T09:45:53.211Z</time></trkpt><trkpt lat="45.4052192" lon="12.152233"><ele>1.3333333333333333</ele><time>2026-04-15T09:45:54.203Z</time></trkpt><trkpt lat="45.4050571" lon="12.1520423"><ele>1.6666666666666665</ele><time>2026-04-15T09:45:55.195Z</time></trkpt><trkpt lat="45.4049013" lon="12.1518662"><ele>2.0</ele><time>2026-04-15T09:45:56.213Z</time></trkpt><trkpt lat="45.4047507" lon="12.1516942"><ele>2.333333333333333</ele><time>2026-04-15T09:45:57.208Z</time></trkpt><trkpt lat="45.4046068" lon="12.1515289"><ele>2.6666666666666665</ele><time>2026-04-15T09:45:58.207Z</time></trkpt><trkpt lat="45.4044671" lon="12.1513663"><ele>3.0</ele><time>2026-04-15T09:45:59.216Z</time></trkpt><trkpt lat="45.4043305" lon="12.1512081"><ele>3.0</ele><time>2026-04-15T09:46:00.208Z</time></trkpt><trkpt lat="45.4041951" lon="12.1510537"><ele>3.0</ele><time>2026-04-15T09:46:01.206Z</time></trkpt><trkpt lat="45.4040607" lon="12.1509001"><ele>3.0</ele><time>2026-04-15T09:46:02.2Z</time></trkpt><trkpt lat="45.4039244" lon="12.1507475"><ele>1.6666666666666667</ele><time>2026-04-15T09:46:03.209Z</time></trkpt><trkpt lat="45.4037885" lon="12.15059"><ele>0.33333333333333337</ele><time>2026-04-15T09:46:04.21Z</time></trkpt><trkpt lat="45.4036512" lon="12.1504332"><ele>-1.0</ele><time>2026-04-15T09:46:05.213Z</time></trkpt><trkpt lat="45.4035138" lon="12.1502746"><ele>-1.0</ele><time>2026-04-15T09:46:06.22Z</time></trkpt><trkpt lat="45.4033751" lon="12.1501202"><ele>-1.0</ele><time>2026-04-15T09:46:07.209Z</time></trkpt><trkpt lat="45.4032339" lon="12.1499624"><ele>-1.0</ele><time>2026-04-15T09:46:08.217Z</time></trkpt><trkpt lat="45.4030942" lon="12.1498059"><ele>-0.6666666666666666</ele><time>2026-04-15T09:46:09.185Z</time></trkpt><trkpt lat="45.4029538" lon="12.1496491"><ele>-0.3333333333333333</ele><time>2026-04-15T09:46:10.208Z</time></trkpt><trkpt lat="45.4028128" lon="12.1494873"><ele>0.0</ele><time>2026-04-15T09:46:11.199Z</time></trkpt><trkpt lat="45.4026699" lon="12.1493253"><ele>0.0</ele><time>2026-04-15T09:46:12.199Z</time></trkpt><trkpt lat="45.4025282" lon="12.1491649"><ele>0.0</ele><time>2026-04-15T09:46:13.212Z</time></trkpt><trkpt lat="45.4023882" lon="12.1490136"><ele>0.0</ele><time>2026-04-15T09:46:14.21Z</time></trkpt><trkpt lat="45.4022539" lon="12.1488645"><ele>0.3333333333333333</ele><time>2026-04-15T09:46:15.202Z</time></trkpt><trkpt lat="45.402126" lon="12.1487174"><ele>0.6666666666666666</ele><time>2026-04-15T09:46:16.207Z</time></trkpt><trkpt lat="45.4020023" lon="12.1485756"><ele>1.0</ele><time>2026-04-15T09:46:17.187Z</time></trkpt><trkpt lat="45.4018833" lon="12.1484405"><ele>1.0</ele><time>2026-04-15T09:46:18.214Z</time></trkpt><trkpt lat="45.4017719" lon="12.1483097"><ele>1.0</ele><time>2026-04-15T09:46:19.203Z</time></trkpt><trkpt lat="45.4016619" lon="12.1481847"><ele>1.0</ele><time>2026-04-15T09:46:20.207Z</time></trkpt><trkpt lat="45.4015475" lon="12.1480623"><ele>1.0</ele><time>2026-04-15T09:46:21.201Z</time></trkpt><trkpt lat="45.4014394" lon="12.1479302"><ele>0.75</ele><time>2026-04-15T09:46:22.201Z</time></trkpt><trkpt lat="45.4013335" lon="12.1478012"><ele>0.5</ele><time>2026-04-15T09:46:23.197Z</time></trkpt><trkpt lat="45.4012303" lon="12.1476797"><ele>0.25</ele><time>2026-04-15T09:46:24.199Z</time></trkpt><trkpt lat="45.4011235" lon="12.1475658"><ele>0.0</ele><time>2026-04-15T09:46:25.201Z</time></trkpt><trkpt lat="45.4010071" lon="12.1474479"><ele>0.3333333333333333</ele><time>2026-04-15T09:46:26.193Z</time></trkpt><trkpt lat="45.4008889" lon="12.1473018"><ele>0.6666666666666666</ele><time>2026-04-15T09:46:27.202Z</time></trkpt><trkpt lat="45.4007659" lon="12.1471561"><ele>1.0</ele><time>2026-04-15T09:46:28.196Z</time></trkpt><trkpt lat="45.4006298" lon="12.147018"><ele>1.0</ele><time>2026-04-15T09:46:29.184Z</time></trkpt><trkpt lat="45.4005014" lon="12.1468739"><ele>1.0</ele><time>2026-04-15T09:46:30.198Z</time></trkpt><trkpt lat="45.4003717" lon="12.1467393"><ele>1.0</ele><time>2026-04-15T09:46:31.195Z</time></trkpt><trkpt lat="45.4002444" lon="12.1466127"><ele>0.6666666666666666</ele><time>2026-04-15T09:46:32.197Z</time></trkpt><trkpt lat="45.4001191" lon="12.1464832"><ele>0.3333333333333333</ele><time>2026-04-15T09:46:33.192Z</time></trkpt><trkpt lat="45.3999965" lon="12.1463517"><ele>0.0</ele><time>2026-04-15T09:46:34.191Z</time></trkpt><trkpt lat="45.3998716" lon="12.1462197"><ele>0.0</ele><time>2026-04-15T09:46:35.204Z</time></trkpt><trkpt lat="45.3997418" lon="12.146078"><ele>0.0</ele><time>2026-04-15T09:46:36.199Z</time></trkpt><trkpt lat="45.3996" lon="12.1459225"><ele>0.0</ele><time>2026-04-15T09:46:37.195Z</time></trkpt><trkpt lat="45.3994548" lon="12.1457613"><ele>0.0</ele><time>2026-04-15T09:46:38.208Z</time></trkpt><trkpt lat="45.399305" lon="12.1456024"><ele>0.0</ele><time>2026-04-15T09:46:39.205Z</time></trkpt><trkpt lat="45.3991477" lon="12.1454383"><ele>0.0</ele><time>2026-04-15T09:46:40.197Z</time></trkpt><trkpt lat="45.39897" lon="12.1452528"><ele>-1.0</ele><time>2026-04-15T09:46:41.2Z</time></trkpt><trkpt lat="45.3987782" lon="12.1450136"><ele>-2.0</ele><time>2026-04-15T09:46:42.211Z</time></trkpt><trkpt lat="45.3985847" lon="12.1447529"><ele>-2.0</ele><time>2026-04-15T09:46:43.208Z</time></trkpt><trkpt lat="45.3983744" lon="12.144515"><ele>-2.0</ele><time>2026-04-15T09:46:44.191Z</time></trkpt><trkpt lat="45.3981616" lon="12.1442853"><ele>-1.5</ele><time>2026-04-15T09:46:45.191Z</time></trkpt><trkpt lat="45.3979603" lon="12.1440679"><ele>-1.0</ele><time>2026-04-15T09:46:46.202Z</time></trkpt><trkpt lat="45.3977771" lon="12.1438658"><ele>-1.0</ele><time>2026-04-15T09:46:47.198Z</time></trkpt><trkpt lat="45.3975999" lon="12.1436633"><ele>-1.0</ele><time>2026-04-15T09:46:48.198Z</time></trkpt><trkpt lat="45.3974184" lon="12.1434705"><ele>-1.0</ele><time>2026-04-15T09:46:49.198Z</time></trkpt><trkpt lat="45.3972362" lon="12.1432756"><ele>-1.0</ele><time>2026-04-15T09:46:50.193Z</time></trkpt><trkpt lat="45.3970638" lon="12.1430825"><ele>-1.0</ele><time>2026-04-15T09:46:51.21Z</time></trkpt><trkpt lat="45.3968753" lon="12.1428785"><ele>-1.5</ele><time>2026-04-15T09:46:52.205Z</time></trkpt><trkpt lat="45.3966708" lon="12.1426648"><ele>-2.0</ele><time>2026-04-15T09:46:53.208Z</time></trkpt><trkpt lat="45.3964626" lon="12.1424397"><ele>-1.5</ele><time>2026-04-15T09:46:54.209Z</time></trkpt><trkpt lat="45.3962672" lon="12.1422052"><ele>-1.0</ele><time>2026-04-15T09:46:55.193Z</time></trkpt><trkpt lat="45.3960949" lon="12.14197"><ele>-1.0</ele><time>2026-04-15T09:46:56.192Z</time></trkpt><trkpt lat="45.3959233" lon="12.1417613"><ele>-1.0</ele><time>2026-04-15T09:46:57.199Z</time></trkpt><trkpt lat="45.3957476" lon="12.1415725"><ele>-1.0</ele><time>2026-04-15T09:46:58.202Z</time></trkpt><trkpt lat="45.3955753" lon="12.1414027"><ele>-1.0</ele><time>2026-04-15T09:46:59.206Z</time></trkpt><trkpt lat="45.3954143" lon="12.1412579"><ele>-1.0</ele><time>2026-04-15T09:47:00.197Z</time></trkpt><trkpt lat="45.395253" lon="12.1411233"><ele>-1.0</ele><time>2026-04-15T09:47:01.198Z</time></trkpt><trkpt lat="45.3951025" lon="12.140991"><ele>-1.0</ele><time>2026-04-15T09:47:02.195Z</time></trkpt><trkpt lat="45.3949534" lon="12.1408746"><ele>-1.0</ele><time>2026-04-15T09:47:03.197Z</time></trkpt><trkpt lat="45.3947992" lon="12.1407626"><ele>-1.0</ele><time>2026-04-15T09:47:04.207Z</time></trkpt><trkpt lat="45.3946421" lon="12.1406598"><ele>0.0</ele><time>2026-04-15T09:47:05.205Z</time></trkpt><trkpt lat="45.3944839" lon="12.1405644"><ele>1.0</ele><time>2026-04-15T09:47:06.197Z</time></trkpt><trkpt lat="45.3943231" lon="12.1404729"><ele>2.0</ele><time>2026-04-15T09:47:07.202Z</time></trkpt><trkpt lat="45.3941634" lon="12.1403846"><ele>2.0</ele><time>2026-04-15T09:47:08.199Z</time></trkpt><trkpt lat="45.3940032" lon="12.140304"><ele>2.0</ele><time>2026-04-15T09:47:09.195Z</time></trkpt><trkpt lat="45.3938407" lon="12.1402368"><ele>2.0</ele><time>2026-04-15T09:47:10.191Z</time></trkpt><trkpt lat="45.3936766" lon="12.1401785"><ele>1.3333333333333333</ele><time>2026-04-15T09:47:11.214Z</time></trkpt><trkpt lat="45.3935108" lon="12.140121"><ele>0.6666666666666666</ele><time>2026-04-15T09:47:12.207Z</time></trkpt><trkpt lat="45.3933424" lon="12.1400649"><ele>0.0</ele><time>2026-04-15T09:47:13.197Z</time></trkpt><trkpt lat="45.3931677" lon="12.1400286"><ele>-0.3333333333333333</ele><time>2026-04-15T09:47:14.196Z</time></trkpt><trkpt lat="45.3929912" lon="12.1399989"><ele>-0.6666666666666666</ele><time>2026-04-15T09:47:15.207Z</time></trkpt><trkpt lat="45.3928182" lon="12.1399845"><ele>-1.0</ele><time>2026-04-15T09:47:16.199Z</time></trkpt><trkpt lat="45.3926424" lon="12.139969"><ele>-1.0</ele><time>2026-04-15T09:47:17.207Z</time></trkpt><trkpt lat="45.3924695" lon="12.1399461"><ele>-1.0</ele><time>2026-04-15T09:47:18.209Z</time></trkpt><trkpt lat="45.3922903" lon="12.1399279"><ele>-1.0</ele><time>2026-04-15T09:47:19.197Z</time></trkpt><trkpt lat="45.3921006" lon="12.1399103"><ele>-1.3333333333333333</ele><time>2026-04-15T09:47:20.211Z</time></trkpt><trkpt lat="45.3919126" lon="12.1398987"><ele>-1.6666666666666665</ele><time>2026-04-15T09:47:21.193Z</time></trkpt><trkpt lat="45.3917263" lon="12.1398835"><ele>-2.0</ele><time>2026-04-15T09:47:22.194Z</time></trkpt><trkpt lat="45.3915461" lon="12.1398676"><ele>-2.333333333333333</ele><time>2026-04-15T09:47:23.184Z</time></trkpt><trkpt lat="45.3913734" lon="12.1398521"><ele>-2.6666666666666665</ele><time>2026-04-15T09:47:24.198Z</time></trkpt><trkpt lat="45.3911895" lon="12.1398405"><ele>-3.0</ele><time>2026-04-15T09:47:25.182Z</time></trkpt><trkpt lat="45.3909817" lon="12.1398315"><ele>-2.3333333333333335</ele><time>2026-04-15T09:47:26.203Z</time></trkpt><trkpt lat="45.3907629" lon="12.1398193"><ele>-1.6666666666666665</ele><time>2026-04-15T09:47:27.195Z</time></trkpt><trkpt lat="45.3905563" lon="12.1397973"><ele>-1.0</ele><time>2026-04-15T09:47:28.179Z</time></trkpt><trkpt lat="45.3903614" lon="12.1397739"><ele>-0.6666666666666666</ele><time>2026-04-15T09:47:29.198Z</time></trkpt><trkpt lat="45.3901811" lon="12.1397555"><ele>-0.3333333333333333</ele><time>2026-04-15T09:47:30.2Z</time></trkpt><trkpt lat="45.3900058" lon="12.1397383"><ele>0.0</ele><time>2026-04-15T09:47:31.203Z</time></trkpt><trkpt lat="45.3898316" lon="12.1397218"><ele>0.0</ele><time>2026-04-15T09:47:32.201Z</time></trkpt><trkpt lat="45.3896605" lon="12.1397013"><ele>0.0</ele><time>2026-04-15T09:47:33.205Z</time></trkpt><trkpt lat="45.3894895" lon="12.1396876"><ele>0.0</ele><time>2026-04-15T09:47:34.196Z</time></trkpt><trkpt lat="45.3893192" lon="12.1396781"><ele>0.0</ele><time>2026-04-15T09:47:35.202Z</time></trkpt><trkpt lat="45.3891488" lon="12.1396633"><ele>0.0</ele><time>2026-04-15T09:47:36.212Z</time></trkpt><trkpt lat="45.3889829" lon="12.1396457"><ele>0.0</ele><time>2026-04-15T09:47:37.202Z</time></trkpt><trkpt lat="45.3888183" lon="12.1396323"><ele>-0.3333333333333333</ele><time>2026-04-15T09:47:38.209Z</time></trkpt><trkpt lat="45.3886568" lon="12.1396171"><ele>-0.6666666666666666</ele><time>2026-04-15T09:47:39.211Z</time></trkpt><trkpt lat="45.3884887" lon="12.1396047"><ele>-1.0</ele><time>2026-04-15T09:47:40.2Z</time></trkpt><trkpt lat="45.3883202" lon="12.139589"><ele>-1.0</ele><time>2026-04-15T09:47:41.209Z</time></trkpt><trkpt lat="45.3881431" lon="12.1395794"><ele>-1.0</ele><time>2026-04-15T09:47:42.198Z</time></trkpt><trkpt lat="45.3879565" lon="12.1395648"><ele>-1.0</ele><time>2026-04-15T09:47:43.211Z</time></trkpt><trkpt lat="45.3877736" lon="12.139548"><ele>-1.0</ele><time>2026-04-15T09:47:44.194Z</time></trkpt><trkpt lat="45.3875896" lon="12.1395348"><ele>-1.0</ele><time>2026-04-15T09:47:45.196Z</time></trkpt><trkpt lat="45.3874104" lon="12.1395209"><ele>-1.0</ele><time>2026-04-15T09:47:46.193Z</time></trkpt><trkpt lat="45.3872283" lon="12.1395099"><ele>-1.3333333333333333</ele><time>2026-04-15T09:47:47.196Z</time></trkpt><trkpt lat="45.3870506" lon="12.1394975"><ele>-1.6666666666666665</ele><time>2026-04-15T09:47:48.194Z</time></trkpt><trkpt lat="45.386875" lon="12.1394853"><ele>-2.0</ele><time>2026-04-15T09:47:49.2Z</time></trkpt><trkpt lat="45.3866962" lon="12.139473"><ele>-2.0</ele><time>2026-04-15T09:47:50.185Z</time></trkpt><trkpt lat="45.3865206" lon="12.139456"><ele>-2.0</ele><time>2026-04-15T09:47:51.2Z</time></trkpt><trkpt lat="45.3863414" lon="12.13944"><ele>-2.0</ele><time>2026-04-15T09:47:52.2Z</time></trkpt><trkpt lat="45.3861616" lon="12.1394231"><ele>-1.3333333333333333</ele><time>2026-04-15T09:47:53.192Z</time></trkpt><trkpt lat="45.3859654" lon="12.1394066"><ele>-0.6666666666666666</ele><time>2026-04-15T09:47:54.207Z</time></trkpt><trkpt lat="45.3857471" lon="12.1394041"><ele>0.0</ele><time>2026-04-15T09:47:55.191Z</time></trkpt><trkpt lat="45.3855114" lon="12.1393859"><ele>0.5</ele><time>2026-04-15T09:47:56.207Z</time></trkpt><trkpt lat="45.3852807" lon="12.139345"><ele>1.0</ele><time>2026-04-15T09:47:57.204Z</time></trkpt><trkpt lat="45.3850586" lon="12.1393036"><ele>1.0</ele><time>2026-04-15T09:47:58.197Z</time></trkpt><trkpt lat="45.3848483" lon="12.1392946"><ele>1.0</ele><time>2026-04-15T09:47:59.194Z</time></trkpt><trkpt lat="45.3846448" lon="12.1392827"><ele>1.0</ele><time>2026-04-15T09:48:00.183Z</time></trkpt><trkpt lat="45.3844404" lon="12.1392653"><ele>1.3333333333333333</ele><time>2026-04-15T09:48:01.184Z</time></trkpt><trkpt lat="45.3842365" lon="12.1392419"><ele>1.6666666666666665</ele><time>2026-04-15T09:48:02.197Z</time></trkpt><trkpt lat="45.3840363" lon="12.1392211"><ele>2.0</ele><time>2026-04-15T09:48:03.206Z</time></trkpt><trkpt lat="45.3838345" lon="12.1392048"><ele>1.3333333333333333</ele><time>2026-04-15T09:48:04.198Z</time></trkpt><trkpt lat="45.3836322" lon="12.1391879"><ele>0.6666666666666666</ele><time>2026-04-15T09:48:05.214Z</time></trkpt><trkpt lat="45.3834248" lon="12.1391765"><ele>0.0</ele><time>2026-04-15T09:48:06.196Z</time></trkpt><trkpt lat="45.3832176" lon="12.1391669"><ele>-0.3333333333333333</ele><time>2026-04-15T09:48:07.195Z</time></trkpt><trkpt lat="45.3830099" lon="12.1391574"><ele>-0.6666666666666666</ele><time>2026-04-15T09:48:08.199Z</time></trkpt><trkpt lat="45.3828023" lon="12.1391376"><ele>-1.0</ele><time>2026-04-15T09:48:09.195Z</time></trkpt><trkpt lat="45.3825973" lon="12.1391207"><ele>-1.0</ele><time>2026-04-15T09:48:10.192Z</time></trkpt><trkpt lat="45.3823926" lon="12.1391064"><ele>-1.0</ele><time>2026-04-15T09:48:11.197Z</time></trkpt><trkpt lat="45.3821853" lon="12.1390964"><ele>-1.0</ele><time>2026-04-15T09:48:12.194Z</time></trkpt><trkpt lat="45.3819842" lon="12.1390761"><ele>-0.6666666666666666</ele><time>2026-04-15T09:48:13.195Z</time></trkpt><trkpt lat="45.3817848" lon="12.1390547"><ele>-0.3333333333333333</ele><time>2026-04-15T09:48:14.179Z</time></trkpt><trkpt lat="45.3815869" lon="12.1390352"><ele>0.0</ele><time>2026-04-15T09:48:15.198Z</time></trkpt><trkpt lat="45.3813867" lon="12.1390173"><ele>-0.3333333333333333</ele><time>2026-04-15T09:48:16.193Z</time></trkpt><trkpt lat="45.3811862" lon="12.1389998"><ele>-0.6666666666666666</ele><time>2026-04-15T09:48:17.199Z</time></trkpt><trkpt lat="45.3809866" lon="12.1389845"><ele>-1.0</ele><time>2026-04-15T09:48:18.188Z</time></trkpt><trkpt lat="45.3807885" lon="12.1389671"><ele>-1.0</ele><time>2026-04-15T09:48:19.214Z</time></trkpt><trkpt lat="45.3805919" lon="12.1389506"><ele>-1.0</ele><time>2026-04-15T09:48:20.214Z</time></trkpt><trkpt lat="45.3803908" lon="12.1389345"><ele>-1.0</ele><time>2026-04-15T09:48:21.196Z</time></trkpt><trkpt lat="45.3801952" lon="12.1389156"><ele>-1.0</ele><time>2026-04-15T09:48:22.205Z</time></trkpt><trkpt lat="45.3799954" lon="12.1388972"><ele>-1.0</ele><time>2026-04-15T09:48:23.222Z</time></trkpt><trkpt lat="45.379794" lon="12.1388828"><ele>-1.0</ele><time>2026-04-15T09:48:24.199Z</time></trkpt><trkpt lat="45.3795893" lon="12.1388799"><ele>-1.0</ele><time>2026-04-15T09:48:25.203Z</time></trkpt><trkpt lat="45.3793859" lon="12.1388757"><ele>-1.0</ele><time>2026-04-15T09:48:26.199Z</time></trkpt><trkpt lat="45.3791845" lon="12.1388394"><ele>-1.0</ele><time>2026-04-15T09:48:27.207Z</time></trkpt><trkpt lat="45.3789788" lon="12.1388099"><ele>-1.6666666666666665</ele><time>2026-04-15T09:48:28.203Z</time></trkpt><trkpt lat="45.3787734" lon="12.1388122"><ele>-2.3333333333333335</ele><time>2026-04-15T09:48:29.191Z</time></trkpt><trkpt lat="45.3785708" lon="12.1387922"><ele>-3.0</ele><time>2026-04-15T09:48:30.209Z</time></trkpt><trkpt lat="45.378371" lon="12.1387668"><ele>-3.0</ele><time>2026-04-15T09:48:31.216Z</time></trkpt><trkpt lat="45.3781758" lon="12.1387664"><ele>-3.0</ele><time>2026-04-15T09:48:32.195Z</time></trkpt><trkpt lat="45.3779805" lon="12.1387459"><ele>-3.0</ele><time>2026-04-15T09:48:33.202Z</time></trkpt><trkpt lat="45.3777857" lon="12.1387003"><ele>-2.0</ele><time>2026-04-15T09:48:34.199Z</time></trkpt><trkpt lat="45.3775921" lon="12.1386914"><ele>-1.0</ele><time>2026-04-15T09:48:35.206Z</time></trkpt><trkpt lat="45.3774004" lon="12.1386852"><ele>0.0</ele><time>2026-04-15T09:48:36.199Z</time></trkpt><trkpt lat="45.377209" lon="12.1386597"><ele>-0.3333333333333333</ele><time>2026-04-15T09:48:37.191Z</time></trkpt><trkpt lat="45.3770134" lon="12.1386598"><ele>-0.6666666666666666</ele><time>2026-04-15T09:48:38.196Z</time></trkpt><trkpt lat="45.376815" lon="12.1386442"><ele>-1.0</ele><time>2026-04-15T09:48:39.204Z</time></trkpt><trkpt lat="45.3766272" lon="12.1386065"><ele>-1.0</ele><time>2026-04-15T09:48:40.201Z</time></trkpt><trkpt lat="45.3764421" lon="12.1386024"><ele>-1.0</ele><time>2026-04-15T09:48:41.205Z</time></trkpt><trkpt lat="45.3762497" lon="12.1385889"><ele>-1.0</ele><time>2026-04-15T09:48:42.211Z</time></trkpt><trkpt lat="45.3760633" lon="12.1385542"><ele>-1.0</ele><time>2026-04-15T09:48:43.194Z</time></trkpt><trkpt lat="45.3758771" lon="12.1385573"><ele>-1.0</ele><time>2026-04-15T09:48:44.179Z</time></trkpt><trkpt lat="45.3756888" lon="12.1385576"><ele>-1.0</ele><time>2026-04-15T09:48:45.196Z</time></trkpt><trkpt lat="45.3754989" lon="12.1385289"><ele>-0.6666666666666666</ele><time>2026-04-15T09:48:46.194Z</time></trkpt><trkpt lat="45.3753089" lon="12.1385075"><ele>-0.3333333333333333</ele><time>2026-04-15T09:48:47.204Z</time></trkpt><trkpt lat="45.3751067" lon="12.1385007"><ele>0.0</ele><time>2026-04-15T09:48:48.208Z</time></trkpt><trkpt lat="45.3748915" lon="12.1384827"><ele>0.5</ele><time>2026-04-15T09:48:49.181Z</time></trkpt><trkpt lat="45.3746598" lon="12.1384724"><ele>1.0</ele><time>2026-04-15T09:48:50.198Z</time></trkpt><trkpt lat="45.374414" lon="12.1384599"><ele>1.0</ele><time>2026-04-15T09:48:51.209Z</time></trkpt><trkpt lat="45.3741514" lon="12.1384407"><ele>1.0</ele><time>2026-04-15T09:48:52.199Z</time></trkpt><trkpt lat="45.3738718" lon="12.1384185"><ele>0.5</ele><time>2026-04-15T09:48:53.204Z</time></trkpt><trkpt lat="45.373594" lon="12.1383977"><ele>0.0</ele><time>2026-04-15T09:48:54.202Z</time></trkpt><trkpt lat="45.3733355" lon="12.1383529"><ele>0.0</ele><time>2026-04-15T09:48:55.206Z</time></trkpt><trkpt lat="45.3730873" lon="12.1383178"><ele>0.0</ele><time>2026-04-15T09:48:56.206Z</time></trkpt><trkpt lat="45.3728589" lon="12.1382957"><ele>0.5</ele><time>2026-04-15T09:48:57.195Z</time></trkpt><trkpt lat="45.3726305" lon="12.1382828"><ele>1.0</ele><time>2026-04-15T09:48:58.191Z</time></trkpt><trkpt lat="45.3724016" lon="12.1382641"><ele>1.3333333333333333</ele><time>2026-04-15T09:48:59.201Z</time></trkpt><trkpt lat="45.3721821" lon="12.1382434"><ele>1.6666666666666665</ele><time>2026-04-15T09:49:00.193Z</time></trkpt><trkpt lat="45.3719644" lon="12.1382268"><ele>2.0</ele><time>2026-04-15T09:49:01.203Z</time></trkpt><trkpt lat="45.3717488" lon="12.1382128"><ele>1.3333333333333333</ele><time>2026-04-15T09:49:02.193Z</time></trkpt><trkpt lat="45.3715365" lon="12.1381964"><ele>0.6666666666666666</ele><time>2026-04-15T09:49:03.198Z</time></trkpt><trkpt lat="45.371323" lon="12.1381847"><ele>0.0</ele><time>2026-04-15T09:49:04.192Z</time></trkpt><trkpt lat="45.371113" lon="12.1381709"><ele>-0.3333333333333333</ele><time>2026-04-15T09:49:05.19Z</time></trkpt><trkpt lat="45.3709115" lon="12.1381511"><ele>-0.6666666666666666</ele><time>2026-04-15T09:49:06.199Z</time></trkpt><trkpt lat="45.370708" lon="12.1381271"><ele>-1.0</ele><time>2026-04-15T09:49:07.199Z</time></trkpt><trkpt lat="45.370508" lon="12.1381087"><ele>-1.0</ele><time>2026-04-15T09:49:08.192Z</time></trkpt><trkpt lat="45.3703072" lon="12.1380895"><ele>-1.0</ele><time>2026-04-15T09:49:09.202Z</time></trkpt><trkpt lat="45.3701076" lon="12.1380766"><ele>-1.0</ele><time>2026-04-15T09:49:10.188Z</time></trkpt><trkpt lat="45.3699115" lon="12.1380574"><ele>-1.0</ele><time>2026-04-15T09:49:11.21Z</time></trkpt><trkpt lat="45.3697146" lon="12.1380452"><ele>-1.0</ele><time>2026-04-15T09:49:12.198Z</time></trkpt><trkpt lat="45.3695167" lon="12.1380318"><ele>-1.0</ele><time>2026-04-15T09:49:13.185Z</time></trkpt><trkpt lat="45.3693199" lon="12.1380146"><ele>-0.6666666666666666</ele><time>2026-04-15T09:49:14.204Z</time></trkpt><trkpt lat="45.3691132" lon="12.1379995"><ele>-0.3333333333333333</ele><time>2026-04-15T09:49:15.207Z</time></trkpt><trkpt lat="45.3689126" lon="12.1379864"><ele>0.0</ele><time>2026-04-15T09:49:16.191Z</time></trkpt><trkpt lat="45.3687123" lon="12.137968"><ele>0.0</ele><time>2026-04-15T09:49:17.195Z</time></trkpt><trkpt lat="45.3685117" lon="12.1379546"><ele>0.0</ele><time>2026-04-15T09:49:18.198Z</time></trkpt><trkpt lat="45.3683092" lon="12.1379395"><ele>0.0</ele><time>2026-04-15T09:49:19.193Z</time></trkpt><trkpt lat="45.3681054" lon="12.1379235"><ele>0.0</ele><time>2026-04-15T09:49:20.196Z</time></trkpt><trkpt lat="45.367903" lon="12.1379091"><ele>0.0</ele><time>2026-04-15T09:49:21.187Z</time></trkpt><trkpt lat="45.3677028" lon="12.1378946"><ele>0.0</ele><time>2026-04-15T09:49:22.2Z</time></trkpt><trkpt lat="45.3675005" lon="12.1378771"><ele>0.0</ele><time>2026-04-15T09:49:23.189Z</time></trkpt><trkpt lat="45.367302" lon="12.1378518"><ele>0.0</ele><time>2026-04-15T09:49:24.195Z</time></trkpt><trkpt lat="45.3671006" lon="12.1378307"><ele>0.0</ele><time>2026-04-15T09:49:25.197Z</time></trkpt><trkpt lat="45.3669008" lon="12.1378133"><ele>0.0</ele><time>2026-04-15T09:49:26.189Z</time></trkpt><trkpt lat="45.3666998" lon="12.1378025"><ele>0.0</ele><time>2026-04-15T09:49:27.19Z</time></trkpt><trkpt lat="45.3665001" lon="12.137791"><ele>0.0</ele><time>2026-04-15T09:49:28.194Z</time></trkpt><trkpt lat="45.3663013" lon="12.1377719"><ele>0.3333333333333333</ele><time>2026-04-15T09:49:29.204Z</time></trkpt><trkpt lat="45.366101" lon="12.1377616"><ele>0.6666666666666666</ele><time>2026-04-15T09:49:30.206Z</time></trkpt><trkpt lat="45.3659059" lon="12.1377482"><ele>1.0</ele><time>2026-04-15T09:49:31.205Z</time></trkpt><trkpt lat="45.365713" lon="12.1377379"><ele>1.3333333333333333</ele><time>2026-04-15T09:49:32.206Z</time></trkpt><trkpt lat="45.3655249" lon="12.1377288"><ele>1.6666666666666665</ele><time>2026-04-15T09:49:33.201Z</time></trkpt><trkpt lat="45.3653348" lon="12.1377172"><ele>2.0</ele><time>2026-04-15T09:49:34.194Z</time></trkpt><trkpt lat="45.3651425" lon="12.1376995"><ele>2.0</ele><time>2026-04-15T09:49:35.201Z</time></trkpt><trkpt lat="45.364951" lon="12.1376762"><ele>2.0</ele><time>2026-04-15T09:49:36.193Z</time></trkpt><trkpt lat="45.3647586" lon="12.1376527"><ele>2.0</ele><time>2026-04-15T09:49:37.209Z</time></trkpt><trkpt lat="45.3645662" lon="12.1376317"><ele>1.6666666666666665</ele><time>2026-04-15T09:49:38.192Z</time></trkpt><trkpt lat="45.3643809" lon="12.1376104"><ele>1.3333333333333333</ele><time>2026-04-15T09:49:39.196Z</time></trkpt><trkpt lat="45.3641946" lon="12.1375843"><ele>1.0</ele><time>2026-04-15T09:49:40.201Z</time></trkpt><trkpt lat="45.3640081" lon="12.1375601"><ele>1.0</ele><time>2026-04-15T09:49:41.18Z</time></trkpt><trkpt lat="45.3638254" lon="12.1375341"><ele>1.0</ele><time>2026-04-15T09:49:42.19Z</time></trkpt><trkpt lat="45.3636394" lon="12.137514"><ele>1.0</ele><time>2026-04-15T09:49:43.191Z</time></trkpt><trkpt lat="45.3634523" lon="12.1375025"><ele>1.0</ele><time>2026-04-15T09:49:44.197Z</time></trkpt><trkpt lat="45.3632629" lon="12.1374874"><ele>1.0</ele><time>2026-04-15T09:49:45.192Z</time></trkpt><trkpt lat="45.3630683" lon="12.1374716"><ele>1.0</ele><time>2026-04-15T09:49:46.199Z</time></trkpt><trkpt lat="45.3628734" lon="12.137455"><ele>0.6666666666666666</ele><time>2026-04-15T09:49:47.187Z</time></trkpt><trkpt lat="45.3626795" lon="12.1374379"><ele>0.3333333333333333</ele><time>2026-04-15T09:49:48.193Z</time></trkpt><trkpt lat="45.362479" lon="12.1374218"><ele>0.0</ele><time>2026-04-15T09:49:49.201Z</time></trkpt><trkpt lat="45.3622757" lon="12.1374021"><ele>-0.5</ele><time>2026-04-15T09:49:50.206Z</time></trkpt><trkpt lat="45.3620558" lon="12.1373893"><ele>-1.0</ele><time>2026-04-15T09:49:51.2Z</time></trkpt><trkpt lat="45.361816" lon="12.1373769"><ele>-1.0</ele><time>2026-04-15T09:49:52.209Z</time></trkpt><trkpt lat="45.3615572" lon="12.1373587"><ele>-1.0</ele><time>2026-04-15T09:49:53.188Z</time></trkpt><trkpt lat="45.3612873" lon="12.1373276"><ele>-1.0</ele><time>2026-04-15T09:49:54.19Z</time></trkpt><trkpt lat="45.3610111" lon="12.1372793"><ele>-1.0</ele><time>2026-04-15T09:49:55.192Z</time></trkpt><trkpt lat="45.3607359" lon="12.1372259"><ele>-1.0</ele><time>2026-04-15T09:49:56.19Z</time></trkpt><trkpt lat="45.3604619" lon="12.1371812"><ele>-1.0</ele><time>2026-04-15T09:49:57.194Z</time></trkpt><trkpt lat="45.3601977" lon="12.1371514"><ele>-1.0</ele><time>2026-04-15T09:49:58.193Z</time></trkpt><trkpt lat="45.3599437" lon="12.1371326"><ele>-1.0</ele><time>2026-04-15T09:49:59.188Z</time></trkpt><trkpt lat="45.3596919" lon="12.137106"><ele>-1.0</ele><time>2026-04-15T09:50:00.185Z</time></trkpt><trkpt lat="45.3594438" lon="12.1370838"><ele>-1.0</ele><time>2026-04-15T09:50:01.201Z</time></trkpt><trkpt lat="45.3591983" lon="12.1370587"><ele>-1.0</ele><time>2026-04-15T09:50:02.194Z</time></trkpt><trkpt lat="45.3589561" lon="12.1370307"><ele>-1.0</ele><time>2026-04-15T09:50:03.207Z</time></trkpt><trkpt lat="45.3587148" lon="12.1370081"><ele>0.0</ele><time>2026-04-15T09:50:04.198Z</time></trkpt><trkpt lat="45.3584776" lon="12.1369881"><ele>1.0</ele><time>2026-04-15T09:50:05.193Z</time></trkpt><trkpt lat="45.3582452" lon="12.1369613"><ele>0.0</ele><time>2026-04-15T09:50:06.189Z</time></trkpt><trkpt lat="45.3580159" lon="12.1369369"><ele>-1.0</ele><time>2026-04-15T09:50:07.191Z</time></trkpt><trkpt lat="45.3577895" lon="12.1369108"><ele>-1.0</ele><time>2026-04-15T09:50:08.173Z</time></trkpt><trkpt lat="45.3575659" lon="12.136887"><ele>-1.0</ele><time>2026-04-15T09:50:09.193Z</time></trkpt><trkpt lat="45.357344" lon="12.1368634"><ele>-1.0</ele><time>2026-04-15T09:50:10.186Z</time></trkpt><trkpt lat="45.3571239" lon="12.136841"><ele>-0.6666666666666666</ele><time>2026-04-15T09:50:11.186Z</time></trkpt><trkpt lat="45.356906" lon="12.1368189"><ele>-0.3333333333333333</ele><time>2026-04-15T09:50:12.183Z</time></trkpt><trkpt lat="45.3566903" lon="12.136795"><ele>0.0</ele><time>2026-04-15T09:50:13.204Z</time></trkpt><trkpt lat="45.3564754" lon="12.1367708"><ele>0.3333333333333333</ele><time>2026-04-15T09:50:14.186Z</time></trkpt><trkpt lat="45.3562589" lon="12.1367465"><ele>0.6666666666666666</ele><time>2026-04-15T09:50:15.189Z</time></trkpt><trkpt lat="45.3560417" lon="12.1367244"><ele>1.0</ele><time>2026-04-15T09:50:16.183Z</time></trkpt><trkpt lat="45.3558256" lon="12.1367021"><ele>1.0</ele><time>2026-04-15T09:50:17.188Z</time></trkpt><trkpt lat="45.3556113" lon="12.1366842"><ele>1.0</ele><time>2026-04-15T09:50:18.186Z</time></trkpt><trkpt lat="45.3553972" lon="12.1366656"><ele>1.0</ele><time>2026-04-15T09:50:19.198Z</time></trkpt><trkpt lat="45.3551811" lon="12.1366438"><ele>0.6666666666666666</ele><time>2026-04-15T09:50:20.204Z</time></trkpt><trkpt lat="45.3549674" lon="12.1366202"><ele>0.3333333333333333</ele><time>2026-04-15T09:50:21.193Z</time></trkpt><trkpt lat="45.3547538" lon="12.1365991"><ele>0.0</ele><time>2026-04-15T09:50:22.19Z</time></trkpt><trkpt lat="45.3545362" lon="12.1365823"><ele>0.0</ele><time>2026-04-15T09:50:23.193Z</time></trkpt><trkpt lat="45.354322" lon="12.1365573"><ele>0.0</ele><time>2026-04-15T09:50:24.189Z</time></trkpt><trkpt lat="45.3541075" lon="12.136536"><ele>0.0</ele><time>2026-04-15T09:50:25.181Z</time></trkpt><trkpt lat="45.3538897" lon="12.1365191"><ele>-0.6666666666666666</ele><time>2026-04-15T09:50:26.185Z</time></trkpt><trkpt lat="45.3536744" lon="12.1365005"><ele>-1.3333333333333333</ele><time>2026-04-15T09:50:27.189Z</time></trkpt><trkpt lat="45.3534625" lon="12.1364801"><ele>-2.0</ele><time>2026-04-15T09:50:28.186Z</time></trkpt><trkpt lat="45.3532483" lon="12.1364607"><ele>-2.0</ele><time>2026-04-15T09:50:29.187Z</time></trkpt><trkpt lat="45.3530368" lon="12.1364402"><ele>-2.0</ele><time>2026-04-15T09:50:30.182Z</time></trkpt><trkpt lat="45.3528277" lon="12.1364179"><ele>-2.0</ele><time>2026-04-15T09:50:31.19Z</time></trkpt><trkpt lat="45.3526147" lon="12.1363974"><ele>-2.0</ele><time>2026-04-15T09:50:32.191Z</time></trkpt><trkpt lat="45.3524045" lon="12.1363796"><ele>-2.0</ele><time>2026-04-15T09:50:33.19Z</time></trkpt><trkpt lat="45.3521937" lon="12.1363521"><ele>-2.0</ele><time>2026-04-15T09:50:34.192Z</time></trkpt><trkpt lat="45.3519814" lon="12.1363272"><ele>-2.0</ele><time>2026-04-15T09:50:35.19Z</time></trkpt><trkpt lat="45.3517718" lon="12.1363062"><ele>-2.0</ele><time>2026-04-15T09:50:36.193Z</time></trkpt><trkpt lat="45.3515589" lon="12.1362865"><ele>-2.0</ele><time>2026-04-15T09:50:37.176Z</time></trkpt><trkpt lat="45.351345" lon="12.1362643"><ele>-2.0</ele><time>2026-04-15T09:50:38.197Z</time></trkpt><trkpt lat="45.3511292" lon="12.1362438"><ele>-2.0</ele><time>2026-04-15T09:50:39.202Z</time></trkpt><trkpt lat="45.3509128" lon="12.1362191"><ele>-2.0</ele><time>2026-04-15T09:50:40.201Z</time></trkpt><trkpt lat="45.3506943" lon="12.1361945"><ele>-1.6666666666666665</ele><time>2026-04-15T09:50:41.191Z</time></trkpt><trkpt lat="45.3504774" lon="12.1361728"><ele>-1.3333333333333333</ele><time>2026-04-15T09:50:42.189Z</time></trkpt><trkpt lat="45.3502634" lon="12.1361567"><ele>-1.0</ele><time>2026-04-15T09:50:43.194Z</time></trkpt><trkpt lat="45.3500557" lon="12.1361414"><ele>-1.0</ele><time>2026-04-15T09:50:44.184Z</time></trkpt><trkpt lat="45.3498521" lon="12.1361267"><ele>-1.0</ele><time>2026-04-15T09:50:45.187Z</time></trkpt><trkpt lat="45.3496584" lon="12.1361039"><ele>-1.0</ele><time>2026-04-15T09:50:46.18Z</time></trkpt><trkpt lat="45.3494692" lon="12.136087"><ele>-0.6666666666666666</ele><time>2026-04-15T09:50:47.176Z</time></trkpt><trkpt lat="45.3492843" lon="12.1360704"><ele>-0.3333333333333333</ele><time>2026-04-15T09:50:48.177Z</time></trkpt><trkpt lat="45.349101" lon="12.1360532"><ele>0.0</ele><time>2026-04-15T09:50:49.194Z</time></trkpt><trkpt lat="45.3489196" lon="12.1360316"><ele>-0.3333333333333333</ele><time>2026-04-15T09:50:50.184Z</time></trkpt><trkpt lat="45.3487395" lon="12.1360149"><ele>-0.6666666666666666</ele><time>2026-04-15T09:50:51.191Z</time></trkpt><trkpt lat="45.3485625" lon="12.1359975"><ele>-1.0</ele><time>2026-04-15T09:50:52.18Z</time></trkpt><trkpt lat="45.3483882" lon="12.1359792"><ele>-1.0</ele><time>2026-04-15T09:50:53.172Z</time></trkpt><trkpt lat="45.3482167" lon="12.135962"><ele>-1.0</ele><time>2026-04-15T09:50:54.187Z</time></trkpt><trkpt lat="45.3480418" lon="12.1359537"><ele>-1.0</ele><time>2026-04-15T09:50:55.179Z</time></trkpt><trkpt lat="45.3478474" lon="12.1359378"><ele>-1.0</ele><time>2026-04-15T09:50:56.186Z</time></trkpt><trkpt lat="45.3476292" lon="12.1359256"><ele>-1.0</ele><time>2026-04-15T09:50:57.204Z</time></trkpt><trkpt lat="45.347406" lon="12.1358998"><ele>-1.0</ele><time>2026-04-15T09:50:58.196Z</time></trkpt><trkpt lat="45.3471915" lon="12.1358685"><ele>-1.0</ele><time>2026-04-15T09:50:59.179Z</time></trkpt><trkpt lat="45.3469849" lon="12.1358472"><ele>-1.0</ele><time>2026-04-15T09:51:00.185Z</time></trkpt><trkpt lat="45.346784" lon="12.1358305"><ele>-1.0</ele><time>2026-04-15T09:51:01.193Z</time></trkpt><trkpt lat="45.3465951" lon="12.1358151"><ele>-1.0</ele><time>2026-04-15T09:51:02.191Z</time></trkpt><trkpt lat="45.3464138" lon="12.1358044"><ele>-1.0</ele><time>2026-04-15T09:51:03.186Z</time></trkpt><trkpt lat="45.3462423" lon="12.135791"><ele>-1.0</ele><time>2026-04-15T09:51:04.195Z</time></trkpt><trkpt lat="45.3460696" lon="12.1357765"><ele>-0.6666666666666666</ele><time>2026-04-15T09:51:05.193Z</time></trkpt><trkpt lat="45.3458991" lon="12.1357598"><ele>-0.3333333333333333</ele><time>2026-04-15T09:51:06.192Z</time></trkpt><trkpt lat="45.3457258" lon="12.1357465"><ele>0.0</ele><time>2026-04-15T09:51:07.191Z</time></trkpt><trkpt lat="45.3455447" lon="12.1357273"><ele>-0.6666666666666666</ele><time>2026-04-15T09:51:08.18Z</time></trkpt><trkpt lat="45.3453595" lon="12.1357093"><ele>-1.3333333333333333</ele><time>2026-04-15T09:51:09.17Z</time></trkpt><trkpt lat="45.3451583" lon="12.1356953"><ele>-2.0</ele><time>2026-04-15T09:51:10.189Z</time></trkpt><trkpt lat="45.3449321" lon="12.1356734"><ele>-1.6666666666666665</ele><time>2026-04-15T09:51:11.19Z</time></trkpt><trkpt lat="45.3447073" lon="12.1356417"><ele>-1.3333333333333333</ele><time>2026-04-15T09:51:12.182Z</time></trkpt><trkpt lat="45.344497" lon="12.1356112"><ele>-1.0</ele><time>2026-04-15T09:51:13.198Z</time></trkpt><trkpt lat="45.3442901" lon="12.135593"><ele>-1.0</ele><time>2026-04-15T09:51:14.187Z</time></trkpt><trkpt lat="45.3440872" lon="12.1355753"><ele>-1.0</ele><time>2026-04-15T09:51:15.184Z</time></trkpt><trkpt lat="45.3438646" lon="12.1355676"><ele>-1.0</ele><time>2026-04-15T09:51:16.183Z</time></trkpt><trkpt lat="45.3436315" lon="12.135552"><ele>-2.0</ele><time>2026-04-15T09:51:17.183Z</time></trkpt><trkpt lat="45.3434002" lon="12.1355218"><ele>-3.0</ele><time>2026-04-15T09:51:18.186Z</time></trkpt><trkpt lat="45.3431814" lon="12.1354897"><ele>-3.0</ele><time>2026-04-15T09:51:19.194Z</time></trkpt><trkpt lat="45.3429764" lon="12.1354699"><ele>-3.0</ele><time>2026-04-15T09:51:20.184Z</time></trkpt><trkpt lat="45.3427813" lon="12.1354603"><ele>-3.0</ele><time>2026-04-15T09:51:21.174Z</time></trkpt><trkpt lat="45.3425899" lon="12.135444"><ele>-3.0</ele><time>2026-04-15T09:51:22.178Z</time></trkpt><trkpt lat="45.3423989" lon="12.1354286"><ele>-3.0</ele><time>2026-04-15T09:51:23.183Z</time></trkpt><trkpt lat="45.3422136" lon="12.1354151"><ele>-3.0</ele><time>2026-04-15T09:51:24.187Z</time></trkpt><trkpt lat="45.3420353" lon="12.1353921"><ele>-2.3333333333333335</ele><time>2026-04-15T09:51:25.177Z</time></trkpt><trkpt lat="45.3418569" lon="12.1353729"><ele>-1.6666666666666665</ele><time>2026-04-15T09:51:26.176Z</time></trkpt><trkpt lat="45.341684" lon="12.1353528"><ele>-1.0</ele><time>2026-04-15T09:51:27.165Z</time></trkpt><trkpt lat="45.3415098" lon="12.1353348"><ele>-1.0</ele><time>2026-04-15T09:51:28.17Z</time></trkpt><trkpt lat="45.3413372" lon="12.1353191"><ele>-1.0</ele><time>2026-04-15T09:51:29.176Z</time></trkpt><trkpt lat="45.3411583" lon="12.1352967"><ele>-1.0</ele><time>2026-04-15T09:51:30.176Z</time></trkpt><trkpt lat="45.3409819" lon="12.1352727"><ele>-1.0</ele><time>2026-04-15T09:51:31.203Z</time></trkpt><trkpt lat="45.340795" lon="12.1352522"><ele>-1.0</ele><time>2026-04-15T09:51:32.18Z</time></trkpt><trkpt lat="45.3406094" lon="12.1352348"><ele>-1.0</ele><time>2026-04-15T09:51:33.184Z</time></trkpt><trkpt lat="45.3404222" lon="12.1352182"><ele>-1.0</ele><time>2026-04-15T09:51:34.18Z</time></trkpt><trkpt lat="45.3402364" lon="12.1352009"><ele>-1.0</ele><time>2026-04-15T09:51:35.186Z</time></trkpt><trkpt lat="45.3400513" lon="12.1351804"><ele>-1.0</ele><time>2026-04-15T09:51:36.171Z</time></trkpt><trkpt lat="45.3398593" lon="12.1351651"><ele>-0.6666666666666666</ele><time>2026-04-15T09:51:37.179Z</time></trkpt><trkpt lat="45.3396702" lon="12.1351429"><ele>-0.3333333333333333</ele><time>2026-04-15T09:51:38.177Z</time></trkpt><trkpt lat="45.3394856" lon="12.1351168"><ele>0.0</ele><time>2026-04-15T09:51:39.198Z</time></trkpt><trkpt lat="45.3393098" lon="12.1350982"><ele>0.0</ele><time>2026-04-15T09:51:40.187Z</time></trkpt><trkpt lat="45.3391306" lon="12.1350837"><ele>0.0</ele><time>2026-04-15T09:51:41.184Z</time></trkpt><trkpt lat="45.3389521" lon="12.1350648"><ele>0.0</ele><time>2026-04-15T09:51:42.177Z</time></trkpt><trkpt lat="45.3387716" lon="12.1350498"><ele>-0.3333333333333333</ele><time>2026-04-15T09:51:43.185Z</time></trkpt><trkpt lat="45.3385882" lon="12.1350333"><ele>-0.6666666666666666</ele><time>2026-04-15T09:51:44.188Z</time></trkpt><trkpt lat="45.338405" lon="12.1350169"><ele>-1.0</ele><time>2026-04-15T09:51:45.197Z</time></trkpt><trkpt lat="45.338224" lon="12.1350017"><ele>0.0</ele><time>2026-04-15T09:51:46.19Z</time></trkpt><trkpt lat="45.33803" lon="12.1349846"><ele>1.0</ele><time>2026-04-15T09:51:47.201Z</time></trkpt><trkpt lat="45.337807" lon="12.1349659"><ele>2.0</ele><time>2026-04-15T09:51:48.188Z</time></trkpt><trkpt lat="45.3375553" lon="12.1349407"><ele>2.0</ele><time>2026-04-15T09:51:49.182Z</time></trkpt><trkpt lat="45.3372972" lon="12.1349018"><ele>2.0</ele><time>2026-04-15T09:51:50.174Z</time></trkpt><trkpt lat="45.3370509" lon="12.1348631"><ele>0.33333333333333326</ele><time>2026-04-15T09:51:51.183Z</time></trkpt><trkpt lat="45.3368204" lon="12.1348398"><ele>-1.3333333333333335</ele><time>2026-04-15T09:51:52.19Z</time></trkpt><trkpt lat="45.3366034" lon="12.1348301"><ele>-3.0</ele><time>2026-04-15T09:51:53.178Z</time></trkpt><trkpt lat="45.3363886" lon="12.1348128"><ele>-3.0</ele><time>2026-04-15T09:51:54.18Z</time></trkpt><trkpt lat="45.3361712" lon="12.1347933"><ele>-3.0</ele><time>2026-04-15T09:51:55.186Z</time></trkpt><trkpt lat="45.3359637" lon="12.1347769"><ele>-3.0</ele><time>2026-04-15T09:51:56.178Z</time></trkpt><trkpt lat="45.3357649" lon="12.1347585"><ele>-3.0</ele><time>2026-04-15T09:51:57.17Z</time></trkpt><trkpt lat="45.3355827" lon="12.1347422"><ele>-3.0</ele><time>2026-04-15T09:51:58.18Z</time></trkpt><trkpt lat="45.3354086" lon="12.1347263"><ele>-3.0</ele><time>2026-04-15T09:51:59.185Z</time></trkpt><trkpt lat="45.3352397" lon="12.1347158"><ele>-2.3333333333333335</ele><time>2026-04-15T09:52:00.181Z</time></trkpt><trkpt lat="45.3350788" lon="12.1346966"><ele>-1.6666666666666665</ele><time>2026-04-15T09:52:01.174Z</time></trkpt><trkpt lat="45.3349125" lon="12.1346757"><ele>-1.0</ele><time>2026-04-15T09:52:02.17Z</time></trkpt><trkpt lat="45.3347386" lon="12.1346601"><ele>-1.3333333333333333</ele><time>2026-04-15T09:52:03.186Z</time></trkpt><trkpt lat="45.3345573" lon="12.1346457"><ele>-1.6666666666666665</ele><time>2026-04-15T09:52:04.171Z</time></trkpt><trkpt lat="45.3343796" lon="12.1346289"><ele>-2.0</ele><time>2026-04-15T09:52:05.177Z</time></trkpt><trkpt lat="45.3342067" lon="12.1346111"><ele>-2.0</ele><time>2026-04-15T09:52:06.179Z</time></trkpt><trkpt lat="45.3340356" lon="12.1345914"><ele>-2.0</ele><time>2026-04-15T09:52:07.185Z</time></trkpt><trkpt lat="45.3338679" lon="12.1345736"><ele>-2.0</ele><time>2026-04-15T09:52:08.181Z</time></trkpt><trkpt lat="45.3336937" lon="12.1345559"><ele>-2.0</ele><time>2026-04-15T09:52:09.165Z</time></trkpt><trkpt lat="45.3335197" lon="12.1345384"><ele>-2.0</ele><time>2026-04-15T09:52:10.181Z</time></trkpt><trkpt lat="45.3333425" lon="12.1345269"><ele>-2.0</ele><time>2026-04-15T09:52:11.189Z</time></trkpt><trkpt lat="45.3331665" lon="12.1345113"><ele>-1.3333333333333333</ele><time>2026-04-15T09:52:12.167Z</time></trkpt><trkpt lat="45.3329877" lon="12.1344975"><ele>-0.6666666666666666</ele><time>2026-04-15T09:52:13.185Z</time></trkpt><trkpt lat="45.3328104" lon="12.1344808"><ele>0.0</ele><time>2026-04-15T09:52:14.177Z</time></trkpt><trkpt lat="45.3326325" lon="12.134464"><ele>0.0</ele><time>2026-04-15T09:52:15.18Z</time></trkpt><trkpt lat="45.3324551" lon="12.1344468"><ele>0.0</ele><time>2026-04-15T09:52:16.193Z</time></trkpt><trkpt lat="45.3322756" lon="12.1344248"><ele>0.0</ele><time>2026-04-15T09:52:17.192Z</time></trkpt><trkpt lat="45.332097" lon="12.1344113"><ele>0.0</ele><time>2026-04-15T09:52:18.19Z</time></trkpt><trkpt lat="45.3319128" lon="12.1343967"><ele>0.0</ele><time>2026-04-15T09:52:19.184Z</time></trkpt><trkpt lat="45.3317209" lon="12.1343785"><ele>0.0</ele><time>2026-04-15T09:52:20.164Z</time></trkpt><trkpt lat="45.3315121" lon="12.1343616"><ele>-0.5</ele><time>2026-04-15T09:52:21.172Z</time></trkpt><trkpt lat="45.3312798" lon="12.1343429"><ele>-1.0</ele><time>2026-04-15T09:52:22.164Z</time></trkpt><trkpt lat="45.3310525" lon="12.1343151"><ele>-1.0</ele><time>2026-04-15T09:52:23.191Z</time></trkpt><trkpt lat="45.3308563" lon="12.1342955"><ele>-1.0</ele><time>2026-04-15T09:52:24.171Z</time></trkpt><trkpt lat="45.3306795" lon="12.1342795"><ele>-1.0</ele><time>2026-04-15T09:52:25.171Z</time></trkpt><trkpt lat="45.3305163" lon="12.1342687"><ele>-1.0</ele><time>2026-04-15T09:52:26.175Z</time></trkpt><trkpt lat="45.3303569" lon="12.1342663"><ele>-1.0</ele><time>2026-04-15T09:52:27.168Z</time></trkpt><trkpt lat="45.3302128" lon="12.1342486"><ele>-1.0</ele><time>2026-04-15T09:52:28.164Z</time></trkpt><trkpt lat="45.3300699" lon="12.1342322"><ele>-1.0</ele><time>2026-04-15T09:52:29.188Z</time></trkpt><trkpt lat="45.3299252" lon="12.134216"><ele>-1.0</ele><time>2026-04-15T09:52:30.178Z</time></trkpt><trkpt lat="45.3297797" lon="12.1342066"><ele>-1.0</ele><time>2026-04-15T09:52:31.172Z</time></trkpt><trkpt lat="45.3296369" lon="12.1341906"><ele>-1.0</ele><time>2026-04-15T09:52:32.162Z</time></trkpt><trkpt lat="45.3294973" lon="12.1341729"><ele>-1.0</ele><time>2026-04-15T09:52:33.167Z</time></trkpt><trkpt lat="45.3293581" lon="12.1341549"><ele>-1.0</ele><time>2026-04-15T09:52:34.174Z</time></trkpt><trkpt lat="45.3292131" lon="12.1341392"><ele>-1.0</ele><time>2026-04-15T09:52:35.171Z</time></trkpt><trkpt lat="45.3290648" lon="12.134125"><ele>-1.0</ele><time>2026-04-15T09:52:36.181Z</time></trkpt><trkpt lat="45.3289136" lon="12.1341076"><ele>-1.0</ele><time>2026-04-15T09:52:37.175Z</time></trkpt><trkpt lat="45.3287634" lon="12.1340915"><ele>-1.0</ele><time>2026-04-15T09:52:38.296Z</time></trkpt><trkpt lat="45.328464" lon="12.1340641"><ele>-1.0</ele><time>2026-04-15T09:52:40.185Z</time></trkpt><trkpt lat="45.3283194" lon="12.1340503"><ele>-1.0</ele><time>2026-04-15T09:52:41.197Z</time></trkpt><trkpt lat="45.3281739" lon="12.1340342"><ele>-1.0</ele><time>2026-04-15T09:52:42.272Z</time></trkpt><trkpt lat="45.3280296" lon="12.1340164"><ele>-1.0</ele><time>2026-04-15T09:52:43.298Z</time></trkpt><trkpt lat="45.3278834" lon="12.1340024"><ele>-1.0</ele><time>2026-04-15T09:52:44.284Z</time></trkpt><trkpt lat="45.3277361" lon="12.1339883"><ele>-1.0</ele><time>2026-04-15T09:52:45.298Z</time></trkpt><trkpt lat="45.327446" lon="12.1339457"><ele>-1.0</ele><time>2026-04-15T09:52:47.182Z</time></trkpt><trkpt lat="45.3272969" lon="12.1339292"><ele>-1.0</ele><time>2026-04-15T09:52:48.268Z</time></trkpt><trkpt lat="45.3271493" lon="12.1339164"><ele>-1.0</ele><time>2026-04-15T09:52:49.281Z</time></trkpt><trkpt lat="45.3269971" lon="12.1339063"><ele>-1.0</ele><time>2026-04-15T09:52:50.286Z</time></trkpt><trkpt lat="45.3268436" lon="12.1338925"><ele>-1.0</ele><time>2026-04-15T09:52:51.275Z</time></trkpt><trkpt lat="45.3266832" lon="12.1338756"><ele>-1.0</ele><time>2026-04-15T09:52:52.287Z</time></trkpt><trkpt lat="45.3263457" lon="12.1338457"><ele>-1.0</ele><time>2026-04-15T09:52:54.181Z</time></trkpt><trkpt lat="45.3261791" lon="12.1338288"><ele>-1.0</ele><time>2026-04-15T09:52:55.281Z</time></trkpt><trkpt lat="45.3260154" lon="12.1338075"><ele>-1.0</ele><time>2026-04-15T09:52:56.274Z</time></trkpt><trkpt lat="45.3258513" lon="12.1337902"><ele>-1.0</ele><time>2026-04-15T09:52:57.271Z</time></trkpt><trkpt lat="45.3256826" lon="12.1337737"><ele>-1.0</ele><time>2026-04-15T09:52:58.274Z</time></trkpt><trkpt lat="45.3255022" lon="12.1337604"><ele>-1.0</ele><time>2026-04-15T09:52:59.264Z</time></trkpt><trkpt lat="45.3253054" lon="12.1337475"><ele>-0.6666666666666666</ele><time>2026-04-15T09:53:00.169Z</time></trkpt><trkpt lat="45.3251005" lon="12.1337275"><ele>-0.3333333333333333</ele><time>2026-04-15T09:53:01.277Z</time></trkpt><trkpt lat="45.3248901" lon="12.133697"><ele>0.0</ele><time>2026-04-15T09:53:02.262Z</time></trkpt><trkpt lat="45.3246693" lon="12.1336709"><ele>0.0</ele><time>2026-04-15T09:53:03.269Z</time></trkpt><trkpt lat="45.3244408" lon="12.1336548"><ele>0.0</ele><time>2026-04-15T09:53:04.275Z</time></trkpt><trkpt lat="45.3242085" lon="12.1336352"><ele>0.0</ele><time>2026-04-15T09:53:05.284Z</time></trkpt><trkpt lat="45.3239647" lon="12.1336162"><ele>0.0</ele><time>2026-04-15T09:53:06.268Z</time></trkpt><trkpt lat="45.3237043" lon="12.1335986"><ele>-1.0</ele><time>2026-04-15T09:53:07.18Z</time></trkpt><trkpt lat="45.3234354" lon="12.1335732"><ele>-2.0</ele><time>2026-04-15T09:53:08.285Z</time></trkpt><trkpt lat="45.3231675" lon="12.1335438"><ele>-2.0</ele><time>2026-04-15T09:53:09.275Z</time></trkpt><trkpt lat="45.3229253" lon="12.1335051"><ele>-2.0</ele><time>2026-04-15T09:53:10.287Z</time></trkpt><trkpt lat="45.3227034" lon="12.1334789"><ele>-2.0</ele><time>2026-04-15T09:53:11.269Z</time></trkpt><trkpt lat="45.3224949" lon="12.1334526"><ele>-2.0</ele><time>2026-04-15T09:53:12.283Z</time></trkpt><trkpt lat="45.3223035" lon="12.133433"><ele>-2.0</ele><time>2026-04-15T09:53:13.272Z</time></trkpt><trkpt lat="45.3221128" lon="12.1334186"><ele>-2.333333333333333</ele><time>2026-04-15T09:53:14.275Z</time></trkpt><trkpt lat="45.3218973" lon="12.1334108"><ele>-2.6666666666666665</ele><time>2026-04-15T09:53:15.282Z</time></trkpt><trkpt lat="45.3216677" lon="12.1333917"><ele>-3.0</ele><time>2026-04-15T09:53:16.273Z</time></trkpt><trkpt lat="45.321439" lon="12.1333454"><ele>-2.0</ele><time>2026-04-15T09:53:17.283Z</time></trkpt><trkpt lat="45.3212232" lon="12.133311"><ele>-1.0</ele><time>2026-04-15T09:53:18.29Z</time></trkpt><trkpt lat="45.3210114" lon="12.1332965"><ele>0.0</ele><time>2026-04-15T09:53:19.275Z</time></trkpt><trkpt lat="45.3208086" lon="12.1332816"><ele>0.0</ele><time>2026-04-15T09:53:20.279Z</time></trkpt><trkpt lat="45.3206181" lon="12.1332646"><ele>0.0</ele><time>2026-04-15T09:53:21.285Z</time></trkpt><trkpt lat="45.3204328" lon="12.1332466"><ele>0.0</ele><time>2026-04-15T09:53:22.268Z</time></trkpt><trkpt lat="45.3202441" lon="12.1332344"><ele>-0.6666666666666666</ele><time>2026-04-15T09:53:23.272Z</time></trkpt><trkpt lat="45.3200605" lon="12.1332139"><ele>-1.3333333333333333</ele><time>2026-04-15T09:53:24.288Z</time></trkpt><trkpt lat="45.3198761" lon="12.1331953"><ele>-2.0</ele><time>2026-04-15T09:53:25.275Z</time></trkpt><trkpt lat="45.3196943" lon="12.1331765"><ele>-2.333333333333333</ele><time>2026-04-15T09:53:26.27Z</time></trkpt><trkpt lat="45.3195036" lon="12.1331617"><ele>-2.6666666666666665</ele><time>2026-04-15T09:53:27.293Z</time></trkpt><trkpt lat="45.3192748" lon="12.1331425"><ele>-3.0</ele><time>2026-04-15T09:53:28.275Z</time></trkpt><trkpt lat="45.3190045" lon="12.1331067"><ele>-3.0</ele><time>2026-04-15T09:53:29.276Z</time></trkpt><trkpt lat="45.3187198" lon="12.1330677"><ele>-3.0</ele><time>2026-04-15T09:53:30.275Z</time></trkpt><trkpt lat="45.3184451" lon="12.1330192"><ele>-3.0</ele><time>2026-04-15T09:53:31.274Z</time></trkpt><trkpt lat="45.318177" lon="12.1329854"><ele>-3.0</ele><time>2026-04-15T09:53:32.277Z</time></trkpt><trkpt lat="45.3179207" lon="12.1329738"><ele>-2.5</ele><time>2026-04-15T09:53:33.279Z</time></trkpt><trkpt lat="45.3176709" lon="12.1329619"><ele>-2.0</ele><time>2026-04-15T09:53:34.27Z</time></trkpt><trkpt lat="45.3174213" lon="12.1329493"><ele>-2.5</ele><time>2026-04-15T09:53:35.295Z</time></trkpt><trkpt lat="45.3171754" lon="12.1329255"><ele>-3.0</ele><time>2026-04-15T09:53:36.272Z</time></trkpt><trkpt lat="45.3169331" lon="12.1328979"><ele>-3.0</ele><time>2026-04-15T09:53:37.285Z</time></trkpt><trkpt lat="45.3166896" lon="12.1328687"><ele>-3.0</ele><time>2026-04-15T09:53:38.268Z</time></trkpt><trkpt lat="45.3164473" lon="12.1328388"><ele>-3.0</ele><time>2026-04-15T09:53:39.282Z</time></trkpt><trkpt lat="45.3162042" lon="12.1328178"><ele>-3.0</ele><time>2026-04-15T09:53:40.281Z</time></trkpt><trkpt lat="45.3159622" lon="12.1328012"><ele>-3.0</ele><time>2026-04-15T09:53:41.291Z</time></trkpt><trkpt lat="45.3157204" lon="12.1327773"><ele>-3.0</ele><time>2026-04-15T09:53:42.254Z</time></trkpt><trkpt lat="45.315478" lon="12.1327532"><ele>-3.0</ele><time>2026-04-15T09:53:43.289Z</time></trkpt><trkpt lat="45.3152343" lon="12.1327286"><ele>-3.0</ele><time>2026-04-15T09:53:44.273Z</time></trkpt><trkpt lat="45.3149915" lon="12.1327068"><ele>-3.0</ele><time>2026-04-15T09:53:45.259Z</time></trkpt><trkpt lat="45.3147509" lon="12.1326892"><ele>-3.0</ele><time>2026-04-15T09:53:46.274Z</time></trkpt><trkpt lat="45.3145149" lon="12.1326692"><ele>-2.5</ele><time>2026-04-15T09:53:47.297Z</time></trkpt><trkpt lat="45.3142774" lon="12.1326541"><ele>-2.0</ele><time>2026-04-15T09:53:48.277Z</time></trkpt><trkpt lat="45.3140477" lon="12.1326337"><ele>-1.5</ele><time>2026-04-15T09:53:49.282Z</time></trkpt><trkpt lat="45.3138158" lon="12.1326131"><ele>-1.0</ele><time>2026-04-15T09:53:50.284Z</time></trkpt><trkpt lat="45.3135884" lon="12.132592"><ele>-1.0</ele><time>2026-04-15T09:53:51.28Z</time></trkpt><trkpt lat="45.3131328" lon="12.1325582"><ele>-1.5</ele><time>2026-04-15T09:53:53.271Z</time></trkpt><trkpt lat="45.3129064" lon="12.1325377"><ele>-2.0</ele><time>2026-04-15T09:53:54.267Z</time></trkpt><trkpt lat="45.3126765" lon="12.1325144"><ele>-2.0</ele><time>2026-04-15T09:53:55.275Z</time></trkpt><trkpt lat="45.3124445" lon="12.1324868"><ele>-2.0</ele><time>2026-04-15T09:53:56.286Z</time></trkpt><trkpt lat="45.3122101" lon="12.1324657"><ele>-2.0</ele><time>2026-04-15T09:53:57.276Z</time></trkpt><trkpt lat="45.3119776" lon="12.132447"><ele>-2.0</ele><time>2026-04-15T09:53:58.284Z</time></trkpt><trkpt lat="45.3117478" lon="12.132427"><ele>-2.0</ele><time>2026-04-15T09:53:59.294Z</time></trkpt><trkpt lat="45.3115221" lon="12.1324022"><ele>-2.0</ele><time>2026-04-15T09:54:00.265Z</time></trkpt><trkpt lat="45.3113" lon="12.1323799"><ele>-2.0</ele><time>2026-04-15T09:54:01.277Z</time></trkpt><trkpt lat="45.3110839" lon="12.1323627"><ele>-2.0</ele><time>2026-04-15T09:54:02.283Z</time></trkpt><trkpt lat="45.3108709" lon="12.1323434"><ele>-2.0</ele><time>2026-04-15T09:54:03.258Z</time></trkpt><trkpt lat="45.3106597" lon="12.1323312"><ele>-2.0</ele><time>2026-04-15T09:54:04.282Z</time></trkpt><trkpt lat="45.3104502" lon="12.1323129"><ele>-2.0</ele><time>2026-04-15T09:54:05.274Z</time></trkpt><trkpt lat="45.3102433" lon="12.1322922"><ele>-2.0</ele><time>2026-04-15T09:54:06.267Z</time></trkpt><trkpt lat="45.3100376" lon="12.1322661"><ele>-2.0</ele><time>2026-04-15T09:54:07.282Z</time></trkpt><trkpt lat="45.3098308" lon="12.1322408"><ele>-1.6666666666666665</ele><time>2026-04-15T09:54:08.276Z</time></trkpt><trkpt lat="45.3096271" lon="12.1322234"><ele>-1.3333333333333333</ele><time>2026-04-15T09:54:09.291Z</time></trkpt><trkpt lat="45.3094222" lon="12.1322093"><ele>-1.0</ele><time>2026-04-15T09:54:10.276Z</time></trkpt><trkpt lat="45.30922" lon="12.1321878"><ele>-1.0</ele><time>2026-04-15T09:54:11.262Z</time></trkpt><trkpt lat="45.3090173" lon="12.1321651"><ele>-1.0</ele><time>2026-04-15T09:54:12.275Z</time></trkpt><trkpt lat="45.3088136" lon="12.132143"><ele>-1.0</ele><time>2026-04-15T09:54:13.283Z</time></trkpt><trkpt lat="45.3086083" lon="12.1321244"><ele>-1.0</ele><time>2026-04-15T09:54:14.275Z</time></trkpt><trkpt lat="45.3084043" lon="12.1321099"><ele>-1.0</ele><time>2026-04-15T09:54:15.278Z</time></trkpt><trkpt lat="45.3082019" lon="12.1320954"><ele>-1.0</ele><time>2026-04-15T09:54:16.278Z</time></trkpt><trkpt lat="45.3079982" lon="12.1320782"><ele>-1.0</ele><time>2026-04-15T09:54:17.271Z</time></trkpt><trkpt lat="45.3077936" lon="12.1320577"><ele>-1.0</ele><time>2026-04-15T09:54:18.274Z</time></trkpt><trkpt lat="45.3075911" lon="12.1320366"><ele>-1.0</ele><time>2026-04-15T09:54:19.26Z</time></trkpt><trkpt lat="45.3073875" lon="12.1320134"><ele>-1.6666666666666665</ele><time>2026-04-15T09:54:20.28Z</time></trkpt><trkpt lat="45.3071827" lon="12.1319884"><ele>-2.3333333333333335</ele><time>2026-04-15T09:54:21.265Z</time></trkpt><trkpt lat="45.3069762" lon="12.1319659"><ele>-3.0</ele><time>2026-04-15T09:54:22.264Z</time></trkpt><trkpt lat="45.306769" lon="12.1319465"><ele>-3.0</ele><time>2026-04-15T09:54:23.267Z</time></trkpt><trkpt lat="45.3065611" lon="12.131931"><ele>-3.0</ele><time>2026-04-15T09:54:24.272Z</time></trkpt><trkpt lat="45.3063488" lon="12.1319148"><ele>-3.0</ele><time>2026-04-15T09:54:25.266Z</time></trkpt><trkpt lat="45.3061359" lon="12.1318935"><ele>-2.6666666666666665</ele><time>2026-04-15T09:54:26.26Z</time></trkpt><trkpt lat="45.3059228" lon="12.131873"><ele>-2.333333333333333</ele><time>2026-04-15T09:54:27.26Z</time></trkpt><trkpt lat="45.3057049" lon="12.1318518"><ele>-2.0</ele><time>2026-04-15T09:54:28.264Z</time></trkpt><trkpt lat="45.3054908" lon="12.1318338"><ele>-2.0</ele><time>2026-04-15T09:54:29.26Z</time></trkpt><trkpt lat="45.3052715" lon="12.1318125"><ele>-2.0</ele><time>2026-04-15T09:54:30.272Z</time></trkpt><trkpt lat="45.3050515" lon="12.1317931"><ele>-2.0</ele><time>2026-04-15T09:54:31.279Z</time></trkpt><trkpt lat="45.3048281" lon="12.1317784"><ele>-2.5</ele><time>2026-04-15T09:54:32.28Z</time></trkpt><trkpt lat="45.3045999" lon="12.1317584"><ele>-3.0</ele><time>2026-04-15T09:54:33.284Z</time></trkpt><trkpt lat="45.3043729" lon="12.1317391"><ele>-3.0</ele><time>2026-04-15T09:54:34.264Z</time></trkpt><trkpt lat="45.3041443" lon="12.1317183"><ele>-3.0</ele><time>2026-04-15T09:54:35.272Z</time></trkpt><trkpt lat="45.3039161" lon="12.1316938"><ele>-2.0</ele><time>2026-04-15T09:54:36.262Z</time></trkpt><trkpt lat="45.3036865" lon="12.1316747"><ele>-1.0</ele><time>2026-04-15T09:54:37.287Z</time></trkpt><trkpt lat="45.3034593" lon="12.1316497"><ele>-1.0</ele><time>2026-04-15T09:54:38.256Z</time></trkpt><trkpt lat="45.3032337" lon="12.131625"><ele>-1.0</ele><time>2026-04-15T09:54:39.291Z</time></trkpt><trkpt lat="45.3030071" lon="12.1316024"><ele>-1.0</ele><time>2026-04-15T09:54:40.272Z</time></trkpt><trkpt lat="45.3027825" lon="12.1315816"><ele>-1.0</ele><time>2026-04-15T09:54:41.268Z</time></trkpt><trkpt lat="45.3025549" lon="12.1315595"><ele>-1.3333333333333333</ele><time>2026-04-15T09:54:42.252Z</time></trkpt><trkpt lat="45.3023316" lon="12.1315419"><ele>-1.6666666666666665</ele><time>2026-04-15T09:54:43.262Z</time></trkpt><trkpt lat="45.3021093" lon="12.1315229"><ele>-2.0</ele><time>2026-04-15T09:54:44.271Z</time></trkpt><trkpt lat="45.3018862" lon="12.1315005"><ele>-2.0</ele><time>2026-04-15T09:54:45.265Z</time></trkpt><trkpt lat="45.3016645" lon="12.131477"><ele>-2.0</ele><time>2026-04-15T09:54:46.258Z</time></trkpt><trkpt lat="45.3014444" lon="12.1314556"><ele>-2.0</ele><time>2026-04-15T09:54:47.259Z</time></trkpt><trkpt lat="45.3012248" lon="12.131438"><ele>-2.0</ele><time>2026-04-15T09:54:48.269Z</time></trkpt><trkpt lat="45.3010091" lon="12.1314196"><ele>-2.0</ele><time>2026-04-15T09:54:49.27Z</time></trkpt><trkpt lat="45.3007949" lon="12.1313963"><ele>-2.0</ele><time>2026-04-15T09:54:50.254Z</time></trkpt><trkpt lat="45.3005792" lon="12.1313779"><ele>-1.6666666666666665</ele><time>2026-04-15T09:54:51.28Z</time></trkpt><trkpt lat="45.3003637" lon="12.131361"><ele>-1.3333333333333333</ele><time>2026-04-15T09:54:52.264Z</time></trkpt><trkpt lat="45.3001474" lon="12.1313419"><ele>-1.0</ele><time>2026-04-15T09:54:53.27Z</time></trkpt><trkpt lat="45.2999361" lon="12.1313141"><ele>-1.0</ele><time>2026-04-15T09:54:54.251Z</time></trkpt><trkpt lat="45.2997237" lon="12.1312916"><ele>-1.0</ele><time>2026-04-15T09:54:55.25Z</time></trkpt><trkpt lat="45.2995111" lon="12.1312715"><ele>-1.0</ele><time>2026-04-15T09:54:56.267Z</time></trkpt><trkpt lat="45.2992984" lon="12.1312531"><ele>-1.0</ele><time>2026-04-15T09:54:57.286Z</time></trkpt><trkpt lat="45.2990902" lon="12.1312366"><ele>-1.0</ele><time>2026-04-15T09:54:58.28Z</time></trkpt><trkpt lat="45.298881" lon="12.1312181"><ele>-1.0</ele><time>2026-04-15T09:54:59.279Z</time></trkpt><trkpt lat="45.2986682" lon="12.1311964"><ele>-1.3333333333333333</ele><time>2026-04-15T09:55:00.256Z</time></trkpt><trkpt lat="45.2984582" lon="12.1311772"><ele>-1.6666666666666665</ele><time>2026-04-15T09:55:01.274Z</time></trkpt><trkpt lat="45.2982455" lon="12.1311598"><ele>-2.0</ele><time>2026-04-15T09:55:02.267Z</time></trkpt><trkpt lat="45.2980301" lon="12.1311409"><ele>-2.333333333333333</ele><time>2026-04-15T09:55:03.264Z</time></trkpt><trkpt lat="45.2978106" lon="12.131124"><ele>-2.6666666666666665</ele><time>2026-04-15T09:55:04.279Z</time></trkpt><trkpt lat="45.2975889" lon="12.1311016"><ele>-3.0</ele><time>2026-04-15T09:55:05.261Z</time></trkpt><trkpt lat="45.2973671" lon="12.1310788"><ele>-1.5</ele><time>2026-04-15T09:55:06.252Z</time></trkpt><trkpt lat="45.297143" lon="12.131059"><ele>0.0</ele><time>2026-04-15T09:55:07.287Z</time></trkpt><trkpt lat="45.2969182" lon="12.1310441"><ele>0.0</ele><time>2026-04-15T09:55:08.28Z</time></trkpt><trkpt lat="45.2966921" lon="12.1310316"><ele>0.0</ele><time>2026-04-15T09:55:09.278Z</time></trkpt><trkpt lat="45.296449" lon="12.131018"><ele>-0.5</ele><time>2026-04-15T09:55:10.271Z</time></trkpt><trkpt lat="45.2961898" lon="12.1309966"><ele>-1.0</ele><time>2026-04-15T09:55:11.279Z</time></trkpt><trkpt lat="45.2959318" lon="12.13097"><ele>-1.0</ele><time>2026-04-15T09:55:12.26Z</time></trkpt><trkpt lat="45.295691" lon="12.1309537"><ele>-1.0</ele><time>2026-04-15T09:55:13.25Z</time></trkpt><trkpt lat="45.2954665" lon="12.1309353"><ele>-1.3333333333333333</ele><time>2026-04-15T09:55:14.283Z</time></trkpt><trkpt lat="45.2952513" lon="12.1309124"><ele>-1.6666666666666665</ele><time>2026-04-15T09:55:15.274Z</time></trkpt><trkpt lat="45.2950415" lon="12.1308908"><ele>-2.0</ele><time>2026-04-15T09:55:16.266Z</time></trkpt><trkpt lat="45.294842" lon="12.1308742"><ele>-1.6666666666666665</ele><time>2026-04-15T09:55:17.281Z</time></trkpt><trkpt lat="45.2946537" lon="12.1308546"><ele>-1.3333333333333333</ele><time>2026-04-15T09:55:18.253Z</time></trkpt><trkpt lat="45.2944633" lon="12.1308388"><ele>-1.0</ele><time>2026-04-15T09:55:19.278Z</time></trkpt><trkpt lat="45.2942739" lon="12.1308192"><ele>-1.0</ele><time>2026-04-15T09:55:20.278Z</time></trkpt><trkpt lat="45.2940846" lon="12.1307985"><ele>-1.0</ele><time>2026-04-15T09:55:21.247Z</time></trkpt><trkpt lat="45.293894" lon="12.1307826"><ele>-1.0</ele><time>2026-04-15T09:55:22.255Z</time></trkpt><trkpt lat="45.2936996" lon="12.1307612"><ele>-1.0</ele><time>2026-04-15T09:55:23.258Z</time></trkpt><trkpt lat="45.2935024" lon="12.1307467"><ele>-1.0</ele><time>2026-04-15T09:55:24.26Z</time></trkpt><trkpt lat="45.293304" lon="12.1307276"><ele>-1.0</ele><time>2026-04-15T09:55:25.243Z</time></trkpt><trkpt lat="45.2931048" lon="12.130709"><ele>-1.0</ele><time>2026-04-15T09:55:26.274Z</time></trkpt><trkpt lat="45.2929095" lon="12.1306919"><ele>-1.0</ele><time>2026-04-15T09:55:27.264Z</time></trkpt><trkpt lat="45.292714" lon="12.1306741"><ele>-1.0</ele><time>2026-04-15T09:55:28.272Z</time></trkpt><trkpt lat="45.2925204" lon="12.1306613"><ele>-1.0</ele><time>2026-04-15T09:55:29.259Z</time></trkpt><trkpt lat="45.2923296" lon="12.130645"><ele>-1.0</ele><time>2026-04-15T09:55:30.269Z</time></trkpt><trkpt lat="45.29214" lon="12.1306269"><ele>-1.0</ele><time>2026-04-15T09:55:31.247Z</time></trkpt><trkpt lat="45.2919495" lon="12.1306102"><ele>-1.0</ele><time>2026-04-15T09:55:32.262Z</time></trkpt><trkpt lat="45.2917515" lon="12.1305915"><ele>-1.0</ele><time>2026-04-15T09:55:33.263Z</time></trkpt><trkpt lat="45.2915502" lon="12.1305772"><ele>-1.0</ele><time>2026-04-15T09:55:34.25Z</time></trkpt><trkpt lat="45.2913578" lon="12.1305592"><ele>-1.0</ele><time>2026-04-15T09:55:35.261Z</time></trkpt><trkpt lat="45.2911676" lon="12.1305451"><ele>-1.0</ele><time>2026-04-15T09:55:36.257Z</time></trkpt><trkpt lat="45.2909885" lon="12.1305249"><ele>-1.0</ele><time>2026-04-15T09:55:37.276Z</time></trkpt><trkpt lat="45.2908178" lon="12.130511"><ele>-1.0</ele><time>2026-04-15T09:55:38.271Z</time></trkpt><trkpt lat="45.2906517" lon="12.1304911"><ele>-1.0</ele><time>2026-04-15T09:55:39.25Z</time></trkpt><trkpt lat="45.2904873" lon="12.1304675"><ele>-1.0</ele><time>2026-04-15T09:55:40.258Z</time></trkpt><trkpt lat="45.2903166" lon="12.1304471"><ele>-1.0</ele><time>2026-04-15T09:55:41.265Z</time></trkpt><trkpt lat="45.2901451" lon="12.1304254"><ele>-1.0</ele><time>2026-04-15T09:55:42.252Z</time></trkpt><trkpt lat="45.2899698" lon="12.130407"><ele>-1.0</ele><time>2026-04-15T09:55:43.255Z</time></trkpt><trkpt lat="45.2897949" lon="12.130388"><ele>-0.3333333333333333</ele><time>2026-04-15T09:55:44.274Z</time></trkpt><trkpt lat="45.2896147" lon="12.1303713"><ele>0.3333333333333333</ele><time>2026-04-15T09:55:45.263Z</time></trkpt><trkpt lat="45.2894267" lon="12.1303525"><ele>1.0</ele><time>2026-04-15T09:55:46.247Z</time></trkpt><trkpt lat="45.2892204" lon="12.1303323"><ele>1.0</ele><time>2026-04-15T09:55:47.262Z</time></trkpt><trkpt lat="45.2889952" lon="12.1303121"><ele>1.0</ele><time>2026-04-15T09:55:48.27Z</time></trkpt><trkpt lat="45.2887662" lon="12.1302929"><ele>-0.5</ele><time>2026-04-15T09:55:49.252Z</time></trkpt><trkpt lat="45.2883401" lon="12.130258"><ele>-2.0</ele><time>2026-04-15T09:55:51.276Z</time></trkpt><trkpt lat="45.2881433" lon="12.1302501"><ele>-1.5</ele><time>2026-04-15T09:55:52.274Z</time></trkpt><trkpt lat="45.2879631" lon="12.1302337"><ele>-1.0</ele><time>2026-04-15T09:55:53.259Z</time></trkpt><trkpt lat="45.2876285" lon="12.1302083"><ele>-1.0</ele><time>2026-04-15T09:55:55.268Z</time></trkpt><trkpt lat="45.2874822" lon="12.1301978"><ele>-1.0</ele><time>2026-04-15T09:55:56.251Z</time></trkpt><trkpt lat="45.2873323" lon="12.1301875"><ele>-1.0</ele><time>2026-04-15T09:55:57.288Z</time></trkpt><trkpt lat="45.287168" lon="12.1301793"><ele>-0.6666666666666666</ele><time>2026-04-15T09:55:58.25Z</time></trkpt><trkpt lat="45.2869843" lon="12.1301591"><ele>-0.3333333333333333</ele><time>2026-04-15T09:55:59.272Z</time></trkpt><trkpt lat="45.2867944" lon="12.1301337"><ele>0.0</ele><time>2026-04-15T09:56:00.257Z</time></trkpt><trkpt lat="45.2866049" lon="12.1301093"><ele>-0.6666666666666666</ele><time>2026-04-15T09:56:01.265Z</time></trkpt><trkpt lat="45.2864144" lon="12.1300917"><ele>-1.3333333333333333</ele><time>2026-04-15T09:56:02.267Z</time></trkpt><trkpt lat="45.2862324" lon="12.130075"><ele>-2.0</ele><time>2026-04-15T09:56:03.27Z</time></trkpt><trkpt lat="45.2860553" lon="12.1300568"><ele>-2.0</ele><time>2026-04-15T09:56:04.258Z</time></trkpt><trkpt lat="45.2858789" lon="12.1300393"><ele>-2.0</ele><time>2026-04-15T09:56:05.259Z</time></trkpt><trkpt lat="45.285711" lon="12.1300217"><ele>-2.0</ele><time>2026-04-15T09:56:06.268Z</time></trkpt><trkpt lat="45.2855417" lon="12.1300004"><ele>-2.0</ele><time>2026-04-15T09:56:07.247Z</time></trkpt><trkpt lat="45.2853758" lon="12.129981"><ele>-2.0</ele><time>2026-04-15T09:56:08.244Z</time></trkpt><trkpt lat="45.2852105" lon="12.1299578"><ele>-2.0</ele><time>2026-04-15T09:56:09.265Z</time></trkpt><trkpt lat="45.2850452" lon="12.1299446"><ele>-2.0</ele><time>2026-04-15T09:56:10.277Z</time></trkpt><trkpt lat="45.2848778" lon="12.1299298"><ele>-2.0</ele><time>2026-04-15T09:56:11.256Z</time></trkpt><trkpt lat="45.2847069" lon="12.1299206"><ele>-2.0</ele><time>2026-04-15T09:56:12.256Z</time></trkpt><trkpt lat="45.2845341" lon="12.1299071"><ele>-1.6666666666666665</ele><time>2026-04-15T09:56:13.275Z</time></trkpt><trkpt lat="45.2843613" lon="12.129894"><ele>-1.3333333333333333</ele><time>2026-04-15T09:56:14.245Z</time></trkpt><trkpt lat="45.2841881" lon="12.1298778"><ele>-1.0</ele><time>2026-04-15T09:56:15.257Z</time></trkpt><trkpt lat="45.2840156" lon="12.1298622"><ele>-1.3333333333333333</ele><time>2026-04-15T09:56:16.246Z</time></trkpt><trkpt lat="45.2838475" lon="12.1298469"><ele>-1.6666666666666665</ele><time>2026-04-15T09:56:17.274Z</time></trkpt><trkpt lat="45.2836803" lon="12.1298201"><ele>-2.0</ele><time>2026-04-15T09:56:18.269Z</time></trkpt><trkpt lat="45.2835175" lon="12.1298026"><ele>-2.0</ele><time>2026-04-15T09:56:19.259Z</time></trkpt><trkpt lat="45.2833494" lon="12.1297861"><ele>-2.0</ele><time>2026-04-15T09:56:20.261Z</time></trkpt><trkpt lat="45.2831806" lon="12.1297736"><ele>-2.0</ele><time>2026-04-15T09:56:21.274Z</time></trkpt><trkpt lat="45.2830109" lon="12.1297611"><ele>-2.0</ele><time>2026-04-15T09:56:22.263Z</time></trkpt><trkpt lat="45.2828366" lon="12.1297432"><ele>-2.0</ele><time>2026-04-15T09:56:23.25Z</time></trkpt><trkpt lat="45.2826654" lon="12.1297266"><ele>-2.0</ele><time>2026-04-15T09:56:24.269Z</time></trkpt><trkpt lat="45.2824816" lon="12.1297107"><ele>-2.0</ele><time>2026-04-15T09:56:25.253Z</time></trkpt><trkpt lat="45.282284" lon="12.1296951"><ele>-2.0</ele><time>2026-04-15T09:56:26.257Z</time></trkpt><trkpt lat="45.2820698" lon="12.1296734"><ele>-2.0</ele><time>2026-04-15T09:56:27.268Z</time></trkpt><trkpt lat="45.2818415" lon="12.1296384"><ele>-1.3333333333333333</ele><time>2026-04-15T09:56:28.254Z</time></trkpt><trkpt lat="45.2816156" lon="12.1296178"><ele>-0.6666666666666666</ele><time>2026-04-15T09:56:29.267Z</time></trkpt><trkpt lat="45.2813976" lon="12.1295979"><ele>0.0</ele><time>2026-04-15T09:56:30.253Z</time></trkpt><trkpt lat="45.2811745" lon="12.1295828"><ele>0.5</ele><time>2026-04-15T09:56:31.275Z</time></trkpt><trkpt lat="45.2809406" lon="12.1295631"><ele>1.0</ele><time>2026-04-15T09:56:32.263Z</time></trkpt><trkpt lat="45.2806902" lon="12.1295488"><ele>0.0</ele><time>2026-04-15T09:56:33.261Z</time></trkpt><trkpt lat="45.2804361" lon="12.129524"><ele>-1.0</ele><time>2026-04-15T09:56:34.266Z</time></trkpt><trkpt lat="45.2801777" lon="12.1294993"><ele>-1.0</ele><time>2026-04-15T09:56:35.268Z</time></trkpt><trkpt lat="45.2799287" lon="12.1294703"><ele>-1.0</ele><time>2026-04-15T09:56:36.258Z</time></trkpt><trkpt lat="45.2797021" lon="12.1294484"><ele>-0.6666666666666666</ele><time>2026-04-15T09:56:37.274Z</time></trkpt><trkpt lat="45.2794874" lon="12.1294403"><ele>-0.3333333333333333</ele><time>2026-04-15T09:56:38.256Z</time></trkpt><trkpt lat="45.2792807" lon="12.1294194"><ele>0.0</ele><time>2026-04-15T09:56:39.249Z</time></trkpt><trkpt lat="45.2790721" lon="12.1293998"><ele>-1.0</ele><time>2026-04-15T09:56:40.267Z</time></trkpt><trkpt lat="45.2788636" lon="12.129384"><ele>-2.0</ele><time>2026-04-15T09:56:41.261Z</time></trkpt><trkpt lat="45.2786567" lon="12.1293661"><ele>-3.0</ele><time>2026-04-15T09:56:42.252Z</time></trkpt><trkpt lat="45.2784322" lon="12.1293512"><ele>-3.0</ele><time>2026-04-15T09:56:43.261Z</time></trkpt><trkpt lat="45.2781982" lon="12.1293363"><ele>-3.0</ele><time>2026-04-15T09:56:44.254Z</time></trkpt><trkpt lat="45.2779591" lon="12.1293114"><ele>-2.5</ele><time>2026-04-15T09:56:45.253Z</time></trkpt><trkpt lat="45.2777162" lon="12.1292866"><ele>-2.0</ele><time>2026-04-15T09:56:46.263Z</time></trkpt><trkpt lat="45.2774762" lon="12.1292485"><ele>-1.5</ele><time>2026-04-15T09:56:47.261Z</time></trkpt><trkpt lat="45.2772353" lon="12.1292015"><ele>-1.0</ele><time>2026-04-15T09:56:48.257Z</time></trkpt><trkpt lat="45.2770009" lon="12.1291741"><ele>-1.0</ele><time>2026-04-15T09:56:49.255Z</time></trkpt><trkpt lat="45.2767693" lon="12.1291569"><ele>-1.0</ele><time>2026-04-15T09:56:50.251Z</time></trkpt><trkpt lat="45.2765308" lon="12.1291321"><ele>-1.5</ele><time>2026-04-15T09:56:51.256Z</time></trkpt><trkpt lat="45.2762991" lon="12.1291069"><ele>-2.0</ele><time>2026-04-15T09:56:52.252Z</time></trkpt><trkpt lat="45.2760651" lon="12.1290831"><ele>1.0</ele><time>2026-04-15T09:56:53.272Z</time></trkpt><trkpt lat="45.2756006" lon="12.1290442"><ele>1.0</ele><time>2026-04-15T09:56:55.24Z</time></trkpt><trkpt lat="45.2753629" lon="12.1290241"><ele>1.0</ele><time>2026-04-15T09:56:56.242Z</time></trkpt><trkpt lat="45.2751293" lon="12.1289985"><ele>1.0</ele><time>2026-04-15T09:56:57.287Z</time></trkpt><trkpt lat="45.2748957" lon="12.1289763"><ele>1.0</ele><time>2026-04-15T09:56:58.26Z</time></trkpt><trkpt lat="45.274664" lon="12.128956"><ele>0.0</ele><time>2026-04-15T09:56:59.273Z</time></trkpt><trkpt lat="45.2744316" lon="12.1289378"><ele>-1.0</ele><time>2026-04-15T09:57:00.265Z</time></trkpt><trkpt lat="45.2741988" lon="12.1289187"><ele>-1.0</ele><time>2026-04-15T09:57:01.253Z</time></trkpt><trkpt lat="45.2739697" lon="12.1288943"><ele>-1.0</ele><time>2026-04-15T09:57:02.254Z</time></trkpt><trkpt lat="45.2737358" lon="12.1288744"><ele>-2.0</ele><time>2026-04-15T09:57:03.256Z</time></trkpt><trkpt lat="45.273503" lon="12.1288503"><ele>-3.0</ele><time>2026-04-15T09:57:04.247Z</time></trkpt><trkpt lat="45.2732686" lon="12.1288293"><ele>-1.5</ele><time>2026-04-15T09:57:05.262Z</time></trkpt><trkpt lat="45.2730264" lon="12.1288108"><ele>0.0</ele><time>2026-04-15T09:57:06.252Z</time></trkpt><trkpt lat="45.2727844" lon="12.1287896"><ele>0.0</ele><time>2026-04-15T09:57:07.246Z</time></trkpt><trkpt lat="45.2725471" lon="12.1287623"><ele>0.0</ele><time>2026-04-15T09:57:08.28Z</time></trkpt><trkpt lat="45.272303" lon="12.1287412"><ele>-0.5</ele><time>2026-04-15T09:57:09.249Z</time></trkpt><trkpt lat="45.2720646" lon="12.1287209"><ele>-1.0</ele><time>2026-04-15T09:57:10.257Z</time></trkpt><trkpt lat="45.2718282" lon="12.1287022"><ele>-1.0</ele><time>2026-04-15T09:57:11.27Z</time></trkpt><trkpt lat="45.2715924" lon="12.1286798"><ele>-1.0</ele><time>2026-04-15T09:57:12.255Z</time></trkpt><trkpt lat="45.2713644" lon="12.1286583"><ele>0.0</ele><time>2026-04-15T09:57:13.256Z</time></trkpt><trkpt lat="45.2711386" lon="12.1286406"><ele>1.0</ele><time>2026-04-15T09:57:14.256Z</time></trkpt><trkpt lat="45.2709102" lon="12.1286172"><ele>1.0</ele><time>2026-04-15T09:57:15.25Z</time></trkpt><trkpt lat="45.2706839" lon="12.1285955"><ele>1.0</ele><time>2026-04-15T09:57:16.255Z</time></trkpt><trkpt lat="45.2704502" lon="12.128577"><ele>-0.5</ele><time>2026-04-15T09:57:17.25Z</time></trkpt><trkpt lat="45.2702147" lon="12.1285579"><ele>-2.0</ele><time>2026-04-15T09:57:18.252Z</time></trkpt><trkpt lat="45.2699769" lon="12.1285353"><ele>-1.0</ele><time>2026-04-15T09:57:19.245Z</time></trkpt><trkpt lat="45.2697436" lon="12.1285089"><ele>0.0</ele><time>2026-04-15T09:57:20.259Z</time></trkpt><trkpt lat="45.2695063" lon="12.1284827"><ele>0.0</ele><time>2026-04-15T09:57:21.251Z</time></trkpt><trkpt lat="45.2692673" lon="12.1284586"><ele>0.0</ele><time>2026-04-15T09:57:22.24Z</time></trkpt><trkpt lat="45.2690304" lon="12.128438"><ele>0.0</ele><time>2026-04-15T09:57:23.26Z</time></trkpt><trkpt lat="45.268794" lon="12.1284201"><ele>0.0</ele><time>2026-04-15T09:57:24.258Z</time></trkpt><trkpt lat="45.2685583" lon="12.1283972"><ele>0.0</ele><time>2026-04-15T09:57:25.254Z</time></trkpt><trkpt lat="45.26832" lon="12.1283742"><ele>0.0</ele><time>2026-04-15T09:57:26.247Z</time></trkpt><trkpt lat="45.2680814" lon="12.128352"><ele>-0.5</ele><time>2026-04-15T09:57:27.252Z</time></trkpt><trkpt lat="45.2678407" lon="12.1283279"><ele>-1.0</ele><time>2026-04-15T09:57:28.252Z</time></trkpt><trkpt lat="45.2676015" lon="12.1283108"><ele>-1.0</ele><time>2026-04-15T09:57:29.249Z</time></trkpt><trkpt lat="45.267363" lon="12.1282904"><ele>-1.0</ele><time>2026-04-15T09:57:30.252Z</time></trkpt><trkpt lat="45.2671242" lon="12.1282662"><ele>-1.0</ele><time>2026-04-15T09:57:31.24Z</time></trkpt><trkpt lat="45.2668866" lon="12.1282446"><ele>-1.0</ele><time>2026-04-15T09:57:32.272Z</time></trkpt><trkpt lat="45.2666491" lon="12.1282204"><ele>-1.0</ele><time>2026-04-15T09:57:33.265Z</time></trkpt><trkpt lat="45.2664106" lon="12.1281989"><ele>-1.0</ele><time>2026-04-15T09:57:34.251Z</time></trkpt><trkpt lat="45.2661731" lon="12.1281709"><ele>-1.0</ele><time>2026-04-15T09:57:35.255Z</time></trkpt><trkpt lat="45.2659325" lon="12.1281463"><ele>-1.0</ele><time>2026-04-15T09:57:36.246Z</time></trkpt><trkpt lat="45.2656914" lon="12.1281239"><ele>-1.0</ele><time>2026-04-15T09:57:37.261Z</time></trkpt><trkpt lat="45.2654532" lon="12.1281044"><ele>-1.0</ele><time>2026-04-15T09:57:38.25Z</time></trkpt><trkpt lat="45.2652159" lon="12.1280855"><ele>-1.0</ele><time>2026-04-15T09:57:39.237Z</time></trkpt><trkpt lat="45.2649785" lon="12.1280619"><ele>-1.0</ele><time>2026-04-15T09:57:40.247Z</time></trkpt><trkpt lat="45.264742" lon="12.1280396"><ele>-1.0</ele><time>2026-04-15T09:57:41.259Z</time></trkpt><trkpt lat="45.2645057" lon="12.1280188"><ele>-1.0</ele><time>2026-04-15T09:57:42.249Z</time></trkpt><trkpt lat="45.264263" lon="12.1279938"><ele>-1.0</ele><time>2026-04-15T09:57:43.261Z</time></trkpt><trkpt lat="45.2640276" lon="12.1279678"><ele>-1.0</ele><time>2026-04-15T09:57:44.251Z</time></trkpt><trkpt lat="45.2637944" lon="12.1279399"><ele>-1.5</ele><time>2026-04-15T09:57:45.247Z</time></trkpt><trkpt lat="45.2635604" lon="12.1279213"><ele>-2.0</ele><time>2026-04-15T09:57:46.261Z</time></trkpt><trkpt lat="45.2633274" lon="12.1279021"><ele>-1.0</ele><time>2026-04-15T09:57:47.236Z</time></trkpt><trkpt lat="45.2630919" lon="12.1278917"><ele>0.0</ele><time>2026-04-15T09:57:48.257Z</time></trkpt><trkpt lat="45.2628536" lon="12.1278988"><ele>0.0</ele><time>2026-04-15T09:57:49.255Z</time></trkpt><trkpt lat="45.262615" lon="12.1279191"><ele>0.0</ele><time>2026-04-15T09:57:50.257Z</time></trkpt><trkpt lat="45.2623759" lon="12.1279355"><ele>1.0</ele><time>2026-04-15T09:57:51.246Z</time></trkpt><trkpt lat="45.2621356" lon="12.127956"><ele>2.0</ele><time>2026-04-15T09:57:52.247Z</time></trkpt><trkpt lat="45.2618973" lon="12.127966"><ele>2.0</ele><time>2026-04-15T09:57:53.25Z</time></trkpt><trkpt lat="45.2616602" lon="12.1279757"><ele>2.0</ele><time>2026-04-15T09:57:54.248Z</time></trkpt><trkpt lat="45.2614184" lon="12.1279913"><ele>1.5</ele><time>2026-04-15T09:57:55.243Z</time></trkpt><trkpt lat="45.2611697" lon="12.1280072"><ele>1.0</ele><time>2026-04-15T09:57:56.26Z</time></trkpt><trkpt lat="45.2609227" lon="12.1280205"><ele>1.0</ele><time>2026-04-15T09:57:57.232Z</time></trkpt><trkpt lat="45.2606772" lon="12.1280327"><ele>1.0</ele><time>2026-04-15T09:57:58.256Z</time></trkpt><trkpt lat="45.2604387" lon="12.128046"><ele>0.5</ele><time>2026-04-15T09:57:59.262Z</time></trkpt><trkpt lat="45.2602027" lon="12.1280594"><ele>0.0</ele><time>2026-04-15T09:58:00.249Z</time></trkpt><trkpt lat="45.2599651" lon="12.1280732"><ele>-0.5</ele><time>2026-04-15T09:58:01.265Z</time></trkpt><trkpt lat="45.2597297" lon="12.1280862"><ele>-1.0</ele><time>2026-04-15T09:58:02.253Z</time></trkpt><trkpt lat="45.2594922" lon="12.1280976"><ele>-1.0</ele><time>2026-04-15T09:58:03.238Z</time></trkpt><trkpt lat="45.2592534" lon="12.1281057"><ele>-1.0</ele><time>2026-04-15T09:58:04.244Z</time></trkpt><trkpt lat="45.2590154" lon="12.1281155"><ele>-1.0</ele><time>2026-04-15T09:58:05.26Z</time></trkpt><trkpt lat="45.2587732" lon="12.128128"><ele>-1.0</ele><time>2026-04-15T09:58:06.257Z</time></trkpt><trkpt lat="45.2585277" lon="12.1281321"><ele>-1.0</ele><time>2026-04-15T09:58:07.254Z</time></trkpt><trkpt lat="45.2582859" lon="12.1281405"><ele>-1.0</ele><time>2026-04-15T09:58:08.266Z</time></trkpt><trkpt lat="45.2580449" lon="12.1281554"><ele>-1.5</ele><time>2026-04-15T09:58:09.248Z</time></trkpt><trkpt lat="45.2578047" lon="12.1281721"><ele>-2.0</ele><time>2026-04-15T09:58:10.239Z</time></trkpt><trkpt lat="45.2575676" lon="12.1281883"><ele>-2.0</ele><time>2026-04-15T09:58:11.231Z</time></trkpt><trkpt lat="45.2573335" lon="12.1282142"><ele>-2.0</ele><time>2026-04-15T09:58:12.249Z</time></trkpt><trkpt lat="45.2571038" lon="12.1282602"><ele>-2.0</ele><time>2026-04-15T09:58:13.255Z</time></trkpt><trkpt lat="45.2568759" lon="12.128327"><ele>-2.0</ele><time>2026-04-15T09:58:14.255Z</time></trkpt><trkpt lat="45.2566565" lon="12.1284291"><ele>-2.0</ele><time>2026-04-15T09:58:15.255Z</time></trkpt><trkpt lat="45.2564432" lon="12.1285469"><ele>-2.0</ele><time>2026-04-15T09:58:16.252Z</time></trkpt><trkpt lat="45.2562359" lon="12.1286803"><ele>-2.0</ele><time>2026-04-15T09:58:17.255Z</time></trkpt><trkpt lat="45.2560347" lon="12.128823"><ele>-2.0</ele><time>2026-04-15T09:58:18.258Z</time></trkpt><trkpt lat="45.2558414" lon="12.1289846"><ele>-2.0</ele><time>2026-04-15T09:58:19.236Z</time></trkpt><trkpt lat="45.2556562" lon="12.1291653"><ele>-2.5</ele><time>2026-04-15T09:58:20.256Z</time></trkpt><trkpt lat="45.2554706" lon="12.1293597"><ele>-3.0</ele><time>2026-04-15T09:58:21.248Z</time></trkpt><trkpt lat="45.2552838" lon="12.1295591"><ele>-3.0</ele><time>2026-04-15T09:58:22.275Z</time></trkpt><trkpt lat="45.2550988" lon="12.1297541"><ele>-3.0</ele><time>2026-04-15T09:58:23.262Z</time></trkpt><trkpt lat="45.2549125" lon="12.1299463"><ele>-2.5</ele><time>2026-04-15T09:58:24.268Z</time></trkpt><trkpt lat="45.2547286" lon="12.1301363"><ele>-2.0</ele><time>2026-04-15T09:58:25.25Z</time></trkpt><trkpt lat="45.2545498" lon="12.1303281"><ele>-2.0</ele><time>2026-04-15T09:58:26.25Z</time></trkpt><trkpt lat="45.2543789" lon="12.1305158"><ele>-2.0</ele><time>2026-04-15T09:58:27.25Z</time></trkpt><trkpt lat="45.2542188" lon="12.1306863"><ele>-2.0</ele><time>2026-04-15T09:58:28.229Z</time></trkpt><trkpt lat="45.2539716" lon="12.1308753"><ele>-1.75</ele><time>2026-04-15T09:58:30.242Z</time></trkpt><trkpt lat="45.2538477" lon="12.130862"><ele>-1.5</ele><time>2026-04-15T09:58:31.269Z</time></trkpt><trkpt lat="45.2537034" lon="12.1308135"><ele>-1.25</ele><time>2026-04-15T09:58:32.232Z</time></trkpt><trkpt lat="45.2535547" lon="12.1307243"><ele>-1.0</ele><time>2026-04-15T09:58:33.245Z</time></trkpt><trkpt lat="45.2533933" lon="12.1306216"><ele>-1.0</ele><time>2026-04-15T09:58:34.238Z</time></trkpt><trkpt lat="45.2532173" lon="12.130491"><ele>-1.0</ele><time>2026-04-15T09:58:35.257Z</time></trkpt><trkpt lat="45.2530323" lon="12.130345"><ele>-1.0</ele><time>2026-04-15T09:58:36.24Z</time></trkpt><trkpt lat="45.2528325" lon="12.1301963"><ele>-1.0</ele><time>2026-04-15T09:58:37.247Z</time></trkpt><trkpt lat="45.2526171" lon="12.130036"><ele>-1.0</ele><time>2026-04-15T09:58:38.253Z</time></trkpt><trkpt lat="45.2524017" lon="12.1298769"><ele>-2.0</ele><time>2026-04-15T09:58:39.233Z</time></trkpt><trkpt lat="45.2521779" lon="12.1297119"><ele>-3.0</ele><time>2026-04-15T09:58:40.255Z</time></trkpt><trkpt lat="45.2519534" lon="12.1295456"><ele>-3.0</ele><time>2026-04-15T09:58:41.253Z</time></trkpt><trkpt lat="45.2517273" lon="12.1293787"><ele>-3.0</ele><time>2026-04-15T09:58:42.246Z</time></trkpt><trkpt lat="45.2515028" lon="12.1292058"><ele>-3.0</ele><time>2026-04-15T09:58:43.243Z</time></trkpt><trkpt lat="45.2512803" lon="12.1290338"><ele>-3.0</ele><time>2026-04-15T09:58:44.235Z</time></trkpt><trkpt lat="45.2510559" lon="12.1288618"><ele>-3.0</ele><time>2026-04-15T09:58:45.253Z</time></trkpt><trkpt lat="45.2508313" lon="12.1286928"><ele>-3.0</ele><time>2026-04-15T09:58:46.237Z</time></trkpt><trkpt lat="45.2506042" lon="12.1285209"><ele>-3.0</ele><time>2026-04-15T09:58:47.246Z</time></trkpt><trkpt lat="45.2503788" lon="12.1283542"><ele>-3.0</ele><time>2026-04-15T09:58:48.24Z</time></trkpt><trkpt lat="45.2501524" lon="12.1281896"><ele>-3.0</ele><time>2026-04-15T09:58:49.248Z</time></trkpt><trkpt lat="45.2499196" lon="12.1280257"><ele>-3.0</ele><time>2026-04-15T09:58:50.249Z</time></trkpt><trkpt lat="45.2496852" lon="12.1278713"><ele>-2.0</ele><time>2026-04-15T09:58:51.238Z</time></trkpt><trkpt lat="45.2494508" lon="12.1277318"><ele>-1.0</ele><time>2026-04-15T09:58:52.246Z</time></trkpt><trkpt lat="45.2492146" lon="12.1276021"><ele>-1.0</ele><time>2026-04-15T09:58:53.235Z</time></trkpt><trkpt lat="45.2489771" lon="12.1274866"><ele>-1.0</ele><time>2026-04-15T09:58:54.245Z</time></trkpt><trkpt lat="45.2487393" lon="12.1273723"><ele>-1.5</ele><time>2026-04-15T09:58:55.256Z</time></trkpt><trkpt lat="45.2485042" lon="12.1272731"><ele>-2.0</ele><time>2026-04-15T09:58:56.245Z</time></trkpt><trkpt lat="45.2482801" lon="12.1271853"><ele>-2.0</ele><time>2026-04-15T09:58:57.241Z</time></trkpt><trkpt lat="45.2480694" lon="12.1271041"><ele>-2.0</ele><time>2026-04-15T09:58:58.246Z</time></trkpt><trkpt lat="45.2478575" lon="12.1270298"><ele>-2.0</ele><time>2026-04-15T09:58:59.254Z</time></trkpt><trkpt lat="45.2476493" lon="12.1269531"><ele>-2.0</ele><time>2026-04-15T09:59:00.243Z</time></trkpt><trkpt lat="45.2474487" lon="12.1268788"><ele>-2.0</ele><time>2026-04-15T09:59:01.25Z</time></trkpt><trkpt lat="45.2472628" lon="12.1268021"><ele>-2.0</ele><time>2026-04-15T09:59:02.242Z</time></trkpt><trkpt lat="45.2470942" lon="12.1267405"><ele>-2.0</ele><time>2026-04-15T09:59:03.249Z</time></trkpt><trkpt lat="45.2469362" lon="12.1266774"><ele>-2.0</ele><time>2026-04-15T09:59:04.238Z</time></trkpt><trkpt lat="45.246792" lon="12.1266203"><ele>-2.0</ele><time>2026-04-15T09:59:05.245Z</time></trkpt><trkpt lat="45.2466619" lon="12.1265736"><ele>-2.0</ele><time>2026-04-15T09:59:06.252Z</time></trkpt><trkpt lat="45.2465513" lon="12.126534"><ele>-1.9999999999999998</ele><time>2026-04-15T09:59:07.238Z</time></trkpt><trkpt lat="45.2464689" lon="12.1265061"><ele>-2.0</ele><time>2026-04-15T09:59:08.26Z</time></trkpt><trkpt lat="45.2463941" lon="12.1264752"><ele>-2.0</ele><time>2026-04-15T09:59:10.247Z</time></trkpt><trkpt lat="45.246313" lon="12.126447"><ele>-2.0</ele><time>2026-04-15T09:59:49.243Z</time></trkpt><trkpt lat="45.2461992" lon="12.1263961"><ele>-1.9999999999999998</ele><time>2026-04-15T09:59:51.23Z</time></trkpt><trkpt lat="45.2461327" lon="12.126369"><ele>-2.0</ele><time>2026-04-15T09:59:52.241Z</time></trkpt><trkpt lat="45.2460636" lon="12.1263405"><ele>-1.8333333333333333</ele><time>2026-04-15T09:59:53.235Z</time></trkpt><trkpt lat="45.2459882" lon="12.1263138"><ele>-1.6666666666666665</ele><time>2026-04-15T09:59:54.24Z</time></trkpt><trkpt lat="45.2459138" lon="12.1262855"><ele>-1.5</ele><time>2026-04-15T09:59:55.253Z</time></trkpt><trkpt lat="45.2458302" lon="12.1262551"><ele>-1.3333333333333333</ele><time>2026-04-15T09:59:56.273Z</time></trkpt><trkpt lat="45.2457378" lon="12.1262235"><ele>-1.1666666666666665</ele><time>2026-04-15T09:59:57.243Z</time></trkpt><trkpt lat="45.2456355" lon="12.1261841"><ele>-1.0</ele><time>2026-04-15T09:59:58.247Z</time></trkpt><trkpt lat="45.2455288" lon="12.1261427"><ele>-0.75</ele><time>2026-04-15T09:59:59.247Z</time></trkpt><trkpt lat="45.2454241" lon="12.1261073"><ele>-0.5</ele><time>2026-04-15T10:00:00.228Z</time></trkpt><trkpt lat="45.2453147" lon="12.1260681"><ele>-0.25</ele><time>2026-04-15T10:00:01.245Z</time></trkpt><trkpt lat="45.2451966" lon="12.1260251"><ele>0.0</ele><time>2026-04-15T10:00:02.245Z</time></trkpt><trkpt lat="45.2450829" lon="12.1259816"><ele>0.0</ele><time>2026-04-15T10:00:03.238Z</time></trkpt><trkpt lat="45.2449712" lon="12.1259375"><ele>0.0</ele><time>2026-04-15T10:00:04.261Z</time></trkpt><trkpt lat="45.2448622" lon="12.1258867"><ele>0.0</ele><time>2026-04-15T10:00:05.239Z</time></trkpt><trkpt lat="45.2447519" lon="12.1258402"><ele>0.0</ele><time>2026-04-15T10:00:06.238Z</time></trkpt><trkpt lat="45.2446267" lon="12.1257961"><ele>0.0</ele><time>2026-04-15T10:00:07.247Z</time></trkpt><trkpt lat="45.2444966" lon="12.1257387"><ele>0.0</ele><time>2026-04-15T10:00:08.238Z</time></trkpt><trkpt lat="45.2443546" lon="12.1256703"><ele>0.0</ele><time>2026-04-15T10:00:09.237Z</time></trkpt><trkpt lat="45.2442074" lon="12.1255956"><ele>0.0</ele><time>2026-04-15T10:00:10.23Z</time></trkpt><trkpt lat="45.2440677" lon="12.12552"><ele>0.0</ele><time>2026-04-15T10:00:11.24Z</time></trkpt><trkpt lat="45.2439326" lon="12.125448"><ele>0.0</ele><time>2026-04-15T10:00:12.252Z</time></trkpt><trkpt lat="45.2438059" lon="12.1253829"><ele>0.0</ele><time>2026-04-15T10:00:13.24Z</time></trkpt><trkpt lat="45.2436884" lon="12.125316"><ele>0.0</ele><time>2026-04-15T10:00:14.228Z</time></trkpt><trkpt lat="45.2435771" lon="12.1252548"><ele>0.0</ele><time>2026-04-15T10:00:15.236Z</time></trkpt><trkpt lat="45.2434705" lon="12.1251919"><ele>0.0</ele><time>2026-04-15T10:00:16.239Z</time></trkpt><trkpt lat="45.2433622" lon="12.1251309"><ele>0.0</ele><time>2026-04-15T10:00:17.257Z</time></trkpt><trkpt lat="45.2432525" lon="12.1250657"><ele>0.0</ele><time>2026-04-15T10:00:18.225Z</time></trkpt><trkpt lat="45.2431473" lon="12.1250037"><ele>0.0</ele><time>2026-04-15T10:00:19.255Z</time></trkpt><trkpt lat="45.2430424" lon="12.124945"><ele>0.0</ele><time>2026-04-15T10:00:20.256Z</time></trkpt><trkpt lat="45.2429419" lon="12.1248857"><ele>0.0</ele><time>2026-04-15T10:00:21.238Z</time></trkpt><trkpt lat="45.2428382" lon="12.1248329"><ele>0.0</ele><time>2026-04-15T10:00:22.227Z</time></trkpt><trkpt lat="45.2427385" lon="12.1247792"><ele>0.0</ele><time>2026-04-15T10:00:23.239Z</time></trkpt><trkpt lat="45.2426377" lon="12.124722"><ele>0.0</ele><time>2026-04-15T10:00:24.235Z</time></trkpt><trkpt lat="45.242533" lon="12.1246601"><ele>0.0</ele><time>2026-04-15T10:00:25.263Z</time></trkpt><trkpt lat="45.2424267" lon="12.1245994"><ele>0.0</ele><time>2026-04-15T10:00:26.233Z</time></trkpt><trkpt lat="45.2423181" lon="12.1245348"><ele>0.0</ele><time>2026-04-15T10:00:27.243Z</time></trkpt><trkpt lat="45.2422083" lon="12.1244728"><ele>0.0</ele><time>2026-04-15T10:00:28.241Z</time></trkpt><trkpt lat="45.2420925" lon="12.124411"><ele>0.0</ele><time>2026-04-15T10:00:29.242Z</time></trkpt><trkpt lat="45.2419747" lon="12.1243484"><ele>0.0</ele><time>2026-04-15T10:00:30.24Z</time></trkpt><trkpt lat="45.2418552" lon="12.1242786"><ele>0.0</ele><time>2026-04-15T10:00:31.23Z</time></trkpt><trkpt lat="45.241701" lon="12.1241959"><ele>0.0</ele><time>2026-04-15T10:00:32.231Z</time></trkpt><trkpt lat="45.2415261" lon="12.1240976"><ele>0.0</ele><time>2026-04-15T10:00:33.237Z</time></trkpt><trkpt lat="45.2413424" lon="12.1239783"><ele>0.0</ele><time>2026-04-15T10:00:34.232Z</time></trkpt><trkpt lat="45.2411611" lon="12.1238551"><ele>-0.3333333333333333</ele><time>2026-04-15T10:00:35.229Z</time></trkpt><trkpt lat="45.2409624" lon="12.1237433"><ele>-0.6666666666666666</ele><time>2026-04-15T10:00:36.226Z</time></trkpt><trkpt lat="45.2407611" lon="12.1236275"><ele>-1.0</ele><time>2026-04-15T10:00:37.234Z</time></trkpt><trkpt lat="45.240562" lon="12.1235148"><ele>-1.3333333333333333</ele><time>2026-04-15T10:00:38.238Z</time></trkpt><trkpt lat="45.2403583" lon="12.1233993"><ele>-1.6666666666666665</ele><time>2026-04-15T10:00:39.241Z</time></trkpt><trkpt lat="45.2401569" lon="12.1232853"><ele>-2.0</ele><time>2026-04-15T10:00:40.246Z</time></trkpt><trkpt lat="45.2399549" lon="12.1231712"><ele>-2.0</ele><time>2026-04-15T10:00:41.245Z</time></trkpt><trkpt lat="45.2397522" lon="12.1230558"><ele>-2.0</ele><time>2026-04-15T10:00:42.245Z</time></trkpt><trkpt lat="45.2395514" lon="12.1229377"><ele>-2.0</ele><time>2026-04-15T10:00:43.248Z</time></trkpt><trkpt lat="45.2393556" lon="12.1228246"><ele>-2.0</ele><time>2026-04-15T10:00:44.234Z</time></trkpt><trkpt lat="45.239164" lon="12.1227142"><ele>-2.0</ele><time>2026-04-15T10:00:45.233Z</time></trkpt><trkpt lat="45.2389639" lon="12.1225968"><ele>-2.0</ele><time>2026-04-15T10:00:46.235Z</time></trkpt><trkpt lat="45.2387637" lon="12.1224898"><ele>-1.6666666666666665</ele><time>2026-04-15T10:00:47.248Z</time></trkpt><trkpt lat="45.2385691" lon="12.1223861"><ele>-1.3333333333333333</ele><time>2026-04-15T10:00:48.232Z</time></trkpt><trkpt lat="45.2383895" lon="12.1222874"><ele>-1.0</ele><time>2026-04-15T10:00:49.24Z</time></trkpt><trkpt lat="45.238219" lon="12.1221887"><ele>-1.6666666666666665</ele><time>2026-04-15T10:00:50.234Z</time></trkpt><trkpt lat="45.2380511" lon="12.1220898"><ele>-2.3333333333333335</ele><time>2026-04-15T10:00:51.239Z</time></trkpt><trkpt lat="45.2378834" lon="12.1219902"><ele>-3.0</ele><time>2026-04-15T10:00:52.222Z</time></trkpt><trkpt lat="45.2377134" lon="12.1218899"><ele>-3.0</ele><time>2026-04-15T10:00:53.242Z</time></trkpt><trkpt lat="45.2375407" lon="12.1217902"><ele>-3.0</ele><time>2026-04-15T10:00:54.23Z</time></trkpt><trkpt lat="45.2373655" lon="12.1216888"><ele>-3.0</ele><time>2026-04-15T10:00:55.228Z</time></trkpt><trkpt lat="45.2371863" lon="12.1215865"><ele>-3.0</ele><time>2026-04-15T10:00:56.277Z</time></trkpt><trkpt lat="45.2370084" lon="12.1214841"><ele>-3.0</ele><time>2026-04-15T10:00:57.231Z</time></trkpt><trkpt lat="45.2368253" lon="12.1213834"><ele>-3.0</ele><time>2026-04-15T10:00:58.228Z</time></trkpt><trkpt lat="45.2366424" lon="12.1212801"><ele>-2.3333333333333335</ele><time>2026-04-15T10:00:59.226Z</time></trkpt><trkpt lat="45.2364581" lon="12.1211759"><ele>-1.6666666666666665</ele><time>2026-04-15T10:01:00.22Z</time></trkpt><trkpt lat="45.2362687" lon="12.1210688"><ele>-1.0</ele><time>2026-04-15T10:01:01.249Z</time></trkpt><trkpt lat="45.2360766" lon="12.1209572"><ele>-1.0</ele><time>2026-04-15T10:01:02.238Z</time></trkpt><trkpt lat="45.2358841" lon="12.1208447"><ele>-1.0</ele><time>2026-04-15T10:01:03.233Z</time></trkpt><trkpt lat="45.2356844" lon="12.1207271"><ele>-1.0</ele><time>2026-04-15T10:01:04.235Z</time></trkpt><trkpt lat="45.2354806" lon="12.1206138"><ele>-1.0</ele><time>2026-04-15T10:01:05.253Z</time></trkpt><trkpt lat="45.2352768" lon="12.1204979"><ele>-1.0</ele><time>2026-04-15T10:01:06.235Z</time></trkpt><trkpt lat="45.235075" lon="12.1203828"><ele>-1.0</ele><time>2026-04-15T10:01:07.236Z</time></trkpt><trkpt lat="45.2348704" lon="12.1202669"><ele>-0.3333333333333333</ele><time>2026-04-15T10:01:08.236Z</time></trkpt><trkpt lat="45.2346629" lon="12.1201571"><ele>0.3333333333333333</ele><time>2026-04-15T10:01:09.245Z</time></trkpt><trkpt lat="45.2344455" lon="12.1200604"><ele>1.0</ele><time>2026-04-15T10:01:10.234Z</time></trkpt><trkpt lat="45.23422" lon="12.1199656"><ele>1.0</ele><time>2026-04-15T10:01:11.239Z</time></trkpt><trkpt lat="45.2339928" lon="12.1198855"><ele>1.0</ele><time>2026-04-15T10:01:12.262Z</time></trkpt><trkpt lat="45.2337654" lon="12.1198138"><ele>0.5</ele><time>2026-04-15T10:01:13.247Z</time></trkpt><trkpt lat="45.2335319" lon="12.1197527"><ele>0.0</ele><time>2026-04-15T10:01:14.242Z</time></trkpt><trkpt lat="45.2333005" lon="12.1196931"><ele>-0.5</ele><time>2026-04-15T10:01:15.233Z</time></trkpt><trkpt lat="45.2330754" lon="12.1196327"><ele>-1.0</ele><time>2026-04-15T10:01:16.223Z</time></trkpt><trkpt lat="45.2328526" lon="12.1195719"><ele>-1.0</ele><time>2026-04-15T10:01:17.239Z</time></trkpt><trkpt lat="45.2326379" lon="12.1195116"><ele>-1.0</ele><time>2026-04-15T10:01:18.236Z</time></trkpt><trkpt lat="45.232439" lon="12.1194554"><ele>-1.0</ele><time>2026-04-15T10:01:19.245Z</time></trkpt><trkpt lat="45.2322539" lon="12.1194047"><ele>-0.3333333333333333</ele><time>2026-04-15T10:01:20.238Z</time></trkpt><trkpt lat="45.2320804" lon="12.1193534"><ele>0.3333333333333333</ele><time>2026-04-15T10:01:21.242Z</time></trkpt><trkpt lat="45.2319089" lon="12.119306"><ele>1.0</ele><time>2026-04-15T10:01:22.236Z</time></trkpt><trkpt lat="45.2317357" lon="12.1192614"><ele>1.0</ele><time>2026-04-15T10:01:23.244Z</time></trkpt><trkpt lat="45.2315635" lon="12.1192204"><ele>1.0</ele><time>2026-04-15T10:01:24.228Z</time></trkpt><trkpt lat="45.2313894" lon="12.1191714"><ele>1.0</ele><time>2026-04-15T10:01:25.243Z</time></trkpt><trkpt lat="45.2312155" lon="12.1191161"><ele>0.6666666666666666</ele><time>2026-04-15T10:01:26.236Z</time></trkpt><trkpt lat="45.2310375" lon="12.1190647"><ele>0.3333333333333333</ele><time>2026-04-15T10:01:27.23Z</time></trkpt><trkpt lat="45.2308567" lon="12.1190117"><ele>0.0</ele><time>2026-04-15T10:01:28.223Z</time></trkpt><trkpt lat="45.2306676" lon="12.1189568"><ele>-0.3333333333333333</ele><time>2026-04-15T10:01:29.237Z</time></trkpt><trkpt lat="45.230475" lon="12.1189068"><ele>-0.6666666666666666</ele><time>2026-04-15T10:01:30.231Z</time></trkpt><trkpt lat="45.2302824" lon="12.1188551"><ele>-1.0</ele><time>2026-04-15T10:01:31.227Z</time></trkpt><trkpt lat="45.2300848" lon="12.1187977"><ele>-1.0</ele><time>2026-04-15T10:01:32.236Z</time></trkpt><trkpt lat="45.2298872" lon="12.1187397"><ele>-1.0</ele><time>2026-04-15T10:01:33.234Z</time></trkpt><trkpt lat="45.2296902" lon="12.1186868"><ele>-1.0</ele><time>2026-04-15T10:01:34.238Z</time></trkpt><trkpt lat="45.229495" lon="12.1186372"><ele>-0.6666666666666666</ele><time>2026-04-15T10:01:35.243Z</time></trkpt><trkpt lat="45.2292935" lon="12.11859"><ele>-0.3333333333333333</ele><time>2026-04-15T10:01:36.238Z</time></trkpt><trkpt lat="45.2290911" lon="12.1185429"><ele>0.0</ele><time>2026-04-15T10:01:37.248Z</time></trkpt><trkpt lat="45.2288912" lon="12.1184883"><ele>0.0</ele><time>2026-04-15T10:01:38.226Z</time></trkpt><trkpt lat="45.2286906" lon="12.1184331"><ele>0.0</ele><time>2026-04-15T10:01:39.24Z</time></trkpt><trkpt lat="45.2284854" lon="12.1183813"><ele>0.0</ele><time>2026-04-15T10:01:40.229Z</time></trkpt><trkpt lat="45.2282816" lon="12.1183212"><ele>-0.3333333333333333</ele><time>2026-04-15T10:01:41.231Z</time></trkpt><trkpt lat="45.2280807" lon="12.1182665"><ele>-0.6666666666666666</ele><time>2026-04-15T10:01:42.24Z</time></trkpt><trkpt lat="45.2278784" lon="12.118208"><ele>-1.0</ele><time>2026-04-15T10:01:43.243Z</time></trkpt><trkpt lat="45.2276725" lon="12.1181537"><ele>-1.0</ele><time>2026-04-15T10:01:44.242Z</time></trkpt><trkpt lat="45.2274673" lon="12.1180922"><ele>-1.0</ele><time>2026-04-15T10:01:45.23Z</time></trkpt><trkpt lat="45.2272619" lon="12.1180354"><ele>-1.0</ele><time>2026-04-15T10:01:46.227Z</time></trkpt><trkpt lat="45.22706" lon="12.1179753"><ele>-1.0</ele><time>2026-04-15T10:01:47.23Z</time></trkpt><trkpt lat="45.2268552" lon="12.1179229"><ele>-1.0</ele><time>2026-04-15T10:01:48.238Z</time></trkpt><trkpt lat="45.2266535" lon="12.11787"><ele>-1.0</ele><time>2026-04-15T10:01:49.252Z</time></trkpt><trkpt lat="45.2264514" lon="12.117812"><ele>-0.3333333333333333</ele><time>2026-04-15T10:01:50.23Z</time></trkpt><trkpt lat="45.2262496" lon="12.117753"><ele>0.3333333333333333</ele><time>2026-04-15T10:01:51.236Z</time></trkpt><trkpt lat="45.2260466" lon="12.1176894"><ele>1.0</ele><time>2026-04-15T10:01:52.226Z</time></trkpt><trkpt lat="45.2258488" lon="12.1176187"><ele>1.0</ele><time>2026-04-15T10:01:53.243Z</time></trkpt><trkpt lat="45.2256547" lon="12.1175372"><ele>1.0</ele><time>2026-04-15T10:01:54.218Z</time></trkpt><trkpt lat="45.2254613" lon="12.1174448"><ele>1.0</ele><time>2026-04-15T10:01:55.244Z</time></trkpt><trkpt lat="45.2252711" lon="12.1173462"><ele>0.6666666666666666</ele><time>2026-04-15T10:01:56.225Z</time></trkpt><trkpt lat="45.225079" lon="12.117239"><ele>0.3333333333333333</ele><time>2026-04-15T10:01:57.233Z</time></trkpt><trkpt lat="45.2248912" lon="12.1171162"><ele>0.0</ele><time>2026-04-15T10:01:58.252Z</time></trkpt><trkpt lat="45.2247057" lon="12.1169844"><ele>-0.3333333333333333</ele><time>2026-04-15T10:01:59.243Z</time></trkpt><trkpt lat="45.2245212" lon="12.1168437"><ele>-0.6666666666666666</ele><time>2026-04-15T10:02:00.231Z</time></trkpt><trkpt lat="45.2243359" lon="12.1166861"><ele>-1.0</ele><time>2026-04-15T10:02:01.246Z</time></trkpt><trkpt lat="45.2241458" lon="12.1165317"><ele>-1.0</ele><time>2026-04-15T10:02:02.227Z</time></trkpt><trkpt lat="45.2239511" lon="12.1163804"><ele>-1.0</ele><time>2026-04-15T10:02:03.226Z</time></trkpt><trkpt lat="45.2237534" lon="12.1162272"><ele>-1.0</ele><time>2026-04-15T10:02:04.229Z</time></trkpt><trkpt lat="45.2235585" lon="12.1160646"><ele>-1.0</ele><time>2026-04-15T10:02:05.237Z</time></trkpt><trkpt lat="45.2233657" lon="12.1159042"><ele>-1.0</ele><time>2026-04-15T10:02:06.234Z</time></trkpt><trkpt lat="45.2231745" lon="12.1157443"><ele>-1.0</ele><time>2026-04-15T10:02:07.234Z</time></trkpt><trkpt lat="45.2229839" lon="12.1155889"><ele>-1.3333333333333333</ele><time>2026-04-15T10:02:08.245Z</time></trkpt><trkpt lat="45.222799" lon="12.1154401"><ele>-1.6666666666666665</ele><time>2026-04-15T10:02:09.225Z</time></trkpt><trkpt lat="45.2226256" lon="12.1153043"><ele>-2.0</ele><time>2026-04-15T10:02:10.228Z</time></trkpt><trkpt lat="45.2224565" lon="12.1151697"><ele>-2.0</ele><time>2026-04-15T10:02:11.223Z</time></trkpt><trkpt lat="45.2222957" lon="12.1150354"><ele>-2.0</ele><time>2026-04-15T10:02:12.234Z</time></trkpt><trkpt lat="45.2221392" lon="12.1149044"><ele>-2.0</ele><time>2026-04-15T10:02:13.232Z</time></trkpt><trkpt lat="45.2219835" lon="12.1147713"><ele>-1.6666666666666665</ele><time>2026-04-15T10:02:14.231Z</time></trkpt><trkpt lat="45.2218306" lon="12.1146442"><ele>-1.3333333333333333</ele><time>2026-04-15T10:02:15.234Z</time></trkpt><trkpt lat="45.2216783" lon="12.1145205"><ele>-1.0</ele><time>2026-04-15T10:02:16.226Z</time></trkpt><trkpt lat="45.2215326" lon="12.1143954"><ele>-1.0</ele><time>2026-04-15T10:02:17.24Z</time></trkpt><trkpt lat="45.2213835" lon="12.1142719"><ele>-1.0</ele><time>2026-04-15T10:02:18.226Z</time></trkpt><trkpt lat="45.2212389" lon="12.1141487"><ele>-1.0</ele><time>2026-04-15T10:02:19.243Z</time></trkpt><trkpt lat="45.2211027" lon="12.1140249"><ele>-1.0</ele><time>2026-04-15T10:02:20.237Z</time></trkpt><trkpt lat="45.2209776" lon="12.1139019"><ele>-1.0</ele><time>2026-04-15T10:02:21.222Z</time></trkpt><trkpt lat="45.220869" lon="12.113781"><ele>-1.0</ele><time>2026-04-15T10:02:22.228Z</time></trkpt><trkpt lat="45.2207749" lon="12.1136739"><ele>-1.0</ele><time>2026-04-15T10:02:23.227Z</time></trkpt><trkpt lat="45.2206919" lon="12.1135724"><ele>-0.9999999999999999</ele><time>2026-04-15T10:02:24.218Z</time></trkpt><trkpt lat="45.2206243" lon="12.1134882"><ele>-1.0</ele><time>2026-04-15T10:02:25.23Z</time></trkpt><trkpt lat="45.2205709" lon="12.113439"><ele>-1.0</ele><time>2026-04-15T10:02:26.232Z</time></trkpt><trkpt lat="45.2205082" lon="12.1133704"><ele>-1.0</ele><time>2026-04-15T10:02:28.221Z</time></trkpt><trkpt lat="45.220453" lon="12.1132962"><ele>-0.9999999999999999</ele><time>2026-04-15T10:02:29.244Z</time></trkpt><trkpt lat="45.2203576" lon="12.1131803"><ele>-1.0</ele><time>2026-04-15T10:02:30.234Z</time></trkpt><trkpt lat="45.220245" lon="12.1130299"><ele>-1.0</ele><time>2026-04-15T10:02:31.229Z</time></trkpt><trkpt lat="45.2201192" lon="12.1128546"><ele>-1.0</ele><time>2026-04-15T10:02:32.223Z</time></trkpt><trkpt lat="45.2199869" lon="12.1126638"><ele>-1.0</ele><time>2026-04-15T10:02:33.234Z</time></trkpt><trkpt lat="45.2198632" lon="12.1124539"><ele>-1.0</ele><time>2026-04-15T10:02:34.211Z</time></trkpt><trkpt lat="45.2197335" lon="12.1122344"><ele>-1.0</ele><time>2026-04-15T10:02:35.231Z</time></trkpt><trkpt lat="45.2195988" lon="12.1120095"><ele>-1.0</ele><time>2026-04-15T10:02:36.228Z</time></trkpt><trkpt lat="45.2194606" lon="12.1117769"><ele>-1.0</ele><time>2026-04-15T10:02:37.23Z</time></trkpt><trkpt lat="45.2193235" lon="12.1115415"><ele>-1.0</ele><time>2026-04-15T10:02:38.24Z</time></trkpt><trkpt lat="45.2191872" lon="12.1113004"><ele>-1.0</ele><time>2026-04-15T10:02:39.238Z</time></trkpt><trkpt lat="45.2190481" lon="12.1110586"><ele>-1.0</ele><time>2026-04-15T10:02:40.212Z</time></trkpt><trkpt lat="45.2189072" lon="12.1108154"><ele>-1.0</ele><time>2026-04-15T10:02:41.234Z</time></trkpt><trkpt lat="45.2187676" lon="12.1105607"><ele>-1.0</ele><time>2026-04-15T10:02:42.23Z</time></trkpt><trkpt lat="45.2186238" lon="12.110305"><ele>-1.0</ele><time>2026-04-15T10:02:43.229Z</time></trkpt><trkpt lat="45.2184808" lon="12.1100566"><ele>-1.0</ele><time>2026-04-15T10:02:44.228Z</time></trkpt><trkpt lat="45.218339" lon="12.1098082"><ele>-1.0</ele><time>2026-04-15T10:02:45.223Z</time></trkpt><trkpt lat="45.2181936" lon="12.1095562"><ele>-1.0</ele><time>2026-04-15T10:02:46.23Z</time></trkpt><trkpt lat="45.2180512" lon="12.1093022"><ele>-1.0</ele><time>2026-04-15T10:02:47.231Z</time></trkpt><trkpt lat="45.2179107" lon="12.1090457"><ele>-1.0</ele><time>2026-04-15T10:02:48.23Z</time></trkpt><trkpt lat="45.2177696" lon="12.1087887"><ele>-1.0</ele><time>2026-04-15T10:02:49.22Z</time></trkpt><trkpt lat="45.2176238" lon="12.1085401"><ele>-1.0</ele><time>2026-04-15T10:02:50.249Z</time></trkpt><trkpt lat="45.2174789" lon="12.1082923"><ele>-1.3333333333333333</ele><time>2026-04-15T10:02:51.218Z</time></trkpt><trkpt lat="45.2173369" lon="12.1080501"><ele>-1.6666666666666665</ele><time>2026-04-15T10:02:52.225Z</time></trkpt><trkpt lat="45.2171964" lon="12.107809"><ele>-2.0</ele><time>2026-04-15T10:02:53.221Z</time></trkpt><trkpt lat="45.2170567" lon="12.1075703"><ele>-2.333333333333333</ele><time>2026-04-15T10:02:54.211Z</time></trkpt><trkpt lat="45.2169227" lon="12.1073294"><ele>-2.6666666666666665</ele><time>2026-04-15T10:02:55.236Z</time></trkpt><trkpt lat="45.2167834" lon="12.1070876"><ele>-3.0</ele><time>2026-04-15T10:02:56.214Z</time></trkpt><trkpt lat="45.2166433" lon="12.1068466"><ele>-3.0</ele><time>2026-04-15T10:02:57.209Z</time></trkpt><trkpt lat="45.2165089" lon="12.1066103"><ele>-3.0</ele><time>2026-04-15T10:02:58.231Z</time></trkpt><trkpt lat="45.2163787" lon="12.1063761"><ele>-3.0</ele><time>2026-04-15T10:02:59.219Z</time></trkpt><trkpt lat="45.2162477" lon="12.1061355"><ele>-3.0</ele><time>2026-04-15T10:03:00.233Z</time></trkpt><trkpt lat="45.2161179" lon="12.1058984"><ele>-3.0</ele><time>2026-04-15T10:03:01.226Z</time></trkpt><trkpt lat="45.2160008" lon="12.1056838"><ele>-3.0</ele><time>2026-04-15T10:03:02.242Z</time></trkpt><trkpt lat="45.215904" lon="12.105488"><ele>-3.0</ele><time>2026-04-15T10:03:03.223Z</time></trkpt><trkpt lat="45.2158249" lon="12.1053114"><ele>-3.0</ele><time>2026-04-15T10:03:04.227Z</time></trkpt><trkpt lat="45.215783" lon="12.1051269"><ele>-3.0</ele><time>2026-04-15T10:03:05.233Z</time></trkpt><trkpt lat="45.2157658" lon="12.104948"><ele>-3.0</ele><time>2026-04-15T10:03:06.227Z</time></trkpt><trkpt lat="45.2157259" lon="12.104796"><ele>-3.0</ele><time>2026-04-15T10:03:07.231Z</time></trkpt><trkpt lat="45.2156475" lon="12.1046656"><ele>-3.0</ele><time>2026-04-15T10:03:08.219Z</time></trkpt><trkpt lat="45.2155201" lon="12.1045779"><ele>-3.0</ele><time>2026-04-15T10:03:09.228Z</time></trkpt><trkpt lat="45.2153868" lon="12.1044904"><ele>-3.0</ele><time>2026-04-15T10:03:10.251Z</time></trkpt><trkpt lat="45.215258" lon="12.1043313"><ele>-3.0</ele><time>2026-04-15T10:03:11.222Z</time></trkpt><trkpt lat="45.2151403" lon="12.104136"><ele>-3.0</ele><time>2026-04-15T10:03:12.238Z</time></trkpt><trkpt lat="45.2150205" lon="12.1039348"><ele>-3.0</ele><time>2026-04-15T10:03:13.229Z</time></trkpt><trkpt lat="45.2148966" lon="12.1037273"><ele>-3.0</ele><time>2026-04-15T10:03:14.236Z</time></trkpt><trkpt lat="45.2147757" lon="12.1035271"><ele>-3.0</ele><time>2026-04-15T10:03:15.237Z</time></trkpt><trkpt lat="45.2146546" lon="12.1033247"><ele>-3.0</ele><time>2026-04-15T10:03:16.223Z</time></trkpt><trkpt lat="45.2145264" lon="12.1031172"><ele>-3.333333333333333</ele><time>2026-04-15T10:03:17.228Z</time></trkpt><trkpt lat="45.2144012" lon="12.1029036"><ele>-3.6666666666666665</ele><time>2026-04-15T10:03:18.222Z</time></trkpt><trkpt lat="45.214277" lon="12.1026807"><ele>-4.0</ele><time>2026-04-15T10:03:19.212Z</time></trkpt><trkpt lat="45.2141489" lon="12.1024561"><ele>-3.6666666666666665</ele><time>2026-04-15T10:03:20.231Z</time></trkpt><trkpt lat="45.2140231" lon="12.1022273"><ele>-3.333333333333333</ele><time>2026-04-15T10:03:21.223Z</time></trkpt><trkpt lat="45.2138913" lon="12.1020069"><ele>-3.0</ele><time>2026-04-15T10:03:22.243Z</time></trkpt><trkpt lat="45.2137592" lon="12.1017745"><ele>-3.333333333333333</ele><time>2026-04-15T10:03:23.238Z</time></trkpt><trkpt lat="45.2136236" lon="12.1015418"><ele>-3.6666666666666665</ele><time>2026-04-15T10:03:24.229Z</time></trkpt><trkpt lat="45.2134882" lon="12.1013046"><ele>-4.0</ele><time>2026-04-15T10:03:25.235Z</time></trkpt><trkpt lat="45.2133564" lon="12.1010693"><ele>-4.0</ele><time>2026-04-15T10:03:26.221Z</time></trkpt><trkpt lat="45.2132259" lon="12.1008328"><ele>-4.0</ele><time>2026-04-15T10:03:27.231Z</time></trkpt><trkpt lat="45.2130929" lon="12.1006023"><ele>-4.0</ele><time>2026-04-15T10:03:28.217Z</time></trkpt><trkpt lat="45.2129602" lon="12.1003692"><ele>-3.6666666666666665</ele><time>2026-04-15T10:03:29.215Z</time></trkpt><trkpt lat="45.2128283" lon="12.1001394"><ele>-3.333333333333333</ele><time>2026-04-15T10:03:30.236Z</time></trkpt><trkpt lat="45.2126994" lon="12.0999096"><ele>-3.0</ele><time>2026-04-15T10:03:31.228Z</time></trkpt><trkpt lat="45.2125703" lon="12.0996813"><ele>-3.0</ele><time>2026-04-15T10:03:32.205Z</time></trkpt><trkpt lat="45.2124413" lon="12.0994574"><ele>-3.0</ele><time>2026-04-15T10:03:33.224Z</time></trkpt><trkpt lat="45.2123131" lon="12.0992347"><ele>-3.0</ele><time>2026-04-15T10:03:34.217Z</time></trkpt><trkpt lat="45.2121848" lon="12.0990146"><ele>-2.6666666666666665</ele><time>2026-04-15T10:03:35.211Z</time></trkpt><trkpt lat="45.2120599" lon="12.0987964"><ele>-2.333333333333333</ele><time>2026-04-15T10:03:36.234Z</time></trkpt><trkpt lat="45.2119304" lon="12.0985797"><ele>-2.0</ele><time>2026-04-15T10:03:37.216Z</time></trkpt><trkpt lat="45.2117966" lon="12.0983603"><ele>-2.0</ele><time>2026-04-15T10:03:38.227Z</time></trkpt><trkpt lat="45.2116556" lon="12.0981471"><ele>-2.0</ele><time>2026-04-15T10:03:39.218Z</time></trkpt><trkpt lat="45.2115089" lon="12.0979365"><ele>-2.0</ele><time>2026-04-15T10:03:40.233Z</time></trkpt><trkpt lat="45.2113564" lon="12.0977355"><ele>-2.0</ele><time>2026-04-15T10:03:41.218Z</time></trkpt><trkpt lat="45.211196" lon="12.0975353"><ele>-2.0</ele><time>2026-04-15T10:03:42.224Z</time></trkpt><trkpt lat="45.211033" lon="12.0973431"><ele>-2.0</ele><time>2026-04-15T10:03:43.226Z</time></trkpt><trkpt lat="45.2108653" lon="12.0971602"><ele>-2.333333333333333</ele><time>2026-04-15T10:03:44.228Z</time></trkpt><trkpt lat="45.2106918" lon="12.0969814"><ele>-2.6666666666666665</ele><time>2026-04-15T10:03:45.222Z</time></trkpt><trkpt lat="45.210515" lon="12.096808"><ele>-3.0</ele><time>2026-04-15T10:03:46.215Z</time></trkpt><trkpt lat="45.2103346" lon="12.0966443"><ele>-1.6666666666666667</ele><time>2026-04-15T10:03:47.231Z</time></trkpt><trkpt lat="45.2101497" lon="12.0964916"><ele>-0.33333333333333337</ele><time>2026-04-15T10:03:48.216Z</time></trkpt><trkpt lat="45.2099587" lon="12.0963455"><ele>1.0</ele><time>2026-04-15T10:03:49.224Z</time></trkpt><trkpt lat="45.2097627" lon="12.0962109"><ele>1.0</ele><time>2026-04-15T10:03:50.229Z</time></trkpt><trkpt lat="45.2095617" lon="12.0960843"><ele>1.0</ele><time>2026-04-15T10:03:51.228Z</time></trkpt><trkpt lat="45.2093572" lon="12.0959714"><ele>1.0</ele><time>2026-04-15T10:03:52.237Z</time></trkpt><trkpt lat="45.2091483" lon="12.0958725"><ele>1.0</ele><time>2026-04-15T10:03:53.233Z</time></trkpt><trkpt lat="45.2089395" lon="12.0957785"><ele>1.0</ele><time>2026-04-15T10:03:54.211Z</time></trkpt><trkpt lat="45.2087307" lon="12.0956853"><ele>1.0</ele><time>2026-04-15T10:03:55.228Z</time></trkpt><trkpt lat="45.208517" lon="12.0955962"><ele>0.3333333333333333</ele><time>2026-04-15T10:03:56.22Z</time></trkpt><trkpt lat="45.2083053" lon="12.0955093"><ele>-0.3333333333333333</ele><time>2026-04-15T10:03:57.236Z</time></trkpt><trkpt lat="45.2080947" lon="12.0954227"><ele>-1.0</ele><time>2026-04-15T10:03:58.215Z</time></trkpt><trkpt lat="45.2078822" lon="12.0953375"><ele>-1.3333333333333333</ele><time>2026-04-15T10:03:59.225Z</time></trkpt><trkpt lat="45.2076725" lon="12.0952518"><ele>-1.6666666666666665</ele><time>2026-04-15T10:04:00.226Z</time></trkpt><trkpt lat="45.2074631" lon="12.0951729"><ele>-2.0</ele><time>2026-04-15T10:04:01.229Z</time></trkpt><trkpt lat="45.2072578" lon="12.0950931"><ele>-2.0</ele><time>2026-04-15T10:04:02.225Z</time></trkpt><trkpt lat="45.2070551" lon="12.0950093"><ele>-2.0</ele><time>2026-04-15T10:04:03.228Z</time></trkpt><trkpt lat="45.2068507" lon="12.0949243"><ele>-2.0</ele><time>2026-04-15T10:04:04.243Z</time></trkpt><trkpt lat="45.2066515" lon="12.0948404"><ele>-1.6666666666666665</ele><time>2026-04-15T10:04:05.218Z</time></trkpt><trkpt lat="45.2064506" lon="12.0947575"><ele>-1.3333333333333333</ele><time>2026-04-15T10:04:06.217Z</time></trkpt><trkpt lat="45.2062581" lon="12.0946799"><ele>-1.0</ele><time>2026-04-15T10:04:07.207Z</time></trkpt><trkpt lat="45.2060802" lon="12.0946067"><ele>-1.0</ele><time>2026-04-15T10:04:08.235Z</time></trkpt><trkpt lat="45.2059142" lon="12.0945384"><ele>-1.0</ele><time>2026-04-15T10:04:09.217Z</time></trkpt><trkpt lat="45.2057654" lon="12.0944847"><ele>-1.0</ele><time>2026-04-15T10:04:10.229Z</time></trkpt><trkpt lat="45.2056446" lon="12.0944522"><ele>-1.0</ele><time>2026-04-15T10:04:11.217Z</time></trkpt><trkpt lat="45.2055382" lon="12.0944279"><ele>-0.75</ele><time>2026-04-15T10:04:12.231Z</time></trkpt><trkpt lat="45.2054366" lon="12.0943775"><ele>-0.5</ele><time>2026-04-15T10:04:13.23Z</time></trkpt><trkpt lat="45.2053247" lon="12.0943249"><ele>-0.25</ele><time>2026-04-15T10:04:14.224Z</time></trkpt><trkpt lat="45.2052154" lon="12.0943307"><ele>0.0</ele><time>2026-04-15T10:04:15.22Z</time></trkpt><trkpt lat="45.2050979" lon="12.0943776"><ele>0.0</ele><time>2026-04-15T10:04:16.231Z</time></trkpt><trkpt lat="45.2049731" lon="12.0943664"><ele>0.0</ele><time>2026-04-15T10:04:17.22Z</time></trkpt><trkpt lat="45.2048326" lon="12.0942949"><ele>0.0</ele><time>2026-04-15T10:04:18.226Z</time></trkpt><trkpt lat="45.2047159" lon="12.0941701"><ele>0.0</ele><time>2026-04-15T10:04:19.228Z</time></trkpt><trkpt lat="45.2045695" lon="12.0940416"><ele>-1.0</ele><time>2026-04-15T10:04:20.23Z</time></trkpt><trkpt lat="45.204197" lon="12.0938779"><ele>-2.0</ele><time>2026-04-15T10:04:22.219Z</time></trkpt><trkpt lat="45.2039892" lon="12.0938117"><ele>-2.333333333333333</ele><time>2026-04-15T10:04:23.206Z</time></trkpt><trkpt lat="45.2037789" lon="12.093721"><ele>-2.6666666666666665</ele><time>2026-04-15T10:04:24.225Z</time></trkpt><trkpt lat="45.2035634" lon="12.0936297"><ele>-3.0</ele><time>2026-04-15T10:04:25.237Z</time></trkpt><trkpt lat="45.2033464" lon="12.0935362"><ele>-3.0</ele><time>2026-04-15T10:04:26.216Z</time></trkpt><trkpt lat="45.2031285" lon="12.0934474"><ele>-3.0</ele><time>2026-04-15T10:04:27.213Z</time></trkpt><trkpt lat="45.2029082" lon="12.0933588"><ele>-3.0</ele><time>2026-04-15T10:04:28.23Z</time></trkpt><trkpt lat="45.2026857" lon="12.0932688"><ele>-3.0</ele><time>2026-04-15T10:04:29.221Z</time></trkpt><trkpt lat="45.2024637" lon="12.0931775"><ele>-2.5</ele><time>2026-04-15T10:04:30.215Z</time></trkpt><trkpt lat="45.2022425" lon="12.0930905"><ele>-2.0</ele><time>2026-04-15T10:04:31.206Z</time></trkpt><trkpt lat="45.2020207" lon="12.093003"><ele>-2.0</ele><time>2026-04-15T10:04:32.214Z</time></trkpt><trkpt lat="45.2018017" lon="12.0929085"><ele>-2.0</ele><time>2026-04-15T10:04:33.217Z</time></trkpt><trkpt lat="45.2015768" lon="12.0928215"><ele>-2.0</ele><time>2026-04-15T10:04:34.201Z</time></trkpt><trkpt lat="45.2013509" lon="12.0927279"><ele>-2.0</ele><time>2026-04-15T10:04:35.22Z</time></trkpt><trkpt lat="45.2011231" lon="12.0926326"><ele>-2.0</ele><time>2026-04-15T10:04:36.226Z</time></trkpt><trkpt lat="45.2008919" lon="12.092544"><ele>-2.0</ele><time>2026-04-15T10:04:37.219Z</time></trkpt><trkpt lat="45.200659" lon="12.0924544"><ele>-2.5</ele><time>2026-04-15T10:04:38.203Z</time></trkpt><trkpt lat="45.2004275" lon="12.0923601"><ele>-3.0</ele><time>2026-04-15T10:04:39.217Z</time></trkpt><trkpt lat="45.2001964" lon="12.0922647"><ele>-3.0</ele><time>2026-04-15T10:04:40.206Z</time></trkpt><trkpt lat="45.1999613" lon="12.09217"><ele>-3.0</ele><time>2026-04-15T10:04:41.226Z</time></trkpt><trkpt lat="45.1997267" lon="12.0920746"><ele>-3.5</ele><time>2026-04-15T10:04:42.202Z</time></trkpt><trkpt lat="45.1994899" lon="12.0919857"><ele>-4.0</ele><time>2026-04-15T10:04:43.212Z</time></trkpt><trkpt lat="45.1992531" lon="12.0918975"><ele>-4.0</ele><time>2026-04-15T10:04:44.218Z</time></trkpt><trkpt lat="45.1990153" lon="12.0918043"><ele>-4.0</ele><time>2026-04-15T10:04:45.21Z</time></trkpt><trkpt lat="45.198776" lon="12.0917096"><ele>-3.0</ele><time>2026-04-15T10:04:46.216Z</time></trkpt><trkpt lat="45.1985407" lon="12.091613"><ele>-2.0</ele><time>2026-04-15T10:04:47.222Z</time></trkpt><trkpt lat="45.1983028" lon="12.0915121"><ele>-2.0</ele><time>2026-04-15T10:04:48.205Z</time></trkpt><trkpt lat="45.1980681" lon="12.0914131"><ele>-2.0</ele><time>2026-04-15T10:04:49.204Z</time></trkpt><trkpt lat="45.197831" lon="12.0913137"><ele>-2.0</ele><time>2026-04-15T10:04:50.217Z</time></trkpt><trkpt lat="45.197594" lon="12.0912187"><ele>-2.0</ele><time>2026-04-15T10:04:51.223Z</time></trkpt><trkpt lat="45.1973584" lon="12.0911221"><ele>-3.0</ele><time>2026-04-15T10:04:52.199Z</time></trkpt><trkpt lat="45.1971231" lon="12.0910286"><ele>-4.0</ele><time>2026-04-15T10:04:53.225Z</time></trkpt><trkpt lat="45.1968846" lon="12.0909362"><ele>-4.0</ele><time>2026-04-15T10:04:54.198Z</time></trkpt><trkpt lat="45.1966496" lon="12.0908431"><ele>-4.0</ele><time>2026-04-15T10:04:55.2Z</time></trkpt><trkpt lat="45.1964144" lon="12.0907504"><ele>-2.5</ele><time>2026-04-15T10:04:56.194Z</time></trkpt><trkpt lat="45.1961777" lon="12.0906557"><ele>-1.0</ele><time>2026-04-15T10:04:57.195Z</time></trkpt><trkpt lat="45.1959451" lon="12.0905632"><ele>-1.0</ele><time>2026-04-15T10:04:58.202Z</time></trkpt><trkpt lat="45.1957189" lon="12.0904712"><ele>-1.0</ele><time>2026-04-15T10:04:59.22Z</time></trkpt><trkpt lat="45.1954982" lon="12.0903817"><ele>-1.5</ele><time>2026-04-15T10:05:00.204Z</time></trkpt><trkpt lat="45.1952751" lon="12.0902951"><ele>-2.0</ele><time>2026-04-15T10:05:01.217Z</time></trkpt><trkpt lat="45.1950613" lon="12.090204"><ele>-2.0</ele><time>2026-04-15T10:05:02.214Z</time></trkpt><trkpt lat="45.1948492" lon="12.0901145"><ele>-2.0</ele><time>2026-04-15T10:05:03.203Z</time></trkpt><trkpt lat="45.1946323" lon="12.0900291"><ele>-2.0</ele><time>2026-04-15T10:05:04.238Z</time></trkpt><trkpt lat="45.1944152" lon="12.089944"><ele>-1.6666666666666665</ele><time>2026-04-15T10:05:05.212Z</time></trkpt><trkpt lat="45.1941993" lon="12.0898632"><ele>-1.3333333333333333</ele><time>2026-04-15T10:05:06.227Z</time></trkpt><trkpt lat="45.193993" lon="12.0897805"><ele>-1.0</ele><time>2026-04-15T10:05:07.214Z</time></trkpt><trkpt lat="45.1937918" lon="12.0897041"><ele>-1.6666666666666665</ele><time>2026-04-15T10:05:08.2Z</time></trkpt><trkpt lat="45.1935965" lon="12.0896281"><ele>-2.3333333333333335</ele><time>2026-04-15T10:05:09.215Z</time></trkpt><trkpt lat="45.1934101" lon="12.0895529"><ele>-3.0</ele><time>2026-04-15T10:05:10.21Z</time></trkpt><trkpt lat="45.1932369" lon="12.0894741"><ele>-2.75</ele><time>2026-04-15T10:05:11.227Z</time></trkpt><trkpt lat="45.1930792" lon="12.0894121"><ele>-2.5</ele><time>2026-04-15T10:05:12.214Z</time></trkpt><trkpt lat="45.1929375" lon="12.0893589"><ele>-2.25</ele><time>2026-04-15T10:05:13.22Z</time></trkpt><trkpt lat="45.1928186" lon="12.0893116"><ele>-2.0</ele><time>2026-04-15T10:05:14.217Z</time></trkpt><trkpt lat="45.192712" lon="12.0892675"><ele>-1.9999999999999998</ele><time>2026-04-15T10:05:15.216Z</time></trkpt><trkpt lat="45.1926266" lon="12.0892305"><ele>-2.0</ele><time>2026-04-15T10:05:16.199Z</time></trkpt><trkpt lat="45.1925479" lon="12.0891917"><ele>-2.0</ele><time>2026-04-15T10:05:17.207Z</time></trkpt><trkpt lat="45.1924766" lon="12.0891505"><ele>-2.0</ele><time>2026-04-15T10:05:18.21Z</time></trkpt><trkpt lat="45.1924242" lon="12.089071"><ele>-1.9999999999999998</ele><time>2026-04-15T10:05:19.208Z</time></trkpt><trkpt lat="45.1923813" lon="12.08897"><ele>-2.0</ele><time>2026-04-15T10:05:20.216Z</time></trkpt><trkpt lat="45.1923337" lon="12.0888765"><ele>-2.0</ele><time>2026-04-15T10:05:21.208Z</time></trkpt><trkpt lat="45.1922623" lon="12.0888034"><ele>-2.0</ele><time>2026-04-15T10:05:22.23Z</time></trkpt><trkpt lat="45.1921786" lon="12.0887843"><ele>-2.0</ele><time>2026-04-15T10:05:23.21Z</time></trkpt><trkpt lat="45.1920861" lon="12.0887973"><ele>-2.0</ele><time>2026-04-15T10:05:24.242Z</time></trkpt><trkpt lat="45.1919964" lon="12.0888413"><ele>-2.0</ele><time>2026-04-15T10:05:25.204Z</time></trkpt><trkpt lat="45.1919061" lon="12.0888892"><ele>-2.0</ele><time>2026-04-15T10:05:26.207Z</time></trkpt><trkpt lat="45.1918013" lon="12.088905"><ele>-2.0</ele><time>2026-04-15T10:05:27.192Z</time></trkpt><trkpt lat="45.1916714" lon="12.0888801"><ele>-2.0</ele><time>2026-04-15T10:05:28.209Z</time></trkpt><trkpt lat="45.1915106" lon="12.0888299"><ele>-2.0</ele><time>2026-04-15T10:05:29.205Z</time></trkpt><trkpt lat="45.1913257" lon="12.0887666"><ele>-2.5</ele><time>2026-04-15T10:05:30.197Z</time></trkpt><trkpt lat="45.1911197" lon="12.0886629"><ele>-3.0</ele><time>2026-04-15T10:05:31.206Z</time></trkpt><trkpt lat="45.1908923" lon="12.0885667"><ele>-2.5</ele><time>2026-04-15T10:05:32.217Z</time></trkpt><trkpt lat="45.1906422" lon="12.0884711"><ele>-2.0</ele><time>2026-04-15T10:05:33.202Z</time></trkpt><trkpt lat="45.1903956" lon="12.0883591"><ele>-2.0</ele><time>2026-04-15T10:05:34.208Z</time></trkpt><trkpt lat="45.1901558" lon="12.088239"><ele>-2.0</ele><time>2026-04-15T10:05:35.221Z</time></trkpt><trkpt lat="45.1899168" lon="12.0881373"><ele>-1.5</ele><time>2026-04-15T10:05:36.203Z</time></trkpt><trkpt lat="45.1896686" lon="12.0880476"><ele>-1.0</ele><time>2026-04-15T10:05:37.215Z</time></trkpt><trkpt lat="45.1894319" lon="12.0879622"><ele>-1.0</ele><time>2026-04-15T10:05:38.209Z</time></trkpt><trkpt lat="45.1892016" lon="12.0878774"><ele>-1.0</ele><time>2026-04-15T10:05:39.216Z</time></trkpt><trkpt lat="45.1889743" lon="12.0877839"><ele>-1.0</ele><time>2026-04-15T10:05:40.196Z</time></trkpt><trkpt lat="45.1887533" lon="12.0876926"><ele>-1.0</ele><time>2026-04-15T10:05:41.199Z</time></trkpt><trkpt lat="45.1885396" lon="12.087605"><ele>-1.0</ele><time>2026-04-15T10:05:42.195Z</time></trkpt><trkpt lat="45.1883311" lon="12.0875183"><ele>-1.0</ele><time>2026-04-15T10:05:43.202Z</time></trkpt><trkpt lat="45.1881324" lon="12.0874378"><ele>-1.0</ele><time>2026-04-15T10:05:44.212Z</time></trkpt><trkpt lat="45.1879408" lon="12.0873623"><ele>-1.3333333333333333</ele><time>2026-04-15T10:05:45.223Z</time></trkpt><trkpt lat="45.1877622" lon="12.0872874"><ele>-1.6666666666666665</ele><time>2026-04-15T10:05:46.22Z</time></trkpt><trkpt lat="45.1875864" lon="12.0872166"><ele>-2.0</ele><time>2026-04-15T10:05:47.211Z</time></trkpt><trkpt lat="45.1874093" lon="12.0871446"><ele>-2.0</ele><time>2026-04-15T10:05:48.199Z</time></trkpt><trkpt lat="45.1872194" lon="12.0870762"><ele>-2.0</ele><time>2026-04-15T10:05:49.205Z</time></trkpt><trkpt lat="45.1870084" lon="12.0870108"><ele>-2.0</ele><time>2026-04-15T10:05:50.212Z</time></trkpt><trkpt lat="45.1867654" lon="12.0869246"><ele>-2.0</ele><time>2026-04-15T10:05:51.217Z</time></trkpt><trkpt lat="45.1865038" lon="12.0868062"><ele>-2.0</ele><time>2026-04-15T10:05:52.198Z</time></trkpt><trkpt lat="45.1862165" lon="12.0866734"><ele>-2.0</ele><time>2026-04-15T10:05:53.208Z</time></trkpt><trkpt lat="45.1859341" lon="12.0865446"><ele>-2.0</ele><time>2026-04-15T10:05:54.208Z</time></trkpt><trkpt lat="45.1856706" lon="12.0864379"><ele>-2.0</ele><time>2026-04-15T10:05:55.207Z</time></trkpt><trkpt lat="45.1854165" lon="12.0863361"><ele>-2.0</ele><time>2026-04-15T10:05:56.201Z</time></trkpt><trkpt lat="45.1851632" lon="12.0862329"><ele>-2.0</ele><time>2026-04-15T10:05:57.208Z</time></trkpt><trkpt lat="45.1849047" lon="12.0861387"><ele>-2.0</ele><time>2026-04-15T10:05:58.2Z</time></trkpt><trkpt lat="45.1846499" lon="12.0860417"><ele>-2.0</ele><time>2026-04-15T10:05:59.218Z</time></trkpt><trkpt lat="45.1843984" lon="12.0859428"><ele>-2.0</ele><time>2026-04-15T10:06:00.199Z</time></trkpt><trkpt lat="45.1841485" lon="12.0858386"><ele>-2.0</ele><time>2026-04-15T10:06:01.205Z</time></trkpt><trkpt lat="45.1838998" lon="12.0857363"><ele>-2.0</ele><time>2026-04-15T10:06:02.207Z</time></trkpt><trkpt lat="45.1836535" lon="12.0856338"><ele>-2.0</ele><time>2026-04-15T10:06:03.207Z</time></trkpt><trkpt lat="45.1834039" lon="12.0855374"><ele>-2.0</ele><time>2026-04-15T10:06:04.205Z</time></trkpt><trkpt lat="45.183155" lon="12.0854452"><ele>-2.5</ele><time>2026-04-15T10:06:05.198Z</time></trkpt><trkpt lat="45.1829092" lon="12.0853468"><ele>-3.0</ele><time>2026-04-15T10:06:06.212Z</time></trkpt><trkpt lat="45.1826662" lon="12.0852499"><ele>-3.0</ele><time>2026-04-15T10:06:07.19Z</time></trkpt><trkpt lat="45.1824256" lon="12.0851488"><ele>-3.0</ele><time>2026-04-15T10:06:08.208Z</time></trkpt><trkpt lat="45.1821865" lon="12.0850526"><ele>-3.0</ele><time>2026-04-15T10:06:09.195Z</time></trkpt><trkpt lat="45.1819507" lon="12.0849584"><ele>-3.0</ele><time>2026-04-15T10:06:10.2Z</time></trkpt><trkpt lat="45.1817151" lon="12.0848579"><ele>-3.5</ele><time>2026-04-15T10:06:11.204Z</time></trkpt><trkpt lat="45.1814774" lon="12.0847593"><ele>-4.0</ele><time>2026-04-15T10:06:12.194Z</time></trkpt><trkpt lat="45.1812416" lon="12.0846625"><ele>-4.0</ele><time>2026-04-15T10:06:13.22Z</time></trkpt><trkpt lat="45.1810061" lon="12.0845664"><ele>-4.0</ele><time>2026-04-15T10:06:14.21Z</time></trkpt><trkpt lat="45.1807736" lon="12.0844756"><ele>-4.5</ele><time>2026-04-15T10:06:15.196Z</time></trkpt><trkpt lat="45.1805451" lon="12.0843846"><ele>-5.0</ele><time>2026-04-15T10:06:16.19Z</time></trkpt><trkpt lat="45.1803149" lon="12.0842928"><ele>-5.0</ele><time>2026-04-15T10:06:17.194Z</time></trkpt><trkpt lat="45.180087" lon="12.0841984"><ele>-5.0</ele><time>2026-04-15T10:06:18.205Z</time></trkpt><trkpt lat="45.1798541" lon="12.0841066"><ele>-3.5</ele><time>2026-04-15T10:06:19.204Z</time></trkpt><trkpt lat="45.1796143" lon="12.0840103"><ele>-2.0</ele><time>2026-04-15T10:06:20.186Z</time></trkpt><trkpt lat="45.1793646" lon="12.0839064"><ele>-2.0</ele><time>2026-04-15T10:06:21.212Z</time></trkpt><trkpt lat="45.1791084" lon="12.0838136"><ele>-2.0</ele><time>2026-04-15T10:06:22.203Z</time></trkpt><trkpt lat="45.1788498" lon="12.0837168"><ele>-2.5</ele><time>2026-04-15T10:06:23.217Z</time></trkpt><trkpt lat="45.1785871" lon="12.0836204"><ele>-3.0</ele><time>2026-04-15T10:06:24.205Z</time></trkpt><trkpt lat="45.1783172" lon="12.0835194"><ele>-2.0</ele><time>2026-04-15T10:06:25.208Z</time></trkpt><trkpt lat="45.1780367" lon="12.0834127"><ele>-1.0</ele><time>2026-04-15T10:06:26.189Z</time></trkpt><trkpt lat="45.1777535" lon="12.0832988"><ele>-2.0</ele><time>2026-04-15T10:06:27.201Z</time></trkpt><trkpt lat="45.1774845" lon="12.0831828"><ele>-3.0</ele><time>2026-04-15T10:06:28.202Z</time></trkpt><trkpt lat="45.1772449" lon="12.0830727"><ele>-3.0</ele><time>2026-04-15T10:06:29.204Z</time></trkpt><trkpt lat="45.1770242" lon="12.0829749"><ele>-3.0</ele><time>2026-04-15T10:06:30.207Z</time></trkpt><trkpt lat="45.1768125" lon="12.0828953"><ele>-3.0</ele><time>2026-04-15T10:06:31.193Z</time></trkpt><trkpt lat="45.1766163" lon="12.0828159"><ele>-3.0</ele><time>2026-04-15T10:06:32.194Z</time></trkpt><trkpt lat="45.1764347" lon="12.0827412"><ele>-3.0</ele><time>2026-04-15T10:06:33.209Z</time></trkpt><trkpt lat="45.1762613" lon="12.0826707"><ele>-3.0</ele><time>2026-04-15T10:06:34.2Z</time></trkpt><trkpt lat="45.1760962" lon="12.0826028"><ele>-3.0</ele><time>2026-04-15T10:06:35.216Z</time></trkpt><trkpt lat="45.1759347" lon="12.082535"><ele>-3.0</ele><time>2026-04-15T10:06:36.209Z</time></trkpt><trkpt lat="45.1757762" lon="12.082476"><ele>-3.0</ele><time>2026-04-15T10:06:37.206Z</time></trkpt><trkpt lat="45.1756227" lon="12.0824163"><ele>-3.0</ele><time>2026-04-15T10:06:38.19Z</time></trkpt><trkpt lat="45.1754714" lon="12.0823601"><ele>-3.0</ele><time>2026-04-15T10:06:39.214Z</time></trkpt><trkpt lat="45.1753214" lon="12.0823014"><ele>-3.0</ele><time>2026-04-15T10:06:40.207Z</time></trkpt><trkpt lat="45.1751776" lon="12.0822455"><ele>-3.0</ele><time>2026-04-15T10:06:41.202Z</time></trkpt><trkpt lat="45.1750371" lon="12.0821928"><ele>-3.0</ele><time>2026-04-15T10:06:42.205Z</time></trkpt><trkpt lat="45.174901" lon="12.0821446"><ele>-3.0</ele><time>2026-04-15T10:06:43.202Z</time></trkpt><trkpt lat="45.1747582" lon="12.0820885"><ele>-2.6666666666666665</ele><time>2026-04-15T10:06:44.21Z</time></trkpt><trkpt lat="45.1746108" lon="12.0820286"><ele>-2.333333333333333</ele><time>2026-04-15T10:06:45.214Z</time></trkpt><trkpt lat="45.1744629" lon="12.0819683"><ele>-2.0</ele><time>2026-04-15T10:06:46.204Z</time></trkpt><trkpt lat="45.1743144" lon="12.0819093"><ele>-2.0</ele><time>2026-04-15T10:06:47.207Z</time></trkpt><trkpt lat="45.1741626" lon="12.0818467"><ele>-2.0</ele><time>2026-04-15T10:06:48.199Z</time></trkpt><trkpt lat="45.1740124" lon="12.0817858"><ele>-2.0</ele><time>2026-04-15T10:06:49.204Z</time></trkpt><trkpt lat="45.1738682" lon="12.0817259"><ele>-2.0</ele><time>2026-04-15T10:06:50.201Z</time></trkpt><trkpt lat="45.1737316" lon="12.0816688"><ele>-2.0</ele><time>2026-04-15T10:06:51.201Z</time></trkpt><trkpt lat="45.1735963" lon="12.0816141"><ele>-2.0</ele><time>2026-04-15T10:06:52.201Z</time></trkpt><trkpt lat="45.173461" lon="12.0815596"><ele>-2.0</ele><time>2026-04-15T10:06:53.2Z</time></trkpt><trkpt lat="45.1733196" lon="12.0815041"><ele>-2.333333333333333</ele><time>2026-04-15T10:06:54.213Z</time></trkpt><trkpt lat="45.1731693" lon="12.0814455"><ele>-2.6666666666666665</ele><time>2026-04-15T10:06:55.227Z</time></trkpt><trkpt lat="45.1730184" lon="12.081383"><ele>-3.0</ele><time>2026-04-15T10:06:56.198Z</time></trkpt><trkpt lat="45.1728664" lon="12.0813231"><ele>-3.0</ele><time>2026-04-15T10:06:57.195Z</time></trkpt><trkpt lat="45.1727184" lon="12.0812606"><ele>-3.0</ele><time>2026-04-15T10:06:58.19Z</time></trkpt><trkpt lat="45.1725718" lon="12.0811965"><ele>-3.0</ele><time>2026-04-15T10:06:59.198Z</time></trkpt><trkpt lat="45.1724223" lon="12.0811384"><ele>-2.6666666666666665</ele><time>2026-04-15T10:07:00.199Z</time></trkpt><trkpt lat="45.1722664" lon="12.0810778"><ele>-2.333333333333333</ele><time>2026-04-15T10:07:01.196Z</time></trkpt><trkpt lat="45.1721093" lon="12.0810193"><ele>-2.0</ele><time>2026-04-15T10:07:02.195Z</time></trkpt><trkpt lat="45.1719412" lon="12.0809549"><ele>-2.0</ele><time>2026-04-15T10:07:03.205Z</time></trkpt><trkpt lat="45.1717442" lon="12.080886"><ele>-2.0</ele><time>2026-04-15T10:07:04.189Z</time></trkpt><trkpt lat="45.1715231" lon="12.0808064"><ele>-2.0</ele><time>2026-04-15T10:07:05.203Z</time></trkpt><trkpt lat="45.1712655" lon="12.0807084"><ele>-2.0</ele><time>2026-04-15T10:07:06.206Z</time></trkpt><trkpt lat="45.1709961" lon="12.0805884"><ele>-2.0</ele><time>2026-04-15T10:07:07.222Z</time></trkpt><trkpt lat="45.1707286" lon="12.0804575"><ele>-2.5</ele><time>2026-04-15T10:07:08.2Z</time></trkpt><trkpt lat="45.1704631" lon="12.0803339"><ele>-3.0</ele><time>2026-04-15T10:07:09.209Z</time></trkpt><trkpt lat="45.1701986" lon="12.0802257"><ele>-3.0</ele><time>2026-04-15T10:07:10.197Z</time></trkpt><trkpt lat="45.1699399" lon="12.080128"><ele>-3.0</ele><time>2026-04-15T10:07:11.197Z</time></trkpt><trkpt lat="45.1696858" lon="12.0800324"><ele>-3.5</ele><time>2026-04-15T10:07:12.217Z</time></trkpt><trkpt lat="45.1694305" lon="12.0799336"><ele>-4.0</ele><time>2026-04-15T10:07:13.191Z</time></trkpt><trkpt lat="45.1691743" lon="12.0798322"><ele>-4.0</ele><time>2026-04-15T10:07:14.219Z</time></trkpt><trkpt lat="45.1689184" lon="12.079727"><ele>-4.0</ele><time>2026-04-15T10:07:15.198Z</time></trkpt><trkpt lat="45.1686659" lon="12.0796229"><ele>-4.0</ele><time>2026-04-15T10:07:16.203Z</time></trkpt><trkpt lat="45.1684154" lon="12.079522"><ele>-4.0</ele><time>2026-04-15T10:07:17.21Z</time></trkpt><trkpt lat="45.1681631" lon="12.0794225"><ele>-3.5</ele><time>2026-04-15T10:07:18.204Z</time></trkpt><trkpt lat="45.1679112" lon="12.0793216"><ele>-3.0</ele><time>2026-04-15T10:07:19.202Z</time></trkpt><trkpt lat="45.167665" lon="12.0792218"><ele>-3.0</ele><time>2026-04-15T10:07:20.191Z</time></trkpt><trkpt lat="45.1674218" lon="12.0791234"><ele>-3.0</ele><time>2026-04-15T10:07:21.223Z</time></trkpt><trkpt lat="45.1671795" lon="12.079015"><ele>-3.0</ele><time>2026-04-15T10:07:22.213Z</time></trkpt><trkpt lat="45.1669354" lon="12.0788963"><ele>-3.0</ele><time>2026-04-15T10:07:23.191Z</time></trkpt><trkpt lat="45.166686" lon="12.0787547"><ele>-4.0</ele><time>2026-04-15T10:07:24.194Z</time></trkpt><trkpt lat="45.1664374" lon="12.0785974"><ele>-5.0</ele><time>2026-04-15T10:07:25.182Z</time></trkpt><trkpt lat="45.166193" lon="12.0784292"><ele>-4.0</ele><time>2026-04-15T10:07:26.204Z</time></trkpt><trkpt lat="45.1659541" lon="12.0782529"><ele>-3.0</ele><time>2026-04-15T10:07:27.198Z</time></trkpt><trkpt lat="45.1657213" lon="12.078068"><ele>-3.0</ele><time>2026-04-15T10:07:28.179Z</time></trkpt><trkpt lat="45.1654929" lon="12.0778803"><ele>-3.0</ele><time>2026-04-15T10:07:29.195Z</time></trkpt><trkpt lat="45.1652674" lon="12.0776855"><ele>-3.0</ele><time>2026-04-15T10:07:30.206Z</time></trkpt><trkpt lat="45.1650365" lon="12.0774891"><ele>-3.0</ele><time>2026-04-15T10:07:31.201Z</time></trkpt><trkpt lat="45.1648066" lon="12.0772948"><ele>-3.5</ele><time>2026-04-15T10:07:32.194Z</time></trkpt><trkpt lat="45.1645704" lon="12.0770988"><ele>-4.0</ele><time>2026-04-15T10:07:33.19Z</time></trkpt><trkpt lat="45.1643315" lon="12.0769043"><ele>-4.0</ele><time>2026-04-15T10:07:34.194Z</time></trkpt><trkpt lat="45.1640941" lon="12.0766974"><ele>-4.0</ele><time>2026-04-15T10:07:35.215Z</time></trkpt><trkpt lat="45.1638499" lon="12.0764964"><ele>-3.5</ele><time>2026-04-15T10:07:36.177Z</time></trkpt><trkpt lat="45.1636052" lon="12.0762958"><ele>-3.0</ele><time>2026-04-15T10:07:37.208Z</time></trkpt><trkpt lat="45.1633639" lon="12.0760959"><ele>-2.0</ele><time>2026-04-15T10:07:38.189Z</time></trkpt><trkpt lat="45.1631206" lon="12.0758914"><ele>-1.0</ele><time>2026-04-15T10:07:39.197Z</time></trkpt><trkpt lat="45.1628758" lon="12.0756899"><ele>-0.5</ele><time>2026-04-15T10:07:40.208Z</time></trkpt><trkpt lat="45.1626284" lon="12.0754875"><ele>0.0</ele><time>2026-04-15T10:07:41.205Z</time></trkpt><trkpt lat="45.1623781" lon="12.0752834"><ele>-1.0</ele><time>2026-04-15T10:07:42.186Z</time></trkpt><trkpt lat="45.1621294" lon="12.0750751"><ele>-2.0</ele><time>2026-04-15T10:07:43.198Z</time></trkpt><trkpt lat="45.1618788" lon="12.0748664"><ele>-2.5</ele><time>2026-04-15T10:07:44.19Z</time></trkpt><trkpt lat="45.1616302" lon="12.074659"><ele>-3.0</ele><time>2026-04-15T10:07:45.209Z</time></trkpt><trkpt lat="45.1613835" lon="12.074454"><ele>-3.0</ele><time>2026-04-15T10:07:46.198Z</time></trkpt><trkpt lat="45.1611359" lon="12.0742419"><ele>-3.0</ele><time>2026-04-15T10:07:47.192Z</time></trkpt><trkpt lat="45.1608848" lon="12.0740371"><ele>-3.0</ele><time>2026-04-15T10:07:48.193Z</time></trkpt><trkpt lat="45.1606367" lon="12.0738328"><ele>-3.0</ele><time>2026-04-15T10:07:49.199Z</time></trkpt><trkpt lat="45.1603864" lon="12.0736248"><ele>-3.0</ele><time>2026-04-15T10:07:50.189Z</time></trkpt><trkpt lat="45.1601394" lon="12.0734152"><ele>-3.0</ele><time>2026-04-15T10:07:51.189Z</time></trkpt><trkpt lat="45.1598941" lon="12.0732058"><ele>-4.0</ele><time>2026-04-15T10:07:52.203Z</time></trkpt><trkpt lat="45.1596543" lon="12.0729978"><ele>-5.0</ele><time>2026-04-15T10:07:53.205Z</time></trkpt><trkpt lat="45.1594139" lon="12.0727957"><ele>-5.0</ele><time>2026-04-15T10:07:54.189Z</time></trkpt><trkpt lat="45.159173" lon="12.0725969"><ele>-5.0</ele><time>2026-04-15T10:07:55.189Z</time></trkpt><trkpt lat="45.1589331" lon="12.0723979"><ele>-5.0</ele><time>2026-04-15T10:07:56.196Z</time></trkpt><trkpt lat="45.1586908" lon="12.0722012"><ele>-5.0</ele><time>2026-04-15T10:07:57.193Z</time></trkpt><trkpt lat="45.1584559" lon="12.0720061"><ele>-5.0</ele><time>2026-04-15T10:07:58.188Z</time></trkpt><trkpt lat="45.158226" lon="12.0718148"><ele>-5.0</ele><time>2026-04-15T10:07:59.202Z</time></trkpt><trkpt lat="45.1580018" lon="12.0716288"><ele>-3.5</ele><time>2026-04-15T10:08:00.189Z</time></trkpt><trkpt lat="45.1577692" lon="12.0714373"><ele>-2.0</ele><time>2026-04-15T10:08:01.209Z</time></trkpt><trkpt lat="45.1575279" lon="12.0712355"><ele>-3.0</ele><time>2026-04-15T10:08:02.189Z</time></trkpt><trkpt lat="45.1572835" lon="12.0710293"><ele>-4.0</ele><time>2026-04-15T10:08:03.201Z</time></trkpt><trkpt lat="45.1570341" lon="12.070823"><ele>-3.5</ele><time>2026-04-15T10:08:04.188Z</time></trkpt><trkpt lat="45.1567887" lon="12.0706195"><ele>-3.0</ele><time>2026-04-15T10:08:05.194Z</time></trkpt><trkpt lat="45.1565403" lon="12.0704184"><ele>-3.5</ele><time>2026-04-15T10:08:06.204Z</time></trkpt><trkpt lat="45.156299" lon="12.070214"><ele>-4.0</ele><time>2026-04-15T10:08:07.201Z</time></trkpt><trkpt lat="45.1560621" lon="12.0700137"><ele>-4.0</ele><time>2026-04-15T10:08:08.183Z</time></trkpt><trkpt lat="45.1558239" lon="12.0698185"><ele>-4.0</ele><time>2026-04-15T10:08:09.207Z</time></trkpt><trkpt lat="45.155587" lon="12.0696177"><ele>-4.0</ele><time>2026-04-15T10:08:10.195Z</time></trkpt><trkpt lat="45.1553521" lon="12.0694201"><ele>-4.0</ele><time>2026-04-15T10:08:11.204Z</time></trkpt><trkpt lat="45.1551219" lon="12.0692252"><ele>-3.5</ele><time>2026-04-15T10:08:12.196Z</time></trkpt><trkpt lat="45.1548904" lon="12.0690346"><ele>-3.0</ele><time>2026-04-15T10:08:13.197Z</time></trkpt><trkpt lat="45.1546642" lon="12.0688414"><ele>-3.0</ele><time>2026-04-15T10:08:14.192Z</time></trkpt><trkpt lat="45.154442" lon="12.0686491"><ele>-3.0</ele><time>2026-04-15T10:08:15.189Z</time></trkpt><trkpt lat="45.1542276" lon="12.0684708"><ele>-3.0</ele><time>2026-04-15T10:08:16.195Z</time></trkpt><trkpt lat="45.1540241" lon="12.068296"><ele>-3.0</ele><time>2026-04-15T10:08:17.201Z</time></trkpt><trkpt lat="45.1538364" lon="12.0681365"><ele>-2.6666666666666665</ele><time>2026-04-15T10:08:18.189Z</time></trkpt><trkpt lat="45.1536679" lon="12.0679959"><ele>-2.333333333333333</ele><time>2026-04-15T10:08:19.184Z</time></trkpt><trkpt lat="45.1535037" lon="12.0678867"><ele>-2.0</ele><time>2026-04-15T10:08:20.203Z</time></trkpt><trkpt lat="45.1533354" lon="12.0678127"><ele>-3.0</ele><time>2026-04-15T10:08:21.185Z</time></trkpt><trkpt lat="45.153168" lon="12.067771"><ele>-4.0</ele><time>2026-04-15T10:08:22.187Z</time></trkpt><trkpt lat="45.1530121" lon="12.0677339"><ele>-5.0</ele><time>2026-04-15T10:08:23.205Z</time></trkpt><trkpt lat="45.1528722" lon="12.0676531"><ele>-5.0</ele><time>2026-04-15T10:08:24.188Z</time></trkpt><trkpt lat="45.1527606" lon="12.0675457"><ele>-5.0</ele><time>2026-04-15T10:08:25.197Z</time></trkpt><trkpt lat="45.152686" lon="12.0674482"><ele>-5.0</ele><time>2026-04-15T10:08:26.194Z</time></trkpt><trkpt lat="45.1526382" lon="12.0673781"><ele>-5.0</ele><time>2026-04-15T10:08:27.206Z</time></trkpt><trkpt lat="45.1526035" lon="12.0673001"><ele>-5.0</ele><time>2026-04-15T10:08:28.187Z</time></trkpt><trkpt lat="45.1525622" lon="12.0671925"><ele>-5.0</ele><time>2026-04-15T10:08:29.192Z</time></trkpt><trkpt lat="45.1524844" lon="12.067068"><ele>-5.0</ele><time>2026-04-15T10:08:30.212Z</time></trkpt><trkpt lat="45.1523743" lon="12.0669569"><ele>-5.0</ele><time>2026-04-15T10:08:31.192Z</time></trkpt><trkpt lat="45.1522556" lon="12.0668832"><ele>-5.0</ele><time>2026-04-15T10:08:32.194Z</time></trkpt><trkpt lat="45.1521298" lon="12.0668598"><ele>-4.75</ele><time>2026-04-15T10:08:33.2Z</time></trkpt><trkpt lat="45.1520027" lon="12.066873"><ele>-4.5</ele><time>2026-04-15T10:08:34.199Z</time></trkpt><trkpt lat="45.1518805" lon="12.0669084"><ele>-4.25</ele><time>2026-04-15T10:08:35.207Z</time></trkpt><trkpt lat="45.1517594" lon="12.066927"><ele>-4.0</ele><time>2026-04-15T10:08:36.187Z</time></trkpt><trkpt lat="45.1516365" lon="12.0669087"><ele>-4.0</ele><time>2026-04-15T10:08:37.186Z</time></trkpt><trkpt lat="45.1515141" lon="12.0668347"><ele>-4.0</ele><time>2026-04-15T10:08:38.182Z</time></trkpt><trkpt lat="45.1514011" lon="12.0667365"><ele>-4.0</ele><time>2026-04-15T10:08:39.195Z</time></trkpt><trkpt lat="45.1512971" lon="12.0666265"><ele>-4.0</ele><time>2026-04-15T10:08:40.194Z</time></trkpt><trkpt lat="45.1511924" lon="12.0665142"><ele>-4.0</ele><time>2026-04-15T10:08:41.202Z</time></trkpt><trkpt lat="45.1510866" lon="12.0664035"><ele>-4.0</ele><time>2026-04-15T10:08:42.203Z</time></trkpt><trkpt lat="45.1509776" lon="12.0662927"><ele>-4.0</ele><time>2026-04-15T10:08:43.186Z</time></trkpt><trkpt lat="45.1508636" lon="12.0661794"><ele>-4.0</ele><time>2026-04-15T10:08:44.182Z</time></trkpt><trkpt lat="45.1507423" lon="12.06608"><ele>-3.75</ele><time>2026-04-15T10:08:45.2Z</time></trkpt><trkpt lat="45.1506108" lon="12.0660007"><ele>-3.5</ele><time>2026-04-15T10:08:46.193Z</time></trkpt><trkpt lat="45.1504692" lon="12.0659546"><ele>-3.25</ele><time>2026-04-15T10:08:47.191Z</time></trkpt><trkpt lat="45.1503205" lon="12.0659317"><ele>-3.0</ele><time>2026-04-15T10:08:48.187Z</time></trkpt><trkpt lat="45.1501724" lon="12.0659225"><ele>-3.0</ele><time>2026-04-15T10:08:49.203Z</time></trkpt><trkpt lat="45.1500193" lon="12.0659125"><ele>-3.0</ele><time>2026-04-15T10:08:50.189Z</time></trkpt><trkpt lat="45.1498711" lon="12.0658998"><ele>-3.0</ele><time>2026-04-15T10:08:51.197Z</time></trkpt><trkpt lat="45.1497285" lon="12.0658784"><ele>-3.0</ele><time>2026-04-15T10:08:52.181Z</time></trkpt><trkpt lat="45.1495855" lon="12.0658623"><ele>-2.5</ele><time>2026-04-15T10:08:53.194Z</time></trkpt><trkpt lat="45.1494393" lon="12.0658437"><ele>-2.0</ele><time>2026-04-15T10:08:54.189Z</time></trkpt><trkpt lat="45.149291" lon="12.0658255"><ele>-1.5</ele><time>2026-04-15T10:08:55.196Z</time></trkpt><trkpt lat="45.1491449" lon="12.0658084"><ele>-1.0</ele><time>2026-04-15T10:08:56.186Z</time></trkpt><trkpt lat="45.1489996" lon="12.0657913"><ele>-1.25</ele><time>2026-04-15T10:08:57.195Z</time></trkpt><trkpt lat="45.1488581" lon="12.0657752"><ele>-1.5</ele><time>2026-04-15T10:08:58.224Z</time></trkpt><trkpt lat="45.1487199" lon="12.0657571"><ele>-1.75</ele><time>2026-04-15T10:08:59.183Z</time></trkpt><trkpt lat="45.148586" lon="12.0657415"><ele>-2.0</ele><time>2026-04-15T10:09:00.197Z</time></trkpt><trkpt lat="45.1484557" lon="12.065724"><ele>-2.0</ele><time>2026-04-15T10:09:01.19Z</time></trkpt><trkpt lat="45.1483251" lon="12.0657072"><ele>-2.0</ele><time>2026-04-15T10:09:02.188Z</time></trkpt><trkpt lat="45.1481939" lon="12.0656927"><ele>-2.0</ele><time>2026-04-15T10:09:03.187Z</time></trkpt><trkpt lat="45.1480605" lon="12.0656788"><ele>-2.0</ele><time>2026-04-15T10:09:04.186Z</time></trkpt><trkpt lat="45.1479264" lon="12.0656636"><ele>-1.75</ele><time>2026-04-15T10:09:05.194Z</time></trkpt><trkpt lat="45.147791" lon="12.0656479"><ele>-1.5</ele><time>2026-04-15T10:09:06.197Z</time></trkpt><trkpt lat="45.147657" lon="12.0656315"><ele>-1.25</ele><time>2026-04-15T10:09:07.194Z</time></trkpt><trkpt lat="45.1475249" lon="12.0656133"><ele>-1.0</ele><time>2026-04-15T10:09:08.205Z</time></trkpt><trkpt lat="45.1473958" lon="12.065591"><ele>-0.6000000000000001</ele><time>2026-04-15T10:09:09.196Z</time></trkpt><trkpt lat="45.1472664" lon="12.0655751"><ele>-0.20000000000000007</ele><time>2026-04-15T10:09:10.191Z</time></trkpt><trkpt lat="45.1471488" lon="12.0655631"><ele>0.20000000000000007</ele><time>2026-04-15T10:09:11.186Z</time></trkpt><trkpt lat="45.147048" lon="12.0655494"><ele>0.6000000000000001</ele><time>2026-04-15T10:09:12.193Z</time></trkpt><trkpt lat="45.1469627" lon="12.0655389"><ele>1.0</ele><time>2026-04-15T10:09:13.186Z</time></trkpt><trkpt lat="45.1468976" lon="12.0655257"><ele>0.9999999999999999</ele><time>2026-04-15T10:09:14.183Z</time></trkpt><trkpt lat="45.1467978" lon="12.0655057"><ele>1.0</ele><time>2026-04-15T10:09:16.19Z</time></trkpt><trkpt lat="45.1467212" lon="12.0654939"><ele>1.0</ele><time>2026-04-15T10:09:18.203Z</time></trkpt><trkpt lat="45.146633" lon="12.06548"><ele>1.0</ele><time>2026-04-15T10:09:21.19Z</time></trkpt><trkpt lat="45.1465623" lon="12.0654664"><ele>0.9999999999999999</ele><time>2026-04-15T10:09:23.189Z</time></trkpt><trkpt lat="45.1464676" lon="12.0654311"><ele>1.0</ele><time>2026-04-15T10:09:25.194Z</time></trkpt><trkpt lat="45.1463646" lon="12.0653661"><ele>1.0</ele><time>2026-04-15T10:09:27.186Z</time></trkpt><trkpt lat="45.1462938" lon="12.0652818"><ele>1.0</ele><time>2026-04-15T10:09:29.185Z</time></trkpt><trkpt lat="45.146247" lon="12.0652112"><ele>1.0</ele><time>2026-04-15T10:09:32.187Z</time></trkpt><trkpt lat="45.1461697" lon="12.0652199"><ele>1.0</ele><time>2026-04-15T10:09:45.184Z</time></trkpt><trkpt lat="45.1460755" lon="12.0652781"><ele>1.0</ele><time>2026-04-15T10:09:46.195Z</time></trkpt><trkpt lat="45.1459743" lon="12.0653728"><ele>1.0</ele><time>2026-04-15T10:09:47.192Z</time></trkpt><trkpt lat="45.1458574" lon="12.06547"><ele>1.0</ele><time>2026-04-15T10:09:48.193Z</time></trkpt><trkpt lat="45.1457424" lon="12.0655732"><ele>1.0</ele><time>2026-04-15T10:09:49.194Z</time></trkpt><trkpt lat="45.1456427" lon="12.0656647"><ele>1.0</ele><time>2026-04-15T10:09:50.175Z</time></trkpt><trkpt lat="45.1455504" lon="12.0657575"><ele>1.2000000000000002</ele><time>2026-04-15T10:09:51.191Z</time></trkpt><trkpt lat="45.1454627" lon="12.0658438"><ele>1.4000000000000001</ele><time>2026-04-15T10:09:52.174Z</time></trkpt><trkpt lat="45.1453849" lon="12.0659275"><ele>1.6</ele><time>2026-04-15T10:09:53.179Z</time></trkpt><trkpt lat="45.1453078" lon="12.0660107"><ele>1.8</ele><time>2026-04-15T10:09:54.199Z</time></trkpt><trkpt lat="45.1452335" lon="12.0660943"><ele>2.0</ele><time>2026-04-15T10:09:55.187Z</time></trkpt><trkpt lat="45.1451533" lon="12.0661797"><ele>2.0</ele><time>2026-04-15T10:09:56.184Z</time></trkpt><trkpt lat="45.1450718" lon="12.0662654"><ele>2.0</ele><time>2026-04-15T10:09:57.188Z</time></trkpt><trkpt lat="45.1449927" lon="12.0663492"><ele>2.0</ele><time>2026-04-15T10:09:58.174Z</time></trkpt><trkpt lat="45.1449094" lon="12.066436"><ele>2.0</ele><time>2026-04-15T10:09:59.192Z</time></trkpt><trkpt lat="45.1448253" lon="12.0665241"><ele>2.0</ele><time>2026-04-15T10:10:00.175Z</time></trkpt><trkpt lat="45.1447318" lon="12.0666204"><ele>1.75</ele><time>2026-04-15T10:10:01.177Z</time></trkpt><trkpt lat="45.1446328" lon="12.0667186"><ele>1.5</ele><time>2026-04-15T10:10:02.19Z</time></trkpt><trkpt lat="45.1445349" lon="12.0668101"><ele>1.25</ele><time>2026-04-15T10:10:03.187Z</time></trkpt><trkpt lat="45.1444366" lon="12.0669041"><ele>1.0</ele><time>2026-04-15T10:10:04.174Z</time></trkpt><trkpt lat="45.1443441" lon="12.0669984"><ele>1.0</ele><time>2026-04-15T10:10:05.185Z</time></trkpt><trkpt lat="45.1442484" lon="12.0670942"><ele>1.0</ele><time>2026-04-15T10:10:06.184Z</time></trkpt><trkpt lat="45.1441534" lon="12.067189"><ele>1.0</ele><time>2026-04-15T10:10:07.185Z</time></trkpt><trkpt lat="45.1440547" lon="12.0672803"><ele>1.0</ele><time>2026-04-15T10:10:08.187Z</time></trkpt><trkpt lat="45.143953" lon="12.0673724"><ele>0.75</ele><time>2026-04-15T10:10:09.181Z</time></trkpt><trkpt lat="45.1438475" lon="12.0674571"><ele>0.5</ele><time>2026-04-15T10:10:10.187Z</time></trkpt><trkpt lat="45.1437446" lon="12.0675427"><ele>0.25</ele><time>2026-04-15T10:10:11.179Z</time></trkpt><trkpt lat="45.1436424" lon="12.0676349"><ele>0.0</ele><time>2026-04-15T10:10:12.179Z</time></trkpt><trkpt lat="45.1435314" lon="12.0677326"><ele>0.0</ele><time>2026-04-15T10:10:13.191Z</time></trkpt><trkpt lat="45.1434142" lon="12.0678338"><ele>0.0</ele><time>2026-04-15T10:10:14.186Z</time></trkpt><trkpt lat="45.1432883" lon="12.0679354"><ele>0.0</ele><time>2026-04-15T10:10:15.176Z</time></trkpt><trkpt lat="45.1431559" lon="12.0680478"><ele>0.0</ele><time>2026-04-15T10:10:16.185Z</time></trkpt><trkpt lat="45.1430271" lon="12.0681572"><ele>0.0</ele><time>2026-04-15T10:10:17.187Z</time></trkpt><trkpt lat="45.1428982" lon="12.0682597"><ele>0.0</ele><time>2026-04-15T10:10:18.182Z</time></trkpt><trkpt lat="45.1427746" lon="12.0683497"><ele>0.0</ele><time>2026-04-15T10:10:19.198Z</time></trkpt><trkpt lat="45.14266" lon="12.0684441"><ele>0.0</ele><time>2026-04-15T10:10:20.184Z</time></trkpt><trkpt lat="45.142548" lon="12.0685452"><ele>-0.25</ele><time>2026-04-15T10:10:21.182Z</time></trkpt><trkpt lat="45.1424324" lon="12.0686471"><ele>-0.5</ele><time>2026-04-15T10:10:22.176Z</time></trkpt><trkpt lat="45.1423209" lon="12.0687427"><ele>-0.75</ele><time>2026-04-15T10:10:23.189Z</time></trkpt><trkpt lat="45.142213" lon="12.0688501"><ele>-1.0</ele><time>2026-04-15T10:10:24.191Z</time></trkpt><trkpt lat="45.1421106" lon="12.0689477"><ele>-1.0</ele><time>2026-04-15T10:10:25.168Z</time></trkpt><trkpt lat="45.1420119" lon="12.0690327"><ele>-1.0</ele><time>2026-04-15T10:10:26.183Z</time></trkpt><trkpt lat="45.1419146" lon="12.0691152"><ele>-1.0</ele><time>2026-04-15T10:10:27.179Z</time></trkpt><trkpt lat="45.1418286" lon="12.0691788"><ele>-1.0</ele><time>2026-04-15T10:10:28.174Z</time></trkpt><trkpt lat="45.1417489" lon="12.0692425"><ele>-1.0</ele><time>2026-04-15T10:10:29.191Z</time></trkpt><trkpt lat="45.141676" lon="12.0693061"><ele>-0.8333333333333333</ele><time>2026-04-15T10:10:30.177Z</time></trkpt><trkpt lat="45.1416005" lon="12.0693677"><ele>-0.6666666666666666</ele><time>2026-04-15T10:10:31.18Z</time></trkpt><trkpt lat="45.1415327" lon="12.0694228"><ele>-0.5</ele><time>2026-04-15T10:10:32.193Z</time></trkpt><trkpt lat="45.1414598" lon="12.0694781"><ele>-0.3333333333333333</ele><time>2026-04-15T10:10:33.176Z</time></trkpt><trkpt lat="45.1413869" lon="12.069538"><ele>-0.16666666666666666</ele><time>2026-04-15T10:10:34.179Z</time></trkpt><trkpt lat="45.1413193" lon="12.0695938"><ele>0.0</ele><time>2026-04-15T10:10:35.178Z</time></trkpt><trkpt lat="45.1412523" lon="12.0696488"><ele>0.6</ele><time>2026-04-15T10:10:36.191Z</time></trkpt><trkpt lat="45.1411789" lon="12.0697074"><ele>1.2</ele><time>2026-04-15T10:10:37.19Z</time></trkpt><trkpt lat="45.1411069" lon="12.0697711"><ele>1.7999999999999998</ele><time>2026-04-15T10:10:38.185Z</time></trkpt><trkpt lat="45.1410264" lon="12.0698365"><ele>2.4</ele><time>2026-04-15T10:10:39.186Z</time></trkpt><trkpt lat="45.1409368" lon="12.0699105"><ele>3.0</ele><time>2026-04-15T10:10:40.195Z</time></trkpt><trkpt lat="45.1408416" lon="12.0699878"><ele>3.0</ele><time>2026-04-15T10:10:41.184Z</time></trkpt><trkpt lat="45.1407493" lon="12.0700619"><ele>3.0</ele><time>2026-04-15T10:10:42.178Z</time></trkpt><trkpt lat="45.1406508" lon="12.0701447"><ele>3.0</ele><time>2026-04-15T10:10:43.187Z</time></trkpt><trkpt lat="45.1405485" lon="12.0702356"><ele>3.0</ele><time>2026-04-15T10:10:44.176Z</time></trkpt><trkpt lat="45.1404462" lon="12.070321"><ele>3.25</ele><time>2026-04-15T10:10:45.169Z</time></trkpt><trkpt lat="45.1403363" lon="12.0704114"><ele>3.5</ele><time>2026-04-15T10:10:46.175Z</time></trkpt><trkpt lat="45.1402233" lon="12.0705043"><ele>3.75</ele><time>2026-04-15T10:10:47.189Z</time></trkpt><trkpt lat="45.1401187" lon="12.0705986"><ele>4.0</ele><time>2026-04-15T10:10:48.188Z</time></trkpt><trkpt lat="45.1400302" lon="12.0706705"><ele>3.9999999999999996</ele><time>2026-04-15T10:10:49.179Z</time></trkpt><trkpt lat="45.1399497" lon="12.0707139"><ele>4.0</ele><time>2026-04-15T10:10:50.178Z</time></trkpt><trkpt lat="45.1398658" lon="12.0706757"><ele>4.0</ele><time>2026-04-15T10:10:52.177Z</time></trkpt><trkpt lat="45.1398477" lon="12.0705614"><ele>4.0</ele><time>2026-04-15T10:10:55.171Z</time></trkpt><trkpt lat="45.1398224" lon="12.0704709"><ele>3.9999999999999996</ele><time>2026-04-15T10:10:57.185Z</time></trkpt><trkpt lat="45.1397629" lon="12.0703466"><ele>4.0</ele><time>2026-04-15T10:10:59.171Z</time></trkpt><trkpt lat="45.1397094" lon="12.0702582"><ele>3.8000000000000003</ele><time>2026-04-15T10:11:00.174Z</time></trkpt><trkpt lat="45.139648" lon="12.0701608"><ele>3.6000000000000005</ele><time>2026-04-15T10:11:01.176Z</time></trkpt><trkpt lat="45.1395788" lon="12.0700583"><ele>3.4</ele><time>2026-04-15T10:11:02.17Z</time></trkpt><trkpt lat="45.1394997" lon="12.0699538"><ele>3.2</ele><time>2026-04-15T10:11:03.171Z</time></trkpt><trkpt lat="45.1394008" lon="12.0698453"><ele>3.0</ele><time>2026-04-15T10:11:04.175Z</time></trkpt><trkpt lat="45.1392837" lon="12.069739"><ele>3.0</ele><time>2026-04-15T10:11:05.177Z</time></trkpt><trkpt lat="45.1391496" lon="12.0696534"><ele>3.0</ele><time>2026-04-15T10:11:06.172Z</time></trkpt><trkpt lat="45.1390073" lon="12.0695761"><ele>3.0</ele><time>2026-04-15T10:11:07.18Z</time></trkpt><trkpt lat="45.1388576" lon="12.0695101"><ele>3.0</ele><time>2026-04-15T10:11:08.17Z</time></trkpt><trkpt lat="45.1387043" lon="12.0694485"><ele>3.0</ele><time>2026-04-15T10:11:09.174Z</time></trkpt><trkpt lat="45.1385425" lon="12.0693965"><ele>3.0</ele><time>2026-04-15T10:11:10.174Z</time></trkpt><trkpt lat="45.138381" lon="12.069358"><ele>3.0</ele><time>2026-04-15T10:11:11.171Z</time></trkpt><trkpt lat="45.1382218" lon="12.0693322"><ele>3.0</ele><time>2026-04-15T10:11:12.267Z</time></trkpt><trkpt lat="45.1380652" lon="12.0693206"><ele>3.0</ele><time>2026-04-15T10:11:13.173Z</time></trkpt><trkpt lat="45.1379" lon="12.0693276"><ele>3.333333333333333</ele><time>2026-04-15T10:11:14.169Z</time></trkpt><trkpt lat="45.1377333" lon="12.0693436"><ele>3.6666666666666665</ele><time>2026-04-15T10:11:15.172Z</time></trkpt><trkpt lat="45.1375665" lon="12.0693622"><ele>4.0</ele><time>2026-04-15T10:11:16.178Z</time></trkpt><trkpt lat="45.1373993" lon="12.0693853"><ele>3.333333333333333</ele><time>2026-04-15T10:11:17.177Z</time></trkpt><trkpt lat="45.1372335" lon="12.0694024"><ele>2.6666666666666665</ele><time>2026-04-15T10:11:18.175Z</time></trkpt><trkpt lat="45.137067" lon="12.069417"><ele>2.0</ele><time>2026-04-15T10:11:19.196Z</time></trkpt><trkpt lat="45.1368942" lon="12.0694242"><ele>2.0</ele><time>2026-04-15T10:11:20.176Z</time></trkpt><trkpt lat="45.1367251" lon="12.069432"><ele>2.0</ele><time>2026-04-15T10:11:21.182Z</time></trkpt><trkpt lat="45.1365535" lon="12.0694387"><ele>2.0</ele><time>2026-04-15T10:11:22.175Z</time></trkpt><trkpt lat="45.1363812" lon="12.0694359"><ele>2.333333333333333</ele><time>2026-04-15T10:11:23.173Z</time></trkpt><trkpt lat="45.136209" lon="12.0694232"><ele>2.6666666666666665</ele><time>2026-04-15T10:11:24.183Z</time></trkpt><trkpt lat="45.1360385" lon="12.0694093"><ele>3.0</ele><time>2026-04-15T10:11:25.185Z</time></trkpt><trkpt lat="45.1358681" lon="12.0693869"><ele>2.0</ele><time>2026-04-15T10:11:26.166Z</time></trkpt><trkpt lat="45.1356976" lon="12.0693543"><ele>1.0</ele><time>2026-04-15T10:11:27.183Z</time></trkpt><trkpt lat="45.135355" lon="12.069255"><ele>1.0</ele><time>2026-04-15T10:11:29.173Z</time></trkpt><trkpt lat="45.1351916" lon="12.0691939"><ele>1.0</ele><time>2026-04-15T10:11:30.173Z</time></trkpt><trkpt lat="45.135048" lon="12.0691331"><ele>1.0</ele><time>2026-04-15T10:11:31.184Z</time></trkpt><trkpt lat="45.1349256" lon="12.0690771"><ele>1.0</ele><time>2026-04-15T10:11:32.171Z</time></trkpt><trkpt lat="45.1348178" lon="12.0690297"><ele>1.0</ele><time>2026-04-15T10:11:33.167Z</time></trkpt><trkpt lat="45.1347188" lon="12.0689806"><ele>1.0</ele><time>2026-04-15T10:11:34.187Z</time></trkpt><trkpt lat="45.1346235" lon="12.0689311"><ele>1.0</ele><time>2026-04-15T10:11:35.166Z</time></trkpt><trkpt lat="45.1345313" lon="12.0688772"><ele>1.0</ele><time>2026-04-15T10:11:36.177Z</time></trkpt><trkpt lat="45.1344411" lon="12.0688092"><ele>1.0</ele><time>2026-04-15T10:11:37.181Z</time></trkpt><trkpt lat="45.1343573" lon="12.0687329"><ele>1.0</ele><time>2026-04-15T10:11:38.177Z</time></trkpt><trkpt lat="45.1342858" lon="12.0686434"><ele>1.0</ele><time>2026-04-15T10:11:39.182Z</time></trkpt><trkpt lat="45.1342195" lon="12.0685445"><ele>1.0</ele><time>2026-04-15T10:11:40.169Z</time></trkpt><trkpt lat="45.1341633" lon="12.0684425"><ele>1.0</ele><time>2026-04-15T10:11:41.163Z</time></trkpt><trkpt lat="45.1341116" lon="12.0683349"><ele>1.0</ele><time>2026-04-15T10:11:42.171Z</time></trkpt><trkpt lat="45.1340669" lon="12.0682202"><ele>0.9999999999999999</ele><time>2026-04-15T10:11:43.196Z</time></trkpt><trkpt lat="45.1340297" lon="12.0681028"><ele>1.0</ele><time>2026-04-15T10:11:44.157Z</time></trkpt><trkpt lat="45.1340012" lon="12.0679937"><ele>1.0</ele><time>2026-04-15T10:11:45.181Z</time></trkpt><trkpt lat="45.1339834" lon="12.0678992"><ele>1.0</ele><time>2026-04-15T10:11:46.164Z</time></trkpt><trkpt lat="45.1339627" lon="12.0677665"><ele>0.9999999999999999</ele><time>2026-04-15T10:11:48.164Z</time></trkpt><trkpt lat="45.1339441" lon="12.0676458"><ele>1.0</ele><time>2026-04-15T10:11:57.189Z</time></trkpt><trkpt lat="45.133926" lon="12.0675573"><ele>1.0</ele><time>2026-04-15T10:11:58.188Z</time></trkpt><trkpt lat="45.1339111" lon="12.0674521"><ele>1.0</ele><time>2026-04-15T10:11:59.183Z</time></trkpt><trkpt lat="45.1338949" lon="12.0673231"><ele>1.0</ele><time>2026-04-15T10:12:00.173Z</time></trkpt><trkpt lat="45.1338679" lon="12.0671853"><ele>1.0</ele><time>2026-04-15T10:12:01.162Z</time></trkpt><trkpt lat="45.133835" lon="12.0670302"><ele>1.0</ele><time>2026-04-15T10:12:02.172Z</time></trkpt><trkpt lat="45.1338019" lon="12.0668683"><ele>1.25</ele><time>2026-04-15T10:12:03.18Z</time></trkpt><trkpt lat="45.1337643" lon="12.0666976"><ele>1.5</ele><time>2026-04-15T10:12:04.173Z</time></trkpt><trkpt lat="45.133734" lon="12.0665193"><ele>1.75</ele><time>2026-04-15T10:12:05.165Z</time></trkpt><trkpt lat="45.1337067" lon="12.0663428"><ele>2.0</ele><time>2026-04-15T10:12:06.181Z</time></trkpt><trkpt lat="45.1336769" lon="12.0661651"><ele>2.25</ele><time>2026-04-15T10:12:07.176Z</time></trkpt><trkpt lat="45.1336475" lon="12.0659826"><ele>2.5</ele><time>2026-04-15T10:12:08.167Z</time></trkpt><trkpt lat="45.133623" lon="12.0658038"><ele>2.75</ele><time>2026-04-15T10:12:09.174Z</time></trkpt><trkpt lat="45.1336016" lon="12.065635"><ele>3.0</ele><time>2026-04-15T10:12:10.159Z</time></trkpt><trkpt lat="45.1335862" lon="12.0654727"><ele>2.5</ele><time>2026-04-15T10:12:11.182Z</time></trkpt><trkpt lat="45.1335797" lon="12.0653077"><ele>2.0</ele><time>2026-04-15T10:12:12.168Z</time></trkpt><trkpt lat="45.133585" lon="12.0651358"><ele>1.5</ele><time>2026-04-15T10:12:13.164Z</time></trkpt><trkpt lat="45.1335929" lon="12.0649557"><ele>1.0</ele><time>2026-04-15T10:12:14.187Z</time></trkpt><trkpt lat="45.1335997" lon="12.0647735"><ele>1.0</ele><time>2026-04-15T10:12:15.171Z</time></trkpt><trkpt lat="45.1336092" lon="12.0645938"><ele>1.0</ele><time>2026-04-15T10:12:16.177Z</time></trkpt><trkpt lat="45.133624" lon="12.0644136"><ele>1.0</ele><time>2026-04-15T10:12:17.166Z</time></trkpt><trkpt lat="45.1336454" lon="12.0642296"><ele>1.0</ele><time>2026-04-15T10:12:18.169Z</time></trkpt><trkpt lat="45.1336749" lon="12.0640458"><ele>1.0</ele><time>2026-04-15T10:12:19.19Z</time></trkpt><trkpt lat="45.1337073" lon="12.0638628"><ele>1.0</ele><time>2026-04-15T10:12:20.172Z</time></trkpt><trkpt lat="45.1337386" lon="12.0636832"><ele>1.0</ele><time>2026-04-15T10:12:21.192Z</time></trkpt><trkpt lat="45.1337732" lon="12.0635069"><ele>1.0</ele><time>2026-04-15T10:12:22.272Z</time></trkpt><trkpt lat="45.133858" lon="12.0631635"><ele>0.75</ele><time>2026-04-15T10:12:24.169Z</time></trkpt><trkpt lat="45.133909" lon="12.0629983"><ele>0.5</ele><time>2026-04-15T10:12:25.167Z</time></trkpt><trkpt lat="45.1339528" lon="12.0628315"><ele>0.25</ele><time>2026-04-15T10:12:26.177Z</time></trkpt><trkpt lat="45.1339979" lon="12.0626637"><ele>0.0</ele><time>2026-04-15T10:12:27.175Z</time></trkpt><trkpt lat="45.1340445" lon="12.0625044"><ele>0.75</ele><time>2026-04-15T10:12:28.161Z</time></trkpt><trkpt lat="45.1340974" lon="12.0623518"><ele>1.5</ele><time>2026-04-15T10:12:29.189Z</time></trkpt><trkpt lat="45.1341527" lon="12.0621934"><ele>2.25</ele><time>2026-04-15T10:12:30.178Z</time></trkpt><trkpt lat="45.134211" lon="12.062029"><ele>3.0</ele><time>2026-04-15T10:12:31.184Z</time></trkpt><trkpt lat="45.1342729" lon="12.0618626"><ele>3.0</ele><time>2026-04-15T10:12:32.166Z</time></trkpt><trkpt lat="45.1343441" lon="12.0616987"><ele>3.0</ele><time>2026-04-15T10:12:33.163Z</time></trkpt><trkpt lat="45.1344163" lon="12.0615345"><ele>3.0</ele><time>2026-04-15T10:12:34.162Z</time></trkpt><trkpt lat="45.1344899" lon="12.0613671"><ele>3.0</ele><time>2026-04-15T10:12:35.166Z</time></trkpt><trkpt lat="45.1345666" lon="12.0612042"><ele>2.25</ele><time>2026-04-15T10:12:36.175Z</time></trkpt><trkpt lat="45.1346448" lon="12.0610532"><ele>1.5</ele><time>2026-04-15T10:12:37.166Z</time></trkpt><trkpt lat="45.1347218" lon="12.0609064"><ele>0.75</ele><time>2026-04-15T10:12:38.173Z</time></trkpt><trkpt lat="45.1347967" lon="12.0607637"><ele>0.0</ele><time>2026-04-15T10:12:39.171Z</time></trkpt><trkpt lat="45.1348714" lon="12.060629"><ele>0.6</ele><time>2026-04-15T10:12:40.166Z</time></trkpt><trkpt lat="45.1349464" lon="12.0605025"><ele>1.2</ele><time>2026-04-15T10:12:41.163Z</time></trkpt><trkpt lat="45.1350159" lon="12.0603859"><ele>1.7999999999999998</ele><time>2026-04-15T10:12:42.176Z</time></trkpt><trkpt lat="45.1350804" lon="12.0602782"><ele>2.4</ele><time>2026-04-15T10:12:43.176Z</time></trkpt><trkpt lat="45.1351333" lon="12.0601978"><ele>3.0</ele><time>2026-04-15T10:12:44.157Z</time></trkpt><trkpt lat="45.1352198" lon="12.060052"><ele>3.0</ele><time>2026-04-15T10:12:46.168Z</time></trkpt><trkpt lat="45.1352778" lon="12.0599553"><ele>3.0</ele><time>2026-04-15T10:12:47.178Z</time></trkpt><trkpt lat="45.1353414" lon="12.0598477"><ele>3.0</ele><time>2026-04-15T10:12:48.162Z</time></trkpt><trkpt lat="45.1353968" lon="12.059752"><ele>3.0</ele><time>2026-04-15T10:12:49.168Z</time></trkpt><trkpt lat="45.1354566" lon="12.059667"><ele>3.0</ele><time>2026-04-15T10:12:50.161Z</time></trkpt><trkpt lat="45.1355145" lon="12.059582"><ele>3.0</ele><time>2026-04-15T10:12:51.183Z</time></trkpt><trkpt lat="45.1355651" lon="12.0595118"><ele>3.0</ele><time>2026-04-15T10:12:52.169Z</time></trkpt><trkpt lat="45.1356085" lon="12.059444"><ele>3.0</ele><time>2026-04-15T10:12:53.164Z</time></trkpt><trkpt lat="45.1356825" lon="12.0593266"><ele>3.0</ele><time>2026-04-15T10:12:55.173Z</time></trkpt><trkpt lat="45.1357702" lon="12.0591904"><ele>3.0</ele><time>2026-04-15T10:12:57.18Z</time></trkpt><trkpt lat="45.1358362" lon="12.0590863"><ele>3.0</ele><time>2026-04-15T10:12:58.176Z</time></trkpt><trkpt lat="45.1359109" lon="12.0589701"><ele>2.75</ele><time>2026-04-15T10:12:59.167Z</time></trkpt><trkpt lat="45.1359947" lon="12.058845"><ele>2.5</ele><time>2026-04-15T10:13:00.152Z</time></trkpt><trkpt lat="45.1360758" lon="12.0587186"><ele>2.25</ele><time>2026-04-15T10:13:01.174Z</time></trkpt><trkpt lat="45.1361589" lon="12.0585895"><ele>2.0</ele><time>2026-04-15T10:13:02.17Z</time></trkpt><trkpt lat="45.1362329" lon="12.0584622"><ele>2.0</ele><time>2026-04-15T10:13:03.171Z</time></trkpt><trkpt lat="45.1363005" lon="12.0583525"><ele>2.0</ele><time>2026-04-15T10:13:04.155Z</time></trkpt><trkpt lat="45.136365" lon="12.0582398"><ele>2.0</ele><time>2026-04-15T10:13:05.168Z</time></trkpt><trkpt lat="45.1364355" lon="12.0581223"><ele>2.0</ele><time>2026-04-15T10:13:06.167Z</time></trkpt><trkpt lat="45.1365119" lon="12.0580074"><ele>2.0</ele><time>2026-04-15T10:13:07.174Z</time></trkpt><trkpt lat="45.1365852" lon="12.0578912"><ele>2.2</ele><time>2026-04-15T10:13:08.167Z</time></trkpt><trkpt lat="45.1366558" lon="12.0577764"><ele>2.4000000000000004</ele><time>2026-04-15T10:13:09.154Z</time></trkpt><trkpt lat="45.1367255" lon="12.0576543"><ele>2.5999999999999996</ele><time>2026-04-15T10:13:10.166Z</time></trkpt><trkpt lat="45.1367896" lon="12.0575269"><ele>2.8</ele><time>2026-04-15T10:13:11.166Z</time></trkpt><trkpt lat="45.1368374" lon="12.0574198"><ele>3.0</ele><time>2026-04-15T10:13:12.166Z</time></trkpt><trkpt lat="45.1368805" lon="12.057336"><ele>3.0</ele><time>2026-04-15T10:13:13.185Z</time></trkpt><trkpt lat="45.1369219" lon="12.0572426"><ele>3.0</ele><time>2026-04-15T10:13:14.274Z</time></trkpt><trkpt lat="45.1370018" lon="12.057015"><ele>3.0</ele><time>2026-04-15T10:13:16.168Z</time></trkpt><trkpt lat="45.1370371" lon="12.0568889"><ele>3.0</ele><time>2026-04-15T10:13:17.166Z</time></trkpt><trkpt lat="45.1370705" lon="12.0567516"><ele>2.75</ele><time>2026-04-15T10:13:18.169Z</time></trkpt><trkpt lat="45.1370953" lon="12.056615"><ele>2.5</ele><time>2026-04-15T10:13:19.181Z</time></trkpt><trkpt lat="45.1371152" lon="12.0564763"><ele>2.25</ele><time>2026-04-15T10:13:20.161Z</time></trkpt><trkpt lat="45.1371372" lon="12.0563328"><ele>2.0</ele><time>2026-04-15T10:13:21.276Z</time></trkpt><trkpt lat="45.1371667" lon="12.0560308"><ele>2.0</ele><time>2026-04-15T10:13:23.161Z</time></trkpt><trkpt lat="45.137169" lon="12.0558831"><ele>2.0</ele><time>2026-04-15T10:13:24.162Z</time></trkpt><trkpt lat="45.1371627" lon="12.0557316"><ele>2.0</ele><time>2026-04-15T10:13:25.164Z</time></trkpt><trkpt lat="45.1371514" lon="12.0555763"><ele>2.0</ele><time>2026-04-15T10:13:26.286Z</time></trkpt><trkpt lat="45.1371315" lon="12.0554347"><ele>2.0</ele><time>2026-04-15T10:13:27.281Z</time></trkpt><trkpt lat="45.1371085" lon="12.0553214"><ele>2.0</ele><time>2026-04-15T10:13:28.277Z</time></trkpt><trkpt lat="45.1370571" lon="12.0550997"><ele>2.0</ele><time>2026-04-15T10:13:30.158Z</time></trkpt><trkpt lat="45.1370237" lon="12.0549801"><ele>2.0</ele><time>2026-04-15T10:13:31.183Z</time></trkpt><trkpt lat="45.136991" lon="12.0548621"><ele>2.0</ele><time>2026-04-15T10:13:32.152Z</time></trkpt><trkpt lat="45.1369603" lon="12.0547443"><ele>2.0</ele><time>2026-04-15T10:13:33.267Z</time></trkpt><trkpt lat="45.1369339" lon="12.0546252"><ele>2.25</ele><time>2026-04-15T10:13:34.269Z</time></trkpt><trkpt lat="45.1369086" lon="12.0545013"><ele>2.5</ele><time>2026-04-15T10:13:35.275Z</time></trkpt><trkpt lat="45.1368639" lon="12.0542517"><ele>2.75</ele><time>2026-04-15T10:13:37.165Z</time></trkpt><trkpt lat="45.1368427" lon="12.0541147"><ele>3.0</ele><time>2026-04-15T10:13:38.161Z</time></trkpt><trkpt lat="45.1368159" lon="12.0539834"><ele>3.2</ele><time>2026-04-15T10:13:39.18Z</time></trkpt><trkpt lat="45.1367857" lon="12.053852"><ele>3.4</ele><time>2026-04-15T10:13:40.26Z</time></trkpt><trkpt lat="45.1367623" lon="12.0537245"><ele>3.6000000000000005</ele><time>2026-04-15T10:13:41.278Z</time></trkpt><trkpt lat="45.1367473" lon="12.0535993"><ele>3.8000000000000003</ele><time>2026-04-15T10:13:42.258Z</time></trkpt><trkpt lat="45.1367246" lon="12.0534796"><ele>4.0</ele><time>2026-04-15T10:13:43.166Z</time></trkpt><trkpt lat="45.1366935" lon="12.0533713"><ele>4.166666666666666</ele><time>2026-04-15T10:13:44.153Z</time></trkpt><trkpt lat="45.1366588" lon="12.0532682"><ele>4.333333333333333</ele><time>2026-04-15T10:13:45.162Z</time></trkpt><trkpt lat="45.1366354" lon="12.0531626"><ele>4.5</ele><time>2026-04-15T10:13:46.266Z</time></trkpt><trkpt lat="45.1366157" lon="12.0530633"><ele>4.666666666666667</ele><time>2026-04-15T10:13:47.274Z</time></trkpt><trkpt lat="45.1365929" lon="12.0529628"><ele>4.833333333333334</ele><time>2026-04-15T10:13:48.276Z</time></trkpt><trkpt lat="45.1365674" lon="12.0528629"><ele>5.0</ele><time>2026-04-15T10:13:49.271Z</time></trkpt><trkpt lat="45.1365088" lon="12.0526837"><ele>4.833333333333334</ele><time>2026-04-15T10:13:51.218Z</time></trkpt><trkpt lat="45.1364792" lon="12.0525983"><ele>4.666666666666667</ele><time>2026-04-15T10:13:52.168Z</time></trkpt><trkpt lat="45.1364479" lon="12.0525151"><ele>4.5</ele><time>2026-04-15T10:13:53.267Z</time></trkpt><trkpt lat="45.1364155" lon="12.0524293"><ele>4.333333333333333</ele><time>2026-04-15T10:13:54.265Z</time></trkpt><trkpt lat="45.1363762" lon="12.0523407"><ele>4.166666666666666</ele><time>2026-04-15T10:13:55.274Z</time></trkpt><trkpt lat="45.1363236" lon="12.0522514"><ele>4.0</ele><time>2026-04-15T10:13:56.275Z</time></trkpt><trkpt lat="45.1362111" lon="12.0520496"><ele>3.9999999999999996</ele><time>2026-04-15T10:13:58.175Z</time></trkpt><trkpt lat="45.1361515" lon="12.0519367"><ele>4.0</ele><time>2026-04-15T10:13:59.281Z</time></trkpt><trkpt lat="45.1360847" lon="12.0518262"><ele>4.0</ele><time>2026-04-15T10:14:00.259Z</time></trkpt><trkpt lat="45.1360124" lon="12.051722"><ele>4.0</ele><time>2026-04-15T10:14:01.277Z</time></trkpt><trkpt lat="45.1359626" lon="12.0516536"><ele>3.9999999999999996</ele><time>2026-04-15T10:14:02.265Z</time></trkpt><trkpt lat="45.1359198" lon="12.0515746"><ele>4.0</ele><time>2026-04-15T10:14:04.172Z</time></trkpt><trkpt lat="45.1358232" lon="12.0514386"><ele>4.0</ele><time>2026-04-15T10:14:06.267Z</time></trkpt><trkpt lat="45.1357445" lon="12.0513371"><ele>4.0</ele><time>2026-04-15T10:14:07.265Z</time></trkpt><trkpt lat="45.1356572" lon="12.05124"><ele>4.0</ele><time>2026-04-15T10:14:08.28Z</time></trkpt><trkpt lat="45.1355729" lon="12.0511343"><ele>4.0</ele><time>2026-04-15T10:14:09.277Z</time></trkpt><trkpt lat="45.1354801" lon="12.0510223"><ele>4.0</ele><time>2026-04-15T10:14:10.256Z</time></trkpt><trkpt lat="45.1353827" lon="12.0509113"><ele>4.0</ele><time>2026-04-15T10:14:11.179Z</time></trkpt><trkpt lat="45.135287" lon="12.0507976"><ele>4.0</ele><time>2026-04-15T10:14:12.286Z</time></trkpt><trkpt lat="45.1352048" lon="12.0506852"><ele>4.0</ele><time>2026-04-15T10:14:13.275Z</time></trkpt><trkpt lat="45.1351313" lon="12.0505977"><ele>3.75</ele><time>2026-04-15T10:14:14.254Z</time></trkpt><trkpt lat="45.1350594" lon="12.0505172"><ele>3.5</ele><time>2026-04-15T10:14:15.262Z</time></trkpt><trkpt lat="45.1349929" lon="12.0504213"><ele>3.25</ele><time>2026-04-15T10:14:16.269Z</time></trkpt><trkpt lat="45.1349106" lon="12.0502977"><ele>3.0</ele><time>2026-04-15T10:14:17.281Z</time></trkpt><trkpt lat="45.1347269" lon="12.0500443"><ele>3.0</ele><time>2026-04-15T10:14:19.269Z</time></trkpt><trkpt lat="45.1346359" lon="12.0499187"><ele>3.0</ele><time>2026-04-15T10:14:20.258Z</time></trkpt><trkpt lat="45.1345595" lon="12.0498164"><ele>3.0</ele><time>2026-04-15T10:14:21.26Z</time></trkpt><trkpt lat="45.134491" lon="12.0497226"><ele>3.0</ele><time>2026-04-15T10:14:22.265Z</time></trkpt><trkpt lat="45.1344314" lon="12.0496222"><ele>3.0</ele><time>2026-04-15T10:14:23.272Z</time></trkpt><trkpt lat="45.1343714" lon="12.0495331"><ele>3.0</ele><time>2026-04-15T10:14:24.261Z</time></trkpt><trkpt lat="45.1343177" lon="12.049465"><ele>3.0</ele><time>2026-04-15T10:14:25.262Z</time></trkpt><trkpt lat="45.1342509" lon="12.0493818"><ele>3.0</ele><time>2026-04-15T10:14:27.271Z</time></trkpt><trkpt lat="45.1341986" lon="12.0493275"><ele>3.0</ele><time>2026-04-15T10:14:29.265Z</time></trkpt><trkpt lat="45.1341105" lon="12.0492384"><ele>3.0</ele><time>2026-04-15T10:14:31.272Z</time></trkpt><trkpt lat="45.1340515" lon="12.0491712"><ele>3.0</ele><time>2026-04-15T10:14:32.269Z</time></trkpt><trkpt lat="45.1339763" lon="12.0490946"><ele>3.0</ele><time>2026-04-15T10:14:33.259Z</time></trkpt><trkpt lat="45.1338875" lon="12.0490113"><ele>3.0</ele><time>2026-04-15T10:14:34.254Z</time></trkpt><trkpt lat="45.1337949" lon="12.0489182"><ele>3.0</ele><time>2026-04-15T10:14:35.279Z</time></trkpt><trkpt lat="45.1336992" lon="12.0488132"><ele>3.0</ele><time>2026-04-15T10:14:36.273Z</time></trkpt><trkpt lat="45.1335972" lon="12.0486992"><ele>3.0</ele><time>2026-04-15T10:14:37.263Z</time></trkpt><trkpt lat="45.1335079" lon="12.048574"><ele>3.0</ele><time>2026-04-15T10:14:38.266Z</time></trkpt><trkpt lat="45.1334244" lon="12.0484391"><ele>3.0</ele><time>2026-04-15T10:14:39.262Z</time></trkpt><trkpt lat="45.13335" lon="12.0482878"><ele>3.0</ele><time>2026-04-15T10:14:40.28Z</time></trkpt><trkpt lat="45.1332798" lon="12.0481401"><ele>2.8</ele><time>2026-04-15T10:14:41.27Z</time></trkpt><trkpt lat="45.1332189" lon="12.0479977"><ele>2.5999999999999996</ele><time>2026-04-15T10:14:42.275Z</time></trkpt><trkpt lat="45.1331701" lon="12.0478568"><ele>2.4000000000000004</ele><time>2026-04-15T10:14:43.264Z</time></trkpt><trkpt lat="45.1331181" lon="12.0477274"><ele>2.2</ele><time>2026-04-15T10:14:44.271Z</time></trkpt><trkpt lat="45.1330574" lon="12.0475997"><ele>2.0</ele><time>2026-04-15T10:14:45.263Z</time></trkpt><trkpt lat="45.132995" lon="12.0474651"><ele>2.25</ele><time>2026-04-15T10:14:46.254Z</time></trkpt><trkpt lat="45.1329318" lon="12.0473193"><ele>2.5</ele><time>2026-04-15T10:14:47.272Z</time></trkpt><trkpt lat="45.132867" lon="12.0471653"><ele>2.75</ele><time>2026-04-15T10:14:48.267Z</time></trkpt><trkpt lat="45.1327988" lon="12.0470115"><ele>3.0</ele><time>2026-04-15T10:14:49.262Z</time></trkpt><trkpt lat="45.1327329" lon="12.0468593"><ele>3.0</ele><time>2026-04-15T10:14:50.265Z</time></trkpt><trkpt lat="45.1326643" lon="12.0467139"><ele>3.0</ele><time>2026-04-15T10:14:51.27Z</time></trkpt><trkpt lat="45.1325976" lon="12.0465545"><ele>3.0</ele><time>2026-04-15T10:14:52.264Z</time></trkpt><trkpt lat="45.1325339" lon="12.0463918"><ele>3.0</ele><time>2026-04-15T10:14:53.265Z</time></trkpt><trkpt lat="45.1324707" lon="12.0462313"><ele>3.0</ele><time>2026-04-15T10:14:54.263Z</time></trkpt><trkpt lat="45.1324167" lon="12.0460695"><ele>3.0</ele><time>2026-04-15T10:14:55.249Z</time></trkpt><trkpt lat="45.1323669" lon="12.0459096"><ele>3.0</ele><time>2026-04-15T10:14:56.259Z</time></trkpt><trkpt lat="45.1323246" lon="12.0457446"><ele>3.0</ele><time>2026-04-15T10:14:57.26Z</time></trkpt><trkpt lat="45.1322886" lon="12.0455735"><ele>3.0</ele><time>2026-04-15T10:14:58.256Z</time></trkpt><trkpt lat="45.1322597" lon="12.0453951"><ele>3.0</ele><time>2026-04-15T10:14:59.259Z</time></trkpt><trkpt lat="45.132234" lon="12.0452125"><ele>3.0</ele><time>2026-04-15T10:15:00.252Z</time></trkpt><trkpt lat="45.132214" lon="12.0450224"><ele>3.0</ele><time>2026-04-15T10:15:01.263Z</time></trkpt><trkpt lat="45.132191" lon="12.0448299"><ele>3.0</ele><time>2026-04-15T10:15:02.258Z</time></trkpt><trkpt lat="45.1321686" lon="12.0446361"><ele>3.0</ele><time>2026-04-15T10:15:03.261Z</time></trkpt><trkpt lat="45.1321539" lon="12.0444355"><ele>3.0</ele><time>2026-04-15T10:15:04.272Z</time></trkpt><trkpt lat="45.1321419" lon="12.0442292"><ele>3.0</ele><time>2026-04-15T10:15:05.266Z</time></trkpt><trkpt lat="45.1321335" lon="12.0440219"><ele>3.0</ele><time>2026-04-15T10:15:06.255Z</time></trkpt><trkpt lat="45.1321309" lon="12.0438112"><ele>3.0</ele><time>2026-04-15T10:15:07.27Z</time></trkpt><trkpt lat="45.1321305" lon="12.0435982"><ele>3.0</ele><time>2026-04-15T10:15:08.266Z</time></trkpt><trkpt lat="45.1321342" lon="12.0433838"><ele>2.6666666666666665</ele><time>2026-04-15T10:15:09.265Z</time></trkpt><trkpt lat="45.1321416" lon="12.0431642"><ele>2.333333333333333</ele><time>2026-04-15T10:15:10.264Z</time></trkpt><trkpt lat="45.1321571" lon="12.0429477"><ele>2.0</ele><time>2026-04-15T10:15:11.254Z</time></trkpt><trkpt lat="45.1321694" lon="12.0427335"><ele>2.0</ele><time>2026-04-15T10:15:12.269Z</time></trkpt><trkpt lat="45.1321814" lon="12.0425151"><ele>2.0</ele><time>2026-04-15T10:15:13.253Z</time></trkpt><trkpt lat="45.1322013" lon="12.0422994"><ele>2.0</ele><time>2026-04-15T10:15:14.265Z</time></trkpt><trkpt lat="45.1322337" lon="12.0420947"><ele>2.0</ele><time>2026-04-15T10:15:15.266Z</time></trkpt><trkpt lat="45.1322684" lon="12.0418911"><ele>2.0</ele><time>2026-04-15T10:15:16.264Z</time></trkpt><trkpt lat="45.1323119" lon="12.0416868"><ele>2.0</ele><time>2026-04-15T10:15:17.248Z</time></trkpt><trkpt lat="45.1323628" lon="12.0414861"><ele>2.0</ele><time>2026-04-15T10:15:18.264Z</time></trkpt><trkpt lat="45.1324194" lon="12.0412817"><ele>2.6666666666666665</ele><time>2026-04-15T10:15:19.272Z</time></trkpt><trkpt lat="45.1324726" lon="12.0410802"><ele>3.333333333333333</ele><time>2026-04-15T10:15:20.251Z</time></trkpt><trkpt lat="45.1325302" lon="12.0408739"><ele>4.0</ele><time>2026-04-15T10:15:21.26Z</time></trkpt><trkpt lat="45.1325896" lon="12.0406596"><ele>4.0</ele><time>2026-04-15T10:15:22.255Z</time></trkpt><trkpt lat="45.1326484" lon="12.0404389"><ele>4.0</ele><time>2026-04-15T10:15:23.263Z</time></trkpt><trkpt lat="45.1327" lon="12.0402085"><ele>4.0</ele><time>2026-04-15T10:15:24.253Z</time></trkpt><trkpt lat="45.1327445" lon="12.0399713"><ele>3.333333333333333</ele><time>2026-04-15T10:15:25.247Z</time></trkpt><trkpt lat="45.1327778" lon="12.039736"><ele>2.6666666666666665</ele><time>2026-04-15T10:15:26.252Z</time></trkpt><trkpt lat="45.1327998" lon="12.0395065"><ele>2.0</ele><time>2026-04-15T10:15:27.243Z</time></trkpt><trkpt lat="45.1328119" lon="12.0392895"><ele>2.0</ele><time>2026-04-15T10:15:28.275Z</time></trkpt><trkpt lat="45.1328087" lon="12.0390717"><ele>2.0</ele><time>2026-04-15T10:15:29.252Z</time></trkpt><trkpt lat="45.1327971" lon="12.0388446"><ele>2.0</ele><time>2026-04-15T10:15:30.251Z</time></trkpt><trkpt lat="45.1327829" lon="12.0386095"><ele>2.0</ele><time>2026-04-15T10:15:31.259Z</time></trkpt><trkpt lat="45.1327677" lon="12.0383722"><ele>2.0</ele><time>2026-04-15T10:15:32.262Z</time></trkpt><trkpt lat="45.1327467" lon="12.0381333"><ele>2.0</ele><time>2026-04-15T10:15:33.269Z</time></trkpt><trkpt lat="45.1327228" lon="12.0378906"><ele>2.0</ele><time>2026-04-15T10:15:34.26Z</time></trkpt><trkpt lat="45.1326967" lon="12.0376482"><ele>2.0</ele><time>2026-04-15T10:15:35.27Z</time></trkpt><trkpt lat="45.132672" lon="12.0374075"><ele>2.0</ele><time>2026-04-15T10:15:36.249Z</time></trkpt><trkpt lat="45.1326456" lon="12.0371787"><ele>2.0</ele><time>2026-04-15T10:15:37.262Z</time></trkpt><trkpt lat="45.1326117" lon="12.0369502"><ele>2.0</ele><time>2026-04-15T10:15:38.243Z</time></trkpt><trkpt lat="45.1325769" lon="12.0367223"><ele>2.0</ele><time>2026-04-15T10:15:39.257Z</time></trkpt><trkpt lat="45.1325481" lon="12.036493"><ele>1.6666666666666665</ele><time>2026-04-15T10:15:40.259Z</time></trkpt><trkpt lat="45.1325214" lon="12.0362688"><ele>1.3333333333333333</ele><time>2026-04-15T10:15:41.27Z</time></trkpt><trkpt lat="45.132498" lon="12.036049"><ele>1.0</ele><time>2026-04-15T10:15:42.261Z</time></trkpt><trkpt lat="45.1324823" lon="12.0358237"><ele>1.3333333333333333</ele><time>2026-04-15T10:15:43.259Z</time></trkpt><trkpt lat="45.1324776" lon="12.0355927"><ele>1.6666666666666665</ele><time>2026-04-15T10:15:44.275Z</time></trkpt><trkpt lat="45.1324884" lon="12.0353564"><ele>2.0</ele><time>2026-04-15T10:15:45.259Z</time></trkpt><trkpt lat="45.1325" lon="12.0351244"><ele>2.0</ele><time>2026-04-15T10:15:46.255Z</time></trkpt><trkpt lat="45.1325164" lon="12.0348939"><ele>2.0</ele><time>2026-04-15T10:15:47.261Z</time></trkpt><trkpt lat="45.1325363" lon="12.0346628"><ele>2.0</ele><time>2026-04-15T10:15:48.251Z</time></trkpt><trkpt lat="45.1325632" lon="12.0344306"><ele>2.0</ele><time>2026-04-15T10:15:49.271Z</time></trkpt><trkpt lat="45.1325907" lon="12.0341965"><ele>2.0</ele><time>2026-04-15T10:15:50.264Z</time></trkpt><trkpt lat="45.1326258" lon="12.0339593"><ele>2.0</ele><time>2026-04-15T10:15:51.264Z</time></trkpt><trkpt lat="45.1326584" lon="12.0337141"><ele>2.0</ele><time>2026-04-15T10:15:52.244Z</time></trkpt><trkpt lat="45.1326959" lon="12.0334776"><ele>2.0</ele><time>2026-04-15T10:15:53.264Z</time></trkpt><trkpt lat="45.1327339" lon="12.033249"><ele>2.0</ele><time>2026-04-15T10:15:54.255Z</time></trkpt><trkpt lat="45.1327779" lon="12.0330316"><ele>2.0</ele><time>2026-04-15T10:15:55.259Z</time></trkpt><trkpt lat="45.1328235" lon="12.0328265"><ele>2.0</ele><time>2026-04-15T10:15:56.257Z</time></trkpt><trkpt lat="45.1328755" lon="12.0326332"><ele>2.0</ele><time>2026-04-15T10:15:57.261Z</time></trkpt><trkpt lat="45.1329283" lon="12.0324595"><ele>2.0</ele><time>2026-04-15T10:15:58.248Z</time></trkpt><trkpt lat="45.1329725" lon="12.0323171"><ele>1.8</ele><time>2026-04-15T10:15:59.254Z</time></trkpt><trkpt lat="45.1330042" lon="12.03218"><ele>1.6</ele><time>2026-04-15T10:16:00.256Z</time></trkpt><trkpt lat="45.1330322" lon="12.0320446"><ele>1.4000000000000001</ele><time>2026-04-15T10:16:01.27Z</time></trkpt><trkpt lat="45.1330698" lon="12.0319192"><ele>1.2000000000000002</ele><time>2026-04-15T10:16:02.253Z</time></trkpt><trkpt lat="45.1331019" lon="12.0318184"><ele>1.0</ele><time>2026-04-15T10:16:03.242Z</time></trkpt><trkpt lat="45.1331166" lon="12.0316778"><ele>1.0</ele><time>2026-04-15T10:16:05.265Z</time></trkpt><trkpt lat="45.1330177" lon="12.0316156"><ele>1.0</ele><time>2026-04-15T10:16:13.252Z</time></trkpt><trkpt lat="45.1329473" lon="12.0316518"><ele>1.0</ele><time>2026-04-15T10:16:14.263Z</time></trkpt><trkpt lat="45.1328487" lon="12.0317144"><ele>1.0</ele><time>2026-04-15T10:16:15.246Z</time></trkpt><trkpt lat="45.1325874" lon="12.0318522"><ele>1.0</ele><time>2026-04-15T10:16:17.251Z</time></trkpt><trkpt lat="45.1324516" lon="12.0319247"><ele>1.0</ele><time>2026-04-15T10:16:18.245Z</time></trkpt><trkpt lat="45.1323239" lon="12.0319983"><ele>1.0</ele><time>2026-04-15T10:16:19.265Z</time></trkpt><trkpt lat="45.1322151" lon="12.0320537"><ele>1.0</ele><time>2026-04-15T10:16:20.252Z</time></trkpt><trkpt lat="45.1321149" lon="12.0321107"><ele>0.6666666666666666</ele><time>2026-04-15T10:16:21.252Z</time></trkpt><trkpt lat="45.1320161" lon="12.0321629"><ele>0.3333333333333333</ele><time>2026-04-15T10:16:22.251Z</time></trkpt><trkpt lat="45.131925" lon="12.0322212"><ele>0.0</ele><time>2026-04-15T10:16:23.25Z</time></trkpt><trkpt lat="45.1318414" lon="12.0322719"><ele>-0.3333333333333333</ele><time>2026-04-15T10:16:24.252Z</time></trkpt><trkpt lat="45.1317708" lon="12.0323197"><ele>-0.6666666666666666</ele><time>2026-04-15T10:16:25.26Z</time></trkpt><trkpt lat="45.1317112" lon="12.0323547"><ele>-1.0</ele><time>2026-04-15T10:16:26.254Z</time></trkpt><trkpt lat="45.1316144" lon="12.0324176"><ele>-1.2000000000000002</ele><time>2026-04-15T10:16:28.246Z</time></trkpt><trkpt lat="45.131548" lon="12.03244"><ele>-1.4000000000000001</ele><time>2026-04-15T10:16:30.248Z</time></trkpt><trkpt lat="45.1314649" lon="12.0324595"><ele>-1.6</ele><time>2026-04-15T10:16:44.255Z</time></trkpt><trkpt lat="45.1313164" lon="12.0325549"><ele>-1.8</ele><time>2026-04-15T10:16:46.241Z</time></trkpt><trkpt lat="45.1311983" lon="12.0326383"><ele>-2.0</ele><time>2026-04-15T10:16:47.266Z</time></trkpt><trkpt lat="45.13106" lon="12.0327243"><ele>-1.3333333333333333</ele><time>2026-04-15T10:16:48.239Z</time></trkpt><trkpt lat="45.1308989" lon="12.0328123"><ele>-0.6666666666666666</ele><time>2026-04-15T10:16:49.252Z</time></trkpt><trkpt lat="45.1307159" lon="12.0329006"><ele>0.0</ele><time>2026-04-15T10:16:50.244Z</time></trkpt><trkpt lat="45.1305113" lon="12.0329979"><ele>0.0</ele><time>2026-04-15T10:16:51.254Z</time></trkpt><trkpt lat="45.1302991" lon="12.0331086"><ele>0.0</ele><time>2026-04-15T10:16:52.255Z</time></trkpt><trkpt lat="45.1300969" lon="12.0332276"><ele>0.0</ele><time>2026-04-15T10:16:53.241Z</time></trkpt><trkpt lat="45.1299047" lon="12.0333325"><ele>-0.3333333333333333</ele><time>2026-04-15T10:16:54.254Z</time></trkpt><trkpt lat="45.1297221" lon="12.0334381"><ele>-0.6666666666666666</ele><time>2026-04-15T10:16:55.25Z</time></trkpt><trkpt lat="45.1295521" lon="12.033535"><ele>-1.0</ele><time>2026-04-15T10:16:56.254Z</time></trkpt><trkpt lat="45.1293921" lon="12.0336238"><ele>-1.0</ele><time>2026-04-15T10:16:57.246Z</time></trkpt><trkpt lat="45.1292357" lon="12.0337121"><ele>-1.0</ele><time>2026-04-15T10:16:58.249Z</time></trkpt><trkpt lat="45.1290793" lon="12.0337999"><ele>-1.0</ele><time>2026-04-15T10:16:59.263Z</time></trkpt><trkpt lat="45.1289205" lon="12.0338826"><ele>-1.3333333333333333</ele><time>2026-04-15T10:17:00.239Z</time></trkpt><trkpt lat="45.1287617" lon="12.0339691"><ele>-1.6666666666666665</ele><time>2026-04-15T10:17:01.255Z</time></trkpt><trkpt lat="45.1285985" lon="12.0340652"><ele>-2.0</ele><time>2026-04-15T10:17:02.246Z</time></trkpt><trkpt lat="45.128432" lon="12.0341626"><ele>-1.3333333333333333</ele><time>2026-04-15T10:17:03.258Z</time></trkpt><trkpt lat="45.1282684" lon="12.034256"><ele>-0.6666666666666666</ele><time>2026-04-15T10:17:04.239Z</time></trkpt><trkpt lat="45.1281105" lon="12.0343475"><ele>0.0</ele><time>2026-04-15T10:17:05.256Z</time></trkpt><trkpt lat="45.127957" lon="12.0344312"><ele>0.0</ele><time>2026-04-15T10:17:06.252Z</time></trkpt><trkpt lat="45.1278155" lon="12.0345007"><ele>0.0</ele><time>2026-04-15T10:17:07.259Z</time></trkpt><trkpt lat="45.1276885" lon="12.0345662"><ele>0.0</ele><time>2026-04-15T10:17:08.257Z</time></trkpt><trkpt lat="45.1275738" lon="12.0346196"><ele>0.0</ele><time>2026-04-15T10:17:09.256Z</time></trkpt><trkpt lat="45.1274602" lon="12.0346318"><ele>0.25</ele><time>2026-04-15T10:17:10.233Z</time></trkpt><trkpt lat="45.1273475" lon="12.0345623"><ele>0.5</ele><time>2026-04-15T10:17:11.256Z</time></trkpt><trkpt lat="45.1272452" lon="12.034437"><ele>0.75</ele><time>2026-04-15T10:17:12.247Z</time></trkpt><trkpt lat="45.1271598" lon="12.034259"><ele>1.0</ele><time>2026-04-15T10:17:13.253Z</time></trkpt><trkpt lat="45.1270786" lon="12.0340426"><ele>0.6666666666666666</ele><time>2026-04-15T10:17:14.246Z</time></trkpt><trkpt lat="45.1269966" lon="12.0338067"><ele>0.3333333333333333</ele><time>2026-04-15T10:17:15.253Z</time></trkpt><trkpt lat="45.1269108" lon="12.0335563"><ele>0.0</ele><time>2026-04-15T10:17:16.247Z</time></trkpt><trkpt lat="45.126824" lon="12.0332984"><ele>0.0</ele><time>2026-04-15T10:17:17.25Z</time></trkpt><trkpt lat="45.1267413" lon="12.0330387"><ele>0.0</ele><time>2026-04-15T10:17:18.243Z</time></trkpt><trkpt lat="45.1266611" lon="12.0327739"><ele>0.0</ele><time>2026-04-15T10:17:19.274Z</time></trkpt><trkpt lat="45.1265918" lon="12.0325151"><ele>0.0</ele><time>2026-04-15T10:17:20.253Z</time></trkpt><trkpt lat="45.1265244" lon="12.0322465"><ele>0.0</ele><time>2026-04-15T10:17:21.263Z</time></trkpt><trkpt lat="45.1264478" lon="12.0319723"><ele>0.0</ele><time>2026-04-15T10:17:22.254Z</time></trkpt><trkpt lat="45.1263468" lon="12.0317028"><ele>1.0</ele><time>2026-04-15T10:17:23.253Z</time></trkpt><trkpt lat="45.126221" lon="12.0314316"><ele>2.0</ele><time>2026-04-15T10:17:24.252Z</time></trkpt><trkpt lat="45.1260742" lon="12.031177"><ele>2.0</ele><time>2026-04-15T10:17:25.256Z</time></trkpt><trkpt lat="45.1259204" lon="12.0309253"><ele>2.0</ele><time>2026-04-15T10:17:26.282Z</time></trkpt><trkpt lat="45.1257693" lon="12.0306757"><ele>1.5</ele><time>2026-04-15T10:17:27.269Z</time></trkpt><trkpt lat="45.125625" lon="12.0304168"><ele>1.0</ele><time>2026-04-15T10:17:28.238Z</time></trkpt><trkpt lat="45.125489" lon="12.0301412"><ele>0.6666666666666666</ele><time>2026-04-15T10:17:29.276Z</time></trkpt><trkpt lat="45.1253676" lon="12.0298658"><ele>0.3333333333333333</ele><time>2026-04-15T10:17:30.246Z</time></trkpt><trkpt lat="45.1252496" lon="12.0296048"><ele>0.0</ele><time>2026-04-15T10:17:31.263Z</time></trkpt><trkpt lat="45.125124" lon="12.0293698"><ele>0.0</ele><time>2026-04-15T10:17:32.256Z</time></trkpt><trkpt lat="45.1249825" lon="12.0291568"><ele>0.0</ele><time>2026-04-15T10:17:33.267Z</time></trkpt><trkpt lat="45.12481" lon="12.0289666"><ele>0.0</ele><time>2026-04-15T10:17:34.249Z</time></trkpt><trkpt lat="45.1246162" lon="12.0287987"><ele>0.0</ele><time>2026-04-15T10:17:35.252Z</time></trkpt><trkpt lat="45.1244003" lon="12.028635"><ele>0.0</ele><time>2026-04-15T10:17:36.25Z</time></trkpt><trkpt lat="45.124176" lon="12.028466"><ele>0.0</ele><time>2026-04-15T10:17:37.263Z</time></trkpt><trkpt lat="45.1239468" lon="12.028294"><ele>0.0</ele><time>2026-04-15T10:17:38.251Z</time></trkpt><trkpt lat="45.1237111" lon="12.0281205"><ele>0.0</ele><time>2026-04-15T10:17:39.242Z</time></trkpt><trkpt lat="45.1234732" lon="12.0279482"><ele>0.0</ele><time>2026-04-15T10:17:40.234Z</time></trkpt><trkpt lat="45.1232284" lon="12.0277989"><ele>0.0</ele><time>2026-04-15T10:17:41.254Z</time></trkpt><trkpt lat="45.1229818" lon="12.0276705"><ele>0.0</ele><time>2026-04-15T10:17:42.24Z</time></trkpt><trkpt lat="45.1227468" lon="12.0275586"><ele>-0.3333333333333333</ele><time>2026-04-15T10:17:43.247Z</time></trkpt><trkpt lat="45.1225283" lon="12.0274509"><ele>-0.6666666666666666</ele><time>2026-04-15T10:17:44.247Z</time></trkpt><trkpt lat="45.1223278" lon="12.0273401"><ele>-1.0</ele><time>2026-04-15T10:17:45.255Z</time></trkpt><trkpt lat="45.122129" lon="12.027223"><ele>-0.3333333333333333</ele><time>2026-04-15T10:17:46.249Z</time></trkpt><trkpt lat="45.1219415" lon="12.0270981"><ele>0.3333333333333333</ele><time>2026-04-15T10:17:47.261Z</time></trkpt><trkpt lat="45.1217637" lon="12.0269733"><ele>1.0</ele><time>2026-04-15T10:17:48.244Z</time></trkpt><trkpt lat="45.1215962" lon="12.0268399"><ele>1.0</ele><time>2026-04-15T10:17:49.266Z</time></trkpt><trkpt lat="45.1214328" lon="12.0266997"><ele>1.0</ele><time>2026-04-15T10:17:50.25Z</time></trkpt><trkpt lat="45.1212947" lon="12.026564"><ele>1.0</ele><time>2026-04-15T10:17:51.246Z</time></trkpt><trkpt lat="45.1211738" lon="12.0264408"><ele>1.0</ele><time>2026-04-15T10:17:52.245Z</time></trkpt><trkpt lat="45.1210651" lon="12.0263344"><ele>1.0</ele><time>2026-04-15T10:17:53.248Z</time></trkpt><trkpt lat="45.1209414" lon="12.0262788"><ele>1.0</ele><time>2026-04-15T10:17:54.241Z</time></trkpt><trkpt lat="45.1208113" lon="12.026285"><ele>1.0</ele><time>2026-04-15T10:17:55.262Z</time></trkpt><trkpt lat="45.1206608" lon="12.0263345"><ele>1.0</ele><time>2026-04-15T10:17:56.237Z</time></trkpt><trkpt lat="45.1204974" lon="12.0264229"><ele>1.0</ele><time>2026-04-15T10:17:57.244Z</time></trkpt><trkpt lat="45.1203185" lon="12.0265076"><ele>1.0</ele><time>2026-04-15T10:17:58.251Z</time></trkpt><trkpt lat="45.1201339" lon="12.0265866"><ele>1.0</ele><time>2026-04-15T10:17:59.259Z</time></trkpt><trkpt lat="45.1199602" lon="12.0266573"><ele>1.0</ele><time>2026-04-15T10:18:00.245Z</time></trkpt><trkpt lat="45.1198016" lon="12.0267295"><ele>1.0</ele><time>2026-04-15T10:18:01.268Z</time></trkpt><trkpt lat="45.1196665" lon="12.0267968"><ele>1.0</ele><time>2026-04-15T10:18:02.243Z</time></trkpt><trkpt lat="45.1195347" lon="12.0268221"><ele>1.0</ele><time>2026-04-15T10:18:03.245Z</time></trkpt><trkpt lat="45.119402" lon="12.0267819"><ele>1.0</ele><time>2026-04-15T10:18:04.239Z</time></trkpt><trkpt lat="45.1192819" lon="12.0266946"><ele>1.0</ele><time>2026-04-15T10:18:05.251Z</time></trkpt><trkpt lat="45.1191661" lon="12.0265856"><ele>1.2000000000000002</ele><time>2026-04-15T10:18:06.24Z</time></trkpt><trkpt lat="45.1190619" lon="12.0264848"><ele>1.4000000000000001</ele><time>2026-04-15T10:18:07.259Z</time></trkpt><trkpt lat="45.1189817" lon="12.0263988"><ele>1.6</ele><time>2026-04-15T10:18:08.248Z</time></trkpt><trkpt lat="45.1189342" lon="12.0263043"><ele>1.8</ele><time>2026-04-15T10:18:09.253Z</time></trkpt><trkpt lat="45.1189276" lon="12.0261833"><ele>2.0</ele><time>2026-04-15T10:18:10.232Z</time></trkpt><trkpt lat="45.1189665" lon="12.0260335"><ele>2.0</ele><time>2026-04-15T10:18:11.245Z</time></trkpt><trkpt lat="45.119013" lon="12.0258863"><ele>2.0</ele><time>2026-04-15T10:18:12.244Z</time></trkpt><trkpt lat="45.1190327" lon="12.0257311"><ele>2.0</ele><time>2026-04-15T10:18:13.267Z</time></trkpt><trkpt lat="45.1190041" lon="12.0255615"><ele>2.0</ele><time>2026-04-15T10:18:14.237Z</time></trkpt><trkpt lat="45.1189485" lon="12.0253702"><ele>2.25</ele><time>2026-04-15T10:18:15.257Z</time></trkpt><trkpt lat="45.1188815" lon="12.0252062"><ele>2.5</ele><time>2026-04-15T10:18:16.238Z</time></trkpt><trkpt lat="45.118802" lon="12.0250704"><ele>2.75</ele><time>2026-04-15T10:18:17.253Z</time></trkpt><trkpt lat="45.1186839" lon="12.0249493"><ele>3.0</ele><time>2026-04-15T10:18:18.235Z</time></trkpt><trkpt lat="45.1185325" lon="12.0248499"><ele>2.3333333333333335</ele><time>2026-04-15T10:18:19.24Z</time></trkpt><trkpt lat="45.1183588" lon="12.0247677"><ele>1.6666666666666665</ele><time>2026-04-15T10:18:20.248Z</time></trkpt><trkpt lat="45.1181584" lon="12.0246889"><ele>1.0</ele><time>2026-04-15T10:18:21.25Z</time></trkpt><trkpt lat="45.117949" lon="12.0246054"><ele>1.0</ele><time>2026-04-15T10:18:22.253Z</time></trkpt><trkpt lat="45.1177423" lon="12.0245089"><ele>1.0</ele><time>2026-04-15T10:18:23.246Z</time></trkpt><trkpt lat="45.1175447" lon="12.0244087"><ele>1.0</ele><time>2026-04-15T10:18:24.239Z</time></trkpt><trkpt lat="45.117376" lon="12.0243263"><ele>1.0</ele><time>2026-04-15T10:18:25.252Z</time></trkpt><trkpt lat="45.1172205" lon="12.0242791"><ele>1.0</ele><time>2026-04-15T10:18:26.244Z</time></trkpt><trkpt lat="45.1170552" lon="12.0242952"><ele>1.0</ele><time>2026-04-15T10:18:27.257Z</time></trkpt><trkpt lat="45.1168806" lon="12.0243589"><ele>1.0</ele><time>2026-04-15T10:18:28.244Z</time></trkpt><trkpt lat="45.1167123" lon="12.0244702"><ele>1.0</ele><time>2026-04-15T10:18:29.249Z</time></trkpt><trkpt lat="45.1165567" lon="12.024627"><ele>1.0</ele><time>2026-04-15T10:18:30.239Z</time></trkpt><trkpt lat="45.1164149" lon="12.0248086"><ele>1.0</ele><time>2026-04-15T10:18:31.25Z</time></trkpt><trkpt lat="45.1162686" lon="12.0249946"><ele>1.0</ele><time>2026-04-15T10:18:32.244Z</time></trkpt><trkpt lat="45.1161181" lon="12.0251744"><ele>1.0</ele><time>2026-04-15T10:18:33.245Z</time></trkpt><trkpt lat="45.1159599" lon="12.0253618"><ele>1.0</ele><time>2026-04-15T10:18:34.242Z</time></trkpt><trkpt lat="45.1157984" lon="12.0255658"><ele>1.0</ele><time>2026-04-15T10:18:35.249Z</time></trkpt><trkpt lat="45.1156372" lon="12.0257859"><ele>1.0</ele><time>2026-04-15T10:18:36.234Z</time></trkpt><trkpt lat="45.1154665" lon="12.0260175"><ele>1.5</ele><time>2026-04-15T10:18:37.238Z</time></trkpt><trkpt lat="45.1152932" lon="12.0262567"><ele>2.0</ele><time>2026-04-15T10:18:38.244Z</time></trkpt><trkpt lat="45.1151205" lon="12.026501"><ele>2.0</ele><time>2026-04-15T10:18:39.247Z</time></trkpt><trkpt lat="45.1149469" lon="12.0267399"><ele>2.0</ele><time>2026-04-15T10:18:40.252Z</time></trkpt><trkpt lat="45.1147743" lon="12.0269714"><ele>0.5</ele><time>2026-04-15T10:18:41.249Z</time></trkpt><trkpt lat="45.1146019" lon="12.0272057"><ele>-1.0</ele><time>2026-04-15T10:18:42.255Z</time></trkpt><trkpt lat="45.1144361" lon="12.0274433"><ele>-0.3333333333333333</ele><time>2026-04-15T10:18:43.247Z</time></trkpt><trkpt lat="45.1142816" lon="12.0276601"><ele>0.3333333333333333</ele><time>2026-04-15T10:18:44.262Z</time></trkpt><trkpt lat="45.1141352" lon="12.0278608"><ele>1.0</ele><time>2026-04-15T10:18:45.23Z</time></trkpt><trkpt lat="45.1139782" lon="12.0280406"><ele>1.0</ele><time>2026-04-15T10:18:46.249Z</time></trkpt><trkpt lat="45.1138107" lon="12.0281861"><ele>1.0</ele><time>2026-04-15T10:18:47.245Z</time></trkpt><trkpt lat="45.1136309" lon="12.0283056"><ele>1.0</ele><time>2026-04-15T10:18:48.237Z</time></trkpt><trkpt lat="45.1134366" lon="12.0284067"><ele>1.6666666666666665</ele><time>2026-04-15T10:18:49.24Z</time></trkpt><trkpt lat="45.1132526" lon="12.0284797"><ele>2.3333333333333335</ele><time>2026-04-15T10:18:50.248Z</time></trkpt><trkpt lat="45.1130915" lon="12.028507"><ele>3.0</ele><time>2026-04-15T10:18:51.254Z</time></trkpt><trkpt lat="45.1129205" lon="12.0284893"><ele>3.0</ele><time>2026-04-15T10:18:52.247Z</time></trkpt><trkpt lat="45.1127513" lon="12.0284401"><ele>3.0</ele><time>2026-04-15T10:18:53.253Z</time></trkpt><trkpt lat="45.1125783" lon="12.0283545"><ele>3.0</ele><time>2026-04-15T10:18:54.259Z</time></trkpt><trkpt lat="45.11239" lon="12.0282465"><ele>2.3333333333333335</ele><time>2026-04-15T10:18:55.255Z</time></trkpt><trkpt lat="45.1121898" lon="12.0281383"><ele>1.6666666666666665</ele><time>2026-04-15T10:18:56.243Z</time></trkpt><trkpt lat="45.111975" lon="12.0280284"><ele>1.0</ele><time>2026-04-15T10:18:57.256Z</time></trkpt><trkpt lat="45.1117483" lon="12.0279091"><ele>0.5</ele><time>2026-04-15T10:18:58.228Z</time></trkpt><trkpt lat="45.1115104" lon="12.0277779"><ele>0.0</ele><time>2026-04-15T10:18:59.253Z</time></trkpt><trkpt lat="45.1112673" lon="12.0276441"><ele>0.0</ele><time>2026-04-15T10:19:00.245Z</time></trkpt><trkpt lat="45.1110249" lon="12.0275039"><ele>0.0</ele><time>2026-04-15T10:19:01.238Z</time></trkpt><trkpt lat="45.1107796" lon="12.0273598"><ele>-0.5</ele><time>2026-04-15T10:19:02.231Z</time></trkpt><trkpt lat="45.1105386" lon="12.0272257"><ele>-1.0</ele><time>2026-04-15T10:19:03.261Z</time></trkpt><trkpt lat="45.1102816" lon="12.0271153"><ele>-1.0</ele><time>2026-04-15T10:19:04.238Z</time></trkpt><trkpt lat="45.1100165" lon="12.0270098"><ele>-1.0</ele><time>2026-04-15T10:19:05.234Z</time></trkpt><trkpt lat="45.1097538" lon="12.026885"><ele>-1.0</ele><time>2026-04-15T10:19:06.238Z</time></trkpt><trkpt lat="45.1095036" lon="12.0267591"><ele>-1.0</ele><time>2026-04-15T10:19:07.238Z</time></trkpt><trkpt lat="45.1092562" lon="12.0266417"><ele>-0.5</ele><time>2026-04-15T10:19:08.233Z</time></trkpt><trkpt lat="45.1090056" lon="12.0265448"><ele>0.0</ele><time>2026-04-15T10:19:09.248Z</time></trkpt><trkpt lat="45.1087471" lon="12.0264786"><ele>0.0</ele><time>2026-04-15T10:19:10.232Z</time></trkpt><trkpt lat="45.1084914" lon="12.0264183"><ele>0.0</ele><time>2026-04-15T10:19:11.234Z</time></trkpt><trkpt lat="45.1082433" lon="12.0263693"><ele>0.3333333333333333</ele><time>2026-04-15T10:19:12.239Z</time></trkpt><trkpt lat="45.1080253" lon="12.0263248"><ele>0.6666666666666666</ele><time>2026-04-15T10:19:13.251Z</time></trkpt><trkpt lat="45.1078285" lon="12.026278"><ele>1.0</ele><time>2026-04-15T10:19:14.237Z</time></trkpt><trkpt lat="45.1076487" lon="12.0261901"><ele>1.0</ele><time>2026-04-15T10:19:15.237Z</time></trkpt><trkpt lat="45.1074921" lon="12.0260429"><ele>1.0</ele><time>2026-04-15T10:19:16.244Z</time></trkpt><trkpt lat="45.1073433" lon="12.0258775"><ele>1.0</ele><time>2026-04-15T10:19:17.254Z</time></trkpt><trkpt lat="45.1071805" lon="12.0257262"><ele>0.6666666666666666</ele><time>2026-04-15T10:19:18.237Z</time></trkpt><trkpt lat="45.1070095" lon="12.0256039"><ele>0.3333333333333333</ele><time>2026-04-15T10:19:19.242Z</time></trkpt><trkpt lat="45.106821" lon="12.0255469"><ele>0.0</ele><time>2026-04-15T10:19:20.24Z</time></trkpt><trkpt lat="45.1066129" lon="12.0255244"><ele>0.3333333333333333</ele><time>2026-04-15T10:19:21.252Z</time></trkpt><trkpt lat="45.1064156" lon="12.0255336"><ele>0.6666666666666666</ele><time>2026-04-15T10:19:22.236Z</time></trkpt><trkpt lat="45.1062362" lon="12.0255213"><ele>1.0</ele><time>2026-04-15T10:19:23.249Z</time></trkpt><trkpt lat="45.1060726" lon="12.0254391"><ele>1.0</ele><time>2026-04-15T10:19:24.241Z</time></trkpt><trkpt lat="45.1059206" lon="12.0252996"><ele>1.0</ele><time>2026-04-15T10:19:25.251Z</time></trkpt><trkpt lat="45.1057725" lon="12.0250943"><ele>1.0</ele><time>2026-04-15T10:19:26.231Z</time></trkpt><trkpt lat="45.1056373" lon="12.0248599"><ele>1.3333333333333333</ele><time>2026-04-15T10:19:27.232Z</time></trkpt><trkpt lat="45.1055055" lon="12.0246134"><ele>1.6666666666666665</ele><time>2026-04-15T10:19:28.238Z</time></trkpt><trkpt lat="45.105379" lon="12.0243562"><ele>2.0</ele><time>2026-04-15T10:19:29.243Z</time></trkpt><trkpt lat="45.1052551" lon="12.0240991"><ele>2.0</ele><time>2026-04-15T10:19:30.233Z</time></trkpt><trkpt lat="45.1051288" lon="12.0238309"><ele>2.0</ele><time>2026-04-15T10:19:31.238Z</time></trkpt><trkpt lat="45.1050085" lon="12.0235451"><ele>1.5</ele><time>2026-04-15T10:19:32.244Z</time></trkpt><trkpt lat="45.1048839" lon="12.0232459"><ele>1.0</ele><time>2026-04-15T10:19:33.241Z</time></trkpt><trkpt lat="45.1047631" lon="12.0229392"><ele>1.0</ele><time>2026-04-15T10:19:34.247Z</time></trkpt><trkpt lat="45.1046534" lon="12.0226297"><ele>1.0</ele><time>2026-04-15T10:19:35.256Z</time></trkpt><trkpt lat="45.1045484" lon="12.0223328"><ele>1.0</ele><time>2026-04-15T10:19:36.235Z</time></trkpt><trkpt lat="45.1044497" lon="12.0220505"><ele>1.0</ele><time>2026-04-15T10:19:37.246Z</time></trkpt><trkpt lat="45.1043479" lon="12.0217732"><ele>1.0</ele><time>2026-04-15T10:19:38.236Z</time></trkpt><trkpt lat="45.1042419" lon="12.0215103"><ele>1.3333333333333333</ele><time>2026-04-15T10:19:39.247Z</time></trkpt><trkpt lat="45.104132" lon="12.0212736"><ele>1.6666666666666665</ele><time>2026-04-15T10:19:40.239Z</time></trkpt><trkpt lat="45.1040153" lon="12.0210591"><ele>2.0</ele><time>2026-04-15T10:19:41.229Z</time></trkpt><trkpt lat="45.1038958" lon="12.0208728"><ele>2.0</ele><time>2026-04-15T10:19:42.239Z</time></trkpt><trkpt lat="45.1037703" lon="12.0207129"><ele>2.0</ele><time>2026-04-15T10:19:43.25Z</time></trkpt><trkpt lat="45.1036289" lon="12.0205796"><ele>2.0</ele><time>2026-04-15T10:19:44.244Z</time></trkpt><trkpt lat="45.1034781" lon="12.0204825"><ele>2.0</ele><time>2026-04-15T10:19:45.25Z</time></trkpt><trkpt lat="45.1033113" lon="12.0204217"><ele>2.0</ele><time>2026-04-15T10:19:46.241Z</time></trkpt><trkpt lat="45.1031212" lon="12.0203762"><ele>2.0</ele><time>2026-04-15T10:19:47.231Z</time></trkpt><trkpt lat="45.1029414" lon="12.0203415"><ele>1.0</ele><time>2026-04-15T10:19:48.241Z</time></trkpt><trkpt lat="45.1027731" lon="12.0203231"><ele>0.0</ele><time>2026-04-15T10:19:49.244Z</time></trkpt><trkpt lat="45.1025986" lon="12.0203092"><ele>-1.0</ele><time>2026-04-15T10:19:50.259Z</time></trkpt><trkpt lat="45.1024181" lon="12.0203101"><ele>-0.6666666666666666</ele><time>2026-04-15T10:19:51.252Z</time></trkpt><trkpt lat="45.1022378" lon="12.0203096"><ele>-0.3333333333333333</ele><time>2026-04-15T10:19:52.236Z</time></trkpt><trkpt lat="45.1020572" lon="12.0203218"><ele>0.0</ele><time>2026-04-15T10:19:53.227Z</time></trkpt><trkpt lat="45.101882" lon="12.0203487"><ele>0.0</ele><time>2026-04-15T10:19:54.239Z</time></trkpt><trkpt lat="45.1017106" lon="12.0204118"><ele>0.0</ele><time>2026-04-15T10:19:55.272Z</time></trkpt><trkpt lat="45.1015512" lon="12.0205038"><ele>0.0</ele><time>2026-04-15T10:19:56.232Z</time></trkpt><trkpt lat="45.1013946" lon="12.0206168"><ele>0.6666666666666666</ele><time>2026-04-15T10:19:57.245Z</time></trkpt><trkpt lat="45.1012433" lon="12.020726"><ele>1.3333333333333333</ele><time>2026-04-15T10:19:58.24Z</time></trkpt><trkpt lat="45.1010991" lon="12.0208191"><ele>2.0</ele><time>2026-04-15T10:19:59.254Z</time></trkpt><trkpt lat="45.1009641" lon="12.0209004"><ele>2.0</ele><time>2026-04-15T10:20:00.243Z</time></trkpt><trkpt lat="45.1008402" lon="12.0209504"><ele>2.0</ele><time>2026-04-15T10:20:01.24Z</time></trkpt><trkpt lat="45.1007222" lon="12.0209463"><ele>2.0</ele><time>2026-04-15T10:20:02.237Z</time></trkpt><trkpt lat="45.1006188" lon="12.0208815"><ele>2.0</ele><time>2026-04-15T10:20:03.243Z</time></trkpt><trkpt lat="45.100527" lon="12.020772"><ele>2.25</ele><time>2026-04-15T10:20:04.238Z</time></trkpt><trkpt lat="45.1004395" lon="12.0206506"><ele>2.5</ele><time>2026-04-15T10:20:05.255Z</time></trkpt><trkpt lat="45.1003559" lon="12.0205223"><ele>2.75</ele><time>2026-04-15T10:20:06.25Z</time></trkpt><trkpt lat="45.1002798" lon="12.0204014"><ele>3.0</ele><time>2026-04-15T10:20:07.255Z</time></trkpt><trkpt lat="45.1002112" lon="12.0202799"><ele>3.0</ele><time>2026-04-15T10:20:08.245Z</time></trkpt><trkpt lat="45.1001627" lon="12.0201899"><ele>3.0</ele><time>2026-04-15T10:20:09.231Z</time></trkpt><trkpt lat="45.1000611" lon="12.0201562"><ele>3.0</ele><time>2026-04-15T10:20:11.234Z</time></trkpt><trkpt lat="45.0999516" lon="12.0202816"><ele>3.0</ele><time>2026-04-15T10:20:13.233Z</time></trkpt><trkpt lat="45.0998819" lon="12.0203697"><ele>3.0</ele><time>2026-04-15T10:20:14.25Z</time></trkpt><trkpt lat="45.0997901" lon="12.0204676"><ele>3.0</ele><time>2026-04-15T10:20:15.237Z</time></trkpt><trkpt lat="45.0996929" lon="12.0205608"><ele>3.0</ele><time>2026-04-15T10:20:16.239Z</time></trkpt><trkpt lat="45.0995837" lon="12.0206645"><ele>3.0</ele><time>2026-04-15T10:20:17.233Z</time></trkpt><trkpt lat="45.0994599" lon="12.0207824"><ele>3.0</ele><time>2026-04-15T10:20:18.248Z</time></trkpt><trkpt lat="45.099333" lon="12.0209027"><ele>2.6666666666666665</ele><time>2026-04-15T10:20:19.252Z</time></trkpt><trkpt lat="45.0992034" lon="12.0210374"><ele>2.333333333333333</ele><time>2026-04-15T10:20:20.234Z</time></trkpt><trkpt lat="45.0990704" lon="12.0211852"><ele>2.0</ele><time>2026-04-15T10:20:21.246Z</time></trkpt><trkpt lat="45.098936" lon="12.0213392"><ele>2.0</ele><time>2026-04-15T10:20:22.236Z</time></trkpt><trkpt lat="45.0988059" lon="12.021487"><ele>2.0</ele><time>2026-04-15T10:20:23.241Z</time></trkpt><trkpt lat="45.098677" lon="12.0216474"><ele>2.0</ele><time>2026-04-15T10:20:24.239Z</time></trkpt><trkpt lat="45.0985471" lon="12.0218077"><ele>2.0</ele><time>2026-04-15T10:20:25.228Z</time></trkpt><trkpt lat="45.0984241" lon="12.0219809"><ele>2.0</ele><time>2026-04-15T10:20:26.226Z</time></trkpt><trkpt lat="45.0983028" lon="12.0221565"><ele>2.0</ele><time>2026-04-15T10:20:27.254Z</time></trkpt><trkpt lat="45.0981831" lon="12.0223311"><ele>2.0</ele><time>2026-04-15T10:20:28.229Z</time></trkpt><trkpt lat="45.0980499" lon="12.0224861"><ele>2.0</ele><time>2026-04-15T10:20:29.243Z</time></trkpt><trkpt lat="45.0978911" lon="12.0226233"><ele>2.0</ele><time>2026-04-15T10:20:30.25Z</time></trkpt><trkpt lat="45.0977235" lon="12.022749"><ele>2.0</ele><time>2026-04-15T10:20:31.237Z</time></trkpt><trkpt lat="45.0975513" lon="12.0228844"><ele>2.0</ele><time>2026-04-15T10:20:32.238Z</time></trkpt><trkpt lat="45.0973737" lon="12.0230254"><ele>2.0</ele><time>2026-04-15T10:20:33.235Z</time></trkpt><trkpt lat="45.0971919" lon="12.0231683"><ele>1.6666666666666665</ele><time>2026-04-15T10:20:34.234Z</time></trkpt><trkpt lat="45.097014" lon="12.0233102"><ele>1.3333333333333333</ele><time>2026-04-15T10:20:35.226Z</time></trkpt><trkpt lat="45.0968365" lon="12.0234544"><ele>1.0</ele><time>2026-04-15T10:20:36.233Z</time></trkpt><trkpt lat="45.0966529" lon="12.0235998"><ele>0.3333333333333333</ele><time>2026-04-15T10:20:37.233Z</time></trkpt><trkpt lat="45.0964706" lon="12.0237445"><ele>-0.3333333333333333</ele><time>2026-04-15T10:20:38.236Z</time></trkpt><trkpt lat="45.0962905" lon="12.0238913"><ele>-1.0</ele><time>2026-04-15T10:20:39.24Z</time></trkpt><trkpt lat="45.0961151" lon="12.0240351"><ele>-1.0</ele><time>2026-04-15T10:20:40.233Z</time></trkpt><trkpt lat="45.0959551" lon="12.0241837"><ele>-1.0</ele><time>2026-04-15T10:20:41.243Z</time></trkpt><trkpt lat="45.0958293" lon="12.0243577"><ele>-1.0</ele><time>2026-04-15T10:20:42.236Z</time></trkpt><trkpt lat="45.095728" lon="12.0245704"><ele>-1.0</ele><time>2026-04-15T10:20:43.234Z</time></trkpt><trkpt lat="45.0956492" lon="12.0247936"><ele>-1.0</ele><time>2026-04-15T10:20:44.245Z</time></trkpt><trkpt lat="45.0955614" lon="12.0250116"><ele>-1.0</ele><time>2026-04-15T10:20:45.227Z</time></trkpt><trkpt lat="45.0954528" lon="12.0252248"><ele>-1.0</ele><time>2026-04-15T10:20:46.225Z</time></trkpt><trkpt lat="45.0953278" lon="12.0254278"><ele>-1.0</ele><time>2026-04-15T10:20:47.237Z</time></trkpt><trkpt lat="45.0951751" lon="12.0256546"><ele>-1.0</ele><time>2026-04-15T10:20:48.228Z</time></trkpt><trkpt lat="45.0950154" lon="12.0258856"><ele>-1.0</ele><time>2026-04-15T10:20:49.254Z</time></trkpt><trkpt lat="45.0948566" lon="12.0261163"><ele>-1.0</ele><time>2026-04-15T10:20:50.236Z</time></trkpt><trkpt lat="45.0947077" lon="12.0263364"><ele>-1.0</ele><time>2026-04-15T10:20:51.217Z</time></trkpt><trkpt lat="45.0945588" lon="12.0265527"><ele>0.0</ele><time>2026-04-15T10:20:52.235Z</time></trkpt><trkpt lat="45.0944078" lon="12.0267804"><ele>1.0</ele><time>2026-04-15T10:20:53.227Z</time></trkpt><trkpt lat="45.09425" lon="12.02702"><ele>0.0</ele><time>2026-04-15T10:20:54.239Z</time></trkpt><trkpt lat="45.0940843" lon="12.0272769"><ele>-1.0</ele><time>2026-04-15T10:20:55.229Z</time></trkpt><trkpt lat="45.0939183" lon="12.0275436"><ele>-1.0</ele><time>2026-04-15T10:20:56.224Z</time></trkpt><trkpt lat="45.0937505" lon="12.0278136"><ele>-1.0</ele><time>2026-04-15T10:20:57.241Z</time></trkpt><trkpt lat="45.0935878" lon="12.0280749"><ele>-1.0</ele><time>2026-04-15T10:20:58.247Z</time></trkpt><trkpt lat="45.0934358" lon="12.0283256"><ele>-1.0</ele><time>2026-04-15T10:20:59.22Z</time></trkpt><trkpt lat="45.0933024" lon="12.0285485"><ele>-1.0</ele><time>2026-04-15T10:21:00.233Z</time></trkpt><trkpt lat="45.0931884" lon="12.0287244"><ele>-0.5</ele><time>2026-04-15T10:21:01.249Z</time></trkpt><trkpt lat="45.0930935" lon="12.0288586"><ele>0.0</ele><time>2026-04-15T10:21:02.227Z</time></trkpt><trkpt lat="45.0929948" lon="12.0289594"><ele>0.5</ele><time>2026-04-15T10:21:03.229Z</time></trkpt><trkpt lat="45.0928842" lon="12.0289889"><ele>1.0</ele><time>2026-04-15T10:21:04.232Z</time></trkpt><trkpt lat="45.0927682" lon="12.0289702"><ele>1.0</ele><time>2026-04-15T10:21:05.23Z</time></trkpt><trkpt lat="45.092618" lon="12.0288998"><ele>1.0</ele><time>2026-04-15T10:21:06.228Z</time></trkpt><trkpt lat="45.0924488" lon="12.0288053"><ele>1.0</ele><time>2026-04-15T10:21:07.234Z</time></trkpt><trkpt lat="45.0922656" lon="12.0287091"><ele>0.6666666666666666</ele><time>2026-04-15T10:21:08.232Z</time></trkpt><trkpt lat="45.0920665" lon="12.0286117"><ele>0.3333333333333333</ele><time>2026-04-15T10:21:09.237Z</time></trkpt><trkpt lat="45.0918675" lon="12.0285113"><ele>0.0</ele><time>2026-04-15T10:21:10.227Z</time></trkpt><trkpt lat="45.0916655" lon="12.0284117"><ele>0.3333333333333333</ele><time>2026-04-15T10:21:11.24Z</time></trkpt><trkpt lat="45.0914636" lon="12.0283068"><ele>0.6666666666666666</ele><time>2026-04-15T10:21:12.236Z</time></trkpt><trkpt lat="45.0912594" lon="12.0281956"><ele>1.0</ele><time>2026-04-15T10:21:13.232Z</time></trkpt><trkpt lat="45.0910525" lon="12.0280813"><ele>1.0</ele><time>2026-04-15T10:21:14.242Z</time></trkpt><trkpt lat="45.0908314" lon="12.0279719"><ele>1.0</ele><time>2026-04-15T10:21:15.231Z</time></trkpt><trkpt lat="45.0906073" lon="12.0278662"><ele>0.0</ele><time>2026-04-15T10:21:16.228Z</time></trkpt><trkpt lat="45.0903842" lon="12.027774"><ele>-1.0</ele><time>2026-04-15T10:21:17.211Z</time></trkpt><trkpt lat="45.0901713" lon="12.027686"><ele>-1.0</ele><time>2026-04-15T10:21:18.235Z</time></trkpt><trkpt lat="45.0899673" lon="12.0275993"><ele>-1.0</ele><time>2026-04-15T10:21:19.216Z</time></trkpt><trkpt lat="45.0897618" lon="12.0275183"><ele>-1.0</ele><time>2026-04-15T10:21:20.23Z</time></trkpt><trkpt lat="45.0895587" lon="12.0274493"><ele>-1.0</ele><time>2026-04-15T10:21:21.239Z</time></trkpt><trkpt lat="45.0893685" lon="12.0273978"><ele>-1.0</ele><time>2026-04-15T10:21:22.242Z</time></trkpt><trkpt lat="45.0891923" lon="12.0273819"><ele>-1.0</ele><time>2026-04-15T10:21:23.237Z</time></trkpt><trkpt lat="45.0890191" lon="12.0274003"><ele>-0.3333333333333333</ele><time>2026-04-15T10:21:24.22Z</time></trkpt><trkpt lat="45.0888497" lon="12.0274105"><ele>0.3333333333333333</ele><time>2026-04-15T10:21:25.226Z</time></trkpt><trkpt lat="45.0886832" lon="12.027367"><ele>1.0</ele><time>2026-04-15T10:21:26.228Z</time></trkpt><trkpt lat="45.0885279" lon="12.0272543"><ele>1.0</ele><time>2026-04-15T10:21:27.238Z</time></trkpt><trkpt lat="45.0883835" lon="12.027094"><ele>1.0</ele><time>2026-04-15T10:21:28.23Z</time></trkpt><trkpt lat="45.0882441" lon="12.0269061"><ele>1.0</ele><time>2026-04-15T10:21:29.238Z</time></trkpt><trkpt lat="45.0881467" lon="12.0266873"><ele>1.0</ele><time>2026-04-15T10:21:30.233Z</time></trkpt><trkpt lat="45.0880902" lon="12.0264361"><ele>1.0</ele><time>2026-04-15T10:21:31.23Z</time></trkpt><trkpt lat="45.0880621" lon="12.026163"><ele>1.0</ele><time>2026-04-15T10:21:32.226Z</time></trkpt><trkpt lat="45.0880358" lon="12.0258647"><ele>1.0</ele><time>2026-04-15T10:21:33.217Z</time></trkpt><trkpt lat="45.0880086" lon="12.0255548"><ele>1.0</ele><time>2026-04-15T10:21:34.229Z</time></trkpt><trkpt lat="45.0879755" lon="12.0252356"><ele>1.0</ele><time>2026-04-15T10:21:35.236Z</time></trkpt><trkpt lat="45.0879311" lon="12.0249256"><ele>1.0</ele><time>2026-04-15T10:21:36.234Z</time></trkpt><trkpt lat="45.0878725" lon="12.0246328"><ele>1.0</ele><time>2026-04-15T10:21:37.231Z</time></trkpt><trkpt lat="45.0877978" lon="12.0243507"><ele>1.0</ele><time>2026-04-15T10:21:38.224Z</time></trkpt><trkpt lat="45.0876969" lon="12.024086"><ele>0.6666666666666666</ele><time>2026-04-15T10:21:39.223Z</time></trkpt><trkpt lat="45.0875713" lon="12.0238408"><ele>0.3333333333333333</ele><time>2026-04-15T10:21:40.243Z</time></trkpt><trkpt lat="45.0874402" lon="12.0236288"><ele>0.0</ele><time>2026-04-15T10:21:41.226Z</time></trkpt><trkpt lat="45.0873062" lon="12.0234543"><ele>0.0</ele><time>2026-04-15T10:21:42.226Z</time></trkpt><trkpt lat="45.0871459" lon="12.0233225"><ele>0.0</ele><time>2026-04-15T10:21:43.229Z</time></trkpt><trkpt lat="45.0869747" lon="12.0232172"><ele>0.0</ele><time>2026-04-15T10:21:44.233Z</time></trkpt><trkpt lat="45.0867975" lon="12.023139"><ele>0.3333333333333333</ele><time>2026-04-15T10:21:45.226Z</time></trkpt><trkpt lat="45.0866228" lon="12.0231131"><ele>0.6666666666666666</ele><time>2026-04-15T10:21:46.23Z</time></trkpt><trkpt lat="45.0864382" lon="12.0231317"><ele>1.0</ele><time>2026-04-15T10:21:47.236Z</time></trkpt><trkpt lat="45.086241" lon="12.0231914"><ele>0.6666666666666666</ele><time>2026-04-15T10:21:48.243Z</time></trkpt><trkpt lat="45.0860309" lon="12.0232646"><ele>0.3333333333333333</ele><time>2026-04-15T10:21:49.22Z</time></trkpt><trkpt lat="45.0858162" lon="12.0233668"><ele>0.0</ele><time>2026-04-15T10:21:50.228Z</time></trkpt><trkpt lat="45.0855933" lon="12.023473"><ele>-0.5</ele><time>2026-04-15T10:21:51.234Z</time></trkpt><trkpt lat="45.0853627" lon="12.0235822"><ele>-1.0</ele><time>2026-04-15T10:21:52.228Z</time></trkpt><trkpt lat="45.0851261" lon="12.0236962"><ele>-2.0</ele><time>2026-04-15T10:21:53.222Z</time></trkpt><trkpt lat="45.0848908" lon="12.0238115"><ele>-3.0</ele><time>2026-04-15T10:21:54.221Z</time></trkpt><trkpt lat="45.0846563" lon="12.0239245"><ele>-3.0</ele><time>2026-04-15T10:21:55.243Z</time></trkpt><trkpt lat="45.0844254" lon="12.0240431"><ele>-3.0</ele><time>2026-04-15T10:21:56.236Z</time></trkpt><trkpt lat="45.0841948" lon="12.0241773"><ele>-2.0</ele><time>2026-04-15T10:21:57.234Z</time></trkpt><trkpt lat="45.0839637" lon="12.0243303"><ele>-1.0</ele><time>2026-04-15T10:21:58.225Z</time></trkpt><trkpt lat="45.0837467" lon="12.024477"><ele>-1.0</ele><time>2026-04-15T10:21:59.237Z</time></trkpt><trkpt lat="45.0835437" lon="12.0246039"><ele>-1.0</ele><time>2026-04-15T10:22:00.219Z</time></trkpt><trkpt lat="45.0833525" lon="12.0246878"><ele>-1.0</ele><time>2026-04-15T10:22:01.22Z</time></trkpt><trkpt lat="45.0831505" lon="12.0247323"><ele>-1.0</ele><time>2026-04-15T10:22:02.214Z</time></trkpt><trkpt lat="45.0829371" lon="12.0247404"><ele>-1.0</ele><time>2026-04-15T10:22:03.224Z</time></trkpt><trkpt lat="45.0827195" lon="12.024721"><ele>-1.0</ele><time>2026-04-15T10:22:04.232Z</time></trkpt><trkpt lat="45.0824889" lon="12.0246616"><ele>-0.5</ele><time>2026-04-15T10:22:05.235Z</time></trkpt><trkpt lat="45.0822601" lon="12.0245733"><ele>0.0</ele><time>2026-04-15T10:22:06.227Z</time></trkpt><trkpt lat="45.0820364" lon="12.0244743"><ele>0.0</ele><time>2026-04-15T10:22:07.233Z</time></trkpt><trkpt lat="45.0818306" lon="12.0243832"><ele>0.0</ele><time>2026-04-15T10:22:08.226Z</time></trkpt><trkpt lat="45.0816541" lon="12.0242949"><ele>0.0</ele><time>2026-04-15T10:22:09.227Z</time></trkpt><trkpt lat="45.0815279" lon="12.0242146"><ele>0.0</ele><time>2026-04-15T10:22:10.246Z</time></trkpt><trkpt lat="45.0814486" lon="12.0241177"><ele>0.0</ele><time>2026-04-15T10:22:11.226Z</time></trkpt><trkpt lat="45.0813961" lon="12.0239754"><ele>0.0</ele><time>2026-04-15T10:22:12.235Z</time></trkpt><trkpt lat="45.0813742" lon="12.0237893"><ele>0.0</ele><time>2026-04-15T10:22:13.232Z</time></trkpt><trkpt lat="45.0813611" lon="12.023555"><ele>0.0</ele><time>2026-04-15T10:22:14.224Z</time></trkpt><trkpt lat="45.0813413" lon="12.0233201"><ele>0.0</ele><time>2026-04-15T10:22:15.227Z</time></trkpt><trkpt lat="45.0813278" lon="12.0231027"><ele>0.0</ele><time>2026-04-15T10:22:16.222Z</time></trkpt><trkpt lat="45.081319" lon="12.0229048"><ele>0.0</ele><time>2026-04-15T10:22:17.218Z</time></trkpt><trkpt lat="45.081315" lon="12.0227284"><ele>0.0</ele><time>2026-04-15T10:22:18.244Z</time></trkpt><trkpt lat="45.0813181" lon="12.0225857"><ele>0.0</ele><time>2026-04-15T10:22:19.225Z</time></trkpt><trkpt lat="45.0813197" lon="12.0224776"><ele>0.0</ele><time>2026-04-15T10:22:20.22Z</time></trkpt><trkpt lat="45.0812933" lon="12.0223953"><ele>0.0</ele><time>2026-04-15T10:22:21.229Z</time></trkpt><trkpt lat="45.0812382" lon="12.0223519"><ele>0.0</ele><time>2026-04-15T10:22:22.233Z</time></trkpt><trkpt lat="45.0811774" lon="12.0223056"><ele>0.0</ele><time>2026-04-15T10:22:23.238Z</time></trkpt><trkpt lat="45.0811487" lon="12.0221475"><ele>0.0</ele><time>2026-04-15T10:22:25.242Z</time></trkpt><trkpt lat="45.0811988" lon="12.0220537"><ele>0.0</ele><time>2026-04-15T10:22:26.222Z</time></trkpt><trkpt lat="45.0812715" lon="12.0219137"><ele>0.0</ele><time>2026-04-15T10:22:27.237Z</time></trkpt><trkpt lat="45.0813643" lon="12.0217255"><ele>-0.3333333333333333</ele><time>2026-04-15T10:22:28.225Z</time></trkpt><trkpt lat="45.0814578" lon="12.0214898"><ele>-0.6666666666666666</ele><time>2026-04-15T10:22:29.237Z</time></trkpt><trkpt lat="45.0815644" lon="12.0212415"><ele>-1.0</ele><time>2026-04-15T10:22:30.226Z</time></trkpt><trkpt lat="45.0816803" lon="12.020976"><ele>-1.0</ele><time>2026-04-15T10:22:31.229Z</time></trkpt><trkpt lat="45.0817946" lon="12.0206851"><ele>-1.0</ele><time>2026-04-15T10:22:32.243Z</time></trkpt><trkpt lat="45.081891" lon="12.0204027"><ele>-1.0</ele><time>2026-04-15T10:22:33.226Z</time></trkpt><trkpt lat="45.0819721" lon="12.0201325"><ele>-1.0</ele><time>2026-04-15T10:22:34.222Z</time></trkpt><trkpt lat="45.0820343" lon="12.0198768"><ele>-1.0</ele><time>2026-04-15T10:22:35.24Z</time></trkpt><trkpt lat="45.0820724" lon="12.0196305"><ele>-1.0</ele><time>2026-04-15T10:22:36.215Z</time></trkpt><trkpt lat="45.0820929" lon="12.0193978"><ele>-1.0</ele><time>2026-04-15T10:22:37.227Z</time></trkpt><trkpt lat="45.0821048" lon="12.0191734"><ele>-1.0</ele><time>2026-04-15T10:22:38.225Z</time></trkpt><trkpt lat="45.0821161" lon="12.0189592"><ele>-1.0</ele><time>2026-04-15T10:22:39.224Z</time></trkpt><trkpt lat="45.0821312" lon="12.0187304"><ele>-1.0</ele><time>2026-04-15T10:22:40.224Z</time></trkpt><trkpt lat="45.0821502" lon="12.0184744"><ele>-1.0</ele><time>2026-04-15T10:22:41.222Z</time></trkpt><trkpt lat="45.0821705" lon="12.0182124"><ele>-1.3333333333333333</ele><time>2026-04-15T10:22:42.217Z</time></trkpt><trkpt lat="45.0821782" lon="12.0179547"><ele>-1.6666666666666665</ele><time>2026-04-15T10:22:43.234Z</time></trkpt><trkpt lat="45.0821611" lon="12.017677"><ele>-2.0</ele><time>2026-04-15T10:22:44.218Z</time></trkpt><trkpt lat="45.0821228" lon="12.017371"><ele>-2.0</ele><time>2026-04-15T10:22:45.233Z</time></trkpt><trkpt lat="45.0820748" lon="12.0170592"><ele>-2.0</ele><time>2026-04-15T10:22:46.223Z</time></trkpt><trkpt lat="45.0820376" lon="12.0167578"><ele>-2.0</ele><time>2026-04-15T10:22:47.239Z</time></trkpt><trkpt lat="45.0820201" lon="12.0164675"><ele>-1.6666666666666665</ele><time>2026-04-15T10:22:48.237Z</time></trkpt><trkpt lat="45.0820336" lon="12.0161724"><ele>-1.3333333333333333</ele><time>2026-04-15T10:22:49.222Z</time></trkpt><trkpt lat="45.0820774" lon="12.0158589"><ele>-1.0</ele><time>2026-04-15T10:22:50.24Z</time></trkpt><trkpt lat="45.0821382" lon="12.0155325"><ele>-0.5</ele><time>2026-04-15T10:22:51.22Z</time></trkpt><trkpt lat="45.0822284" lon="12.0152005"><ele>0.0</ele><time>2026-04-15T10:22:52.227Z</time></trkpt><trkpt lat="45.0823423" lon="12.0148665"><ele>-0.5</ele><time>2026-04-15T10:22:53.236Z</time></trkpt><trkpt lat="45.0824639" lon="12.014524"><ele>-1.0</ele><time>2026-04-15T10:22:54.232Z</time></trkpt><trkpt lat="45.0825762" lon="12.0141929"><ele>-1.0</ele><time>2026-04-15T10:22:55.233Z</time></trkpt><trkpt lat="45.0826889" lon="12.0138846"><ele>-1.0</ele><time>2026-04-15T10:22:56.234Z</time></trkpt><trkpt lat="45.0828139" lon="12.0136147"><ele>-1.0</ele><time>2026-04-15T10:22:57.227Z</time></trkpt><trkpt lat="45.0829322" lon="12.0133578"><ele>-1.0</ele><time>2026-04-15T10:22:58.229Z</time></trkpt><trkpt lat="45.0830369" lon="12.0131116"><ele>-1.0</ele><time>2026-04-15T10:22:59.233Z</time></trkpt><trkpt lat="45.0831215" lon="12.012873"><ele>-0.6666666666666666</ele><time>2026-04-15T10:23:00.227Z</time></trkpt><trkpt lat="45.0831851" lon="12.0126315"><ele>-0.3333333333333333</ele><time>2026-04-15T10:23:01.227Z</time></trkpt><trkpt lat="45.0832289" lon="12.0123793"><ele>0.0</ele><time>2026-04-15T10:23:02.217Z</time></trkpt><trkpt lat="45.0832655" lon="12.012105"><ele>0.0</ele><time>2026-04-15T10:23:03.214Z</time></trkpt><trkpt lat="45.0833004" lon="12.0118122"><ele>0.0</ele><time>2026-04-15T10:23:04.207Z</time></trkpt><trkpt lat="45.0833397" lon="12.0115111"><ele>0.0</ele><time>2026-04-15T10:23:05.225Z</time></trkpt><trkpt lat="45.0833762" lon="12.0112165"><ele>0.0</ele><time>2026-04-15T10:23:06.221Z</time></trkpt><trkpt lat="45.0833999" lon="12.0109276"><ele>0.0</ele><time>2026-04-15T10:23:07.225Z</time></trkpt><trkpt lat="45.0834027" lon="12.010651"><ele>0.0</ele><time>2026-04-15T10:23:08.222Z</time></trkpt><trkpt lat="45.0833775" lon="12.0103842"><ele>0.0</ele><time>2026-04-15T10:23:09.221Z</time></trkpt><trkpt lat="45.0833144" lon="12.0101178"><ele>0.0</ele><time>2026-04-15T10:23:10.231Z</time></trkpt><trkpt lat="45.083226" lon="12.0098525"><ele>0.0</ele><time>2026-04-15T10:23:11.23Z</time></trkpt><trkpt lat="45.0831303" lon="12.0095772"><ele>0.0</ele><time>2026-04-15T10:23:12.22Z</time></trkpt><trkpt lat="45.0830655" lon="12.0092909"><ele>0.0</ele><time>2026-04-15T10:23:13.218Z</time></trkpt><trkpt lat="45.0830243" lon="12.0090125"><ele>0.0</ele><time>2026-04-15T10:23:14.231Z</time></trkpt><trkpt lat="45.0829654" lon="12.0087393"><ele>0.0</ele><time>2026-04-15T10:23:15.219Z</time></trkpt><trkpt lat="45.0828702" lon="12.0084558"><ele>0.0</ele><time>2026-04-15T10:23:16.232Z</time></trkpt><trkpt lat="45.0827605" lon="12.0081594"><ele>0.0</ele><time>2026-04-15T10:23:17.232Z</time></trkpt><trkpt lat="45.0826584" lon="12.0078735"><ele>0.0</ele><time>2026-04-15T10:23:18.223Z</time></trkpt><trkpt lat="45.0825685" lon="12.0076035"><ele>0.0</ele><time>2026-04-15T10:23:19.225Z</time></trkpt><trkpt lat="45.0824919" lon="12.0073635"><ele>-0.3333333333333333</ele><time>2026-04-15T10:23:20.225Z</time></trkpt><trkpt lat="45.0824193" lon="12.0071502"><ele>-0.6666666666666666</ele><time>2026-04-15T10:23:21.209Z</time></trkpt><trkpt lat="45.082337" lon="12.0069411"><ele>-1.0</ele><time>2026-04-15T10:23:22.228Z</time></trkpt><trkpt lat="45.0822277" lon="12.0067246"><ele>-0.6666666666666666</ele><time>2026-04-15T10:23:23.21Z</time></trkpt><trkpt lat="45.0820861" lon="12.0065051"><ele>-0.3333333333333333</ele><time>2026-04-15T10:23:24.218Z</time></trkpt><trkpt lat="45.0819238" lon="12.0062917"><ele>0.0</ele><time>2026-04-15T10:23:25.211Z</time></trkpt><trkpt lat="45.0817508" lon="12.0060729"><ele>-0.5</ele><time>2026-04-15T10:23:26.226Z</time></trkpt><trkpt lat="45.081577" lon="12.0058494"><ele>-1.0</ele><time>2026-04-15T10:23:27.215Z</time></trkpt><trkpt lat="45.081402" lon="12.0056192"><ele>-1.0</ele><time>2026-04-15T10:23:28.22Z</time></trkpt><trkpt lat="45.081227" lon="12.0053824"><ele>-1.0</ele><time>2026-04-15T10:23:29.214Z</time></trkpt><trkpt lat="45.0810514" lon="12.0051346"><ele>-0.5</ele><time>2026-04-15T10:23:30.213Z</time></trkpt><trkpt lat="45.0808801" lon="12.004894"><ele>0.0</ele><time>2026-04-15T10:23:31.218Z</time></trkpt><trkpt lat="45.0807076" lon="12.0046545"><ele>0.0</ele><time>2026-04-15T10:23:32.217Z</time></trkpt><trkpt lat="45.0805344" lon="12.00442"><ele>0.0</ele><time>2026-04-15T10:23:33.219Z</time></trkpt><trkpt lat="45.080349" lon="12.004197"><ele>-1.0</ele><time>2026-04-15T10:23:34.22Z</time></trkpt><trkpt lat="45.0801541" lon="12.0039782"><ele>-2.0</ele><time>2026-04-15T10:23:35.217Z</time></trkpt><trkpt lat="45.0799599" lon="12.0037543"><ele>-2.0</ele><time>2026-04-15T10:23:36.218Z</time></trkpt><trkpt lat="45.0797691" lon="12.003535"><ele>-2.0</ele><time>2026-04-15T10:23:37.218Z</time></trkpt><trkpt lat="45.0795858" lon="12.0033282"><ele>-1.5</ele><time>2026-04-15T10:23:38.212Z</time></trkpt><trkpt lat="45.0793979" lon="12.0031319"><ele>-1.0</ele><time>2026-04-15T10:23:39.225Z</time></trkpt><trkpt lat="45.0791993" lon="12.0029469"><ele>-0.5</ele><time>2026-04-15T10:23:40.22Z</time></trkpt><trkpt lat="45.0789928" lon="12.0027705"><ele>0.0</ele><time>2026-04-15T10:23:41.231Z</time></trkpt><trkpt lat="45.0787857" lon="12.0026009"><ele>-0.5</ele><time>2026-04-15T10:23:42.226Z</time></trkpt><trkpt lat="45.0785857" lon="12.0024243"><ele>-1.0</ele><time>2026-04-15T10:23:43.224Z</time></trkpt><trkpt lat="45.0783923" lon="12.0022371"><ele>-1.5</ele><time>2026-04-15T10:23:44.215Z</time></trkpt><trkpt lat="45.0782023" lon="12.0020352"><ele>-2.0</ele><time>2026-04-15T10:23:45.228Z</time></trkpt><trkpt lat="45.0780125" lon="12.0018305"><ele>-1.5</ele><time>2026-04-15T10:23:46.215Z</time></trkpt><trkpt lat="45.0778223" lon="12.0016329"><ele>-1.0</ele><time>2026-04-15T10:23:47.222Z</time></trkpt><trkpt lat="45.0776355" lon="12.0014452"><ele>-1.0</ele><time>2026-04-15T10:23:48.226Z</time></trkpt><trkpt lat="45.0774498" lon="12.0012673"><ele>-1.0</ele><time>2026-04-15T10:23:49.224Z</time></trkpt><trkpt lat="45.0772675" lon="12.0010973"><ele>-1.0</ele><time>2026-04-15T10:23:50.225Z</time></trkpt><trkpt lat="45.0770852" lon="12.000928"><ele>-0.3333333333333333</ele><time>2026-04-15T10:23:51.215Z</time></trkpt><trkpt lat="45.0769012" lon="12.0007614"><ele>0.3333333333333333</ele><time>2026-04-15T10:23:52.229Z</time></trkpt><trkpt lat="45.076724" lon="12.0006055"><ele>1.0</ele><time>2026-04-15T10:23:53.227Z</time></trkpt><trkpt lat="45.0765633" lon="12.0004594"><ele>1.0</ele><time>2026-04-15T10:23:54.217Z</time></trkpt><trkpt lat="45.0764148" lon="12.0003084"><ele>1.0</ele><time>2026-04-15T10:23:55.216Z</time></trkpt><trkpt lat="45.0762785" lon="12.000134"><ele>1.0</ele><time>2026-04-15T10:23:56.213Z</time></trkpt><trkpt lat="45.0761496" lon="11.9999316"><ele>1.0</ele><time>2026-04-15T10:23:57.21Z</time></trkpt><trkpt lat="45.0760192" lon="11.9997411"><ele>1.0</ele><time>2026-04-15T10:23:58.224Z</time></trkpt><trkpt lat="45.0758919" lon="11.9995658"><ele>1.0</ele><time>2026-04-15T10:23:59.206Z</time></trkpt><trkpt lat="45.075788" lon="11.9993821"><ele>0.6666666666666666</ele><time>2026-04-15T10:24:00.237Z</time></trkpt><trkpt lat="45.0757017" lon="11.9991859"><ele>0.3333333333333333</ele><time>2026-04-15T10:24:01.22Z</time></trkpt><trkpt lat="45.0756362" lon="11.9990028"><ele>0.0</ele><time>2026-04-15T10:24:02.216Z</time></trkpt><trkpt lat="45.075558" lon="11.9988215"><ele>0.0</ele><time>2026-04-15T10:24:03.209Z</time></trkpt><trkpt lat="45.0754681" lon="11.9986402"><ele>0.0</ele><time>2026-04-15T10:24:04.215Z</time></trkpt><trkpt lat="45.0753927" lon="11.9984454"><ele>0.0</ele><time>2026-04-15T10:24:05.206Z</time></trkpt><trkpt lat="45.0753345" lon="11.9982082"><ele>0.0</ele><time>2026-04-15T10:24:06.233Z</time></trkpt><trkpt lat="45.075294" lon="11.9979531"><ele>0.0</ele><time>2026-04-15T10:24:07.225Z</time></trkpt><trkpt lat="45.0752447" lon="11.9976801"><ele>0.0</ele><time>2026-04-15T10:24:08.234Z</time></trkpt><trkpt lat="45.0751851" lon="11.9974087"><ele>-0.3333333333333333</ele><time>2026-04-15T10:24:09.231Z</time></trkpt><trkpt lat="45.0751089" lon="11.9971318"><ele>-0.6666666666666666</ele><time>2026-04-15T10:24:10.209Z</time></trkpt><trkpt lat="45.0750097" lon="11.9968432"><ele>-1.0</ele><time>2026-04-15T10:24:11.226Z</time></trkpt><trkpt lat="45.0748829" lon="11.9965576"><ele>-1.0</ele><time>2026-04-15T10:24:12.221Z</time></trkpt><trkpt lat="45.0747402" lon="11.9962833"><ele>-1.0</ele><time>2026-04-15T10:24:13.202Z</time></trkpt><trkpt lat="45.074582" lon="11.9960095"><ele>-1.0</ele><time>2026-04-15T10:24:14.211Z</time></trkpt><trkpt lat="45.074412" lon="11.9957382"><ele>-1.0</ele><time>2026-04-15T10:24:15.233Z</time></trkpt><trkpt lat="45.0742347" lon="11.995471"><ele>-0.5</ele><time>2026-04-15T10:24:16.21Z</time></trkpt><trkpt lat="45.0740489" lon="11.9951994"><ele>0.0</ele><time>2026-04-15T10:24:17.209Z</time></trkpt><trkpt lat="45.0738485" lon="11.9949288"><ele>0.0</ele><time>2026-04-15T10:24:18.206Z</time></trkpt><trkpt lat="45.0736364" lon="11.9946674"><ele>0.0</ele><time>2026-04-15T10:24:19.222Z</time></trkpt><trkpt lat="45.0734188" lon="11.9944112"><ele>0.0</ele><time>2026-04-15T10:24:20.232Z</time></trkpt><trkpt lat="45.0732046" lon="11.9941562"><ele>0.0</ele><time>2026-04-15T10:24:21.213Z</time></trkpt><trkpt lat="45.0729962" lon="11.993905"><ele>0.0</ele><time>2026-04-15T10:24:22.23Z</time></trkpt><trkpt lat="45.0727911" lon="11.9936747"><ele>0.0</ele><time>2026-04-15T10:24:23.205Z</time></trkpt><trkpt lat="45.0725874" lon="11.9934531"><ele>0.0</ele><time>2026-04-15T10:24:24.204Z</time></trkpt><trkpt lat="45.0723903" lon="11.9932432"><ele>0.0</ele><time>2026-04-15T10:24:25.201Z</time></trkpt><trkpt lat="45.0722036" lon="11.9930447"><ele>0.0</ele><time>2026-04-15T10:24:26.21Z</time></trkpt><trkpt lat="45.0720268" lon="11.9928639"><ele>0.0</ele><time>2026-04-15T10:24:27.224Z</time></trkpt><trkpt lat="45.0718635" lon="11.9926916"><ele>0.0</ele><time>2026-04-15T10:24:28.202Z</time></trkpt><trkpt lat="45.0717115" lon="11.9925308"><ele>0.0</ele><time>2026-04-15T10:24:29.229Z</time></trkpt><trkpt lat="45.0715469" lon="11.9923823"><ele>0.0</ele><time>2026-04-15T10:24:30.199Z</time></trkpt><trkpt lat="45.0713563" lon="11.9922416"><ele>0.0</ele><time>2026-04-15T10:24:31.223Z</time></trkpt><trkpt lat="45.0711459" lon="11.9921174"><ele>0.0</ele><time>2026-04-15T10:24:32.227Z</time></trkpt><trkpt lat="45.0709312" lon="11.991997"><ele>0.0</ele><time>2026-04-15T10:24:33.223Z</time></trkpt><trkpt lat="45.070727" lon="11.9918759"><ele>0.0</ele><time>2026-04-15T10:24:34.21Z</time></trkpt><trkpt lat="45.0705431" lon="11.9917515"><ele>0.0</ele><time>2026-04-15T10:24:35.213Z</time></trkpt><trkpt lat="45.0703663" lon="11.9916192"><ele>0.0</ele><time>2026-04-15T10:24:36.201Z</time></trkpt><trkpt lat="45.0702015" lon="11.9914725"><ele>0.0</ele><time>2026-04-15T10:24:37.222Z</time></trkpt><trkpt lat="45.0700444" lon="11.9913228"><ele>0.0</ele><time>2026-04-15T10:24:38.213Z</time></trkpt><trkpt lat="45.069892" lon="11.9911679"><ele>0.0</ele><time>2026-04-15T10:24:39.217Z</time></trkpt><trkpt lat="45.0697476" lon="11.9910063"><ele>-0.3333333333333333</ele><time>2026-04-15T10:24:40.21Z</time></trkpt><trkpt lat="45.0696095" lon="11.9908413"><ele>-0.6666666666666666</ele><time>2026-04-15T10:24:41.208Z</time></trkpt><trkpt lat="45.069487" lon="11.9906524"><ele>-1.0</ele><time>2026-04-15T10:24:42.208Z</time></trkpt><trkpt lat="45.0693761" lon="11.9904401"><ele>-1.0</ele><time>2026-04-15T10:24:43.223Z</time></trkpt><trkpt lat="45.0692772" lon="11.9902049"><ele>-1.0</ele><time>2026-04-15T10:24:44.219Z</time></trkpt><trkpt lat="45.0691971" lon="11.9899261"><ele>-1.0</ele><time>2026-04-15T10:24:45.23Z</time></trkpt><trkpt lat="45.0691259" lon="11.9896242"><ele>-2.0</ele><time>2026-04-15T10:24:46.214Z</time></trkpt><trkpt lat="45.0690539" lon="11.9893101"><ele>-3.0</ele><time>2026-04-15T10:24:47.215Z</time></trkpt><trkpt lat="45.0689721" lon="11.9889996"><ele>-3.5</ele><time>2026-04-15T10:24:48.221Z</time></trkpt><trkpt lat="45.0688829" lon="11.9886913"><ele>-4.0</ele><time>2026-04-15T10:24:49.24Z</time></trkpt><trkpt lat="45.0687682" lon="11.988381"><ele>-2.5</ele><time>2026-04-15T10:24:50.216Z</time></trkpt><trkpt lat="45.0686431" lon="11.9880763"><ele>-1.0</ele><time>2026-04-15T10:24:51.216Z</time></trkpt><trkpt lat="45.0685197" lon="11.9877758"><ele>-0.5</ele><time>2026-04-15T10:24:52.207Z</time></trkpt><trkpt lat="45.0683931" lon="11.9874616"><ele>0.0</ele><time>2026-04-15T10:24:53.227Z</time></trkpt><trkpt lat="45.0682655" lon="11.9871396"><ele>0.0</ele><time>2026-04-15T10:24:54.221Z</time></trkpt><trkpt lat="45.0681433" lon="11.986812"><ele>0.0</ele><time>2026-04-15T10:24:55.201Z</time></trkpt><trkpt lat="45.0680218" lon="11.9864803"><ele>0.0</ele><time>2026-04-15T10:24:56.201Z</time></trkpt><trkpt lat="45.0679072" lon="11.9861475"><ele>0.0</ele><time>2026-04-15T10:24:57.22Z</time></trkpt><trkpt lat="45.0677981" lon="11.985818"><ele>0.0</ele><time>2026-04-15T10:24:58.209Z</time></trkpt><trkpt lat="45.0676911" lon="11.9855003"><ele>0.0</ele><time>2026-04-15T10:24:59.218Z</time></trkpt><trkpt lat="45.0675828" lon="11.9852051"><ele>-0.5</ele><time>2026-04-15T10:25:00.196Z</time></trkpt><trkpt lat="45.0674594" lon="11.9849256"><ele>-1.0</ele><time>2026-04-15T10:25:01.213Z</time></trkpt><trkpt lat="45.0673203" lon="11.9846512"><ele>-0.5</ele><time>2026-04-15T10:25:02.221Z</time></trkpt><trkpt lat="45.0671649" lon="11.9844035"><ele>0.0</ele><time>2026-04-15T10:25:03.207Z</time></trkpt><trkpt lat="45.066992" lon="11.9841768"><ele>0.0</ele><time>2026-04-15T10:25:04.208Z</time></trkpt><trkpt lat="45.0668103" lon="11.9839845"><ele>0.0</ele><time>2026-04-15T10:25:05.21Z</time></trkpt><trkpt lat="45.0666125" lon="11.9838222"><ele>-0.5</ele><time>2026-04-15T10:25:06.208Z</time></trkpt><trkpt lat="45.0664092" lon="11.9836782"><ele>-1.0</ele><time>2026-04-15T10:25:07.21Z</time></trkpt><trkpt lat="45.0662052" lon="11.9835475"><ele>-1.0</ele><time>2026-04-15T10:25:08.202Z</time></trkpt><trkpt lat="45.0660123" lon="11.9834365"><ele>-1.0</ele><time>2026-04-15T10:25:09.216Z</time></trkpt><trkpt lat="45.0658254" lon="11.9833411"><ele>-1.0</ele><time>2026-04-15T10:25:10.216Z</time></trkpt><trkpt lat="45.0656432" lon="11.9832671"><ele>-0.6666666666666666</ele><time>2026-04-15T10:25:11.224Z</time></trkpt><trkpt lat="45.0654718" lon="11.9832134"><ele>-0.3333333333333333</ele><time>2026-04-15T10:25:12.226Z</time></trkpt><trkpt lat="45.0653097" lon="11.9831754"><ele>0.0</ele><time>2026-04-15T10:25:13.217Z</time></trkpt><trkpt lat="45.0651589" lon="11.9831563"><ele>0.0</ele><time>2026-04-15T10:25:14.204Z</time></trkpt><trkpt lat="45.0650137" lon="11.9831497"><ele>0.0</ele><time>2026-04-15T10:25:15.225Z</time></trkpt><trkpt lat="45.064874" lon="11.9831638"><ele>0.0</ele><time>2026-04-15T10:25:16.212Z</time></trkpt><trkpt lat="45.0647481" lon="11.9831805"><ele>0.0</ele><time>2026-04-15T10:25:17.228Z</time></trkpt><trkpt lat="45.0646337" lon="11.9831947"><ele>0.16666666666666666</ele><time>2026-04-15T10:25:18.221Z</time></trkpt><trkpt lat="45.0645457" lon="11.9832027"><ele>0.3333333333333333</ele><time>2026-04-15T10:25:19.208Z</time></trkpt><trkpt lat="45.0644778" lon="11.9832046"><ele>0.5</ele><time>2026-04-15T10:25:20.209Z</time></trkpt><trkpt lat="45.0644134" lon="11.9832091"><ele>0.6666666666666666</ele><time>2026-04-15T10:25:22.209Z</time></trkpt><trkpt lat="45.0643429" lon="11.9832366"><ele>0.8333333333333333</ele><time>2026-04-15T10:25:26.192Z</time></trkpt><trkpt lat="45.0642571" lon="11.9832595"><ele>1.0</ele><time>2026-04-15T10:25:27.207Z</time></trkpt><trkpt lat="45.0641621" lon="11.9832715"><ele>1.1666666666666665</ele><time>2026-04-15T10:25:28.195Z</time></trkpt><trkpt lat="45.0640733" lon="11.9832826"><ele>1.3333333333333333</ele><time>2026-04-15T10:25:29.215Z</time></trkpt><trkpt lat="45.0640045" lon="11.9832799"><ele>1.5</ele><time>2026-04-15T10:25:30.196Z</time></trkpt><trkpt lat="45.0639387" lon="11.9832529"><ele>1.6666666666666665</ele><time>2026-04-15T10:25:42.193Z</time></trkpt><trkpt lat="45.0638416" lon="11.9832045"><ele>1.8333333333333333</ele><time>2026-04-15T10:25:44.193Z</time></trkpt><trkpt lat="45.0637511" lon="11.9831231"><ele>2.0</ele><time>2026-04-15T10:25:45.205Z</time></trkpt><trkpt lat="45.0636628" lon="11.9830072"><ele>2.0</ele><time>2026-04-15T10:25:46.222Z</time></trkpt><trkpt lat="45.063577" lon="11.9828601"><ele>2.0</ele><time>2026-04-15T10:25:47.214Z</time></trkpt><trkpt lat="45.0635034" lon="11.9826832"><ele>2.0</ele><time>2026-04-15T10:25:48.206Z</time></trkpt><trkpt lat="45.063449" lon="11.9824985"><ele>2.0</ele><time>2026-04-15T10:25:49.22Z</time></trkpt><trkpt lat="45.063411" lon="11.9822983"><ele>1.6666666666666665</ele><time>2026-04-15T10:25:50.211Z</time></trkpt><trkpt lat="45.063388" lon="11.982075"><ele>1.3333333333333333</ele><time>2026-04-15T10:25:51.207Z</time></trkpt><trkpt lat="45.0633731" lon="11.9818313"><ele>1.0</ele><time>2026-04-15T10:25:52.221Z</time></trkpt><trkpt lat="45.0633512" lon="11.9815687"><ele>1.0</ele><time>2026-04-15T10:25:53.21Z</time></trkpt><trkpt lat="45.0633304" lon="11.9813024"><ele>1.0</ele><time>2026-04-15T10:25:54.207Z</time></trkpt><trkpt lat="45.0633107" lon="11.9810384"><ele>1.0</ele><time>2026-04-15T10:25:55.207Z</time></trkpt><trkpt lat="45.0632903" lon="11.9807811"><ele>0.3333333333333333</ele><time>2026-04-15T10:25:56.207Z</time></trkpt><trkpt lat="45.0632614" lon="11.9805264"><ele>-0.3333333333333333</ele><time>2026-04-15T10:25:57.2Z</time></trkpt><trkpt lat="45.0632287" lon="11.9802835"><ele>-1.0</ele><time>2026-04-15T10:25:58.206Z</time></trkpt><trkpt lat="45.0631962" lon="11.9800514"><ele>-0.3333333333333333</ele><time>2026-04-15T10:25:59.205Z</time></trkpt><trkpt lat="45.0631656" lon="11.9798249"><ele>0.3333333333333333</ele><time>2026-04-15T10:26:00.212Z</time></trkpt><trkpt lat="45.0631349" lon="11.979613"><ele>1.0</ele><time>2026-04-15T10:26:01.204Z</time></trkpt><trkpt lat="45.063109" lon="11.9794097"><ele>1.0</ele><time>2026-04-15T10:26:02.219Z</time></trkpt><trkpt lat="45.0630793" lon="11.979225"><ele>1.0</ele><time>2026-04-15T10:26:03.212Z</time></trkpt><trkpt lat="45.063046" lon="11.9790536"><ele>1.0</ele><time>2026-04-15T10:26:04.195Z</time></trkpt><trkpt lat="45.0630137" lon="11.978889"><ele>1.0</ele><time>2026-04-15T10:26:05.218Z</time></trkpt><trkpt lat="45.062988" lon="11.9787182"><ele>1.0</ele><time>2026-04-15T10:26:06.209Z</time></trkpt><trkpt lat="45.0629643" lon="11.978544"><ele>1.0</ele><time>2026-04-15T10:26:07.204Z</time></trkpt><trkpt lat="45.0629523" lon="11.97837"><ele>1.0</ele><time>2026-04-15T10:26:08.208Z</time></trkpt><trkpt lat="45.0629261" lon="11.9781876"><ele>1.0</ele><time>2026-04-15T10:26:09.194Z</time></trkpt><trkpt lat="45.0628886" lon="11.9779995"><ele>0.75</ele><time>2026-04-15T10:26:10.218Z</time></trkpt><trkpt lat="45.0628457" lon="11.9778105"><ele>0.5</ele><time>2026-04-15T10:26:11.199Z</time></trkpt><trkpt lat="45.0627853" lon="11.9776342"><ele>0.25</ele><time>2026-04-15T10:26:12.202Z</time></trkpt><trkpt lat="45.062687" lon="11.9774704"><ele>0.0</ele><time>2026-04-15T10:26:13.204Z</time></trkpt><trkpt lat="45.0625764" lon="11.9773283"><ele>0.0</ele><time>2026-04-15T10:26:14.214Z</time></trkpt><trkpt lat="45.0624475" lon="11.9771894"><ele>0.0</ele><time>2026-04-15T10:26:15.204Z</time></trkpt><trkpt lat="45.0623118" lon="11.9770523"><ele>0.0</ele><time>2026-04-15T10:26:16.215Z</time></trkpt><trkpt lat="45.0621703" lon="11.9769105"><ele>0.0</ele><time>2026-04-15T10:26:17.206Z</time></trkpt><trkpt lat="45.0620254" lon="11.9767688"><ele>0.0</ele><time>2026-04-15T10:26:18.208Z</time></trkpt><trkpt lat="45.0618711" lon="11.9766334"><ele>0.0</ele><time>2026-04-15T10:26:19.205Z</time></trkpt><trkpt lat="45.0617167" lon="11.9765037"><ele>0.3333333333333333</ele><time>2026-04-15T10:26:20.191Z</time></trkpt><trkpt lat="45.0615665" lon="11.9763901"><ele>0.6666666666666666</ele><time>2026-04-15T10:26:21.205Z</time></trkpt><trkpt lat="45.0614199" lon="11.9763126"><ele>1.0</ele><time>2026-04-15T10:26:22.219Z</time></trkpt><trkpt lat="45.0612756" lon="11.9762626"><ele>1.0</ele><time>2026-04-15T10:26:23.206Z</time></trkpt><trkpt lat="45.0611265" lon="11.9762622"><ele>1.0</ele><time>2026-04-15T10:26:24.215Z</time></trkpt><trkpt lat="45.0609632" lon="11.9762881"><ele>1.0</ele><time>2026-04-15T10:26:25.205Z</time></trkpt><trkpt lat="45.0607933" lon="11.9763312"><ele>0.6666666666666666</ele><time>2026-04-15T10:26:26.193Z</time></trkpt><trkpt lat="45.0606143" lon="11.9763848"><ele>0.3333333333333333</ele><time>2026-04-15T10:26:27.207Z</time></trkpt><trkpt lat="45.0604212" lon="11.9764541"><ele>0.0</ele><time>2026-04-15T10:26:28.182Z</time></trkpt><trkpt lat="45.0602254" lon="11.9765238"><ele>0.0</ele><time>2026-04-15T10:26:29.208Z</time></trkpt><trkpt lat="45.0600265" lon="11.9765968"><ele>0.0</ele><time>2026-04-15T10:26:30.213Z</time></trkpt><trkpt lat="45.059827" lon="11.9766788"><ele>0.0</ele><time>2026-04-15T10:26:31.221Z</time></trkpt><trkpt lat="45.0596325" lon="11.9767631"><ele>-0.3333333333333333</ele><time>2026-04-15T10:26:32.219Z</time></trkpt><trkpt lat="45.0594381" lon="11.9768536"><ele>-0.6666666666666666</ele><time>2026-04-15T10:26:33.196Z</time></trkpt><trkpt lat="45.0592483" lon="11.976955"><ele>-1.0</ele><time>2026-04-15T10:26:34.189Z</time></trkpt><trkpt lat="45.0590573" lon="11.977058"><ele>-0.3333333333333333</ele><time>2026-04-15T10:26:35.205Z</time></trkpt><trkpt lat="45.0588687" lon="11.9771628"><ele>0.3333333333333333</ele><time>2026-04-15T10:26:36.195Z</time></trkpt><trkpt lat="45.0586836" lon="11.9772731"><ele>1.0</ele><time>2026-04-15T10:26:37.204Z</time></trkpt><trkpt lat="45.0585031" lon="11.9773821"><ele>1.0</ele><time>2026-04-15T10:26:38.201Z</time></trkpt><trkpt lat="45.0583272" lon="11.9774944"><ele>1.0</ele><time>2026-04-15T10:26:39.193Z</time></trkpt><trkpt lat="45.0581551" lon="11.9775963"><ele>1.0</ele><time>2026-04-15T10:26:40.203Z</time></trkpt><trkpt lat="45.0579855" lon="11.9776669"><ele>0.6666666666666666</ele><time>2026-04-15T10:26:41.209Z</time></trkpt><trkpt lat="45.0578097" lon="11.9776866"><ele>0.3333333333333333</ele><time>2026-04-15T10:26:42.197Z</time></trkpt><trkpt lat="45.0576327" lon="11.9776635"><ele>0.0</ele><time>2026-04-15T10:26:43.203Z</time></trkpt><trkpt lat="45.0574546" lon="11.9776353"><ele>0.0</ele><time>2026-04-15T10:26:44.191Z</time></trkpt><trkpt lat="45.0572731" lon="11.9776111"><ele>0.0</ele><time>2026-04-15T10:26:45.199Z</time></trkpt><trkpt lat="45.0570861" lon="11.9775719"><ele>0.0</ele><time>2026-04-15T10:26:46.196Z</time></trkpt><trkpt lat="45.0569007" lon="11.9775084"><ele>0.0</ele><time>2026-04-15T10:26:47.205Z</time></trkpt><trkpt lat="45.0567129" lon="11.9774217"><ele>0.0</ele><time>2026-04-15T10:26:48.206Z</time></trkpt><trkpt lat="45.056519" lon="11.9773224"><ele>0.0</ele><time>2026-04-15T10:26:49.2Z</time></trkpt><trkpt lat="45.0563322" lon="11.9772093"><ele>0.0</ele><time>2026-04-15T10:26:50.21Z</time></trkpt><trkpt lat="45.056146" lon="11.9771001"><ele>0.0</ele><time>2026-04-15T10:26:51.187Z</time></trkpt><trkpt lat="45.055971" lon="11.9769978"><ele>0.0</ele><time>2026-04-15T10:26:52.197Z</time></trkpt><trkpt lat="45.0558042" lon="11.9769046"><ele>0.0</ele><time>2026-04-15T10:26:53.281Z</time></trkpt><trkpt lat="45.0556437" lon="11.9768166"><ele>0.0</ele><time>2026-04-15T10:26:54.189Z</time></trkpt><trkpt lat="45.0554848" lon="11.976728"><ele>0.0</ele><time>2026-04-15T10:26:55.216Z</time></trkpt><trkpt lat="45.0553253" lon="11.9766362"><ele>0.0</ele><time>2026-04-15T10:26:56.193Z</time></trkpt><trkpt lat="45.0551657" lon="11.9765463"><ele>0.0</ele><time>2026-04-15T10:26:57.207Z</time></trkpt><trkpt lat="45.0550017" lon="11.9764593"><ele>0.0</ele><time>2026-04-15T10:26:58.201Z</time></trkpt><trkpt lat="45.0548355" lon="11.9763634"><ele>0.6666666666666666</ele><time>2026-04-15T10:26:59.195Z</time></trkpt><trkpt lat="45.05466" lon="11.9762619"><ele>1.3333333333333333</ele><time>2026-04-15T10:27:00.225Z</time></trkpt><trkpt lat="45.0544838" lon="11.9761551"><ele>2.0</ele><time>2026-04-15T10:27:01.214Z</time></trkpt><trkpt lat="45.0543242" lon="11.9760363"><ele>2.0</ele><time>2026-04-15T10:27:02.206Z</time></trkpt><trkpt lat="45.0541683" lon="11.9758954"><ele>2.0</ele><time>2026-04-15T10:27:03.207Z</time></trkpt><trkpt lat="45.0540159" lon="11.9757061"><ele>2.0</ele><time>2026-04-15T10:27:04.207Z</time></trkpt><trkpt lat="45.0538584" lon="11.9754893"><ele>1.5</ele><time>2026-04-15T10:27:05.207Z</time></trkpt><trkpt lat="45.0536935" lon="11.9752505"><ele>1.0</ele><time>2026-04-15T10:27:06.203Z</time></trkpt><trkpt lat="45.0535222" lon="11.9750055"><ele>1.0</ele><time>2026-04-15T10:27:07.194Z</time></trkpt><trkpt lat="45.0533548" lon="11.974766"><ele>1.0</ele><time>2026-04-15T10:27:08.204Z</time></trkpt><trkpt lat="45.053198" lon="11.9745376"><ele>0.6666666666666666</ele><time>2026-04-15T10:27:09.215Z</time></trkpt><trkpt lat="45.05306" lon="11.9743137"><ele>0.3333333333333333</ele><time>2026-04-15T10:27:10.183Z</time></trkpt><trkpt lat="45.0529487" lon="11.9740782"><ele>0.0</ele><time>2026-04-15T10:27:11.215Z</time></trkpt><trkpt lat="45.0528653" lon="11.973812"><ele>0.6666666666666666</ele><time>2026-04-15T10:27:12.191Z</time></trkpt><trkpt lat="45.0528178" lon="11.9735166"><ele>1.3333333333333333</ele><time>2026-04-15T10:27:13.199Z</time></trkpt><trkpt lat="45.0527845" lon="11.973201"><ele>2.0</ele><time>2026-04-15T10:27:14.19Z</time></trkpt><trkpt lat="45.0527742" lon="11.9728827"><ele>2.0</ele><time>2026-04-15T10:27:15.207Z</time></trkpt><trkpt lat="45.0527723" lon="11.9725821"><ele>2.0</ele><time>2026-04-15T10:27:16.207Z</time></trkpt><trkpt lat="45.0527461" lon="11.9722875"><ele>2.0</ele><time>2026-04-15T10:27:17.192Z</time></trkpt><trkpt lat="45.0527003" lon="11.9719822"><ele>0.5</ele><time>2026-04-15T10:27:18.191Z</time></trkpt><trkpt lat="45.0526368" lon="11.9716588"><ele>-1.0</ele><time>2026-04-15T10:27:19.21Z</time></trkpt><trkpt lat="45.0525734" lon="11.9713421"><ele>-1.0</ele><time>2026-04-15T10:27:20.186Z</time></trkpt><trkpt lat="45.0525107" lon="11.9710276"><ele>-1.0</ele><time>2026-04-15T10:27:21.21Z</time></trkpt><trkpt lat="45.0524492" lon="11.9707316"><ele>-1.0</ele><time>2026-04-15T10:27:22.199Z</time></trkpt><trkpt lat="45.0523893" lon="11.9704509"><ele>-0.3333333333333333</ele><time>2026-04-15T10:27:23.203Z</time></trkpt><trkpt lat="45.0523343" lon="11.9701921"><ele>0.3333333333333333</ele><time>2026-04-15T10:27:24.178Z</time></trkpt><trkpt lat="45.0522713" lon="11.9699445"><ele>1.0</ele><time>2026-04-15T10:27:25.178Z</time></trkpt><trkpt lat="45.0521712" lon="11.96968"><ele>1.0</ele><time>2026-04-15T10:27:26.187Z</time></trkpt><trkpt lat="45.0520326" lon="11.9694358"><ele>1.0</ele><time>2026-04-15T10:27:27.202Z</time></trkpt><trkpt lat="45.0518694" lon="11.9692162"><ele>1.0</ele><time>2026-04-15T10:27:28.208Z</time></trkpt><trkpt lat="45.0516914" lon="11.9690069"><ele>0.0</ele><time>2026-04-15T10:27:29.197Z</time></trkpt><trkpt lat="45.0515034" lon="11.9687938"><ele>-1.0</ele><time>2026-04-15T10:27:30.213Z</time></trkpt><trkpt lat="45.0513024" lon="11.9685714"><ele>0.5</ele><time>2026-04-15T10:27:31.195Z</time></trkpt><trkpt lat="45.051098" lon="11.9683539"><ele>2.0</ele><time>2026-04-15T10:27:32.181Z</time></trkpt><trkpt lat="45.0508892" lon="11.9681324"><ele>1.5</ele><time>2026-04-15T10:27:33.193Z</time></trkpt><trkpt lat="45.0506854" lon="11.9679123"><ele>1.0</ele><time>2026-04-15T10:27:34.201Z</time></trkpt><trkpt lat="45.0504958" lon="11.9676973"><ele>1.0</ele><time>2026-04-15T10:27:35.213Z</time></trkpt><trkpt lat="45.0503225" lon="11.9674974"><ele>1.0</ele><time>2026-04-15T10:27:36.191Z</time></trkpt><trkpt lat="45.0501611" lon="11.967314"><ele>1.0</ele><time>2026-04-15T10:27:37.191Z</time></trkpt><trkpt lat="45.0500141" lon="11.9671589"><ele>0.6666666666666666</ele><time>2026-04-15T10:27:38.197Z</time></trkpt><trkpt lat="45.0498809" lon="11.9670266"><ele>0.3333333333333333</ele><time>2026-04-15T10:27:39.196Z</time></trkpt><trkpt lat="45.0497359" lon="11.9669074"><ele>0.0</ele><time>2026-04-15T10:27:40.214Z</time></trkpt><trkpt lat="45.0495718" lon="11.9667924"><ele>0.3333333333333333</ele><time>2026-04-15T10:27:41.212Z</time></trkpt><trkpt lat="45.0493953" lon="11.9666644"><ele>0.6666666666666666</ele><time>2026-04-15T10:27:42.209Z</time></trkpt><trkpt lat="45.0492114" lon="11.9665236"><ele>1.0</ele><time>2026-04-15T10:27:43.188Z</time></trkpt><trkpt lat="45.0490299" lon="11.9663911"><ele>0.3333333333333333</ele><time>2026-04-15T10:27:44.189Z</time></trkpt><trkpt lat="45.0488611" lon="11.9662605"><ele>-0.3333333333333333</ele><time>2026-04-15T10:27:45.198Z</time></trkpt><trkpt lat="45.0487103" lon="11.9661579"><ele>-1.0</ele><time>2026-04-15T10:27:46.204Z</time></trkpt><trkpt lat="45.0485751" lon="11.9660864"><ele>-1.0</ele><time>2026-04-15T10:27:47.196Z</time></trkpt><trkpt lat="45.0484242" lon="11.9660814"><ele>-1.0</ele><time>2026-04-15T10:27:48.199Z</time></trkpt><trkpt lat="45.048267" lon="11.966132"><ele>-1.0</ele><time>2026-04-15T10:27:49.19Z</time></trkpt><trkpt lat="45.0481123" lon="11.966188"><ele>-0.75</ele><time>2026-04-15T10:27:50.205Z</time></trkpt><trkpt lat="45.0479691" lon="11.9662248"><ele>-0.5</ele><time>2026-04-15T10:27:51.185Z</time></trkpt><trkpt lat="45.0478345" lon="11.966219"><ele>-0.25</ele><time>2026-04-15T10:27:52.213Z</time></trkpt><trkpt lat="45.0477123" lon="11.9661753"><ele>0.0</ele><time>2026-04-15T10:27:53.181Z</time></trkpt><trkpt lat="45.0476002" lon="11.9660729"><ele>0.0</ele><time>2026-04-15T10:27:54.199Z</time></trkpt><trkpt lat="45.0475181" lon="11.9659275"><ele>0.0</ele><time>2026-04-15T10:27:55.194Z</time></trkpt><trkpt lat="45.047444" lon="11.9657586"><ele>0.0</ele><time>2026-04-15T10:27:56.208Z</time></trkpt><trkpt lat="45.0473502" lon="11.9655653"><ele>0.0</ele><time>2026-04-15T10:27:57.194Z</time></trkpt><trkpt lat="45.0472312" lon="11.9653488"><ele>0.0</ele><time>2026-04-15T10:27:58.196Z</time></trkpt><trkpt lat="45.0471131" lon="11.9651284"><ele>0.0</ele><time>2026-04-15T10:27:59.2Z</time></trkpt><trkpt lat="45.0470145" lon="11.9649154"><ele>0.0</ele><time>2026-04-15T10:28:00.198Z</time></trkpt><trkpt lat="45.0469563" lon="11.9647044"><ele>0.0</ele><time>2026-04-15T10:28:01.192Z</time></trkpt><trkpt lat="45.046944" lon="11.9644738"><ele>0.0</ele><time>2026-04-15T10:28:02.188Z</time></trkpt><trkpt lat="45.0469709" lon="11.9642287"><ele>0.0</ele><time>2026-04-15T10:28:03.191Z</time></trkpt><trkpt lat="45.0470235" lon="11.9639568"><ele>0.0</ele><time>2026-04-15T10:28:04.194Z</time></trkpt><trkpt lat="45.0470828" lon="11.9636639"><ele>0.0</ele><time>2026-04-15T10:28:05.19Z</time></trkpt><trkpt lat="45.0471512" lon="11.9633617"><ele>0.0</ele><time>2026-04-15T10:28:06.197Z</time></trkpt><trkpt lat="45.0472127" lon="11.9630472"><ele>-0.3333333333333333</ele><time>2026-04-15T10:28:07.196Z</time></trkpt><trkpt lat="45.047282" lon="11.962752"><ele>-0.6666666666666666</ele><time>2026-04-15T10:28:08.185Z</time></trkpt><trkpt lat="45.0473666" lon="11.9624774"><ele>-1.0</ele><time>2026-04-15T10:28:09.19Z</time></trkpt><trkpt lat="45.0474832" lon="11.9622241"><ele>-0.6666666666666666</ele><time>2026-04-15T10:28:10.196Z</time></trkpt><trkpt lat="45.0476231" lon="11.9619969"><ele>-0.3333333333333333</ele><time>2026-04-15T10:28:11.199Z</time></trkpt><trkpt lat="45.0477902" lon="11.9617869"><ele>0.0</ele><time>2026-04-15T10:28:12.182Z</time></trkpt><trkpt lat="45.047968" lon="11.9615808"><ele>0.0</ele><time>2026-04-15T10:28:13.188Z</time></trkpt><trkpt lat="45.0481575" lon="11.9613536"><ele>0.0</ele><time>2026-04-15T10:28:14.206Z</time></trkpt><trkpt lat="45.0483482" lon="11.9611216"><ele>0.0</ele><time>2026-04-15T10:28:15.178Z</time></trkpt><trkpt lat="45.0485357" lon="11.9608984"><ele>0.0</ele><time>2026-04-15T10:28:16.191Z</time></trkpt><trkpt lat="45.0487139" lon="11.9606859"><ele>0.0</ele><time>2026-04-15T10:28:17.188Z</time></trkpt><trkpt lat="45.0488749" lon="11.9604838"><ele>0.0</ele><time>2026-04-15T10:28:18.191Z</time></trkpt><trkpt lat="45.0490221" lon="11.9602697"><ele>0.0</ele><time>2026-04-15T10:28:19.189Z</time></trkpt><trkpt lat="45.0491553" lon="11.9600427"><ele>0.3333333333333333</ele><time>2026-04-15T10:28:20.194Z</time></trkpt><trkpt lat="45.0492909" lon="11.9598142"><ele>0.6666666666666666</ele><time>2026-04-15T10:28:21.187Z</time></trkpt><trkpt lat="45.0494367" lon="11.9595984"><ele>1.0</ele><time>2026-04-15T10:28:22.189Z</time></trkpt><trkpt lat="45.0496" lon="11.9594078"><ele>1.0</ele><time>2026-04-15T10:28:23.182Z</time></trkpt><trkpt lat="45.0497687" lon="11.9592287"><ele>1.0</ele><time>2026-04-15T10:28:24.179Z</time></trkpt><trkpt lat="45.0499303" lon="11.9590672"><ele>1.0</ele><time>2026-04-15T10:28:25.205Z</time></trkpt><trkpt lat="45.0500681" lon="11.9589168"><ele>1.0</ele><time>2026-04-15T10:28:26.191Z</time></trkpt><trkpt lat="45.0501892" lon="11.9587617"><ele>1.0</ele><time>2026-04-15T10:28:27.188Z</time></trkpt><trkpt lat="45.0503041" lon="11.958567"><ele>1.0</ele><time>2026-04-15T10:28:28.187Z</time></trkpt><trkpt lat="45.0504104" lon="11.9583259"><ele>1.0</ele><time>2026-04-15T10:28:29.197Z</time></trkpt><trkpt lat="45.0505293" lon="11.9580593"><ele>1.0</ele><time>2026-04-15T10:28:30.191Z</time></trkpt><trkpt lat="45.0506395" lon="11.957777"><ele>0.5</ele><time>2026-04-15T10:28:31.191Z</time></trkpt><trkpt lat="45.0507536" lon="11.9574809"><ele>0.0</ele><time>2026-04-15T10:28:32.19Z</time></trkpt><trkpt lat="45.0508721" lon="11.9571736"><ele>0.0</ele><time>2026-04-15T10:28:33.18Z</time></trkpt><trkpt lat="45.0509922" lon="11.9568574"><ele>0.0</ele><time>2026-04-15T10:28:34.202Z</time></trkpt><trkpt lat="45.0511171" lon="11.9565404"><ele>0.5</ele><time>2026-04-15T10:28:35.195Z</time></trkpt><trkpt lat="45.0512465" lon="11.9562302"><ele>1.0</ele><time>2026-04-15T10:28:36.191Z</time></trkpt><trkpt lat="45.0513798" lon="11.9559388"><ele>1.0</ele><time>2026-04-15T10:28:37.2Z</time></trkpt><trkpt lat="45.0515075" lon="11.9556582"><ele>1.0</ele><time>2026-04-15T10:28:38.215Z</time></trkpt><trkpt lat="45.0516259" lon="11.9553634"><ele>0.5</ele><time>2026-04-15T10:28:39.189Z</time></trkpt><trkpt lat="45.0517377" lon="11.9550574"><ele>0.0</ele><time>2026-04-15T10:28:40.198Z</time></trkpt><trkpt lat="45.0518382" lon="11.9547653"><ele>-0.3333333333333333</ele><time>2026-04-15T10:28:41.193Z</time></trkpt><trkpt lat="45.0519374" lon="11.9544809"><ele>-0.6666666666666666</ele><time>2026-04-15T10:28:42.173Z</time></trkpt><trkpt lat="45.0520336" lon="11.9542012"><ele>-1.0</ele><time>2026-04-15T10:28:43.198Z</time></trkpt><trkpt lat="45.0521216" lon="11.9539248"><ele>-0.3333333333333333</ele><time>2026-04-15T10:28:44.187Z</time></trkpt><trkpt lat="45.052198" lon="11.9536472"><ele>0.3333333333333333</ele><time>2026-04-15T10:28:45.206Z</time></trkpt><trkpt lat="45.0522457" lon="11.9533591"><ele>1.0</ele><time>2026-04-15T10:28:46.205Z</time></trkpt><trkpt lat="45.052265" lon="11.9530459"><ele>1.0</ele><time>2026-04-15T10:28:47.187Z</time></trkpt><trkpt lat="45.0522543" lon="11.9527181"><ele>1.0</ele><time>2026-04-15T10:28:48.19Z</time></trkpt><trkpt lat="45.0522292" lon="11.9523695"><ele>1.0</ele><time>2026-04-15T10:28:49.187Z</time></trkpt><trkpt lat="45.0521871" lon="11.9520158"><ele>1.0</ele><time>2026-04-15T10:28:50.188Z</time></trkpt><trkpt lat="45.0521336" lon="11.951658"><ele>1.0</ele><time>2026-04-15T10:28:51.189Z</time></trkpt><trkpt lat="45.0520777" lon="11.9512917"><ele>1.0</ele><time>2026-04-15T10:28:52.181Z</time></trkpt><trkpt lat="45.0520218" lon="11.9509217"><ele>1.0</ele><time>2026-04-15T10:28:53.176Z</time></trkpt><trkpt lat="45.0519677" lon="11.9505472"><ele>1.0</ele><time>2026-04-15T10:28:54.183Z</time></trkpt><trkpt lat="45.0519142" lon="11.9501735"><ele>1.5</ele><time>2026-04-15T10:28:55.189Z</time></trkpt><trkpt lat="45.0518638" lon="11.9498027"><ele>2.0</ele><time>2026-04-15T10:28:56.174Z</time></trkpt><trkpt lat="45.0518159" lon="11.9494552"><ele>1.6666666666666665</ele><time>2026-04-15T10:28:57.184Z</time></trkpt><trkpt lat="45.0517699" lon="11.9491352"><ele>1.3333333333333333</ele><time>2026-04-15T10:28:58.194Z</time></trkpt><trkpt lat="45.0517205" lon="11.9488369"><ele>1.0</ele><time>2026-04-15T10:28:59.205Z</time></trkpt><trkpt lat="45.0516563" lon="11.9485535"><ele>1.0</ele><time>2026-04-15T10:29:00.175Z</time></trkpt><trkpt lat="45.0515644" lon="11.9482705"><ele>1.0</ele><time>2026-04-15T10:29:01.189Z</time></trkpt><trkpt lat="45.0514437" lon="11.9479751"><ele>1.0</ele><time>2026-04-15T10:29:02.176Z</time></trkpt><trkpt lat="45.0513087" lon="11.9476767"><ele>1.0</ele><time>2026-04-15T10:29:03.185Z</time></trkpt><trkpt lat="45.051166" lon="11.9473585"><ele>1.0</ele><time>2026-04-15T10:29:04.178Z</time></trkpt><trkpt lat="45.0510296" lon="11.9470403"><ele>1.0</ele><time>2026-04-15T10:29:05.188Z</time></trkpt><trkpt lat="45.0508908" lon="11.9467146"><ele>1.5</ele><time>2026-04-15T10:29:06.193Z</time></trkpt><trkpt lat="45.0507539" lon="11.9463975"><ele>2.0</ele><time>2026-04-15T10:29:07.177Z</time></trkpt><trkpt lat="45.0506127" lon="11.9460764"><ele>2.5</ele><time>2026-04-15T10:29:08.194Z</time></trkpt><trkpt lat="45.0504669" lon="11.9457566"><ele>3.0</ele><time>2026-04-15T10:29:09.178Z</time></trkpt><trkpt lat="45.0503259" lon="11.9454401"><ele>2.0</ele><time>2026-04-15T10:29:10.186Z</time></trkpt><trkpt lat="45.0500538" lon="11.9448076"><ele>2.0</ele><time>2026-04-15T10:29:12.193Z</time></trkpt><trkpt lat="45.0499175" lon="11.9444929"><ele>2.0</ele><time>2026-04-15T10:29:13.19Z</time></trkpt><trkpt lat="45.0497796" lon="11.9441734"><ele>1.5</ele><time>2026-04-15T10:29:14.199Z</time></trkpt><trkpt lat="45.04964" lon="11.9438556"><ele>1.0</ele><time>2026-04-15T10:29:15.191Z</time></trkpt><trkpt lat="45.0495083" lon="11.94355"><ele>1.0</ele><time>2026-04-15T10:29:16.182Z</time></trkpt><trkpt lat="45.0493836" lon="11.9432592"><ele>1.0</ele><time>2026-04-15T10:29:17.186Z</time></trkpt><trkpt lat="45.0492655" lon="11.9429928"><ele>1.0</ele><time>2026-04-15T10:29:18.172Z</time></trkpt><trkpt lat="45.049156" lon="11.9427444"><ele>1.0</ele><time>2026-04-15T10:29:19.181Z</time></trkpt><trkpt lat="45.04906" lon="11.9425"><ele>1.0</ele><time>2026-04-15T10:29:20.186Z</time></trkpt><trkpt lat="45.0489758" lon="11.9422371"><ele>1.3333333333333333</ele><time>2026-04-15T10:29:21.175Z</time></trkpt><trkpt lat="45.0489157" lon="11.9419571"><ele>1.6666666666666665</ele><time>2026-04-15T10:29:22.186Z</time></trkpt><trkpt lat="45.0488722" lon="11.9416672"><ele>2.0</ele><time>2026-04-15T10:29:23.187Z</time></trkpt><trkpt lat="45.0488413" lon="11.9413836"><ele>2.0</ele><time>2026-04-15T10:29:24.187Z</time></trkpt><trkpt lat="45.0487939" lon="11.9411038"><ele>2.0</ele><time>2026-04-15T10:29:25.189Z</time></trkpt><trkpt lat="45.0487343" lon="11.9408548"><ele>2.0</ele><time>2026-04-15T10:29:26.184Z</time></trkpt><trkpt lat="45.0486653" lon="11.94061"><ele>2.0</ele><time>2026-04-15T10:29:27.186Z</time></trkpt><trkpt lat="45.0486037" lon="11.9403853"><ele>2.0</ele><time>2026-04-15T10:29:28.176Z</time></trkpt><trkpt lat="45.0485386" lon="11.940165"><ele>2.0</ele><time>2026-04-15T10:29:29.186Z</time></trkpt><trkpt lat="45.0484683" lon="11.9399528"><ele>2.0</ele><time>2026-04-15T10:29:30.178Z</time></trkpt><trkpt lat="45.0483934" lon="11.9397489"><ele>2.0</ele><time>2026-04-15T10:29:31.189Z</time></trkpt><trkpt lat="45.0483109" lon="11.9395575"><ele>2.0</ele><time>2026-04-15T10:29:32.187Z</time></trkpt><trkpt lat="45.0482319" lon="11.9394073"><ele>1.8</ele><time>2026-04-15T10:29:33.192Z</time></trkpt><trkpt lat="45.0481483" lon="11.9393053"><ele>1.6</ele><time>2026-04-15T10:29:34.189Z</time></trkpt><trkpt lat="45.0480511" lon="11.9392474"><ele>1.4000000000000001</ele><time>2026-04-15T10:29:35.195Z</time></trkpt><trkpt lat="45.04794" lon="11.9392565"><ele>1.2000000000000002</ele><time>2026-04-15T10:29:36.173Z</time></trkpt><trkpt lat="45.0478347" lon="11.9393094"><ele>1.0</ele><time>2026-04-15T10:29:37.17Z</time></trkpt><trkpt lat="45.0477175" lon="11.9393773"><ele>1.0</ele><time>2026-04-15T10:29:38.183Z</time></trkpt><trkpt lat="45.0475951" lon="11.9394352"><ele>1.0</ele><time>2026-04-15T10:29:39.185Z</time></trkpt><trkpt lat="45.0474681" lon="11.9394819"><ele>1.0</ele><time>2026-04-15T10:29:40.188Z</time></trkpt><trkpt lat="45.0473448" lon="11.9394975"><ele>1.0</ele><time>2026-04-15T10:29:41.175Z</time></trkpt><trkpt lat="45.0472212" lon="11.9394741"><ele>0.75</ele><time>2026-04-15T10:29:42.196Z</time></trkpt><trkpt lat="45.0471151" lon="11.9393876"><ele>0.5</ele><time>2026-04-15T10:29:43.179Z</time></trkpt><trkpt lat="45.0470306" lon="11.9392624"><ele>0.25</ele><time>2026-04-15T10:29:44.175Z</time></trkpt><trkpt lat="45.0469732" lon="11.9390853"><ele>0.0</ele><time>2026-04-15T10:29:45.177Z</time></trkpt><trkpt lat="45.0469221" lon="11.9388997"><ele>0.6666666666666666</ele><time>2026-04-15T10:29:46.193Z</time></trkpt><trkpt lat="45.0468817" lon="11.9386942"><ele>1.3333333333333333</ele><time>2026-04-15T10:29:47.189Z</time></trkpt><trkpt lat="45.0468567" lon="11.9384624"><ele>2.0</ele><time>2026-04-15T10:29:48.193Z</time></trkpt><trkpt lat="45.0468361" lon="11.9382281"><ele>2.0</ele><time>2026-04-15T10:29:49.186Z</time></trkpt><trkpt lat="45.046812" lon="11.9379904"><ele>2.0</ele><time>2026-04-15T10:29:50.18Z</time></trkpt><trkpt lat="45.0467929" lon="11.9377469"><ele>2.0</ele><time>2026-04-15T10:29:51.189Z</time></trkpt><trkpt lat="45.0467929" lon="11.9375074"><ele>2.0</ele><time>2026-04-15T10:29:52.179Z</time></trkpt><trkpt lat="45.0468022" lon="11.9372778"><ele>2.0</ele><time>2026-04-15T10:29:53.18Z</time></trkpt><trkpt lat="45.0468142" lon="11.9370566"><ele>2.0</ele><time>2026-04-15T10:29:54.186Z</time></trkpt><trkpt lat="45.0468215" lon="11.9368625"><ele>2.0</ele><time>2026-04-15T10:29:55.191Z</time></trkpt><trkpt lat="45.0468099" lon="11.9367024"><ele>2.0</ele><time>2026-04-15T10:29:56.176Z</time></trkpt><trkpt lat="45.0467755" lon="11.9365582"><ele>2.0</ele><time>2026-04-15T10:29:57.192Z</time></trkpt><trkpt lat="45.0467051" lon="11.9364029"><ele>2.0</ele><time>2026-04-15T10:29:58.189Z</time></trkpt><trkpt lat="45.0466159" lon="11.9362391"><ele>2.0</ele><time>2026-04-15T10:29:59.187Z</time></trkpt><trkpt lat="45.046531" lon="11.93609"><ele>2.0</ele><time>2026-04-15T10:30:00.197Z</time></trkpt><trkpt lat="45.0464438" lon="11.9359424"><ele>2.0</ele><time>2026-04-15T10:30:01.194Z</time></trkpt><trkpt lat="45.0463606" lon="11.9358002"><ele>2.0</ele><time>2026-04-15T10:30:02.196Z</time></trkpt><trkpt lat="45.0462894" lon="11.9356553"><ele>2.0</ele><time>2026-04-15T10:30:03.183Z</time></trkpt><trkpt lat="45.0462267" lon="11.9354937"><ele>2.0</ele><time>2026-04-15T10:30:04.191Z</time></trkpt><trkpt lat="45.0461719" lon="11.935311"><ele>2.0</ele><time>2026-04-15T10:30:05.179Z</time></trkpt><trkpt lat="45.0461088" lon="11.9351356"><ele>2.0</ele><time>2026-04-15T10:30:06.177Z</time></trkpt><trkpt lat="45.0460276" lon="11.9349752"><ele>2.333333333333333</ele><time>2026-04-15T10:30:07.181Z</time></trkpt><trkpt lat="45.0459173" lon="11.9348409"><ele>2.6666666666666665</ele><time>2026-04-15T10:30:08.181Z</time></trkpt><trkpt lat="45.045768" lon="11.9347397"><ele>3.0</ele><time>2026-04-15T10:30:09.19Z</time></trkpt><trkpt lat="45.0456164" lon="11.9346365"><ele>3.0</ele><time>2026-04-15T10:30:10.173Z</time></trkpt><trkpt lat="45.0454744" lon="11.9345019"><ele>3.0</ele><time>2026-04-15T10:30:11.176Z</time></trkpt><trkpt lat="45.045349" lon="11.9343478"><ele>3.0</ele><time>2026-04-15T10:30:12.189Z</time></trkpt><trkpt lat="45.0452253" lon="11.9341922"><ele>2.6666666666666665</ele><time>2026-04-15T10:30:13.176Z</time></trkpt><trkpt lat="45.0451099" lon="11.9340205"><ele>2.333333333333333</ele><time>2026-04-15T10:30:14.191Z</time></trkpt><trkpt lat="45.0449888" lon="11.9338547"><ele>2.0</ele><time>2026-04-15T10:30:15.18Z</time></trkpt><trkpt lat="45.0448745" lon="11.9336864"><ele>1.6666666666666665</ele><time>2026-04-15T10:30:16.185Z</time></trkpt><trkpt lat="45.0447548" lon="11.9335127"><ele>1.3333333333333333</ele><time>2026-04-15T10:30:17.175Z</time></trkpt><trkpt lat="45.0446383" lon="11.9333544"><ele>1.0</ele><time>2026-04-15T10:30:18.183Z</time></trkpt><trkpt lat="45.0445204" lon="11.933193"><ele>1.0</ele><time>2026-04-15T10:30:19.183Z</time></trkpt><trkpt lat="45.0443932" lon="11.933047"><ele>1.0</ele><time>2026-04-15T10:30:20.182Z</time></trkpt><trkpt lat="45.0442554" lon="11.9329134"><ele>1.0</ele><time>2026-04-15T10:30:21.185Z</time></trkpt><trkpt lat="45.0441118" lon="11.9327856"><ele>1.0</ele><time>2026-04-15T10:30:22.175Z</time></trkpt><trkpt lat="45.0439709" lon="11.9326674"><ele>1.0</ele><time>2026-04-15T10:30:23.188Z</time></trkpt><trkpt lat="45.0438398" lon="11.9325473"><ele>1.0</ele><time>2026-04-15T10:30:24.168Z</time></trkpt><trkpt lat="45.0437341" lon="11.932411"><ele>1.25</ele><time>2026-04-15T10:30:25.166Z</time></trkpt><trkpt lat="45.0436565" lon="11.9322546"><ele>1.5</ele><time>2026-04-15T10:30:26.187Z</time></trkpt><trkpt lat="45.043612" lon="11.9320724"><ele>1.75</ele><time>2026-04-15T10:30:27.182Z</time></trkpt><trkpt lat="45.0435869" lon="11.9318836"><ele>2.0</ele><time>2026-04-15T10:30:28.173Z</time></trkpt><trkpt lat="45.0435648" lon="11.9316845"><ele>2.25</ele><time>2026-04-15T10:30:29.185Z</time></trkpt><trkpt lat="45.0435493" lon="11.9314797"><ele>2.5</ele><time>2026-04-15T10:30:30.18Z</time></trkpt><trkpt lat="45.0435335" lon="11.9312735"><ele>2.75</ele><time>2026-04-15T10:30:31.185Z</time></trkpt><trkpt lat="45.0435052" lon="11.9310754"><ele>3.0</ele><time>2026-04-15T10:30:32.186Z</time></trkpt><trkpt lat="45.0434698" lon="11.9308736"><ele>3.333333333333333</ele><time>2026-04-15T10:30:33.171Z</time></trkpt><trkpt lat="45.0434166" lon="11.9306762"><ele>3.6666666666666665</ele><time>2026-04-15T10:30:34.19Z</time></trkpt><trkpt lat="45.0433468" lon="11.9304669"><ele>4.0</ele><time>2026-04-15T10:30:35.186Z</time></trkpt><trkpt lat="45.0432639" lon="11.930248"><ele>3.0</ele><time>2026-04-15T10:30:36.191Z</time></trkpt><trkpt lat="45.0431759" lon="11.9300236"><ele>2.0</ele><time>2026-04-15T10:30:37.189Z</time></trkpt><trkpt lat="45.0430917" lon="11.9297976"><ele>1.0</ele><time>2026-04-15T10:30:38.183Z</time></trkpt><trkpt lat="45.043011" lon="11.9295844"><ele>1.0</ele><time>2026-04-15T10:30:39.179Z</time></trkpt><trkpt lat="45.0429384" lon="11.9293748"><ele>1.0</ele><time>2026-04-15T10:30:40.185Z</time></trkpt><trkpt lat="45.0428698" lon="11.9291703"><ele>1.0</ele><time>2026-04-15T10:30:41.183Z</time></trkpt><trkpt lat="45.042804" lon="11.9289669"><ele>1.25</ele><time>2026-04-15T10:30:42.182Z</time></trkpt><trkpt lat="45.0427395" lon="11.9287675"><ele>1.5</ele><time>2026-04-15T10:30:43.188Z</time></trkpt><trkpt lat="45.0426755" lon="11.9285749"><ele>1.75</ele><time>2026-04-15T10:30:44.175Z</time></trkpt><trkpt lat="45.0426196" lon="11.9284046"><ele>2.0</ele><time>2026-04-15T10:30:45.183Z</time></trkpt><trkpt lat="45.0425685" lon="11.92824"><ele>2.5</ele><time>2026-04-15T10:30:46.172Z</time></trkpt><trkpt lat="45.0425198" lon="11.9280804"><ele>3.0</ele><time>2026-04-15T10:30:47.185Z</time></trkpt><trkpt lat="45.0424673" lon="11.9279215"><ele>3.5</ele><time>2026-04-15T10:30:48.173Z</time></trkpt><trkpt lat="45.042411" lon="11.9277607"><ele>4.0</ele><time>2026-04-15T10:30:49.185Z</time></trkpt><trkpt lat="45.0423516" lon="11.9275945"><ele>3.25</ele><time>2026-04-15T10:30:50.183Z</time></trkpt><trkpt lat="45.0422908" lon="11.9274173"><ele>2.5</ele><time>2026-04-15T10:30:51.18Z</time></trkpt><trkpt lat="45.0422265" lon="11.9272405"><ele>1.75</ele><time>2026-04-15T10:30:52.169Z</time></trkpt><trkpt lat="45.0421593" lon="11.927059"><ele>1.0</ele><time>2026-04-15T10:30:53.195Z</time></trkpt><trkpt lat="45.0420945" lon="11.9268714"><ele>1.0</ele><time>2026-04-15T10:30:54.192Z</time></trkpt><trkpt lat="45.0420413" lon="11.9266752"><ele>1.0</ele><time>2026-04-15T10:30:55.178Z</time></trkpt><trkpt lat="45.0420008" lon="11.9264692"><ele>1.0</ele><time>2026-04-15T10:30:56.174Z</time></trkpt><trkpt lat="45.0419658" lon="11.9262681"><ele>1.0</ele><time>2026-04-15T10:30:57.16Z</time></trkpt><trkpt lat="45.0419334" lon="11.9260691"><ele>1.25</ele><time>2026-04-15T10:30:58.186Z</time></trkpt><trkpt lat="45.0419095" lon="11.9258686"><ele>1.5</ele><time>2026-04-15T10:30:59.189Z</time></trkpt><trkpt lat="45.0418974" lon="11.9256677"><ele>1.75</ele><time>2026-04-15T10:31:00.166Z</time></trkpt><trkpt lat="45.0418876" lon="11.9254746"><ele>2.0</ele><time>2026-04-15T10:31:01.176Z</time></trkpt><trkpt lat="45.041884" lon="11.9252839"><ele>2.0</ele><time>2026-04-15T10:31:02.173Z</time></trkpt><trkpt lat="45.0418806" lon="11.9250878"><ele>2.0</ele><time>2026-04-15T10:31:03.181Z</time></trkpt><trkpt lat="45.041881" lon="11.924887"><ele>2.0</ele><time>2026-04-15T10:31:04.178Z</time></trkpt><trkpt lat="45.0418772" lon="11.9246794"><ele>2.0</ele><time>2026-04-15T10:31:05.179Z</time></trkpt><trkpt lat="45.041866" lon="11.924467"><ele>2.0</ele><time>2026-04-15T10:31:06.187Z</time></trkpt><trkpt lat="45.0418505" lon="11.9242415"><ele>2.0</ele><time>2026-04-15T10:31:07.18Z</time></trkpt><trkpt lat="45.0418311" lon="11.9240142"><ele>2.0</ele><time>2026-04-15T10:31:08.17Z</time></trkpt><trkpt lat="45.0418062" lon="11.9237682"><ele>2.333333333333333</ele><time>2026-04-15T10:31:09.184Z</time></trkpt><trkpt lat="45.0417811" lon="11.9235159"><ele>2.6666666666666665</ele><time>2026-04-15T10:31:10.18Z</time></trkpt><trkpt lat="45.0417537" lon="11.9232573"><ele>3.0</ele><time>2026-04-15T10:31:11.186Z</time></trkpt><trkpt lat="45.041731" lon="11.922993"><ele>3.0</ele><time>2026-04-15T10:31:12.175Z</time></trkpt><trkpt lat="45.041709" lon="11.9227321"><ele>3.0</ele><time>2026-04-15T10:31:13.189Z</time></trkpt><trkpt lat="45.0416905" lon="11.9224708"><ele>3.0</ele><time>2026-04-15T10:31:14.171Z</time></trkpt><trkpt lat="45.041672" lon="11.9222103"><ele>3.0</ele><time>2026-04-15T10:31:15.185Z</time></trkpt><trkpt lat="45.0416491" lon="11.9219488"><ele>3.0</ele><time>2026-04-15T10:31:16.171Z</time></trkpt><trkpt lat="45.0416242" lon="11.9216853"><ele>3.0</ele><time>2026-04-15T10:31:17.176Z</time></trkpt><trkpt lat="45.0415992" lon="11.9214271"><ele>2.3333333333333335</ele><time>2026-04-15T10:31:18.179Z</time></trkpt><trkpt lat="45.041574" lon="11.9211753"><ele>1.6666666666666665</ele><time>2026-04-15T10:31:19.178Z</time></trkpt><trkpt lat="45.0415482" lon="11.9209231"><ele>1.0</ele><time>2026-04-15T10:31:20.168Z</time></trkpt><trkpt lat="45.0415206" lon="11.9206623"><ele>1.0</ele><time>2026-04-15T10:31:21.162Z</time></trkpt><trkpt lat="45.0415053" lon="11.9204017"><ele>1.0</ele><time>2026-04-15T10:31:22.166Z</time></trkpt><trkpt lat="45.0415043" lon="11.9201406"><ele>1.0</ele><time>2026-04-15T10:31:23.184Z</time></trkpt><trkpt lat="45.0415076" lon="11.919875"><ele>1.0</ele><time>2026-04-15T10:31:24.172Z</time></trkpt><trkpt lat="45.0415232" lon="11.9196136"><ele>1.0</ele><time>2026-04-15T10:31:25.165Z</time></trkpt><trkpt lat="45.0415365" lon="11.9193552"><ele>1.0</ele><time>2026-04-15T10:31:26.169Z</time></trkpt><trkpt lat="45.0415522" lon="11.9190977"><ele>2.0</ele><time>2026-04-15T10:31:27.167Z</time></trkpt><trkpt lat="45.0415652" lon="11.9188473"><ele>3.0</ele><time>2026-04-15T10:31:28.16Z</time></trkpt><trkpt lat="45.0415764" lon="11.9186139"><ele>4.0</ele><time>2026-04-15T10:31:29.173Z</time></trkpt><trkpt lat="45.0415839" lon="11.9184106"><ele>3.5</ele><time>2026-04-15T10:31:30.175Z</time></trkpt><trkpt lat="45.0415923" lon="11.9182271"><ele>3.0</ele><time>2026-04-15T10:31:31.186Z</time></trkpt><trkpt lat="45.0416015" lon="11.9180425"><ele>2.5</ele><time>2026-04-15T10:31:32.169Z</time></trkpt><trkpt lat="45.0416124" lon="11.917855"><ele>2.0</ele><time>2026-04-15T10:31:33.181Z</time></trkpt><trkpt lat="45.0416254" lon="11.917664"><ele>2.2</ele><time>2026-04-15T10:31:34.188Z</time></trkpt><trkpt lat="45.0416312" lon="11.9174811"><ele>2.4000000000000004</ele><time>2026-04-15T10:31:35.182Z</time></trkpt><trkpt lat="45.0416239" lon="11.9173198"><ele>2.5999999999999996</ele><time>2026-04-15T10:31:36.195Z</time></trkpt><trkpt lat="45.0416069" lon="11.9171774"><ele>2.8</ele><time>2026-04-15T10:31:37.181Z</time></trkpt><trkpt lat="45.0415997" lon="11.9170551"><ele>3.0</ele><time>2026-04-15T10:31:38.175Z</time></trkpt><trkpt lat="45.0415993" lon="11.9169397"><ele>3.0</ele><time>2026-04-15T10:31:39.17Z</time></trkpt><trkpt lat="45.0415688" lon="11.9168392"><ele>3.0</ele><time>2026-04-15T10:31:40.169Z</time></trkpt><trkpt lat="45.0415023" lon="11.9167984"><ele>3.0</ele><time>2026-04-15T10:31:41.169Z</time></trkpt><trkpt lat="45.0414202" lon="11.9167981"><ele>3.0</ele><time>2026-04-15T10:31:42.18Z</time></trkpt><trkpt lat="45.0413089" lon="11.9168236"><ele>3.0</ele><time>2026-04-15T10:31:43.171Z</time></trkpt><trkpt lat="45.0411751" lon="11.9168036"><ele>3.0</ele><time>2026-04-15T10:31:44.172Z</time></trkpt><trkpt lat="45.0410257" lon="11.9167426"><ele>3.0</ele><time>2026-04-15T10:31:45.181Z</time></trkpt><trkpt lat="45.0408706" lon="11.916676"><ele>3.0</ele><time>2026-04-15T10:31:46.175Z</time></trkpt><trkpt lat="45.0407068" lon="11.91663"><ele>2.6666666666666665</ele><time>2026-04-15T10:31:47.183Z</time></trkpt><trkpt lat="45.0405378" lon="11.9165953"><ele>2.333333333333333</ele><time>2026-04-15T10:31:48.179Z</time></trkpt><trkpt lat="45.0403673" lon="11.9165501"><ele>2.0</ele><time>2026-04-15T10:31:49.18Z</time></trkpt><trkpt lat="45.0401875" lon="11.9164931"><ele>2.0</ele><time>2026-04-15T10:31:50.183Z</time></trkpt><trkpt lat="45.0400054" lon="11.9164305"><ele>2.0</ele><time>2026-04-15T10:31:51.176Z</time></trkpt><trkpt lat="45.0398202" lon="11.9163681"><ele>2.0</ele><time>2026-04-15T10:31:52.203Z</time></trkpt><trkpt lat="45.0396372" lon="11.9163078"><ele>1.6666666666666665</ele><time>2026-04-15T10:31:53.188Z</time></trkpt><trkpt lat="45.0394548" lon="11.9162426"><ele>1.3333333333333333</ele><time>2026-04-15T10:31:54.172Z</time></trkpt><trkpt lat="45.039274" lon="11.9161803"><ele>1.0</ele><time>2026-04-15T10:31:55.185Z</time></trkpt><trkpt lat="45.0390966" lon="11.9161196"><ele>1.0</ele><time>2026-04-15T10:31:56.169Z</time></trkpt><trkpt lat="45.0389277" lon="11.9160587"><ele>1.0</ele><time>2026-04-15T10:31:57.159Z</time></trkpt><trkpt lat="45.0387664" lon="11.9159952"><ele>1.0</ele><time>2026-04-15T10:31:58.174Z</time></trkpt><trkpt lat="45.038609" lon="11.9159345"><ele>1.3333333333333333</ele><time>2026-04-15T10:31:59.183Z</time></trkpt><trkpt lat="45.0384506" lon="11.9158783"><ele>1.6666666666666665</ele><time>2026-04-15T10:32:00.17Z</time></trkpt><trkpt lat="45.0382953" lon="11.915827"><ele>2.0</ele><time>2026-04-15T10:32:01.209Z</time></trkpt><trkpt lat="45.0381392" lon="11.9157757"><ele>2.0</ele><time>2026-04-15T10:32:02.171Z</time></trkpt><trkpt lat="45.0379869" lon="11.9157218"><ele>2.0</ele><time>2026-04-15T10:32:03.175Z</time></trkpt><trkpt lat="45.0378573" lon="11.9156606"><ele>2.0</ele><time>2026-04-15T10:32:04.197Z</time></trkpt><trkpt lat="45.0377526" lon="11.9155978"><ele>2.0</ele><time>2026-04-15T10:32:05.195Z</time></trkpt><trkpt lat="45.037672" lon="11.9155535"><ele>1.9999999999999998</ele><time>2026-04-15T10:32:06.224Z</time></trkpt><trkpt lat="45.0375976" lon="11.9155276"><ele>2.0</ele><time>2026-04-15T10:32:08.189Z</time></trkpt><trkpt lat="45.0375027" lon="11.9154744"><ele>2.0</ele><time>2026-04-15T10:32:13.181Z</time></trkpt><trkpt lat="45.0374008" lon="11.9154343"><ele>2.0</ele><time>2026-04-15T10:32:15.2Z</time></trkpt><trkpt lat="45.0373315" lon="11.9154083"><ele>1.9999999999999998</ele><time>2026-04-15T10:32:16.175Z</time></trkpt><trkpt lat="45.0372533" lon="11.9153787"><ele>2.0</ele><time>2026-04-15T10:32:17.172Z</time></trkpt><trkpt lat="45.0371734" lon="11.915351"><ele>2.4000000000000004</ele><time>2026-04-15T10:32:18.172Z</time></trkpt><trkpt lat="45.0370882" lon="11.91532"><ele>2.8000000000000003</ele><time>2026-04-15T10:32:19.195Z</time></trkpt><trkpt lat="45.0370008" lon="11.9152826"><ele>3.2</ele><time>2026-04-15T10:32:20.183Z</time></trkpt><trkpt lat="45.036906" lon="11.9152495"><ele>3.6</ele><time>2026-04-15T10:32:21.171Z</time></trkpt><trkpt lat="45.0368095" lon="11.915216"><ele>4.0</ele><time>2026-04-15T10:32:22.174Z</time></trkpt><trkpt lat="45.0367111" lon="11.9151782"><ele>4.0</ele><time>2026-04-15T10:32:23.159Z</time></trkpt><trkpt lat="45.0366191" lon="11.9151384"><ele>4.0</ele><time>2026-04-15T10:32:24.191Z</time></trkpt><trkpt lat="45.0365282" lon="11.9151018"><ele>4.0</ele><time>2026-04-15T10:32:25.184Z</time></trkpt><trkpt lat="45.0364354" lon="11.9150619"><ele>4.0</ele><time>2026-04-15T10:32:26.191Z</time></trkpt><trkpt lat="45.0363393" lon="11.9150254"><ele>4.0</ele><time>2026-04-15T10:32:27.165Z</time></trkpt><trkpt lat="45.036247" lon="11.9149843"><ele>3.9999999999999996</ele><time>2026-04-15T10:32:28.172Z</time></trkpt><trkpt lat="45.0361633" lon="11.9149472"><ele>4.0</ele><time>2026-04-15T10:32:29.162Z</time></trkpt><trkpt lat="45.0360858" lon="11.9149086"><ele>4.0</ele><time>2026-04-15T10:32:30.17Z</time></trkpt><trkpt lat="45.0360164" lon="11.9148856"><ele>4.0</ele><time>2026-04-15T10:32:31.187Z</time></trkpt><trkpt lat="45.0359314" lon="11.9148552"><ele>3.9999999999999996</ele><time>2026-04-15T10:32:33.181Z</time></trkpt><trkpt lat="45.0358689" lon="11.9147764"><ele>4.0</ele><time>2026-04-15T10:32:35.186Z</time></trkpt><trkpt lat="45.0358569" lon="11.9146747"><ele>4.0</ele><time>2026-04-15T10:32:36.182Z</time></trkpt><trkpt lat="45.0358776" lon="11.9145344"><ele>4.0</ele><time>2026-04-15T10:32:37.172Z</time></trkpt><trkpt lat="45.0359258" lon="11.914369"><ele>4.0</ele><time>2026-04-15T10:32:38.19Z</time></trkpt><trkpt lat="45.0359652" lon="11.914163"><ele>4.0</ele><time>2026-04-15T10:32:39.183Z</time></trkpt><trkpt lat="45.0359987" lon="11.9139292"><ele>3.6666666666666665</ele><time>2026-04-15T10:32:40.171Z</time></trkpt><trkpt lat="45.0360279" lon="11.9136861"><ele>3.333333333333333</ele><time>2026-04-15T10:32:41.173Z</time></trkpt><trkpt lat="45.0360447" lon="11.9134317"><ele>3.0</ele><time>2026-04-15T10:32:42.171Z</time></trkpt><trkpt lat="45.0360511" lon="11.9131827"><ele>3.0</ele><time>2026-04-15T10:32:43.182Z</time></trkpt><trkpt lat="45.0360402" lon="11.9129522"><ele>3.0</ele><time>2026-04-15T10:32:44.189Z</time></trkpt><trkpt lat="45.0360288" lon="11.9127397"><ele>3.0</ele><time>2026-04-15T10:32:45.179Z</time></trkpt><trkpt lat="45.0360203" lon="11.9125554"><ele>3.0</ele><time>2026-04-15T10:32:46.157Z</time></trkpt><trkpt lat="45.0359964" lon="11.9124183"><ele>3.5</ele><time>2026-04-15T10:32:47.184Z</time></trkpt><trkpt lat="45.0359315" lon="11.9123298"><ele>4.0</ele><time>2026-04-15T10:32:48.192Z</time></trkpt><trkpt lat="45.0358286" lon="11.9122662"><ele>4.5</ele><time>2026-04-15T10:32:49.166Z</time></trkpt><trkpt lat="45.0356959" lon="11.9122244"><ele>5.0</ele><time>2026-04-15T10:32:50.15Z</time></trkpt><trkpt lat="45.0355479" lon="11.9121678"><ele>5.0</ele><time>2026-04-15T10:32:51.176Z</time></trkpt><trkpt lat="45.0353864" lon="11.9120871"><ele>5.0</ele><time>2026-04-15T10:32:52.171Z</time></trkpt><trkpt lat="45.0352085" lon="11.9120082"><ele>5.0</ele><time>2026-04-15T10:32:53.176Z</time></trkpt><trkpt lat="45.0350224" lon="11.9119252"><ele>4.666666666666667</ele><time>2026-04-15T10:32:54.162Z</time></trkpt><trkpt lat="45.0348326" lon="11.9118264"><ele>4.333333333333333</ele><time>2026-04-15T10:32:55.167Z</time></trkpt><trkpt lat="45.0346354" lon="11.9117192"><ele>4.0</ele><time>2026-04-15T10:32:56.166Z</time></trkpt><trkpt lat="45.0344335" lon="11.9116128"><ele>4.0</ele><time>2026-04-15T10:32:57.18Z</time></trkpt><trkpt lat="45.0342251" lon="11.9115098"><ele>4.0</ele><time>2026-04-15T10:32:58.176Z</time></trkpt><trkpt lat="45.0340112" lon="11.9114128"><ele>4.0</ele><time>2026-04-15T10:32:59.164Z</time></trkpt><trkpt lat="45.033789" lon="11.9113039"><ele>2.5</ele><time>2026-04-15T10:33:00.171Z</time></trkpt><trkpt lat="45.0335618" lon="11.9111951"><ele>1.0</ele><time>2026-04-15T10:33:01.154Z</time></trkpt><trkpt lat="45.0333396" lon="11.9110872"><ele>1.0</ele><time>2026-04-15T10:33:02.185Z</time></trkpt><trkpt lat="45.0331175" lon="11.9109776"><ele>1.0</ele><time>2026-04-15T10:33:03.179Z</time></trkpt><trkpt lat="45.0328986" lon="11.9108698"><ele>1.0</ele><time>2026-04-15T10:33:04.168Z</time></trkpt><trkpt lat="45.0326835" lon="11.9107691"><ele>1.0</ele><time>2026-04-15T10:33:05.178Z</time></trkpt><trkpt lat="45.0324717" lon="11.9106671"><ele>1.0</ele><time>2026-04-15T10:33:06.171Z</time></trkpt><trkpt lat="45.0322668" lon="11.9105671"><ele>1.0</ele><time>2026-04-15T10:33:07.174Z</time></trkpt><trkpt lat="45.0320741" lon="11.9104757"><ele>1.0</ele><time>2026-04-15T10:33:08.176Z</time></trkpt><trkpt lat="45.0318909" lon="11.9103879"><ele>1.0</ele><time>2026-04-15T10:33:09.161Z</time></trkpt><trkpt lat="45.0317208" lon="11.9103"><ele>1.0</ele><time>2026-04-15T10:33:10.188Z</time></trkpt><trkpt lat="45.0315704" lon="11.9102221"><ele>1.0</ele><time>2026-04-15T10:33:11.172Z</time></trkpt><trkpt lat="45.0314297" lon="11.910155"><ele>1.0</ele><time>2026-04-15T10:33:12.173Z</time></trkpt><trkpt lat="45.0313012" lon="11.9100963"><ele>1.0</ele><time>2026-04-15T10:33:13.191Z</time></trkpt><trkpt lat="45.0311872" lon="11.9100353"><ele>1.0</ele><time>2026-04-15T10:33:14.182Z</time></trkpt><trkpt lat="45.0310798" lon="11.9099875"><ele>1.0</ele><time>2026-04-15T10:33:15.169Z</time></trkpt><trkpt lat="45.0309874" lon="11.9099445"><ele>0.9999999999999999</ele><time>2026-04-15T10:33:16.165Z</time></trkpt><trkpt lat="45.0309073" lon="11.9099085"><ele>1.0</ele><time>2026-04-15T10:33:17.174Z</time></trkpt><trkpt lat="45.0308527" lon="11.9098509"><ele>1.0</ele><time>2026-04-15T10:33:19.164Z</time></trkpt><trkpt lat="45.0308717" lon="11.909746"><ele>1.0</ele><time>2026-04-15T10:33:21.179Z</time></trkpt><trkpt lat="45.0309065" lon="11.9096109"><ele>0.9999999999999999</ele><time>2026-04-15T10:33:22.155Z</time></trkpt><trkpt lat="45.0309421" lon="11.9094514"><ele>1.0</ele><time>2026-04-15T10:33:23.164Z</time></trkpt><trkpt lat="45.030985" lon="11.9092644"><ele>1.0</ele><time>2026-04-15T10:33:24.155Z</time></trkpt><trkpt lat="45.0310723" lon="11.9090493"><ele>1.0</ele><time>2026-04-15T10:33:25.163Z</time></trkpt><trkpt lat="45.0311812" lon="11.9088136"><ele>1.0</ele><time>2026-04-15T10:33:26.176Z</time></trkpt><trkpt lat="45.0312885" lon="11.9085716"><ele>1.0</ele><time>2026-04-15T10:33:27.183Z</time></trkpt><trkpt lat="45.0313756" lon="11.9083307"><ele>1.0</ele><time>2026-04-15T10:33:28.17Z</time></trkpt><trkpt lat="45.0314522" lon="11.9081008"><ele>1.0</ele><time>2026-04-15T10:33:29.162Z</time></trkpt><trkpt lat="45.0315327" lon="11.9078767"><ele>1.0</ele><time>2026-04-15T10:33:30.168Z</time></trkpt><trkpt lat="45.0316265" lon="11.9076428"><ele>1.0</ele><time>2026-04-15T10:33:31.179Z</time></trkpt><trkpt lat="45.0317268" lon="11.9073947"><ele>1.0</ele><time>2026-04-15T10:33:32.179Z</time></trkpt><trkpt lat="45.0318303" lon="11.9071451"><ele>1.0</ele><time>2026-04-15T10:33:33.174Z</time></trkpt><trkpt lat="45.0319314" lon="11.9069068"><ele>1.0</ele><time>2026-04-15T10:33:34.164Z</time></trkpt><trkpt lat="45.0320234" lon="11.9066862"><ele>1.0</ele><time>2026-04-15T10:33:35.174Z</time></trkpt><trkpt lat="45.0321128" lon="11.9064826"><ele>1.0</ele><time>2026-04-15T10:33:36.167Z</time></trkpt><trkpt lat="45.0322428" lon="11.9063146"><ele>1.0</ele><time>2026-04-15T10:33:37.166Z</time></trkpt><trkpt lat="45.0323952" lon="11.9061852"><ele>1.0</ele><time>2026-04-15T10:33:38.162Z</time></trkpt><trkpt lat="45.0325528" lon="11.9060537"><ele>1.3333333333333333</ele><time>2026-04-15T10:33:39.166Z</time></trkpt><trkpt lat="45.0326902" lon="11.90592"><ele>1.6666666666666665</ele><time>2026-04-15T10:33:40.17Z</time></trkpt><trkpt lat="45.0327958" lon="11.9057485"><ele>2.0</ele><time>2026-04-15T10:33:41.164Z</time></trkpt><trkpt lat="45.0328843" lon="11.905545"><ele>2.0</ele><time>2026-04-15T10:33:42.156Z</time></trkpt><trkpt lat="45.0329854" lon="11.9053342"><ele>2.0</ele><time>2026-04-15T10:33:43.165Z</time></trkpt><trkpt lat="45.0331003" lon="11.9051362"><ele>2.0</ele><time>2026-04-15T10:33:44.176Z</time></trkpt><trkpt lat="45.0332123" lon="11.9049607"><ele>1.6666666666666665</ele><time>2026-04-15T10:33:45.162Z</time></trkpt><trkpt lat="45.0333052" lon="11.9048037"><ele>1.3333333333333333</ele><time>2026-04-15T10:33:46.161Z</time></trkpt><trkpt lat="45.0333688" lon="11.904621"><ele>1.0</ele><time>2026-04-15T10:33:47.174Z</time></trkpt><trkpt lat="45.0333971" lon="11.9043865"><ele>0.6666666666666666</ele><time>2026-04-15T10:33:48.156Z</time></trkpt><trkpt lat="45.0333997" lon="11.9041203"><ele>0.3333333333333333</ele><time>2026-04-15T10:33:49.168Z</time></trkpt><trkpt lat="45.0333912" lon="11.9038353"><ele>0.0</ele><time>2026-04-15T10:33:50.168Z</time></trkpt><trkpt lat="45.0333628" lon="11.9035208"><ele>-0.5</ele><time>2026-04-15T10:33:51.181Z</time></trkpt><trkpt lat="45.0333214" lon="11.9031734"><ele>-1.0</ele><time>2026-04-15T10:33:52.148Z</time></trkpt><trkpt lat="45.0332739" lon="11.9028139"><ele>-1.5</ele><time>2026-04-15T10:33:53.182Z</time></trkpt><trkpt lat="45.0332195" lon="11.902447"><ele>-2.0</ele><time>2026-04-15T10:33:54.168Z</time></trkpt><trkpt lat="45.0331733" lon="11.902081"><ele>-1.5</ele><time>2026-04-15T10:33:55.166Z</time></trkpt><trkpt lat="45.0331261" lon="11.9017431"><ele>-1.0</ele><time>2026-04-15T10:33:56.168Z</time></trkpt><trkpt lat="45.0330851" lon="11.9014272"><ele>-1.0</ele><time>2026-04-15T10:33:57.167Z</time></trkpt><trkpt lat="45.033042" lon="11.9011307"><ele>-1.0</ele><time>2026-04-15T10:33:58.162Z</time></trkpt><trkpt lat="45.0330063" lon="11.9008713"><ele>-1.0</ele><time>2026-04-15T10:33:59.162Z</time></trkpt><trkpt lat="45.0329732" lon="11.9006527"><ele>0.0</ele><time>2026-04-15T10:34:00.155Z</time></trkpt><trkpt lat="45.0329149" lon="11.9004618"><ele>1.0</ele><time>2026-04-15T10:34:01.154Z</time></trkpt><trkpt lat="45.0328165" lon="11.9002859"><ele>2.0</ele><time>2026-04-15T10:34:02.162Z</time></trkpt><trkpt lat="45.0327034" lon="11.9001348"><ele>2.25</ele><time>2026-04-15T10:34:03.169Z</time></trkpt><trkpt lat="45.032609" lon="11.8999907"><ele>2.5</ele><time>2026-04-15T10:34:04.158Z</time></trkpt><trkpt lat="45.0325304" lon="11.8998617"><ele>2.75</ele><time>2026-04-15T10:34:05.156Z</time></trkpt><trkpt lat="45.0324821" lon="11.8997419"><ele>3.0</ele><time>2026-04-15T10:34:06.17Z</time></trkpt><trkpt lat="45.0324667" lon="11.899603"><ele>2.6666666666666665</ele><time>2026-04-15T10:34:07.158Z</time></trkpt><trkpt lat="45.0324698" lon="11.8994214"><ele>2.333333333333333</ele><time>2026-04-15T10:34:08.174Z</time></trkpt><trkpt lat="45.032451" lon="11.8991905"><ele>2.0</ele><time>2026-04-15T10:34:09.17Z</time></trkpt><trkpt lat="45.0324167" lon="11.8989395"><ele>2.0</ele><time>2026-04-15T10:34:10.166Z</time></trkpt><trkpt lat="45.0323661" lon="11.8986625"><ele>2.0</ele><time>2026-04-15T10:34:11.17Z</time></trkpt><trkpt lat="45.032306" lon="11.8983641"><ele>2.0</ele><time>2026-04-15T10:34:12.165Z</time></trkpt><trkpt lat="45.0322382" lon="11.8980449"><ele>1.5</ele><time>2026-04-15T10:34:13.179Z</time></trkpt><trkpt lat="45.0321674" lon="11.8977263"><ele>1.0</ele><time>2026-04-15T10:34:14.155Z</time></trkpt><trkpt lat="45.0321005" lon="11.8974383"><ele>0.6666666666666666</ele><time>2026-04-15T10:34:15.171Z</time></trkpt><trkpt lat="45.0320393" lon="11.8971755"><ele>0.3333333333333333</ele><time>2026-04-15T10:34:16.162Z</time></trkpt><trkpt lat="45.0319922" lon="11.8969377"><ele>0.0</ele><time>2026-04-15T10:34:17.162Z</time></trkpt><trkpt lat="45.0319698" lon="11.8967129"><ele>0.0</ele><time>2026-04-15T10:34:18.168Z</time></trkpt><trkpt lat="45.0319713" lon="11.8964891"><ele>0.0</ele><time>2026-04-15T10:34:19.153Z</time></trkpt><trkpt lat="45.03201" lon="11.8962664"><ele>0.0</ele><time>2026-04-15T10:34:20.161Z</time></trkpt><trkpt lat="45.0320773" lon="11.8960307"><ele>-0.3333333333333333</ele><time>2026-04-15T10:34:21.163Z</time></trkpt><trkpt lat="45.0321632" lon="11.8957734"><ele>-0.6666666666666666</ele><time>2026-04-15T10:34:22.153Z</time></trkpt><trkpt lat="45.032257" lon="11.8954956"><ele>-1.0</ele><time>2026-04-15T10:34:23.176Z</time></trkpt><trkpt lat="45.0323561" lon="11.8952166"><ele>-1.0</ele><time>2026-04-15T10:34:24.167Z</time></trkpt><trkpt lat="45.0324687" lon="11.8949475"><ele>-1.0</ele><time>2026-04-15T10:34:25.15Z</time></trkpt><trkpt lat="45.0325961" lon="11.8946938"><ele>-1.0</ele><time>2026-04-15T10:34:26.151Z</time></trkpt><trkpt lat="45.0327494" lon="11.8944636"><ele>0.0</ele><time>2026-04-15T10:34:27.263Z</time></trkpt><trkpt lat="45.0329317" lon="11.8942565"><ele>1.0</ele><time>2026-04-15T10:34:28.168Z</time></trkpt><trkpt lat="45.0331335" lon="11.8940576"><ele>1.0</ele><time>2026-04-15T10:34:29.16Z</time></trkpt><trkpt lat="45.0333435" lon="11.8938773"><ele>1.0</ele><time>2026-04-15T10:34:30.167Z</time></trkpt><trkpt lat="45.0335514" lon="11.8937199"><ele>1.0</ele><time>2026-04-15T10:34:31.16Z</time></trkpt><trkpt lat="45.0337444" lon="11.8935873"><ele>1.0</ele><time>2026-04-15T10:34:32.164Z</time></trkpt><trkpt lat="45.0339171" lon="11.8934899"><ele>1.0</ele><time>2026-04-15T10:34:33.164Z</time></trkpt><trkpt lat="45.0340668" lon="11.8934278"><ele>0.6666666666666666</ele><time>2026-04-15T10:34:34.155Z</time></trkpt><trkpt lat="45.0342191" lon="11.8933912"><ele>0.3333333333333333</ele><time>2026-04-15T10:34:35.168Z</time></trkpt><trkpt lat="45.0343865" lon="11.8933718"><ele>0.0</ele><time>2026-04-15T10:34:36.156Z</time></trkpt><trkpt lat="45.0345544" lon="11.8933454"><ele>0.0</ele><time>2026-04-15T10:34:37.157Z</time></trkpt><trkpt lat="45.0347156" lon="11.893314"><ele>0.0</ele><time>2026-04-15T10:34:38.155Z</time></trkpt><trkpt lat="45.0348724" lon="11.8932543"><ele>0.0</ele><time>2026-04-15T10:34:39.165Z</time></trkpt><trkpt lat="45.0350417" lon="11.8931555"><ele>0.6666666666666666</ele><time>2026-04-15T10:34:40.163Z</time></trkpt><trkpt lat="45.0352233" lon="11.8930218"><ele>1.3333333333333333</ele><time>2026-04-15T10:34:41.165Z</time></trkpt><trkpt lat="45.0354179" lon="11.8928698"><ele>2.0</ele><time>2026-04-15T10:34:42.154Z</time></trkpt><trkpt lat="45.0356016" lon="11.892715"><ele>1.6666666666666665</ele><time>2026-04-15T10:34:43.166Z</time></trkpt><trkpt lat="45.0357791" lon="11.8925471"><ele>1.3333333333333333</ele><time>2026-04-15T10:34:44.149Z</time></trkpt><trkpt lat="45.0359478" lon="11.8923508"><ele>1.0</ele><time>2026-04-15T10:34:45.162Z</time></trkpt><trkpt lat="45.0361094" lon="11.8921274"><ele>1.0</ele><time>2026-04-15T10:34:46.156Z</time></trkpt><trkpt lat="45.0362627" lon="11.8918975"><ele>1.0</ele><time>2026-04-15T10:34:47.171Z</time></trkpt><trkpt lat="45.0363901" lon="11.8916806"><ele>1.0</ele><time>2026-04-15T10:34:48.198Z</time></trkpt><trkpt lat="45.0365026" lon="11.8914822"><ele>1.0</ele><time>2026-04-15T10:34:49.177Z</time></trkpt><trkpt lat="45.0366051" lon="11.8913012"><ele>1.0</ele><time>2026-04-15T10:34:50.15Z</time></trkpt><trkpt lat="45.0366968" lon="11.8911376"><ele>1.0</ele><time>2026-04-15T10:34:51.147Z</time></trkpt><trkpt lat="45.0367697" lon="11.8909843"><ele>1.0</ele><time>2026-04-15T10:34:52.165Z</time></trkpt><trkpt lat="45.0368101" lon="11.8907977"><ele>1.0</ele><time>2026-04-15T10:34:53.153Z</time></trkpt><trkpt lat="45.03682" lon="11.8905676"><ele>1.0</ele><time>2026-04-15T10:34:54.165Z</time></trkpt><trkpt lat="45.0368174" lon="11.8902865"><ele>1.0</ele><time>2026-04-15T10:34:55.147Z</time></trkpt><trkpt lat="45.0368157" lon="11.8899679"><ele>1.0</ele><time>2026-04-15T10:34:56.163Z</time></trkpt><trkpt lat="45.0368155" lon="11.8896415"><ele>1.0</ele><time>2026-04-15T10:34:57.149Z</time></trkpt><trkpt lat="45.0368158" lon="11.8892949"><ele>1.5</ele><time>2026-04-15T10:34:58.165Z</time></trkpt><trkpt lat="45.0368138" lon="11.8889381"><ele>2.0</ele><time>2026-04-15T10:34:59.154Z</time></trkpt><trkpt lat="45.0368093" lon="11.8885936"><ele>2.0</ele><time>2026-04-15T10:35:00.148Z</time></trkpt><trkpt lat="45.036804" lon="11.8882695"><ele>2.0</ele><time>2026-04-15T10:35:01.155Z</time></trkpt><trkpt lat="45.0367999" lon="11.8879631"><ele>2.0</ele><time>2026-04-15T10:35:02.15Z</time></trkpt><trkpt lat="45.0367904" lon="11.8876707"><ele>1.6666666666666665</ele><time>2026-04-15T10:35:03.178Z</time></trkpt><trkpt lat="45.0367775" lon="11.8873979"><ele>1.3333333333333333</ele><time>2026-04-15T10:35:04.155Z</time></trkpt><trkpt lat="45.0367645" lon="11.8871561"><ele>1.0</ele><time>2026-04-15T10:35:05.167Z</time></trkpt><trkpt lat="45.0367506" lon="11.8869379"><ele>1.3333333333333333</ele><time>2026-04-15T10:35:06.165Z</time></trkpt><trkpt lat="45.0367456" lon="11.8867313"><ele>1.6666666666666665</ele><time>2026-04-15T10:35:07.156Z</time></trkpt><trkpt lat="45.0367471" lon="11.8865067"><ele>2.0</ele><time>2026-04-15T10:35:08.162Z</time></trkpt><trkpt lat="45.0367453" lon="11.8862532"><ele>2.0</ele><time>2026-04-15T10:35:09.156Z</time></trkpt><trkpt lat="45.0367551" lon="11.8859589"><ele>2.0</ele><time>2026-04-15T10:35:10.15Z</time></trkpt><trkpt lat="45.0367713" lon="11.8856564"><ele>2.0</ele><time>2026-04-15T10:35:11.157Z</time></trkpt><trkpt lat="45.0367851" lon="11.8853286"><ele>1.5</ele><time>2026-04-15T10:35:12.151Z</time></trkpt><trkpt lat="45.0367907" lon="11.8849954"><ele>1.0</ele><time>2026-04-15T10:35:13.155Z</time></trkpt><trkpt lat="45.0367888" lon="11.8846412"><ele>1.0</ele><time>2026-04-15T10:35:14.147Z</time></trkpt><trkpt lat="45.0367856" lon="11.8842766"><ele>1.0</ele><time>2026-04-15T10:35:15.147Z</time></trkpt><trkpt lat="45.0367821" lon="11.8839121"><ele>1.0</ele><time>2026-04-15T10:35:16.141Z</time></trkpt><trkpt lat="45.03678" lon="11.8835472"><ele>1.0</ele><time>2026-04-15T10:35:17.16Z</time></trkpt><trkpt lat="45.0367803" lon="11.8831996"><ele>1.5</ele><time>2026-04-15T10:35:18.152Z</time></trkpt><trkpt lat="45.0367793" lon="11.882859"><ele>2.0</ele><time>2026-04-15T10:35:19.157Z</time></trkpt><trkpt lat="45.0367767" lon="11.8825101"><ele>2.0</ele><time>2026-04-15T10:35:20.159Z</time></trkpt><trkpt lat="45.0367748" lon="11.8821652"><ele>2.0</ele><time>2026-04-15T10:35:21.15Z</time></trkpt><trkpt lat="45.0367729" lon="11.8818283"><ele>1.5</ele><time>2026-04-15T10:35:22.145Z</time></trkpt><trkpt lat="45.0367712" lon="11.8814937"><ele>1.0</ele><time>2026-04-15T10:35:23.15Z</time></trkpt><trkpt lat="45.0367688" lon="11.8811593"><ele>1.3333333333333333</ele><time>2026-04-15T10:35:24.156Z</time></trkpt><trkpt lat="45.0367544" lon="11.8808339"><ele>1.6666666666666665</ele><time>2026-04-15T10:35:25.146Z</time></trkpt><trkpt lat="45.0367313" lon="11.8805293"><ele>2.0</ele><time>2026-04-15T10:35:26.157Z</time></trkpt><trkpt lat="45.0366978" lon="11.8802581"><ele>2.0</ele><time>2026-04-15T10:35:27.149Z</time></trkpt><trkpt lat="45.0366025" lon="11.8798005"><ele>2.0</ele><time>2026-04-15T10:35:29.149Z</time></trkpt><trkpt lat="45.0365197" lon="11.8796044"><ele>2.0</ele><time>2026-04-15T10:35:30.151Z</time></trkpt><trkpt lat="45.0364117" lon="11.8794179"><ele>2.0</ele><time>2026-04-15T10:35:31.16Z</time></trkpt><trkpt lat="45.0362701" lon="11.8792513"><ele>2.0</ele><time>2026-04-15T10:35:32.15Z</time></trkpt><trkpt lat="45.0360988" lon="11.8790958"><ele>1.6666666666666665</ele><time>2026-04-15T10:35:33.152Z</time></trkpt><trkpt lat="45.0359094" lon="11.8789524"><ele>1.3333333333333333</ele><time>2026-04-15T10:35:34.158Z</time></trkpt><trkpt lat="45.0356982" lon="11.8788321"><ele>1.0</ele><time>2026-04-15T10:35:35.28Z</time></trkpt><trkpt lat="45.0352509" lon="11.8785833"><ele>1.5</ele><time>2026-04-15T10:35:37.16Z</time></trkpt><trkpt lat="45.0350356" lon="11.8784111"><ele>2.0</ele><time>2026-04-15T10:35:38.143Z</time></trkpt><trkpt lat="45.0348234" lon="11.8782448"><ele>2.0</ele><time>2026-04-15T10:35:39.154Z</time></trkpt><trkpt lat="45.0346291" lon="11.8780548"><ele>2.0</ele><time>2026-04-15T10:35:40.149Z</time></trkpt><trkpt lat="45.0344433" lon="11.8778607"><ele>2.0</ele><time>2026-04-15T10:35:41.278Z</time></trkpt><trkpt lat="45.0342636" lon="11.8776543"><ele>2.0</ele><time>2026-04-15T10:35:42.256Z</time></trkpt><trkpt lat="45.0339339" lon="11.8771658"><ele>2.0</ele><time>2026-04-15T10:35:44.166Z</time></trkpt><trkpt lat="45.0338116" lon="11.8768861"><ele>2.0</ele><time>2026-04-15T10:35:45.258Z</time></trkpt><trkpt lat="45.0336241" lon="11.8762466"><ele>2.0</ele><time>2026-04-15T10:35:47.253Z</time></trkpt><trkpt lat="45.033553" lon="11.8759112"><ele>2.0</ele><time>2026-04-15T10:35:48.256Z</time></trkpt><trkpt lat="45.0334834" lon="11.8755797"><ele>2.0</ele><time>2026-04-15T10:35:49.248Z</time></trkpt><trkpt lat="45.0334212" lon="11.8752527"><ele>2.0</ele><time>2026-04-15T10:35:50.158Z</time></trkpt><trkpt lat="45.0333913" lon="11.8749134"><ele>2.0</ele><time>2026-04-15T10:35:51.16Z</time></trkpt><trkpt lat="45.033391" lon="11.8745716"><ele>2.0</ele><time>2026-04-15T10:35:52.153Z</time></trkpt><trkpt lat="45.0334194" lon="11.874234"><ele>2.0</ele><time>2026-04-15T10:35:53.266Z</time></trkpt><trkpt lat="45.0334738" lon="11.873905"><ele>2.0</ele><time>2026-04-15T10:35:54.258Z</time></trkpt><trkpt lat="45.0336141" lon="11.8733098"><ele>1.6666666666666665</ele><time>2026-04-15T10:35:56.247Z</time></trkpt><trkpt lat="45.0337163" lon="11.8730552"><ele>1.3333333333333333</ele><time>2026-04-15T10:35:57.147Z</time></trkpt><trkpt lat="45.0338393" lon="11.8728383"><ele>1.0</ele><time>2026-04-15T10:35:58.154Z</time></trkpt><trkpt lat="45.0339745" lon="11.8726244"><ele>1.6666666666666665</ele><time>2026-04-15T10:35:59.251Z</time></trkpt><trkpt lat="45.0341009" lon="11.8724114"><ele>2.3333333333333335</ele><time>2026-04-15T10:36:00.241Z</time></trkpt><trkpt lat="45.0342081" lon="11.8721973"><ele>3.0</ele><time>2026-04-15T10:36:01.262Z</time></trkpt><trkpt lat="45.0343018" lon="11.8719778"><ele>4.0</ele><time>2026-04-15T10:36:02.243Z</time></trkpt><trkpt lat="45.0343715" lon="11.8717401"><ele>5.0</ele><time>2026-04-15T10:36:03.264Z</time></trkpt><trkpt lat="45.0344694" lon="11.8711754"><ele>4.333333333333334</ele><time>2026-04-15T10:36:05.156Z</time></trkpt><trkpt lat="45.0345034" lon="11.8708898"><ele>3.666666666666667</ele><time>2026-04-15T10:36:06.258Z</time></trkpt><trkpt lat="45.0345222" lon="11.870617"><ele>3.0</ele><time>2026-04-15T10:36:07.254Z</time></trkpt><trkpt lat="45.0345259" lon="11.8703254"><ele>2.6666666666666665</ele><time>2026-04-15T10:36:08.244Z</time></trkpt><trkpt lat="45.0345226" lon="11.8700182"><ele>2.333333333333333</ele><time>2026-04-15T10:36:09.255Z</time></trkpt><trkpt lat="45.0345011" lon="11.8697133"><ele>2.0</ele><time>2026-04-15T10:36:10.252Z</time></trkpt><trkpt lat="45.0344512" lon="11.8694124"><ele>2.0</ele><time>2026-04-15T10:36:11.157Z</time></trkpt><trkpt lat="45.034392" lon="11.8691277"><ele>2.0</ele><time>2026-04-15T10:36:12.253Z</time></trkpt><trkpt lat="45.0343325" lon="11.8688665"><ele>2.0</ele><time>2026-04-15T10:36:13.271Z</time></trkpt><trkpt lat="45.0342772" lon="11.8686333"><ele>1.6666666666666665</ele><time>2026-04-15T10:36:14.255Z</time></trkpt><trkpt lat="45.0342113" lon="11.8684208"><ele>1.3333333333333333</ele><time>2026-04-15T10:36:15.243Z</time></trkpt><trkpt lat="45.0341442" lon="11.8682232"><ele>1.0</ele><time>2026-04-15T10:36:16.26Z</time></trkpt><trkpt lat="45.0340778" lon="11.8680343"><ele>1.0</ele><time>2026-04-15T10:36:17.259Z</time></trkpt><trkpt lat="45.0340239" lon="11.8678426"><ele>1.0</ele><time>2026-04-15T10:36:18.245Z</time></trkpt><trkpt lat="45.0339817" lon="11.8676324"><ele>1.0</ele><time>2026-04-15T10:36:19.25Z</time></trkpt><trkpt lat="45.0339668" lon="11.8673984"><ele>1.0</ele><time>2026-04-15T10:36:20.251Z</time></trkpt><trkpt lat="45.0340041" lon="11.8668554"><ele>1.0</ele><time>2026-04-15T10:36:22.24Z</time></trkpt><trkpt lat="45.0340257" lon="11.8665678"><ele>0.6666666666666666</ele><time>2026-04-15T10:36:23.244Z</time></trkpt><trkpt lat="45.0340472" lon="11.8662818"><ele>0.3333333333333333</ele><time>2026-04-15T10:36:24.255Z</time></trkpt><trkpt lat="45.0340788" lon="11.8659911"><ele>0.0</ele><time>2026-04-15T10:36:25.247Z</time></trkpt><trkpt lat="45.0341323" lon="11.8657125"><ele>0.3333333333333333</ele><time>2026-04-15T10:36:26.256Z</time></trkpt><trkpt lat="45.0342231" lon="11.8654404"><ele>0.6666666666666666</ele><time>2026-04-15T10:36:27.232Z</time></trkpt><trkpt lat="45.0343448" lon="11.8651757"><ele>1.0</ele><time>2026-04-15T10:36:28.24Z</time></trkpt><trkpt lat="45.0344825" lon="11.8649053"><ele>1.5</ele><time>2026-04-15T10:36:29.246Z</time></trkpt><trkpt lat="45.0346331" lon="11.8646432"><ele>2.0</ele><time>2026-04-15T10:36:30.246Z</time></trkpt><trkpt lat="45.0347821" lon="11.8643736"><ele>2.0</ele><time>2026-04-15T10:36:31.279Z</time></trkpt><trkpt lat="45.0349289" lon="11.8641059"><ele>2.0</ele><time>2026-04-15T10:36:32.25Z</time></trkpt><trkpt lat="45.0350638" lon="11.8638357"><ele>2.0</ele><time>2026-04-15T10:36:33.247Z</time></trkpt><trkpt lat="45.0351858" lon="11.8635856"><ele>2.0</ele><time>2026-04-15T10:36:34.255Z</time></trkpt><trkpt lat="45.0352936" lon="11.8633423"><ele>2.0</ele><time>2026-04-15T10:36:35.257Z</time></trkpt><trkpt lat="45.035399" lon="11.8631045"><ele>2.0</ele><time>2026-04-15T10:36:36.251Z</time></trkpt><trkpt lat="45.0355061" lon="11.8628558"><ele>2.0</ele><time>2026-04-15T10:36:37.258Z</time></trkpt><trkpt lat="45.0356091" lon="11.8625868"><ele>2.0</ele><time>2026-04-15T10:36:38.251Z</time></trkpt><trkpt lat="45.0357105" lon="11.8623101"><ele>2.333333333333333</ele><time>2026-04-15T10:36:39.244Z</time></trkpt><trkpt lat="45.0357949" lon="11.8620266"><ele>2.6666666666666665</ele><time>2026-04-15T10:36:40.261Z</time></trkpt><trkpt lat="45.0358761" lon="11.8617461"><ele>3.0</ele><time>2026-04-15T10:36:41.24Z</time></trkpt><trkpt lat="45.0359527" lon="11.8614976"><ele>3.0</ele><time>2026-04-15T10:36:42.243Z</time></trkpt><trkpt lat="45.0360195" lon="11.86127"><ele>3.0</ele><time>2026-04-15T10:36:43.249Z</time></trkpt><trkpt lat="45.0360762" lon="11.8610527"><ele>3.0</ele><time>2026-04-15T10:36:44.246Z</time></trkpt><trkpt lat="45.0361333" lon="11.860835"><ele>2.6666666666666665</ele><time>2026-04-15T10:36:45.264Z</time></trkpt><trkpt lat="45.0361889" lon="11.8606231"><ele>2.333333333333333</ele><time>2026-04-15T10:36:46.254Z</time></trkpt><trkpt lat="45.0362463" lon="11.8604118"><ele>2.0</ele><time>2026-04-15T10:36:47.239Z</time></trkpt><trkpt lat="45.0363071" lon="11.8602088"><ele>1.75</ele><time>2026-04-15T10:36:48.25Z</time></trkpt><trkpt lat="45.0363655" lon="11.860013"><ele>1.5</ele><time>2026-04-15T10:36:49.248Z</time></trkpt><trkpt lat="45.0364211" lon="11.8598236"><ele>1.25</ele><time>2026-04-15T10:36:50.245Z</time></trkpt><trkpt lat="45.0364615" lon="11.8596379"><ele>1.0</ele><time>2026-04-15T10:36:51.27Z</time></trkpt><trkpt lat="45.0364905" lon="11.8594577"><ele>1.25</ele><time>2026-04-15T10:36:52.232Z</time></trkpt><trkpt lat="45.0365118" lon="11.8592758"><ele>1.5</ele><time>2026-04-15T10:36:53.254Z</time></trkpt><trkpt lat="45.0365288" lon="11.8590791"><ele>1.75</ele><time>2026-04-15T10:36:54.263Z</time></trkpt><trkpt lat="45.0365307" lon="11.8588789"><ele>2.0</ele><time>2026-04-15T10:36:55.244Z</time></trkpt><trkpt lat="45.0365164" lon="11.8586724"><ele>2.0</ele><time>2026-04-15T10:36:56.241Z</time></trkpt><trkpt lat="45.0364852" lon="11.8584677"><ele>2.0</ele><time>2026-04-15T10:36:57.236Z</time></trkpt><trkpt lat="45.0364348" lon="11.8582681"><ele>2.0</ele><time>2026-04-15T10:36:58.252Z</time></trkpt><trkpt lat="45.036377" lon="11.858087"><ele>2.0</ele><time>2026-04-15T10:36:59.237Z</time></trkpt><trkpt lat="45.0363024" lon="11.8579287"><ele>2.0</ele><time>2026-04-15T10:37:00.256Z</time></trkpt><trkpt lat="45.0362092" lon="11.8577847"><ele>2.0</ele><time>2026-04-15T10:37:01.245Z</time></trkpt><trkpt lat="45.0361007" lon="11.8576488"><ele>2.0</ele><time>2026-04-15T10:37:02.246Z</time></trkpt><trkpt lat="45.0359908" lon="11.8575098"><ele>2.0</ele><time>2026-04-15T10:37:03.247Z</time></trkpt><trkpt lat="45.0358866" lon="11.8573686"><ele>1.75</ele><time>2026-04-15T10:37:04.24Z</time></trkpt><trkpt lat="45.0357903" lon="11.8572326"><ele>1.5</ele><time>2026-04-15T10:37:05.249Z</time></trkpt><trkpt lat="45.0356946" lon="11.8570955"><ele>1.25</ele><time>2026-04-15T10:37:06.231Z</time></trkpt><trkpt lat="45.035608" lon="11.8569545"><ele>1.0</ele><time>2026-04-15T10:37:07.264Z</time></trkpt><trkpt lat="45.0355403" lon="11.8567913"><ele>1.5</ele><time>2026-04-15T10:37:08.236Z</time></trkpt><trkpt lat="45.0355007" lon="11.8566183"><ele>2.0</ele><time>2026-04-15T10:37:09.259Z</time></trkpt><trkpt lat="45.0354891" lon="11.8564407"><ele>2.5</ele><time>2026-04-15T10:37:10.243Z</time></trkpt><trkpt lat="45.0355088" lon="11.8562448"><ele>3.0</ele><time>2026-04-15T10:37:11.245Z</time></trkpt><trkpt lat="45.0355313" lon="11.8560306"><ele>3.0</ele><time>2026-04-15T10:37:12.234Z</time></trkpt><trkpt lat="45.0355523" lon="11.855815"><ele>3.0</ele><time>2026-04-15T10:37:13.251Z</time></trkpt><trkpt lat="45.0355732" lon="11.8555835"><ele>3.0</ele><time>2026-04-15T10:37:14.242Z</time></trkpt><trkpt lat="45.0355957" lon="11.8553555"><ele>3.0</ele><time>2026-04-15T10:37:15.24Z</time></trkpt><trkpt lat="45.035628" lon="11.8551494"><ele>3.0</ele><time>2026-04-15T10:37:16.237Z</time></trkpt><trkpt lat="45.0356734" lon="11.8549337"><ele>3.0</ele><time>2026-04-15T10:37:17.238Z</time></trkpt><trkpt lat="45.0357417" lon="11.8547106"><ele>3.0</ele><time>2026-04-15T10:37:18.248Z</time></trkpt><trkpt lat="45.0358094" lon="11.854469"><ele>3.0</ele><time>2026-04-15T10:37:19.23Z</time></trkpt><trkpt lat="45.0358549" lon="11.8541861"><ele>3.0</ele><time>2026-04-15T10:37:20.244Z</time></trkpt><trkpt lat="45.0358835" lon="11.8538951"><ele>3.0</ele><time>2026-04-15T10:37:21.243Z</time></trkpt><trkpt lat="45.0359082" lon="11.8536173"><ele>3.0</ele><time>2026-04-15T10:37:22.24Z</time></trkpt><trkpt lat="45.0359392" lon="11.8533547"><ele>3.0</ele><time>2026-04-15T10:37:23.259Z</time></trkpt><trkpt lat="45.035968" lon="11.8531066"><ele>2.6666666666666665</ele><time>2026-04-15T10:37:24.235Z</time></trkpt><trkpt lat="45.0360078" lon="11.8528731"><ele>2.333333333333333</ele><time>2026-04-15T10:37:25.245Z</time></trkpt><trkpt lat="45.03607" lon="11.8526443"><ele>2.0</ele><time>2026-04-15T10:37:26.254Z</time></trkpt><trkpt lat="45.0361562" lon="11.8524388"><ele>2.0</ele><time>2026-04-15T10:37:27.257Z</time></trkpt><trkpt lat="45.0362436" lon="11.8522555"><ele>2.0</ele><time>2026-04-15T10:37:28.24Z</time></trkpt><trkpt lat="45.0363105" lon="11.8520729"><ele>2.0</ele><time>2026-04-15T10:37:29.247Z</time></trkpt><trkpt lat="45.0363508" lon="11.8518755"><ele>2.0</ele><time>2026-04-15T10:37:30.247Z</time></trkpt><trkpt lat="45.0363627" lon="11.8516549"><ele>2.0</ele><time>2026-04-15T10:37:31.25Z</time></trkpt><trkpt lat="45.0363684" lon="11.8514233"><ele>2.0</ele><time>2026-04-15T10:37:32.255Z</time></trkpt><trkpt lat="45.0363759" lon="11.8511951"><ele>2.0</ele><time>2026-04-15T10:37:33.228Z</time></trkpt><trkpt lat="45.0363969" lon="11.8509701"><ele>2.0</ele><time>2026-04-15T10:37:34.248Z</time></trkpt><trkpt lat="45.0364321" lon="11.850753"><ele>2.0</ele><time>2026-04-15T10:37:35.236Z</time></trkpt><trkpt lat="45.0364797" lon="11.8505332"><ele>2.0</ele><time>2026-04-15T10:37:36.234Z</time></trkpt><trkpt lat="45.0365307" lon="11.8503125"><ele>1.6666666666666665</ele><time>2026-04-15T10:37:37.238Z</time></trkpt><trkpt lat="45.0365826" lon="11.8500842"><ele>1.3333333333333333</ele><time>2026-04-15T10:37:38.252Z</time></trkpt><trkpt lat="45.0366429" lon="11.8498569"><ele>1.0</ele><time>2026-04-15T10:37:39.246Z</time></trkpt><trkpt lat="45.0367132" lon="11.8496214"><ele>1.6666666666666665</ele><time>2026-04-15T10:37:40.237Z</time></trkpt><trkpt lat="45.036794" lon="11.8493867"><ele>2.3333333333333335</ele><time>2026-04-15T10:37:41.258Z</time></trkpt><trkpt lat="45.0368698" lon="11.8491364"><ele>3.0</ele><time>2026-04-15T10:37:42.236Z</time></trkpt><trkpt lat="45.036935" lon="11.8488769"><ele>3.0</ele><time>2026-04-15T10:37:43.239Z</time></trkpt><trkpt lat="45.0369865" lon="11.8486061"><ele>3.0</ele><time>2026-04-15T10:37:44.255Z</time></trkpt><trkpt lat="45.0370251" lon="11.8483238"><ele>3.0</ele><time>2026-04-15T10:37:45.236Z</time></trkpt><trkpt lat="45.0370569" lon="11.8480302"><ele>3.0</ele><time>2026-04-15T10:37:46.24Z</time></trkpt><trkpt lat="45.0370906" lon="11.847734"><ele>3.0</ele><time>2026-04-15T10:37:47.259Z</time></trkpt><trkpt lat="45.0371286" lon="11.8474289"><ele>3.0</ele><time>2026-04-15T10:37:48.236Z</time></trkpt><trkpt lat="45.0371745" lon="11.8471198"><ele>2.0</ele><time>2026-04-15T10:37:49.225Z</time></trkpt><trkpt lat="45.0372281" lon="11.8468047"><ele>1.0</ele><time>2026-04-15T10:37:50.236Z</time></trkpt><trkpt lat="45.0372844" lon="11.8464948"><ele>1.0</ele><time>2026-04-15T10:37:51.239Z</time></trkpt><trkpt lat="45.0373467" lon="11.8461951"><ele>1.0</ele><time>2026-04-15T10:37:52.232Z</time></trkpt><trkpt lat="45.0374134" lon="11.845902"><ele>1.0</ele><time>2026-04-15T10:37:53.244Z</time></trkpt><trkpt lat="45.0374865" lon="11.845624"><ele>1.0</ele><time>2026-04-15T10:37:54.239Z</time></trkpt><trkpt lat="45.0375575" lon="11.845354"><ele>1.0</ele><time>2026-04-15T10:37:55.249Z</time></trkpt><trkpt lat="45.0376249" lon="11.8450856"><ele>1.0</ele><time>2026-04-15T10:37:56.223Z</time></trkpt><trkpt lat="45.0376886" lon="11.8448197"><ele>1.6666666666666665</ele><time>2026-04-15T10:37:57.24Z</time></trkpt><trkpt lat="45.0377472" lon="11.8445408"><ele>2.3333333333333335</ele><time>2026-04-15T10:37:58.226Z</time></trkpt><trkpt lat="45.0377996" lon="11.844257"><ele>3.0</ele><time>2026-04-15T10:37:59.24Z</time></trkpt><trkpt lat="45.037845" lon="11.8439542"><ele>3.0</ele><time>2026-04-15T10:38:00.222Z</time></trkpt><trkpt lat="45.0378847" lon="11.8436327"><ele>3.0</ele><time>2026-04-15T10:38:01.243Z</time></trkpt><trkpt lat="45.0379153" lon="11.8432901"><ele>3.0</ele><time>2026-04-15T10:38:02.223Z</time></trkpt><trkpt lat="45.0379405" lon="11.842944"><ele>3.0</ele><time>2026-04-15T10:38:03.239Z</time></trkpt><trkpt lat="45.0379572" lon="11.8425949"><ele>3.0</ele><time>2026-04-15T10:38:04.235Z</time></trkpt><trkpt lat="45.0379629" lon="11.842252"><ele>3.0</ele><time>2026-04-15T10:38:05.254Z</time></trkpt><trkpt lat="45.0379427" lon="11.8419184"><ele>3.5</ele><time>2026-04-15T10:38:06.234Z</time></trkpt><trkpt lat="45.0378926" lon="11.8415789"><ele>4.0</ele><time>2026-04-15T10:38:07.234Z</time></trkpt><trkpt lat="45.0378411" lon="11.8412382"><ele>4.0</ele><time>2026-04-15T10:38:08.228Z</time></trkpt><trkpt lat="45.0378077" lon="11.8408794"><ele>4.0</ele><time>2026-04-15T10:38:09.235Z</time></trkpt><trkpt lat="45.0377774" lon="11.8405042"><ele>3.5</ele><time>2026-04-15T10:38:10.228Z</time></trkpt><trkpt lat="45.0377415" lon="11.8401312"><ele>3.0</ele><time>2026-04-15T10:38:11.239Z</time></trkpt><trkpt lat="45.037704" lon="11.8397411"><ele>3.0</ele><time>2026-04-15T10:38:12.235Z</time></trkpt><trkpt lat="45.0376698" lon="11.8393586"><ele>3.0</ele><time>2026-04-15T10:38:13.248Z</time></trkpt><trkpt lat="45.0376369" lon="11.8389893"><ele>3.5</ele><time>2026-04-15T10:38:14.233Z</time></trkpt><trkpt lat="45.0376086" lon="11.8386554"><ele>4.0</ele><time>2026-04-15T10:38:15.232Z</time></trkpt><trkpt lat="45.0375739" lon="11.8383397"><ele>4.0</ele><time>2026-04-15T10:38:16.236Z</time></trkpt><trkpt lat="45.0375343" lon="11.8380209"><ele>4.0</ele><time>2026-04-15T10:38:17.225Z</time></trkpt><trkpt lat="45.037497" lon="11.8377024"><ele>3.6666666666666665</ele><time>2026-04-15T10:38:18.234Z</time></trkpt><trkpt lat="45.037461" lon="11.8373921"><ele>3.333333333333333</ele><time>2026-04-15T10:38:19.245Z</time></trkpt><trkpt lat="45.0374157" lon="11.8370935"><ele>3.0</ele><time>2026-04-15T10:38:20.227Z</time></trkpt><trkpt lat="45.0373547" lon="11.8368024"><ele>2.6666666666666665</ele><time>2026-04-15T10:38:21.246Z</time></trkpt><trkpt lat="45.0372799" lon="11.8365311"><ele>2.333333333333333</ele><time>2026-04-15T10:38:22.242Z</time></trkpt><trkpt lat="45.0372086" lon="11.8362878"><ele>2.0</ele><time>2026-04-15T10:38:23.245Z</time></trkpt><trkpt lat="45.0371512" lon="11.8360348"><ele>2.333333333333333</ele><time>2026-04-15T10:38:24.231Z</time></trkpt><trkpt lat="45.0371108" lon="11.8357628"><ele>2.6666666666666665</ele><time>2026-04-15T10:38:25.236Z</time></trkpt><trkpt lat="45.0370703" lon="11.8354561"><ele>3.0</ele><time>2026-04-15T10:38:26.229Z</time></trkpt><trkpt lat="45.0370179" lon="11.8351394"><ele>3.0</ele><time>2026-04-15T10:38:27.242Z</time></trkpt><trkpt lat="45.0369524" lon="11.8348123"><ele>3.0</ele><time>2026-04-15T10:38:28.234Z</time></trkpt><trkpt lat="45.0368832" lon="11.8344825"><ele>2.5</ele><time>2026-04-15T10:38:29.242Z</time></trkpt><trkpt lat="45.0368149" lon="11.8341591"><ele>2.0</ele><time>2026-04-15T10:38:30.242Z</time></trkpt><trkpt lat="45.036747" lon="11.8338361"><ele>2.0</ele><time>2026-04-15T10:38:31.23Z</time></trkpt><trkpt lat="45.0366827" lon="11.8335199"><ele>2.0</ele><time>2026-04-15T10:38:32.226Z</time></trkpt><trkpt lat="45.0366319" lon="11.8332"><ele>2.0</ele><time>2026-04-15T10:38:33.247Z</time></trkpt><trkpt lat="45.0365974" lon="11.8328723"><ele>2.0</ele><time>2026-04-15T10:38:34.222Z</time></trkpt><trkpt lat="45.0365778" lon="11.8325485"><ele>2.0</ele><time>2026-04-15T10:38:35.247Z</time></trkpt><trkpt lat="45.0365658" lon="11.8322368"><ele>2.0</ele><time>2026-04-15T10:38:36.24Z</time></trkpt><trkpt lat="45.0365542" lon="11.8319418"><ele>2.0</ele><time>2026-04-15T10:38:37.238Z</time></trkpt><trkpt lat="45.0365309" lon="11.8316723"><ele>2.0</ele><time>2026-04-15T10:38:38.223Z</time></trkpt><trkpt lat="45.036488" lon="11.8314149"><ele>2.0</ele><time>2026-04-15T10:38:39.247Z</time></trkpt><trkpt lat="45.0364269" lon="11.8311624"><ele>2.0</ele><time>2026-04-15T10:38:40.227Z</time></trkpt><trkpt lat="45.036344" lon="11.8309007"><ele>2.0</ele><time>2026-04-15T10:38:41.227Z</time></trkpt><trkpt lat="45.036249" lon="11.8306263"><ele>2.0</ele><time>2026-04-15T10:38:42.222Z</time></trkpt><trkpt lat="45.0361493" lon="11.8303439"><ele>2.0</ele><time>2026-04-15T10:38:43.241Z</time></trkpt><trkpt lat="45.0360575" lon="11.8300606"><ele>2.0</ele><time>2026-04-15T10:38:44.24Z</time></trkpt><trkpt lat="45.0359879" lon="11.8297687"><ele>2.0</ele><time>2026-04-15T10:38:45.24Z</time></trkpt><trkpt lat="45.0359362" lon="11.8294691"><ele>2.0</ele><time>2026-04-15T10:38:46.232Z</time></trkpt><trkpt lat="45.0359145" lon="11.8291867"><ele>2.0</ele><time>2026-04-15T10:38:47.246Z</time></trkpt><trkpt lat="45.0359062" lon="11.8289474"><ele>2.0</ele><time>2026-04-15T10:38:48.226Z</time></trkpt><trkpt lat="45.0359174" lon="11.8287399"><ele>2.0</ele><time>2026-04-15T10:38:49.243Z</time></trkpt><trkpt lat="45.0359654" lon="11.8285333"><ele>2.75</ele><time>2026-04-15T10:38:50.248Z</time></trkpt><trkpt lat="45.0360421" lon="11.8283435"><ele>3.5</ele><time>2026-04-15T10:38:51.226Z</time></trkpt><trkpt lat="45.036124" lon="11.8281764"><ele>4.25</ele><time>2026-04-15T10:38:52.241Z</time></trkpt><trkpt lat="45.0361942" lon="11.8280325"><ele>5.0</ele><time>2026-04-15T10:38:53.245Z</time></trkpt><trkpt lat="45.0362574" lon="11.8279088"><ele>5.0</ele><time>2026-04-15T10:38:54.238Z</time></trkpt><trkpt lat="45.0363276" lon="11.8277862"><ele>5.0</ele><time>2026-04-15T10:38:55.244Z</time></trkpt><trkpt lat="45.036396" lon="11.8276389"><ele>5.0</ele><time>2026-04-15T10:38:56.238Z</time></trkpt><trkpt lat="45.0364645" lon="11.8274524"><ele>5.0</ele><time>2026-04-15T10:38:57.238Z</time></trkpt><trkpt lat="45.0365422" lon="11.8272351"><ele>4.666666666666667</ele><time>2026-04-15T10:38:58.237Z</time></trkpt><trkpt lat="45.0366246" lon="11.8270054"><ele>4.333333333333333</ele><time>2026-04-15T10:38:59.246Z</time></trkpt><trkpt lat="45.0366997" lon="11.8267694"><ele>4.0</ele><time>2026-04-15T10:39:00.219Z</time></trkpt><trkpt lat="45.0367738" lon="11.8265534"><ele>4.0</ele><time>2026-04-15T10:39:01.236Z</time></trkpt><trkpt lat="45.0368378" lon="11.8263351"><ele>4.0</ele><time>2026-04-15T10:39:02.231Z</time></trkpt><trkpt lat="45.0369021" lon="11.8261206"><ele>4.0</ele><time>2026-04-15T10:39:03.242Z</time></trkpt><trkpt lat="45.0369634" lon="11.8259016"><ele>3.333333333333333</ele><time>2026-04-15T10:39:04.236Z</time></trkpt><trkpt lat="45.037022" lon="11.8256819"><ele>2.6666666666666665</ele><time>2026-04-15T10:39:05.242Z</time></trkpt><trkpt lat="45.0370702" lon="11.8254558"><ele>2.0</ele><time>2026-04-15T10:39:06.222Z</time></trkpt><trkpt lat="45.0371118" lon="11.8252251"><ele>2.0</ele><time>2026-04-15T10:39:07.235Z</time></trkpt><trkpt lat="45.0371459" lon="11.8249846"><ele>2.0</ele><time>2026-04-15T10:39:08.23Z</time></trkpt><trkpt lat="45.0371788" lon="11.8247336"><ele>2.0</ele><time>2026-04-15T10:39:09.232Z</time></trkpt><trkpt lat="45.0372043" lon="11.8244686"><ele>2.333333333333333</ele><time>2026-04-15T10:39:10.23Z</time></trkpt><trkpt lat="45.0372166" lon="11.8241952"><ele>2.6666666666666665</ele><time>2026-04-15T10:39:11.231Z</time></trkpt><trkpt lat="45.0372138" lon="11.8239035"><ele>3.0</ele><time>2026-04-15T10:39:12.237Z</time></trkpt><trkpt lat="45.0371991" lon="11.8235984"><ele>3.333333333333333</ele><time>2026-04-15T10:39:13.239Z</time></trkpt><trkpt lat="45.0371648" lon="11.823286"><ele>3.6666666666666665</ele><time>2026-04-15T10:39:14.219Z</time></trkpt><trkpt lat="45.0371208" lon="11.8229782"><ele>4.0</ele><time>2026-04-15T10:39:15.229Z</time></trkpt><trkpt lat="45.0370603" lon="11.8226664"><ele>3.6666666666666665</ele><time>2026-04-15T10:39:16.222Z</time></trkpt><trkpt lat="45.0369906" lon="11.822364"><ele>3.333333333333333</ele><time>2026-04-15T10:39:17.225Z</time></trkpt><trkpt lat="45.0369157" lon="11.8220916"><ele>3.0</ele><time>2026-04-15T10:39:18.232Z</time></trkpt><trkpt lat="45.0368104" lon="11.8218455"><ele>3.0</ele><time>2026-04-15T10:39:19.233Z</time></trkpt><trkpt lat="45.0366909" lon="11.8216093"><ele>3.0</ele><time>2026-04-15T10:39:20.226Z</time></trkpt><trkpt lat="45.0365673" lon="11.8213851"><ele>3.0</ele><time>2026-04-15T10:39:21.234Z</time></trkpt><trkpt lat="45.0364454" lon="11.8211643"><ele>2.0</ele><time>2026-04-15T10:39:22.236Z</time></trkpt><trkpt lat="45.0363181" lon="11.8209438"><ele>1.0</ele><time>2026-04-15T10:39:23.216Z</time></trkpt><trkpt lat="45.0361726" lon="11.8207431"><ele>0.0</ele><time>2026-04-15T10:39:24.235Z</time></trkpt><trkpt lat="45.0360188" lon="11.8205482"><ele>0.0</ele><time>2026-04-15T10:39:25.238Z</time></trkpt><trkpt lat="45.0358705" lon="11.820366"><ele>0.0</ele><time>2026-04-15T10:39:26.232Z</time></trkpt><trkpt lat="45.0357376" lon="11.8201958"><ele>0.0</ele><time>2026-04-15T10:39:27.228Z</time></trkpt><trkpt lat="45.0356255" lon="11.820034"><ele>0.25</ele><time>2026-04-15T10:39:28.237Z</time></trkpt><trkpt lat="45.0355352" lon="11.8198587"><ele>0.5</ele><time>2026-04-15T10:39:29.23Z</time></trkpt><trkpt lat="45.0354585" lon="11.8196766"><ele>0.75</ele><time>2026-04-15T10:39:30.234Z</time></trkpt><trkpt lat="45.0353876" lon="11.8194983"><ele>1.0</ele><time>2026-04-15T10:39:31.226Z</time></trkpt><trkpt lat="45.0353089" lon="11.8193053"><ele>1.6666666666666665</ele><time>2026-04-15T10:39:32.232Z</time></trkpt><trkpt lat="45.0352335" lon="11.8190907"><ele>2.3333333333333335</ele><time>2026-04-15T10:39:33.239Z</time></trkpt><trkpt lat="45.0351595" lon="11.8188474"><ele>3.0</ele><time>2026-04-15T10:39:34.234Z</time></trkpt><trkpt lat="45.0350975" lon="11.8185852"><ele>3.0</ele><time>2026-04-15T10:39:35.232Z</time></trkpt><trkpt lat="45.0350346" lon="11.818315"><ele>3.0</ele><time>2026-04-15T10:39:36.232Z</time></trkpt><trkpt lat="45.034967" lon="11.81803"><ele>3.0</ele><time>2026-04-15T10:39:37.23Z</time></trkpt><trkpt lat="45.0348948" lon="11.8177438"><ele>3.5</ele><time>2026-04-15T10:39:38.226Z</time></trkpt><trkpt lat="45.0348098" lon="11.8174552"><ele>4.0</ele><time>2026-04-15T10:39:39.237Z</time></trkpt><trkpt lat="45.0347037" lon="11.8171646"><ele>4.0</ele><time>2026-04-15T10:39:40.22Z</time></trkpt><trkpt lat="45.03459" lon="11.8168742"><ele>4.0</ele><time>2026-04-15T10:39:41.232Z</time></trkpt><trkpt lat="45.0344721" lon="11.8165789"><ele>4.5</ele><time>2026-04-15T10:39:42.226Z</time></trkpt><trkpt lat="45.0343616" lon="11.8162808"><ele>5.0</ele><time>2026-04-15T10:39:43.246Z</time></trkpt><trkpt lat="45.0342599" lon="11.8159873"><ele>5.0</ele><time>2026-04-15T10:39:44.235Z</time></trkpt><trkpt lat="45.0341673" lon="11.8157074"><ele>5.0</ele><time>2026-04-15T10:39:45.232Z</time></trkpt><trkpt lat="45.0340636" lon="11.8154363"><ele>5.0</ele><time>2026-04-15T10:39:46.226Z</time></trkpt><trkpt lat="45.0339561" lon="11.8151768"><ele>4.333333333333334</ele><time>2026-04-15T10:39:47.231Z</time></trkpt><trkpt lat="45.0338451" lon="11.8149334"><ele>3.666666666666667</ele><time>2026-04-15T10:39:48.219Z</time></trkpt><trkpt lat="45.0337343" lon="11.8146945"><ele>3.0</ele><time>2026-04-15T10:39:49.244Z</time></trkpt><trkpt lat="45.033605" lon="11.8144695"><ele>3.5</ele><time>2026-04-15T10:39:50.223Z</time></trkpt><trkpt lat="45.0334525" lon="11.8142368"><ele>4.0</ele><time>2026-04-15T10:39:51.229Z</time></trkpt><trkpt lat="45.0332878" lon="11.8140066"><ele>4.0</ele><time>2026-04-15T10:39:52.224Z</time></trkpt><trkpt lat="45.0331276" lon="11.8137873"><ele>4.0</ele><time>2026-04-15T10:39:53.237Z</time></trkpt><trkpt lat="45.0329807" lon="11.8135957"><ele>4.0</ele><time>2026-04-15T10:39:54.226Z</time></trkpt><trkpt lat="45.0328341" lon="11.8134384"><ele>4.0</ele><time>2026-04-15T10:39:55.226Z</time></trkpt><trkpt lat="45.0326993" lon="11.8133289"><ele>4.0</ele><time>2026-04-15T10:39:56.236Z</time></trkpt><trkpt lat="45.0325378" lon="11.8132208"><ele>4.0</ele><time>2026-04-15T10:39:57.229Z</time></trkpt><trkpt lat="45.0323665" lon="11.8131185"><ele>3.0</ele><time>2026-04-15T10:39:58.235Z</time></trkpt><trkpt lat="45.0322115" lon="11.8130201"><ele>2.0</ele><time>2026-04-15T10:39:59.242Z</time></trkpt><trkpt lat="45.0320716" lon="11.8129093"><ele>1.0</ele><time>2026-04-15T10:40:00.225Z</time></trkpt><trkpt lat="45.0319387" lon="11.8127756"><ele>0.6666666666666666</ele><time>2026-04-15T10:40:01.228Z</time></trkpt><trkpt lat="45.0318152" lon="11.8126251"><ele>0.3333333333333333</ele><time>2026-04-15T10:40:02.225Z</time></trkpt><trkpt lat="45.0317112" lon="11.8124438"><ele>0.0</ele><time>2026-04-15T10:40:03.245Z</time></trkpt><trkpt lat="45.0316136" lon="11.8122494"><ele>0.0</ele><time>2026-04-15T10:40:04.222Z</time></trkpt><trkpt lat="45.0315196" lon="11.812043"><ele>0.0</ele><time>2026-04-15T10:40:05.226Z</time></trkpt><trkpt lat="45.0314429" lon="11.8118313"><ele>0.0</ele><time>2026-04-15T10:40:06.23Z</time></trkpt><trkpt lat="45.0313853" lon="11.8116087"><ele>0.3333333333333333</ele><time>2026-04-15T10:40:07.227Z</time></trkpt><trkpt lat="45.0313497" lon="11.8113639"><ele>0.6666666666666666</ele><time>2026-04-15T10:40:08.222Z</time></trkpt><trkpt lat="45.0313324" lon="11.8111062"><ele>1.0</ele><time>2026-04-15T10:40:09.219Z</time></trkpt><trkpt lat="45.0313295" lon="11.8108343"><ele>1.3333333333333333</ele><time>2026-04-15T10:40:10.223Z</time></trkpt><trkpt lat="45.0313454" lon="11.8105345"><ele>1.6666666666666665</ele><time>2026-04-15T10:40:11.244Z</time></trkpt><trkpt lat="45.0313661" lon="11.8102399"><ele>2.0</ele><time>2026-04-15T10:40:12.232Z</time></trkpt><trkpt lat="45.0313899" lon="11.8099382"><ele>2.333333333333333</ele><time>2026-04-15T10:40:13.219Z</time></trkpt><trkpt lat="45.0314115" lon="11.809648"><ele>2.6666666666666665</ele><time>2026-04-15T10:40:14.21Z</time></trkpt><trkpt lat="45.031421" lon="11.809379"><ele>3.0</ele><time>2026-04-15T10:40:15.229Z</time></trkpt><trkpt lat="45.0314139" lon="11.8091178"><ele>3.0</ele><time>2026-04-15T10:40:16.223Z</time></trkpt><trkpt lat="45.0313987" lon="11.8088637"><ele>3.0</ele><time>2026-04-15T10:40:17.231Z</time></trkpt><trkpt lat="45.0313751" lon="11.8086208"><ele>3.0</ele><time>2026-04-15T10:40:18.231Z</time></trkpt><trkpt lat="45.0313452" lon="11.8083972"><ele>2.6666666666666665</ele><time>2026-04-15T10:40:19.227Z</time></trkpt><trkpt lat="45.0312911" lon="11.8081839"><ele>2.333333333333333</ele><time>2026-04-15T10:40:20.238Z</time></trkpt><trkpt lat="45.0312203" lon="11.807986"><ele>2.0</ele><time>2026-04-15T10:40:21.225Z</time></trkpt><trkpt lat="45.0311262" lon="11.8077785"><ele>2.333333333333333</ele><time>2026-04-15T10:40:22.221Z</time></trkpt><trkpt lat="45.0309992" lon="11.8075641"><ele>2.6666666666666665</ele><time>2026-04-15T10:40:23.224Z</time></trkpt><trkpt lat="45.0308719" lon="11.807378"><ele>3.0</ele><time>2026-04-15T10:40:24.216Z</time></trkpt><trkpt lat="45.0307563" lon="11.8072188"><ele>3.2</ele><time>2026-04-15T10:40:25.227Z</time></trkpt><trkpt lat="45.0306565" lon="11.8070972"><ele>3.4</ele><time>2026-04-15T10:40:26.209Z</time></trkpt><trkpt lat="45.0305779" lon="11.8070025"><ele>3.6000000000000005</ele><time>2026-04-15T10:40:27.229Z</time></trkpt><trkpt lat="45.0305276" lon="11.806936"><ele>3.8000000000000003</ele><time>2026-04-15T10:40:28.23Z</time></trkpt><trkpt lat="45.0304517" lon="11.8068516"><ele>4.0</ele><time>2026-04-15T10:40:31.217Z</time></trkpt><trkpt lat="45.030374" lon="11.8067618"><ele>4.0</ele><time>2026-04-15T10:40:32.23Z</time></trkpt><trkpt lat="45.0302741" lon="11.8066538"><ele>4.0</ele><time>2026-04-15T10:40:33.226Z</time></trkpt><trkpt lat="45.030147" lon="11.8065283"><ele>4.0</ele><time>2026-04-15T10:40:34.219Z</time></trkpt><trkpt lat="45.0300121" lon="11.8063878"><ele>4.0</ele><time>2026-04-15T10:40:35.241Z</time></trkpt><trkpt lat="45.0298589" lon="11.8062271"><ele>4.0</ele><time>2026-04-15T10:40:36.226Z</time></trkpt><trkpt lat="45.0296958" lon="11.806058"><ele>4.0</ele><time>2026-04-15T10:40:37.239Z</time></trkpt><trkpt lat="45.0295331" lon="11.805884"><ele>4.0</ele><time>2026-04-15T10:40:38.219Z</time></trkpt><trkpt lat="45.0293717" lon="11.8057097"><ele>4.0</ele><time>2026-04-15T10:40:39.226Z</time></trkpt><trkpt lat="45.0292152" lon="11.8055496"><ele>4.0</ele><time>2026-04-15T10:40:40.239Z</time></trkpt><trkpt lat="45.0290627" lon="11.8054038"><ele>4.0</ele><time>2026-04-15T10:40:41.231Z</time></trkpt><trkpt lat="45.0289179" lon="11.8052474"><ele>4.0</ele><time>2026-04-15T10:40:42.235Z</time></trkpt><trkpt lat="45.028777" lon="11.8050583"><ele>4.0</ele><time>2026-04-15T10:40:43.242Z</time></trkpt><trkpt lat="45.028647" lon="11.8048392"><ele>4.0</ele><time>2026-04-15T10:40:44.224Z</time></trkpt><trkpt lat="45.0285313" lon="11.8045921"><ele>4.0</ele><time>2026-04-15T10:40:45.215Z</time></trkpt><trkpt lat="45.0284046" lon="11.8043443"><ele>4.0</ele><time>2026-04-15T10:40:46.222Z</time></trkpt><trkpt lat="45.0282745" lon="11.804099"><ele>4.0</ele><time>2026-04-15T10:40:47.238Z</time></trkpt><trkpt lat="45.028138" lon="11.8038568"><ele>3.6666666666666665</ele><time>2026-04-15T10:40:48.217Z</time></trkpt><trkpt lat="45.0280037" lon="11.8036095"><ele>3.333333333333333</ele><time>2026-04-15T10:40:49.229Z</time></trkpt><trkpt lat="45.0278775" lon="11.8033631"><ele>3.0</ele><time>2026-04-15T10:40:50.216Z</time></trkpt><trkpt lat="45.0277565" lon="11.8031155"><ele>3.0</ele><time>2026-04-15T10:40:51.232Z</time></trkpt><trkpt lat="45.0276397" lon="11.8028642"><ele>3.0</ele><time>2026-04-15T10:40:52.21Z</time></trkpt><trkpt lat="45.0275305" lon="11.8026172"><ele>3.0</ele><time>2026-04-15T10:40:53.21Z</time></trkpt><trkpt lat="45.0274256" lon="11.8023621"><ele>2.6666666666666665</ele><time>2026-04-15T10:40:54.229Z</time></trkpt><trkpt lat="45.0273099" lon="11.8021175"><ele>2.333333333333333</ele><time>2026-04-15T10:40:55.222Z</time></trkpt><trkpt lat="45.0271738" lon="11.8018746"><ele>2.0</ele><time>2026-04-15T10:40:56.224Z</time></trkpt><trkpt lat="45.0270214" lon="11.8016291"><ele>1.5</ele><time>2026-04-15T10:40:57.22Z</time></trkpt><trkpt lat="45.0268636" lon="11.8013879"><ele>1.0</ele><time>2026-04-15T10:40:58.217Z</time></trkpt><trkpt lat="45.0267066" lon="11.8011555"><ele>1.3333333333333333</ele><time>2026-04-15T10:40:59.221Z</time></trkpt><trkpt lat="45.0265534" lon="11.8009256"><ele>1.6666666666666665</ele><time>2026-04-15T10:41:00.219Z</time></trkpt><trkpt lat="45.0264045" lon="11.8007031"><ele>2.0</ele><time>2026-04-15T10:41:01.24Z</time></trkpt><trkpt lat="45.0262605" lon="11.8004869"><ele>2.0</ele><time>2026-04-15T10:41:02.225Z</time></trkpt><trkpt lat="45.0261145" lon="11.8002762"><ele>2.0</ele><time>2026-04-15T10:41:03.219Z</time></trkpt><trkpt lat="45.0259727" lon="11.800067"><ele>2.0</ele><time>2026-04-15T10:41:04.235Z</time></trkpt><trkpt lat="45.0258272" lon="11.7998568"><ele>2.0</ele><time>2026-04-15T10:41:05.231Z</time></trkpt><trkpt lat="45.0256829" lon="11.7996509"><ele>2.0</ele><time>2026-04-15T10:41:06.224Z</time></trkpt><trkpt lat="45.0255294" lon="11.7994322"><ele>2.0</ele><time>2026-04-15T10:41:07.236Z</time></trkpt><trkpt lat="45.0253612" lon="11.7991895"><ele>2.0</ele><time>2026-04-15T10:41:08.225Z</time></trkpt><trkpt lat="45.0252" lon="11.7989303"><ele>2.0</ele><time>2026-04-15T10:41:09.226Z</time></trkpt><trkpt lat="45.0250385" lon="11.798673"><ele>1.5</ele><time>2026-04-15T10:41:10.218Z</time></trkpt><trkpt lat="45.0248713" lon="11.7984214"><ele>1.0</ele><time>2026-04-15T10:41:11.224Z</time></trkpt><trkpt lat="45.0247036" lon="11.7981672"><ele>1.0</ele><time>2026-04-15T10:41:12.229Z</time></trkpt><trkpt lat="45.0245335" lon="11.7979202"><ele>1.0</ele><time>2026-04-15T10:41:13.234Z</time></trkpt><trkpt lat="45.0243655" lon="11.7976782"><ele>1.0</ele><time>2026-04-15T10:41:14.231Z</time></trkpt><trkpt lat="45.0242014" lon="11.7974378"><ele>1.0</ele><time>2026-04-15T10:41:15.209Z</time></trkpt><trkpt lat="45.0240407" lon="11.797196"><ele>1.5</ele><time>2026-04-15T10:41:16.218Z</time></trkpt><trkpt lat="45.0238806" lon="11.7969537"><ele>2.0</ele><time>2026-04-15T10:41:17.207Z</time></trkpt><trkpt lat="45.0237181" lon="11.796717"><ele>2.0</ele><time>2026-04-15T10:41:18.227Z</time></trkpt><trkpt lat="45.0235621" lon="11.7964867"><ele>2.0</ele><time>2026-04-15T10:41:19.213Z</time></trkpt><trkpt lat="45.0234087" lon="11.7962587"><ele>2.0</ele><time>2026-04-15T10:41:20.217Z</time></trkpt><trkpt lat="45.0232591" lon="11.7960263"><ele>2.0</ele><time>2026-04-15T10:41:21.218Z</time></trkpt><trkpt lat="45.0229571" lon="11.7955632"><ele>2.0</ele><time>2026-04-15T10:41:23.216Z</time></trkpt><trkpt lat="45.0228033" lon="11.7953363"><ele>2.0</ele><time>2026-04-15T10:41:24.211Z</time></trkpt><trkpt lat="45.0226489" lon="11.7951089"><ele>2.0</ele><time>2026-04-15T10:41:25.227Z</time></trkpt><trkpt lat="45.0224968" lon="11.7948794"><ele>2.0</ele><time>2026-04-15T10:41:26.246Z</time></trkpt><trkpt lat="45.0223464" lon="11.7946481"><ele>2.0</ele><time>2026-04-15T10:41:27.223Z</time></trkpt><trkpt lat="45.0221938" lon="11.7944159"><ele>2.0</ele><time>2026-04-15T10:41:28.218Z</time></trkpt><trkpt lat="45.0220424" lon="11.7941854"><ele>2.0</ele><time>2026-04-15T10:41:29.211Z</time></trkpt><trkpt lat="45.0217256" lon="11.7937192"><ele>2.0</ele><time>2026-04-15T10:41:31.231Z</time></trkpt><trkpt lat="45.0215696" lon="11.7934854"><ele>2.0</ele><time>2026-04-15T10:41:32.221Z</time></trkpt><trkpt lat="45.0214175" lon="11.7932619"><ele>2.0</ele><time>2026-04-15T10:41:33.217Z</time></trkpt><trkpt lat="45.0212803" lon="11.7930632"><ele>2.0</ele><time>2026-04-15T10:41:34.217Z</time></trkpt><trkpt lat="45.0211596" lon="11.7928799"><ele>2.0</ele><time>2026-04-15T10:41:35.223Z</time></trkpt><trkpt lat="45.021046" lon="11.7927079"><ele>2.0</ele><time>2026-04-15T10:41:36.226Z</time></trkpt><trkpt lat="45.0209386" lon="11.7925474"><ele>2.6666666666666665</ele><time>2026-04-15T10:41:37.216Z</time></trkpt><trkpt lat="45.020837" lon="11.7923936"><ele>3.333333333333333</ele><time>2026-04-15T10:41:38.219Z</time></trkpt><trkpt lat="45.0207328" lon="11.7922429"><ele>4.0</ele><time>2026-04-15T10:41:39.229Z</time></trkpt><trkpt lat="45.0206228" lon="11.7920874"><ele>4.0</ele><time>2026-04-15T10:41:40.238Z</time></trkpt><trkpt lat="45.0205176" lon="11.7919314"><ele>4.0</ele><time>2026-04-15T10:41:41.221Z</time></trkpt><trkpt lat="45.0204085" lon="11.7917766"><ele>4.0</ele><time>2026-04-15T10:41:42.226Z</time></trkpt><trkpt lat="45.0203014" lon="11.7916249"><ele>4.333333333333333</ele><time>2026-04-15T10:41:43.239Z</time></trkpt><trkpt lat="45.0201906" lon="11.7914642"><ele>4.666666666666667</ele><time>2026-04-15T10:41:44.213Z</time></trkpt><trkpt lat="45.0200774" lon="11.7912858"><ele>5.0</ele><time>2026-04-15T10:41:45.219Z</time></trkpt><trkpt lat="45.0199557" lon="11.7910959"><ele>4.0</ele><time>2026-04-15T10:41:46.223Z</time></trkpt><trkpt lat="45.0198209" lon="11.7908939"><ele>3.0</ele><time>2026-04-15T10:41:47.229Z</time></trkpt><trkpt lat="45.0196841" lon="11.7906871"><ele>2.0</ele><time>2026-04-15T10:41:48.222Z</time></trkpt><trkpt lat="45.0195392" lon="11.7904756"><ele>2.0</ele><time>2026-04-15T10:41:49.222Z</time></trkpt><trkpt lat="45.0193986" lon="11.7902584"><ele>2.0</ele><time>2026-04-15T10:41:50.224Z</time></trkpt><trkpt lat="45.0192591" lon="11.7900437"><ele>2.0</ele><time>2026-04-15T10:41:51.206Z</time></trkpt><trkpt lat="45.0191164" lon="11.789825"><ele>2.0</ele><time>2026-04-15T10:41:52.217Z</time></trkpt><trkpt lat="45.0189716" lon="11.7896069"><ele>2.0</ele><time>2026-04-15T10:41:53.222Z</time></trkpt><trkpt lat="45.0188208" lon="11.7893839"><ele>2.0</ele><time>2026-04-15T10:41:54.219Z</time></trkpt><trkpt lat="45.0186658" lon="11.789157"><ele>2.0</ele><time>2026-04-15T10:41:55.226Z</time></trkpt><trkpt lat="45.0185078" lon="11.7889293"><ele>2.0</ele><time>2026-04-15T10:41:56.214Z</time></trkpt><trkpt lat="45.0183507" lon="11.7887001"><ele>2.5</ele><time>2026-04-15T10:41:57.199Z</time></trkpt><trkpt lat="45.0181934" lon="11.7884665"><ele>3.0</ele><time>2026-04-15T10:41:58.212Z</time></trkpt><trkpt lat="45.0180352" lon="11.7882341"><ele>3.0</ele><time>2026-04-15T10:41:59.239Z</time></trkpt><trkpt lat="45.0178791" lon="11.7880014"><ele>3.0</ele><time>2026-04-15T10:42:00.202Z</time></trkpt><trkpt lat="45.0177215" lon="11.7877675"><ele>3.0</ele><time>2026-04-15T10:42:01.229Z</time></trkpt><trkpt lat="45.0175589" lon="11.7875334"><ele>3.0</ele><time>2026-04-15T10:42:02.206Z</time></trkpt><trkpt lat="45.0173998" lon="11.787296"><ele>3.0</ele><time>2026-04-15T10:42:03.222Z</time></trkpt><trkpt lat="45.0172451" lon="11.7870663"><ele>3.0</ele><time>2026-04-15T10:42:04.208Z</time></trkpt><trkpt lat="45.0170976" lon="11.7868414"><ele>3.0</ele><time>2026-04-15T10:42:05.218Z</time></trkpt><trkpt lat="45.0169545" lon="11.786631"><ele>3.0</ele><time>2026-04-15T10:42:06.221Z</time></trkpt><trkpt lat="45.0168247" lon="11.7864341"><ele>3.0</ele><time>2026-04-15T10:42:07.225Z</time></trkpt><trkpt lat="45.0167009" lon="11.7862482"><ele>3.0</ele><time>2026-04-15T10:42:08.226Z</time></trkpt><trkpt lat="45.0165817" lon="11.7860667"><ele>3.0</ele><time>2026-04-15T10:42:09.22Z</time></trkpt><trkpt lat="45.0164466" lon="11.7858707"><ele>3.0</ele><time>2026-04-15T10:42:10.22Z</time></trkpt><trkpt lat="45.0162997" lon="11.7856506"><ele>3.0</ele><time>2026-04-15T10:42:11.214Z</time></trkpt><trkpt lat="45.0161436" lon="11.7854198"><ele>3.0</ele><time>2026-04-15T10:42:12.218Z</time></trkpt><trkpt lat="45.0159859" lon="11.7851865"><ele>3.0</ele><time>2026-04-15T10:42:13.217Z</time></trkpt><trkpt lat="45.0158334" lon="11.7849613"><ele>3.0</ele><time>2026-04-15T10:42:14.215Z</time></trkpt><trkpt lat="45.0156819" lon="11.7847452"><ele>2.6666666666666665</ele><time>2026-04-15T10:42:15.226Z</time></trkpt><trkpt lat="45.0155228" lon="11.784531"><ele>2.333333333333333</ele><time>2026-04-15T10:42:16.219Z</time></trkpt><trkpt lat="45.0153563" lon="11.7843068"><ele>2.0</ele><time>2026-04-15T10:42:17.222Z</time></trkpt><trkpt lat="45.0151943" lon="11.7840689"><ele>2.0</ele><time>2026-04-15T10:42:18.213Z</time></trkpt><trkpt lat="45.0150272" lon="11.7838199"><ele>2.0</ele><time>2026-04-15T10:42:19.211Z</time></trkpt><trkpt lat="45.0148597" lon="11.7835671"><ele>2.5</ele><time>2026-04-15T10:42:20.209Z</time></trkpt><trkpt lat="45.0146877" lon="11.7833109"><ele>3.0</ele><time>2026-04-15T10:42:21.231Z</time></trkpt><trkpt lat="45.0145149" lon="11.7830553"><ele>3.0</ele><time>2026-04-15T10:42:22.202Z</time></trkpt><trkpt lat="45.0143416" lon="11.782801"><ele>3.0</ele><time>2026-04-15T10:42:23.232Z</time></trkpt><trkpt lat="45.014169" lon="11.782548"><ele>4.0</ele><time>2026-04-15T10:42:24.205Z</time></trkpt><trkpt lat="45.0139978" lon="11.7822944"><ele>5.0</ele><time>2026-04-15T10:42:25.205Z</time></trkpt><trkpt lat="45.0138255" lon="11.7820385"><ele>4.0</ele><time>2026-04-15T10:42:26.209Z</time></trkpt><trkpt lat="45.0134761" lon="11.7815288"><ele>3.5</ele><time>2026-04-15T10:42:28.216Z</time></trkpt><trkpt lat="45.0133065" lon="11.7812751"><ele>3.0</ele><time>2026-04-15T10:42:29.211Z</time></trkpt><trkpt lat="45.0131395" lon="11.7810201"><ele>2.5</ele><time>2026-04-15T10:42:30.216Z</time></trkpt><trkpt lat="45.0129734" lon="11.7807691"><ele>2.0</ele><time>2026-04-15T10:42:31.216Z</time></trkpt><trkpt lat="45.0128063" lon="11.780518"><ele>2.0</ele><time>2026-04-15T10:42:32.196Z</time></trkpt><trkpt lat="45.0126399" lon="11.7802685"><ele>2.0</ele><time>2026-04-15T10:42:33.227Z</time></trkpt><trkpt lat="45.0124742" lon="11.7800207"><ele>2.5</ele><time>2026-04-15T10:42:34.216Z</time></trkpt><trkpt lat="45.012313" lon="11.7797765"><ele>3.0</ele><time>2026-04-15T10:42:35.209Z</time></trkpt><trkpt lat="45.0121523" lon="11.779532"><ele>2.5</ele><time>2026-04-15T10:42:36.209Z</time></trkpt><trkpt lat="45.0119887" lon="11.7792875"><ele>2.0</ele><time>2026-04-15T10:42:37.203Z</time></trkpt><trkpt lat="45.0118255" lon="11.7790428"><ele>2.0</ele><time>2026-04-15T10:42:38.202Z</time></trkpt><trkpt lat="45.0116626" lon="11.7787988"><ele>2.0</ele><time>2026-04-15T10:42:39.21Z</time></trkpt><trkpt lat="45.0115007" lon="11.7785565"><ele>2.5</ele><time>2026-04-15T10:42:40.208Z</time></trkpt><trkpt lat="45.0113386" lon="11.7783133"><ele>3.0</ele><time>2026-04-15T10:42:41.216Z</time></trkpt><trkpt lat="45.0111761" lon="11.7780717"><ele>3.0</ele><time>2026-04-15T10:42:42.219Z</time></trkpt><trkpt lat="45.0110128" lon="11.7778282"><ele>3.0</ele><time>2026-04-15T10:42:43.216Z</time></trkpt><trkpt lat="45.0108526" lon="11.7775874"><ele>3.333333333333333</ele><time>2026-04-15T10:42:44.223Z</time></trkpt><trkpt lat="45.0106979" lon="11.7773614"><ele>3.6666666666666665</ele><time>2026-04-15T10:42:45.215Z</time></trkpt><trkpt lat="45.0105543" lon="11.7771518"><ele>4.0</ele><time>2026-04-15T10:42:46.214Z</time></trkpt><trkpt lat="45.0104228" lon="11.7769539"><ele>3.6666666666666665</ele><time>2026-04-15T10:42:47.211Z</time></trkpt><trkpt lat="45.0103031" lon="11.7767746"><ele>3.333333333333333</ele><time>2026-04-15T10:42:48.211Z</time></trkpt><trkpt lat="45.0101939" lon="11.7766159"><ele>3.0</ele><time>2026-04-15T10:42:49.224Z</time></trkpt><trkpt lat="45.0101029" lon="11.7764737"><ele>3.0</ele><time>2026-04-15T10:42:50.211Z</time></trkpt><trkpt lat="45.0100239" lon="11.7763523"><ele>3.0</ele><time>2026-04-15T10:42:51.208Z</time></trkpt><trkpt lat="45.0099461" lon="11.7762394"><ele>3.0</ele><time>2026-04-15T10:42:52.21Z</time></trkpt><trkpt lat="45.0098531" lon="11.7760959"><ele>3.0</ele><time>2026-04-15T10:42:53.199Z</time></trkpt><trkpt lat="45.0097355" lon="11.7759133"><ele>2.3333333333333335</ele><time>2026-04-15T10:42:54.201Z</time></trkpt><trkpt lat="45.0096058" lon="11.7757136"><ele>1.6666666666666665</ele><time>2026-04-15T10:42:55.207Z</time></trkpt><trkpt lat="45.0094669" lon="11.7755074"><ele>1.0</ele><time>2026-04-15T10:42:56.206Z</time></trkpt><trkpt lat="45.0093203" lon="11.7752934"><ele>1.0</ele><time>2026-04-15T10:42:57.202Z</time></trkpt><trkpt lat="45.0091709" lon="11.7750728"><ele>1.0</ele><time>2026-04-15T10:42:58.228Z</time></trkpt><trkpt lat="45.0090193" lon="11.774851"><ele>1.0</ele><time>2026-04-15T10:42:59.221Z</time></trkpt><trkpt lat="45.0088681" lon="11.7746267"><ele>1.0</ele><time>2026-04-15T10:43:00.206Z</time></trkpt><trkpt lat="45.0087155" lon="11.7744019"><ele>1.0</ele><time>2026-04-15T10:43:01.221Z</time></trkpt><trkpt lat="45.0085657" lon="11.7741774"><ele>1.0</ele><time>2026-04-15T10:43:02.202Z</time></trkpt><trkpt lat="45.0084219" lon="11.7739575"><ele>1.3333333333333333</ele><time>2026-04-15T10:43:03.207Z</time></trkpt><trkpt lat="45.0082832" lon="11.7737415"><ele>1.6666666666666665</ele><time>2026-04-15T10:43:04.2Z</time></trkpt><trkpt lat="45.008146" lon="11.7735355"><ele>2.0</ele><time>2026-04-15T10:43:05.19Z</time></trkpt><trkpt lat="45.0080143" lon="11.7733431"><ele>2.333333333333333</ele><time>2026-04-15T10:43:06.203Z</time></trkpt><trkpt lat="45.0078995" lon="11.7731658"><ele>2.6666666666666665</ele><time>2026-04-15T10:43:07.214Z</time></trkpt><trkpt lat="45.0077936" lon="11.7730083"><ele>3.0</ele><time>2026-04-15T10:43:08.212Z</time></trkpt><trkpt lat="45.0076894" lon="11.7728859"><ele>3.0</ele><time>2026-04-15T10:43:09.22Z</time></trkpt><trkpt lat="45.0075895" lon="11.7728166"><ele>3.0</ele><time>2026-04-15T10:43:10.212Z</time></trkpt><trkpt lat="45.0074849" lon="11.7728243"><ele>3.0</ele><time>2026-04-15T10:43:11.205Z</time></trkpt><trkpt lat="45.0073759" lon="11.7728882"><ele>3.0</ele><time>2026-04-15T10:43:12.224Z</time></trkpt><trkpt lat="45.0072661" lon="11.7729697"><ele>3.666666666666667</ele><time>2026-04-15T10:43:13.22Z</time></trkpt><trkpt lat="45.0071398" lon="11.7730623"><ele>4.333333333333334</ele><time>2026-04-15T10:43:14.216Z</time></trkpt><trkpt lat="45.007004" lon="11.7731774"><ele>5.0</ele><time>2026-04-15T10:43:15.214Z</time></trkpt><trkpt lat="45.0068573" lon="11.7732986"><ele>5.0</ele><time>2026-04-15T10:43:16.219Z</time></trkpt><trkpt lat="45.0067285" lon="11.7733937"><ele>5.0</ele><time>2026-04-15T10:43:17.215Z</time></trkpt><trkpt lat="45.0066168" lon="11.7734618"><ele>5.0</ele><time>2026-04-15T10:43:18.211Z</time></trkpt><trkpt lat="45.0065049" lon="11.7734887"><ele>5.0</ele><time>2026-04-15T10:43:19.214Z</time></trkpt><trkpt lat="45.0063733" lon="11.7734743"><ele>5.0</ele><time>2026-04-15T10:43:20.215Z</time></trkpt><trkpt lat="45.0062129" lon="11.7734633"><ele>5.0</ele><time>2026-04-15T10:43:21.198Z</time></trkpt><trkpt lat="45.0060398" lon="11.7734365"><ele>5.0</ele><time>2026-04-15T10:43:22.2Z</time></trkpt><trkpt lat="45.0058792" lon="11.773403"><ele>4.666666666666667</ele><time>2026-04-15T10:43:23.206Z</time></trkpt><trkpt lat="45.0057271" lon="11.7733434"><ele>4.333333333333333</ele><time>2026-04-15T10:43:24.208Z</time></trkpt><trkpt lat="45.0055759" lon="11.7732592"><ele>4.0</ele><time>2026-04-15T10:43:25.206Z</time></trkpt><trkpt lat="45.0054193" lon="11.7731293"><ele>4.0</ele><time>2026-04-15T10:43:26.218Z</time></trkpt><trkpt lat="45.0052587" lon="11.7729886"><ele>4.0</ele><time>2026-04-15T10:43:27.21Z</time></trkpt><trkpt lat="45.0051021" lon="11.7728389"><ele>4.0</ele><time>2026-04-15T10:43:28.201Z</time></trkpt><trkpt lat="45.004951" lon="11.7726822"><ele>4.0</ele><time>2026-04-15T10:43:29.192Z</time></trkpt><trkpt lat="45.0048051" lon="11.772516"><ele>4.0</ele><time>2026-04-15T10:43:30.218Z</time></trkpt><trkpt lat="45.0046671" lon="11.7723475"><ele>4.0</ele><time>2026-04-15T10:43:31.212Z</time></trkpt><trkpt lat="45.0045413" lon="11.7721714"><ele>4.0</ele><time>2026-04-15T10:43:32.202Z</time></trkpt><trkpt lat="45.0044202" lon="11.7719906"><ele>4.0</ele><time>2026-04-15T10:43:33.213Z</time></trkpt><trkpt lat="45.0043107" lon="11.7718024"><ele>4.0</ele><time>2026-04-15T10:43:34.206Z</time></trkpt><trkpt lat="45.0042037" lon="11.7716135"><ele>3.5</ele><time>2026-04-15T10:43:35.208Z</time></trkpt><trkpt lat="45.0040077" lon="11.7712396"><ele>3.0</ele><time>2026-04-15T10:43:37.222Z</time></trkpt><trkpt lat="45.0039115" lon="11.7710517"><ele>3.333333333333333</ele><time>2026-04-15T10:43:38.197Z</time></trkpt><trkpt lat="45.0038126" lon="11.770865"><ele>3.6666666666666665</ele><time>2026-04-15T10:43:39.212Z</time></trkpt><trkpt lat="45.0037237" lon="11.7706806"><ele>4.0</ele><time>2026-04-15T10:43:40.215Z</time></trkpt><trkpt lat="45.0036339" lon="11.7704931"><ele>4.0</ele><time>2026-04-15T10:43:41.232Z</time></trkpt><trkpt lat="45.0035484" lon="11.7703023"><ele>4.0</ele><time>2026-04-15T10:43:42.213Z</time></trkpt><trkpt lat="45.0034651" lon="11.7701099"><ele>4.0</ele><time>2026-04-15T10:43:43.202Z</time></trkpt><trkpt lat="45.0033907" lon="11.7699143"><ele>4.0</ele><time>2026-04-15T10:43:44.212Z</time></trkpt><trkpt lat="45.0033247" lon="11.7697103"><ele>4.0</ele><time>2026-04-15T10:43:45.194Z</time></trkpt><trkpt lat="45.0032681" lon="11.7695049"><ele>4.0</ele><time>2026-04-15T10:43:46.216Z</time></trkpt><trkpt lat="45.0032117" lon="11.7692988"><ele>4.333333333333333</ele><time>2026-04-15T10:43:47.207Z</time></trkpt><trkpt lat="45.0031563" lon="11.7690894"><ele>4.666666666666667</ele><time>2026-04-15T10:43:48.22Z</time></trkpt><trkpt lat="45.0031033" lon="11.7688766"><ele>5.0</ele><time>2026-04-15T10:43:49.2Z</time></trkpt><trkpt lat="45.0030496" lon="11.7686577"><ele>4.666666666666667</ele><time>2026-04-15T10:43:50.217Z</time></trkpt><trkpt lat="45.0030013" lon="11.7684436"><ele>4.333333333333333</ele><time>2026-04-15T10:43:51.218Z</time></trkpt><trkpt lat="45.0029563" lon="11.7682263"><ele>4.0</ele><time>2026-04-15T10:43:52.198Z</time></trkpt><trkpt lat="45.0029136" lon="11.768004"><ele>4.0</ele><time>2026-04-15T10:43:53.201Z</time></trkpt><trkpt lat="45.0028737" lon="11.7677716"><ele>4.0</ele><time>2026-04-15T10:43:54.222Z</time></trkpt><trkpt lat="45.0028397" lon="11.7675374"><ele>4.0</ele><time>2026-04-15T10:43:55.198Z</time></trkpt><trkpt lat="45.0028112" lon="11.7673076"><ele>4.0</ele><time>2026-04-15T10:43:56.185Z</time></trkpt><trkpt lat="45.0027844" lon="11.7670816"><ele>4.0</ele><time>2026-04-15T10:43:57.196Z</time></trkpt><trkpt lat="45.0027605" lon="11.7668509"><ele>4.0</ele><time>2026-04-15T10:43:58.194Z</time></trkpt><trkpt lat="45.0027359" lon="11.7666238"><ele>4.0</ele><time>2026-04-15T10:43:59.201Z</time></trkpt><trkpt lat="45.0027238" lon="11.7663966"><ele>4.0</ele><time>2026-04-15T10:44:00.206Z</time></trkpt><trkpt lat="45.002716" lon="11.7661677"><ele>4.0</ele><time>2026-04-15T10:44:01.21Z</time></trkpt><trkpt lat="45.0027064" lon="11.7659477"><ele>4.0</ele><time>2026-04-15T10:44:02.194Z</time></trkpt><trkpt lat="45.0026841" lon="11.7657301"><ele>4.0</ele><time>2026-04-15T10:44:03.205Z</time></trkpt><trkpt lat="45.0026325" lon="11.7655015"><ele>4.0</ele><time>2026-04-15T10:44:04.186Z</time></trkpt><trkpt lat="45.0025778" lon="11.7652865"><ele>3.75</ele><time>2026-04-15T10:44:05.216Z</time></trkpt><trkpt lat="45.0025131" lon="11.7650898"><ele>3.5</ele><time>2026-04-15T10:44:06.219Z</time></trkpt><trkpt lat="45.0024502" lon="11.7649364"><ele>3.25</ele><time>2026-04-15T10:44:07.195Z</time></trkpt><trkpt lat="45.0023905" lon="11.7647898"><ele>3.0</ele><time>2026-04-15T10:44:08.209Z</time></trkpt><trkpt lat="45.0023281" lon="11.764652"><ele>3.0</ele><time>2026-04-15T10:44:09.203Z</time></trkpt><trkpt lat="45.0022663" lon="11.7645277"><ele>3.0</ele><time>2026-04-15T10:44:10.227Z</time></trkpt><trkpt lat="45.0022124" lon="11.764415"><ele>3.0</ele><time>2026-04-15T10:44:11.201Z</time></trkpt><trkpt lat="45.0021679" lon="11.7643314"><ele>3.0</ele><time>2026-04-15T10:44:12.193Z</time></trkpt><trkpt lat="45.0021043" lon="11.7642396"><ele>3.0</ele><time>2026-04-15T10:44:14.224Z</time></trkpt><trkpt lat="45.0020081" lon="11.7642605"><ele>3.0</ele><time>2026-04-15T10:44:17.201Z</time></trkpt><trkpt lat="45.0019354" lon="11.7643317"><ele>3.0</ele><time>2026-04-15T10:44:18.213Z</time></trkpt><trkpt lat="45.0018456" lon="11.7644196"><ele>3.0</ele><time>2026-04-15T10:44:19.195Z</time></trkpt><trkpt lat="45.00175" lon="11.7645047"><ele>3.0</ele><time>2026-04-15T10:44:20.197Z</time></trkpt><trkpt lat="45.0016482" lon="11.7645644"><ele>3.0</ele><time>2026-04-15T10:44:21.208Z</time></trkpt><trkpt lat="45.0015443" lon="11.764618"><ele>3.0</ele><time>2026-04-15T10:44:22.189Z</time></trkpt><trkpt lat="45.0014351" lon="11.7646327"><ele>3.0</ele><time>2026-04-15T10:44:23.196Z</time></trkpt><trkpt lat="45.0013243" lon="11.7646191"><ele>3.0</ele><time>2026-04-15T10:44:24.185Z</time></trkpt><trkpt lat="45.0012132" lon="11.7645755"><ele>3.0</ele><time>2026-04-15T10:44:25.188Z</time></trkpt><trkpt lat="45.0011017" lon="11.764537"><ele>3.0</ele><time>2026-04-15T10:44:26.202Z</time></trkpt><trkpt lat="45.0009977" lon="11.7645163"><ele>3.0</ele><time>2026-04-15T10:44:27.219Z</time></trkpt><trkpt lat="45.0009116" lon="11.7645007"><ele>3.0</ele><time>2026-04-15T10:44:28.214Z</time></trkpt><trkpt lat="45.0008501" lon="11.7644736"><ele>3.0</ele><time>2026-04-15T10:44:29.204Z</time></trkpt><trkpt lat="45.0008437" lon="11.7643536"><ele>3.0</ele><time>2026-04-15T10:44:32.193Z</time></trkpt><trkpt lat="45.0008889" lon="11.764178"><ele>3.0</ele><time>2026-04-15T10:44:34.201Z</time></trkpt><trkpt lat="45.0009078" lon="11.7640564"><ele>3.0</ele><time>2026-04-15T10:44:35.194Z</time></trkpt><trkpt lat="45.0009191" lon="11.7639383"><ele>3.0</ele><time>2026-04-15T10:44:36.2Z</time></trkpt><trkpt lat="45.0009138" lon="11.7638383"><ele>3.0</ele><time>2026-04-15T10:44:37.208Z</time></trkpt><trkpt lat="45.0008341" lon="11.7637415"><ele>3.0</ele><time>2026-04-15T10:44:39.208Z</time></trkpt><trkpt lat="45.0007554" lon="11.7637083"><ele>3.0</ele><time>2026-04-15T10:44:40.215Z</time></trkpt><trkpt lat="45.0006716" lon="11.7636771"><ele>3.0</ele><time>2026-04-15T10:44:41.211Z</time></trkpt><trkpt lat="45.0006027" lon="11.7636694"><ele>3.0</ele><time>2026-04-15T10:44:42.191Z</time></trkpt><trkpt lat="45.0004971" lon="11.7637619"><ele>3.0</ele><time>2026-04-15T10:44:44.197Z</time></trkpt><trkpt lat="45.000468" lon="11.7638768"><ele>3.0</ele><time>2026-04-15T10:44:45.198Z</time></trkpt><trkpt lat="45.000457" lon="11.7640053"><ele>3.0</ele><time>2026-04-15T10:44:46.211Z</time></trkpt><trkpt lat="45.0004338" lon="11.7642243"><ele>3.0</ele><time>2026-04-15T10:44:48.185Z</time></trkpt><trkpt lat="45.0003822" lon="11.7643472"><ele>3.0</ele><time>2026-04-15T10:44:50.201Z</time></trkpt><trkpt lat="45.0002874" lon="11.764336"><ele>3.0</ele><time>2026-04-15T10:44:52.211Z</time></trkpt><trkpt lat="45.0001928" lon="11.764311"><ele>3.0</ele><time>2026-04-15T10:44:53.197Z</time></trkpt><trkpt lat="45.0000818" lon="11.7642692"><ele>3.0</ele><time>2026-04-15T10:44:54.198Z</time></trkpt><trkpt lat="44.9999634" lon="11.7642257"><ele>3.0</ele><time>2026-04-15T10:44:55.188Z</time></trkpt><trkpt lat="44.9998468" lon="11.7641759"><ele>3.0</ele><time>2026-04-15T10:44:56.197Z</time></trkpt><trkpt lat="44.9997461" lon="11.7641103"><ele>3.0</ele><time>2026-04-15T10:44:57.192Z</time></trkpt><trkpt lat="44.9996527" lon="11.7640107"><ele>3.0</ele><time>2026-04-15T10:44:58.182Z</time></trkpt><trkpt lat="44.999578" lon="11.763905"><ele>3.0</ele><time>2026-04-15T10:44:59.188Z</time></trkpt><trkpt lat="44.9995225" lon="11.7637958"><ele>3.0</ele><time>2026-04-15T10:45:00.196Z</time></trkpt><trkpt lat="44.9994874" lon="11.7637035"><ele>3.0</ele><time>2026-04-15T10:45:01.197Z</time></trkpt><trkpt lat="44.9994872" lon="11.7635936"><ele>3.0</ele><time>2026-04-15T10:45:03.199Z</time></trkpt><trkpt lat="44.9995737" lon="11.7635084"><ele>3.0</ele><time>2026-04-15T10:45:05.198Z</time></trkpt><trkpt lat="44.9996549" lon="11.7634595"><ele>3.0</ele><time>2026-04-15T10:45:06.201Z</time></trkpt><trkpt lat="44.9997474" lon="11.7633988"><ele>3.2</ele><time>2026-04-15T10:45:07.189Z</time></trkpt><trkpt lat="44.9998331" lon="11.7633395"><ele>3.4</ele><time>2026-04-15T10:45:08.194Z</time></trkpt><trkpt lat="44.9999048" lon="11.7632907"><ele>3.6000000000000005</ele><time>2026-04-15T10:45:09.199Z</time></trkpt><trkpt lat="44.9999047" lon="11.763174"><ele>3.8000000000000003</ele><time>2026-04-15T10:45:17.191Z</time></trkpt><trkpt lat="44.9997626" lon="11.7631319"><ele>4.0</ele><time>2026-04-15T10:45:19.19Z</time></trkpt><trkpt lat="44.9996452" lon="11.7631042"><ele>4.0</ele><time>2026-04-15T10:45:20.205Z</time></trkpt><trkpt lat="44.9995101" lon="11.7630758"><ele>4.0</ele><time>2026-04-15T10:45:21.2Z</time></trkpt><trkpt lat="44.999347" lon="11.7630346"><ele>4.0</ele><time>2026-04-15T10:45:22.206Z</time></trkpt><trkpt lat="44.9991731" lon="11.7629989"><ele>3.6666666666666665</ele><time>2026-04-15T10:45:23.208Z</time></trkpt><trkpt lat="44.998996" lon="11.7629672"><ele>3.333333333333333</ele><time>2026-04-15T10:45:24.208Z</time></trkpt><trkpt lat="44.9988167" lon="11.7629344"><ele>3.0</ele><time>2026-04-15T10:45:25.203Z</time></trkpt><trkpt lat="44.9986356" lon="11.7628928"><ele>3.0</ele><time>2026-04-15T10:45:26.186Z</time></trkpt><trkpt lat="44.9984543" lon="11.7628525"><ele>3.0</ele><time>2026-04-15T10:45:27.184Z</time></trkpt><trkpt lat="44.9982706" lon="11.7628171"><ele>3.0</ele><time>2026-04-15T10:45:28.178Z</time></trkpt><trkpt lat="44.9980894" lon="11.762781"><ele>2.6666666666666665</ele><time>2026-04-15T10:45:29.19Z</time></trkpt><trkpt lat="44.9979122" lon="11.7627421"><ele>2.333333333333333</ele><time>2026-04-15T10:45:30.19Z</time></trkpt><trkpt lat="44.9977352" lon="11.7626959"><ele>2.0</ele><time>2026-04-15T10:45:31.202Z</time></trkpt><trkpt lat="44.9975598" lon="11.7626533"><ele>2.333333333333333</ele><time>2026-04-15T10:45:32.2Z</time></trkpt><trkpt lat="44.9973859" lon="11.7626113"><ele>2.6666666666666665</ele><time>2026-04-15T10:45:33.197Z</time></trkpt><trkpt lat="44.9972128" lon="11.7625698"><ele>3.0</ele><time>2026-04-15T10:45:34.196Z</time></trkpt><trkpt lat="44.9970422" lon="11.7625426"><ele>3.0</ele><time>2026-04-15T10:45:35.203Z</time></trkpt><trkpt lat="44.9968737" lon="11.7625033"><ele>3.0</ele><time>2026-04-15T10:45:36.183Z</time></trkpt><trkpt lat="44.9967039" lon="11.7624681"><ele>3.0</ele><time>2026-04-15T10:45:37.194Z</time></trkpt><trkpt lat="44.9965326" lon="11.7624366"><ele>2.6666666666666665</ele><time>2026-04-15T10:45:38.187Z</time></trkpt><trkpt lat="44.9963615" lon="11.7623999"><ele>2.333333333333333</ele><time>2026-04-15T10:45:39.196Z</time></trkpt><trkpt lat="44.9961892" lon="11.7623634"><ele>2.0</ele><time>2026-04-15T10:45:40.184Z</time></trkpt><trkpt lat="44.9960178" lon="11.762328"><ele>2.0</ele><time>2026-04-15T10:45:41.189Z</time></trkpt><trkpt lat="44.9958458" lon="11.7622924"><ele>2.0</ele><time>2026-04-15T10:45:42.192Z</time></trkpt><trkpt lat="44.9956719" lon="11.7622614"><ele>2.0</ele><time>2026-04-15T10:45:43.19Z</time></trkpt><trkpt lat="44.9954967" lon="11.7622312"><ele>2.333333333333333</ele><time>2026-04-15T10:45:44.179Z</time></trkpt><trkpt lat="44.9953226" lon="11.762192"><ele>2.6666666666666665</ele><time>2026-04-15T10:45:45.187Z</time></trkpt><trkpt lat="44.9951464" lon="11.7621634"><ele>3.0</ele><time>2026-04-15T10:45:46.203Z</time></trkpt><trkpt lat="44.9949694" lon="11.7621279"><ele>3.0</ele><time>2026-04-15T10:45:47.187Z</time></trkpt><trkpt lat="44.9947903" lon="11.7620906"><ele>3.0</ele><time>2026-04-15T10:45:48.2Z</time></trkpt><trkpt lat="44.9946195" lon="11.7620521"><ele>3.0</ele><time>2026-04-15T10:45:49.202Z</time></trkpt><trkpt lat="44.9944594" lon="11.762017"><ele>3.0</ele><time>2026-04-15T10:45:50.19Z</time></trkpt><trkpt lat="44.9943097" lon="11.761991"><ele>3.0</ele><time>2026-04-15T10:45:51.197Z</time></trkpt><trkpt lat="44.9941524" lon="11.7619563"><ele>3.0</ele><time>2026-04-15T10:45:52.181Z</time></trkpt><trkpt lat="44.9939908" lon="11.7619165"><ele>3.0</ele><time>2026-04-15T10:45:53.183Z</time></trkpt><trkpt lat="44.9938206" lon="11.7618771"><ele>3.0</ele><time>2026-04-15T10:45:54.183Z</time></trkpt><trkpt lat="44.993631" lon="11.7618444"><ele>3.0</ele><time>2026-04-15T10:45:55.211Z</time></trkpt><trkpt lat="44.9932215" lon="11.7617711"><ele>3.0</ele><time>2026-04-15T10:45:57.2Z</time></trkpt><trkpt lat="44.9927727" lon="11.7616688"><ele>3.0</ele><time>2026-04-15T10:45:59.203Z</time></trkpt><trkpt lat="44.992555" lon="11.7616262"><ele>3.0</ele><time>2026-04-15T10:46:00.186Z</time></trkpt><trkpt lat="44.9923466" lon="11.761588"><ele>3.0</ele><time>2026-04-15T10:46:01.176Z</time></trkpt><trkpt lat="44.9921466" lon="11.7615429"><ele>3.0</ele><time>2026-04-15T10:46:02.205Z</time></trkpt><trkpt lat="44.9919582" lon="11.7614978"><ele>3.0</ele><time>2026-04-15T10:46:03.19Z</time></trkpt><trkpt lat="44.9917709" lon="11.7614522"><ele>3.0</ele><time>2026-04-15T10:46:04.205Z</time></trkpt><trkpt lat="44.9915905" lon="11.7614186"><ele>3.0</ele><time>2026-04-15T10:46:05.172Z</time></trkpt><trkpt lat="44.9914156" lon="11.7613787"><ele>3.0</ele><time>2026-04-15T10:46:06.196Z</time></trkpt><trkpt lat="44.9910781" lon="11.7613147"><ele>3.0</ele><time>2026-04-15T10:46:08.174Z</time></trkpt><trkpt lat="44.9907877" lon="11.761252"><ele>3.0</ele><time>2026-04-15T10:46:10.202Z</time></trkpt><trkpt lat="44.9906853" lon="11.7612095"><ele>3.0</ele><time>2026-04-15T10:46:11.189Z</time></trkpt><trkpt lat="44.990631" lon="11.7611457"><ele>2.6666666666666665</ele><time>2026-04-15T10:46:12.19Z</time></trkpt><trkpt lat="44.9905941" lon="11.7610078"><ele>2.3333333333333335</ele><time>2026-04-15T10:46:14.205Z</time></trkpt><trkpt lat="44.9905339" lon="11.7609307"><ele>2.0</ele><time>2026-04-15T10:46:16.188Z</time></trkpt><trkpt lat="44.990458" lon="11.7609094"><ele>1.6666666666666665</ele><time>2026-04-15T10:46:18.189Z</time></trkpt><trkpt lat="44.9903901" lon="11.7608945"><ele>1.3333333333333333</ele><time>2026-04-15T10:46:22.181Z</time></trkpt><trkpt lat="44.9903217" lon="11.7608601"><ele>1.0</ele><time>2026-04-15T10:46:25.187Z</time></trkpt><trkpt lat="44.9902467" lon="11.760885"><ele>0.9999999999999999</ele><time>2026-04-15T10:46:27.196Z</time></trkpt><trkpt lat="44.9902047" lon="11.7609762"><ele>1.0</ele><time>2026-04-15T10:46:29.196Z</time></trkpt><trkpt lat="44.9902252" lon="11.7610612"><ele>1.0</ele><time>2026-04-15T10:46:33.179Z</time></trkpt><trkpt lat="44.9902671" lon="11.76113"><ele>1.0</ele><time>2026-04-15T10:46:38.192Z</time></trkpt><trkpt lat="44.990338" lon="11.7611612"><ele>0.9999999999999999</ele><time>2026-04-15T10:46:39.187Z</time></trkpt><trkpt lat="44.9904486" lon="11.7611851"><ele>1.0</ele><time>2026-04-15T10:46:40.187Z</time></trkpt><trkpt lat="44.9906009" lon="11.7612301"><ele>1.6666666666666665</ele><time>2026-04-15T10:46:41.17Z</time></trkpt><trkpt lat="44.9907697" lon="11.7612627"><ele>2.3333333333333335</ele><time>2026-04-15T10:46:42.192Z</time></trkpt><trkpt lat="44.9909538" lon="11.7613001"><ele>3.0</ele><time>2026-04-15T10:46:43.212Z</time></trkpt><trkpt lat="44.9911468" lon="11.7613448"><ele>3.0</ele><time>2026-04-15T10:46:44.174Z</time></trkpt><trkpt lat="44.9913305" lon="11.7613855"><ele>3.0</ele><time>2026-04-15T10:46:45.183Z</time></trkpt><trkpt lat="44.9915114" lon="11.7614136"><ele>3.0</ele><time>2026-04-15T10:46:46.19Z</time></trkpt><trkpt lat="44.9916773" lon="11.7614454"><ele>3.0</ele><time>2026-04-15T10:46:47.182Z</time></trkpt><trkpt lat="44.9918349" lon="11.76147"><ele>3.0</ele><time>2026-04-15T10:46:48.173Z</time></trkpt><trkpt lat="44.991981" lon="11.7614971"><ele>3.0</ele><time>2026-04-15T10:46:49.178Z</time></trkpt><trkpt lat="44.9921115" lon="11.7615294"><ele>3.0</ele><time>2026-04-15T10:46:50.191Z</time></trkpt><trkpt lat="44.9922431" lon="11.7615726"><ele>3.0</ele><time>2026-04-15T10:46:51.19Z</time></trkpt><trkpt lat="44.9923847" lon="11.7616129"><ele>3.0</ele><time>2026-04-15T10:46:52.191Z</time></trkpt><trkpt lat="44.992529" lon="11.7616473"><ele>3.0</ele><time>2026-04-15T10:46:53.184Z</time></trkpt><trkpt lat="44.9926817" lon="11.7616677"><ele>3.0</ele><time>2026-04-15T10:46:54.192Z</time></trkpt><trkpt lat="44.9928386" lon="11.7616955"><ele>3.0</ele><time>2026-04-15T10:46:55.186Z</time></trkpt><trkpt lat="44.9929992" lon="11.7617269"><ele>3.0</ele><time>2026-04-15T10:46:56.192Z</time></trkpt><trkpt lat="44.9931629" lon="11.7617594"><ele>3.0</ele><time>2026-04-15T10:46:57.184Z</time></trkpt><trkpt lat="44.993324" lon="11.7617909"><ele>2.75</ele><time>2026-04-15T10:46:58.19Z</time></trkpt><trkpt lat="44.9934744" lon="11.761826"><ele>2.5</ele><time>2026-04-15T10:46:59.18Z</time></trkpt><trkpt lat="44.9936112" lon="11.7618522"><ele>2.25</ele><time>2026-04-15T10:47:00.186Z</time></trkpt><trkpt lat="44.9937514" lon="11.7618775"><ele>2.0</ele><time>2026-04-15T10:47:01.172Z</time></trkpt><trkpt lat="44.9938816" lon="11.7618988"><ele>2.0</ele><time>2026-04-15T10:47:02.18Z</time></trkpt><trkpt lat="44.9939849" lon="11.7619221"><ele>2.0</ele><time>2026-04-15T10:47:03.196Z</time></trkpt><trkpt lat="44.9940703" lon="11.7619115"><ele>2.0</ele><time>2026-04-15T10:47:04.2Z</time></trkpt><trkpt lat="44.9941797" lon="11.7617462"><ele>2.0</ele><time>2026-04-15T10:47:06.194Z</time></trkpt><trkpt lat="44.9942345" lon="11.7615476"><ele>2.0</ele><time>2026-04-15T10:47:07.182Z</time></trkpt><trkpt lat="44.9942825" lon="11.7613191"><ele>2.0</ele><time>2026-04-15T10:47:08.176Z</time></trkpt><trkpt lat="44.994328" lon="11.7610745"><ele>2.0</ele><time>2026-04-15T10:47:09.186Z</time></trkpt><trkpt lat="44.9943673" lon="11.7608104"><ele>2.0</ele><time>2026-04-15T10:47:10.176Z</time></trkpt><trkpt lat="44.9944051" lon="11.7605389"><ele>2.0</ele><time>2026-04-15T10:47:11.181Z</time></trkpt><trkpt lat="44.9944279" lon="11.76025"><ele>2.0</ele><time>2026-04-15T10:47:12.197Z</time></trkpt><trkpt lat="44.9944338" lon="11.7599537"><ele>1.6666666666666665</ele><time>2026-04-15T10:47:13.184Z</time></trkpt><trkpt lat="44.9944399" lon="11.7596524"><ele>1.3333333333333333</ele><time>2026-04-15T10:47:14.188Z</time></trkpt><trkpt lat="44.9944488" lon="11.7593503"><ele>1.0</ele><time>2026-04-15T10:47:15.199Z</time></trkpt><trkpt lat="44.9944534" lon="11.75905"><ele>1.0</ele><time>2026-04-15T10:47:16.177Z</time></trkpt><trkpt lat="44.9944556" lon="11.7587433"><ele>1.0</ele><time>2026-04-15T10:47:17.185Z</time></trkpt><trkpt lat="44.9944582" lon="11.7584506"><ele>1.0</ele><time>2026-04-15T10:47:18.184Z</time></trkpt><trkpt lat="44.994452" lon="11.7581574"><ele>1.0</ele><time>2026-04-15T10:47:19.188Z</time></trkpt><trkpt lat="44.9944342" lon="11.7578659"><ele>1.0</ele><time>2026-04-15T10:47:20.177Z</time></trkpt><trkpt lat="44.9943597" lon="11.7572786"><ele>1.0</ele><time>2026-04-15T10:47:22.202Z</time></trkpt><trkpt lat="44.9943152" lon="11.756991"><ele>1.0</ele><time>2026-04-15T10:47:23.19Z</time></trkpt><trkpt lat="44.994264" lon="11.7567124"><ele>1.0</ele><time>2026-04-15T10:47:24.179Z</time></trkpt><trkpt lat="44.9942142" lon="11.7564313"><ele>1.3333333333333333</ele><time>2026-04-15T10:47:25.189Z</time></trkpt><trkpt lat="44.9941638" lon="11.7561488"><ele>1.6666666666666665</ele><time>2026-04-15T10:47:26.183Z</time></trkpt><trkpt lat="44.9941116" lon="11.7558671"><ele>2.0</ele><time>2026-04-15T10:47:27.188Z</time></trkpt><trkpt lat="44.9940654" lon="11.755584"><ele>2.0</ele><time>2026-04-15T10:47:28.201Z</time></trkpt><trkpt lat="44.9940222" lon="11.755301"><ele>2.0</ele><time>2026-04-15T10:47:29.195Z</time></trkpt><trkpt lat="44.9939899" lon="11.7550217"><ele>2.0</ele><time>2026-04-15T10:47:30.167Z</time></trkpt><trkpt lat="44.993967" lon="11.7547481"><ele>2.0</ele><time>2026-04-15T10:47:31.189Z</time></trkpt><trkpt lat="44.9939444" lon="11.7544709"><ele>2.0</ele><time>2026-04-15T10:47:32.187Z</time></trkpt><trkpt lat="44.9939188" lon="11.7542099"><ele>2.0</ele><time>2026-04-15T10:47:33.182Z</time></trkpt><trkpt lat="44.9938901" lon="11.7539434"><ele>1.6666666666666665</ele><time>2026-04-15T10:47:34.181Z</time></trkpt><trkpt lat="44.9938585" lon="11.7536864"><ele>1.3333333333333333</ele><time>2026-04-15T10:47:35.183Z</time></trkpt><trkpt lat="44.9938319" lon="11.7534441"><ele>1.0</ele><time>2026-04-15T10:47:36.167Z</time></trkpt><trkpt lat="44.99381" lon="11.7532042"><ele>0.6666666666666666</ele><time>2026-04-15T10:47:37.18Z</time></trkpt><trkpt lat="44.9938036" lon="11.7529568"><ele>0.3333333333333333</ele><time>2026-04-15T10:47:38.18Z</time></trkpt><trkpt lat="44.9938081" lon="11.7527015"><ele>0.0</ele><time>2026-04-15T10:47:39.186Z</time></trkpt><trkpt lat="44.9938144" lon="11.7524471"><ele>0.0</ele><time>2026-04-15T10:47:40.207Z</time></trkpt><trkpt lat="44.993821" lon="11.752182"><ele>0.0</ele><time>2026-04-15T10:47:41.175Z</time></trkpt><trkpt lat="44.9938284" lon="11.7519107"><ele>0.0</ele><time>2026-04-15T10:47:42.181Z</time></trkpt><trkpt lat="44.9938325" lon="11.7516508"><ele>0.3333333333333333</ele><time>2026-04-15T10:47:43.191Z</time></trkpt><trkpt lat="44.9938214" lon="11.7514122"><ele>0.6666666666666666</ele><time>2026-04-15T10:47:44.181Z</time></trkpt><trkpt lat="44.9937883" lon="11.7511891"><ele>1.0</ele><time>2026-04-15T10:47:45.19Z</time></trkpt><trkpt lat="44.9937354" lon="11.7509615"><ele>1.0</ele><time>2026-04-15T10:47:46.186Z</time></trkpt><trkpt lat="44.99366" lon="11.7507408"><ele>1.0</ele><time>2026-04-15T10:47:47.189Z</time></trkpt><trkpt lat="44.9935661" lon="11.750559"><ele>1.0</ele><time>2026-04-15T10:47:48.196Z</time></trkpt><trkpt lat="44.9934665" lon="11.7503891"><ele>1.0</ele><time>2026-04-15T10:47:49.178Z</time></trkpt><trkpt lat="44.993367" lon="11.7502594"><ele>1.0</ele><time>2026-04-15T10:47:50.194Z</time></trkpt><trkpt lat="44.9932348" lon="11.7501581"><ele>1.0</ele><time>2026-04-15T10:47:51.235Z</time></trkpt><trkpt lat="44.9930981" lon="11.7501178"><ele>1.0</ele><time>2026-04-15T10:47:52.193Z</time></trkpt><trkpt lat="44.9929573" lon="11.7500785"><ele>1.25</ele><time>2026-04-15T10:47:53.19Z</time></trkpt><trkpt lat="44.9928321" lon="11.7500068"><ele>1.5</ele><time>2026-04-15T10:47:54.171Z</time></trkpt><trkpt lat="44.9927302" lon="11.7499059"><ele>1.75</ele><time>2026-04-15T10:47:55.195Z</time></trkpt><trkpt lat="44.9926476" lon="11.7498073"><ele>2.0</ele><time>2026-04-15T10:47:56.183Z</time></trkpt><trkpt lat="44.9925803" lon="11.7497125"><ele>2.0</ele><time>2026-04-15T10:47:57.169Z</time></trkpt><trkpt lat="44.992532" lon="11.7496469"><ele>2.0</ele><time>2026-04-15T10:47:58.186Z</time></trkpt><trkpt lat="44.992448" lon="11.7496253"><ele>2.0</ele><time>2026-04-15T10:48:00.179Z</time></trkpt><trkpt lat="44.99237" lon="11.7497908"><ele>2.0</ele><time>2026-04-15T10:48:02.163Z</time></trkpt><trkpt lat="44.9923513" lon="11.7499692"><ele>2.0</ele><time>2026-04-15T10:48:03.183Z</time></trkpt><trkpt lat="44.9923207" lon="11.7501781"><ele>1.3333333333333333</ele><time>2026-04-15T10:48:04.197Z</time></trkpt><trkpt lat="44.9922573" lon="11.7503955"><ele>0.6666666666666666</ele><time>2026-04-15T10:48:05.188Z</time></trkpt><trkpt lat="44.9921695" lon="11.7506072"><ele>0.0</ele><time>2026-04-15T10:48:06.172Z</time></trkpt><trkpt lat="44.9920409" lon="11.7508113"><ele>0.0</ele><time>2026-04-15T10:48:07.181Z</time></trkpt><trkpt lat="44.9918979" lon="11.7509727"><ele>0.0</ele><time>2026-04-15T10:48:08.181Z</time></trkpt><trkpt lat="44.9917489" lon="11.7511051"><ele>0.0</ele><time>2026-04-15T10:48:09.188Z</time></trkpt><trkpt lat="44.9915866" lon="11.751196"><ele>1.0</ele><time>2026-04-15T10:48:10.185Z</time></trkpt><trkpt lat="44.9914111" lon="11.7512353"><ele>2.0</ele><time>2026-04-15T10:48:11.176Z</time></trkpt><trkpt lat="44.9912265" lon="11.7512256"><ele>3.0</ele><time>2026-04-15T10:48:12.176Z</time></trkpt><trkpt lat="44.9910219" lon="11.7512211"><ele>2.5</ele><time>2026-04-15T10:48:13.181Z</time></trkpt><trkpt lat="44.9907996" lon="11.7512208"><ele>2.0</ele><time>2026-04-15T10:48:14.187Z</time></trkpt><trkpt lat="44.9905666" lon="11.7512175"><ele>2.0</ele><time>2026-04-15T10:48:15.18Z</time></trkpt><trkpt lat="44.9903219" lon="11.7512228"><ele>2.0</ele><time>2026-04-15T10:48:16.161Z</time></trkpt><trkpt lat="44.9900754" lon="11.7512194"><ele>1.0</ele><time>2026-04-15T10:48:17.177Z</time></trkpt><trkpt lat="44.9898234" lon="11.7512156"><ele>0.0</ele><time>2026-04-15T10:48:18.171Z</time></trkpt><trkpt lat="44.9895712" lon="11.7512138"><ele>0.0</ele><time>2026-04-15T10:48:19.171Z</time></trkpt><trkpt lat="44.9893258" lon="11.7512024"><ele>0.0</ele><time>2026-04-15T10:48:20.171Z</time></trkpt><trkpt lat="44.9890827" lon="11.7511823"><ele>0.0</ele><time>2026-04-15T10:48:21.172Z</time></trkpt><trkpt lat="44.988839" lon="11.7511546"><ele>0.0</ele><time>2026-04-15T10:48:22.183Z</time></trkpt><trkpt lat="44.9885937" lon="11.7511361"><ele>-0.5</ele><time>2026-04-15T10:48:23.174Z</time></trkpt><trkpt lat="44.9883388" lon="11.7511377"><ele>-1.0</ele><time>2026-04-15T10:48:24.179Z</time></trkpt><trkpt lat="44.9880764" lon="11.7511537"><ele>-1.0</ele><time>2026-04-15T10:48:25.179Z</time></trkpt><trkpt lat="44.9878161" lon="11.7511841"><ele>-1.0</ele><time>2026-04-15T10:48:26.171Z</time></trkpt><trkpt lat="44.9875683" lon="11.7512174"><ele>0.5</ele><time>2026-04-15T10:48:27.179Z</time></trkpt><trkpt lat="44.9873334" lon="11.7512392"><ele>2.0</ele><time>2026-04-15T10:48:28.163Z</time></trkpt><trkpt lat="44.9871065" lon="11.7512271"><ele>2.0</ele><time>2026-04-15T10:48:29.173Z</time></trkpt><trkpt lat="44.9868803" lon="11.7511836"><ele>2.0</ele><time>2026-04-15T10:48:30.171Z</time></trkpt><trkpt lat="44.9866733" lon="11.7511052"><ele>2.0</ele><time>2026-04-15T10:48:31.181Z</time></trkpt><trkpt lat="44.9864719" lon="11.7510095"><ele>2.333333333333333</ele><time>2026-04-15T10:48:32.183Z</time></trkpt><trkpt lat="44.9862818" lon="11.7508868"><ele>2.6666666666666665</ele><time>2026-04-15T10:48:33.181Z</time></trkpt><trkpt lat="44.9860907" lon="11.7507727"><ele>3.0</ele><time>2026-04-15T10:48:34.172Z</time></trkpt><trkpt lat="44.9858955" lon="11.7506951"><ele>2.6666666666666665</ele><time>2026-04-15T10:48:35.191Z</time></trkpt><trkpt lat="44.9856957" lon="11.7506613"><ele>2.333333333333333</ele><time>2026-04-15T10:48:36.17Z</time></trkpt><trkpt lat="44.9854959" lon="11.750666"><ele>2.0</ele><time>2026-04-15T10:48:37.183Z</time></trkpt><trkpt lat="44.9853095" lon="11.7506827"><ele>2.0</ele><time>2026-04-15T10:48:38.158Z</time></trkpt><trkpt lat="44.9851189" lon="11.7507424"><ele>2.0</ele><time>2026-04-15T10:48:39.202Z</time></trkpt><trkpt lat="44.9849391" lon="11.7508248"><ele>2.0</ele><time>2026-04-15T10:48:40.182Z</time></trkpt><trkpt lat="44.984755" lon="11.7509391"><ele>2.0</ele><time>2026-04-15T10:48:41.179Z</time></trkpt><trkpt lat="44.984567" lon="11.751098"><ele>2.0</ele><time>2026-04-15T10:48:42.18Z</time></trkpt><trkpt lat="44.9843763" lon="11.7512951"><ele>2.0</ele><time>2026-04-15T10:48:43.177Z</time></trkpt><trkpt lat="44.9841942" lon="11.7514903"><ele>2.0</ele><time>2026-04-15T10:48:44.185Z</time></trkpt><trkpt lat="44.9840274" lon="11.7516752"><ele>2.0</ele><time>2026-04-15T10:48:45.182Z</time></trkpt><trkpt lat="44.9838718" lon="11.7518211"><ele>1.6666666666666665</ele><time>2026-04-15T10:48:46.162Z</time></trkpt><trkpt lat="44.9837127" lon="11.7519149"><ele>1.3333333333333333</ele><time>2026-04-15T10:48:47.172Z</time></trkpt><trkpt lat="44.9835338" lon="11.75198"><ele>1.0</ele><time>2026-04-15T10:48:48.159Z</time></trkpt><trkpt lat="44.9833319" lon="11.7520307"><ele>1.0</ele><time>2026-04-15T10:48:49.181Z</time></trkpt><trkpt lat="44.9831073" lon="11.7520713"><ele>1.0</ele><time>2026-04-15T10:48:50.176Z</time></trkpt><trkpt lat="44.9828741" lon="11.7521073"><ele>1.0</ele><time>2026-04-15T10:48:51.176Z</time></trkpt><trkpt lat="44.9826404" lon="11.7521348"><ele>1.0</ele><time>2026-04-15T10:48:52.174Z</time></trkpt><trkpt lat="44.9824052" lon="11.7521488"><ele>1.0</ele><time>2026-04-15T10:48:53.191Z</time></trkpt><trkpt lat="44.982161" lon="11.7521457"><ele>1.0</ele><time>2026-04-15T10:48:54.177Z</time></trkpt><trkpt lat="44.9819121" lon="11.752136"><ele>1.0</ele><time>2026-04-15T10:48:55.17Z</time></trkpt><trkpt lat="44.9816655" lon="11.7521152"><ele>1.0</ele><time>2026-04-15T10:48:56.177Z</time></trkpt><trkpt lat="44.9814226" lon="11.7520887"><ele>1.0</ele><time>2026-04-15T10:48:57.184Z</time></trkpt><trkpt lat="44.9811982" lon="11.7520599"><ele>1.0</ele><time>2026-04-15T10:48:58.172Z</time></trkpt><trkpt lat="44.9809957" lon="11.7520233"><ele>1.0</ele><time>2026-04-15T10:48:59.164Z</time></trkpt><trkpt lat="44.9808072" lon="11.7519721"><ele>1.3333333333333333</ele><time>2026-04-15T10:49:00.165Z</time></trkpt><trkpt lat="44.9806185" lon="11.7519046"><ele>1.6666666666666665</ele><time>2026-04-15T10:49:01.175Z</time></trkpt><trkpt lat="44.9804381" lon="11.7518121"><ele>2.0</ele><time>2026-04-15T10:49:02.192Z</time></trkpt><trkpt lat="44.9802707" lon="11.7517124"><ele>2.0</ele><time>2026-04-15T10:49:03.182Z</time></trkpt><trkpt lat="44.9801102" lon="11.7516474"><ele>2.0</ele><time>2026-04-15T10:49:04.172Z</time></trkpt><trkpt lat="44.9799365" lon="11.7516534"><ele>2.0</ele><time>2026-04-15T10:49:05.184Z</time></trkpt><trkpt lat="44.9797567" lon="11.7517071"><ele>2.0</ele><time>2026-04-15T10:49:06.184Z</time></trkpt><trkpt lat="44.9795843" lon="11.7518178"><ele>2.0</ele><time>2026-04-15T10:49:07.183Z</time></trkpt><trkpt lat="44.9794187" lon="11.7519725"><ele>2.0</ele><time>2026-04-15T10:49:08.172Z</time></trkpt><trkpt lat="44.9792767" lon="11.752156"><ele>1.6666666666666665</ele><time>2026-04-15T10:49:09.174Z</time></trkpt><trkpt lat="44.9791606" lon="11.7523683"><ele>1.3333333333333333</ele><time>2026-04-15T10:49:10.158Z</time></trkpt><trkpt lat="44.9790734" lon="11.7526121"><ele>1.0</ele><time>2026-04-15T10:49:11.181Z</time></trkpt><trkpt lat="44.9790272" lon="11.7528839"><ele>0.5</ele><time>2026-04-15T10:49:12.169Z</time></trkpt><trkpt lat="44.9789963" lon="11.7531918"><ele>0.0</ele><time>2026-04-15T10:49:13.183Z</time></trkpt><trkpt lat="44.9789706" lon="11.7535171"><ele>-0.5</ele><time>2026-04-15T10:49:14.173Z</time></trkpt><trkpt lat="44.9789623" lon="11.7538495"><ele>-1.0</ele><time>2026-04-15T10:49:15.179Z</time></trkpt><trkpt lat="44.9789571" lon="11.7541882"><ele>0.0</ele><time>2026-04-15T10:49:16.175Z</time></trkpt><trkpt lat="44.9789548" lon="11.7545177"><ele>1.0</ele><time>2026-04-15T10:49:17.168Z</time></trkpt><trkpt lat="44.9789535" lon="11.754832"><ele>1.0</ele><time>2026-04-15T10:49:18.172Z</time></trkpt><trkpt lat="44.9789494" lon="11.7551181"><ele>1.0</ele><time>2026-04-15T10:49:19.183Z</time></trkpt><trkpt lat="44.9789417" lon="11.7553801"><ele>1.0</ele><time>2026-04-15T10:49:20.176Z</time></trkpt><trkpt lat="44.9789081" lon="11.7556257"><ele>1.0</ele><time>2026-04-15T10:49:21.186Z</time></trkpt><trkpt lat="44.9788181" lon="11.7558641"><ele>1.0</ele><time>2026-04-15T10:49:22.173Z</time></trkpt><trkpt lat="44.9787084" lon="11.7560914"><ele>1.0</ele><time>2026-04-15T10:49:23.17Z</time></trkpt><trkpt lat="44.9786007" lon="11.7563076"><ele>0.6666666666666666</ele><time>2026-04-15T10:49:24.17Z</time></trkpt><trkpt lat="44.9784948" lon="11.756512"><ele>0.3333333333333333</ele><time>2026-04-15T10:49:25.176Z</time></trkpt><trkpt lat="44.9784009" lon="11.7566834"><ele>0.0</ele><time>2026-04-15T10:49:26.172Z</time></trkpt><trkpt lat="44.9783171" lon="11.7568207"><ele>0.0</ele><time>2026-04-15T10:49:27.168Z</time></trkpt><trkpt lat="44.9782161" lon="11.7568971"><ele>0.0</ele><time>2026-04-15T10:49:28.176Z</time></trkpt><trkpt lat="44.9781115" lon="11.7568829"><ele>0.0</ele><time>2026-04-15T10:49:29.174Z</time></trkpt><trkpt lat="44.9780211" lon="11.7568129"><ele>0.0</ele><time>2026-04-15T10:49:30.17Z</time></trkpt><trkpt lat="44.9779571" lon="11.7566928"><ele>0.0</ele><time>2026-04-15T10:49:31.164Z</time></trkpt><trkpt lat="44.9779133" lon="11.7565012"><ele>0.0</ele><time>2026-04-15T10:49:32.165Z</time></trkpt><trkpt lat="44.9778517" lon="11.7562844"><ele>0.0</ele><time>2026-04-15T10:49:33.166Z</time></trkpt><trkpt lat="44.9777792" lon="11.756032"><ele>0.0</ele><time>2026-04-15T10:49:34.183Z</time></trkpt><trkpt lat="44.9777103" lon="11.7557868"><ele>0.6666666666666666</ele><time>2026-04-15T10:49:35.173Z</time></trkpt><trkpt lat="44.9776374" lon="11.7555509"><ele>1.3333333333333333</ele><time>2026-04-15T10:49:36.178Z</time></trkpt><trkpt lat="44.977545" lon="11.7553404"><ele>2.0</ele><time>2026-04-15T10:49:37.165Z</time></trkpt><trkpt lat="44.9774235" lon="11.7551664"><ele>2.0</ele><time>2026-04-15T10:49:38.172Z</time></trkpt><trkpt lat="44.9772856" lon="11.7550347"><ele>2.0</ele><time>2026-04-15T10:49:39.172Z</time></trkpt><trkpt lat="44.9771358" lon="11.7549347"><ele>2.0</ele><time>2026-04-15T10:49:40.162Z</time></trkpt><trkpt lat="44.9769584" lon="11.7548479"><ele>2.0</ele><time>2026-04-15T10:49:41.177Z</time></trkpt><trkpt lat="44.9767717" lon="11.7547875"><ele>2.0</ele><time>2026-04-15T10:49:42.176Z</time></trkpt><trkpt lat="44.97659" lon="11.7547411"><ele>2.0</ele><time>2026-04-15T10:49:43.165Z</time></trkpt><trkpt lat="44.9764183" lon="11.7547129"><ele>1.6666666666666665</ele><time>2026-04-15T10:49:44.169Z</time></trkpt><trkpt lat="44.9762602" lon="11.7547166"><ele>1.3333333333333333</ele><time>2026-04-15T10:49:45.178Z</time></trkpt><trkpt lat="44.9761113" lon="11.754772"><ele>1.0</ele><time>2026-04-15T10:49:46.179Z</time></trkpt><trkpt lat="44.9759542" lon="11.7548668"><ele>1.3333333333333333</ele><time>2026-04-15T10:49:47.17Z</time></trkpt><trkpt lat="44.9757943" lon="11.7549701"><ele>1.6666666666666665</ele><time>2026-04-15T10:49:48.162Z</time></trkpt><trkpt lat="44.9756391" lon="11.7550587"><ele>2.0</ele><time>2026-04-15T10:49:49.177Z</time></trkpt><trkpt lat="44.9754762" lon="11.7551293"><ele>2.0</ele><time>2026-04-15T10:49:50.171Z</time></trkpt><trkpt lat="44.9753115" lon="11.7551757"><ele>2.0</ele><time>2026-04-15T10:49:51.168Z</time></trkpt><trkpt lat="44.975134" lon="11.7551921"><ele>2.0</ele><time>2026-04-15T10:49:52.163Z</time></trkpt><trkpt lat="44.9749573" lon="11.7552017"><ele>2.0</ele><time>2026-04-15T10:49:53.174Z</time></trkpt><trkpt lat="44.9747728" lon="11.7551976"><ele>2.0</ele><time>2026-04-15T10:49:54.162Z</time></trkpt><trkpt lat="44.9745873" lon="11.7551714"><ele>2.0</ele><time>2026-04-15T10:49:55.176Z</time></trkpt><trkpt lat="44.9743999" lon="11.7551177"><ele>2.0</ele><time>2026-04-15T10:49:56.152Z</time></trkpt><trkpt lat="44.9742118" lon="11.7550267"><ele>2.0</ele><time>2026-04-15T10:49:57.17Z</time></trkpt><trkpt lat="44.9740309" lon="11.7548984"><ele>2.0</ele><time>2026-04-15T10:49:58.175Z</time></trkpt><trkpt lat="44.9738444" lon="11.754766"><ele>2.0</ele><time>2026-04-15T10:49:59.166Z</time></trkpt><trkpt lat="44.9736558" lon="11.7546312"><ele>2.0</ele><time>2026-04-15T10:50:00.165Z</time></trkpt><trkpt lat="44.9734626" lon="11.7545016"><ele>2.0</ele><time>2026-04-15T10:50:01.176Z</time></trkpt><trkpt lat="44.973262" lon="11.7543862"><ele>2.0</ele><time>2026-04-15T10:50:02.16Z</time></trkpt><trkpt lat="44.9730679" lon="11.7542703"><ele>2.0</ele><time>2026-04-15T10:50:03.147Z</time></trkpt><trkpt lat="44.9728892" lon="11.7541706"><ele>2.0</ele><time>2026-04-15T10:50:04.163Z</time></trkpt><trkpt lat="44.972738" lon="11.7540835"><ele>2.0</ele><time>2026-04-15T10:50:05.151Z</time></trkpt><trkpt lat="44.9726229" lon="11.7540241"><ele>2.0</ele><time>2026-04-15T10:50:06.181Z</time></trkpt><trkpt lat="44.9725257" lon="11.7539753"><ele>2.0</ele><time>2026-04-15T10:50:07.162Z</time></trkpt><trkpt lat="44.9724311" lon="11.7539319"><ele>2.0</ele><time>2026-04-15T10:50:08.172Z</time></trkpt><trkpt lat="44.9723238" lon="11.7538883"><ele>2.0</ele><time>2026-04-15T10:50:09.171Z</time></trkpt><trkpt lat="44.9721967" lon="11.7538239"><ele>2.0</ele><time>2026-04-15T10:50:10.173Z</time></trkpt><trkpt lat="44.9720482" lon="11.7537382"><ele>2.0</ele><time>2026-04-15T10:50:11.152Z</time></trkpt><trkpt lat="44.9718889" lon="11.7536321"><ele>2.0</ele><time>2026-04-15T10:50:12.16Z</time></trkpt><trkpt lat="44.9717194" lon="11.7535236"><ele>2.6666666666666665</ele><time>2026-04-15T10:50:13.17Z</time></trkpt><trkpt lat="44.9715466" lon="11.7534058"><ele>3.333333333333333</ele><time>2026-04-15T10:50:14.177Z</time></trkpt><trkpt lat="44.9713791" lon="11.7532903"><ele>4.0</ele><time>2026-04-15T10:50:15.181Z</time></trkpt><trkpt lat="44.9712183" lon="11.7531846"><ele>4.0</ele><time>2026-04-15T10:50:16.17Z</time></trkpt><trkpt lat="44.9710583" lon="11.753079"><ele>4.0</ele><time>2026-04-15T10:50:17.162Z</time></trkpt><trkpt lat="44.9708997" lon="11.752993"><ele>4.0</ele><time>2026-04-15T10:50:18.167Z</time></trkpt><trkpt lat="44.9707374" lon="11.7529196"><ele>3.6666666666666665</ele><time>2026-04-15T10:50:19.171Z</time></trkpt><trkpt lat="44.9705742" lon="11.7528614"><ele>3.333333333333333</ele><time>2026-04-15T10:50:20.183Z</time></trkpt><trkpt lat="44.9704152" lon="11.752811"><ele>3.0</ele><time>2026-04-15T10:50:21.16Z</time></trkpt><trkpt lat="44.9702584" lon="11.7527714"><ele>3.0</ele><time>2026-04-15T10:50:22.165Z</time></trkpt><trkpt lat="44.9701062" lon="11.7527444"><ele>3.0</ele><time>2026-04-15T10:50:23.175Z</time></trkpt><trkpt lat="44.9699696" lon="11.7527238"><ele>3.0</ele><time>2026-04-15T10:50:24.162Z</time></trkpt><trkpt lat="44.9698515" lon="11.7527179"><ele>3.0</ele><time>2026-04-15T10:50:25.173Z</time></trkpt><trkpt lat="44.9697638" lon="11.7527245"><ele>3.4</ele><time>2026-04-15T10:50:26.169Z</time></trkpt><trkpt lat="44.9697064" lon="11.7527626"><ele>3.8</ele><time>2026-04-15T10:50:27.16Z</time></trkpt><trkpt lat="44.9696742" lon="11.7528695"><ele>4.2</ele><time>2026-04-15T10:50:30.168Z</time></trkpt><trkpt lat="44.9697769" lon="11.7530266"><ele>4.6</ele><time>2026-04-15T10:50:32.163Z</time></trkpt><trkpt lat="44.969882" lon="11.753101"><ele>5.0</ele><time>2026-04-15T10:50:33.169Z</time></trkpt><trkpt lat="44.9699923" lon="11.7531982"><ele>4.5</ele><time>2026-04-15T10:50:34.165Z</time></trkpt><trkpt lat="44.9701032" lon="11.7533086"><ele>4.0</ele><time>2026-04-15T10:50:35.154Z</time></trkpt><trkpt lat="44.9702232" lon="11.7534192"><ele>3.5</ele><time>2026-04-15T10:50:36.158Z</time></trkpt><trkpt lat="44.9703487" lon="11.7535106"><ele>3.0</ele><time>2026-04-15T10:50:37.15Z</time></trkpt><trkpt lat="44.9704776" lon="11.7535973"><ele>3.0</ele><time>2026-04-15T10:50:38.171Z</time></trkpt><trkpt lat="44.9706164" lon="11.7536778"><ele>3.0</ele><time>2026-04-15T10:50:39.163Z</time></trkpt><trkpt lat="44.9707514" lon="11.7537551"><ele>3.0</ele><time>2026-04-15T10:50:40.164Z</time></trkpt><trkpt lat="44.9710316" lon="11.7539026"><ele>3.333333333333333</ele><time>2026-04-15T10:50:42.176Z</time></trkpt><trkpt lat="44.9711769" lon="11.7539818"><ele>3.6666666666666665</ele><time>2026-04-15T10:50:43.163Z</time></trkpt><trkpt lat="44.9713256" lon="11.7540633"><ele>4.0</ele><time>2026-04-15T10:50:44.181Z</time></trkpt><trkpt lat="44.9714763" lon="11.754141"><ele>4.0</ele><time>2026-04-15T10:50:45.17Z</time></trkpt><trkpt lat="44.9716286" lon="11.7542182"><ele>4.0</ele><time>2026-04-15T10:50:46.165Z</time></trkpt><trkpt lat="44.9717804" lon="11.7542969"><ele>4.0</ele><time>2026-04-15T10:50:47.16Z</time></trkpt><trkpt lat="44.9719268" lon="11.7543734"><ele>3.6666666666666665</ele><time>2026-04-15T10:50:48.17Z</time></trkpt><trkpt lat="44.9720742" lon="11.7544521"><ele>3.333333333333333</ele><time>2026-04-15T10:50:49.169Z</time></trkpt><trkpt lat="44.97222" lon="11.7545339"><ele>3.0</ele><time>2026-04-15T10:50:50.173Z</time></trkpt><trkpt lat="44.9723671" lon="11.7546166"><ele>3.0</ele><time>2026-04-15T10:50:51.156Z</time></trkpt><trkpt lat="44.972647" lon="11.7547957"><ele>3.0</ele><time>2026-04-15T10:50:53.17Z</time></trkpt><trkpt lat="44.9727591" lon="11.7548766"><ele>3.0</ele><time>2026-04-15T10:50:54.172Z</time></trkpt><trkpt lat="44.9728433" lon="11.7549424"><ele>3.0</ele><time>2026-04-15T10:50:55.176Z</time></trkpt><trkpt lat="44.9728968" lon="11.7550269"><ele>3.0</ele><time>2026-04-15T10:50:56.155Z</time></trkpt><trkpt lat="44.9729068" lon="11.7551206"><ele>3.0</ele><time>2026-04-15T10:50:57.162Z</time></trkpt><trkpt lat="44.9729092" lon="11.7552626"><ele>3.0</ele><time>2026-04-15T10:50:59.169Z</time></trkpt><trkpt lat="44.9729724" lon="11.7553356"><ele>3.0</ele><time>2026-04-15T10:51:01.169Z</time></trkpt><trkpt lat="44.9730494" lon="11.7553884"><ele>3.0</ele><time>2026-04-15T10:51:04.157Z</time></trkpt><trkpt lat="44.9731165" lon="11.7554397"><ele>3.5</ele><time>2026-04-15T10:56:29.185Z</time></trkpt><trkpt lat="44.9731261" lon="11.7555381"><ele>4.0</ele><time>2026-04-15T10:56:31.161Z</time></trkpt><trkpt lat="44.9731069" lon="11.7556342"><ele>4.5</ele><time>2026-04-15T10:56:33.169Z</time></trkpt><trkpt lat="44.9731539" lon="11.7556968"><ele>5.0</ele><time>2026-04-15T10:56:36.158Z</time></trkpt><trkpt lat="44.9731881" lon="11.7555951"><ele>5.5</ele><time>2026-04-15T11:04:30.215Z</time></trkpt><trkpt lat="44.9732046" lon="11.7554133"><ele>6.0</ele><time>2026-04-15T11:04:32.232Z</time></trkpt><trkpt lat="44.9732153" lon="11.7552638"><ele>5.3999999999999995</ele><time>2026-04-15T11:04:34.22Z</time></trkpt><trkpt lat="44.9731958" lon="11.7551789"><ele>4.8</ele><time>2026-04-15T11:04:36.232Z</time></trkpt><trkpt lat="44.9731022" lon="11.755051"><ele>4.199999999999999</ele><time>2026-04-15T11:04:38.219Z</time></trkpt><trkpt lat="44.9730145" lon="11.7549956"><ele>3.5999999999999996</ele><time>2026-04-15T11:04:39.221Z</time></trkpt><trkpt lat="44.9728994" lon="11.7549283"><ele>3.0</ele><time>2026-04-15T11:04:40.216Z</time></trkpt><trkpt lat="44.9727766" lon="11.7548407"><ele>3.0</ele><time>2026-04-15T11:04:41.222Z</time></trkpt><trkpt lat="44.9726499" lon="11.7547528"><ele>3.0</ele><time>2026-04-15T11:04:42.223Z</time></trkpt><trkpt lat="44.9725348" lon="11.754676"><ele>3.0</ele><time>2026-04-15T11:04:43.257Z</time></trkpt><trkpt lat="44.9724304" lon="11.7546161"><ele>3.0</ele><time>2026-04-15T11:04:44.224Z</time></trkpt><trkpt lat="44.972332" lon="11.7545606"><ele>3.0</ele><time>2026-04-15T11:04:45.238Z</time></trkpt><trkpt lat="44.9722398" lon="11.754508"><ele>3.0</ele><time>2026-04-15T11:04:46.219Z</time></trkpt><trkpt lat="44.9721554" lon="11.7544593"><ele>3.0</ele><time>2026-04-15T11:04:47.223Z</time></trkpt><trkpt lat="44.9720653" lon="11.7544066"><ele>3.0</ele><time>2026-04-15T11:04:48.228Z</time></trkpt><trkpt lat="44.9719591" lon="11.7543521"><ele>3.0</ele><time>2026-04-15T11:04:49.222Z</time></trkpt><trkpt lat="44.9718375" lon="11.7542944"><ele>2.75</ele><time>2026-04-15T11:04:50.24Z</time></trkpt><trkpt lat="44.971724" lon="11.7542417"><ele>2.5</ele><time>2026-04-15T11:04:51.217Z</time></trkpt><trkpt lat="44.9716189" lon="11.7541934"><ele>2.25</ele><time>2026-04-15T11:04:52.229Z</time></trkpt><trkpt lat="44.9715118" lon="11.7541412"><ele>2.0</ele><time>2026-04-15T11:04:53.229Z</time></trkpt><trkpt lat="44.9714014" lon="11.7540856"><ele>2.5</ele><time>2026-04-15T11:04:54.283Z</time></trkpt><trkpt lat="44.9712949" lon="11.7540344"><ele>3.0</ele><time>2026-04-15T11:04:55.211Z</time></trkpt><trkpt lat="44.9711885" lon="11.7539717"><ele>3.5</ele><time>2026-04-15T11:04:56.225Z</time></trkpt><trkpt lat="44.9710809" lon="11.7539094"><ele>4.0</ele><time>2026-04-15T11:04:57.231Z</time></trkpt><trkpt lat="44.9709736" lon="11.7538531"><ele>4.0</ele><time>2026-04-15T11:04:58.224Z</time></trkpt><trkpt lat="44.9708682" lon="11.7537962"><ele>4.0</ele><time>2026-04-15T11:04:59.236Z</time></trkpt><trkpt lat="44.9707617" lon="11.7537376"><ele>4.0</ele><time>2026-04-15T11:05:00.225Z</time></trkpt><trkpt lat="44.9706604" lon="11.7536812"><ele>4.0</ele><time>2026-04-15T11:05:01.23Z</time></trkpt><trkpt lat="44.9705669" lon="11.7536225"><ele>4.0</ele><time>2026-04-15T11:05:02.231Z</time></trkpt><trkpt lat="44.9704815" lon="11.7535778"><ele>3.8000000000000003</ele><time>2026-04-15T11:05:03.237Z</time></trkpt><trkpt lat="44.9703945" lon="11.7535847"><ele>3.6000000000000005</ele><time>2026-04-15T11:05:04.238Z</time></trkpt><trkpt lat="44.9703158" lon="11.7536524"><ele>3.4</ele><time>2026-04-15T11:05:05.237Z</time></trkpt><trkpt lat="44.9702162" lon="11.753748"><ele>3.2</ele><time>2026-04-15T11:05:06.238Z</time></trkpt><trkpt lat="44.9700996" lon="11.7538423"><ele>3.0</ele><time>2026-04-15T11:05:07.232Z</time></trkpt><trkpt lat="44.9699697" lon="11.7539238"><ele>3.0</ele><time>2026-04-15T11:05:08.236Z</time></trkpt><trkpt lat="44.9698392" lon="11.7540095"><ele>3.0</ele><time>2026-04-15T11:05:09.233Z</time></trkpt><trkpt lat="44.969705" lon="11.7541043"><ele>3.0</ele><time>2026-04-15T11:05:10.233Z</time></trkpt><trkpt lat="44.9695607" lon="11.7542049"><ele>3.0</ele><time>2026-04-15T11:05:11.234Z</time></trkpt><trkpt lat="44.9694056" lon="11.7543071"><ele>3.0</ele><time>2026-04-15T11:05:12.221Z</time></trkpt><trkpt lat="44.9692457" lon="11.7544101"><ele>3.0</ele><time>2026-04-15T11:05:13.235Z</time></trkpt><trkpt lat="44.9690831" lon="11.7545114"><ele>3.333333333333333</ele><time>2026-04-15T11:05:14.249Z</time></trkpt><trkpt lat="44.9689186" lon="11.7546167"><ele>3.6666666666666665</ele><time>2026-04-15T11:05:15.218Z</time></trkpt><trkpt lat="44.9687554" lon="11.754725"><ele>4.0</ele><time>2026-04-15T11:05:16.217Z</time></trkpt><trkpt lat="44.9685855" lon="11.7548314"><ele>4.0</ele><time>2026-04-15T11:05:17.225Z</time></trkpt><trkpt lat="44.9684124" lon="11.7549368"><ele>4.0</ele><time>2026-04-15T11:05:18.224Z</time></trkpt><trkpt lat="44.9682378" lon="11.7550456"><ele>4.0</ele><time>2026-04-15T11:05:19.225Z</time></trkpt><trkpt lat="44.9680644" lon="11.755157"><ele>3.6666666666666665</ele><time>2026-04-15T11:05:20.222Z</time></trkpt><trkpt lat="44.9678894" lon="11.7552731"><ele>3.333333333333333</ele><time>2026-04-15T11:05:21.228Z</time></trkpt><trkpt lat="44.9677193" lon="11.7553846"><ele>3.0</ele><time>2026-04-15T11:05:22.241Z</time></trkpt><trkpt lat="44.9675495" lon="11.7554988"><ele>3.0</ele><time>2026-04-15T11:05:23.231Z</time></trkpt><trkpt lat="44.9673781" lon="11.7556091"><ele>3.0</ele><time>2026-04-15T11:05:24.234Z</time></trkpt><trkpt lat="44.9672084" lon="11.7557076"><ele>3.0</ele><time>2026-04-15T11:05:25.235Z</time></trkpt><trkpt lat="44.9670421" lon="11.7557921"><ele>3.0</ele><time>2026-04-15T11:05:26.227Z</time></trkpt><trkpt lat="44.9668659" lon="11.7558574"><ele>3.0</ele><time>2026-04-15T11:05:27.221Z</time></trkpt><trkpt lat="44.9666772" lon="11.7559051"><ele>3.0</ele><time>2026-04-15T11:05:28.222Z</time></trkpt><trkpt lat="44.9664812" lon="11.7559304"><ele>3.0</ele><time>2026-04-15T11:05:29.236Z</time></trkpt><trkpt lat="44.9662789" lon="11.755948"><ele>3.0</ele><time>2026-04-15T11:05:30.245Z</time></trkpt><trkpt lat="44.9660676" lon="11.7559598"><ele>3.0</ele><time>2026-04-15T11:05:31.229Z</time></trkpt><trkpt lat="44.9658557" lon="11.7559629"><ele>3.0</ele><time>2026-04-15T11:05:32.231Z</time></trkpt><trkpt lat="44.9656413" lon="11.7559678"><ele>3.0</ele><time>2026-04-15T11:05:33.237Z</time></trkpt><trkpt lat="44.9654288" lon="11.7559791"><ele>3.0</ele><time>2026-04-15T11:05:34.227Z</time></trkpt><trkpt lat="44.9652179" lon="11.7559867"><ele>2.6666666666666665</ele><time>2026-04-15T11:05:35.234Z</time></trkpt><trkpt lat="44.9650083" lon="11.7559921"><ele>2.333333333333333</ele><time>2026-04-15T11:05:36.239Z</time></trkpt><trkpt lat="44.9648069" lon="11.7559951"><ele>2.0</ele><time>2026-04-15T11:05:37.237Z</time></trkpt><trkpt lat="44.9646193" lon="11.7560038"><ele>2.0</ele><time>2026-04-15T11:05:38.229Z</time></trkpt><trkpt lat="44.9644405" lon="11.7560044"><ele>2.0</ele><time>2026-04-15T11:05:39.223Z</time></trkpt><trkpt lat="44.9642664" lon="11.7560064"><ele>2.0</ele><time>2026-04-15T11:05:40.236Z</time></trkpt><trkpt lat="44.9640951" lon="11.7560143"><ele>2.333333333333333</ele><time>2026-04-15T11:05:41.236Z</time></trkpt><trkpt lat="44.9639287" lon="11.7560188"><ele>2.6666666666666665</ele><time>2026-04-15T11:05:42.23Z</time></trkpt><trkpt lat="44.9637676" lon="11.7560302"><ele>3.0</ele><time>2026-04-15T11:05:43.218Z</time></trkpt><trkpt lat="44.9636106" lon="11.7560381"><ele>3.0</ele><time>2026-04-15T11:05:44.224Z</time></trkpt><trkpt lat="44.9634548" lon="11.7560451"><ele>3.0</ele><time>2026-04-15T11:05:45.237Z</time></trkpt><trkpt lat="44.9631518" lon="11.7560526"><ele>3.75</ele><time>2026-04-15T11:05:47.23Z</time></trkpt><trkpt lat="44.9630019" lon="11.7560569"><ele>4.5</ele><time>2026-04-15T11:05:48.229Z</time></trkpt><trkpt lat="44.9628533" lon="11.7560637"><ele>5.25</ele><time>2026-04-15T11:05:49.228Z</time></trkpt><trkpt lat="44.9627041" lon="11.7560755"><ele>6.0</ele><time>2026-04-15T11:05:50.237Z</time></trkpt><trkpt lat="44.9625509" lon="11.7560893"><ele>6.333333333333334</ele><time>2026-04-15T11:05:51.245Z</time></trkpt><trkpt lat="44.9624013" lon="11.756095"><ele>6.666666666666667</ele><time>2026-04-15T11:05:52.229Z</time></trkpt><trkpt lat="44.9622488" lon="11.7561011"><ele>7.0</ele><time>2026-04-15T11:05:53.135Z</time></trkpt><trkpt lat="44.9620937" lon="11.7561067"><ele>7.0</ele><time>2026-04-15T11:05:54.263Z</time></trkpt><trkpt lat="44.9619346" lon="11.7561116"><ele>7.0</ele><time>2026-04-15T11:05:55.235Z</time></trkpt><trkpt lat="44.9617754" lon="11.75612"><ele>7.0</ele><time>2026-04-15T11:05:56.231Z</time></trkpt><trkpt lat="44.9616137" lon="11.7561336"><ele>7.333333333333334</ele><time>2026-04-15T11:05:57.241Z</time></trkpt><trkpt lat="44.9614474" lon="11.7561407"><ele>7.666666666666666</ele><time>2026-04-15T11:05:58.23Z</time></trkpt><trkpt lat="44.9612784" lon="11.756147"><ele>8.0</ele><time>2026-04-15T11:05:59.233Z</time></trkpt><trkpt lat="44.960941" lon="11.7561777"><ele>6.666666666666666</ele><time>2026-04-15T11:06:01.143Z</time></trkpt><trkpt lat="44.9607749" lon="11.7561853"><ele>5.333333333333333</ele><time>2026-04-15T11:06:02.249Z</time></trkpt><trkpt lat="44.9606067" lon="11.7561951"><ele>4.0</ele><time>2026-04-15T11:06:03.238Z</time></trkpt><trkpt lat="44.9604384" lon="11.7561977"><ele>4.0</ele><time>2026-04-15T11:06:04.231Z</time></trkpt><trkpt lat="44.9602661" lon="11.7561976"><ele>4.0</ele><time>2026-04-15T11:06:05.224Z</time></trkpt><trkpt lat="44.9600902" lon="11.7561992"><ele>4.0</ele><time>2026-04-15T11:06:06.246Z</time></trkpt><trkpt lat="44.9597144" lon="11.756223"><ele>3.0</ele><time>2026-04-15T11:06:08.142Z</time></trkpt><trkpt lat="44.9595256" lon="11.7562333"><ele>2.0</ele><time>2026-04-15T11:06:09.135Z</time></trkpt><trkpt lat="44.9593377" lon="11.7562466"><ele>1.0</ele><time>2026-04-15T11:06:10.234Z</time></trkpt><trkpt lat="44.9591552" lon="11.7562531"><ele>1.0</ele><time>2026-04-15T11:06:11.221Z</time></trkpt><trkpt lat="44.9589701" lon="11.7562608"><ele>1.0</ele><time>2026-04-15T11:06:12.241Z</time></trkpt><trkpt lat="44.9586113" lon="11.7562696"><ele>1.0</ele><time>2026-04-15T11:06:14.123Z</time></trkpt><trkpt lat="44.9584313" lon="11.7562808"><ele>1.0</ele><time>2026-04-15T11:06:15.14Z</time></trkpt><trkpt lat="44.9582492" lon="11.7562902"><ele>1.0</ele><time>2026-04-15T11:06:16.143Z</time></trkpt><trkpt lat="44.9580641" lon="11.7562983"><ele>1.6666666666666665</ele><time>2026-04-15T11:06:17.132Z</time></trkpt><trkpt lat="44.9578797" lon="11.7563084"><ele>2.3333333333333335</ele><time>2026-04-15T11:06:18.239Z</time></trkpt><trkpt lat="44.9576923" lon="11.7563126"><ele>3.0</ele><time>2026-04-15T11:06:19.142Z</time></trkpt><trkpt lat="44.9575017" lon="11.7563203"><ele>5.0</ele><time>2026-04-15T11:06:20.143Z</time></trkpt><trkpt lat="44.9573116" lon="11.7563303"><ele>7.0</ele><time>2026-04-15T11:06:21.128Z</time></trkpt><trkpt lat="44.9571199" lon="11.7563347"><ele>9.0</ele><time>2026-04-15T11:06:22.125Z</time></trkpt><trkpt lat="44.956924" lon="11.7563378"><ele>9.0</ele><time>2026-04-15T11:06:23.139Z</time></trkpt><trkpt lat="44.9567301" lon="11.7563452"><ele>9.0</ele><time>2026-04-15T11:06:24.13Z</time></trkpt><trkpt lat="44.9565362" lon="11.7563535"><ele>9.0</ele><time>2026-04-15T11:06:25.144Z</time></trkpt><trkpt lat="44.9563417" lon="11.7563607"><ele>9.0</ele><time>2026-04-15T11:06:26.135Z</time></trkpt><trkpt lat="44.956153" lon="11.7563682"><ele>9.0</ele><time>2026-04-15T11:06:27.135Z</time></trkpt><trkpt lat="44.9559644" lon="11.7563762"><ele>9.0</ele><time>2026-04-15T11:06:28.148Z</time></trkpt><trkpt lat="44.9557751" lon="11.7563831"><ele>8.0</ele><time>2026-04-15T11:06:29.116Z</time></trkpt><trkpt lat="44.9555909" lon="11.7563891"><ele>7.0</ele><time>2026-04-15T11:06:30.129Z</time></trkpt><trkpt lat="44.955414" lon="11.7563946"><ele>6.0</ele><time>2026-04-15T11:06:31.135Z</time></trkpt><trkpt lat="44.9552475" lon="11.7563951"><ele>6.0</ele><time>2026-04-15T11:06:32.139Z</time></trkpt><trkpt lat="44.9550821" lon="11.7563983"><ele>6.0</ele><time>2026-04-15T11:06:33.14Z</time></trkpt><trkpt lat="44.9549173" lon="11.7563996"><ele>6.0</ele><time>2026-04-15T11:06:34.146Z</time></trkpt><trkpt lat="44.9547525" lon="11.7564086"><ele>5.0</ele><time>2026-04-15T11:06:35.128Z</time></trkpt><trkpt lat="44.9545906" lon="11.7564167"><ele>4.0</ele><time>2026-04-15T11:06:36.139Z</time></trkpt><trkpt lat="44.9544256" lon="11.7564232"><ele>3.0</ele><time>2026-04-15T11:06:37.13Z</time></trkpt><trkpt lat="44.9542623" lon="11.7564314"><ele>3.666666666666667</ele><time>2026-04-15T11:06:38.133Z</time></trkpt><trkpt lat="44.9540969" lon="11.756439"><ele>4.333333333333334</ele><time>2026-04-15T11:06:39.141Z</time></trkpt><trkpt lat="44.9539264" lon="11.756445"><ele>5.0</ele><time>2026-04-15T11:06:40.143Z</time></trkpt><trkpt lat="44.9537517" lon="11.7564513"><ele>5.0</ele><time>2026-04-15T11:06:41.14Z</time></trkpt><trkpt lat="44.9535783" lon="11.7564571"><ele>5.0</ele><time>2026-04-15T11:06:42.13Z</time></trkpt><trkpt lat="44.9534099" lon="11.7564597"><ele>5.0</ele><time>2026-04-15T11:06:43.151Z</time></trkpt><trkpt lat="44.9532355" lon="11.7564696"><ele>5.0</ele><time>2026-04-15T11:06:44.139Z</time></trkpt><trkpt lat="44.9530629" lon="11.756474"><ele>5.0</ele><time>2026-04-15T11:06:45.141Z</time></trkpt><trkpt lat="44.9528871" lon="11.7564847"><ele>5.0</ele><time>2026-04-15T11:06:46.142Z</time></trkpt><trkpt lat="44.9527382" lon="11.7564902"><ele>5.0</ele><time>2026-04-15T11:06:47.139Z</time></trkpt><trkpt lat="44.9526259" lon="11.7564834"><ele>5.0</ele><time>2026-04-15T11:06:48.129Z</time></trkpt><trkpt lat="44.9525429" lon="11.7564493"><ele>5.0</ele><time>2026-04-15T11:06:49.133Z</time></trkpt><trkpt lat="44.9524826" lon="11.7563707"><ele>5.0</ele><time>2026-04-15T11:06:50.138Z</time></trkpt><trkpt lat="44.9524288" lon="11.7562528"><ele>5.0</ele><time>2026-04-15T11:06:51.141Z</time></trkpt><trkpt lat="44.9523877" lon="11.7561142"><ele>4.5</ele><time>2026-04-15T11:06:52.142Z</time></trkpt><trkpt lat="44.9523805" lon="11.7559566"><ele>4.0</ele><time>2026-04-15T11:06:53.143Z</time></trkpt><trkpt lat="44.9524288" lon="11.7557975"><ele>3.5</ele><time>2026-04-15T11:06:54.142Z</time></trkpt><trkpt lat="44.9525073" lon="11.7556751"><ele>3.0</ele><time>2026-04-15T11:06:55.139Z</time></trkpt><trkpt lat="44.9526193" lon="11.7556063"><ele>2.3333333333333335</ele><time>2026-04-15T11:06:56.151Z</time></trkpt><trkpt lat="44.9527409" lon="11.7556091"><ele>1.6666666666666665</ele><time>2026-04-15T11:06:57.242Z</time></trkpt><trkpt lat="44.9529592" lon="11.7557887"><ele>1.0</ele><time>2026-04-15T11:06:59.145Z</time></trkpt><trkpt lat="44.9530054" lon="11.7559422"><ele>2.3333333333333335</ele><time>2026-04-15T11:07:00.134Z</time></trkpt><trkpt lat="44.9530111" lon="11.7561533"><ele>3.666666666666667</ele><time>2026-04-15T11:07:01.133Z</time></trkpt><trkpt lat="44.9530128" lon="11.756385"><ele>5.0</ele><time>2026-04-15T11:07:02.132Z</time></trkpt><trkpt lat="44.9530116" lon="11.7566423"><ele>5.0</ele><time>2026-04-15T11:07:03.123Z</time></trkpt><trkpt lat="44.9530036" lon="11.7569276"><ele>5.0</ele><time>2026-04-15T11:07:04.128Z</time></trkpt><trkpt lat="44.9529928" lon="11.7572232"><ele>5.0</ele><time>2026-04-15T11:07:05.122Z</time></trkpt><trkpt lat="44.952965" lon="11.7575183"><ele>5.0</ele><time>2026-04-15T11:07:06.136Z</time></trkpt><trkpt lat="44.9529251" lon="11.7578087"><ele>5.0</ele><time>2026-04-15T11:07:07.128Z</time></trkpt><trkpt lat="44.9528689" lon="11.7580799"><ele>5.0</ele><time>2026-04-15T11:07:08.132Z</time></trkpt><trkpt lat="44.9528005" lon="11.7583359"><ele>4.333333333333334</ele><time>2026-04-15T11:07:09.156Z</time></trkpt><trkpt lat="44.9527127" lon="11.7585784"><ele>3.666666666666667</ele><time>2026-04-15T11:07:10.142Z</time></trkpt><trkpt lat="44.9526107" lon="11.7587972"><ele>3.0</ele><time>2026-04-15T11:07:11.141Z</time></trkpt><trkpt lat="44.952503" lon="11.758997"><ele>3.0</ele><time>2026-04-15T11:07:12.141Z</time></trkpt><trkpt lat="44.9523848" lon="11.7591851"><ele>3.0</ele><time>2026-04-15T11:07:13.134Z</time></trkpt><trkpt lat="44.9522572" lon="11.7593635"><ele>3.0</ele><time>2026-04-15T11:07:14.141Z</time></trkpt><trkpt lat="44.9521201" lon="11.7595292"><ele>3.0</ele><time>2026-04-15T11:07:15.147Z</time></trkpt><trkpt lat="44.9519733" lon="11.7596739"><ele>3.0</ele><time>2026-04-15T11:07:16.152Z</time></trkpt><trkpt lat="44.9518237" lon="11.759813"><ele>3.0</ele><time>2026-04-15T11:07:17.128Z</time></trkpt><trkpt lat="44.951683" lon="11.7599456"><ele>3.0</ele><time>2026-04-15T11:07:18.133Z</time></trkpt><trkpt lat="44.9515481" lon="11.7600966"><ele>3.0</ele><time>2026-04-15T11:07:19.137Z</time></trkpt><trkpt lat="44.9514239" lon="11.7602467"><ele>3.0</ele><time>2026-04-15T11:07:20.126Z</time></trkpt><trkpt lat="44.9513068" lon="11.7604051"><ele>3.0</ele><time>2026-04-15T11:07:21.15Z</time></trkpt><trkpt lat="44.9511896" lon="11.7605637"><ele>3.0</ele><time>2026-04-15T11:07:22.143Z</time></trkpt><trkpt lat="44.9510734" lon="11.7607146"><ele>3.0</ele><time>2026-04-15T11:07:23.136Z</time></trkpt><trkpt lat="44.9509595" lon="11.7608628"><ele>3.333333333333333</ele><time>2026-04-15T11:07:24.138Z</time></trkpt><trkpt lat="44.9508445" lon="11.7610093"><ele>3.6666666666666665</ele><time>2026-04-15T11:07:25.149Z</time></trkpt><trkpt lat="44.9507146" lon="11.7611365"><ele>4.0</ele><time>2026-04-15T11:07:26.145Z</time></trkpt><trkpt lat="44.9505671" lon="11.7612276"><ele>4.0</ele><time>2026-04-15T11:07:27.145Z</time></trkpt><trkpt lat="44.9504151" lon="11.7612579"><ele>4.0</ele><time>2026-04-15T11:07:28.128Z</time></trkpt><trkpt lat="44.9502745" lon="11.7612523"><ele>4.0</ele><time>2026-04-15T11:07:29.147Z</time></trkpt><trkpt lat="44.9501416" lon="11.7612228"><ele>4.0</ele><time>2026-04-15T11:07:30.134Z</time></trkpt><trkpt lat="44.9500172" lon="11.7611684"><ele>4.0</ele><time>2026-04-15T11:07:31.135Z</time></trkpt><trkpt lat="44.9499272" lon="11.7610519"><ele>4.0</ele><time>2026-04-15T11:07:32.14Z</time></trkpt><trkpt lat="44.9498549" lon="11.7609083"><ele>4.0</ele><time>2026-04-15T11:07:33.142Z</time></trkpt><trkpt lat="44.949769" lon="11.7607531"><ele>4.0</ele><time>2026-04-15T11:07:34.155Z</time></trkpt><trkpt lat="44.9496537" lon="11.7606484"><ele>4.0</ele><time>2026-04-15T11:07:35.125Z</time></trkpt><trkpt lat="44.9495065" lon="11.760572"><ele>4.0</ele><time>2026-04-15T11:07:36.147Z</time></trkpt><trkpt lat="44.9493519" lon="11.7605502"><ele>4.0</ele><time>2026-04-15T11:07:37.137Z</time></trkpt><trkpt lat="44.9491716" lon="11.7605811"><ele>4.0</ele><time>2026-04-15T11:07:38.145Z</time></trkpt><trkpt lat="44.9489867" lon="11.7606298"><ele>4.0</ele><time>2026-04-15T11:07:39.142Z</time></trkpt><trkpt lat="44.9487934" lon="11.7606395"><ele>4.0</ele><time>2026-04-15T11:07:40.147Z</time></trkpt><trkpt lat="44.9486053" lon="11.7606261"><ele>4.0</ele><time>2026-04-15T11:07:41.147Z</time></trkpt><trkpt lat="44.9484285" lon="11.7605953"><ele>4.0</ele><time>2026-04-15T11:07:42.149Z</time></trkpt><trkpt lat="44.9482655" lon="11.760568"><ele>4.0</ele><time>2026-04-15T11:07:43.157Z</time></trkpt><trkpt lat="44.9481049" lon="11.76058"><ele>4.0</ele><time>2026-04-15T11:07:44.132Z</time></trkpt><trkpt lat="44.9479508" lon="11.7606234"><ele>4.0</ele><time>2026-04-15T11:07:45.148Z</time></trkpt><trkpt lat="44.9477996" lon="11.7606851"><ele>4.0</ele><time>2026-04-15T11:07:46.132Z</time></trkpt><trkpt lat="44.9476567" lon="11.7607477"><ele>4.0</ele><time>2026-04-15T11:07:47.132Z</time></trkpt><trkpt lat="44.9475266" lon="11.7608016"><ele>4.0</ele><time>2026-04-15T11:07:48.142Z</time></trkpt><trkpt lat="44.9474088" lon="11.7608268"><ele>4.0</ele><time>2026-04-15T11:07:49.132Z</time></trkpt><trkpt lat="44.9473104" lon="11.7608234"><ele>4.0</ele><time>2026-04-15T11:07:50.14Z</time></trkpt><trkpt lat="44.9472329" lon="11.7608151"><ele>4.0</ele><time>2026-04-15T11:07:51.128Z</time></trkpt><trkpt lat="44.947152" lon="11.7608315"><ele>4.0</ele><time>2026-04-15T11:07:53.137Z</time></trkpt><trkpt lat="44.9470601" lon="11.7610099"><ele>4.0</ele><time>2026-04-15T11:07:55.149Z</time></trkpt><trkpt lat="44.9470053" lon="11.7611552"><ele>4.0</ele><time>2026-04-15T11:07:56.137Z</time></trkpt><trkpt lat="44.9469333" lon="11.7613176"><ele>4.0</ele><time>2026-04-15T11:07:57.142Z</time></trkpt><trkpt lat="44.9468364" lon="11.7614753"><ele>4.0</ele><time>2026-04-15T11:07:58.148Z</time></trkpt><trkpt lat="44.9467235" lon="11.7616175"><ele>4.0</ele><time>2026-04-15T11:07:59.139Z</time></trkpt><trkpt lat="44.9466097" lon="11.7617635"><ele>4.0</ele><time>2026-04-15T11:08:00.134Z</time></trkpt><trkpt lat="44.9465212" lon="11.7619343"><ele>3.6666666666666665</ele><time>2026-04-15T11:08:01.132Z</time></trkpt><trkpt lat="44.9464577" lon="11.7621305"><ele>3.333333333333333</ele><time>2026-04-15T11:08:02.143Z</time></trkpt><trkpt lat="44.946421" lon="11.7623505"><ele>3.0</ele><time>2026-04-15T11:08:03.127Z</time></trkpt><trkpt lat="44.9463976" lon="11.7625699"><ele>3.333333333333333</ele><time>2026-04-15T11:08:04.127Z</time></trkpt><trkpt lat="44.946376" lon="11.7627871"><ele>3.6666666666666665</ele><time>2026-04-15T11:08:05.152Z</time></trkpt><trkpt lat="44.9463514" lon="11.763002"><ele>4.0</ele><time>2026-04-15T11:08:06.167Z</time></trkpt><trkpt lat="44.9463205" lon="11.7632258"><ele>4.0</ele><time>2026-04-15T11:08:07.136Z</time></trkpt><trkpt lat="44.9462936" lon="11.7634549"><ele>4.0</ele><time>2026-04-15T11:08:08.144Z</time></trkpt><trkpt lat="44.9462686" lon="11.7636911"><ele>4.0</ele><time>2026-04-15T11:08:09.163Z</time></trkpt><trkpt lat="44.9462436" lon="11.7639248"><ele>4.0</ele><time>2026-04-15T11:08:10.159Z</time></trkpt><trkpt lat="44.9462185" lon="11.7641609"><ele>4.0</ele><time>2026-04-15T11:08:11.131Z</time></trkpt><trkpt lat="44.9461949" lon="11.7643986"><ele>4.0</ele><time>2026-04-15T11:08:12.153Z</time></trkpt><trkpt lat="44.9461738" lon="11.7646369"><ele>4.333333333333333</ele><time>2026-04-15T11:08:13.143Z</time></trkpt><trkpt lat="44.946155" lon="11.7648685"><ele>4.666666666666667</ele><time>2026-04-15T11:08:14.142Z</time></trkpt><trkpt lat="44.9461361" lon="11.7650788"><ele>5.0</ele><time>2026-04-15T11:08:15.132Z</time></trkpt><trkpt lat="44.946119" lon="11.7652774"><ele>5.0</ele><time>2026-04-15T11:08:16.157Z</time></trkpt><trkpt lat="44.9461038" lon="11.7654388"><ele>5.0</ele><time>2026-04-15T11:08:17.141Z</time></trkpt><trkpt lat="44.9460679" lon="11.7655758"><ele>5.0</ele><time>2026-04-15T11:08:18.146Z</time></trkpt><trkpt lat="44.9459899" lon="11.7656825"><ele>5.0</ele><time>2026-04-15T11:08:19.16Z</time></trkpt><trkpt lat="44.9458967" lon="11.765759"><ele>5.0</ele><time>2026-04-15T11:08:20.138Z</time></trkpt><trkpt lat="44.9457853" lon="11.7657935"><ele>5.0</ele><time>2026-04-15T11:08:21.142Z</time></trkpt><trkpt lat="44.94566" lon="11.7657842"><ele>5.0</ele><time>2026-04-15T11:08:22.145Z</time></trkpt><trkpt lat="44.9455405" lon="11.7657424"><ele>5.0</ele><time>2026-04-15T11:08:23.132Z</time></trkpt><trkpt lat="44.945415" lon="11.7657035"><ele>5.0</ele><time>2026-04-15T11:08:24.15Z</time></trkpt><trkpt lat="44.9453087" lon="11.765644"><ele>5.0</ele><time>2026-04-15T11:08:25.145Z</time></trkpt><trkpt lat="44.9452308" lon="11.7655588"><ele>5.0</ele><time>2026-04-15T11:08:26.126Z</time></trkpt><trkpt lat="44.945178" lon="11.7654428"><ele>5.0</ele><time>2026-04-15T11:08:27.134Z</time></trkpt><trkpt lat="44.9451448" lon="11.7652905"><ele>5.0</ele><time>2026-04-15T11:08:28.138Z</time></trkpt><trkpt lat="44.9451087" lon="11.7651401"><ele>5.0</ele><time>2026-04-15T11:08:29.141Z</time></trkpt><trkpt lat="44.945065" lon="11.7650027"><ele>5.2</ele><time>2026-04-15T11:08:30.156Z</time></trkpt><trkpt lat="44.9450008" lon="11.7649063"><ele>5.4</ele><time>2026-04-15T11:08:31.145Z</time></trkpt><trkpt lat="44.944895" lon="11.7648854"><ele>5.6</ele><time>2026-04-15T11:08:32.143Z</time></trkpt><trkpt lat="44.944782" lon="11.7648763"><ele>5.8</ele><time>2026-04-15T11:08:33.16Z</time></trkpt><trkpt lat="44.9446609" lon="11.7648658"><ele>6.0</ele><time>2026-04-15T11:08:34.154Z</time></trkpt><trkpt lat="44.9445223" lon="11.7648395"><ele>6.0</ele><time>2026-04-15T11:08:35.137Z</time></trkpt><trkpt lat="44.9443676" lon="11.7648214"><ele>6.0</ele><time>2026-04-15T11:08:36.138Z</time></trkpt><trkpt lat="44.9441979" lon="11.7648092"><ele>6.0</ele><time>2026-04-15T11:08:37.125Z</time></trkpt><trkpt lat="44.9440259" lon="11.7647862"><ele>5.0</ele><time>2026-04-15T11:08:38.135Z</time></trkpt><trkpt lat="44.9438401" lon="11.7647637"><ele>4.0</ele><time>2026-04-15T11:08:39.14Z</time></trkpt><trkpt lat="44.9436423" lon="11.764738"><ele>3.0</ele><time>2026-04-15T11:08:40.147Z</time></trkpt><trkpt lat="44.9434397" lon="11.7647148"><ele>2.3333333333333335</ele><time>2026-04-15T11:08:41.156Z</time></trkpt><trkpt lat="44.9432271" lon="11.764687"><ele>1.6666666666666665</ele><time>2026-04-15T11:08:42.124Z</time></trkpt><trkpt lat="44.9430126" lon="11.7646572"><ele>1.0</ele><time>2026-04-15T11:08:43.138Z</time></trkpt><trkpt lat="44.9428021" lon="11.7646241"><ele>1.0</ele><time>2026-04-15T11:08:44.152Z</time></trkpt><trkpt lat="44.9425981" lon="11.7645866"><ele>1.0</ele><time>2026-04-15T11:08:45.138Z</time></trkpt><trkpt lat="44.9423974" lon="11.764547"><ele>1.0</ele><time>2026-04-15T11:08:46.135Z</time></trkpt><trkpt lat="44.9422042" lon="11.7645178"><ele>1.0</ele><time>2026-04-15T11:08:47.144Z</time></trkpt><trkpt lat="44.9420323" lon="11.7644899"><ele>1.0</ele><time>2026-04-15T11:08:48.131Z</time></trkpt><trkpt lat="44.9418837" lon="11.7644609"><ele>1.0</ele><time>2026-04-15T11:08:49.14Z</time></trkpt><trkpt lat="44.9417621" lon="11.7644406"><ele>1.0</ele><time>2026-04-15T11:08:50.132Z</time></trkpt><trkpt lat="44.9416611" lon="11.7644225"><ele>1.4</ele><time>2026-04-15T11:08:51.136Z</time></trkpt><trkpt lat="44.9415972" lon="11.7644066"><ele>1.8</ele><time>2026-04-15T11:08:52.144Z</time></trkpt><trkpt lat="44.9415367" lon="11.7643632"><ele>2.1999999999999997</ele><time>2026-04-15T11:08:54.145Z</time></trkpt><trkpt lat="44.9414232" lon="11.764344"><ele>2.6</ele><time>2026-04-15T11:08:56.153Z</time></trkpt><trkpt lat="44.9413041" lon="11.764368"><ele>3.0</ele><time>2026-04-15T11:08:57.146Z</time></trkpt><trkpt lat="44.9411585" lon="11.7644094"><ele>3.0</ele><time>2026-04-15T11:08:58.144Z</time></trkpt><trkpt lat="44.9409789" lon="11.764463"><ele>3.0</ele><time>2026-04-15T11:08:59.142Z</time></trkpt><trkpt lat="44.9407545" lon="11.764494"><ele>3.0</ele><time>2026-04-15T11:09:00.161Z</time></trkpt><trkpt lat="44.9405044" lon="11.7644926"><ele>3.0</ele><time>2026-04-15T11:09:01.139Z</time></trkpt><trkpt lat="44.9402351" lon="11.7644639"><ele>3.0</ele><time>2026-04-15T11:09:02.145Z</time></trkpt><trkpt lat="44.9399435" lon="11.7644313"><ele>2.0</ele><time>2026-04-15T11:09:03.135Z</time></trkpt><trkpt lat="44.9396338" lon="11.7644057"><ele>1.0</ele><time>2026-04-15T11:09:04.142Z</time></trkpt><trkpt lat="44.939323" lon="11.7643837"><ele>1.0</ele><time>2026-04-15T11:09:05.148Z</time></trkpt><trkpt lat="44.939026" lon="11.7643652"><ele>1.0</ele><time>2026-04-15T11:09:06.149Z</time></trkpt><trkpt lat="44.9387369" lon="11.7643461"><ele>2.0</ele><time>2026-04-15T11:09:07.146Z</time></trkpt><trkpt lat="44.9384601" lon="11.7643299"><ele>3.0</ele><time>2026-04-15T11:09:08.138Z</time></trkpt><trkpt lat="44.9381838" lon="11.7643219"><ele>3.0</ele><time>2026-04-15T11:09:09.133Z</time></trkpt><trkpt lat="44.9379079" lon="11.7643148"><ele>3.0</ele><time>2026-04-15T11:09:10.146Z</time></trkpt><trkpt lat="44.9376371" lon="11.7643132"><ele>3.0</ele><time>2026-04-15T11:09:11.144Z</time></trkpt><trkpt lat="44.9373651" lon="11.7643087"><ele>3.0</ele><time>2026-04-15T11:09:12.143Z</time></trkpt><trkpt lat="44.9370963" lon="11.7643099"><ele>3.0</ele><time>2026-04-15T11:09:13.137Z</time></trkpt><trkpt lat="44.9368313" lon="11.7643162"><ele>3.0</ele><time>2026-04-15T11:09:14.131Z</time></trkpt><trkpt lat="44.9365698" lon="11.7643217"><ele>3.0</ele><time>2026-04-15T11:09:15.132Z</time></trkpt><trkpt lat="44.9363093" lon="11.7643233"><ele>3.0</ele><time>2026-04-15T11:09:16.129Z</time></trkpt><trkpt lat="44.9360517" lon="11.7643246"><ele>2.5</ele><time>2026-04-15T11:09:17.147Z</time></trkpt><trkpt lat="44.9357971" lon="11.7643306"><ele>2.0</ele><time>2026-04-15T11:09:18.138Z</time></trkpt><trkpt lat="44.9355463" lon="11.7643357"><ele>2.0</ele><time>2026-04-15T11:09:19.146Z</time></trkpt><trkpt lat="44.9352968" lon="11.7643357"><ele>2.0</ele><time>2026-04-15T11:09:20.135Z</time></trkpt><trkpt lat="44.9350488" lon="11.7643399"><ele>2.0</ele><time>2026-04-15T11:09:21.134Z</time></trkpt><trkpt lat="44.9348021" lon="11.764339"><ele>2.0</ele><time>2026-04-15T11:09:22.138Z</time></trkpt><trkpt lat="44.9345528" lon="11.7643347"><ele>2.0</ele><time>2026-04-15T11:09:23.139Z</time></trkpt><trkpt lat="44.9343033" lon="11.7643352"><ele>2.0</ele><time>2026-04-15T11:09:24.139Z</time></trkpt><trkpt lat="44.9340556" lon="11.7643396"><ele>2.0</ele><time>2026-04-15T11:09:25.138Z</time></trkpt><trkpt lat="44.9338092" lon="11.7643487"><ele>2.0</ele><time>2026-04-15T11:09:26.134Z</time></trkpt><trkpt lat="44.933564" lon="11.7643613"><ele>2.0</ele><time>2026-04-15T11:09:27.136Z</time></trkpt><trkpt lat="44.9333168" lon="11.7643789"><ele>2.0</ele><time>2026-04-15T11:09:28.136Z</time></trkpt><trkpt lat="44.9330686" lon="11.7644145"><ele>2.0</ele><time>2026-04-15T11:09:29.13Z</time></trkpt><trkpt lat="44.932817" lon="11.7644609"><ele>2.0</ele><time>2026-04-15T11:09:30.129Z</time></trkpt><trkpt lat="44.9325589" lon="11.7645207"><ele>2.0</ele><time>2026-04-15T11:09:31.131Z</time></trkpt><trkpt lat="44.9320408" lon="11.7646713"><ele>2.0</ele><time>2026-04-15T11:09:33.123Z</time></trkpt><trkpt lat="44.9317817" lon="11.7647749"><ele>2.0</ele><time>2026-04-15T11:09:34.131Z</time></trkpt><trkpt lat="44.9315243" lon="11.7648855"><ele>1.5</ele><time>2026-04-15T11:09:35.127Z</time></trkpt><trkpt lat="44.9312676" lon="11.7650109"><ele>1.0</ele><time>2026-04-15T11:09:36.127Z</time></trkpt><trkpt lat="44.9310128" lon="11.7651473"><ele>1.5</ele><time>2026-04-15T11:09:37.153Z</time></trkpt><trkpt lat="44.9307606" lon="11.7652965"><ele>2.0</ele><time>2026-04-15T11:09:38.122Z</time></trkpt><trkpt lat="44.9305106" lon="11.7654558"><ele>2.0</ele><time>2026-04-15T11:09:39.134Z</time></trkpt><trkpt lat="44.9302665" lon="11.76563"><ele>2.0</ele><time>2026-04-15T11:09:40.131Z</time></trkpt><trkpt lat="44.9300278" lon="11.7658112"><ele>2.5</ele><time>2026-04-15T11:09:41.136Z</time></trkpt><trkpt lat="44.9297949" lon="11.7660008"><ele>3.0</ele><time>2026-04-15T11:09:42.124Z</time></trkpt><trkpt lat="44.9295694" lon="11.7661973"><ele>3.0</ele><time>2026-04-15T11:09:43.135Z</time></trkpt><trkpt lat="44.9293536" lon="11.7664035"><ele>3.0</ele><time>2026-04-15T11:09:44.14Z</time></trkpt><trkpt lat="44.9291498" lon="11.7666033"><ele>3.0</ele><time>2026-04-15T11:09:45.136Z</time></trkpt><trkpt lat="44.9289514" lon="11.766795"><ele>3.0</ele><time>2026-04-15T11:09:46.143Z</time></trkpt><trkpt lat="44.9287552" lon="11.7669808"><ele>3.0</ele><time>2026-04-15T11:09:47.135Z</time></trkpt><trkpt lat="44.9285631" lon="11.7671641"><ele>3.0</ele><time>2026-04-15T11:09:48.129Z</time></trkpt><trkpt lat="44.9283717" lon="11.7673469"><ele>2.5</ele><time>2026-04-15T11:09:49.145Z</time></trkpt><trkpt lat="44.9281812" lon="11.7675285"><ele>2.0</ele><time>2026-04-15T11:09:50.14Z</time></trkpt><trkpt lat="44.9279925" lon="11.7677136"><ele>2.0</ele><time>2026-04-15T11:09:51.139Z</time></trkpt><trkpt lat="44.9278055" lon="11.7678958"><ele>2.0</ele><time>2026-04-15T11:09:52.128Z</time></trkpt><trkpt lat="44.9276192" lon="11.7680725"><ele>2.0</ele><time>2026-04-15T11:09:53.135Z</time></trkpt><trkpt lat="44.9274432" lon="11.7682459"><ele>2.0</ele><time>2026-04-15T11:09:54.143Z</time></trkpt><trkpt lat="44.927267" lon="11.7684184"><ele>2.0</ele><time>2026-04-15T11:09:55.14Z</time></trkpt><trkpt lat="44.9271005" lon="11.768579"><ele>2.0</ele><time>2026-04-15T11:09:56.163Z</time></trkpt><trkpt lat="44.9269448" lon="11.7687245"><ele>2.0</ele><time>2026-04-15T11:09:57.149Z</time></trkpt><trkpt lat="44.9267941" lon="11.7688636"><ele>2.0</ele><time>2026-04-15T11:09:58.146Z</time></trkpt><trkpt lat="44.9266529" lon="11.7689892"><ele>2.0</ele><time>2026-04-15T11:09:59.137Z</time></trkpt><trkpt lat="44.9265262" lon="11.7691138"><ele>2.0</ele><time>2026-04-15T11:10:00.131Z</time></trkpt><trkpt lat="44.9264055" lon="11.7692268"><ele>2.0</ele><time>2026-04-15T11:10:01.142Z</time></trkpt><trkpt lat="44.9262854" lon="11.7693405"><ele>2.0</ele><time>2026-04-15T11:10:02.145Z</time></trkpt><trkpt lat="44.9261609" lon="11.7694489"><ele>1.6666666666666665</ele><time>2026-04-15T11:10:03.154Z</time></trkpt><trkpt lat="44.9260227" lon="11.7695428"><ele>1.3333333333333333</ele><time>2026-04-15T11:10:04.134Z</time></trkpt><trkpt lat="44.9258627" lon="11.7696199"><ele>1.0</ele><time>2026-04-15T11:10:05.149Z</time></trkpt><trkpt lat="44.9256855" lon="11.7697063"><ele>1.3333333333333333</ele><time>2026-04-15T11:10:06.123Z</time></trkpt><trkpt lat="44.9254857" lon="11.7698072"><ele>1.6666666666666665</ele><time>2026-04-15T11:10:07.144Z</time></trkpt><trkpt lat="44.9252667" lon="11.7699206"><ele>2.0</ele><time>2026-04-15T11:10:08.142Z</time></trkpt><trkpt lat="44.9250569" lon="11.7700152"><ele>2.0</ele><time>2026-04-15T11:10:09.144Z</time></trkpt><trkpt lat="44.9248552" lon="11.7700929"><ele>2.0</ele><time>2026-04-15T11:10:10.135Z</time></trkpt><trkpt lat="44.9246677" lon="11.7701717"><ele>2.0</ele><time>2026-04-15T11:10:11.137Z</time></trkpt><trkpt lat="44.9245008" lon="11.7702526"><ele>2.0</ele><time>2026-04-15T11:10:12.132Z</time></trkpt><trkpt lat="44.9243366" lon="11.7703374"><ele>2.0</ele><time>2026-04-15T11:10:13.135Z</time></trkpt><trkpt lat="44.9241769" lon="11.770411"><ele>2.0</ele><time>2026-04-15T11:10:14.14Z</time></trkpt><trkpt lat="44.9240148" lon="11.7704789"><ele>2.0</ele><time>2026-04-15T11:10:15.15Z</time></trkpt><trkpt lat="44.9238471" lon="11.77056"><ele>2.0</ele><time>2026-04-15T11:10:16.131Z</time></trkpt><trkpt lat="44.923666" lon="11.7706518"><ele>2.0</ele><time>2026-04-15T11:10:17.13Z</time></trkpt><trkpt lat="44.9234782" lon="11.7707434"><ele>2.0</ele><time>2026-04-15T11:10:18.134Z</time></trkpt><trkpt lat="44.9232748" lon="11.770843"><ele>2.0</ele><time>2026-04-15T11:10:19.139Z</time></trkpt><trkpt lat="44.9230439" lon="11.7709636"><ele>1.5</ele><time>2026-04-15T11:10:20.152Z</time></trkpt><trkpt lat="44.9227921" lon="11.7710862"><ele>1.0</ele><time>2026-04-15T11:10:21.139Z</time></trkpt><trkpt lat="44.9225241" lon="11.7712009"><ele>1.0</ele><time>2026-04-15T11:10:22.144Z</time></trkpt><trkpt lat="44.922255" lon="11.7713064"><ele>1.0</ele><time>2026-04-15T11:10:23.129Z</time></trkpt><trkpt lat="44.9219937" lon="11.7714202"><ele>1.0</ele><time>2026-04-15T11:10:24.134Z</time></trkpt><trkpt lat="44.921739" lon="11.7715407"><ele>1.0</ele><time>2026-04-15T11:10:25.127Z</time></trkpt><trkpt lat="44.9214989" lon="11.7716549"><ele>1.0</ele><time>2026-04-15T11:10:26.144Z</time></trkpt><trkpt lat="44.9212788" lon="11.7717524"><ele>1.0</ele><time>2026-04-15T11:10:27.149Z</time></trkpt><trkpt lat="44.9210744" lon="11.7718407"><ele>1.0</ele><time>2026-04-15T11:10:28.143Z</time></trkpt><trkpt lat="44.9208818" lon="11.7719335"><ele>1.0</ele><time>2026-04-15T11:10:29.144Z</time></trkpt><trkpt lat="44.9207011" lon="11.7720111"><ele>1.0</ele><time>2026-04-15T11:10:30.147Z</time></trkpt><trkpt lat="44.9205254" lon="11.7720922"><ele>1.0</ele><time>2026-04-15T11:10:31.132Z</time></trkpt><trkpt lat="44.9203557" lon="11.7721792"><ele>1.0</ele><time>2026-04-15T11:10:32.145Z</time></trkpt><trkpt lat="44.9202063" lon="11.7722701"><ele>1.0</ele><time>2026-04-15T11:10:33.141Z</time></trkpt><trkpt lat="44.9200873" lon="11.7723479"><ele>1.0</ele><time>2026-04-15T11:10:34.16Z</time></trkpt><trkpt lat="44.9199889" lon="11.7724039"><ele>1.0</ele><time>2026-04-15T11:10:35.143Z</time></trkpt><trkpt lat="44.9199117" lon="11.7724405"><ele>1.0</ele><time>2026-04-15T11:10:36.145Z</time></trkpt><trkpt lat="44.9198485" lon="11.7724723"><ele>1.0</ele><time>2026-04-15T11:10:37.135Z</time></trkpt><trkpt lat="44.9197491" lon="11.7725123"><ele>1.0</ele><time>2026-04-15T11:10:39.167Z</time></trkpt><trkpt lat="44.9196793" lon="11.7725485"><ele>1.0</ele><time>2026-04-15T11:10:42.142Z</time></trkpt><trkpt lat="44.9195637" lon="11.7726169"><ele>1.0</ele><time>2026-04-15T11:10:52.145Z</time></trkpt><trkpt lat="44.9194811" lon="11.7726558"><ele>1.5</ele><time>2026-04-15T11:10:53.148Z</time></trkpt><trkpt lat="44.9193826" lon="11.7726948"><ele>2.0</ele><time>2026-04-15T11:10:54.15Z</time></trkpt><trkpt lat="44.9192776" lon="11.772727"><ele>2.5</ele><time>2026-04-15T11:10:55.143Z</time></trkpt><trkpt lat="44.9191641" lon="11.7727656"><ele>3.0</ele><time>2026-04-15T11:10:56.142Z</time></trkpt><trkpt lat="44.9190425" lon="11.7727996"><ele>3.0</ele><time>2026-04-15T11:10:57.145Z</time></trkpt><trkpt lat="44.9189143" lon="11.7728288"><ele>3.0</ele><time>2026-04-15T11:10:58.141Z</time></trkpt><trkpt lat="44.9187852" lon="11.7728479"><ele>3.0</ele><time>2026-04-15T11:10:59.132Z</time></trkpt><trkpt lat="44.9186545" lon="11.7728653"><ele>3.0</ele><time>2026-04-15T11:11:00.132Z</time></trkpt><trkpt lat="44.9185213" lon="11.7728764"><ele>2.75</ele><time>2026-04-15T11:11:01.149Z</time></trkpt><trkpt lat="44.9183874" lon="11.7728759"><ele>2.5</ele><time>2026-04-15T11:11:02.148Z</time></trkpt><trkpt lat="44.9182565" lon="11.7728667"><ele>2.25</ele><time>2026-04-15T11:11:03.142Z</time></trkpt><trkpt lat="44.9181219" lon="11.7728511"><ele>2.0</ele><time>2026-04-15T11:11:04.135Z</time></trkpt><trkpt lat="44.9179889" lon="11.7728308"><ele>2.0</ele><time>2026-04-15T11:11:05.135Z</time></trkpt><trkpt lat="44.9178542" lon="11.7728026"><ele>2.0</ele><time>2026-04-15T11:11:06.132Z</time></trkpt><trkpt lat="44.917719" lon="11.7727713"><ele>2.0</ele><time>2026-04-15T11:11:07.13Z</time></trkpt><trkpt lat="44.9175872" lon="11.7727377"><ele>2.0</ele><time>2026-04-15T11:11:08.145Z</time></trkpt><trkpt lat="44.9174566" lon="11.7726975"><ele>1.75</ele><time>2026-04-15T11:11:09.151Z</time></trkpt><trkpt lat="44.9173239" lon="11.7726627"><ele>1.5</ele><time>2026-04-15T11:11:10.147Z</time></trkpt><trkpt lat="44.917194" lon="11.7726232"><ele>1.25</ele><time>2026-04-15T11:11:11.148Z</time></trkpt><trkpt lat="44.9170631" lon="11.7725999"><ele>1.0</ele><time>2026-04-15T11:11:12.122Z</time></trkpt><trkpt lat="44.9169319" lon="11.7725903"><ele>1.0</ele><time>2026-04-15T11:11:13.131Z</time></trkpt><trkpt lat="44.9167957" lon="11.7725813"><ele>1.0</ele><time>2026-04-15T11:11:14.145Z</time></trkpt><trkpt lat="44.9166588" lon="11.7725796"><ele>1.0</ele><time>2026-04-15T11:11:15.142Z</time></trkpt><trkpt lat="44.9165155" lon="11.7725811"><ele>1.0</ele><time>2026-04-15T11:11:16.134Z</time></trkpt><trkpt lat="44.916374" lon="11.7725796"><ele>1.0</ele><time>2026-04-15T11:11:17.148Z</time></trkpt><trkpt lat="44.9162283" lon="11.7725776"><ele>1.0</ele><time>2026-04-15T11:11:18.136Z</time></trkpt><trkpt lat="44.9160813" lon="11.7725615"><ele>1.0</ele><time>2026-04-15T11:11:19.148Z</time></trkpt><trkpt lat="44.9159328" lon="11.7725336"><ele>1.0</ele><time>2026-04-15T11:11:20.126Z</time></trkpt><trkpt lat="44.9157893" lon="11.7724835"><ele>1.0</ele><time>2026-04-15T11:11:21.134Z</time></trkpt><trkpt lat="44.9156482" lon="11.7724149"><ele>1.0</ele><time>2026-04-15T11:11:22.138Z</time></trkpt><trkpt lat="44.9155053" lon="11.772345"><ele>1.0</ele><time>2026-04-15T11:11:23.144Z</time></trkpt><trkpt lat="44.9153664" lon="11.7722724"><ele>1.0</ele><time>2026-04-15T11:11:24.127Z</time></trkpt><trkpt lat="44.9152353" lon="11.7722064"><ele>1.0</ele><time>2026-04-15T11:11:25.152Z</time></trkpt><trkpt lat="44.9151014" lon="11.7721665"><ele>1.0</ele><time>2026-04-15T11:11:26.134Z</time></trkpt><trkpt lat="44.9149633" lon="11.772128"><ele>1.0</ele><time>2026-04-15T11:11:27.155Z</time></trkpt><trkpt lat="44.9148178" lon="11.7720818"><ele>1.0</ele><time>2026-04-15T11:11:28.143Z</time></trkpt><trkpt lat="44.9146677" lon="11.7720363"><ele>0.75</ele><time>2026-04-15T11:11:29.133Z</time></trkpt><trkpt lat="44.9145216" lon="11.7719798"><ele>0.5</ele><time>2026-04-15T11:11:30.139Z</time></trkpt><trkpt lat="44.914388" lon="11.7719217"><ele>0.25</ele><time>2026-04-15T11:11:31.121Z</time></trkpt><trkpt lat="44.9142708" lon="11.7718706"><ele>0.0</ele><time>2026-04-15T11:11:32.129Z</time></trkpt><trkpt lat="44.9141634" lon="11.7718287"><ele>0.5</ele><time>2026-04-15T11:11:33.134Z</time></trkpt><trkpt lat="44.9140531" lon="11.7717948"><ele>1.0</ele><time>2026-04-15T11:11:34.138Z</time></trkpt><trkpt lat="44.9139385" lon="11.7717727"><ele>1.5</ele><time>2026-04-15T11:11:35.137Z</time></trkpt><trkpt lat="44.9138126" lon="11.77177"><ele>2.0</ele><time>2026-04-15T11:11:36.132Z</time></trkpt><trkpt lat="44.9136768" lon="11.7717724"><ele>2.0</ele><time>2026-04-15T11:11:37.152Z</time></trkpt><trkpt lat="44.9135379" lon="11.7717754"><ele>2.0</ele><time>2026-04-15T11:11:38.126Z</time></trkpt><trkpt lat="44.9133984" lon="11.7717727"><ele>2.0</ele><time>2026-04-15T11:11:39.146Z</time></trkpt><trkpt lat="44.9132605" lon="11.7717724"><ele>2.0</ele><time>2026-04-15T11:11:40.135Z</time></trkpt><trkpt lat="44.9131204" lon="11.7717464"><ele>1.75</ele><time>2026-04-15T11:11:41.119Z</time></trkpt><trkpt lat="44.912982" lon="11.7717032"><ele>1.5</ele><time>2026-04-15T11:11:42.134Z</time></trkpt><trkpt lat="44.9128449" lon="11.7716494"><ele>1.25</ele><time>2026-04-15T11:11:43.137Z</time></trkpt><trkpt lat="44.9127132" lon="11.7715739"><ele>1.0</ele><time>2026-04-15T11:11:44.135Z</time></trkpt><trkpt lat="44.9125843" lon="11.7714913"><ele>1.0</ele><time>2026-04-15T11:11:45.128Z</time></trkpt><trkpt lat="44.9124569" lon="11.7714119"><ele>1.0</ele><time>2026-04-15T11:11:46.125Z</time></trkpt><trkpt lat="44.9123202" lon="11.7713423"><ele>1.0</ele><time>2026-04-15T11:11:47.14Z</time></trkpt><trkpt lat="44.9121772" lon="11.7712777"><ele>1.0</ele><time>2026-04-15T11:11:48.138Z</time></trkpt><trkpt lat="44.912028" lon="11.7712214"><ele>1.0</ele><time>2026-04-15T11:11:49.135Z</time></trkpt><trkpt lat="44.9118887" lon="11.7711748"><ele>1.0</ele><time>2026-04-15T11:11:50.14Z</time></trkpt><trkpt lat="44.9117668" lon="11.7711469"><ele>1.0</ele><time>2026-04-15T11:11:51.138Z</time></trkpt><trkpt lat="44.9116438" lon="11.7711323"><ele>1.0</ele><time>2026-04-15T11:11:52.129Z</time></trkpt><trkpt lat="44.911511" lon="11.7711442"><ele>1.3333333333333333</ele><time>2026-04-15T11:11:53.132Z</time></trkpt><trkpt lat="44.9113668" lon="11.7711717"><ele>1.6666666666666665</ele><time>2026-04-15T11:11:54.135Z</time></trkpt><trkpt lat="44.9112054" lon="11.7712152"><ele>2.0</ele><time>2026-04-15T11:11:55.133Z</time></trkpt><trkpt lat="44.9110468" lon="11.7712529"><ele>1.75</ele><time>2026-04-15T11:11:56.138Z</time></trkpt><trkpt lat="44.9108932" lon="11.7712709"><ele>1.5</ele><time>2026-04-15T11:11:57.152Z</time></trkpt><trkpt lat="44.9107455" lon="11.7712797"><ele>1.25</ele><time>2026-04-15T11:11:58.135Z</time></trkpt><trkpt lat="44.9106016" lon="11.7712798"><ele>1.0</ele><time>2026-04-15T11:11:59.145Z</time></trkpt><trkpt lat="44.9104696" lon="11.7712794"><ele>1.0</ele><time>2026-04-15T11:12:00.135Z</time></trkpt><trkpt lat="44.9103559" lon="11.7713017"><ele>1.0</ele><time>2026-04-15T11:12:01.143Z</time></trkpt><trkpt lat="44.9102656" lon="11.7713467"><ele>1.0</ele><time>2026-04-15T11:12:02.142Z</time></trkpt><trkpt lat="44.9101899" lon="11.7714022"><ele>1.0</ele><time>2026-04-15T11:12:03.139Z</time></trkpt><trkpt lat="44.9101307" lon="11.7714726"><ele>1.0</ele><time>2026-04-15T11:12:04.143Z</time></trkpt><trkpt lat="44.9100584" lon="11.7715597"><ele>1.0</ele><time>2026-04-15T11:12:05.133Z</time></trkpt><trkpt lat="44.9099849" lon="11.7716526"><ele>1.0</ele><time>2026-04-15T11:12:06.127Z</time></trkpt><trkpt lat="44.9099017" lon="11.7717661"><ele>1.0</ele><time>2026-04-15T11:12:07.151Z</time></trkpt><trkpt lat="44.9098111" lon="11.7718795"><ele>1.0</ele><time>2026-04-15T11:12:08.134Z</time></trkpt><trkpt lat="44.9097057" lon="11.7719932"><ele>1.0</ele><time>2026-04-15T11:12:09.131Z</time></trkpt><trkpt lat="44.9095943" lon="11.7720811"><ele>1.0</ele><time>2026-04-15T11:12:10.126Z</time></trkpt><trkpt lat="44.9094655" lon="11.7721499"><ele>1.0</ele><time>2026-04-15T11:12:11.149Z</time></trkpt><trkpt lat="44.9093254" lon="11.77221"><ele>1.0</ele><time>2026-04-15T11:12:12.111Z</time></trkpt><trkpt lat="44.9091691" lon="11.7722632"><ele>1.0</ele><time>2026-04-15T11:12:13.134Z</time></trkpt><trkpt lat="44.9090054" lon="11.7723139"><ele>1.0</ele><time>2026-04-15T11:12:14.134Z</time></trkpt><trkpt lat="44.9088258" lon="11.7723506"><ele>1.0</ele><time>2026-04-15T11:12:15.157Z</time></trkpt><trkpt lat="44.908652" lon="11.7723805"><ele>1.0</ele><time>2026-04-15T11:12:16.135Z</time></trkpt><trkpt lat="44.9084738" lon="11.7724053"><ele>1.0</ele><time>2026-04-15T11:12:17.142Z</time></trkpt><trkpt lat="44.9083041" lon="11.772429"><ele>1.0</ele><time>2026-04-15T11:12:18.129Z</time></trkpt><trkpt lat="44.9081541" lon="11.7724423"><ele>0.6666666666666666</ele><time>2026-04-15T11:12:19.138Z</time></trkpt><trkpt lat="44.9080115" lon="11.7724486"><ele>0.3333333333333333</ele><time>2026-04-15T11:12:20.142Z</time></trkpt><trkpt lat="44.9078513" lon="11.7724355"><ele>0.0</ele><time>2026-04-15T11:12:21.123Z</time></trkpt><trkpt lat="44.9076866" lon="11.7724012"><ele>1.0</ele><time>2026-04-15T11:12:22.136Z</time></trkpt><trkpt lat="44.9075157" lon="11.7723451"><ele>2.0</ele><time>2026-04-15T11:12:23.146Z</time></trkpt><trkpt lat="44.9073456" lon="11.7722906"><ele>3.0</ele><time>2026-04-15T11:12:24.135Z</time></trkpt><trkpt lat="44.907197" lon="11.772247"><ele>3.0</ele><time>2026-04-15T11:12:25.137Z</time></trkpt><trkpt lat="44.9070716" lon="11.7722145"><ele>3.0</ele><time>2026-04-15T11:12:26.156Z</time></trkpt><trkpt lat="44.9069664" lon="11.7721949"><ele>3.0</ele><time>2026-04-15T11:12:27.138Z</time></trkpt><trkpt lat="44.9068618" lon="11.772187"><ele>3.0</ele><time>2026-04-15T11:12:28.123Z</time></trkpt><trkpt lat="44.9067536" lon="11.7722062"><ele>3.0</ele><time>2026-04-15T11:12:29.139Z</time></trkpt><trkpt lat="44.9066375" lon="11.7722581"><ele>2.75</ele><time>2026-04-15T11:12:30.126Z</time></trkpt><trkpt lat="44.9065157" lon="11.7723393"><ele>2.5</ele><time>2026-04-15T11:12:31.125Z</time></trkpt><trkpt lat="44.9063907" lon="11.7724326"><ele>2.25</ele><time>2026-04-15T11:12:32.125Z</time></trkpt><trkpt lat="44.9062642" lon="11.7725213"><ele>2.0</ele><time>2026-04-15T11:12:33.146Z</time></trkpt><trkpt lat="44.9061425" lon="11.7725892"><ele>2.0</ele><time>2026-04-15T11:12:34.143Z</time></trkpt><trkpt lat="44.9060132" lon="11.7726542"><ele>2.0</ele><time>2026-04-15T11:12:35.147Z</time></trkpt><trkpt lat="44.9058839" lon="11.7727109"><ele>2.0</ele><time>2026-04-15T11:12:36.145Z</time></trkpt><trkpt lat="44.9057666" lon="11.7727566"><ele>2.0</ele><time>2026-04-15T11:12:37.142Z</time></trkpt><trkpt lat="44.9056716" lon="11.7727909"><ele>2.2</ele><time>2026-04-15T11:12:38.134Z</time></trkpt><trkpt lat="44.9055986" lon="11.772808"><ele>2.4000000000000004</ele><time>2026-04-15T11:12:39.133Z</time></trkpt><trkpt lat="44.9055101" lon="11.7728285"><ele>2.5999999999999996</ele><time>2026-04-15T11:12:41.144Z</time></trkpt><trkpt lat="44.9053879" lon="11.7727752"><ele>2.8</ele><time>2026-04-15T11:12:48.135Z</time></trkpt><trkpt lat="44.9052964" lon="11.7726895"><ele>3.0</ele><time>2026-04-15T11:12:49.132Z</time></trkpt><trkpt lat="44.9051998" lon="11.7726"><ele>3.0</ele><time>2026-04-15T11:12:50.14Z</time></trkpt><trkpt lat="44.9051188" lon="11.7724916"><ele>3.0</ele><time>2026-04-15T11:12:51.132Z</time></trkpt><trkpt lat="44.9050447" lon="11.7724032"><ele>3.0</ele><time>2026-04-15T11:12:52.134Z</time></trkpt><trkpt lat="44.9049651" lon="11.7723003"><ele>3.0</ele><time>2026-04-15T11:12:53.135Z</time></trkpt><trkpt lat="44.904894" lon="11.7721648"><ele>3.0</ele><time>2026-04-15T11:12:54.13Z</time></trkpt><trkpt lat="44.9048288" lon="11.7720001"><ele>2.6666666666666665</ele><time>2026-04-15T11:12:55.149Z</time></trkpt><trkpt lat="44.9047584" lon="11.7718093"><ele>2.333333333333333</ele><time>2026-04-15T11:12:56.13Z</time></trkpt><trkpt lat="44.9046723" lon="11.7716135"><ele>2.0</ele><time>2026-04-15T11:12:57.125Z</time></trkpt><trkpt lat="44.904579" lon="11.7714021"><ele>2.0</ele><time>2026-04-15T11:12:58.136Z</time></trkpt><trkpt lat="44.9044847" lon="11.7711899"><ele>2.0</ele><time>2026-04-15T11:12:59.125Z</time></trkpt><trkpt lat="44.9043872" lon="11.7709756"><ele>2.0</ele><time>2026-04-15T11:13:00.134Z</time></trkpt><trkpt lat="44.9042948" lon="11.7707684"><ele>2.0</ele><time>2026-04-15T11:13:01.135Z</time></trkpt><trkpt lat="44.9041959" lon="11.7705585"><ele>2.0</ele><time>2026-04-15T11:13:02.12Z</time></trkpt><trkpt lat="44.9041024" lon="11.7703635"><ele>2.0</ele><time>2026-04-15T11:13:03.128Z</time></trkpt><trkpt lat="44.9040079" lon="11.770186"><ele>2.333333333333333</ele><time>2026-04-15T11:13:04.115Z</time></trkpt><trkpt lat="44.9039059" lon="11.7700251"><ele>2.6666666666666665</ele><time>2026-04-15T11:13:05.131Z</time></trkpt><trkpt lat="44.9038014" lon="11.7698698"><ele>3.0</ele><time>2026-04-15T11:13:06.125Z</time></trkpt><trkpt lat="44.9036781" lon="11.7697249"><ele>3.0</ele><time>2026-04-15T11:13:07.137Z</time></trkpt><trkpt lat="44.9035229" lon="11.7695891"><ele>3.0</ele><time>2026-04-15T11:13:08.139Z</time></trkpt><trkpt lat="44.9033453" lon="11.7694667"><ele>3.0</ele><time>2026-04-15T11:13:09.131Z</time></trkpt><trkpt lat="44.9031622" lon="11.7693442"><ele>3.0</ele><time>2026-04-15T11:13:10.123Z</time></trkpt><trkpt lat="44.9029804" lon="11.7692357"><ele>3.0</ele><time>2026-04-15T11:13:11.134Z</time></trkpt><trkpt lat="44.9027931" lon="11.7691368"><ele>3.0</ele><time>2026-04-15T11:13:12.135Z</time></trkpt><trkpt lat="44.902603" lon="11.7690373"><ele>2.5</ele><time>2026-04-15T11:13:13.133Z</time></trkpt><trkpt lat="44.9023963" lon="11.7689468"><ele>2.0</ele><time>2026-04-15T11:13:14.145Z</time></trkpt><trkpt lat="44.902164" lon="11.7688667"><ele>2.0</ele><time>2026-04-15T11:13:15.125Z</time></trkpt><trkpt lat="44.9019303" lon="11.76878"><ele>2.0</ele><time>2026-04-15T11:13:16.132Z</time></trkpt><trkpt lat="44.901707" lon="11.7686987"><ele>1.6666666666666665</ele><time>2026-04-15T11:13:17.129Z</time></trkpt><trkpt lat="44.9015023" lon="11.7686239"><ele>1.3333333333333333</ele><time>2026-04-15T11:13:18.142Z</time></trkpt><trkpt lat="44.9013163" lon="11.7685595"><ele>1.0</ele><time>2026-04-15T11:13:19.147Z</time></trkpt><trkpt lat="44.9011529" lon="11.7685326"><ele>1.0</ele><time>2026-04-15T11:13:20.116Z</time></trkpt><trkpt lat="44.901001" lon="11.7685574"><ele>1.0</ele><time>2026-04-15T11:13:21.146Z</time></trkpt><trkpt lat="44.9008664" lon="11.7686419"><ele>1.0</ele><time>2026-04-15T11:13:22.134Z</time></trkpt><trkpt lat="44.9007121" lon="11.7687875"><ele>0.6666666666666666</ele><time>2026-04-15T11:13:23.133Z</time></trkpt><trkpt lat="44.9005406" lon="11.7689497"><ele>0.3333333333333333</ele><time>2026-04-15T11:13:24.223Z</time></trkpt><trkpt lat="44.9003546" lon="11.7691286"><ele>0.0</ele><time>2026-04-15T11:13:25.261Z</time></trkpt><trkpt lat="44.8999553" lon="11.7695081"><ele>-0.5</ele><time>2026-04-15T11:13:27.131Z</time></trkpt><trkpt lat="44.8997561" lon="11.7697112"><ele>-1.0</ele><time>2026-04-15T11:13:28.147Z</time></trkpt><trkpt lat="44.8995641" lon="11.7699034"><ele>-1.0</ele><time>2026-04-15T11:13:29.136Z</time></trkpt><trkpt lat="44.8993839" lon="11.7700808"><ele>-1.0</ele><time>2026-04-15T11:13:30.137Z</time></trkpt><trkpt lat="44.8992124" lon="11.7702592"><ele>-1.0</ele><time>2026-04-15T11:13:31.126Z</time></trkpt><trkpt lat="44.8990564" lon="11.7704368"><ele>0.5</ele><time>2026-04-15T11:13:32.229Z</time></trkpt><trkpt lat="44.8989257" lon="11.7706086"><ele>2.0</ele><time>2026-04-15T11:13:33.238Z</time></trkpt><trkpt lat="44.8986639" lon="11.7708417"><ele>2.0</ele><time>2026-04-15T11:13:35.132Z</time></trkpt><trkpt lat="44.8984962" lon="11.7708719"><ele>2.0</ele><time>2026-04-15T11:13:36.117Z</time></trkpt><trkpt lat="44.898304" lon="11.770884"><ele>2.0</ele><time>2026-04-15T11:13:37.239Z</time></trkpt><trkpt lat="44.8980818" lon="11.7708873"><ele>1.5</ele><time>2026-04-15T11:13:38.219Z</time></trkpt><trkpt lat="44.8978559" lon="11.7708944"><ele>1.0</ele><time>2026-04-15T11:13:39.215Z</time></trkpt><trkpt lat="44.8976288" lon="11.7709053"><ele>1.0</ele><time>2026-04-15T11:13:40.22Z</time></trkpt><trkpt lat="44.8974031" lon="11.7709215"><ele>1.0</ele><time>2026-04-15T11:13:41.134Z</time></trkpt><trkpt lat="44.8971856" lon="11.7709377"><ele>1.0</ele><time>2026-04-15T11:13:42.14Z</time></trkpt><trkpt lat="44.8969804" lon="11.7709452"><ele>1.0</ele><time>2026-04-15T11:13:43.145Z</time></trkpt><trkpt lat="44.8967963" lon="11.7709589"><ele>1.0</ele><time>2026-04-15T11:13:44.137Z</time></trkpt><trkpt lat="44.8966252" lon="11.7710067"><ele>1.0</ele><time>2026-04-15T11:13:45.233Z</time></trkpt><trkpt lat="44.8962739" lon="11.7712248"><ele>2.0</ele><time>2026-04-15T11:13:47.237Z</time></trkpt><trkpt lat="44.8958771" lon="11.7714921"><ele>3.0</ele><time>2026-04-15T11:13:49.144Z</time></trkpt><trkpt lat="44.8956681" lon="11.7716352"><ele>3.0</ele><time>2026-04-15T11:13:50.143Z</time></trkpt><trkpt lat="44.8954687" lon="11.771779"><ele>3.0</ele><time>2026-04-15T11:13:51.227Z</time></trkpt><trkpt lat="44.8950843" lon="11.7720141"><ele>2.6666666666666665</ele><time>2026-04-15T11:13:53.229Z</time></trkpt><trkpt lat="44.8949022" lon="11.7720699"><ele>2.333333333333333</ele><time>2026-04-15T11:13:54.225Z</time></trkpt><trkpt lat="44.8947158" lon="11.7720754"><ele>2.0</ele><time>2026-04-15T11:13:55.137Z</time></trkpt><trkpt lat="44.8945278" lon="11.7720456"><ele>2.0</ele><time>2026-04-15T11:13:56.136Z</time></trkpt><trkpt lat="44.8943573" lon="11.7719882"><ele>2.0</ele><time>2026-04-15T11:13:57.122Z</time></trkpt><trkpt lat="44.8942053" lon="11.7719344"><ele>2.0</ele><time>2026-04-15T11:13:58.238Z</time></trkpt><trkpt lat="44.894082" lon="11.7718891"><ele>2.5</ele><time>2026-04-15T11:13:59.24Z</time></trkpt><trkpt lat="44.8939833" lon="11.7718699"><ele>3.0</ele><time>2026-04-15T11:14:00.234Z</time></trkpt><trkpt lat="44.8938909" lon="11.7719015"><ele>3.5</ele><time>2026-04-15T11:14:01.242Z</time></trkpt><trkpt lat="44.8937547" lon="11.7721422"><ele>4.0</ele><time>2026-04-15T11:14:03.127Z</time></trkpt><trkpt lat="44.893713" lon="11.7723114"><ele>4.0</ele><time>2026-04-15T11:14:04.13Z</time></trkpt><trkpt lat="44.8936538" lon="11.7724938"><ele>4.0</ele><time>2026-04-15T11:14:05.215Z</time></trkpt><trkpt lat="44.8935901" lon="11.7726927"><ele>4.0</ele><time>2026-04-15T11:14:06.24Z</time></trkpt><trkpt lat="44.8935367" lon="11.772886"><ele>4.0</ele><time>2026-04-15T11:14:07.225Z</time></trkpt><trkpt lat="44.8934852" lon="11.7730655"><ele>4.0</ele><time>2026-04-15T11:14:08.235Z</time></trkpt><trkpt lat="44.8934223" lon="11.7732082"><ele>4.0</ele><time>2026-04-15T11:14:09.137Z</time></trkpt><trkpt lat="44.8933346" lon="11.7733085"><ele>4.0</ele><time>2026-04-15T11:14:10.137Z</time></trkpt><trkpt lat="44.8932119" lon="11.7733468"><ele>4.0</ele><time>2026-04-15T11:14:11.128Z</time></trkpt><trkpt lat="44.8930839" lon="11.7733229"><ele>3.6666666666666665</ele><time>2026-04-15T11:14:12.228Z</time></trkpt><trkpt lat="44.8929424" lon="11.7732695"><ele>3.333333333333333</ele><time>2026-04-15T11:14:13.224Z</time></trkpt><trkpt lat="44.8927919" lon="11.7732157"><ele>3.0</ele><time>2026-04-15T11:14:14.228Z</time></trkpt><trkpt lat="44.8926315" lon="11.7731769"><ele>3.333333333333333</ele><time>2026-04-15T11:14:15.222Z</time></trkpt><trkpt lat="44.8924628" lon="11.7731309"><ele>3.6666666666666665</ele><time>2026-04-15T11:14:16.125Z</time></trkpt><trkpt lat="44.8922952" lon="11.7730814"><ele>4.0</ele><time>2026-04-15T11:14:17.131Z</time></trkpt><trkpt lat="44.8921324" lon="11.7730337"><ele>4.0</ele><time>2026-04-15T11:14:18.138Z</time></trkpt><trkpt lat="44.891972" lon="11.772992"><ele>4.0</ele><time>2026-04-15T11:14:19.218Z</time></trkpt><trkpt lat="44.8918188" lon="11.7729427"><ele>4.0</ele><time>2026-04-15T11:14:20.237Z</time></trkpt><trkpt lat="44.8916812" lon="11.7728834"><ele>4.0</ele><time>2026-04-15T11:14:21.216Z</time></trkpt><trkpt lat="44.891559" lon="11.7727982"><ele>4.0</ele><time>2026-04-15T11:14:22.223Z</time></trkpt><trkpt lat="44.8914476" lon="11.772682"><ele>4.0</ele><time>2026-04-15T11:14:23.13Z</time></trkpt><trkpt lat="44.8913329" lon="11.7725475"><ele>4.0</ele><time>2026-04-15T11:14:24.129Z</time></trkpt><trkpt lat="44.8912232" lon="11.7724085"><ele>4.0</ele><time>2026-04-15T11:14:25.145Z</time></trkpt><trkpt lat="44.8911248" lon="11.772278"><ele>4.0</ele><time>2026-04-15T11:14:26.232Z</time></trkpt><trkpt lat="44.8910463" lon="11.7721466"><ele>4.0</ele><time>2026-04-15T11:14:27.217Z</time></trkpt><trkpt lat="44.8910155" lon="11.7720117"><ele>4.0</ele><time>2026-04-15T11:14:28.229Z</time></trkpt><trkpt lat="44.8910528" lon="11.7718675"><ele>4.0</ele><time>2026-04-15T11:14:29.227Z</time></trkpt><trkpt lat="44.8911857" lon="11.7715429"><ele>4.0</ele><time>2026-04-15T11:14:31.128Z</time></trkpt><trkpt lat="44.8912544" lon="11.7713432"><ele>4.0</ele><time>2026-04-15T11:14:32.21Z</time></trkpt><trkpt lat="44.8913254" lon="11.7711166"><ele>4.0</ele><time>2026-04-15T11:14:33.215Z</time></trkpt><trkpt lat="44.8914025" lon="11.7708723"><ele>4.0</ele><time>2026-04-15T11:14:34.232Z</time></trkpt><trkpt lat="44.8914707" lon="11.7706207"><ele>4.0</ele><time>2026-04-15T11:14:35.225Z</time></trkpt><trkpt lat="44.8915275" lon="11.7703799"><ele>4.0</ele><time>2026-04-15T11:14:36.217Z</time></trkpt><trkpt lat="44.8915712" lon="11.7701638"><ele>4.0</ele><time>2026-04-15T11:14:37.118Z</time></trkpt><trkpt lat="44.8916005" lon="11.7699698"><ele>4.0</ele><time>2026-04-15T11:14:38.12Z</time></trkpt><trkpt lat="44.8916085" lon="11.7698079"><ele>4.0</ele><time>2026-04-15T11:14:39.232Z</time></trkpt><trkpt lat="44.8915901" lon="11.7696705"><ele>4.0</ele><time>2026-04-15T11:14:40.214Z</time></trkpt><trkpt lat="44.8915306" lon="11.7695876"><ele>4.0</ele><time>2026-04-15T11:14:41.214Z</time></trkpt><trkpt lat="44.8914453" lon="11.7695254"><ele>4.0</ele><time>2026-04-15T11:14:42.221Z</time></trkpt><trkpt lat="44.8913303" lon="11.7695082"><ele>4.0</ele><time>2026-04-15T11:14:43.233Z</time></trkpt><trkpt lat="44.8910065" lon="11.7694837"><ele>4.0</ele><time>2026-04-15T11:14:45.135Z</time></trkpt><trkpt lat="44.8908218" lon="11.769458"><ele>4.0</ele><time>2026-04-15T11:14:46.235Z</time></trkpt><trkpt lat="44.8906265" lon="11.769428"><ele>4.0</ele><time>2026-04-15T11:14:47.236Z</time></trkpt><trkpt lat="44.890436" lon="11.7693948"><ele>4.0</ele><time>2026-04-15T11:14:48.23Z</time></trkpt><trkpt lat="44.8902561" lon="11.7693613"><ele>4.0</ele><time>2026-04-15T11:14:49.221Z</time></trkpt><trkpt lat="44.8900894" lon="11.7693343"><ele>4.0</ele><time>2026-04-15T11:14:50.225Z</time></trkpt><trkpt lat="44.8899398" lon="11.7692801"><ele>3.5</ele><time>2026-04-15T11:14:51.131Z</time></trkpt><trkpt lat="44.8898062" lon="11.7691977"><ele>3.0</ele><time>2026-04-15T11:14:52.231Z</time></trkpt><trkpt lat="44.8897104" lon="11.7690858"><ele>2.5</ele><time>2026-04-15T11:14:53.224Z</time></trkpt><trkpt lat="44.8896417" lon="11.7689215"><ele>2.0</ele><time>2026-04-15T11:14:54.227Z</time></trkpt><trkpt lat="44.889595" lon="11.7687204"><ele>2.333333333333333</ele><time>2026-04-15T11:14:55.24Z</time></trkpt><trkpt lat="44.889549" lon="11.7684863"><ele>2.6666666666666665</ele><time>2026-04-15T11:14:56.22Z</time></trkpt><trkpt lat="44.8894891" lon="11.7682107"><ele>3.0</ele><time>2026-04-15T11:14:57.226Z</time></trkpt><trkpt lat="44.8894242" lon="11.7679124"><ele>2.0</ele><time>2026-04-15T11:14:58.133Z</time></trkpt><trkpt lat="44.88935" lon="11.7675992"><ele>1.0</ele><time>2026-04-15T11:14:59.23Z</time></trkpt><trkpt lat="44.8892797" lon="11.7672709"><ele>1.0</ele><time>2026-04-15T11:15:00.225Z</time></trkpt><trkpt lat="44.889207" lon="11.7669373"><ele>1.0</ele><time>2026-04-15T11:15:01.235Z</time></trkpt><trkpt lat="44.8891309" lon="11.7666013"><ele>1.0</ele><time>2026-04-15T11:15:02.218Z</time></trkpt><trkpt lat="44.8890573" lon="11.7662665"><ele>1.0</ele><time>2026-04-15T11:15:03.227Z</time></trkpt><trkpt lat="44.8889843" lon="11.7659413"><ele>1.0</ele><time>2026-04-15T11:15:04.224Z</time></trkpt><trkpt lat="44.8889172" lon="11.7656148"><ele>1.0</ele><time>2026-04-15T11:15:05.124Z</time></trkpt><trkpt lat="44.8888467" lon="11.7652985"><ele>1.5</ele><time>2026-04-15T11:15:06.23Z</time></trkpt><trkpt lat="44.8887773" lon="11.7649855"><ele>2.0</ele><time>2026-04-15T11:15:07.221Z</time></trkpt><trkpt lat="44.8887139" lon="11.7646769"><ele>2.0</ele><time>2026-04-15T11:15:08.216Z</time></trkpt><trkpt lat="44.8886613" lon="11.764371"><ele>2.0</ele><time>2026-04-15T11:15:09.229Z</time></trkpt><trkpt lat="44.8886277" lon="11.7640597"><ele>2.0</ele><time>2026-04-15T11:15:10.208Z</time></trkpt><trkpt lat="44.8886162" lon="11.7637496"><ele>1.5</ele><time>2026-04-15T11:15:11.235Z</time></trkpt><trkpt lat="44.8886115" lon="11.7634331"><ele>1.0</ele><time>2026-04-15T11:15:12.221Z</time></trkpt><trkpt lat="44.8886076" lon="11.7631096"><ele>1.0</ele><time>2026-04-15T11:15:13.216Z</time></trkpt><trkpt lat="44.8886071" lon="11.7627942"><ele>1.0</ele><time>2026-04-15T11:15:14.216Z</time></trkpt><trkpt lat="44.8886002" lon="11.7624988"><ele>1.0</ele><time>2026-04-15T11:15:15.24Z</time></trkpt><trkpt lat="44.8885877" lon="11.7622142"><ele>1.0</ele><time>2026-04-15T11:15:16.228Z</time></trkpt><trkpt lat="44.8885803" lon="11.761948"><ele>1.0</ele><time>2026-04-15T11:15:17.229Z</time></trkpt><trkpt lat="44.8885977" lon="11.7616874"><ele>1.0</ele><time>2026-04-15T11:15:18.219Z</time></trkpt><trkpt lat="44.888622" lon="11.7614385"><ele>1.0</ele><time>2026-04-15T11:15:19.238Z</time></trkpt><trkpt lat="44.8886589" lon="11.7612105"><ele>1.0</ele><time>2026-04-15T11:15:20.221Z</time></trkpt><trkpt lat="44.8886753" lon="11.7609969"><ele>1.0</ele><time>2026-04-15T11:15:21.232Z</time></trkpt><trkpt lat="44.8886606" lon="11.7607804"><ele>1.0</ele><time>2026-04-15T11:15:22.238Z</time></trkpt><trkpt lat="44.888603" lon="11.760541"><ele>1.0</ele><time>2026-04-15T11:15:23.211Z</time></trkpt><trkpt lat="44.888362" lon="11.7599698"><ele>1.3333333333333333</ele><time>2026-04-15T11:15:25.223Z</time></trkpt><trkpt lat="44.8882415" lon="11.7596947"><ele>1.6666666666666665</ele><time>2026-04-15T11:15:26.213Z</time></trkpt><trkpt lat="44.8881272" lon="11.7594332"><ele>2.0</ele><time>2026-04-15T11:15:27.233Z</time></trkpt><trkpt lat="44.8880195" lon="11.7592044"><ele>2.0</ele><time>2026-04-15T11:15:28.227Z</time></trkpt><trkpt lat="44.8879183" lon="11.7589956"><ele>2.0</ele><time>2026-04-15T11:15:29.233Z</time></trkpt><trkpt lat="44.8878262" lon="11.7588016"><ele>2.0</ele><time>2026-04-15T11:15:30.233Z</time></trkpt><trkpt lat="44.887749" lon="11.758608"><ele>1.6666666666666665</ele><time>2026-04-15T11:15:31.23Z</time></trkpt><trkpt lat="44.8876934" lon="11.7584042"><ele>1.3333333333333333</ele><time>2026-04-15T11:15:32.224Z</time></trkpt><trkpt lat="44.8876411" lon="11.7581801"><ele>1.0</ele><time>2026-04-15T11:15:33.224Z</time></trkpt><trkpt lat="44.8875781" lon="11.7579458"><ele>1.6666666666666665</ele><time>2026-04-15T11:15:34.224Z</time></trkpt><trkpt lat="44.887482" lon="11.7577247"><ele>2.3333333333333335</ele><time>2026-04-15T11:15:35.221Z</time></trkpt><trkpt lat="44.8873723" lon="11.7575132"><ele>3.0</ele><time>2026-04-15T11:15:36.217Z</time></trkpt><trkpt lat="44.8872505" lon="11.7573185"><ele>3.0</ele><time>2026-04-15T11:15:37.223Z</time></trkpt><trkpt lat="44.8871062" lon="11.7571264"><ele>3.0</ele><time>2026-04-15T11:15:38.23Z</time></trkpt><trkpt lat="44.8869544" lon="11.7569357"><ele>3.0</ele><time>2026-04-15T11:15:39.225Z</time></trkpt><trkpt lat="44.8867912" lon="11.756732"><ele>3.0</ele><time>2026-04-15T11:15:40.231Z</time></trkpt><trkpt lat="44.8866256" lon="11.7565187"><ele>3.0</ele><time>2026-04-15T11:15:41.231Z</time></trkpt><trkpt lat="44.8864483" lon="11.7562873"><ele>3.0</ele><time>2026-04-15T11:15:42.22Z</time></trkpt><trkpt lat="44.8862637" lon="11.7560517"><ele>3.0</ele><time>2026-04-15T11:15:43.226Z</time></trkpt><trkpt lat="44.8860834" lon="11.7558155"><ele>2.5</ele><time>2026-04-15T11:15:44.219Z</time></trkpt><trkpt lat="44.8859045" lon="11.7555809"><ele>2.0</ele><time>2026-04-15T11:15:45.221Z</time></trkpt><trkpt lat="44.8857281" lon="11.7553564"><ele>2.0</ele><time>2026-04-15T11:15:46.222Z</time></trkpt><trkpt lat="44.8855425" lon="11.7551446"><ele>2.0</ele><time>2026-04-15T11:15:47.221Z</time></trkpt><trkpt lat="44.8853448" lon="11.754957"><ele>2.0</ele><time>2026-04-15T11:15:48.204Z</time></trkpt><trkpt lat="44.8851325" lon="11.7547908"><ele>2.0</ele><time>2026-04-15T11:15:49.229Z</time></trkpt><trkpt lat="44.8849128" lon="11.7546325"><ele>1.5</ele><time>2026-04-15T11:15:50.237Z</time></trkpt><trkpt lat="44.8846966" lon="11.7544791"><ele>1.0</ele><time>2026-04-15T11:15:51.215Z</time></trkpt><trkpt lat="44.8844901" lon="11.7543393"><ele>1.0</ele><time>2026-04-15T11:15:52.222Z</time></trkpt><trkpt lat="44.8842766" lon="11.7542111"><ele>1.0</ele><time>2026-04-15T11:15:53.222Z</time></trkpt><trkpt lat="44.8840499" lon="11.7541213"><ele>1.5</ele><time>2026-04-15T11:15:54.219Z</time></trkpt><trkpt lat="44.8838112" lon="11.7540721"><ele>2.0</ele><time>2026-04-15T11:15:55.215Z</time></trkpt><trkpt lat="44.8835772" lon="11.7540178"><ele>2.0</ele><time>2026-04-15T11:15:56.22Z</time></trkpt><trkpt lat="44.8833575" lon="11.7539431"><ele>2.0</ele><time>2026-04-15T11:15:57.226Z</time></trkpt><trkpt lat="44.8831504" lon="11.7538556"><ele>2.0</ele><time>2026-04-15T11:15:58.225Z</time></trkpt><trkpt lat="44.8829536" lon="11.7537692"><ele>2.0</ele><time>2026-04-15T11:15:59.204Z</time></trkpt><trkpt lat="44.8827645" lon="11.7536729"><ele>2.0</ele><time>2026-04-15T11:16:00.224Z</time></trkpt><trkpt lat="44.8825923" lon="11.753551"><ele>2.0</ele><time>2026-04-15T11:16:01.226Z</time></trkpt><trkpt lat="44.882434" lon="11.7533991"><ele>2.0</ele><time>2026-04-15T11:16:02.237Z</time></trkpt><trkpt lat="44.8822774" lon="11.7532392"><ele>2.0</ele><time>2026-04-15T11:16:03.225Z</time></trkpt><trkpt lat="44.8821175" lon="11.7530798"><ele>2.0</ele><time>2026-04-15T11:16:04.227Z</time></trkpt><trkpt lat="44.881952" lon="11.7529149"><ele>2.0</ele><time>2026-04-15T11:16:05.213Z</time></trkpt><trkpt lat="44.8817875" lon="11.7527494"><ele>2.0</ele><time>2026-04-15T11:16:06.224Z</time></trkpt><trkpt lat="44.8816326" lon="11.7525851"><ele>2.0</ele><time>2026-04-15T11:16:07.224Z</time></trkpt><trkpt lat="44.8814872" lon="11.752431"><ele>2.25</ele><time>2026-04-15T11:16:08.215Z</time></trkpt><trkpt lat="44.8813625" lon="11.7522944"><ele>2.5</ele><time>2026-04-15T11:16:09.224Z</time></trkpt><trkpt lat="44.8812546" lon="11.7521799"><ele>2.75</ele><time>2026-04-15T11:16:10.216Z</time></trkpt><trkpt lat="44.8811651" lon="11.7520804"><ele>3.0</ele><time>2026-04-15T11:16:11.227Z</time></trkpt><trkpt lat="44.8810898" lon="11.7519986"><ele>3.0</ele><time>2026-04-15T11:16:12.207Z</time></trkpt><trkpt lat="44.8810308" lon="11.7519375"><ele>3.0</ele><time>2026-04-15T11:16:13.231Z</time></trkpt><trkpt lat="44.8809682" lon="11.7518704"><ele>3.0</ele><time>2026-04-15T11:16:15.208Z</time></trkpt><trkpt lat="44.8809015" lon="11.7518059"><ele>3.0</ele><time>2026-04-15T11:17:55.222Z</time></trkpt><trkpt lat="44.8808616" lon="11.7516408"><ele>3.0</ele><time>2026-04-15T11:17:59.211Z</time></trkpt><trkpt lat="44.8808636" lon="11.7514748"><ele>3.333333333333333</ele><time>2026-04-15T11:18:00.217Z</time></trkpt><trkpt lat="44.8808713" lon="11.7512688"><ele>3.6666666666666665</ele><time>2026-04-15T11:18:01.197Z</time></trkpt><trkpt lat="44.8808724" lon="11.7510345"><ele>4.0</ele><time>2026-04-15T11:18:02.213Z</time></trkpt><trkpt lat="44.8808656" lon="11.7507859"><ele>3.6666666666666665</ele><time>2026-04-15T11:18:03.238Z</time></trkpt><trkpt lat="44.8808692" lon="11.7505264"><ele>3.333333333333333</ele><time>2026-04-15T11:18:04.21Z</time></trkpt><trkpt lat="44.8808785" lon="11.7502613"><ele>3.0</ele><time>2026-04-15T11:18:05.255Z</time></trkpt><trkpt lat="44.880887" lon="11.750015"><ele>3.0</ele><time>2026-04-15T11:18:06.231Z</time></trkpt><trkpt lat="44.8809041" lon="11.7497883"><ele>3.0</ele><time>2026-04-15T11:18:07.207Z</time></trkpt><trkpt lat="44.8809376" lon="11.7495689"><ele>3.0</ele><time>2026-04-15T11:18:08.239Z</time></trkpt><trkpt lat="44.881069" lon="11.7491562"><ele>3.0</ele><time>2026-04-15T11:18:10.219Z</time></trkpt><trkpt lat="44.8811517" lon="11.7489294"><ele>3.0</ele><time>2026-04-15T11:18:11.237Z</time></trkpt><trkpt lat="44.8812537" lon="11.7486842"><ele>3.0</ele><time>2026-04-15T11:18:12.216Z</time></trkpt><trkpt lat="44.8813792" lon="11.7484317"><ele>3.0</ele><time>2026-04-15T11:18:13.213Z</time></trkpt><trkpt lat="44.8815087" lon="11.7481767"><ele>3.0</ele><time>2026-04-15T11:18:14.214Z</time></trkpt><trkpt lat="44.8816254" lon="11.7479343"><ele>3.0</ele><time>2026-04-15T11:18:15.22Z</time></trkpt><trkpt lat="44.8817289" lon="11.7477028"><ele>2.5</ele><time>2026-04-15T11:18:16.226Z</time></trkpt><trkpt lat="44.881822" lon="11.7474833"><ele>2.0</ele><time>2026-04-15T11:18:17.232Z</time></trkpt><trkpt lat="44.8819784" lon="11.7471252"><ele>2.0</ele><time>2026-04-15T11:18:19.204Z</time></trkpt><trkpt lat="44.882035" lon="11.7469702"><ele>2.0</ele><time>2026-04-15T11:18:20.202Z</time></trkpt><trkpt lat="44.8821011" lon="11.7466507"><ele>2.0</ele><time>2026-04-15T11:18:22.235Z</time></trkpt><trkpt lat="44.8820992" lon="11.7464686"><ele>2.0</ele><time>2026-04-15T11:18:23.225Z</time></trkpt><trkpt lat="44.8820836" lon="11.7462432"><ele>2.0</ele><time>2026-04-15T11:18:24.238Z</time></trkpt><trkpt lat="44.8820523" lon="11.7460337"><ele>2.0</ele><time>2026-04-15T11:18:25.198Z</time></trkpt><trkpt lat="44.8820137" lon="11.7458124"><ele>2.0</ele><time>2026-04-15T11:18:26.213Z</time></trkpt><trkpt lat="44.8819639" lon="11.7455661"><ele>2.0</ele><time>2026-04-15T11:18:27.201Z</time></trkpt><trkpt lat="44.8818638" lon="11.7449988"><ele>2.0</ele><time>2026-04-15T11:18:29.222Z</time></trkpt><trkpt lat="44.8818292" lon="11.7447247"><ele>2.0</ele><time>2026-04-15T11:18:30.236Z</time></trkpt><trkpt lat="44.8817893" lon="11.744466"><ele>2.0</ele><time>2026-04-15T11:18:31.223Z</time></trkpt><trkpt lat="44.8817437" lon="11.7442182"><ele>2.0</ele><time>2026-04-15T11:18:32.205Z</time></trkpt><trkpt lat="44.8817011" lon="11.7439663"><ele>2.0</ele><time>2026-04-15T11:18:33.215Z</time></trkpt><trkpt lat="44.8816624" lon="11.7437121"><ele>2.0</ele><time>2026-04-15T11:18:34.22Z</time></trkpt><trkpt lat="44.8816236" lon="11.743454"><ele>2.0</ele><time>2026-04-15T11:18:35.24Z</time></trkpt><trkpt lat="44.8815793" lon="11.743192"><ele>2.0</ele><time>2026-04-15T11:18:36.214Z</time></trkpt><trkpt lat="44.8815322" lon="11.7429255"><ele>2.0</ele><time>2026-04-15T11:18:37.212Z</time></trkpt><trkpt lat="44.8814392" lon="11.7423914"><ele>2.5</ele><time>2026-04-15T11:18:39.226Z</time></trkpt><trkpt lat="44.8813495" lon="11.7418507"><ele>3.0</ele><time>2026-04-15T11:18:41.22Z</time></trkpt><trkpt lat="44.8813054" lon="11.7415798"><ele>3.0</ele><time>2026-04-15T11:18:42.217Z</time></trkpt><trkpt lat="44.8812633" lon="11.7413105"><ele>3.0</ele><time>2026-04-15T11:18:43.217Z</time></trkpt><trkpt lat="44.8812208" lon="11.741041"><ele>3.0</ele><time>2026-04-15T11:18:44.199Z</time></trkpt><trkpt lat="44.8811774" lon="11.7407726"><ele>2.6666666666666665</ele><time>2026-04-15T11:18:45.216Z</time></trkpt><trkpt lat="44.8811352" lon="11.7405017"><ele>2.333333333333333</ele><time>2026-04-15T11:18:46.221Z</time></trkpt><trkpt lat="44.8810924" lon="11.7402287"><ele>2.0</ele><time>2026-04-15T11:18:47.243Z</time></trkpt><trkpt lat="44.8810494" lon="11.7399581"><ele>2.0</ele><time>2026-04-15T11:18:48.218Z</time></trkpt><trkpt lat="44.8810038" lon="11.7396878"><ele>2.0</ele><time>2026-04-15T11:18:49.233Z</time></trkpt><trkpt lat="44.8809596" lon="11.7394143"><ele>2.0</ele><time>2026-04-15T11:18:50.229Z</time></trkpt><trkpt lat="44.8809144" lon="11.7391454"><ele>1.6666666666666665</ele><time>2026-04-15T11:18:51.214Z</time></trkpt><trkpt lat="44.8808684" lon="11.7388765"><ele>1.3333333333333333</ele><time>2026-04-15T11:18:52.211Z</time></trkpt><trkpt lat="44.8808211" lon="11.7386121"><ele>1.0</ele><time>2026-04-15T11:18:53.228Z</time></trkpt><trkpt lat="44.8807758" lon="11.7383517"><ele>1.0</ele><time>2026-04-15T11:18:54.221Z</time></trkpt><trkpt lat="44.8807325" lon="11.7380911"><ele>1.0</ele><time>2026-04-15T11:18:55.195Z</time></trkpt><trkpt lat="44.8806936" lon="11.7378338"><ele>1.0</ele><time>2026-04-15T11:18:56.216Z</time></trkpt><trkpt lat="44.8805839" lon="11.7371775"><ele>1.3333333333333333</ele><time>2026-04-15T11:18:59.217Z</time></trkpt><trkpt lat="44.8805613" lon="11.7370391"><ele>1.6666666666666665</ele><time>2026-04-15T11:19:00.218Z</time></trkpt><trkpt lat="44.8805415" lon="11.7369296"><ele>2.0</ele><time>2026-04-15T11:19:01.224Z</time></trkpt><trkpt lat="44.880527" lon="11.736838"><ele>2.3333333333333335</ele><time>2026-04-15T11:19:02.211Z</time></trkpt><trkpt lat="44.8804995" lon="11.7366832"><ele>2.6666666666666665</ele><time>2026-04-15T11:19:04.224Z</time></trkpt><trkpt lat="44.8804794" lon="11.7365805"><ele>3.0</ele><time>2026-04-15T11:19:05.204Z</time></trkpt><trkpt lat="44.8804614" lon="11.7364676"><ele>3.0</ele><time>2026-04-15T11:19:06.23Z</time></trkpt><trkpt lat="44.8804182" lon="11.7361921"><ele>3.0</ele><time>2026-04-15T11:19:08.22Z</time></trkpt><trkpt lat="44.8803936" lon="11.7360441"><ele>3.0</ele><time>2026-04-15T11:19:09.22Z</time></trkpt><trkpt lat="44.8803671" lon="11.7358939"><ele>3.0</ele><time>2026-04-15T11:19:10.232Z</time></trkpt><trkpt lat="44.8803395" lon="11.7357357"><ele>2.75</ele><time>2026-04-15T11:19:11.226Z</time></trkpt><trkpt lat="44.880315" lon="11.7355713"><ele>2.5</ele><time>2026-04-15T11:19:12.222Z</time></trkpt><trkpt lat="44.8802831" lon="11.7353952"><ele>2.25</ele><time>2026-04-15T11:19:13.241Z</time></trkpt><trkpt lat="44.8802502" lon="11.7352067"><ele>2.0</ele><time>2026-04-15T11:19:14.204Z</time></trkpt><trkpt lat="44.8802148" lon="11.7350177"><ele>2.0</ele><time>2026-04-15T11:19:15.227Z</time></trkpt><trkpt lat="44.8801827" lon="11.734826"><ele>2.0</ele><time>2026-04-15T11:19:16.215Z</time></trkpt><trkpt lat="44.8801286" lon="11.7344461"><ele>2.0</ele><time>2026-04-15T11:19:18.203Z</time></trkpt><trkpt lat="44.8800732" lon="11.7340718"><ele>2.0</ele><time>2026-04-15T11:19:20.215Z</time></trkpt><trkpt lat="44.8800397" lon="11.7338898"><ele>2.0</ele><time>2026-04-15T11:19:21.219Z</time></trkpt><trkpt lat="44.8800058" lon="11.7337122"><ele>2.0</ele><time>2026-04-15T11:19:22.208Z</time></trkpt><trkpt lat="44.8799766" lon="11.7335474"><ele>2.0</ele><time>2026-04-15T11:19:23.23Z</time></trkpt><trkpt lat="44.8799514" lon="11.7333941"><ele>2.0</ele><time>2026-04-15T11:19:24.237Z</time></trkpt><trkpt lat="44.8799274" lon="11.7332494"><ele>2.0</ele><time>2026-04-15T11:19:25.239Z</time></trkpt><trkpt lat="44.8798999" lon="11.7331041"><ele>2.0</ele><time>2026-04-15T11:19:26.237Z</time></trkpt><trkpt lat="44.8798773" lon="11.732958"><ele>2.0</ele><time>2026-04-15T11:19:27.213Z</time></trkpt><trkpt lat="44.8798544" lon="11.7328125"><ele>2.0</ele><time>2026-04-15T11:19:28.241Z</time></trkpt><trkpt lat="44.8798265" lon="11.7326625"><ele>2.0</ele><time>2026-04-15T11:19:29.201Z</time></trkpt><trkpt lat="44.8798025" lon="11.7325047"><ele>2.0</ele><time>2026-04-15T11:19:30.216Z</time></trkpt><trkpt lat="44.8797782" lon="11.7323463"><ele>2.0</ele><time>2026-04-15T11:19:31.24Z</time></trkpt><trkpt lat="44.8797547" lon="11.7321785"><ele>2.0</ele><time>2026-04-15T11:19:32.217Z</time></trkpt><trkpt lat="44.8797273" lon="11.7320083"><ele>1.6666666666666665</ele><time>2026-04-15T11:19:33.223Z</time></trkpt><trkpt lat="44.8796952" lon="11.731834"><ele>1.3333333333333333</ele><time>2026-04-15T11:19:34.221Z</time></trkpt><trkpt lat="44.8796655" lon="11.7316602"><ele>1.0</ele><time>2026-04-15T11:19:35.228Z</time></trkpt><trkpt lat="44.8795705" lon="11.7310943"><ele>1.0</ele><time>2026-04-15T11:19:38.206Z</time></trkpt><trkpt lat="44.8795389" lon="11.7309023"><ele>1.0</ele><time>2026-04-15T11:19:39.213Z</time></trkpt><trkpt lat="44.8795065" lon="11.7307151"><ele>1.0</ele><time>2026-04-15T11:19:40.198Z</time></trkpt><trkpt lat="44.8794711" lon="11.7305263"><ele>1.0</ele><time>2026-04-15T11:19:41.251Z</time></trkpt><trkpt lat="44.8794368" lon="11.7303361"><ele>1.25</ele><time>2026-04-15T11:19:42.231Z</time></trkpt><trkpt lat="44.8794031" lon="11.730138"><ele>1.5</ele><time>2026-04-15T11:19:43.206Z</time></trkpt><trkpt lat="44.8793716" lon="11.7299344"><ele>1.75</ele><time>2026-04-15T11:19:44.204Z</time></trkpt><trkpt lat="44.8793386" lon="11.7297289"><ele>2.0</ele><time>2026-04-15T11:19:45.237Z</time></trkpt><trkpt lat="44.8793068" lon="11.7295156"><ele>2.333333333333333</ele><time>2026-04-15T11:19:46.202Z</time></trkpt><trkpt lat="44.8792696" lon="11.7293039"><ele>2.6666666666666665</ele><time>2026-04-15T11:19:47.228Z</time></trkpt><trkpt lat="44.8792312" lon="11.7290915"><ele>3.0</ele><time>2026-04-15T11:19:48.221Z</time></trkpt><trkpt lat="44.8791906" lon="11.7288789"><ele>3.0</ele><time>2026-04-15T11:19:49.221Z</time></trkpt><trkpt lat="44.8791486" lon="11.7286607"><ele>3.0</ele><time>2026-04-15T11:19:50.231Z</time></trkpt><trkpt lat="44.8791048" lon="11.7284285"><ele>3.0</ele><time>2026-04-15T11:19:51.226Z</time></trkpt><trkpt lat="44.8790652" lon="11.7281815"><ele>3.0</ele><time>2026-04-15T11:19:52.224Z</time></trkpt><trkpt lat="44.8790263" lon="11.7279339"><ele>3.0</ele><time>2026-04-15T11:19:53.232Z</time></trkpt><trkpt lat="44.8789849" lon="11.7276867"><ele>3.0</ele><time>2026-04-15T11:19:54.205Z</time></trkpt><trkpt lat="44.8789087" lon="11.7271861"><ele>3.0</ele><time>2026-04-15T11:19:56.204Z</time></trkpt><trkpt lat="44.8788737" lon="11.7269413"><ele>3.0</ele><time>2026-04-15T11:19:57.193Z</time></trkpt><trkpt lat="44.8788339" lon="11.7266969"><ele>3.0</ele><time>2026-04-15T11:19:58.229Z</time></trkpt><trkpt lat="44.8787952" lon="11.7264583"><ele>2.3333333333333335</ele><time>2026-04-15T11:19:59.204Z</time></trkpt><trkpt lat="44.8787602" lon="11.7262201"><ele>1.6666666666666665</ele><time>2026-04-15T11:20:00.2Z</time></trkpt><trkpt lat="44.8787225" lon="11.7259878"><ele>1.0</ele><time>2026-04-15T11:20:01.218Z</time></trkpt><trkpt lat="44.8786828" lon="11.7257576"><ele>1.0</ele><time>2026-04-15T11:20:02.213Z</time></trkpt><trkpt lat="44.878646" lon="11.7255304"><ele>1.0</ele><time>2026-04-15T11:20:03.216Z</time></trkpt><trkpt lat="44.8786064" lon="11.7252998"><ele>1.0</ele><time>2026-04-15T11:20:04.2Z</time></trkpt><trkpt lat="44.8785643" lon="11.7250654"><ele>1.0</ele><time>2026-04-15T11:20:05.208Z</time></trkpt><trkpt lat="44.8785256" lon="11.724831"><ele>1.0</ele><time>2026-04-15T11:20:06.222Z</time></trkpt><trkpt lat="44.8784887" lon="11.7245963"><ele>1.0</ele><time>2026-04-15T11:20:07.226Z</time></trkpt><trkpt lat="44.8784503" lon="11.7243622"><ele>1.6666666666666665</ele><time>2026-04-15T11:20:08.202Z</time></trkpt><trkpt lat="44.8784105" lon="11.7241297"><ele>2.3333333333333335</ele><time>2026-04-15T11:20:09.224Z</time></trkpt><trkpt lat="44.8783719" lon="11.7238942"><ele>3.0</ele><time>2026-04-15T11:20:10.201Z</time></trkpt><trkpt lat="44.8783329" lon="11.7236609"><ele>2.5</ele><time>2026-04-15T11:20:11.22Z</time></trkpt><trkpt lat="44.8782896" lon="11.7234291"><ele>2.0</ele><time>2026-04-15T11:20:12.213Z</time></trkpt><trkpt lat="44.8781385" lon="11.7227504"><ele>1.6666666666666665</ele><time>2026-04-15T11:20:15.217Z</time></trkpt><trkpt lat="44.878081" lon="11.7225326"><ele>1.3333333333333333</ele><time>2026-04-15T11:20:16.192Z</time></trkpt><trkpt lat="44.8780138" lon="11.7223176"><ele>1.0</ele><time>2026-04-15T11:20:17.191Z</time></trkpt><trkpt lat="44.8779401" lon="11.7221033"><ele>1.0</ele><time>2026-04-15T11:20:18.225Z</time></trkpt><trkpt lat="44.877866" lon="11.7218897"><ele>1.0</ele><time>2026-04-15T11:20:19.199Z</time></trkpt><trkpt lat="44.877788" lon="11.7216776"><ele>1.0</ele><time>2026-04-15T11:20:20.213Z</time></trkpt><trkpt lat="44.8777054" lon="11.7214703"><ele>1.0</ele><time>2026-04-15T11:20:21.233Z</time></trkpt><trkpt lat="44.8776229" lon="11.721267"><ele>1.0</ele><time>2026-04-15T11:20:22.197Z</time></trkpt><trkpt lat="44.8775332" lon="11.7210644"><ele>1.0</ele><time>2026-04-15T11:20:23.201Z</time></trkpt><trkpt lat="44.8774404" lon="11.7208698"><ele>1.6666666666666665</ele><time>2026-04-15T11:20:24.219Z</time></trkpt><trkpt lat="44.8773391" lon="11.720676"><ele>2.3333333333333335</ele><time>2026-04-15T11:20:25.23Z</time></trkpt><trkpt lat="44.8772338" lon="11.7204832"><ele>3.0</ele><time>2026-04-15T11:20:26.236Z</time></trkpt><trkpt lat="44.8771274" lon="11.7202932"><ele>2.6666666666666665</ele><time>2026-04-15T11:20:27.209Z</time></trkpt><trkpt lat="44.8770219" lon="11.7201093"><ele>2.333333333333333</ele><time>2026-04-15T11:20:28.201Z</time></trkpt><trkpt lat="44.8769102" lon="11.7199249"><ele>2.0</ele><time>2026-04-15T11:20:29.191Z</time></trkpt><trkpt lat="44.8767912" lon="11.7197495"><ele>1.0</ele><time>2026-04-15T11:20:30.209Z</time></trkpt><trkpt lat="44.8764158" lon="11.7192505"><ele>1.0</ele><time>2026-04-15T11:20:33.217Z</time></trkpt><trkpt lat="44.8762842" lon="11.7190937"><ele>1.0</ele><time>2026-04-15T11:20:34.215Z</time></trkpt><trkpt lat="44.8761486" lon="11.7189417"><ele>1.0</ele><time>2026-04-15T11:20:35.232Z</time></trkpt><trkpt lat="44.8760101" lon="11.7187949"><ele>1.0</ele><time>2026-04-15T11:20:36.198Z</time></trkpt><trkpt lat="44.8758675" lon="11.7186513"><ele>1.0</ele><time>2026-04-15T11:20:37.228Z</time></trkpt><trkpt lat="44.8757247" lon="11.7185116"><ele>1.0</ele><time>2026-04-15T11:20:38.206Z</time></trkpt><trkpt lat="44.8755774" lon="11.7183847"><ele>1.0</ele><time>2026-04-15T11:20:39.22Z</time></trkpt><trkpt lat="44.8754292" lon="11.7182554"><ele>1.0</ele><time>2026-04-15T11:20:40.213Z</time></trkpt><trkpt lat="44.8752784" lon="11.7181311"><ele>1.0</ele><time>2026-04-15T11:20:41.199Z</time></trkpt><trkpt lat="44.875127" lon="11.7180099"><ele>1.0</ele><time>2026-04-15T11:20:42.189Z</time></trkpt><trkpt lat="44.8749743" lon="11.7178908"><ele>1.0</ele><time>2026-04-15T11:20:43.216Z</time></trkpt><trkpt lat="44.8748218" lon="11.7177762"><ele>1.0</ele><time>2026-04-15T11:20:44.194Z</time></trkpt><trkpt lat="44.8746734" lon="11.7176604"><ele>1.3333333333333333</ele><time>2026-04-15T11:20:45.226Z</time></trkpt><trkpt lat="44.8745266" lon="11.7175481"><ele>1.6666666666666665</ele><time>2026-04-15T11:20:46.217Z</time></trkpt><trkpt lat="44.8743795" lon="11.7174353"><ele>2.0</ele><time>2026-04-15T11:20:47.227Z</time></trkpt><trkpt lat="44.8742345" lon="11.7173141"><ele>1.0</ele><time>2026-04-15T11:20:48.201Z</time></trkpt><trkpt lat="44.8740906" lon="11.7172006"><ele>0.0</ele><time>2026-04-15T11:20:49.211Z</time></trkpt><trkpt lat="44.8736766" lon="11.7168094"><ele>-0.3333333333333333</ele><time>2026-04-15T11:20:52.21Z</time></trkpt><trkpt lat="44.8735459" lon="11.7166664"><ele>-0.6666666666666666</ele><time>2026-04-15T11:20:53.21Z</time></trkpt><trkpt lat="44.8734197" lon="11.7165207"><ele>-1.0</ele><time>2026-04-15T11:20:54.218Z</time></trkpt><trkpt lat="44.8732937" lon="11.7163633"><ele>-0.3333333333333333</ele><time>2026-04-15T11:20:55.193Z</time></trkpt><trkpt lat="44.873162" lon="11.7161954"><ele>0.3333333333333333</ele><time>2026-04-15T11:20:56.218Z</time></trkpt><trkpt lat="44.8730315" lon="11.716017"><ele>1.0</ele><time>2026-04-15T11:20:57.19Z</time></trkpt><trkpt lat="44.8729094" lon="11.7158472"><ele>1.0</ele><time>2026-04-15T11:20:58.189Z</time></trkpt><trkpt lat="44.8728036" lon="11.7156752"><ele>1.0</ele><time>2026-04-15T11:20:59.183Z</time></trkpt><trkpt lat="44.8727046" lon="11.7155072"><ele>1.0</ele><time>2026-04-15T11:21:00.193Z</time></trkpt><trkpt lat="44.8726035" lon="11.715342"><ele>1.0</ele><time>2026-04-15T11:21:01.219Z</time></trkpt><trkpt lat="44.8725042" lon="11.7151644"><ele>1.0</ele><time>2026-04-15T11:21:02.218Z</time></trkpt><trkpt lat="44.8724114" lon="11.7149799"><ele>1.0</ele><time>2026-04-15T11:21:03.221Z</time></trkpt><trkpt lat="44.8723227" lon="11.7147891"><ele>1.0</ele><time>2026-04-15T11:21:04.197Z</time></trkpt><trkpt lat="44.8722385" lon="11.7145958"><ele>1.0</ele><time>2026-04-15T11:21:05.224Z</time></trkpt><trkpt lat="44.8721517" lon="11.7144024"><ele>1.0</ele><time>2026-04-15T11:21:06.221Z</time></trkpt><trkpt lat="44.8720691" lon="11.7142095"><ele>1.0</ele><time>2026-04-15T11:21:07.217Z</time></trkpt><trkpt lat="44.8719145" lon="11.7138337"><ele>1.0</ele><time>2026-04-15T11:21:09.174Z</time></trkpt><trkpt lat="44.8717837" lon="11.7134631"><ele>0.75</ele><time>2026-04-15T11:21:11.217Z</time></trkpt><trkpt lat="44.8717242" lon="11.7132764"><ele>0.5</ele><time>2026-04-15T11:21:12.218Z</time></trkpt><trkpt lat="44.8716695" lon="11.7130895"><ele>0.25</ele><time>2026-04-15T11:21:13.214Z</time></trkpt><trkpt lat="44.871617" lon="11.7128992"><ele>0.0</ele><time>2026-04-15T11:21:14.214Z</time></trkpt><trkpt lat="44.8715659" lon="11.7127115"><ele>-0.25</ele><time>2026-04-15T11:21:15.207Z</time></trkpt><trkpt lat="44.8715188" lon="11.7125233"><ele>-0.5</ele><time>2026-04-15T11:21:16.202Z</time></trkpt><trkpt lat="44.8714754" lon="11.7123365"><ele>-0.75</ele><time>2026-04-15T11:21:17.191Z</time></trkpt><trkpt lat="44.8714362" lon="11.7121459"><ele>-1.0</ele><time>2026-04-15T11:21:18.193Z</time></trkpt><trkpt lat="44.871405" lon="11.7119551"><ele>-0.25</ele><time>2026-04-15T11:21:19.222Z</time></trkpt><trkpt lat="44.8713751" lon="11.7117633"><ele>0.5</ele><time>2026-04-15T11:21:20.19Z</time></trkpt><trkpt lat="44.8713467" lon="11.711573"><ele>1.25</ele><time>2026-04-15T11:21:21.209Z</time></trkpt><trkpt lat="44.8713217" lon="11.7113829"><ele>2.0</ele><time>2026-04-15T11:21:22.23Z</time></trkpt><trkpt lat="44.8712941" lon="11.7111912"><ele>3.0</ele><time>2026-04-15T11:21:23.191Z</time></trkpt><trkpt lat="44.8712624" lon="11.7110028"><ele>4.0</ele><time>2026-04-15T11:21:24.213Z</time></trkpt><trkpt lat="44.8712333" lon="11.7108152"><ele>5.0</ele><time>2026-04-15T11:21:25.201Z</time></trkpt><trkpt lat="44.8711241" lon="11.7102511"><ele>5.25</ele><time>2026-04-15T11:21:28.209Z</time></trkpt><trkpt lat="44.8710831" lon="11.7100649"><ele>5.5</ele><time>2026-04-15T11:21:29.2Z</time></trkpt><trkpt lat="44.8710386" lon="11.7098729"><ele>5.75</ele><time>2026-04-15T11:21:30.19Z</time></trkpt><trkpt lat="44.8709863" lon="11.7096847"><ele>6.0</ele><time>2026-04-15T11:21:31.209Z</time></trkpt><trkpt lat="44.8709249" lon="11.7095042"><ele>5.0</ele><time>2026-04-15T11:21:32.195Z</time></trkpt><trkpt lat="44.8708543" lon="11.7093422"><ele>4.0</ele><time>2026-04-15T11:21:33.208Z</time></trkpt><trkpt lat="44.8707711" lon="11.7092019"><ele>3.0</ele><time>2026-04-15T11:21:34.212Z</time></trkpt><trkpt lat="44.8706876" lon="11.7090747"><ele>2.0</ele><time>2026-04-15T11:21:35.204Z</time></trkpt><trkpt lat="44.8706131" lon="11.7089583"><ele>2.0</ele><time>2026-04-15T11:21:36.209Z</time></trkpt><trkpt lat="44.8705248" lon="11.7088894"><ele>2.0</ele><time>2026-04-15T11:21:37.196Z</time></trkpt><trkpt lat="44.8704336" lon="11.7088998"><ele>2.0</ele><time>2026-04-15T11:21:38.183Z</time></trkpt><trkpt lat="44.870352" lon="11.7089872"><ele>2.0</ele><time>2026-04-15T11:21:39.201Z</time></trkpt><trkpt lat="44.870294" lon="11.7091071"><ele>2.0</ele><time>2026-04-15T11:21:40.206Z</time></trkpt><trkpt lat="44.8702733" lon="11.7092519"><ele>2.0</ele><time>2026-04-15T11:21:41.2Z</time></trkpt><trkpt lat="44.8702499" lon="11.7093891"><ele>2.0</ele><time>2026-04-15T11:21:42.2Z</time></trkpt><trkpt lat="44.8701895" lon="11.7095307"><ele>2.0</ele><time>2026-04-15T11:21:43.177Z</time></trkpt><trkpt lat="44.8700885" lon="11.709639"><ele>2.0</ele><time>2026-04-15T11:21:44.199Z</time></trkpt><trkpt lat="44.8699387" lon="11.7097414"><ele>2.333333333333333</ele><time>2026-04-15T11:21:45.216Z</time></trkpt><trkpt lat="44.869771" lon="11.7098279"><ele>2.6666666666666665</ele><time>2026-04-15T11:21:46.203Z</time></trkpt><trkpt lat="44.8695898" lon="11.7099187"><ele>3.0</ele><time>2026-04-15T11:21:47.196Z</time></trkpt><trkpt lat="44.8693946" lon="11.7100248"><ele>2.3333333333333335</ele><time>2026-04-15T11:21:48.194Z</time></trkpt><trkpt lat="44.8691884" lon="11.7101428"><ele>1.6666666666666665</ele><time>2026-04-15T11:21:49.17Z</time></trkpt><trkpt lat="44.8689744" lon="11.7102494"><ele>1.0</ele><time>2026-04-15T11:21:50.212Z</time></trkpt><trkpt lat="44.8687514" lon="11.7103406"><ele>1.0</ele><time>2026-04-15T11:21:51.199Z</time></trkpt><trkpt lat="44.86852" lon="11.7103974"><ele>1.0</ele><time>2026-04-15T11:21:52.228Z</time></trkpt><trkpt lat="44.8682774" lon="11.710431"><ele>2.0</ele><time>2026-04-15T11:21:53.207Z</time></trkpt><trkpt lat="44.8677845" lon="11.7104407"><ele>4.0</ele><time>2026-04-15T11:21:55.201Z</time></trkpt><trkpt lat="44.86727" lon="11.7103853"><ele>4.0</ele><time>2026-04-15T11:21:57.197Z</time></trkpt><trkpt lat="44.8670074" lon="11.7103552"><ele>4.0</ele><time>2026-04-15T11:21:58.219Z</time></trkpt><trkpt lat="44.8667456" lon="11.710319"><ele>4.5</ele><time>2026-04-15T11:21:59.229Z</time></trkpt><trkpt lat="44.8664786" lon="11.7102884"><ele>5.0</ele><time>2026-04-15T11:22:00.223Z</time></trkpt><trkpt lat="44.8662105" lon="11.7102459"><ele>3.0</ele><time>2026-04-15T11:22:01.21Z</time></trkpt><trkpt lat="44.8659407" lon="11.710196"><ele>1.0</ele><time>2026-04-15T11:22:02.19Z</time></trkpt><trkpt lat="44.8656689" lon="11.7101397"><ele>1.0</ele><time>2026-04-15T11:22:03.221Z</time></trkpt><trkpt lat="44.8653994" lon="11.710071"><ele>1.0</ele><time>2026-04-15T11:22:04.21Z</time></trkpt><trkpt lat="44.8651296" lon="11.7100016"><ele>2.0</ele><time>2026-04-15T11:22:05.199Z</time></trkpt><trkpt lat="44.8648641" lon="11.7099338"><ele>3.0</ele><time>2026-04-15T11:22:06.202Z</time></trkpt><trkpt lat="44.8646041" lon="11.7098736"><ele>3.0</ele><time>2026-04-15T11:22:07.187Z</time></trkpt><trkpt lat="44.8643475" lon="11.7098108"><ele>3.0</ele><time>2026-04-15T11:22:08.205Z</time></trkpt><trkpt lat="44.8640901" lon="11.7097491"><ele>3.0</ele><time>2026-04-15T11:22:09.21Z</time></trkpt><trkpt lat="44.8638416" lon="11.7096938"><ele>3.0</ele><time>2026-04-15T11:22:10.216Z</time></trkpt><trkpt lat="44.8635927" lon="11.7096502"><ele>2.5</ele><time>2026-04-15T11:22:11.21Z</time></trkpt><trkpt lat="44.8633464" lon="11.7096558"><ele>2.0</ele><time>2026-04-15T11:22:12.184Z</time></trkpt><trkpt lat="44.8631021" lon="11.7097194"><ele>2.0</ele><time>2026-04-15T11:22:13.233Z</time></trkpt><trkpt lat="44.8628537" lon="11.7098243"><ele>2.0</ele><time>2026-04-15T11:22:14.228Z</time></trkpt><trkpt lat="44.8626125" lon="11.7099478"><ele>2.5</ele><time>2026-04-15T11:22:15.229Z</time></trkpt><trkpt lat="44.8623652" lon="11.7100766"><ele>3.0</ele><time>2026-04-15T11:22:16.192Z</time></trkpt><trkpt lat="44.8621161" lon="11.7102069"><ele>3.0</ele><time>2026-04-15T11:22:17.188Z</time></trkpt><trkpt lat="44.8618679" lon="11.7103443"><ele>3.0</ele><time>2026-04-15T11:22:18.198Z</time></trkpt><trkpt lat="44.8616222" lon="11.710489"><ele>3.0</ele><time>2026-04-15T11:22:19.198Z</time></trkpt><trkpt lat="44.8613749" lon="11.7106371"><ele>3.0</ele><time>2026-04-15T11:22:20.185Z</time></trkpt><trkpt lat="44.8611311" lon="11.7107856"><ele>3.0</ele><time>2026-04-15T11:22:21.215Z</time></trkpt><trkpt lat="44.8606762" lon="11.7110693"><ele>3.5</ele><time>2026-04-15T11:22:23.204Z</time></trkpt><trkpt lat="44.860464" lon="11.7112016"><ele>4.0</ele><time>2026-04-15T11:22:24.197Z</time></trkpt><trkpt lat="44.8602634" lon="11.7113251"><ele>3.6666666666666665</ele><time>2026-04-15T11:22:25.191Z</time></trkpt><trkpt lat="44.8600752" lon="11.7114359"><ele>3.333333333333333</ele><time>2026-04-15T11:22:26.197Z</time></trkpt><trkpt lat="44.8599035" lon="11.7115497"><ele>3.0</ele><time>2026-04-15T11:22:27.201Z</time></trkpt><trkpt lat="44.8597399" lon="11.7116668"><ele>3.0</ele><time>2026-04-15T11:22:28.21Z</time></trkpt><trkpt lat="44.8595966" lon="11.7117803"><ele>3.0</ele><time>2026-04-15T11:22:29.213Z</time></trkpt><trkpt lat="44.8594786" lon="11.7119021"><ele>3.0</ele><time>2026-04-15T11:22:30.184Z</time></trkpt><trkpt lat="44.8593596" lon="11.7120159"><ele>3.0</ele><time>2026-04-15T11:22:31.178Z</time></trkpt><trkpt lat="44.8592448" lon="11.7121361"><ele>3.0</ele><time>2026-04-15T11:22:32.219Z</time></trkpt><trkpt lat="44.8591309" lon="11.7122505"><ele>3.0</ele><time>2026-04-15T11:22:33.208Z</time></trkpt><trkpt lat="44.8590193" lon="11.7123695"><ele>3.0</ele><time>2026-04-15T11:22:34.219Z</time></trkpt><trkpt lat="44.858913" lon="11.7124929"><ele>3.0</ele><time>2026-04-15T11:22:35.21Z</time></trkpt><trkpt lat="44.858806" lon="11.7126159"><ele>3.0</ele><time>2026-04-15T11:22:36.195Z</time></trkpt><trkpt lat="44.8587058" lon="11.7127357"><ele>3.0</ele><time>2026-04-15T11:22:37.184Z</time></trkpt><trkpt lat="44.8586141" lon="11.7128464"><ele>3.0</ele><time>2026-04-15T11:22:38.21Z</time></trkpt><trkpt lat="44.8585287" lon="11.7129418"><ele>3.0</ele><time>2026-04-15T11:22:39.213Z</time></trkpt><trkpt lat="44.8584597" lon="11.7130235"><ele>3.0</ele><time>2026-04-15T11:22:40.193Z</time></trkpt><trkpt lat="44.858396" lon="11.7130878"><ele>3.0</ele><time>2026-04-15T11:22:41.196Z</time></trkpt><trkpt lat="44.8583149" lon="11.7131139"><ele>3.0</ele><time>2026-04-15T11:22:42.185Z</time></trkpt><trkpt lat="44.8582174" lon="11.7130896"><ele>3.0</ele><time>2026-04-15T11:22:43.234Z</time></trkpt><trkpt lat="44.8581102" lon="11.7130664"><ele>2.75</ele><time>2026-04-15T11:22:44.19Z</time></trkpt><trkpt lat="44.8579825" lon="11.7130614"><ele>2.5</ele><time>2026-04-15T11:22:45.193Z</time></trkpt><trkpt lat="44.8578422" lon="11.7130631"><ele>2.25</ele><time>2026-04-15T11:22:46.188Z</time></trkpt><trkpt lat="44.8576929" lon="11.7130105"><ele>2.0</ele><time>2026-04-15T11:22:47.197Z</time></trkpt><trkpt lat="44.8575437" lon="11.7129432"><ele>2.0</ele><time>2026-04-15T11:22:48.202Z</time></trkpt><trkpt lat="44.8574001" lon="11.7129087"><ele>2.0</ele><time>2026-04-15T11:22:49.166Z</time></trkpt><trkpt lat="44.8572577" lon="11.7129037"><ele>2.0</ele><time>2026-04-15T11:22:50.187Z</time></trkpt><trkpt lat="44.8570893" lon="11.7129332"><ele>2.0</ele><time>2026-04-15T11:22:51.18Z</time></trkpt><trkpt lat="44.8568794" lon="11.7129952"><ele>2.0</ele><time>2026-04-15T11:22:52.197Z</time></trkpt><trkpt lat="44.8566316" lon="11.7130489"><ele>1.5</ele><time>2026-04-15T11:22:53.183Z</time></trkpt><trkpt lat="44.856381" lon="11.7130867"><ele>1.0</ele><time>2026-04-15T11:22:54.165Z</time></trkpt><trkpt lat="44.8561166" lon="11.7131505"><ele>1.0</ele><time>2026-04-15T11:22:55.183Z</time></trkpt><trkpt lat="44.8558422" lon="11.7132304"><ele>1.0</ele><time>2026-04-15T11:22:56.214Z</time></trkpt><trkpt lat="44.8555625" lon="11.713298"><ele>1.0</ele><time>2026-04-15T11:22:57.214Z</time></trkpt><trkpt lat="44.8552803" lon="11.7133653"><ele>1.0</ele><time>2026-04-15T11:22:58.212Z</time></trkpt><trkpt lat="44.8549997" lon="11.7134384"><ele>0.5</ele><time>2026-04-15T11:22:59.208Z</time></trkpt><trkpt lat="44.8547195" lon="11.7135067"><ele>0.0</ele><time>2026-04-15T11:23:00.186Z</time></trkpt><trkpt lat="44.8544425" lon="11.7135739"><ele>0.5</ele><time>2026-04-15T11:23:01.196Z</time></trkpt><trkpt lat="44.8541704" lon="11.7136422"><ele>1.0</ele><time>2026-04-15T11:23:02.181Z</time></trkpt><trkpt lat="44.8539018" lon="11.7137088"><ele>1.0</ele><time>2026-04-15T11:23:03.176Z</time></trkpt><trkpt lat="44.8536407" lon="11.7137742"><ele>1.0</ele><time>2026-04-15T11:23:04.206Z</time></trkpt><trkpt lat="44.8533867" lon="11.7138404"><ele>1.5</ele><time>2026-04-15T11:23:05.203Z</time></trkpt><trkpt lat="44.8531422" lon="11.7139039"><ele>2.0</ele><time>2026-04-15T11:23:06.205Z</time></trkpt><trkpt lat="44.8529143" lon="11.7139569"><ele>2.0</ele><time>2026-04-15T11:23:07.201Z</time></trkpt><trkpt lat="44.8526916" lon="11.7140105"><ele>2.0</ele><time>2026-04-15T11:23:08.2Z</time></trkpt><trkpt lat="44.8524903" lon="11.7140594"><ele>2.0</ele><time>2026-04-15T11:23:09.165Z</time></trkpt><trkpt lat="44.8523059" lon="11.7141004"><ele>2.0</ele><time>2026-04-15T11:23:10.204Z</time></trkpt><trkpt lat="44.8521423" lon="11.7141256"><ele>2.0</ele><time>2026-04-15T11:23:11.198Z</time></trkpt><trkpt lat="44.8519942" lon="11.7141278"><ele>2.0</ele><time>2026-04-15T11:23:12.204Z</time></trkpt><trkpt lat="44.8518657" lon="11.7141025"><ele>2.0</ele><time>2026-04-15T11:23:13.171Z</time></trkpt><trkpt lat="44.8517502" lon="11.7140447"><ele>2.0</ele><time>2026-04-15T11:23:14.188Z</time></trkpt><trkpt lat="44.8516439" lon="11.7139573"><ele>2.0</ele><time>2026-04-15T11:23:15.188Z</time></trkpt><trkpt lat="44.8515552" lon="11.713848"><ele>2.0</ele><time>2026-04-15T11:23:16.192Z</time></trkpt><trkpt lat="44.8514927" lon="11.7137071"><ele>2.0</ele><time>2026-04-15T11:23:17.176Z</time></trkpt><trkpt lat="44.8514447" lon="11.7135231"><ele>2.0</ele><time>2026-04-15T11:23:18.211Z</time></trkpt><trkpt lat="44.8513997" lon="11.7132949"><ele>2.0</ele><time>2026-04-15T11:23:19.197Z</time></trkpt><trkpt lat="44.8513322" lon="11.7130318"><ele>2.0</ele><time>2026-04-15T11:23:20.21Z</time></trkpt><trkpt lat="44.85127" lon="11.7127737"><ele>2.333333333333333</ele><time>2026-04-15T11:23:21.188Z</time></trkpt><trkpt lat="44.8512216" lon="11.7125145"><ele>2.6666666666666665</ele><time>2026-04-15T11:23:22.198Z</time></trkpt><trkpt lat="44.8512045" lon="11.7122548"><ele>3.0</ele><time>2026-04-15T11:23:23.199Z</time></trkpt><trkpt lat="44.8512116" lon="11.711964"><ele>3.333333333333333</ele><time>2026-04-15T11:23:24.169Z</time></trkpt><trkpt lat="44.8512199" lon="11.7116637"><ele>3.6666666666666665</ele><time>2026-04-15T11:23:25.19Z</time></trkpt><trkpt lat="44.8512141" lon="11.7113481"><ele>4.0</ele><time>2026-04-15T11:23:26.203Z</time></trkpt><trkpt lat="44.8511941" lon="11.7110048"><ele>3.0</ele><time>2026-04-15T11:23:27.197Z</time></trkpt><trkpt lat="44.8511719" lon="11.7106349"><ele>2.0</ele><time>2026-04-15T11:23:28.199Z</time></trkpt><trkpt lat="44.8511452" lon="11.7102571"><ele>1.5</ele><time>2026-04-15T11:23:29.186Z</time></trkpt><trkpt lat="44.8511178" lon="11.7098659"><ele>1.0</ele><time>2026-04-15T11:23:30.184Z</time></trkpt><trkpt lat="44.851096" lon="11.7094751"><ele>1.5</ele><time>2026-04-15T11:23:31.2Z</time></trkpt><trkpt lat="44.8510694" lon="11.7090861"><ele>2.0</ele><time>2026-04-15T11:23:32.191Z</time></trkpt><trkpt lat="44.8510374" lon="11.7086977"><ele>2.5</ele><time>2026-04-15T11:23:33.188Z</time></trkpt><trkpt lat="44.8509959" lon="11.708304"><ele>3.0</ele><time>2026-04-15T11:23:34.185Z</time></trkpt><trkpt lat="44.8509378" lon="11.7079035"><ele>2.5</ele><time>2026-04-15T11:23:35.198Z</time></trkpt><trkpt lat="44.8508795" lon="11.7074956"><ele>2.0</ele><time>2026-04-15T11:23:36.168Z</time></trkpt><trkpt lat="44.8508066" lon="11.707083"><ele>2.0</ele><time>2026-04-15T11:23:37.193Z</time></trkpt><trkpt lat="44.8507264" lon="11.7066773"><ele>2.0</ele><time>2026-04-15T11:23:38.193Z</time></trkpt><trkpt lat="44.8505419" lon="11.7058624"><ele>2.0</ele><time>2026-04-15T11:23:40.169Z</time></trkpt><trkpt lat="44.8504368" lon="11.7054578"><ele>2.0</ele><time>2026-04-15T11:23:41.191Z</time></trkpt><trkpt lat="44.8503205" lon="11.7050476"><ele>2.0</ele><time>2026-04-15T11:23:42.197Z</time></trkpt><trkpt lat="44.8501954" lon="11.7046381"><ele>2.0</ele><time>2026-04-15T11:23:43.177Z</time></trkpt><trkpt lat="44.8500718" lon="11.7042242"><ele>1.5</ele><time>2026-04-15T11:23:44.185Z</time></trkpt><trkpt lat="44.849954" lon="11.7038032"><ele>1.0</ele><time>2026-04-15T11:23:45.191Z</time></trkpt><trkpt lat="44.8498375" lon="11.7033805"><ele>0.5</ele><time>2026-04-15T11:23:46.212Z</time></trkpt><trkpt lat="44.8497252" lon="11.7029512"><ele>0.0</ele><time>2026-04-15T11:23:47.184Z</time></trkpt><trkpt lat="44.8496104" lon="11.702513"><ele>1.5</ele><time>2026-04-15T11:23:48.174Z</time></trkpt><trkpt lat="44.8494973" lon="11.7020728"><ele>3.0</ele><time>2026-04-15T11:23:49.167Z</time></trkpt><trkpt lat="44.8493805" lon="11.7016359"><ele>3.5</ele><time>2026-04-15T11:23:50.197Z</time></trkpt><trkpt lat="44.849263" lon="11.7012113"><ele>4.0</ele><time>2026-04-15T11:23:51.199Z</time></trkpt><trkpt lat="44.8491486" lon="11.7007829"><ele>4.0</ele><time>2026-04-15T11:23:52.183Z</time></trkpt><trkpt lat="44.8490317" lon="11.7003673"><ele>4.0</ele><time>2026-04-15T11:23:53.195Z</time></trkpt><trkpt lat="44.8489144" lon="11.6999538"><ele>4.0</ele><time>2026-04-15T11:23:54.202Z</time></trkpt><trkpt lat="44.8488011" lon="11.6995374"><ele>4.0</ele><time>2026-04-15T11:23:55.163Z</time></trkpt><trkpt lat="44.8486875" lon="11.6991288"><ele>3.0</ele><time>2026-04-15T11:23:56.179Z</time></trkpt><trkpt lat="44.8484626" lon="11.6983166"><ele>3.0</ele><time>2026-04-15T11:23:58.198Z</time></trkpt><trkpt lat="44.8483542" lon="11.6979123"><ele>3.0</ele><time>2026-04-15T11:23:59.193Z</time></trkpt><trkpt lat="44.848244" lon="11.6975122"><ele>2.5</ele><time>2026-04-15T11:24:00.198Z</time></trkpt><trkpt lat="44.8481316" lon="11.6971166"><ele>2.0</ele><time>2026-04-15T11:24:01.156Z</time></trkpt><trkpt lat="44.8480166" lon="11.6967215"><ele>2.0</ele><time>2026-04-15T11:24:02.19Z</time></trkpt><trkpt lat="44.8478838" lon="11.6963322"><ele>2.0</ele><time>2026-04-15T11:24:03.179Z</time></trkpt><trkpt lat="44.847728" lon="11.6959386"><ele>2.0</ele><time>2026-04-15T11:24:04.186Z</time></trkpt><trkpt lat="44.8475614" lon="11.6955381"><ele>2.0</ele><time>2026-04-15T11:24:05.175Z</time></trkpt><trkpt lat="44.8473858" lon="11.6951381"><ele>2.0</ele><time>2026-04-15T11:24:06.196Z</time></trkpt><trkpt lat="44.8472119" lon="11.6947382"><ele>2.0</ele><time>2026-04-15T11:24:07.171Z</time></trkpt><trkpt lat="44.8470395" lon="11.6943421"><ele>2.0</ele><time>2026-04-15T11:24:08.195Z</time></trkpt><trkpt lat="44.846878" lon="11.693968"><ele>2.0</ele><time>2026-04-15T11:24:09.182Z</time></trkpt><trkpt lat="44.846726" lon="11.6935983"><ele>2.0</ele><time>2026-04-15T11:24:10.198Z</time></trkpt><trkpt lat="44.846584" lon="11.6932389"><ele>2.0</ele><time>2026-04-15T11:24:11.214Z</time></trkpt><trkpt lat="44.8464382" lon="11.6928914"><ele>2.0</ele><time>2026-04-15T11:24:12.178Z</time></trkpt><trkpt lat="44.8463036" lon="11.6925539"><ele>2.0</ele><time>2026-04-15T11:24:13.197Z</time></trkpt><trkpt lat="44.8461819" lon="11.6922307"><ele>2.0</ele><time>2026-04-15T11:24:14.197Z</time></trkpt><trkpt lat="44.8460723" lon="11.691913"><ele>2.0</ele><time>2026-04-15T11:24:15.198Z</time></trkpt><trkpt lat="44.8459731" lon="11.6916097"><ele>2.0</ele><time>2026-04-15T11:24:16.163Z</time></trkpt><trkpt lat="44.8458734" lon="11.6912976"><ele>2.0</ele><time>2026-04-15T11:24:17.197Z</time></trkpt><trkpt lat="44.8457714" lon="11.6909749"><ele>2.0</ele><time>2026-04-15T11:24:18.155Z</time></trkpt><trkpt lat="44.8456758" lon="11.6906368"><ele>2.0</ele><time>2026-04-15T11:24:19.172Z</time></trkpt><trkpt lat="44.8455903" lon="11.6902966"><ele>2.0</ele><time>2026-04-15T11:24:20.192Z</time></trkpt><trkpt lat="44.8455117" lon="11.6899729"><ele>2.0</ele><time>2026-04-15T11:24:21.206Z</time></trkpt><trkpt lat="44.8454244" lon="11.6896731"><ele>2.0</ele><time>2026-04-15T11:24:22.184Z</time></trkpt><trkpt lat="44.8453313" lon="11.6893903"><ele>2.0</ele><time>2026-04-15T11:24:23.195Z</time></trkpt><trkpt lat="44.8452339" lon="11.689138"><ele>2.0</ele><time>2026-04-15T11:24:24.213Z</time></trkpt><trkpt lat="44.8451354" lon="11.688917"><ele>1.6666666666666665</ele><time>2026-04-15T11:24:25.189Z</time></trkpt><trkpt lat="44.8450044" lon="11.6887236"><ele>1.3333333333333333</ele><time>2026-04-15T11:24:26.187Z</time></trkpt><trkpt lat="44.8448452" lon="11.6885358"><ele>1.0</ele><time>2026-04-15T11:24:27.181Z</time></trkpt><trkpt lat="44.8446758" lon="11.6883331"><ele>1.0</ele><time>2026-04-15T11:24:28.162Z</time></trkpt><trkpt lat="44.8445137" lon="11.688103"><ele>1.0</ele><time>2026-04-15T11:24:29.182Z</time></trkpt><trkpt lat="44.8443484" lon="11.6878417"><ele>1.0</ele><time>2026-04-15T11:24:30.203Z</time></trkpt><trkpt lat="44.8442002" lon="11.6875772"><ele>1.0</ele><time>2026-04-15T11:24:31.191Z</time></trkpt><trkpt lat="44.8440642" lon="11.6873092"><ele>1.0</ele><time>2026-04-15T11:24:32.202Z</time></trkpt><trkpt lat="44.843948" lon="11.6870247"><ele>1.0</ele><time>2026-04-15T11:24:33.158Z</time></trkpt><trkpt lat="44.8438483" lon="11.6867063"><ele>1.0</ele><time>2026-04-15T11:24:34.159Z</time></trkpt><trkpt lat="44.8437488" lon="11.6863715"><ele>1.0</ele><time>2026-04-15T11:24:35.201Z</time></trkpt><trkpt lat="44.8436407" lon="11.686024"><ele>1.0</ele><time>2026-04-15T11:24:36.198Z</time></trkpt><trkpt lat="44.8435281" lon="11.6856865"><ele>1.0</ele><time>2026-04-15T11:24:37.175Z</time></trkpt><trkpt lat="44.8434132" lon="11.6853608"><ele>2.0</ele><time>2026-04-15T11:24:38.187Z</time></trkpt><trkpt lat="44.8432999" lon="11.6850525"><ele>3.0</ele><time>2026-04-15T11:24:39.161Z</time></trkpt><trkpt lat="44.8431878" lon="11.684751"><ele>3.0</ele><time>2026-04-15T11:24:40.158Z</time></trkpt><trkpt lat="44.8430827" lon="11.6844679"><ele>3.0</ele><time>2026-04-15T11:24:41.185Z</time></trkpt><trkpt lat="44.8429916" lon="11.6841968"><ele>3.0</ele><time>2026-04-15T11:24:42.177Z</time></trkpt><trkpt lat="44.8429016" lon="11.683922"><ele>3.0</ele><time>2026-04-15T11:24:43.189Z</time></trkpt><trkpt lat="44.8428194" lon="11.6836523"><ele>3.0</ele><time>2026-04-15T11:24:44.16Z</time></trkpt><trkpt lat="44.8427469" lon="11.6833915"><ele>3.0</ele><time>2026-04-15T11:24:45.188Z</time></trkpt><trkpt lat="44.8426758" lon="11.6831266"><ele>3.0</ele><time>2026-04-15T11:24:46.197Z</time></trkpt><trkpt lat="44.8426047" lon="11.6828649"><ele>3.0</ele><time>2026-04-15T11:24:47.177Z</time></trkpt><trkpt lat="44.8425321" lon="11.6826047"><ele>3.0</ele><time>2026-04-15T11:24:48.211Z</time></trkpt><trkpt lat="44.8423902" lon="11.6820818"><ele>3.0</ele><time>2026-04-15T11:24:50.182Z</time></trkpt><trkpt lat="44.8423083" lon="11.6818057"><ele>3.0</ele><time>2026-04-15T11:24:51.163Z</time></trkpt><trkpt lat="44.8422266" lon="11.6815059"><ele>3.0</ele><time>2026-04-15T11:24:52.177Z</time></trkpt><trkpt lat="44.8421455" lon="11.6812041"><ele>3.0</ele><time>2026-04-15T11:24:53.153Z</time></trkpt><trkpt lat="44.8420569" lon="11.6808932"><ele>3.0</ele><time>2026-04-15T11:24:54.174Z</time></trkpt><trkpt lat="44.8419571" lon="11.6805691"><ele>3.0</ele><time>2026-04-15T11:24:55.195Z</time></trkpt><trkpt lat="44.8418508" lon="11.6802371"><ele>3.0</ele><time>2026-04-15T11:24:56.193Z</time></trkpt><trkpt lat="44.8417466" lon="11.6799175"><ele>3.0</ele><time>2026-04-15T11:24:57.163Z</time></trkpt><trkpt lat="44.8416427" lon="11.6796103"><ele>3.0</ele><time>2026-04-15T11:24:58.183Z</time></trkpt><trkpt lat="44.8415563" lon="11.679328"><ele>3.0</ele><time>2026-04-15T11:24:59.165Z</time></trkpt><trkpt lat="44.8414666" lon="11.679041"><ele>3.0</ele><time>2026-04-15T11:25:00.159Z</time></trkpt><trkpt lat="44.8413611" lon="11.6787257"><ele>3.5</ele><time>2026-04-15T11:25:01.176Z</time></trkpt><trkpt lat="44.8412632" lon="11.6783802"><ele>4.0</ele><time>2026-04-15T11:25:02.206Z</time></trkpt><trkpt lat="44.8411617" lon="11.6780234"><ele>4.0</ele><time>2026-04-15T11:25:03.159Z</time></trkpt><trkpt lat="44.8410466" lon="11.6776587"><ele>4.0</ele><time>2026-04-15T11:25:04.17Z</time></trkpt><trkpt lat="44.8409192" lon="11.6773033"><ele>4.0</ele><time>2026-04-15T11:25:05.158Z</time></trkpt><trkpt lat="44.8407891" lon="11.6769502"><ele>4.0</ele><time>2026-04-15T11:25:06.163Z</time></trkpt><trkpt lat="44.84066" lon="11.6766016"><ele>3.5</ele><time>2026-04-15T11:25:07.162Z</time></trkpt><trkpt lat="44.8405366" lon="11.6762562"><ele>3.0</ele><time>2026-04-15T11:25:08.173Z</time></trkpt><trkpt lat="44.8404213" lon="11.675929"><ele>2.5</ele><time>2026-04-15T11:25:09.172Z</time></trkpt><trkpt lat="44.8403129" lon="11.6756172"><ele>2.0</ele><time>2026-04-15T11:25:10.179Z</time></trkpt><trkpt lat="44.8402076" lon="11.6753139"><ele>2.5</ele><time>2026-04-15T11:25:11.17Z</time></trkpt><trkpt lat="44.8401073" lon="11.6750097"><ele>3.0</ele><time>2026-04-15T11:25:12.169Z</time></trkpt><trkpt lat="44.840011" lon="11.6747035"><ele>2.6666666666666665</ele><time>2026-04-15T11:25:13.183Z</time></trkpt><trkpt lat="44.8399221" lon="11.674405"><ele>2.333333333333333</ele><time>2026-04-15T11:25:14.156Z</time></trkpt><trkpt lat="44.8398336" lon="11.6741291"><ele>2.0</ele><time>2026-04-15T11:25:15.183Z</time></trkpt><trkpt lat="44.8397645" lon="11.6738943"><ele>2.0</ele><time>2026-04-15T11:25:16.186Z</time></trkpt><trkpt lat="44.8397021" lon="11.6736861"><ele>2.0</ele><time>2026-04-15T11:25:17.181Z</time></trkpt><trkpt lat="44.8396344" lon="11.6734779"><ele>2.0</ele><time>2026-04-15T11:25:18.192Z</time></trkpt><trkpt lat="44.8395521" lon="11.673228"><ele>2.0</ele><time>2026-04-15T11:25:19.155Z</time></trkpt><trkpt lat="44.8394616" lon="11.6729233"><ele>2.0</ele><time>2026-04-15T11:25:20.192Z</time></trkpt><trkpt lat="44.839358" lon="11.6725928"><ele>2.5</ele><time>2026-04-15T11:25:21.183Z</time></trkpt><trkpt lat="44.8392589" lon="11.6722639"><ele>3.0</ele><time>2026-04-15T11:25:22.193Z</time></trkpt><trkpt lat="44.8391618" lon="11.6719287"><ele>3.0</ele><time>2026-04-15T11:25:23.184Z</time></trkpt><trkpt lat="44.839076" lon="11.6715962"><ele>3.0</ele><time>2026-04-15T11:25:24.162Z</time></trkpt><trkpt lat="44.8389954" lon="11.6712603"><ele>2.0</ele><time>2026-04-15T11:25:25.187Z</time></trkpt><trkpt lat="44.8389245" lon="11.6709388"><ele>1.0</ele><time>2026-04-15T11:25:26.184Z</time></trkpt><trkpt lat="44.8388512" lon="11.6706334"><ele>1.0</ele><time>2026-04-15T11:25:27.196Z</time></trkpt><trkpt lat="44.8387717" lon="11.6703328"><ele>1.0</ele><time>2026-04-15T11:25:28.183Z</time></trkpt><trkpt lat="44.8386966" lon="11.6700411"><ele>1.0</ele><time>2026-04-15T11:25:29.172Z</time></trkpt><trkpt lat="44.8386189" lon="11.6697566"><ele>1.0</ele><time>2026-04-15T11:25:30.173Z</time></trkpt><trkpt lat="44.8385402" lon="11.6694757"><ele>1.0</ele><time>2026-04-15T11:25:31.178Z</time></trkpt><trkpt lat="44.838466" lon="11.669214"><ele>1.0</ele><time>2026-04-15T11:25:32.191Z</time></trkpt><trkpt lat="44.8383976" lon="11.6689772"><ele>1.3333333333333333</ele><time>2026-04-15T11:25:33.161Z</time></trkpt><trkpt lat="44.8383401" lon="11.6687601"><ele>1.6666666666666665</ele><time>2026-04-15T11:25:34.183Z</time></trkpt><trkpt lat="44.8382852" lon="11.6685561"><ele>2.0</ele><time>2026-04-15T11:25:35.164Z</time></trkpt><trkpt lat="44.8382309" lon="11.6683606"><ele>2.25</ele><time>2026-04-15T11:25:36.189Z</time></trkpt><trkpt lat="44.8381765" lon="11.6681782"><ele>2.5</ele><time>2026-04-15T11:25:37.162Z</time></trkpt><trkpt lat="44.8381294" lon="11.6680018"><ele>2.75</ele><time>2026-04-15T11:25:38.173Z</time></trkpt><trkpt lat="44.8380868" lon="11.6678303"><ele>3.0</ele><time>2026-04-15T11:25:39.188Z</time></trkpt><trkpt lat="44.8380465" lon="11.6676599"><ele>3.25</ele><time>2026-04-15T11:25:40.176Z</time></trkpt><trkpt lat="44.8380087" lon="11.6674824"><ele>3.5</ele><time>2026-04-15T11:25:41.158Z</time></trkpt><trkpt lat="44.83798" lon="11.6672993"><ele>3.75</ele><time>2026-04-15T11:25:42.176Z</time></trkpt><trkpt lat="44.8379594" lon="11.667106"><ele>4.0</ele><time>2026-04-15T11:25:43.187Z</time></trkpt><trkpt lat="44.8379537" lon="11.6669094"><ele>4.25</ele><time>2026-04-15T11:25:44.176Z</time></trkpt><trkpt lat="44.8379545" lon="11.6667088"><ele>4.5</ele><time>2026-04-15T11:25:45.182Z</time></trkpt><trkpt lat="44.8379581" lon="11.6665075"><ele>4.75</ele><time>2026-04-15T11:25:46.178Z</time></trkpt><trkpt lat="44.837966" lon="11.6663031"><ele>5.0</ele><time>2026-04-15T11:25:47.18Z</time></trkpt><trkpt lat="44.8379805" lon="11.6660944"><ele>4.75</ele><time>2026-04-15T11:25:48.181Z</time></trkpt><trkpt lat="44.8380004" lon="11.6658826"><ele>4.5</ele><time>2026-04-15T11:25:49.166Z</time></trkpt><trkpt lat="44.8380192" lon="11.6656767"><ele>4.25</ele><time>2026-04-15T11:25:50.178Z</time></trkpt><trkpt lat="44.8380398" lon="11.6654725"><ele>4.0</ele><time>2026-04-15T11:25:51.181Z</time></trkpt><trkpt lat="44.8380609" lon="11.6652645"><ele>4.0</ele><time>2026-04-15T11:25:52.171Z</time></trkpt><trkpt lat="44.8380797" lon="11.665051"><ele>4.0</ele><time>2026-04-15T11:25:53.159Z</time></trkpt><trkpt lat="44.8381005" lon="11.664842"><ele>4.0</ele><time>2026-04-15T11:25:54.171Z</time></trkpt><trkpt lat="44.8381218" lon="11.6646318"><ele>4.25</ele><time>2026-04-15T11:25:55.188Z</time></trkpt><trkpt lat="44.8381426" lon="11.664424"><ele>4.5</ele><time>2026-04-15T11:25:56.178Z</time></trkpt><trkpt lat="44.8381646" lon="11.6642207"><ele>4.75</ele><time>2026-04-15T11:25:57.188Z</time></trkpt><trkpt lat="44.8381875" lon="11.6640153"><ele>5.0</ele><time>2026-04-15T11:25:58.181Z</time></trkpt><trkpt lat="44.8382103" lon="11.6638083"><ele>5.0</ele><time>2026-04-15T11:25:59.181Z</time></trkpt><trkpt lat="44.8382327" lon="11.6636017"><ele>5.0</ele><time>2026-04-15T11:26:00.157Z</time></trkpt><trkpt lat="44.8382565" lon="11.6633942"><ele>5.0</ele><time>2026-04-15T11:26:01.154Z</time></trkpt><trkpt lat="44.838276" lon="11.6631911"><ele>5.0</ele><time>2026-04-15T11:26:02.177Z</time></trkpt><trkpt lat="44.8382906" lon="11.6629941"><ele>5.0</ele><time>2026-04-15T11:26:03.165Z</time></trkpt><trkpt lat="44.8383048" lon="11.6627979"><ele>5.0</ele><time>2026-04-15T11:26:04.181Z</time></trkpt><trkpt lat="44.8383194" lon="11.6626062"><ele>5.0</ele><time>2026-04-15T11:26:05.183Z</time></trkpt><trkpt lat="44.8383339" lon="11.6624236"><ele>5.0</ele><time>2026-04-15T11:26:06.183Z</time></trkpt><trkpt lat="44.8383464" lon="11.6622408"><ele>5.25</ele><time>2026-04-15T11:26:07.16Z</time></trkpt><trkpt lat="44.8383462" lon="11.6620634"><ele>5.5</ele><time>2026-04-15T11:26:08.163Z</time></trkpt><trkpt lat="44.8383248" lon="11.6618893"><ele>5.75</ele><time>2026-04-15T11:26:09.185Z</time></trkpt><trkpt lat="44.8382868" lon="11.6617203"><ele>6.0</ele><time>2026-04-15T11:26:10.154Z</time></trkpt><trkpt lat="44.8382312" lon="11.6615624"><ele>6.0</ele><time>2026-04-15T11:26:11.168Z</time></trkpt><trkpt lat="44.8381658" lon="11.6614024"><ele>6.0</ele><time>2026-04-15T11:26:12.176Z</time></trkpt><trkpt lat="44.8381032" lon="11.6612525"><ele>6.0</ele><time>2026-04-15T11:26:13.177Z</time></trkpt><trkpt lat="44.8380437" lon="11.661106"><ele>6.0</ele><time>2026-04-15T11:26:14.161Z</time></trkpt><trkpt lat="44.8379863" lon="11.6609651"><ele>6.0</ele><time>2026-04-15T11:26:15.176Z</time></trkpt><trkpt lat="44.8379327" lon="11.6608281"><ele>6.0</ele><time>2026-04-15T11:26:16.193Z</time></trkpt><trkpt lat="44.8378813" lon="11.6606852"><ele>6.0</ele><time>2026-04-15T11:26:17.156Z</time></trkpt><trkpt lat="44.8378262" lon="11.6605439"><ele>6.0</ele><time>2026-04-15T11:26:18.197Z</time></trkpt><trkpt lat="44.837777" lon="11.6604005"><ele>6.0</ele><time>2026-04-15T11:26:19.191Z</time></trkpt><trkpt lat="44.8377253" lon="11.660253"><ele>6.0</ele><time>2026-04-15T11:26:20.181Z</time></trkpt><trkpt lat="44.8376723" lon="11.660105"><ele>6.0</ele><time>2026-04-15T11:26:21.167Z</time></trkpt><trkpt lat="44.8376157" lon="11.6599579"><ele>6.0</ele><time>2026-04-15T11:26:22.151Z</time></trkpt><trkpt lat="44.8375631" lon="11.6598025"><ele>6.0</ele><time>2026-04-15T11:26:23.167Z</time></trkpt><trkpt lat="44.8375073" lon="11.6596441"><ele>6.0</ele><time>2026-04-15T11:26:24.166Z</time></trkpt><trkpt lat="44.837451" lon="11.6594877"><ele>6.0</ele><time>2026-04-15T11:26:25.176Z</time></trkpt><trkpt lat="44.8373968" lon="11.6593221"><ele>6.0</ele><time>2026-04-15T11:26:26.193Z</time></trkpt><trkpt lat="44.8373275" lon="11.659148"><ele>6.0</ele><time>2026-04-15T11:26:27.182Z</time></trkpt><trkpt lat="44.837256" lon="11.6589596"><ele>6.0</ele><time>2026-04-15T11:26:28.194Z</time></trkpt><trkpt lat="44.8371732" lon="11.6587283"><ele>6.0</ele><time>2026-04-15T11:26:29.181Z</time></trkpt><trkpt lat="44.837077" lon="11.6584744"><ele>5.5</ele><time>2026-04-15T11:26:30.181Z</time></trkpt><trkpt lat="44.8369742" lon="11.6582042"><ele>5.0</ele><time>2026-04-15T11:26:31.149Z</time></trkpt><trkpt lat="44.8368585" lon="11.6579169"><ele>4.0</ele><time>2026-04-15T11:26:32.196Z</time></trkpt><trkpt lat="44.8367483" lon="11.6576162"><ele>3.0</ele><time>2026-04-15T11:26:33.177Z</time></trkpt><trkpt lat="44.8366324" lon="11.6573244"><ele>3.0</ele><time>2026-04-15T11:26:34.193Z</time></trkpt><trkpt lat="44.8365197" lon="11.6570295"><ele>3.0</ele><time>2026-04-15T11:26:35.175Z</time></trkpt><trkpt lat="44.836409" lon="11.6567412"><ele>2.5</ele><time>2026-04-15T11:26:36.175Z</time></trkpt><trkpt lat="44.8362927" lon="11.6564461"><ele>2.0</ele><time>2026-04-15T11:26:37.144Z</time></trkpt><trkpt lat="44.8361795" lon="11.6561501"><ele>2.0</ele><time>2026-04-15T11:26:38.181Z</time></trkpt><trkpt lat="44.836068" lon="11.6558657"><ele>2.0</ele><time>2026-04-15T11:26:39.182Z</time></trkpt><trkpt lat="44.8359639" lon="11.6555806"><ele>2.0</ele><time>2026-04-15T11:26:40.158Z</time></trkpt><trkpt lat="44.8358631" lon="11.6552956"><ele>2.0</ele><time>2026-04-15T11:26:41.153Z</time></trkpt><trkpt lat="44.8357541" lon="11.6550134"><ele>2.0</ele><time>2026-04-15T11:26:42.142Z</time></trkpt><trkpt lat="44.8356468" lon="11.6547375"><ele>2.0</ele><time>2026-04-15T11:26:43.175Z</time></trkpt><trkpt lat="44.8355383" lon="11.6544738"><ele>2.0</ele><time>2026-04-15T11:26:44.157Z</time></trkpt><trkpt lat="44.8354249" lon="11.6542177"><ele>2.0</ele><time>2026-04-15T11:26:45.163Z</time></trkpt><trkpt lat="44.8352987" lon="11.6539696"><ele>2.0</ele><time>2026-04-15T11:26:46.167Z</time></trkpt><trkpt lat="44.8351652" lon="11.6537259"><ele>2.0</ele><time>2026-04-15T11:26:47.163Z</time></trkpt><trkpt lat="44.8350309" lon="11.6534857"><ele>3.0</ele><time>2026-04-15T11:26:48.159Z</time></trkpt><trkpt lat="44.8348925" lon="11.6532468"><ele>4.0</ele><time>2026-04-15T11:26:49.183Z</time></trkpt><trkpt lat="44.8347573" lon="11.6530066"><ele>5.0</ele><time>2026-04-15T11:26:50.177Z</time></trkpt><trkpt lat="44.8346232" lon="11.6527642"><ele>5.5</ele><time>2026-04-15T11:26:51.156Z</time></trkpt><trkpt lat="44.8344914" lon="11.6525225"><ele>6.0</ele><time>2026-04-15T11:26:52.182Z</time></trkpt><trkpt lat="44.8342294" lon="11.6520359"><ele>4.5</ele><time>2026-04-15T11:26:54.161Z</time></trkpt><trkpt lat="44.8340903" lon="11.6517849"><ele>3.0</ele><time>2026-04-15T11:26:55.18Z</time></trkpt><trkpt lat="44.8339468" lon="11.6515389"><ele>3.0</ele><time>2026-04-15T11:26:56.184Z</time></trkpt><trkpt lat="44.8338063" lon="11.6512942"><ele>3.0</ele><time>2026-04-15T11:26:57.173Z</time></trkpt><trkpt lat="44.8336602" lon="11.6510508"><ele>3.0</ele><time>2026-04-15T11:26:58.176Z</time></trkpt><trkpt lat="44.8335175" lon="11.6508071"><ele>3.0</ele><time>2026-04-15T11:26:59.158Z</time></trkpt><trkpt lat="44.8333791" lon="11.6505638"><ele>3.0</ele><time>2026-04-15T11:27:00.162Z</time></trkpt><trkpt lat="44.8332462" lon="11.6503185"><ele>3.0</ele><time>2026-04-15T11:27:01.153Z</time></trkpt><trkpt lat="44.8331087" lon="11.6500652"><ele>3.333333333333333</ele><time>2026-04-15T11:27:02.152Z</time></trkpt><trkpt lat="44.8329692" lon="11.6498185"><ele>3.6666666666666665</ele><time>2026-04-15T11:27:03.178Z</time></trkpt><trkpt lat="44.8328293" lon="11.6495737"><ele>4.0</ele><time>2026-04-15T11:27:04.144Z</time></trkpt><trkpt lat="44.8326912" lon="11.6493273"><ele>4.0</ele><time>2026-04-15T11:27:05.177Z</time></trkpt><trkpt lat="44.832561" lon="11.6490877"><ele>4.0</ele><time>2026-04-15T11:27:06.183Z</time></trkpt><trkpt lat="44.8324394" lon="11.6488498"><ele>4.0</ele><time>2026-04-15T11:27:07.167Z</time></trkpt><trkpt lat="44.8323227" lon="11.6486183"><ele>4.0</ele><time>2026-04-15T11:27:08.155Z</time></trkpt><trkpt lat="44.8322161" lon="11.6483779"><ele>4.0</ele><time>2026-04-15T11:27:09.149Z</time></trkpt><trkpt lat="44.8321231" lon="11.6481301"><ele>4.0</ele><time>2026-04-15T11:27:10.153Z</time></trkpt><trkpt lat="44.8320279" lon="11.6478956"><ele>4.333333333333333</ele><time>2026-04-15T11:27:11.175Z</time></trkpt><trkpt lat="44.8319288" lon="11.6476826"><ele>4.666666666666667</ele><time>2026-04-15T11:27:12.198Z</time></trkpt><trkpt lat="44.8318285" lon="11.6475026"><ele>5.0</ele><time>2026-04-15T11:27:13.16Z</time></trkpt><trkpt lat="44.8317256" lon="11.6473437"><ele>5.0</ele><time>2026-04-15T11:27:14.174Z</time></trkpt><trkpt lat="44.8316097" lon="11.6472"><ele>5.0</ele><time>2026-04-15T11:27:15.156Z</time></trkpt><trkpt lat="44.8314813" lon="11.6470782"><ele>5.0</ele><time>2026-04-15T11:27:16.184Z</time></trkpt><trkpt lat="44.8313479" lon="11.6469755"><ele>4.75</ele><time>2026-04-15T11:27:17.166Z</time></trkpt><trkpt lat="44.831241" lon="11.6468809"><ele>4.5</ele><time>2026-04-15T11:27:18.176Z</time></trkpt><trkpt lat="44.8311637" lon="11.6467693"><ele>4.25</ele><time>2026-04-15T11:27:19.143Z</time></trkpt><trkpt lat="44.8311122" lon="11.6466295"><ele>4.0</ele><time>2026-04-15T11:27:20.157Z</time></trkpt><trkpt lat="44.831078" lon="11.6464716"><ele>4.0</ele><time>2026-04-15T11:27:21.162Z</time></trkpt><trkpt lat="44.8310091" lon="11.646352"><ele>4.0</ele><time>2026-04-15T11:27:22.158Z</time></trkpt><trkpt lat="44.8309052" lon="11.6462428"><ele>4.0</ele><time>2026-04-15T11:27:23.141Z</time></trkpt><trkpt lat="44.830804" lon="11.6461039"><ele>4.0</ele><time>2026-04-15T11:27:24.179Z</time></trkpt><trkpt lat="44.8307361" lon="11.6459257"><ele>4.0</ele><time>2026-04-15T11:27:25.151Z</time></trkpt><trkpt lat="44.830695" lon="11.6457205"><ele>4.0</ele><time>2026-04-15T11:27:26.138Z</time></trkpt><trkpt lat="44.8306554" lon="11.6455033"><ele>4.0</ele><time>2026-04-15T11:27:27.166Z</time></trkpt><trkpt lat="44.8305957" lon="11.6452848"><ele>4.0</ele><time>2026-04-15T11:27:28.168Z</time></trkpt><trkpt lat="44.8305046" lon="11.6450756"><ele>4.0</ele><time>2026-04-15T11:27:29.148Z</time></trkpt><trkpt lat="44.8304092" lon="11.6448699"><ele>4.0</ele><time>2026-04-15T11:27:30.176Z</time></trkpt><trkpt lat="44.830324" lon="11.6446783"><ele>4.0</ele><time>2026-04-15T11:27:31.19Z</time></trkpt><trkpt lat="44.830236" lon="11.6444981"><ele>4.0</ele><time>2026-04-15T11:27:32.145Z</time></trkpt><trkpt lat="44.8301504" lon="11.644323"><ele>4.0</ele><time>2026-04-15T11:27:33.159Z</time></trkpt><trkpt lat="44.8300608" lon="11.6441519"><ele>4.0</ele><time>2026-04-15T11:27:34.176Z</time></trkpt><trkpt lat="44.8299736" lon="11.6439916"><ele>4.0</ele><time>2026-04-15T11:27:35.182Z</time></trkpt><trkpt lat="44.82989" lon="11.6438412"><ele>4.0</ele><time>2026-04-15T11:27:36.168Z</time></trkpt><trkpt lat="44.8298152" lon="11.6437037"><ele>4.0</ele><time>2026-04-15T11:27:37.164Z</time></trkpt><trkpt lat="44.8297438" lon="11.64358"><ele>4.6</ele><time>2026-04-15T11:27:38.129Z</time></trkpt><trkpt lat="44.8296774" lon="11.6434698"><ele>5.2</ele><time>2026-04-15T11:27:39.156Z</time></trkpt><trkpt lat="44.8296185" lon="11.6433656"><ele>5.799999999999999</ele><time>2026-04-15T11:27:40.174Z</time></trkpt><trkpt lat="44.8295644" lon="11.6432592"><ele>6.3999999999999995</ele><time>2026-04-15T11:27:41.191Z</time></trkpt><trkpt lat="44.8295089" lon="11.6431508"><ele>7.0</ele><time>2026-04-15T11:27:42.171Z</time></trkpt><trkpt lat="44.8294616" lon="11.6430367"><ele>7.0</ele><time>2026-04-15T11:27:43.159Z</time></trkpt><trkpt lat="44.8294104" lon="11.6429321"><ele>6.999999999999999</ele><time>2026-04-15T11:27:44.189Z</time></trkpt><trkpt lat="44.8293539" lon="11.6428349"><ele>6.999999999999999</ele><time>2026-04-15T11:27:45.16Z</time></trkpt><trkpt lat="44.8292982" lon="11.6427428"><ele>7.0</ele><time>2026-04-15T11:27:46.161Z</time></trkpt><trkpt lat="44.8292409" lon="11.6426423"><ele>7.0</ele><time>2026-04-15T11:27:47.162Z</time></trkpt><trkpt lat="44.8291787" lon="11.6425405"><ele>6.8</ele><time>2026-04-15T11:27:48.183Z</time></trkpt><trkpt lat="44.8291154" lon="11.6424439"><ele>6.6</ele><time>2026-04-15T11:27:49.162Z</time></trkpt><trkpt lat="44.8290521" lon="11.642353"><ele>6.3999999999999995</ele><time>2026-04-15T11:27:50.143Z</time></trkpt><trkpt lat="44.8289836" lon="11.6422566"><ele>6.199999999999999</ele><time>2026-04-15T11:27:51.158Z</time></trkpt><trkpt lat="44.8289138" lon="11.6421651"><ele>6.0</ele><time>2026-04-15T11:27:52.171Z</time></trkpt><trkpt lat="44.8288455" lon="11.6420774"><ele>6.0</ele><time>2026-04-15T11:27:53.18Z</time></trkpt><trkpt lat="44.8287821" lon="11.6419967"><ele>6.0</ele><time>2026-04-15T11:27:54.166Z</time></trkpt><trkpt lat="44.8287192" lon="11.6419201"><ele>6.0</ele><time>2026-04-15T11:27:55.157Z</time></trkpt><trkpt lat="44.8286545" lon="11.6418457"><ele>6.0</ele><time>2026-04-15T11:27:56.173Z</time></trkpt><trkpt lat="44.8285897" lon="11.6417748"><ele>6.0</ele><time>2026-04-15T11:27:57.144Z</time></trkpt><trkpt lat="44.8285323" lon="11.6417013"><ele>6.0</ele><time>2026-04-15T11:27:58.149Z</time></trkpt><trkpt lat="44.8284836" lon="11.6416302"><ele>6.199999999999999</ele><time>2026-04-15T11:27:59.171Z</time></trkpt><trkpt lat="44.8284051" lon="11.6414962"><ele>6.3999999999999995</ele><time>2026-04-15T11:28:01.181Z</time></trkpt><trkpt lat="44.8283799" lon="11.6413972"><ele>6.6</ele><time>2026-04-15T11:28:02.156Z</time></trkpt><trkpt lat="44.8283647" lon="11.6412988"><ele>6.8</ele><time>2026-04-15T11:28:03.148Z</time></trkpt><trkpt lat="44.828334" lon="11.6412105"><ele>7.0</ele><time>2026-04-15T11:28:04.138Z</time></trkpt><trkpt lat="44.828239" lon="11.6411278"><ele>7.0</ele><time>2026-04-15T11:28:06.157Z</time></trkpt><trkpt lat="44.8281451" lon="11.6411848"><ele>6.999999999999999</ele><time>2026-04-15T11:28:08.131Z</time></trkpt><trkpt lat="44.828047" lon="11.6412605"><ele>6.999999999999999</ele><time>2026-04-15T11:28:10.144Z</time></trkpt><trkpt lat="44.8279361" lon="11.6412999"><ele>7.0</ele><time>2026-04-15T11:28:17.15Z</time></trkpt><trkpt lat="44.8278622" lon="11.6413548"><ele>7.0</ele><time>2026-04-15T11:28:18.177Z</time></trkpt><trkpt lat="44.8277755" lon="11.6414257"><ele>7.0</ele><time>2026-04-15T11:28:19.167Z</time></trkpt><trkpt lat="44.8276762" lon="11.6415042"><ele>7.0</ele><time>2026-04-15T11:28:20.174Z</time></trkpt><trkpt lat="44.827569" lon="11.6415758"><ele>7.0</ele><time>2026-04-15T11:28:21.151Z</time></trkpt><trkpt lat="44.8274576" lon="11.6416355"><ele>7.0</ele><time>2026-04-15T11:28:22.164Z</time></trkpt><trkpt lat="44.8273454" lon="11.6416857"><ele>7.199999999999999</ele><time>2026-04-15T11:28:23.145Z</time></trkpt><trkpt lat="44.8272374" lon="11.6417228"><ele>7.3999999999999995</ele><time>2026-04-15T11:28:24.146Z</time></trkpt><trkpt lat="44.8271323" lon="11.6417263"><ele>7.6000000000000005</ele><time>2026-04-15T11:28:25.194Z</time></trkpt><trkpt lat="44.8270238" lon="11.641694"><ele>7.800000000000001</ele><time>2026-04-15T11:28:26.144Z</time></trkpt><trkpt lat="44.8269212" lon="11.64165"><ele>8.0</ele><time>2026-04-15T11:28:27.175Z</time></trkpt><trkpt lat="44.8268155" lon="11.6416204"><ele>8.0</ele><time>2026-04-15T11:28:28.145Z</time></trkpt><trkpt lat="44.8267104" lon="11.6415873"><ele>8.0</ele><time>2026-04-15T11:28:29.169Z</time></trkpt><trkpt lat="44.8266104" lon="11.6415655"><ele>8.0</ele><time>2026-04-15T11:28:30.154Z</time></trkpt><trkpt lat="44.8265117" lon="11.6415416"><ele>8.0</ele><time>2026-04-15T11:28:31.175Z</time></trkpt><trkpt lat="44.8264183" lon="11.6415193"><ele>8.0</ele><time>2026-04-15T11:28:32.163Z</time></trkpt><trkpt lat="44.826329" lon="11.6415048"><ele>8.0</ele><time>2026-04-15T11:28:33.142Z</time></trkpt><trkpt lat="44.8262434" lon="11.64148"><ele>8.0</ele><time>2026-04-15T11:28:34.17Z</time></trkpt><trkpt lat="44.8261587" lon="11.641445"><ele>8.0</ele><time>2026-04-15T11:28:35.155Z</time></trkpt><trkpt lat="44.8260629" lon="11.6414183"><ele>8.0</ele><time>2026-04-15T11:28:36.16Z</time></trkpt><trkpt lat="44.8259671" lon="11.64139"><ele>8.0</ele><time>2026-04-15T11:28:37.176Z</time></trkpt><trkpt lat="44.8258631" lon="11.6413544"><ele>8.0</ele><time>2026-04-15T11:28:38.171Z</time></trkpt><trkpt lat="44.8257541" lon="11.6413157"><ele>8.0</ele><time>2026-04-15T11:28:39.149Z</time></trkpt><trkpt lat="44.8256461" lon="11.6412853"><ele>8.0</ele><time>2026-04-15T11:28:40.171Z</time></trkpt><trkpt lat="44.8255393" lon="11.6412592"><ele>8.0</ele><time>2026-04-15T11:28:41.151Z</time></trkpt><trkpt lat="44.8254341" lon="11.6412314"><ele>8.0</ele><time>2026-04-15T11:28:42.141Z</time></trkpt><trkpt lat="44.8253306" lon="11.6412062"><ele>8.0</ele><time>2026-04-15T11:28:43.17Z</time></trkpt><trkpt lat="44.8252268" lon="11.6411759"><ele>8.0</ele><time>2026-04-15T11:28:44.136Z</time></trkpt><trkpt lat="44.8251263" lon="11.6411382"><ele>8.0</ele><time>2026-04-15T11:28:45.151Z</time></trkpt><trkpt lat="44.8250375" lon="11.6410698"><ele>8.0</ele><time>2026-04-15T11:28:46.135Z</time></trkpt><trkpt lat="44.8249782" lon="11.6409567"><ele>8.0</ele><time>2026-04-15T11:28:47.143Z</time></trkpt><trkpt lat="44.8249275" lon="11.6408314"><ele>8.4</ele><time>2026-04-15T11:28:48.14Z</time></trkpt><trkpt lat="44.8248818" lon="11.6406922"><ele>8.8</ele><time>2026-04-15T11:28:49.152Z</time></trkpt><trkpt lat="44.8248564" lon="11.6405426"><ele>9.2</ele><time>2026-04-15T11:28:50.152Z</time></trkpt><trkpt lat="44.8248534" lon="11.6403923"><ele>9.6</ele><time>2026-04-15T11:28:51.142Z</time></trkpt><trkpt lat="44.8248671" lon="11.6402526"><ele>10.0</ele><time>2026-04-15T11:28:52.173Z</time></trkpt><trkpt lat="44.8248833" lon="11.6401189"><ele>10.166666666666668</ele><time>2026-04-15T11:28:53.177Z</time></trkpt><trkpt lat="44.8249031" lon="11.6399747"><ele>10.333333333333334</ele><time>2026-04-15T11:28:54.175Z</time></trkpt><trkpt lat="44.8249194" lon="11.6398393"><ele>10.5</ele><time>2026-04-15T11:28:55.168Z</time></trkpt><trkpt lat="44.8249303" lon="11.6397323"><ele>10.666666666666666</ele><time>2026-04-15T11:28:56.176Z</time></trkpt><trkpt lat="44.8249436" lon="11.6396132"><ele>10.833333333333332</ele><time>2026-04-15T11:28:58.14Z</time></trkpt><trkpt lat="44.824947" lon="11.6395202"><ele>11.0</ele><time>2026-04-15T11:29:00.161Z</time></trkpt><trkpt lat="44.8249504" lon="11.6394151"><ele>11.0</ele><time>2026-04-15T11:29:02.166Z</time></trkpt><trkpt lat="44.8249601" lon="11.6392489"><ele>11.0</ele><time>2026-04-15T11:29:04.161Z</time></trkpt><trkpt lat="44.8249722" lon="11.6391289"><ele>11.0</ele><time>2026-04-15T11:29:05.128Z</time></trkpt><trkpt lat="44.8249739" lon="11.6389927"><ele>11.0</ele><time>2026-04-15T11:29:06.163Z</time></trkpt><trkpt lat="44.8249637" lon="11.6388507"><ele>11.0</ele><time>2026-04-15T11:29:07.161Z</time></trkpt><trkpt lat="44.8249456" lon="11.6386994"><ele>10.666666666666666</ele><time>2026-04-15T11:29:08.158Z</time></trkpt><trkpt lat="44.8249275" lon="11.6385533"><ele>10.333333333333332</ele><time>2026-04-15T11:29:09.149Z</time></trkpt><trkpt lat="44.8249087" lon="11.638435"><ele>10.0</ele><time>2026-04-15T11:29:10.138Z</time></trkpt><trkpt lat="44.824891" lon="11.6383274"><ele>9.666666666666666</ele><time>2026-04-15T11:29:11.145Z</time></trkpt><trkpt lat="44.8248707" lon="11.6382175"><ele>9.333333333333334</ele><time>2026-04-15T11:29:12.154Z</time></trkpt><trkpt lat="44.8248602" lon="11.6381086"><ele>9.0</ele><time>2026-04-15T11:29:13.134Z</time></trkpt><trkpt lat="44.8248538" lon="11.6379977"><ele>9.0</ele><time>2026-04-15T11:29:14.142Z</time></trkpt><trkpt lat="44.824851" lon="11.6378736"><ele>9.0</ele><time>2026-04-15T11:29:15.16Z</time></trkpt><trkpt lat="44.8248483" lon="11.6377525"><ele>9.0</ele><time>2026-04-15T11:29:16.168Z</time></trkpt><trkpt lat="44.8248474" lon="11.6376379"><ele>9.0</ele><time>2026-04-15T11:29:17.17Z</time></trkpt><trkpt lat="44.8248429" lon="11.637525"><ele>9.0</ele><time>2026-04-15T11:29:18.171Z</time></trkpt><trkpt lat="44.8248379" lon="11.6374198"><ele>9.0</ele><time>2026-04-15T11:29:19.162Z</time></trkpt><trkpt lat="44.8248338" lon="11.6373168"><ele>9.142857142857144</ele><time>2026-04-15T11:29:20.128Z</time></trkpt><trkpt lat="44.8248295" lon="11.6372065"><ele>9.285714285714286</ele><time>2026-04-15T11:29:21.165Z</time></trkpt><trkpt lat="44.8248256" lon="11.6371086"><ele>9.428571428571429</ele><time>2026-04-15T11:29:22.158Z</time></trkpt><trkpt lat="44.8248205" lon="11.6370054"><ele>9.571428571428573</ele><time>2026-04-15T11:29:23.155Z</time></trkpt><trkpt lat="44.8248175" lon="11.6369118"><ele>9.714285714285715</ele><time>2026-04-15T11:29:24.149Z</time></trkpt><trkpt lat="44.8248137" lon="11.6368186"><ele>9.857142857142858</ele><time>2026-04-15T11:29:25.147Z</time></trkpt><trkpt lat="44.8248127" lon="11.6367253"><ele>10.0</ele><time>2026-04-15T11:29:26.124Z</time></trkpt><trkpt lat="44.8248111" lon="11.6366318"><ele>10.0</ele><time>2026-04-15T11:29:27.158Z</time></trkpt><trkpt lat="44.8248043" lon="11.6365347"><ele>10.0</ele><time>2026-04-15T11:29:28.145Z</time></trkpt><trkpt lat="44.8248016" lon="11.6364337"><ele>10.0</ele><time>2026-04-15T11:29:29.156Z</time></trkpt><trkpt lat="44.8248028" lon="11.6363244"><ele>10.0</ele><time>2026-04-15T11:29:30.133Z</time></trkpt><trkpt lat="44.8248035" lon="11.6362037"><ele>10.0</ele><time>2026-04-15T11:29:31.137Z</time></trkpt><trkpt lat="44.8248003" lon="11.6360811"><ele>10.0</ele><time>2026-04-15T11:29:32.126Z</time></trkpt><trkpt lat="44.8247975" lon="11.6359638"><ele>10.0</ele><time>2026-04-15T11:29:33.145Z</time></trkpt><trkpt lat="44.8247961" lon="11.6358535"><ele>10.0</ele><time>2026-04-15T11:29:34.171Z</time></trkpt><trkpt lat="44.8247966" lon="11.6357513"><ele>10.0</ele><time>2026-04-15T11:29:35.167Z</time></trkpt><trkpt lat="44.8247959" lon="11.6356556"><ele>10.0</ele><time>2026-04-15T11:29:36.173Z</time></trkpt><trkpt lat="44.8247945" lon="11.6355615"><ele>10.0</ele><time>2026-04-15T11:29:37.15Z</time></trkpt><trkpt lat="44.8247857" lon="11.6353955"><ele>10.0</ele><time>2026-04-15T11:29:39.129Z</time></trkpt><trkpt lat="44.8247818" lon="11.6352582"><ele>9.666666666666668</ele><time>2026-04-15T11:29:41.167Z</time></trkpt><trkpt lat="44.8247965" lon="11.6351291"><ele>9.333333333333334</ele><time>2026-04-15T11:29:43.157Z</time></trkpt><trkpt lat="44.8248414" lon="11.6350129"><ele>9.0</ele><time>2026-04-15T11:29:45.149Z</time></trkpt><trkpt lat="44.82489" lon="11.6349523"><ele>8.666666666666666</ele><time>2026-04-15T11:29:46.149Z</time></trkpt><trkpt lat="44.8249363" lon="11.6348808"><ele>8.333333333333332</ele><time>2026-04-15T11:29:47.143Z</time></trkpt><trkpt lat="44.8249671" lon="11.6348024"><ele>8.0</ele><time>2026-04-15T11:29:48.139Z</time></trkpt><trkpt lat="44.8249414" lon="11.6346709"><ele>8.0</ele><time>2026-04-15T11:29:50.146Z</time></trkpt><trkpt lat="44.824856" lon="11.6346224"><ele>8.0</ele><time>2026-04-15T11:29:52.13Z</time></trkpt><trkpt lat="44.8247386" lon="11.6346824"><ele>8.0</ele><time>2026-04-15T11:29:54.157Z</time></trkpt><trkpt lat="44.8246644" lon="11.6347148"><ele>8.0</ele><time>2026-04-15T11:29:55.148Z</time></trkpt><trkpt lat="44.8245681" lon="11.6347283"><ele>8.0</ele><time>2026-04-15T11:29:56.133Z</time></trkpt><trkpt lat="44.8244347" lon="11.6347506"><ele>7.800000000000001</ele><time>2026-04-15T11:29:57.156Z</time></trkpt><trkpt lat="44.8243021" lon="11.6347614"><ele>7.6000000000000005</ele><time>2026-04-15T11:29:58.144Z</time></trkpt><trkpt lat="44.8241925" lon="11.6347605"><ele>7.3999999999999995</ele><time>2026-04-15T11:29:59.148Z</time></trkpt><trkpt lat="44.8241001" lon="11.6347595"><ele>7.199999999999999</ele><time>2026-04-15T11:30:00.147Z</time></trkpt><trkpt lat="44.8240066" lon="11.6347625"><ele>7.0</ele><time>2026-04-15T11:30:01.161Z</time></trkpt><trkpt lat="44.8239138" lon="11.6347587"><ele>7.0</ele><time>2026-04-15T11:30:02.12Z</time></trkpt><trkpt lat="44.8238221" lon="11.6347467"><ele>6.999999999999999</ele><time>2026-04-15T11:30:03.143Z</time></trkpt><trkpt lat="44.8237323" lon="11.6347289"><ele>6.999999999999999</ele><time>2026-04-15T11:30:04.136Z</time></trkpt><trkpt lat="44.823646" lon="11.63471"><ele>7.0</ele><time>2026-04-15T11:30:05.13Z</time></trkpt><trkpt lat="44.823556" lon="11.634706"><ele>7.0</ele><time>2026-04-15T11:30:06.153Z</time></trkpt><trkpt lat="44.8234573" lon="11.6346981"><ele>7.0</ele><time>2026-04-15T11:30:07.156Z</time></trkpt><trkpt lat="44.8233371" lon="11.6346836"><ele>7.0</ele><time>2026-04-15T11:30:08.178Z</time></trkpt><trkpt lat="44.8232031" lon="11.6346745"><ele>7.0</ele><time>2026-04-15T11:30:09.144Z</time></trkpt><trkpt lat="44.823072" lon="11.6346676"><ele>7.0</ele><time>2026-04-15T11:30:10.161Z</time></trkpt><trkpt lat="44.8229579" lon="11.6346571"><ele>7.000000000000001</ele><time>2026-04-15T11:30:11.144Z</time></trkpt><trkpt lat="44.8228673" lon="11.634634"><ele>7.0</ele><time>2026-04-15T11:30:12.137Z</time></trkpt><trkpt lat="44.8227991" lon="11.6345873"><ele>7.0</ele><time>2026-04-15T11:30:13.15Z</time></trkpt><trkpt lat="44.8227396" lon="11.6345241"><ele>7.0</ele><time>2026-04-15T11:30:14.141Z</time></trkpt><trkpt lat="44.8227041" lon="11.6344327"><ele>7.000000000000001</ele><time>2026-04-15T11:30:15.141Z</time></trkpt><trkpt lat="44.8226896" lon="11.6343192"><ele>7.0</ele><time>2026-04-15T11:30:16.158Z</time></trkpt><trkpt lat="44.8226857" lon="11.6341964"><ele>7.199999999999999</ele><time>2026-04-15T11:30:17.151Z</time></trkpt><trkpt lat="44.8226834" lon="11.6340769"><ele>7.3999999999999995</ele><time>2026-04-15T11:30:18.154Z</time></trkpt><trkpt lat="44.8226761" lon="11.6339589"><ele>7.6000000000000005</ele><time>2026-04-15T11:30:19.152Z</time></trkpt><trkpt lat="44.8226686" lon="11.6338322"><ele>7.800000000000001</ele><time>2026-04-15T11:30:20.141Z</time></trkpt><trkpt lat="44.8226601" lon="11.6336943"><ele>8.0</ele><time>2026-04-15T11:30:21.128Z</time></trkpt><trkpt lat="44.8226395" lon="11.6335551"><ele>8.4</ele><time>2026-04-15T11:30:22.148Z</time></trkpt><trkpt lat="44.8226097" lon="11.633411"><ele>8.8</ele><time>2026-04-15T11:30:23.163Z</time></trkpt><trkpt lat="44.8225933" lon="11.6332666"><ele>9.2</ele><time>2026-04-15T11:30:24.14Z</time></trkpt><trkpt lat="44.8225771" lon="11.6331187"><ele>9.6</ele><time>2026-04-15T11:30:25.142Z</time></trkpt><trkpt lat="44.8225555" lon="11.6329702"><ele>10.0</ele><time>2026-04-15T11:30:26.13Z</time></trkpt><trkpt lat="44.8225359" lon="11.6328169"><ele>10.4</ele><time>2026-04-15T11:30:27.149Z</time></trkpt><trkpt lat="44.8225224" lon="11.6326616"><ele>10.8</ele><time>2026-04-15T11:30:28.171Z</time></trkpt><trkpt lat="44.82251" lon="11.6325124"><ele>11.2</ele><time>2026-04-15T11:30:29.162Z</time></trkpt><trkpt lat="44.8225" lon="11.6323681"><ele>11.6</ele><time>2026-04-15T11:30:30.14Z</time></trkpt><trkpt lat="44.8224932" lon="11.6322172"><ele>12.0</ele><time>2026-04-15T11:30:31.154Z</time></trkpt><trkpt lat="44.8224889" lon="11.6320648"><ele>11.8</ele><time>2026-04-15T11:30:32.169Z</time></trkpt><trkpt lat="44.8224821" lon="11.6319129"><ele>11.6</ele><time>2026-04-15T11:30:33.151Z</time></trkpt><trkpt lat="44.8224782" lon="11.6317591"><ele>11.4</ele><time>2026-04-15T11:30:34.127Z</time></trkpt><trkpt lat="44.8224747" lon="11.631603"><ele>11.200000000000001</ele><time>2026-04-15T11:30:35.136Z</time></trkpt><trkpt lat="44.822473" lon="11.6314473"><ele>11.0</ele><time>2026-04-15T11:30:36.165Z</time></trkpt><trkpt lat="44.8224739" lon="11.6312856"><ele>11.0</ele><time>2026-04-15T11:30:37.133Z</time></trkpt><trkpt lat="44.8224722" lon="11.6311227"><ele>11.0</ele><time>2026-04-15T11:30:38.152Z</time></trkpt><trkpt lat="44.8224674" lon="11.6309619"><ele>11.0</ele><time>2026-04-15T11:30:39.144Z</time></trkpt><trkpt lat="44.822467" lon="11.6308036"><ele>11.0</ele><time>2026-04-15T11:30:40.15Z</time></trkpt><trkpt lat="44.8224691" lon="11.6306375"><ele>11.0</ele><time>2026-04-15T11:30:41.141Z</time></trkpt><trkpt lat="44.8224659" lon="11.6304769"><ele>11.0</ele><time>2026-04-15T11:30:42.131Z</time></trkpt><trkpt lat="44.8224658" lon="11.6303203"><ele>11.0</ele><time>2026-04-15T11:30:43.149Z</time></trkpt><trkpt lat="44.8224664" lon="11.6301652"><ele>11.0</ele><time>2026-04-15T11:30:44.141Z</time></trkpt><trkpt lat="44.8224617" lon="11.6300224"><ele>11.0</ele><time>2026-04-15T11:30:45.164Z</time></trkpt><trkpt lat="44.8224583" lon="11.6298929"><ele>11.0</ele><time>2026-04-15T11:30:46.158Z</time></trkpt><trkpt lat="44.822457" lon="11.6297636"><ele>11.0</ele><time>2026-04-15T11:30:47.148Z</time></trkpt><trkpt lat="44.8224443" lon="11.6296355"><ele>11.0</ele><time>2026-04-15T11:30:48.139Z</time></trkpt><trkpt lat="44.8224441" lon="11.629507"><ele>11.0</ele><time>2026-04-15T11:30:49.159Z</time></trkpt><trkpt lat="44.822446" lon="11.6293871"><ele>11.0</ele><time>2026-04-15T11:30:50.162Z</time></trkpt><trkpt lat="44.822448" lon="11.6292824"><ele>11.0</ele><time>2026-04-15T11:30:51.158Z</time></trkpt><trkpt lat="44.8224612" lon="11.6291912"><ele>10.666666666666666</ele><time>2026-04-15T11:30:52.158Z</time></trkpt><trkpt lat="44.822481" lon="11.629094"><ele>10.333333333333332</ele><time>2026-04-15T11:30:54.134Z</time></trkpt><trkpt lat="44.8224803" lon="11.6289997"><ele>10.0</ele><time>2026-04-15T11:30:57.158Z</time></trkpt><trkpt lat="44.822489" lon="11.628876"><ele>9.666666666666666</ele><time>2026-04-15T11:31:01.119Z</time></trkpt><trkpt lat="44.8225133" lon="11.6287104"><ele>9.333333333333334</ele><time>2026-04-15T11:31:03.178Z</time></trkpt><trkpt lat="44.8225071" lon="11.628621"><ele>9.0</ele><time>2026-04-15T11:31:04.121Z</time></trkpt><trkpt lat="44.8224247" lon="11.6285179"><ele>9.0</ele><time>2026-04-15T11:31:06.132Z</time></trkpt><trkpt lat="44.8223083" lon="11.6285506"><ele>9.0</ele><time>2026-04-15T11:31:08.119Z</time></trkpt><trkpt lat="44.8222545" lon="11.6285972"><ele>9.0</ele><time>2026-04-15T11:31:09.139Z</time></trkpt><trkpt lat="44.8221934" lon="11.6287521"><ele>9.0</ele><time>2026-04-15T11:31:11.148Z</time></trkpt><trkpt lat="44.8221411" lon="11.6289059"><ele>9.0</ele><time>2026-04-15T11:31:13.163Z</time></trkpt><trkpt lat="44.8221055" lon="11.6289977"><ele>9.0</ele><time>2026-04-15T11:31:14.154Z</time></trkpt><trkpt lat="44.8220651" lon="11.6290767"><ele>9.0</ele><time>2026-04-15T11:31:15.127Z</time></trkpt><trkpt lat="44.8220134" lon="11.6291498"><ele>9.0</ele><time>2026-04-15T11:31:16.153Z</time></trkpt><trkpt lat="44.8219033" lon="11.6292254"><ele>9.0</ele><time>2026-04-15T11:31:18.136Z</time></trkpt><trkpt lat="44.8218331" lon="11.629251"><ele>9.0</ele><time>2026-04-15T11:31:19.13Z</time></trkpt><trkpt lat="44.8217569" lon="11.6292537"><ele>9.0</ele><time>2026-04-15T11:31:20.156Z</time></trkpt><trkpt lat="44.8216883" lon="11.6292511"><ele>8.8</ele><time>2026-04-15T11:31:21.136Z</time></trkpt><trkpt lat="44.8216317" lon="11.6292105"><ele>8.600000000000001</ele><time>2026-04-15T11:31:27.146Z</time></trkpt><trkpt lat="44.8215407" lon="11.62915"><ele>8.4</ele><time>2026-04-15T11:31:30.129Z</time></trkpt><trkpt lat="44.821451" lon="11.6290892"><ele>8.200000000000001</ele><time>2026-04-15T11:31:32.162Z</time></trkpt><trkpt lat="44.8213417" lon="11.628985"><ele>8.0</ele><time>2026-04-15T11:31:34.15Z</time></trkpt><trkpt lat="44.8212583" lon="11.6289431"><ele>8.0</ele><time>2026-04-15T11:31:35.144Z</time></trkpt><trkpt lat="44.8211832" lon="11.6289014"><ele>8.0</ele><time>2026-04-15T11:31:36.148Z</time></trkpt><trkpt lat="44.8211256" lon="11.6288556"><ele>8.0</ele><time>2026-04-15T11:31:37.116Z</time></trkpt><trkpt lat="44.821068" lon="11.6287158"><ele>8.0</ele><time>2026-04-15T11:31:39.121Z</time></trkpt><trkpt lat="44.8210055" lon="11.6285873"><ele>8.0</ele><time>2026-04-15T11:31:41.152Z</time></trkpt><trkpt lat="44.8209151" lon="11.6286107"><ele>8.4</ele><time>2026-04-15T11:31:43.132Z</time></trkpt><trkpt lat="44.8208392" lon="11.6286344"><ele>8.8</ele><time>2026-04-15T11:31:44.132Z</time></trkpt><trkpt lat="44.8207526" lon="11.6286295"><ele>9.2</ele><time>2026-04-15T11:31:45.134Z</time></trkpt><trkpt lat="44.820668" lon="11.6286043"><ele>9.6</ele><time>2026-04-15T11:31:46.137Z</time></trkpt><trkpt lat="44.8205761" lon="11.6285609"><ele>10.0</ele><time>2026-04-15T11:31:47.133Z</time></trkpt><trkpt lat="44.8204651" lon="11.6285019"><ele>10.0</ele><time>2026-04-15T11:31:48.123Z</time></trkpt><trkpt lat="44.8203298" lon="11.6284262"><ele>10.0</ele><time>2026-04-15T11:31:49.12Z</time></trkpt><trkpt lat="44.820191" lon="11.6283543"><ele>10.0</ele><time>2026-04-15T11:31:50.154Z</time></trkpt><trkpt lat="44.8200384" lon="11.6282967"><ele>10.0</ele><time>2026-04-15T11:31:51.12Z</time></trkpt><trkpt lat="44.8198877" lon="11.6282476"><ele>10.0</ele><time>2026-04-15T11:31:52.11Z</time></trkpt><trkpt lat="44.8197327" lon="11.6281946"><ele>10.0</ele><time>2026-04-15T11:31:53.135Z</time></trkpt><trkpt lat="44.8195802" lon="11.628143"><ele>10.0</ele><time>2026-04-15T11:31:54.149Z</time></trkpt><trkpt lat="44.8194314" lon="11.6280893"><ele>10.0</ele><time>2026-04-15T11:31:55.149Z</time></trkpt><trkpt lat="44.819294" lon="11.6280306"><ele>10.0</ele><time>2026-04-15T11:31:56.13Z</time></trkpt><trkpt lat="44.8191494" lon="11.6280092"><ele>10.0</ele><time>2026-04-15T11:31:57.157Z</time></trkpt><trkpt lat="44.8189885" lon="11.6280248"><ele>9.333333333333334</ele><time>2026-04-15T11:31:58.124Z</time></trkpt><trkpt lat="44.8188356" lon="11.628071"><ele>8.666666666666666</ele><time>2026-04-15T11:31:59.128Z</time></trkpt><trkpt lat="44.8186889" lon="11.6281609"><ele>8.0</ele><time>2026-04-15T11:32:00.124Z</time></trkpt><trkpt lat="44.8185486" lon="11.6282628"><ele>8.333333333333332</ele><time>2026-04-15T11:32:01.148Z</time></trkpt><trkpt lat="44.8184093" lon="11.6283651"><ele>8.666666666666666</ele><time>2026-04-15T11:32:02.15Z</time></trkpt><trkpt lat="44.8182864" lon="11.628449"><ele>9.0</ele><time>2026-04-15T11:32:03.249Z</time></trkpt><trkpt lat="44.8180374" lon="11.628587"><ele>9.0</ele><time>2026-04-15T11:32:05.148Z</time></trkpt><trkpt lat="44.8179201" lon="11.6286342"><ele>9.0</ele><time>2026-04-15T11:32:06.143Z</time></trkpt><trkpt lat="44.8178178" lon="11.6286841"><ele>9.0</ele><time>2026-04-15T11:32:07.112Z</time></trkpt><trkpt lat="44.8177166" lon="11.6287379"><ele>9.0</ele><time>2026-04-15T11:32:08.138Z</time></trkpt><trkpt lat="44.817622" lon="11.628805"><ele>9.0</ele><time>2026-04-15T11:32:09.238Z</time></trkpt><trkpt lat="44.8175276" lon="11.6289043"><ele>9.25</ele><time>2026-04-15T11:32:10.233Z</time></trkpt><trkpt lat="44.8174336" lon="11.6290098"><ele>9.5</ele><time>2026-04-15T11:32:11.217Z</time></trkpt><trkpt lat="44.8173325" lon="11.6291131"><ele>9.75</ele><time>2026-04-15T11:32:12.153Z</time></trkpt><trkpt lat="44.8172274" lon="11.6292094"><ele>10.0</ele><time>2026-04-15T11:32:13.164Z</time></trkpt><trkpt lat="44.8171246" lon="11.6293075"><ele>10.0</ele><time>2026-04-15T11:32:14.246Z</time></trkpt><trkpt lat="44.8170166" lon="11.6293955"><ele>10.0</ele><time>2026-04-15T11:32:15.254Z</time></trkpt><trkpt lat="44.8169048" lon="11.6294656"><ele>10.0</ele><time>2026-04-15T11:32:16.242Z</time></trkpt><trkpt lat="44.8167916" lon="11.6295218"><ele>10.0</ele><time>2026-04-15T11:32:17.22Z</time></trkpt><trkpt lat="44.8166808" lon="11.6295691"><ele>9.6</ele><time>2026-04-15T11:32:18.209Z</time></trkpt><trkpt lat="44.8165729" lon="11.6296074"><ele>9.2</ele><time>2026-04-15T11:32:19.14Z</time></trkpt><trkpt lat="44.8164661" lon="11.6296441"><ele>8.8</ele><time>2026-04-15T11:32:20.158Z</time></trkpt><trkpt lat="44.8163613" lon="11.6296796"><ele>8.4</ele><time>2026-04-15T11:32:21.25Z</time></trkpt><trkpt lat="44.8162608" lon="11.6297196"><ele>8.0</ele><time>2026-04-15T11:32:22.228Z</time></trkpt><trkpt lat="44.8161672" lon="11.6297683"><ele>8.0</ele><time>2026-04-15T11:32:23.257Z</time></trkpt><trkpt lat="44.8160754" lon="11.6298288"><ele>8.0</ele><time>2026-04-15T11:32:24.241Z</time></trkpt><trkpt lat="44.8159912" lon="11.6299094"><ele>8.0</ele><time>2026-04-15T11:32:25.246Z</time></trkpt><trkpt lat="44.8158166" lon="11.6300567"><ele>8.0</ele><time>2026-04-15T11:32:27.124Z</time></trkpt><trkpt lat="44.8157226" lon="11.6301213"><ele>8.0</ele><time>2026-04-15T11:32:28.222Z</time></trkpt><trkpt lat="44.8156279" lon="11.6301975"><ele>8.0</ele><time>2026-04-15T11:32:29.22Z</time></trkpt><trkpt lat="44.8155389" lon="11.6302803"><ele>8.0</ele><time>2026-04-15T11:32:30.213Z</time></trkpt><trkpt lat="44.815446" lon="11.6303647"><ele>8.0</ele><time>2026-04-15T11:32:31.219Z</time></trkpt><trkpt lat="44.8153517" lon="11.6304491"><ele>8.0</ele><time>2026-04-15T11:32:32.209Z</time></trkpt><trkpt lat="44.8152606" lon="11.6305325"><ele>7.833333333333333</ele><time>2026-04-15T11:32:33.118Z</time></trkpt><trkpt lat="44.8151717" lon="11.6306123"><ele>7.666666666666666</ele><time>2026-04-15T11:32:34.214Z</time></trkpt><trkpt lat="44.81509" lon="11.6306849"><ele>7.5</ele><time>2026-04-15T11:32:35.218Z</time></trkpt><trkpt lat="44.8150185" lon="11.6307431"><ele>7.333333333333334</ele><time>2026-04-15T11:32:36.21Z</time></trkpt><trkpt lat="44.8149596" lon="11.6307796"><ele>7.166666666666667</ele><time>2026-04-15T11:32:37.204Z</time></trkpt><trkpt lat="44.8148775" lon="11.6307919"><ele>7.0</ele><time>2026-04-15T11:32:40.214Z</time></trkpt><trkpt lat="44.8147713" lon="11.630735"><ele>7.0</ele><time>2026-04-15T11:32:42.218Z</time></trkpt><trkpt lat="44.8147198" lon="11.6306611"><ele>6.999999999999999</ele><time>2026-04-15T11:32:43.201Z</time></trkpt><trkpt lat="44.8146769" lon="11.6305604"><ele>6.999999999999999</ele><time>2026-04-15T11:32:44.216Z</time></trkpt><trkpt lat="44.8146799" lon="11.6304479"><ele>7.0</ele><time>2026-04-15T11:32:45.243Z</time></trkpt><trkpt lat="44.8146976" lon="11.6303108"><ele>7.0</ele><time>2026-04-15T11:32:46.227Z</time></trkpt><trkpt lat="44.8147394" lon="11.6301517"><ele>7.0</ele><time>2026-04-15T11:32:47.231Z</time></trkpt><trkpt lat="44.8147964" lon="11.6299342"><ele>7.0</ele><time>2026-04-15T11:32:48.242Z</time></trkpt><trkpt lat="44.814862" lon="11.6296935"><ele>7.0</ele><time>2026-04-15T11:32:49.219Z</time></trkpt><trkpt lat="44.8149339" lon="11.629428"><ele>7.0</ele><time>2026-04-15T11:32:50.239Z</time></trkpt><trkpt lat="44.8150088" lon="11.6291494"><ele>7.0</ele><time>2026-04-15T11:32:51.236Z</time></trkpt><trkpt lat="44.8150756" lon="11.6288862"><ele>7.0</ele><time>2026-04-15T11:32:52.23Z</time></trkpt><trkpt lat="44.8151313" lon="11.6286485"><ele>7.25</ele><time>2026-04-15T11:32:53.217Z</time></trkpt><trkpt lat="44.8151756" lon="11.628454"><ele>7.5</ele><time>2026-04-15T11:32:54.226Z</time></trkpt><trkpt lat="44.8152218" lon="11.6282786"><ele>7.75</ele><time>2026-04-15T11:32:55.229Z</time></trkpt><trkpt lat="44.815261" lon="11.6281279"><ele>8.0</ele><time>2026-04-15T11:32:56.225Z</time></trkpt><trkpt lat="44.815302" lon="11.6280005"><ele>7.999999999999999</ele><time>2026-04-15T11:32:57.216Z</time></trkpt><trkpt lat="44.8153465" lon="11.6278923"><ele>8.0</ele><time>2026-04-15T11:32:58.212Z</time></trkpt><trkpt lat="44.8154043" lon="11.6278102"><ele>8.0</ele><time>2026-04-15T11:32:59.21Z</time></trkpt><trkpt lat="44.8154789" lon="11.6277532"><ele>8.0</ele><time>2026-04-15T11:33:00.224Z</time></trkpt><trkpt lat="44.8155456" lon="11.6277021"><ele>7.999999999999999</ele><time>2026-04-15T11:33:01.231Z</time></trkpt><trkpt lat="44.8155931" lon="11.6276368"><ele>8.0</ele><time>2026-04-15T11:33:02.219Z</time></trkpt><trkpt lat="44.8156257" lon="11.627542"><ele>8.0</ele><time>2026-04-15T11:33:03.231Z</time></trkpt><trkpt lat="44.8156239" lon="11.6274218"><ele>8.0</ele><time>2026-04-15T11:33:04.209Z</time></trkpt><trkpt lat="44.815581" lon="11.6273092"><ele>8.0</ele><time>2026-04-15T11:33:05.216Z</time></trkpt><trkpt lat="44.8155121" lon="11.6272221"><ele>8.0</ele><time>2026-04-15T11:33:06.214Z</time></trkpt><trkpt lat="44.8154209" lon="11.6272013"><ele>8.0</ele><time>2026-04-15T11:33:07.21Z</time></trkpt><trkpt lat="44.8153234" lon="11.6272519"><ele>8.0</ele><time>2026-04-15T11:33:08.225Z</time></trkpt><trkpt lat="44.8152414" lon="11.627343"><ele>8.0</ele><time>2026-04-15T11:33:09.195Z</time></trkpt><trkpt lat="44.8151673" lon="11.6274778"><ele>8.0</ele><time>2026-04-15T11:33:10.217Z</time></trkpt><trkpt lat="44.8150688" lon="11.627624"><ele>8.0</ele><time>2026-04-15T11:33:11.207Z</time></trkpt><trkpt lat="44.814943" lon="11.6277752"><ele>8.333333333333332</ele><time>2026-04-15T11:33:12.212Z</time></trkpt><trkpt lat="44.8148048" lon="11.6279272"><ele>8.666666666666666</ele><time>2026-04-15T11:33:13.212Z</time></trkpt><trkpt lat="44.8146521" lon="11.6280771"><ele>9.0</ele><time>2026-04-15T11:33:14.216Z</time></trkpt><trkpt lat="44.8144858" lon="11.6282083"><ele>8.333333333333334</ele><time>2026-04-15T11:33:15.223Z</time></trkpt><trkpt lat="44.8143134" lon="11.6283453"><ele>7.666666666666667</ele><time>2026-04-15T11:33:16.213Z</time></trkpt><trkpt lat="44.8141474" lon="11.6284725"><ele>7.0</ele><time>2026-04-15T11:33:17.249Z</time></trkpt><trkpt lat="44.8139871" lon="11.6285888"><ele>7.0</ele><time>2026-04-15T11:33:18.208Z</time></trkpt><trkpt lat="44.8138273" lon="11.6287009"><ele>7.0</ele><time>2026-04-15T11:33:19.203Z</time></trkpt><trkpt lat="44.8136747" lon="11.6288021"><ele>7.0</ele><time>2026-04-15T11:33:20.248Z</time></trkpt><trkpt lat="44.8135203" lon="11.6289032"><ele>7.0</ele><time>2026-04-15T11:33:21.237Z</time></trkpt><trkpt lat="44.8133691" lon="11.6289968"><ele>7.0</ele><time>2026-04-15T11:33:22.239Z</time></trkpt><trkpt lat="44.8132183" lon="11.6290898"><ele>7.0</ele><time>2026-04-15T11:33:23.234Z</time></trkpt><trkpt lat="44.8130545" lon="11.6291918"><ele>7.0</ele><time>2026-04-15T11:33:24.237Z</time></trkpt><trkpt lat="44.8128748" lon="11.6293103"><ele>7.0</ele><time>2026-04-15T11:33:25.204Z</time></trkpt><trkpt lat="44.812684" lon="11.6294299"><ele>7.0</ele><time>2026-04-15T11:33:26.234Z</time></trkpt><trkpt lat="44.812497" lon="11.6295422"><ele>7.0</ele><time>2026-04-15T11:33:27.236Z</time></trkpt><trkpt lat="44.8123407" lon="11.6296371"><ele>7.0</ele><time>2026-04-15T11:33:28.214Z</time></trkpt><trkpt lat="44.8121965" lon="11.6297273"><ele>7.0</ele><time>2026-04-15T11:33:29.222Z</time></trkpt><trkpt lat="44.812045" lon="11.6298222"><ele>7.0</ele><time>2026-04-15T11:33:30.217Z</time></trkpt><trkpt lat="44.8118807" lon="11.6299299"><ele>7.0</ele><time>2026-04-15T11:33:31.221Z</time></trkpt><trkpt lat="44.8116966" lon="11.6300663"><ele>7.0</ele><time>2026-04-15T11:33:32.207Z</time></trkpt><trkpt lat="44.811505" lon="11.6302185"><ele>8.0</ele><time>2026-04-15T11:33:33.229Z</time></trkpt><trkpt lat="44.8113031" lon="11.6303926"><ele>9.0</ele><time>2026-04-15T11:33:34.233Z</time></trkpt><trkpt lat="44.8111035" lon="11.6305871"><ele>8.0</ele><time>2026-04-15T11:33:35.198Z</time></trkpt><trkpt lat="44.8109057" lon="11.6307841"><ele>7.0</ele><time>2026-04-15T11:33:36.224Z</time></trkpt><trkpt lat="44.810716" lon="11.6309968"><ele>8.0</ele><time>2026-04-15T11:33:37.241Z</time></trkpt><trkpt lat="44.8105334" lon="11.6312305"><ele>9.0</ele><time>2026-04-15T11:33:38.223Z</time></trkpt><trkpt lat="44.8103711" lon="11.631467"><ele>9.0</ele><time>2026-04-15T11:33:39.203Z</time></trkpt><trkpt lat="44.8102286" lon="11.6316908"><ele>9.0</ele><time>2026-04-15T11:33:40.224Z</time></trkpt><trkpt lat="44.8101016" lon="11.6318932"><ele>9.0</ele><time>2026-04-15T11:33:41.241Z</time></trkpt><trkpt lat="44.8099711" lon="11.6320709"><ele>8.0</ele><time>2026-04-15T11:33:42.236Z</time></trkpt><trkpt lat="44.8098152" lon="11.6322251"><ele>7.0</ele><time>2026-04-15T11:33:43.234Z</time></trkpt><trkpt lat="44.8096318" lon="11.6323475"><ele>6.0</ele><time>2026-04-15T11:33:44.204Z</time></trkpt><trkpt lat="44.8094215" lon="11.6324593"><ele>5.666666666666667</ele><time>2026-04-15T11:33:45.235Z</time></trkpt><trkpt lat="44.8092096" lon="11.6325279"><ele>5.333333333333334</ele><time>2026-04-15T11:33:46.22Z</time></trkpt><trkpt lat="44.808994" lon="11.6325933"><ele>5.0</ele><time>2026-04-15T11:33:47.224Z</time></trkpt><trkpt lat="44.8087725" lon="11.6326448"><ele>5.0</ele><time>2026-04-15T11:33:48.236Z</time></trkpt><trkpt lat="44.8085428" lon="11.6326714"><ele>5.0</ele><time>2026-04-15T11:33:49.207Z</time></trkpt><trkpt lat="44.8083368" lon="11.6326683"><ele>5.0</ele><time>2026-04-15T11:33:50.205Z</time></trkpt><trkpt lat="44.8081461" lon="11.6326382"><ele>5.666666666666667</ele><time>2026-04-15T11:33:51.215Z</time></trkpt><trkpt lat="44.8079737" lon="11.6325748"><ele>6.333333333333334</ele><time>2026-04-15T11:33:52.226Z</time></trkpt><trkpt lat="44.807809" lon="11.6324393"><ele>7.0</ele><time>2026-04-15T11:33:53.213Z</time></trkpt><trkpt lat="44.8076451" lon="11.6322479"><ele>7.5</ele><time>2026-04-15T11:33:54.22Z</time></trkpt><trkpt lat="44.8074668" lon="11.6320384"><ele>8.0</ele><time>2026-04-15T11:33:55.237Z</time></trkpt><trkpt lat="44.8072943" lon="11.6318396"><ele>8.0</ele><time>2026-04-15T11:33:56.237Z</time></trkpt><trkpt lat="44.8071155" lon="11.6316468"><ele>8.0</ele><time>2026-04-15T11:33:57.239Z</time></trkpt><trkpt lat="44.8069272" lon="11.631457"><ele>8.0</ele><time>2026-04-15T11:33:58.217Z</time></trkpt><trkpt lat="44.8067293" lon="11.6312545"><ele>8.0</ele><time>2026-04-15T11:33:59.197Z</time></trkpt><trkpt lat="44.8065265" lon="11.6310334"><ele>8.0</ele><time>2026-04-15T11:34:00.23Z</time></trkpt><trkpt lat="44.8063298" lon="11.6308007"><ele>8.0</ele><time>2026-04-15T11:34:01.224Z</time></trkpt><trkpt lat="44.80613" lon="11.6305785"><ele>8.0</ele><time>2026-04-15T11:34:02.237Z</time></trkpt><trkpt lat="44.8059312" lon="11.630361"><ele>8.0</ele><time>2026-04-15T11:34:03.217Z</time></trkpt><trkpt lat="44.8057305" lon="11.6301488"><ele>7.5</ele><time>2026-04-15T11:34:04.214Z</time></trkpt><trkpt lat="44.8055203" lon="11.6299323"><ele>7.0</ele><time>2026-04-15T11:34:05.225Z</time></trkpt><trkpt lat="44.8053101" lon="11.6297106"><ele>7.0</ele><time>2026-04-15T11:34:06.212Z</time></trkpt><trkpt lat="44.8050935" lon="11.6294849"><ele>7.0</ele><time>2026-04-15T11:34:07.221Z</time></trkpt><trkpt lat="44.8048674" lon="11.6292683"><ele>7.0</ele><time>2026-04-15T11:34:08.209Z</time></trkpt><trkpt lat="44.8046274" lon="11.6290563"><ele>7.0</ele><time>2026-04-15T11:34:09.238Z</time></trkpt><trkpt lat="44.8043872" lon="11.6288455"><ele>7.5</ele><time>2026-04-15T11:34:10.216Z</time></trkpt><trkpt lat="44.8041507" lon="11.6286284"><ele>8.0</ele><time>2026-04-15T11:34:11.238Z</time></trkpt><trkpt lat="44.8039122" lon="11.6284193"><ele>8.0</ele><time>2026-04-15T11:34:12.197Z</time></trkpt><trkpt lat="44.8036768" lon="11.6282144"><ele>8.0</ele><time>2026-04-15T11:34:13.234Z</time></trkpt><trkpt lat="44.803457" lon="11.6280116"><ele>7.5</ele><time>2026-04-15T11:34:14.233Z</time></trkpt><trkpt lat="44.8032419" lon="11.6278235"><ele>7.0</ele><time>2026-04-15T11:34:15.204Z</time></trkpt><trkpt lat="44.8030384" lon="11.6276425"><ele>7.0</ele><time>2026-04-15T11:34:16.222Z</time></trkpt><trkpt lat="44.8028522" lon="11.6274454"><ele>7.0</ele><time>2026-04-15T11:34:17.218Z</time></trkpt><trkpt lat="44.8026828" lon="11.6272106"><ele>6.0</ele><time>2026-04-15T11:34:18.217Z</time></trkpt><trkpt lat="44.8025203" lon="11.6269419"><ele>5.0</ele><time>2026-04-15T11:34:19.199Z</time></trkpt><trkpt lat="44.8023533" lon="11.6266424"><ele>5.0</ele><time>2026-04-15T11:34:20.221Z</time></trkpt><trkpt lat="44.8021788" lon="11.626325"><ele>5.0</ele><time>2026-04-15T11:34:21.237Z</time></trkpt><trkpt lat="44.8020049" lon="11.6260067"><ele>4.5</ele><time>2026-04-15T11:34:22.199Z</time></trkpt><trkpt lat="44.801833" lon="11.6256879"><ele>4.0</ele><time>2026-04-15T11:34:23.214Z</time></trkpt><trkpt lat="44.801657" lon="11.6253715"><ele>4.0</ele><time>2026-04-15T11:34:24.21Z</time></trkpt><trkpt lat="44.8014848" lon="11.6250532"><ele>4.0</ele><time>2026-04-15T11:34:25.19Z</time></trkpt><trkpt lat="44.8013225" lon="11.6247219"><ele>4.5</ele><time>2026-04-15T11:34:26.236Z</time></trkpt><trkpt lat="44.8011718" lon="11.6243773"><ele>5.0</ele><time>2026-04-15T11:34:27.225Z</time></trkpt><trkpt lat="44.8010262" lon="11.6240401"><ele>5.5</ele><time>2026-04-15T11:34:28.2Z</time></trkpt><trkpt lat="44.8008996" lon="11.6237188"><ele>6.0</ele><time>2026-04-15T11:34:29.202Z</time></trkpt><trkpt lat="44.8007821" lon="11.6234273"><ele>6.0</ele><time>2026-04-15T11:34:30.223Z</time></trkpt><trkpt lat="44.8006714" lon="11.6231528"><ele>6.0</ele><time>2026-04-15T11:34:31.24Z</time></trkpt><trkpt lat="44.8005641" lon="11.6228974"><ele>6.0</ele><time>2026-04-15T11:34:32.238Z</time></trkpt><trkpt lat="44.8004513" lon="11.6226456"><ele>6.0</ele><time>2026-04-15T11:34:33.223Z</time></trkpt><trkpt lat="44.8003291" lon="11.6224039"><ele>6.0</ele><time>2026-04-15T11:34:34.202Z</time></trkpt><trkpt lat="44.8002188" lon="11.6222027"><ele>6.0</ele><time>2026-04-15T11:34:35.223Z</time></trkpt><trkpt lat="44.8001261" lon="11.6220497"><ele>6.0</ele><time>2026-04-15T11:34:36.223Z</time></trkpt><trkpt lat="44.8000519" lon="11.6219256"><ele>6.0</ele><time>2026-04-15T11:34:37.234Z</time></trkpt><trkpt lat="44.7999856" lon="11.6218092"><ele>6.0</ele><time>2026-04-15T11:34:38.221Z</time></trkpt><trkpt lat="44.7999065" lon="11.6216918"><ele>6.0</ele><time>2026-04-15T11:34:39.197Z</time></trkpt><trkpt lat="44.7998111" lon="11.6215682"><ele>6.0</ele><time>2026-04-15T11:34:40.214Z</time></trkpt><trkpt lat="44.7997058" lon="11.6214188"><ele>6.0</ele><time>2026-04-15T11:34:41.23Z</time></trkpt><trkpt lat="44.7995861" lon="11.6212598"><ele>6.0</ele><time>2026-04-15T11:34:42.222Z</time></trkpt><trkpt lat="44.7994508" lon="11.621091"><ele>6.333333333333334</ele><time>2026-04-15T11:34:43.218Z</time></trkpt><trkpt lat="44.7993014" lon="11.6209134"><ele>6.666666666666667</ele><time>2026-04-15T11:34:44.239Z</time></trkpt><trkpt lat="44.7991446" lon="11.6207302"><ele>7.0</ele><time>2026-04-15T11:34:45.213Z</time></trkpt><trkpt lat="44.7989935" lon="11.6205541"><ele>7.0</ele><time>2026-04-15T11:34:46.212Z</time></trkpt><trkpt lat="44.798847" lon="11.6203914"><ele>7.0</ele><time>2026-04-15T11:34:47.203Z</time></trkpt><trkpt lat="44.7987063" lon="11.6202413"><ele>7.0</ele><time>2026-04-15T11:34:48.214Z</time></trkpt><trkpt lat="44.7985692" lon="11.6200977"><ele>6.666666666666667</ele><time>2026-04-15T11:34:49.242Z</time></trkpt><trkpt lat="44.7984315" lon="11.6199489"><ele>6.333333333333334</ele><time>2026-04-15T11:34:50.223Z</time></trkpt><trkpt lat="44.7982913" lon="11.6197991"><ele>6.0</ele><time>2026-04-15T11:34:51.224Z</time></trkpt><trkpt lat="44.798154" lon="11.6196439"><ele>6.0</ele><time>2026-04-15T11:34:52.21Z</time></trkpt><trkpt lat="44.798017" lon="11.6194937"><ele>6.0</ele><time>2026-04-15T11:34:53.216Z</time></trkpt><trkpt lat="44.7978718" lon="11.6193603"><ele>6.0</ele><time>2026-04-15T11:34:54.213Z</time></trkpt><trkpt lat="44.7977215" lon="11.6192427"><ele>6.333333333333334</ele><time>2026-04-15T11:34:55.205Z</time></trkpt><trkpt lat="44.7975763" lon="11.6191434"><ele>6.666666666666667</ele><time>2026-04-15T11:34:56.202Z</time></trkpt><trkpt lat="44.7974357" lon="11.6190545"><ele>7.0</ele><time>2026-04-15T11:34:57.202Z</time></trkpt><trkpt lat="44.7972981" lon="11.6189852"><ele>7.0</ele><time>2026-04-15T11:34:58.199Z</time></trkpt><trkpt lat="44.797157" lon="11.6189162"><ele>7.0</ele><time>2026-04-15T11:34:59.213Z</time></trkpt><trkpt lat="44.797016" lon="11.6188507"><ele>7.0</ele><time>2026-04-15T11:35:00.214Z</time></trkpt><trkpt lat="44.7968731" lon="11.6187897"><ele>7.0</ele><time>2026-04-15T11:35:01.198Z</time></trkpt><trkpt lat="44.7967334" lon="11.6187458"><ele>7.0</ele><time>2026-04-15T11:35:02.212Z</time></trkpt><trkpt lat="44.7965921" lon="11.6187102"><ele>7.0</ele><time>2026-04-15T11:35:03.231Z</time></trkpt><trkpt lat="44.7964495" lon="11.6186874"><ele>7.0</ele><time>2026-04-15T11:35:04.215Z</time></trkpt><trkpt lat="44.7963096" lon="11.6186743"><ele>7.0</ele><time>2026-04-15T11:35:05.222Z</time></trkpt><trkpt lat="44.7960317" lon="11.6186691"><ele>6.5</ele><time>2026-04-15T11:35:07.21Z</time></trkpt><trkpt lat="44.7958869" lon="11.6186852"><ele>6.0</ele><time>2026-04-15T11:35:08.238Z</time></trkpt><trkpt lat="44.7957485" lon="11.6187136"><ele>5.5</ele><time>2026-04-15T11:35:09.225Z</time></trkpt><trkpt lat="44.7956136" lon="11.6187609"><ele>5.0</ele><time>2026-04-15T11:35:10.215Z</time></trkpt><trkpt lat="44.7954849" lon="11.6188145"><ele>5.0</ele><time>2026-04-15T11:35:11.196Z</time></trkpt><trkpt lat="44.795368" lon="11.6188702"><ele>5.0</ele><time>2026-04-15T11:35:12.203Z</time></trkpt><trkpt lat="44.7952674" lon="11.6189316"><ele>5.0</ele><time>2026-04-15T11:35:13.215Z</time></trkpt><trkpt lat="44.7951856" lon="11.6190026"><ele>5.0</ele><time>2026-04-15T11:35:14.205Z</time></trkpt><trkpt lat="44.7951214" lon="11.6190803"><ele>5.0</ele><time>2026-04-15T11:35:15.203Z</time></trkpt><trkpt lat="44.7950692" lon="11.6191451"><ele>5.166666666666667</ele><time>2026-04-15T11:35:16.216Z</time></trkpt><trkpt lat="44.7950214" lon="11.6192035"><ele>5.333333333333334</ele><time>2026-04-15T11:35:17.211Z</time></trkpt><trkpt lat="44.7949658" lon="11.6192606"><ele>5.5</ele><time>2026-04-15T11:35:18.21Z</time></trkpt><trkpt lat="44.7949021" lon="11.6193396"><ele>5.666666666666667</ele><time>2026-04-15T11:35:19.196Z</time></trkpt><trkpt lat="44.7948237" lon="11.6194167"><ele>5.833333333333333</ele><time>2026-04-15T11:35:20.221Z</time></trkpt><trkpt lat="44.7947455" lon="11.6195021"><ele>6.0</ele><time>2026-04-15T11:35:21.189Z</time></trkpt><trkpt lat="44.7946708" lon="11.6195912"><ele>6.0</ele><time>2026-04-15T11:35:22.207Z</time></trkpt><trkpt lat="44.7946005" lon="11.619667"><ele>6.0</ele><time>2026-04-15T11:35:23.208Z</time></trkpt><trkpt lat="44.7945471" lon="11.6197242"><ele>6.0</ele><time>2026-04-15T11:35:24.202Z</time></trkpt><trkpt lat="44.7944435" lon="11.6198119"><ele>6.0</ele><time>2026-04-15T11:35:26.203Z</time></trkpt><trkpt lat="44.7943743" lon="11.6198055"><ele>6.0</ele><time>2026-04-15T11:35:27.199Z</time></trkpt><trkpt lat="44.7943107" lon="11.6197311"><ele>6.0</ele><time>2026-04-15T11:35:28.232Z</time></trkpt><trkpt lat="44.7942657" lon="11.619591"><ele>6.5</ele><time>2026-04-15T11:35:29.191Z</time></trkpt><trkpt lat="44.7942085" lon="11.6194409"><ele>7.0</ele><time>2026-04-15T11:35:30.229Z</time></trkpt><trkpt lat="44.7941382" lon="11.6192889"><ele>7.5</ele><time>2026-04-15T11:35:31.225Z</time></trkpt><trkpt lat="44.7940651" lon="11.6191425"><ele>8.0</ele><time>2026-04-15T11:35:32.215Z</time></trkpt><trkpt lat="44.7939878" lon="11.6189985"><ele>8.0</ele><time>2026-04-15T11:35:33.217Z</time></trkpt><trkpt lat="44.7938921" lon="11.618849"><ele>8.0</ele><time>2026-04-15T11:35:34.216Z</time></trkpt><trkpt lat="44.7937642" lon="11.6186797"><ele>8.0</ele><time>2026-04-15T11:35:35.198Z</time></trkpt><trkpt lat="44.793631" lon="11.6184502"><ele>8.0</ele><time>2026-04-15T11:35:36.2Z</time></trkpt><trkpt lat="44.7934901" lon="11.618195"><ele>8.0</ele><time>2026-04-15T11:35:37.218Z</time></trkpt><trkpt lat="44.7933271" lon="11.6179438"><ele>7.0</ele><time>2026-04-15T11:35:38.208Z</time></trkpt><trkpt lat="44.7931432" lon="11.6177124"><ele>6.0</ele><time>2026-04-15T11:35:39.208Z</time></trkpt><trkpt lat="44.7929491" lon="11.6175142"><ele>6.0</ele><time>2026-04-15T11:35:40.21Z</time></trkpt><trkpt lat="44.7927521" lon="11.6173575"><ele>6.0</ele><time>2026-04-15T11:35:41.196Z</time></trkpt><trkpt lat="44.7925516" lon="11.6172199"><ele>6.0</ele><time>2026-04-15T11:35:42.198Z</time></trkpt><trkpt lat="44.7923448" lon="11.6171124"><ele>6.333333333333334</ele><time>2026-04-15T11:35:43.224Z</time></trkpt><trkpt lat="44.7921307" lon="11.6170459"><ele>6.666666666666667</ele><time>2026-04-15T11:35:44.217Z</time></trkpt><trkpt lat="44.7919053" lon="11.6170118"><ele>7.0</ele><time>2026-04-15T11:35:45.185Z</time></trkpt><trkpt lat="44.7916836" lon="11.6170189"><ele>7.0</ele><time>2026-04-15T11:35:46.206Z</time></trkpt><trkpt lat="44.7914615" lon="11.6170404"><ele>7.0</ele><time>2026-04-15T11:35:47.244Z</time></trkpt><trkpt lat="44.7912404" lon="11.6170516"><ele>7.0</ele><time>2026-04-15T11:35:48.226Z</time></trkpt><trkpt lat="44.7910214" lon="11.6170533"><ele>7.0</ele><time>2026-04-15T11:35:49.183Z</time></trkpt><trkpt lat="44.7908067" lon="11.6170387"><ele>7.0</ele><time>2026-04-15T11:35:50.213Z</time></trkpt><trkpt lat="44.7906023" lon="11.6169893"><ele>7.0</ele><time>2026-04-15T11:35:51.199Z</time></trkpt><trkpt lat="44.7903905" lon="11.6169105"><ele>7.0</ele><time>2026-04-15T11:35:52.221Z</time></trkpt><trkpt lat="44.7901945" lon="11.6168173"><ele>7.0</ele><time>2026-04-15T11:35:53.199Z</time></trkpt><trkpt lat="44.7900232" lon="11.6167087"><ele>7.0</ele><time>2026-04-15T11:35:54.202Z</time></trkpt><trkpt lat="44.7898696" lon="11.6165864"><ele>7.0</ele><time>2026-04-15T11:35:55.224Z</time></trkpt><trkpt lat="44.7897307" lon="11.616453"><ele>7.0</ele><time>2026-04-15T11:35:56.22Z</time></trkpt><trkpt lat="44.7896104" lon="11.6162822"><ele>7.0</ele><time>2026-04-15T11:35:57.22Z</time></trkpt><trkpt lat="44.789512" lon="11.6160795"><ele>6.666666666666667</ele><time>2026-04-15T11:35:58.201Z</time></trkpt><trkpt lat="44.7894295" lon="11.6158785"><ele>6.333333333333334</ele><time>2026-04-15T11:35:59.205Z</time></trkpt><trkpt lat="44.7893502" lon="11.6156873"><ele>6.0</ele><time>2026-04-15T11:36:00.2Z</time></trkpt><trkpt lat="44.7892775" lon="11.6155018"><ele>6.0</ele><time>2026-04-15T11:36:01.192Z</time></trkpt><trkpt lat="44.7892082" lon="11.6153212"><ele>6.0</ele><time>2026-04-15T11:36:02.211Z</time></trkpt><trkpt lat="44.7891456" lon="11.6151436"><ele>6.0</ele><time>2026-04-15T11:36:03.225Z</time></trkpt><trkpt lat="44.7890997" lon="11.6149773"><ele>6.0</ele><time>2026-04-15T11:36:04.216Z</time></trkpt><trkpt lat="44.789064" lon="11.6148347"><ele>5.857142857142857</ele><time>2026-04-15T11:36:05.216Z</time></trkpt><trkpt lat="44.7890266" lon="11.6147182"><ele>5.714285714285714</ele><time>2026-04-15T11:36:06.214Z</time></trkpt><trkpt lat="44.7889961" lon="11.614618"><ele>5.571428571428571</ele><time>2026-04-15T11:36:07.19Z</time></trkpt><trkpt lat="44.7889722" lon="11.6145341"><ele>5.428571428571429</ele><time>2026-04-15T11:36:08.214Z</time></trkpt><trkpt lat="44.7889501" lon="11.6144498"><ele>5.285714285714286</ele><time>2026-04-15T11:36:09.221Z</time></trkpt><trkpt lat="44.7889239" lon="11.6143597"><ele>5.142857142857142</ele><time>2026-04-15T11:36:10.228Z</time></trkpt><trkpt lat="44.7889004" lon="11.6142695"><ele>5.0</ele><time>2026-04-15T11:36:11.225Z</time></trkpt><trkpt lat="44.7888777" lon="11.6141791"><ele>5.0</ele><time>2026-04-15T11:36:12.205Z</time></trkpt><trkpt lat="44.7888598" lon="11.6140866"><ele>5.0</ele><time>2026-04-15T11:36:13.2Z</time></trkpt><trkpt lat="44.788836" lon="11.6139789"><ele>5.0</ele><time>2026-04-15T11:36:14.204Z</time></trkpt><trkpt lat="44.7888046" lon="11.6138547"><ele>5.0</ele><time>2026-04-15T11:36:15.228Z</time></trkpt><trkpt lat="44.7887734" lon="11.6137275"><ele>5.0</ele><time>2026-04-15T11:36:16.217Z</time></trkpt><trkpt lat="44.7887444" lon="11.6135801"><ele>5.0</ele><time>2026-04-15T11:36:17.228Z</time></trkpt><trkpt lat="44.7887046" lon="11.6134081"><ele>5.5</ele><time>2026-04-15T11:36:18.201Z</time></trkpt><trkpt lat="44.7886601" lon="11.6132154"><ele>6.0</ele><time>2026-04-15T11:36:19.221Z</time></trkpt><trkpt lat="44.7886191" lon="11.6130181"><ele>6.5</ele><time>2026-04-15T11:36:20.226Z</time></trkpt><trkpt lat="44.7885712" lon="11.612807"><ele>7.0</ele><time>2026-04-15T11:36:21.224Z</time></trkpt><trkpt lat="44.7885256" lon="11.6125534"><ele>7.0</ele><time>2026-04-15T11:36:22.221Z</time></trkpt><trkpt lat="44.7884695" lon="11.6122415"><ele>7.0</ele><time>2026-04-15T11:36:23.187Z</time></trkpt><trkpt lat="44.7884121" lon="11.6119074"><ele>6.5</ele><time>2026-04-15T11:36:24.19Z</time></trkpt><trkpt lat="44.7883474" lon="11.6115578"><ele>6.0</ele><time>2026-04-15T11:36:25.216Z</time></trkpt><trkpt lat="44.7882758" lon="11.6112134"><ele>7.5</ele><time>2026-04-15T11:36:26.215Z</time></trkpt><trkpt lat="44.7882086" lon="11.6108797"><ele>9.0</ele><time>2026-04-15T11:36:27.204Z</time></trkpt><trkpt lat="44.7881513" lon="11.6105565"><ele>9.0</ele><time>2026-04-15T11:36:28.198Z</time></trkpt><trkpt lat="44.7880848" lon="11.6102525"><ele>9.0</ele><time>2026-04-15T11:36:29.218Z</time></trkpt><trkpt lat="44.7880137" lon="11.6099524"><ele>9.0</ele><time>2026-04-15T11:36:30.213Z</time></trkpt><trkpt lat="44.787928" lon="11.6096499"><ele>9.0</ele><time>2026-04-15T11:36:31.217Z</time></trkpt><trkpt lat="44.7878345" lon="11.6093529"><ele>8.5</ele><time>2026-04-15T11:36:32.186Z</time></trkpt><trkpt lat="44.7877256" lon="11.6090562"><ele>8.0</ele><time>2026-04-15T11:36:33.208Z</time></trkpt><trkpt lat="44.7876032" lon="11.6087565"><ele>8.0</ele><time>2026-04-15T11:36:34.215Z</time></trkpt><trkpt lat="44.7874828" lon="11.6084594"><ele>8.0</ele><time>2026-04-15T11:36:35.21Z</time></trkpt><trkpt lat="44.7873592" lon="11.6081765"><ele>8.0</ele><time>2026-04-15T11:36:36.214Z</time></trkpt><trkpt lat="44.7872291" lon="11.6079002"><ele>8.0</ele><time>2026-04-15T11:36:37.218Z</time></trkpt><trkpt lat="44.7870886" lon="11.6076332"><ele>8.0</ele><time>2026-04-15T11:36:38.211Z</time></trkpt><trkpt lat="44.786939" lon="11.6073738"><ele>8.0</ele><time>2026-04-15T11:36:39.195Z</time></trkpt><trkpt lat="44.7867734" lon="11.6071284"><ele>7.0</ele><time>2026-04-15T11:36:40.215Z</time></trkpt><trkpt lat="44.7865972" lon="11.6068942"><ele>6.0</ele><time>2026-04-15T11:36:41.224Z</time></trkpt><trkpt lat="44.7864258" lon="11.6066761"><ele>6.0</ele><time>2026-04-15T11:36:42.211Z</time></trkpt><trkpt lat="44.7862976" lon="11.6064559"><ele>6.0</ele><time>2026-04-15T11:36:43.18Z</time></trkpt><trkpt lat="44.7862083" lon="11.6062344"><ele>6.0</ele><time>2026-04-15T11:36:44.214Z</time></trkpt><trkpt lat="44.78615" lon="11.6059728"><ele>6.0</ele><time>2026-04-15T11:36:45.215Z</time></trkpt><trkpt lat="44.7861163" lon="11.6056779"><ele>6.0</ele><time>2026-04-15T11:36:46.21Z</time></trkpt><trkpt lat="44.786087" lon="11.6053766"><ele>6.0</ele><time>2026-04-15T11:36:47.213Z</time></trkpt><trkpt lat="44.7860476" lon="11.6050646"><ele>7.0</ele><time>2026-04-15T11:36:48.184Z</time></trkpt><trkpt lat="44.7860053" lon="11.6047532"><ele>8.0</ele><time>2026-04-15T11:36:49.188Z</time></trkpt><trkpt lat="44.7859591" lon="11.6044372"><ele>8.0</ele><time>2026-04-15T11:36:50.2Z</time></trkpt><trkpt lat="44.7859048" lon="11.6041233"><ele>8.0</ele><time>2026-04-15T11:36:51.202Z</time></trkpt><trkpt lat="44.7858413" lon="11.6038177"><ele>9.0</ele><time>2026-04-15T11:36:52.218Z</time></trkpt><trkpt lat="44.7857662" lon="11.6035028"><ele>10.0</ele><time>2026-04-15T11:36:53.194Z</time></trkpt><trkpt lat="44.7856905" lon="11.6031873"><ele>10.0</ele><time>2026-04-15T11:36:54.214Z</time></trkpt><trkpt lat="44.7856045" lon="11.6028724"><ele>10.0</ele><time>2026-04-15T11:36:55.224Z</time></trkpt><trkpt lat="44.7855198" lon="11.6025535"><ele>9.5</ele><time>2026-04-15T11:36:56.212Z</time></trkpt><trkpt lat="44.7854291" lon="11.6022388"><ele>9.0</ele><time>2026-04-15T11:36:57.221Z</time></trkpt><trkpt lat="44.7853241" lon="11.6019296"><ele>8.5</ele><time>2026-04-15T11:36:58.216Z</time></trkpt><trkpt lat="44.7852171" lon="11.601617"><ele>8.0</ele><time>2026-04-15T11:36:59.209Z</time></trkpt><trkpt lat="44.7851017" lon="11.6013037"><ele>7.5</ele><time>2026-04-15T11:37:00.22Z</time></trkpt><trkpt lat="44.7849852" lon="11.600997"><ele>7.0</ele><time>2026-04-15T11:37:01.183Z</time></trkpt><trkpt lat="44.7848665" lon="11.6006925"><ele>7.0</ele><time>2026-04-15T11:37:02.209Z</time></trkpt><trkpt lat="44.7847485" lon="11.6003982"><ele>7.0</ele><time>2026-04-15T11:37:03.212Z</time></trkpt><trkpt lat="44.7846288" lon="11.6001082"><ele>7.0</ele><time>2026-04-15T11:37:04.211Z</time></trkpt><trkpt lat="44.7845126" lon="11.5998253"><ele>7.0</ele><time>2026-04-15T11:37:05.197Z</time></trkpt><trkpt lat="44.7843931" lon="11.5995426"><ele>7.5</ele><time>2026-04-15T11:37:06.205Z</time></trkpt><trkpt lat="44.7842795" lon="11.599262"><ele>8.0</ele><time>2026-04-15T11:37:07.201Z</time></trkpt><trkpt lat="44.7841735" lon="11.5989787"><ele>8.0</ele><time>2026-04-15T11:37:08.203Z</time></trkpt><trkpt lat="44.7840786" lon="11.5987089"><ele>8.0</ele><time>2026-04-15T11:37:09.183Z</time></trkpt><trkpt lat="44.7839924" lon="11.5984577"><ele>8.0</ele><time>2026-04-15T11:37:10.196Z</time></trkpt><trkpt lat="44.7839006" lon="11.5982242"><ele>8.0</ele><time>2026-04-15T11:37:11.202Z</time></trkpt><trkpt lat="44.7838086" lon="11.5980048"><ele>8.0</ele><time>2026-04-15T11:37:12.215Z</time></trkpt><trkpt lat="44.7837256" lon="11.5977876"><ele>8.0</ele><time>2026-04-15T11:37:13.208Z</time></trkpt><trkpt lat="44.7836518" lon="11.5975889"><ele>8.25</ele><time>2026-04-15T11:37:14.183Z</time></trkpt><trkpt lat="44.7835846" lon="11.5973972"><ele>8.5</ele><time>2026-04-15T11:37:15.206Z</time></trkpt><trkpt lat="44.783523" lon="11.5972171"><ele>8.75</ele><time>2026-04-15T11:37:16.198Z</time></trkpt><trkpt lat="44.7834643" lon="11.5970385"><ele>9.0</ele><time>2026-04-15T11:37:17.182Z</time></trkpt><trkpt lat="44.7834002" lon="11.5968592"><ele>9.0</ele><time>2026-04-15T11:37:18.201Z</time></trkpt><trkpt lat="44.7833365" lon="11.5966901"><ele>9.0</ele><time>2026-04-15T11:37:19.211Z</time></trkpt><trkpt lat="44.7832782" lon="11.5965386"><ele>9.0</ele><time>2026-04-15T11:37:20.206Z</time></trkpt><trkpt lat="44.7832193" lon="11.5963827"><ele>9.0</ele><time>2026-04-15T11:37:21.189Z</time></trkpt><trkpt lat="44.7831536" lon="11.5962195"><ele>8.666666666666666</ele><time>2026-04-15T11:37:22.211Z</time></trkpt><trkpt lat="44.7830787" lon="11.5960506"><ele>8.333333333333332</ele><time>2026-04-15T11:37:23.227Z</time></trkpt><trkpt lat="44.7829981" lon="11.5958648"><ele>8.0</ele><time>2026-04-15T11:37:24.215Z</time></trkpt><trkpt lat="44.7829054" lon="11.5956748"><ele>8.0</ele><time>2026-04-15T11:37:25.216Z</time></trkpt><trkpt lat="44.7828" lon="11.5954782"><ele>8.0</ele><time>2026-04-15T11:37:26.187Z</time></trkpt><trkpt lat="44.7826874" lon="11.5952868"><ele>8.0</ele><time>2026-04-15T11:37:27.211Z</time></trkpt><trkpt lat="44.7825591" lon="11.5951115"><ele>9.0</ele><time>2026-04-15T11:37:28.202Z</time></trkpt><trkpt lat="44.7824324" lon="11.5949427"><ele>10.0</ele><time>2026-04-15T11:37:29.221Z</time></trkpt><trkpt lat="44.7823052" lon="11.5947784"><ele>11.0</ele><time>2026-04-15T11:37:30.206Z</time></trkpt><trkpt lat="44.7821899" lon="11.5946118"><ele>11.333333333333332</ele><time>2026-04-15T11:37:31.21Z</time></trkpt><trkpt lat="44.7820769" lon="11.5944448"><ele>11.666666666666666</ele><time>2026-04-15T11:37:32.213Z</time></trkpt><trkpt lat="44.7819717" lon="11.5942703"><ele>12.0</ele><time>2026-04-15T11:37:33.208Z</time></trkpt><trkpt lat="44.7818846" lon="11.5940882"><ele>11.75</ele><time>2026-04-15T11:37:34.211Z</time></trkpt><trkpt lat="44.7818143" lon="11.5938984"><ele>11.5</ele><time>2026-04-15T11:37:35.217Z</time></trkpt><trkpt lat="44.7817574" lon="11.5937088"><ele>11.25</ele><time>2026-04-15T11:37:36.179Z</time></trkpt><trkpt lat="44.7817017" lon="11.5935138"><ele>11.0</ele><time>2026-04-15T11:37:37.208Z</time></trkpt><trkpt lat="44.7816364" lon="11.5933206"><ele>11.0</ele><time>2026-04-15T11:37:38.197Z</time></trkpt><trkpt lat="44.781562" lon="11.593134"><ele>11.0</ele><time>2026-04-15T11:37:39.193Z</time></trkpt><trkpt lat="44.7814891" lon="11.592966"><ele>11.0</ele><time>2026-04-15T11:37:40.213Z</time></trkpt><trkpt lat="44.7814054" lon="11.5928217"><ele>11.0</ele><time>2026-04-15T11:37:41.211Z</time></trkpt><trkpt lat="44.7813136" lon="11.5927051"><ele>10.75</ele><time>2026-04-15T11:37:42.21Z</time></trkpt><trkpt lat="44.7812165" lon="11.5926095"><ele>10.5</ele><time>2026-04-15T11:37:43.177Z</time></trkpt><trkpt lat="44.7811139" lon="11.5925175"><ele>10.25</ele><time>2026-04-15T11:37:44.185Z</time></trkpt><trkpt lat="44.7810081" lon="11.5924184"><ele>10.0</ele><time>2026-04-15T11:37:45.217Z</time></trkpt><trkpt lat="44.780903" lon="11.592317"><ele>10.0</ele><time>2026-04-15T11:37:46.192Z</time></trkpt><trkpt lat="44.7807987" lon="11.5922164"><ele>10.0</ele><time>2026-04-15T11:37:47.221Z</time></trkpt><trkpt lat="44.7806977" lon="11.5921143"><ele>10.0</ele><time>2026-04-15T11:37:48.201Z</time></trkpt><trkpt lat="44.7806101" lon="11.5920064"><ele>10.0</ele><time>2026-04-15T11:37:49.211Z</time></trkpt><trkpt lat="44.780536" lon="11.591889"><ele>10.0</ele><time>2026-04-15T11:37:50.174Z</time></trkpt><trkpt lat="44.780456" lon="11.5917745"><ele>10.0</ele><time>2026-04-15T11:37:51.206Z</time></trkpt><trkpt lat="44.7803627" lon="11.5916334"><ele>10.0</ele><time>2026-04-15T11:37:52.212Z</time></trkpt><trkpt lat="44.7802698" lon="11.5914796"><ele>10.0</ele><time>2026-04-15T11:37:53.207Z</time></trkpt><trkpt lat="44.7801797" lon="11.5913014"><ele>10.333333333333334</ele><time>2026-04-15T11:37:54.207Z</time></trkpt><trkpt lat="44.7800842" lon="11.5911204"><ele>10.666666666666666</ele><time>2026-04-15T11:37:55.208Z</time></trkpt><trkpt lat="44.7799958" lon="11.5909257"><ele>11.0</ele><time>2026-04-15T11:37:56.204Z</time></trkpt><trkpt lat="44.7799068" lon="11.5907167"><ele>11.0</ele><time>2026-04-15T11:37:57.174Z</time></trkpt><trkpt lat="44.7798232" lon="11.5905039"><ele>11.0</ele><time>2026-04-15T11:37:58.185Z</time></trkpt><trkpt lat="44.7797334" lon="11.5902895"><ele>11.0</ele><time>2026-04-15T11:37:59.214Z</time></trkpt><trkpt lat="44.7796461" lon="11.5900766"><ele>11.0</ele><time>2026-04-15T11:38:00.192Z</time></trkpt><trkpt lat="44.7795628" lon="11.5898589"><ele>11.0</ele><time>2026-04-15T11:38:01.222Z</time></trkpt><trkpt lat="44.7794818" lon="11.5896469"><ele>11.0</ele><time>2026-04-15T11:38:02.21Z</time></trkpt><trkpt lat="44.7794075" lon="11.5894372"><ele>11.0</ele><time>2026-04-15T11:38:03.211Z</time></trkpt><trkpt lat="44.7793323" lon="11.5892316"><ele>11.0</ele><time>2026-04-15T11:38:04.181Z</time></trkpt><trkpt lat="44.7792581" lon="11.5890259"><ele>11.0</ele><time>2026-04-15T11:38:05.199Z</time></trkpt><trkpt lat="44.7791853" lon="11.5888268"><ele>11.0</ele><time>2026-04-15T11:38:06.213Z</time></trkpt><trkpt lat="44.7791176" lon="11.5886326"><ele>11.0</ele><time>2026-04-15T11:38:07.2Z</time></trkpt><trkpt lat="44.779052" lon="11.5884315"><ele>11.0</ele><time>2026-04-15T11:38:08.205Z</time></trkpt><trkpt lat="44.7789842" lon="11.5882231"><ele>11.0</ele><time>2026-04-15T11:38:09.2Z</time></trkpt><trkpt lat="44.7789084" lon="11.5880241"><ele>11.0</ele><time>2026-04-15T11:38:10.209Z</time></trkpt><trkpt lat="44.7788357" lon="11.5878311"><ele>11.0</ele><time>2026-04-15T11:38:11.183Z</time></trkpt><trkpt lat="44.7787711" lon="11.587643"><ele>11.0</ele><time>2026-04-15T11:38:12.213Z</time></trkpt><trkpt lat="44.7787172" lon="11.5874651"><ele>11.0</ele><time>2026-04-15T11:38:13.217Z</time></trkpt><trkpt lat="44.7786617" lon="11.587303"><ele>11.0</ele><time>2026-04-15T11:38:14.198Z</time></trkpt><trkpt lat="44.7786088" lon="11.5871414"><ele>11.0</ele><time>2026-04-15T11:38:15.212Z</time></trkpt><trkpt lat="44.7785538" lon="11.5869834"><ele>11.25</ele><time>2026-04-15T11:38:16.208Z</time></trkpt><trkpt lat="44.7785043" lon="11.5868245"><ele>11.5</ele><time>2026-04-15T11:38:17.207Z</time></trkpt><trkpt lat="44.778457" lon="11.5866657"><ele>11.75</ele><time>2026-04-15T11:38:18.193Z</time></trkpt><trkpt lat="44.7784098" lon="11.5865147"><ele>12.0</ele><time>2026-04-15T11:38:19.206Z</time></trkpt><trkpt lat="44.7783745" lon="11.5863636"><ele>12.0</ele><time>2026-04-15T11:38:20.209Z</time></trkpt><trkpt lat="44.7783418" lon="11.5862098"><ele>12.0</ele><time>2026-04-15T11:38:21.198Z</time></trkpt><trkpt lat="44.7783089" lon="11.5860541"><ele>12.0</ele><time>2026-04-15T11:38:22.204Z</time></trkpt><trkpt lat="44.7782707" lon="11.5858885"><ele>12.0</ele><time>2026-04-15T11:38:23.205Z</time></trkpt><trkpt lat="44.7782302" lon="11.5857244"><ele>12.0</ele><time>2026-04-15T11:38:24.203Z</time></trkpt><trkpt lat="44.778197" lon="11.5855557"><ele>12.0</ele><time>2026-04-15T11:38:25.209Z</time></trkpt><trkpt lat="44.7781741" lon="11.5853803"><ele>12.0</ele><time>2026-04-15T11:38:26.192Z</time></trkpt><trkpt lat="44.7781507" lon="11.5852145"><ele>12.0</ele><time>2026-04-15T11:38:27.21Z</time></trkpt><trkpt lat="44.7781262" lon="11.5850496"><ele>11.8</ele><time>2026-04-15T11:38:28.21Z</time></trkpt><trkpt lat="44.7781021" lon="11.5849003"><ele>11.6</ele><time>2026-04-15T11:38:29.208Z</time></trkpt><trkpt lat="44.7780759" lon="11.5847524"><ele>11.4</ele><time>2026-04-15T11:38:30.213Z</time></trkpt><trkpt lat="44.7780297" lon="11.5846188"><ele>11.200000000000001</ele><time>2026-04-15T11:38:31.202Z</time></trkpt><trkpt lat="44.7779712" lon="11.5845179"><ele>11.0</ele><time>2026-04-15T11:38:32.21Z</time></trkpt><trkpt lat="44.7779072" lon="11.584439"><ele>11.0</ele><time>2026-04-15T11:38:33.181Z</time></trkpt><trkpt lat="44.7778376" lon="11.5843693"><ele>11.0</ele><time>2026-04-15T11:38:34.192Z</time></trkpt><trkpt lat="44.7777621" lon="11.584295"><ele>11.0</ele><time>2026-04-15T11:38:35.178Z</time></trkpt><trkpt lat="44.7776818" lon="11.5842167"><ele>11.0</ele><time>2026-04-15T11:38:36.187Z</time></trkpt><trkpt lat="44.7775973" lon="11.5841315"><ele>11.0</ele><time>2026-04-15T11:38:37.205Z</time></trkpt><trkpt lat="44.7774966" lon="11.5840431"><ele>11.0</ele><time>2026-04-15T11:38:38.2Z</time></trkpt><trkpt lat="44.7773866" lon="11.5839413"><ele>11.0</ele><time>2026-04-15T11:38:39.181Z</time></trkpt><trkpt lat="44.7772746" lon="11.5838443"><ele>11.0</ele><time>2026-04-15T11:38:40.214Z</time></trkpt><trkpt lat="44.7771512" lon="11.5837701"><ele>11.0</ele><time>2026-04-15T11:38:41.176Z</time></trkpt><trkpt lat="44.777026" lon="11.5837499"><ele>11.0</ele><time>2026-04-15T11:38:42.201Z</time></trkpt><trkpt lat="44.776895" lon="11.5837557"><ele>11.0</ele><time>2026-04-15T11:38:43.179Z</time></trkpt><trkpt lat="44.7767604" lon="11.5837593"><ele>11.0</ele><time>2026-04-15T11:38:44.202Z</time></trkpt><trkpt lat="44.776618" lon="11.5837542"><ele>11.0</ele><time>2026-04-15T11:38:45.212Z</time></trkpt><trkpt lat="44.7764863" lon="11.5837226"><ele>10.75</ele><time>2026-04-15T11:38:46.183Z</time></trkpt><trkpt lat="44.7763464" lon="11.5836803"><ele>10.5</ele><time>2026-04-15T11:38:47.189Z</time></trkpt><trkpt lat="44.7762047" lon="11.5836275"><ele>10.25</ele><time>2026-04-15T11:38:48.208Z</time></trkpt><trkpt lat="44.7760636" lon="11.5835539"><ele>10.0</ele><time>2026-04-15T11:38:49.166Z</time></trkpt><trkpt lat="44.7759251" lon="11.5834749"><ele>10.0</ele><time>2026-04-15T11:38:50.202Z</time></trkpt><trkpt lat="44.7757927" lon="11.5833952"><ele>10.0</ele><time>2026-04-15T11:38:51.168Z</time></trkpt><trkpt lat="44.7756648" lon="11.5833177"><ele>10.0</ele><time>2026-04-15T11:38:52.19Z</time></trkpt><trkpt lat="44.7755356" lon="11.583236"><ele>10.0</ele><time>2026-04-15T11:38:53.188Z</time></trkpt><trkpt lat="44.7754083" lon="11.5831474"><ele>10.0</ele><time>2026-04-15T11:38:54.197Z</time></trkpt><trkpt lat="44.775272" lon="11.583058"><ele>10.0</ele><time>2026-04-15T11:38:55.174Z</time></trkpt><trkpt lat="44.775137" lon="11.5829589"><ele>10.0</ele><time>2026-04-15T11:38:56.185Z</time></trkpt><trkpt lat="44.7750143" lon="11.5828405"><ele>10.0</ele><time>2026-04-15T11:38:57.195Z</time></trkpt><trkpt lat="44.7749006" lon="11.5827048"><ele>10.0</ele><time>2026-04-15T11:38:58.209Z</time></trkpt><trkpt lat="44.7747978" lon="11.5825564"><ele>10.0</ele><time>2026-04-15T11:38:59.213Z</time></trkpt><trkpt lat="44.7746988" lon="11.5823994"><ele>10.0</ele><time>2026-04-15T11:39:00.198Z</time></trkpt><trkpt lat="44.7746003" lon="11.582248"><ele>10.0</ele><time>2026-04-15T11:39:01.199Z</time></trkpt><trkpt lat="44.7745002" lon="11.5820958"><ele>10.0</ele><time>2026-04-15T11:39:02.198Z</time></trkpt><trkpt lat="44.7744088" lon="11.58194"><ele>10.0</ele><time>2026-04-15T11:39:03.173Z</time></trkpt><trkpt lat="44.7743179" lon="11.5817898"><ele>10.0</ele><time>2026-04-15T11:39:04.2Z</time></trkpt><trkpt lat="44.7742257" lon="11.5816432"><ele>10.0</ele><time>2026-04-15T11:39:05.191Z</time></trkpt><trkpt lat="44.774134" lon="11.5814986"><ele>10.0</ele><time>2026-04-15T11:39:06.214Z</time></trkpt><trkpt lat="44.7740429" lon="11.5813562"><ele>10.0</ele><time>2026-04-15T11:39:07.182Z</time></trkpt><trkpt lat="44.773955" lon="11.5812155"><ele>10.0</ele><time>2026-04-15T11:39:08.214Z</time></trkpt><trkpt lat="44.7738726" lon="11.5810774"><ele>10.0</ele><time>2026-04-15T11:39:09.185Z</time></trkpt><trkpt lat="44.7737897" lon="11.5809278"><ele>10.0</ele><time>2026-04-15T11:39:10.197Z</time></trkpt><trkpt lat="44.7737042" lon="11.5807587"><ele>10.0</ele><time>2026-04-15T11:39:11.17Z</time></trkpt><trkpt lat="44.7735631" lon="11.5804162"><ele>10.25</ele><time>2026-04-15T11:39:13.204Z</time></trkpt><trkpt lat="44.7734994" lon="11.5802447"><ele>10.5</ele><time>2026-04-15T11:39:14.196Z</time></trkpt><trkpt lat="44.7734382" lon="11.5800857"><ele>10.75</ele><time>2026-04-15T11:39:15.196Z</time></trkpt><trkpt lat="44.773377" lon="11.5799213"><ele>11.0</ele><time>2026-04-15T11:39:16.199Z</time></trkpt><trkpt lat="44.7733166" lon="11.5797622"><ele>11.0</ele><time>2026-04-15T11:39:17.187Z</time></trkpt><trkpt lat="44.7732638" lon="11.57962"><ele>11.0</ele><time>2026-04-15T11:39:18.183Z</time></trkpt><trkpt lat="44.7732122" lon="11.5794872"><ele>11.0</ele><time>2026-04-15T11:39:19.176Z</time></trkpt><trkpt lat="44.7731689" lon="11.5793663"><ele>11.0</ele><time>2026-04-15T11:39:20.181Z</time></trkpt><trkpt lat="44.7731272" lon="11.5792549"><ele>11.0</ele><time>2026-04-15T11:39:21.186Z</time></trkpt><trkpt lat="44.7730855" lon="11.5791508"><ele>11.166666666666666</ele><time>2026-04-15T11:39:22.196Z</time></trkpt><trkpt lat="44.7730571" lon="11.57906"><ele>11.333333333333332</ele><time>2026-04-15T11:39:23.196Z</time></trkpt><trkpt lat="44.7730243" lon="11.5789253"><ele>11.5</ele><time>2026-04-15T11:39:25.176Z</time></trkpt><trkpt lat="44.7729855" lon="11.5788047"><ele>11.666666666666666</ele><time>2026-04-15T11:39:38.19Z</time></trkpt><trkpt lat="44.7729521" lon="11.5786773"><ele>11.833333333333334</ele><time>2026-04-15T11:39:40.169Z</time></trkpt><trkpt lat="44.7729402" lon="11.5785628"><ele>12.0</ele><time>2026-04-15T11:39:42.197Z</time></trkpt><trkpt lat="44.7729108" lon="11.578449"><ele>12.0</ele><time>2026-04-15T11:39:44.178Z</time></trkpt><trkpt lat="44.7727755" lon="11.5783811"><ele>12.0</ele><time>2026-04-15T11:39:46.173Z</time></trkpt><trkpt lat="44.7726606" lon="11.5783934"><ele>12.0</ele><time>2026-04-15T11:39:47.153Z</time></trkpt><trkpt lat="44.7725155" lon="11.578423"><ele>12.0</ele><time>2026-04-15T11:39:48.21Z</time></trkpt><trkpt lat="44.7723509" lon="11.578455"><ele>11.666666666666666</ele><time>2026-04-15T11:39:49.19Z</time></trkpt><trkpt lat="44.772163" lon="11.5784887"><ele>11.333333333333332</ele><time>2026-04-15T11:39:50.186Z</time></trkpt><trkpt lat="44.7719718" lon="11.5785276"><ele>11.0</ele><time>2026-04-15T11:39:51.184Z</time></trkpt><trkpt lat="44.7717752" lon="11.578574"><ele>11.666666666666666</ele><time>2026-04-15T11:39:52.181Z</time></trkpt><trkpt lat="44.7715882" lon="11.5786145"><ele>12.333333333333332</ele><time>2026-04-15T11:39:53.182Z</time></trkpt><trkpt lat="44.7714164" lon="11.5786476"><ele>13.0</ele><time>2026-04-15T11:39:54.185Z</time></trkpt><trkpt lat="44.7712597" lon="11.578669"><ele>12.333333333333332</ele><time>2026-04-15T11:39:55.201Z</time></trkpt><trkpt lat="44.7710954" lon="11.578689"><ele>11.666666666666666</ele><time>2026-04-15T11:39:56.212Z</time></trkpt><trkpt lat="44.7709096" lon="11.5786981"><ele>11.0</ele><time>2026-04-15T11:39:57.155Z</time></trkpt><trkpt lat="44.7707207" lon="11.5787011"><ele>11.0</ele><time>2026-04-15T11:39:58.17Z</time></trkpt><trkpt lat="44.7705324" lon="11.5787158"><ele>11.0</ele><time>2026-04-15T11:39:59.196Z</time></trkpt><trkpt lat="44.7703459" lon="11.5787391"><ele>11.0</ele><time>2026-04-15T11:40:00.176Z</time></trkpt><trkpt lat="44.7701571" lon="11.5787489"><ele>11.0</ele><time>2026-04-15T11:40:01.191Z</time></trkpt><trkpt lat="44.7699792" lon="11.5787511"><ele>11.0</ele><time>2026-04-15T11:40:02.195Z</time></trkpt><trkpt lat="44.7698103" lon="11.578748"><ele>11.0</ele><time>2026-04-15T11:40:03.162Z</time></trkpt><trkpt lat="44.7696429" lon="11.5787432"><ele>11.0</ele><time>2026-04-15T11:40:04.178Z</time></trkpt><trkpt lat="44.7694772" lon="11.5787372"><ele>11.0</ele><time>2026-04-15T11:40:05.178Z</time></trkpt><trkpt lat="44.7693154" lon="11.5787305"><ele>11.0</ele><time>2026-04-15T11:40:06.183Z</time></trkpt><trkpt lat="44.7691545" lon="11.5787166"><ele>10.75</ele><time>2026-04-15T11:40:07.169Z</time></trkpt><trkpt lat="44.7689927" lon="11.5787021"><ele>10.5</ele><time>2026-04-15T11:40:08.166Z</time></trkpt><trkpt lat="44.7688332" lon="11.5786894"><ele>10.25</ele><time>2026-04-15T11:40:09.171Z</time></trkpt><trkpt lat="44.7687067" lon="11.5786794"><ele>10.0</ele><time>2026-04-15T11:40:10.167Z</time></trkpt><trkpt lat="44.7685959" lon="11.5786761"><ele>10.0</ele><time>2026-04-15T11:40:11.179Z</time></trkpt><trkpt lat="44.7684822" lon="11.5786609"><ele>10.0</ele><time>2026-04-15T11:40:12.193Z</time></trkpt><trkpt lat="44.7683476" lon="11.5786498"><ele>10.0</ele><time>2026-04-15T11:40:13.191Z</time></trkpt><trkpt lat="44.7681835" lon="11.5786504"><ele>10.0</ele><time>2026-04-15T11:40:14.197Z</time></trkpt><trkpt lat="44.7679858" lon="11.5786563"><ele>10.0</ele><time>2026-04-15T11:40:15.183Z</time></trkpt><trkpt lat="44.767758" lon="11.5786562"><ele>10.0</ele><time>2026-04-15T11:40:16.17Z</time></trkpt><trkpt lat="44.7675225" lon="11.5786472"><ele>10.0</ele><time>2026-04-15T11:40:17.196Z</time></trkpt><trkpt lat="44.7672758" lon="11.5786605"><ele>10.0</ele><time>2026-04-15T11:40:18.186Z</time></trkpt><trkpt lat="44.7670168" lon="11.578676"><ele>10.0</ele><time>2026-04-15T11:40:19.194Z</time></trkpt><trkpt lat="44.7667537" lon="11.578689"><ele>10.0</ele><time>2026-04-15T11:40:20.163Z</time></trkpt><trkpt lat="44.7665006" lon="11.5786786"><ele>9.5</ele><time>2026-04-15T11:40:21.161Z</time></trkpt><trkpt lat="44.7662511" lon="11.5786456"><ele>9.0</ele><time>2026-04-15T11:40:22.19Z</time></trkpt><trkpt lat="44.7660022" lon="11.5785936"><ele>10.0</ele><time>2026-04-15T11:40:23.168Z</time></trkpt><trkpt lat="44.7657609" lon="11.578512"><ele>11.0</ele><time>2026-04-15T11:40:24.157Z</time></trkpt><trkpt lat="44.7655369" lon="11.5784013"><ele>11.0</ele><time>2026-04-15T11:40:25.188Z</time></trkpt><trkpt lat="44.7653276" lon="11.5782322"><ele>11.0</ele><time>2026-04-15T11:40:26.221Z</time></trkpt><trkpt lat="44.7651393" lon="11.5780172"><ele>10.5</ele><time>2026-04-15T11:40:27.2Z</time></trkpt><trkpt lat="44.7649559" lon="11.5777734"><ele>10.0</ele><time>2026-04-15T11:40:28.16Z</time></trkpt><trkpt lat="44.7647621" lon="11.5775416"><ele>10.0</ele><time>2026-04-15T11:40:29.178Z</time></trkpt><trkpt lat="44.7645546" lon="11.5773445"><ele>10.0</ele><time>2026-04-15T11:40:30.197Z</time></trkpt><trkpt lat="44.7643408" lon="11.5771684"><ele>10.5</ele><time>2026-04-15T11:40:31.193Z</time></trkpt><trkpt lat="44.7641169" lon="11.5769953"><ele>11.0</ele><time>2026-04-15T11:40:32.169Z</time></trkpt><trkpt lat="44.7639066" lon="11.576851"><ele>11.0</ele><time>2026-04-15T11:40:33.168Z</time></trkpt><trkpt lat="44.7637002" lon="11.5767428"><ele>11.0</ele><time>2026-04-15T11:40:34.201Z</time></trkpt><trkpt lat="44.7634799" lon="11.5766828"><ele>11.0</ele><time>2026-04-15T11:40:35.198Z</time></trkpt><trkpt lat="44.7632577" lon="11.5766686"><ele>11.0</ele><time>2026-04-15T11:40:36.188Z</time></trkpt><trkpt lat="44.7630475" lon="11.5766161"><ele>11.0</ele><time>2026-04-15T11:40:37.183Z</time></trkpt><trkpt lat="44.7628461" lon="11.5765057"><ele>11.0</ele><time>2026-04-15T11:40:38.158Z</time></trkpt><trkpt lat="44.7626637" lon="11.5763447"><ele>10.666666666666666</ele><time>2026-04-15T11:40:39.173Z</time></trkpt><trkpt lat="44.7624807" lon="11.5761797"><ele>10.333333333333334</ele><time>2026-04-15T11:40:40.196Z</time></trkpt><trkpt lat="44.7622869" lon="11.5760442"><ele>10.0</ele><time>2026-04-15T11:40:41.193Z</time></trkpt><trkpt lat="44.7620748" lon="11.575948"><ele>10.0</ele><time>2026-04-15T11:40:42.192Z</time></trkpt><trkpt lat="44.761844" lon="11.5758924"><ele>10.0</ele><time>2026-04-15T11:40:43.179Z</time></trkpt><trkpt lat="44.7616108" lon="11.5758715"><ele>10.0</ele><time>2026-04-15T11:40:44.161Z</time></trkpt><trkpt lat="44.7613907" lon="11.575833"><ele>10.0</ele><time>2026-04-15T11:40:45.196Z</time></trkpt><trkpt lat="44.7611943" lon="11.5757867"><ele>10.0</ele><time>2026-04-15T11:40:46.193Z</time></trkpt><trkpt lat="44.7610132" lon="11.57573"><ele>9.666666666666668</ele><time>2026-04-15T11:40:47.187Z</time></trkpt><trkpt lat="44.7608435" lon="11.5756691"><ele>9.333333333333334</ele><time>2026-04-15T11:40:48.174Z</time></trkpt><trkpt lat="44.7606735" lon="11.5756198"><ele>9.0</ele><time>2026-04-15T11:40:49.166Z</time></trkpt><trkpt lat="44.7604837" lon="11.5755659"><ele>9.0</ele><time>2026-04-15T11:40:50.167Z</time></trkpt><trkpt lat="44.7602759" lon="11.5755152"><ele>9.0</ele><time>2026-04-15T11:40:51.192Z</time></trkpt><trkpt lat="44.7600328" lon="11.5754908"><ele>10.0</ele><time>2026-04-15T11:40:52.196Z</time></trkpt><trkpt lat="44.7597698" lon="11.5754818"><ele>11.0</ele><time>2026-04-15T11:40:53.2Z</time></trkpt><trkpt lat="44.7595003" lon="11.5754539"><ele>11.0</ele><time>2026-04-15T11:40:54.198Z</time></trkpt><trkpt lat="44.7592344" lon="11.5753994"><ele>11.0</ele><time>2026-04-15T11:40:55.17Z</time></trkpt><trkpt lat="44.758967" lon="11.5753331"><ele>11.0</ele><time>2026-04-15T11:40:56.175Z</time></trkpt><trkpt lat="44.7586984" lon="11.5752836"><ele>11.0</ele><time>2026-04-15T11:40:57.181Z</time></trkpt><trkpt lat="44.7584324" lon="11.5752522"><ele>11.5</ele><time>2026-04-15T11:40:58.165Z</time></trkpt><trkpt lat="44.758182" lon="11.575243"><ele>12.0</ele><time>2026-04-15T11:40:59.165Z</time></trkpt><trkpt lat="44.7579458" lon="11.575245"><ele>12.0</ele><time>2026-04-15T11:41:00.167Z</time></trkpt><trkpt lat="44.7577176" lon="11.5752576"><ele>12.0</ele><time>2026-04-15T11:41:01.189Z</time></trkpt><trkpt lat="44.7574905" lon="11.5752748"><ele>11.666666666666666</ele><time>2026-04-15T11:41:02.184Z</time></trkpt><trkpt lat="44.7572782" lon="11.575293"><ele>11.333333333333332</ele><time>2026-04-15T11:41:03.159Z</time></trkpt><trkpt lat="44.7570743" lon="11.575308"><ele>11.0</ele><time>2026-04-15T11:41:04.207Z</time></trkpt><trkpt lat="44.7568738" lon="11.575321"><ele>10.666666666666666</ele><time>2026-04-15T11:41:05.164Z</time></trkpt><trkpt lat="44.7566732" lon="11.5753292"><ele>10.333333333333334</ele><time>2026-04-15T11:41:06.189Z</time></trkpt><trkpt lat="44.756474" lon="11.5753324"><ele>10.0</ele><time>2026-04-15T11:41:07.176Z</time></trkpt><trkpt lat="44.7562776" lon="11.5753202"><ele>10.0</ele><time>2026-04-15T11:41:08.151Z</time></trkpt><trkpt lat="44.7561002" lon="11.5752991"><ele>10.0</ele><time>2026-04-15T11:41:09.19Z</time></trkpt><trkpt lat="44.7559506" lon="11.5752751"><ele>10.0</ele><time>2026-04-15T11:41:10.165Z</time></trkpt><trkpt lat="44.7558146" lon="11.5752544"><ele>10.5</ele><time>2026-04-15T11:41:11.184Z</time></trkpt><trkpt lat="44.7556842" lon="11.5752267"><ele>11.0</ele><time>2026-04-15T11:41:12.185Z</time></trkpt><trkpt lat="44.7555533" lon="11.5751934"><ele>11.5</ele><time>2026-04-15T11:41:13.184Z</time></trkpt><trkpt lat="44.755417" lon="11.5751525"><ele>12.0</ele><time>2026-04-15T11:41:14.165Z</time></trkpt><trkpt lat="44.7552764" lon="11.5751133"><ele>11.666666666666666</ele><time>2026-04-15T11:41:15.179Z</time></trkpt><trkpt lat="44.7551293" lon="11.5750847"><ele>11.333333333333332</ele><time>2026-04-15T11:41:16.154Z</time></trkpt><trkpt lat="44.7549774" lon="11.5750506"><ele>11.0</ele><time>2026-04-15T11:41:17.168Z</time></trkpt><trkpt lat="44.7548191" lon="11.5750265"><ele>11.0</ele><time>2026-04-15T11:41:18.197Z</time></trkpt><trkpt lat="44.7546564" lon="11.5750226"><ele>11.0</ele><time>2026-04-15T11:41:19.182Z</time></trkpt><trkpt lat="44.7544838" lon="11.5750261"><ele>11.0</ele><time>2026-04-15T11:41:20.17Z</time></trkpt><trkpt lat="44.7542975" lon="11.5750287"><ele>11.0</ele><time>2026-04-15T11:41:21.149Z</time></trkpt><trkpt lat="44.7541014" lon="11.5750236"><ele>11.0</ele><time>2026-04-15T11:41:22.197Z</time></trkpt><trkpt lat="44.7538907" lon="11.5750207"><ele>11.0</ele><time>2026-04-15T11:41:23.157Z</time></trkpt><trkpt lat="44.7536775" lon="11.5750179"><ele>11.0</ele><time>2026-04-15T11:41:24.203Z</time></trkpt><trkpt lat="44.7534503" lon="11.5750496"><ele>11.0</ele><time>2026-04-15T11:41:25.158Z</time></trkpt><trkpt lat="44.7532204" lon="11.5751126"><ele>11.0</ele><time>2026-04-15T11:41:26.151Z</time></trkpt><trkpt lat="44.7529818" lon="11.5752091"><ele>11.0</ele><time>2026-04-15T11:41:27.174Z</time></trkpt><trkpt lat="44.7527398" lon="11.5753201"><ele>10.5</ele><time>2026-04-15T11:41:28.193Z</time></trkpt><trkpt lat="44.7524995" lon="11.5754596"><ele>10.0</ele><time>2026-04-15T11:41:29.191Z</time></trkpt><trkpt lat="44.7522657" lon="11.5756121"><ele>10.0</ele><time>2026-04-15T11:41:30.145Z</time></trkpt><trkpt lat="44.7520429" lon="11.5757597"><ele>10.0</ele><time>2026-04-15T11:41:31.161Z</time></trkpt><trkpt lat="44.7518362" lon="11.5758863"><ele>10.0</ele><time>2026-04-15T11:41:32.178Z</time></trkpt><trkpt lat="44.7516332" lon="11.5759995"><ele>10.0</ele><time>2026-04-15T11:41:33.191Z</time></trkpt><trkpt lat="44.7514251" lon="11.5760715"><ele>10.0</ele><time>2026-04-15T11:41:34.161Z</time></trkpt><trkpt lat="44.7511959" lon="11.5760993"><ele>10.5</ele><time>2026-04-15T11:41:35.162Z</time></trkpt><trkpt lat="44.7509551" lon="11.5760756"><ele>11.0</ele><time>2026-04-15T11:41:36.228Z</time></trkpt><trkpt lat="44.750708" lon="11.5760067"><ele>11.0</ele><time>2026-04-15T11:41:37.15Z</time></trkpt><trkpt lat="44.7504579" lon="11.5759038"><ele>11.0</ele><time>2026-04-15T11:41:38.177Z</time></trkpt><trkpt lat="44.750208" lon="11.5757831"><ele>10.5</ele><time>2026-04-15T11:41:39.174Z</time></trkpt><trkpt lat="44.7499605" lon="11.575662"><ele>10.0</ele><time>2026-04-15T11:41:40.185Z</time></trkpt><trkpt lat="44.7497073" lon="11.5755576"><ele>10.0</ele><time>2026-04-15T11:41:41.16Z</time></trkpt><trkpt lat="44.7494555" lon="11.5754564"><ele>10.0</ele><time>2026-04-15T11:41:42.189Z</time></trkpt><trkpt lat="44.749215" lon="11.5753572"><ele>9.5</ele><time>2026-04-15T11:41:43.179Z</time></trkpt><trkpt lat="44.7489786" lon="11.5752642"><ele>9.0</ele><time>2026-04-15T11:41:44.148Z</time></trkpt><trkpt lat="44.7487587" lon="11.5751693"><ele>9.5</ele><time>2026-04-15T11:41:45.153Z</time></trkpt><trkpt lat="44.7485416" lon="11.575072"><ele>10.0</ele><time>2026-04-15T11:41:46.21Z</time></trkpt><trkpt lat="44.7483307" lon="11.5749666"><ele>10.0</ele><time>2026-04-15T11:41:47.186Z</time></trkpt><trkpt lat="44.7481196" lon="11.5748588"><ele>10.0</ele><time>2026-04-15T11:41:48.187Z</time></trkpt><trkpt lat="44.7479115" lon="11.5747373"><ele>10.0</ele><time>2026-04-15T11:41:49.152Z</time></trkpt><trkpt lat="44.7477048" lon="11.5746055"><ele>10.0</ele><time>2026-04-15T11:41:50.182Z</time></trkpt><trkpt lat="44.7475025" lon="11.5744589"><ele>9.5</ele><time>2026-04-15T11:41:51.178Z</time></trkpt><trkpt lat="44.7473046" lon="11.5742926"><ele>9.0</ele><time>2026-04-15T11:41:52.191Z</time></trkpt><trkpt lat="44.7470995" lon="11.5741304"><ele>9.0</ele><time>2026-04-15T11:41:53.167Z</time></trkpt><trkpt lat="44.7468825" lon="11.5739787"><ele>9.0</ele><time>2026-04-15T11:41:54.159Z</time></trkpt><trkpt lat="44.7466536" lon="11.5738526"><ele>9.0</ele><time>2026-04-15T11:41:55.179Z</time></trkpt><trkpt lat="44.746425" lon="11.5737427"><ele>9.0</ele><time>2026-04-15T11:41:56.171Z</time></trkpt><trkpt lat="44.7461889" lon="11.5736468"><ele>9.0</ele><time>2026-04-15T11:41:57.176Z</time></trkpt><trkpt lat="44.7459412" lon="11.5735774"><ele>9.0</ele><time>2026-04-15T11:41:58.147Z</time></trkpt><trkpt lat="44.7456844" lon="11.5735213"><ele>9.0</ele><time>2026-04-15T11:41:59.174Z</time></trkpt><trkpt lat="44.745421" lon="11.5734887"><ele>9.0</ele><time>2026-04-15T11:42:00.15Z</time></trkpt><trkpt lat="44.7451633" lon="11.5734642"><ele>9.5</ele><time>2026-04-15T11:42:01.168Z</time></trkpt><trkpt lat="44.7449155" lon="11.5734435"><ele>10.0</ele><time>2026-04-15T11:42:02.16Z</time></trkpt><trkpt lat="44.7446756" lon="11.5734168"><ele>10.0</ele><time>2026-04-15T11:42:03.172Z</time></trkpt><trkpt lat="44.744434" lon="11.5733675"><ele>10.0</ele><time>2026-04-15T11:42:04.185Z</time></trkpt><trkpt lat="44.744201" lon="11.5732746"><ele>9.5</ele><time>2026-04-15T11:42:05.198Z</time></trkpt><trkpt lat="44.7439913" lon="11.5731132"><ele>9.0</ele><time>2026-04-15T11:42:06.148Z</time></trkpt><trkpt lat="44.743802" lon="11.5729086"><ele>9.0</ele><time>2026-04-15T11:42:07.153Z</time></trkpt><trkpt lat="44.7436045" lon="11.572677"><ele>9.0</ele><time>2026-04-15T11:42:08.207Z</time></trkpt><trkpt lat="44.743421" lon="11.5724263"><ele>9.0</ele><time>2026-04-15T11:42:09.171Z</time></trkpt><trkpt lat="44.7432368" lon="11.5721612"><ele>9.0</ele><time>2026-04-15T11:42:10.157Z</time></trkpt><trkpt lat="44.7430528" lon="11.5718967"><ele>8.5</ele><time>2026-04-15T11:42:11.185Z</time></trkpt><trkpt lat="44.7428634" lon="11.5716278"><ele>8.0</ele><time>2026-04-15T11:42:12.178Z</time></trkpt><trkpt lat="44.7426691" lon="11.5713599"><ele>9.0</ele><time>2026-04-15T11:42:13.17Z</time></trkpt><trkpt lat="44.7424735" lon="11.5710903"><ele>10.0</ele><time>2026-04-15T11:42:14.154Z</time></trkpt><trkpt lat="44.7422758" lon="11.5708229"><ele>10.0</ele><time>2026-04-15T11:42:15.162Z</time></trkpt><trkpt lat="44.7420796" lon="11.5705596"><ele>10.0</ele><time>2026-04-15T11:42:16.184Z</time></trkpt><trkpt lat="44.7418831" lon="11.5702957"><ele>9.0</ele><time>2026-04-15T11:42:17.177Z</time></trkpt><trkpt lat="44.7416909" lon="11.5700304"><ele>8.0</ele><time>2026-04-15T11:42:18.137Z</time></trkpt><trkpt lat="44.7414975" lon="11.5697525"><ele>8.0</ele><time>2026-04-15T11:42:19.175Z</time></trkpt><trkpt lat="44.7413039" lon="11.5694654"><ele>8.0</ele><time>2026-04-15T11:42:20.176Z</time></trkpt><trkpt lat="44.7411175" lon="11.5691691"><ele>8.5</ele><time>2026-04-15T11:42:21.181Z</time></trkpt><trkpt lat="44.7409291" lon="11.568875"><ele>9.0</ele><time>2026-04-15T11:42:22.144Z</time></trkpt><trkpt lat="44.7407359" lon="11.5685878"><ele>9.0</ele><time>2026-04-15T11:42:23.178Z</time></trkpt><trkpt lat="44.740544" lon="11.568306"><ele>9.0</ele><time>2026-04-15T11:42:24.185Z</time></trkpt><trkpt lat="44.7403581" lon="11.5680279"><ele>9.0</ele><time>2026-04-15T11:42:25.174Z</time></trkpt><trkpt lat="44.7401763" lon="11.5677547"><ele>9.0</ele><time>2026-04-15T11:42:26.16Z</time></trkpt><trkpt lat="44.7400016" lon="11.5674911"><ele>9.0</ele><time>2026-04-15T11:42:27.17Z</time></trkpt><trkpt lat="44.7398345" lon="11.5672446"><ele>9.0</ele><time>2026-04-15T11:42:28.157Z</time></trkpt><trkpt lat="44.7396813" lon="11.5670109"><ele>8.666666666666666</ele><time>2026-04-15T11:42:29.17Z</time></trkpt><trkpt lat="44.7395429" lon="11.5667733"><ele>8.333333333333332</ele><time>2026-04-15T11:42:30.169Z</time></trkpt><trkpt lat="44.7394127" lon="11.5665308"><ele>8.0</ele><time>2026-04-15T11:42:31.164Z</time></trkpt><trkpt lat="44.7393217" lon="11.5662665"><ele>8.333333333333332</ele><time>2026-04-15T11:42:32.176Z</time></trkpt><trkpt lat="44.7392667" lon="11.5659851"><ele>8.666666666666666</ele><time>2026-04-15T11:42:33.156Z</time></trkpt><trkpt lat="44.7392269" lon="11.5657158"><ele>9.0</ele><time>2026-04-15T11:42:34.167Z</time></trkpt><trkpt lat="44.7391775" lon="11.5654547"><ele>9.333333333333334</ele><time>2026-04-15T11:42:35.188Z</time></trkpt><trkpt lat="44.7391258" lon="11.565207"><ele>9.666666666666668</ele><time>2026-04-15T11:42:36.146Z</time></trkpt><trkpt lat="44.7390691" lon="11.5649717"><ele>10.0</ele><time>2026-04-15T11:42:37.144Z</time></trkpt><trkpt lat="44.7390118" lon="11.5647483"><ele>10.0</ele><time>2026-04-15T11:42:38.162Z</time></trkpt><trkpt lat="44.7389401" lon="11.5645325"><ele>10.0</ele><time>2026-04-15T11:42:39.159Z</time></trkpt><trkpt lat="44.7388394" lon="11.5643423"><ele>10.0</ele><time>2026-04-15T11:42:40.174Z</time></trkpt><trkpt lat="44.7386856" lon="11.5641883"><ele>10.0</ele><time>2026-04-15T11:42:41.149Z</time></trkpt><trkpt lat="44.7385037" lon="11.5640458"><ele>10.0</ele><time>2026-04-15T11:42:42.184Z</time></trkpt><trkpt lat="44.7383273" lon="11.5639065"><ele>10.0</ele><time>2026-04-15T11:42:43.175Z</time></trkpt><trkpt lat="44.7381618" lon="11.5637606"><ele>9.666666666666668</ele><time>2026-04-15T11:42:44.179Z</time></trkpt><trkpt lat="44.7380104" lon="11.5636031"><ele>9.333333333333334</ele><time>2026-04-15T11:42:45.157Z</time></trkpt><trkpt lat="44.7378843" lon="11.5634178"><ele>9.0</ele><time>2026-04-15T11:42:46.178Z</time></trkpt><trkpt lat="44.7377658" lon="11.5632128"><ele>9.0</ele><time>2026-04-15T11:42:47.153Z</time></trkpt><trkpt lat="44.7376636" lon="11.5629864"><ele>9.0</ele><time>2026-04-15T11:42:48.173Z</time></trkpt><trkpt lat="44.7375756" lon="11.5627358"><ele>9.0</ele><time>2026-04-15T11:42:49.162Z</time></trkpt><trkpt lat="44.7374932" lon="11.5624472"><ele>9.0</ele><time>2026-04-15T11:42:50.174Z</time></trkpt><trkpt lat="44.7374088" lon="11.5621355"><ele>9.0</ele><time>2026-04-15T11:42:51.171Z</time></trkpt><trkpt lat="44.737332" lon="11.5618438"><ele>9.0</ele><time>2026-04-15T11:42:52.161Z</time></trkpt><trkpt lat="44.7372446" lon="11.5615829"><ele>9.0</ele><time>2026-04-15T11:42:53.174Z</time></trkpt><trkpt lat="44.7371348" lon="11.5613601"><ele>9.0</ele><time>2026-04-15T11:42:54.18Z</time></trkpt><trkpt lat="44.7369988" lon="11.561179"><ele>9.0</ele><time>2026-04-15T11:42:55.164Z</time></trkpt><trkpt lat="44.7368317" lon="11.5610362"><ele>9.0</ele><time>2026-04-15T11:42:56.177Z</time></trkpt><trkpt lat="44.7366671" lon="11.5609054"><ele>9.0</ele><time>2026-04-15T11:42:57.171Z</time></trkpt><trkpt lat="44.7365058" lon="11.5607816"><ele>9.0</ele><time>2026-04-15T11:42:58.181Z</time></trkpt><trkpt lat="44.7363656" lon="11.5606576"><ele>9.0</ele><time>2026-04-15T11:42:59.173Z</time></trkpt><trkpt lat="44.736226" lon="11.5605447"><ele>9.0</ele><time>2026-04-15T11:43:00.165Z</time></trkpt><trkpt lat="44.7360732" lon="11.5604457"><ele>8.666666666666666</ele><time>2026-04-15T11:43:01.166Z</time></trkpt><trkpt lat="44.7359076" lon="11.5603439"><ele>8.333333333333332</ele><time>2026-04-15T11:43:02.172Z</time></trkpt><trkpt lat="44.7357351" lon="11.5602288"><ele>8.0</ele><time>2026-04-15T11:43:03.149Z</time></trkpt><trkpt lat="44.7355434" lon="11.5601203"><ele>8.0</ele><time>2026-04-15T11:43:04.172Z</time></trkpt><trkpt lat="44.7353373" lon="11.5600144"><ele>8.0</ele><time>2026-04-15T11:43:05.154Z</time></trkpt><trkpt lat="44.7351112" lon="11.5598971"><ele>8.5</ele><time>2026-04-15T11:43:06.161Z</time></trkpt><trkpt lat="44.7348815" lon="11.5597673"><ele>9.0</ele><time>2026-04-15T11:43:07.17Z</time></trkpt><trkpt lat="44.7346757" lon="11.5596353"><ele>9.0</ele><time>2026-04-15T11:43:08.164Z</time></trkpt><trkpt lat="44.734481" lon="11.559516"><ele>9.0</ele><time>2026-04-15T11:43:09.186Z</time></trkpt><trkpt lat="44.7342917" lon="11.5594071"><ele>9.0</ele><time>2026-04-15T11:43:10.178Z</time></trkpt><trkpt lat="44.7341081" lon="11.5593029"><ele>9.333333333333334</ele><time>2026-04-15T11:43:11.175Z</time></trkpt><trkpt lat="44.7339286" lon="11.5591929"><ele>9.666666666666668</ele><time>2026-04-15T11:43:12.167Z</time></trkpt><trkpt lat="44.7337553" lon="11.5590809"><ele>10.0</ele><time>2026-04-15T11:43:13.158Z</time></trkpt><trkpt lat="44.7336087" lon="11.5589673"><ele>10.0</ele><time>2026-04-15T11:43:14.156Z</time></trkpt><trkpt lat="44.7334895" lon="11.5588243"><ele>10.0</ele><time>2026-04-15T11:43:15.201Z</time></trkpt><trkpt lat="44.7334031" lon="11.5586356"><ele>10.0</ele><time>2026-04-15T11:43:16.166Z</time></trkpt><trkpt lat="44.7333268" lon="11.5584218"><ele>10.0</ele><time>2026-04-15T11:43:17.153Z</time></trkpt><trkpt lat="44.7332556" lon="11.5582129"><ele>10.0</ele><time>2026-04-15T11:43:18.171Z</time></trkpt><trkpt lat="44.7331791" lon="11.5580242"><ele>10.0</ele><time>2026-04-15T11:43:19.157Z</time></trkpt><trkpt lat="44.7331098" lon="11.5578478"><ele>9.75</ele><time>2026-04-15T11:43:20.175Z</time></trkpt><trkpt lat="44.7330486" lon="11.5576607"><ele>9.5</ele><time>2026-04-15T11:43:21.166Z</time></trkpt><trkpt lat="44.7329854" lon="11.5574779"><ele>9.25</ele><time>2026-04-15T11:43:22.138Z</time></trkpt><trkpt lat="44.7329248" lon="11.5572943"><ele>9.0</ele><time>2026-04-15T11:43:23.163Z</time></trkpt><trkpt lat="44.7328659" lon="11.5571066"><ele>9.0</ele><time>2026-04-15T11:43:24.172Z</time></trkpt><trkpt lat="44.732804" lon="11.5569241"><ele>9.0</ele><time>2026-04-15T11:43:25.143Z</time></trkpt><trkpt lat="44.7327389" lon="11.5567446"><ele>9.0</ele><time>2026-04-15T11:43:26.148Z</time></trkpt><trkpt lat="44.7326749" lon="11.5565672"><ele>9.0</ele><time>2026-04-15T11:43:27.154Z</time></trkpt><trkpt lat="44.7326105" lon="11.5563919"><ele>9.25</ele><time>2026-04-15T11:43:28.181Z</time></trkpt><trkpt lat="44.7325443" lon="11.5562147"><ele>9.5</ele><time>2026-04-15T11:43:29.151Z</time></trkpt><trkpt lat="44.7324709" lon="11.5560345"><ele>9.75</ele><time>2026-04-15T11:43:30.182Z</time></trkpt><trkpt lat="44.7324055" lon="11.5558534"><ele>10.0</ele><time>2026-04-15T11:43:31.181Z</time></trkpt><trkpt lat="44.7323453" lon="11.5556723"><ele>10.0</ele><time>2026-04-15T11:43:32.186Z</time></trkpt><trkpt lat="44.7322697" lon="11.555493"><ele>10.0</ele><time>2026-04-15T11:43:33.157Z</time></trkpt><trkpt lat="44.7321953" lon="11.5553249"><ele>10.0</ele><time>2026-04-15T11:43:34.177Z</time></trkpt><trkpt lat="44.7321169" lon="11.5551604"><ele>10.0</ele><time>2026-04-15T11:43:35.17Z</time></trkpt><trkpt lat="44.7320387" lon="11.5549962"><ele>10.0</ele><time>2026-04-15T11:43:36.175Z</time></trkpt><trkpt lat="44.7319612" lon="11.5548367"><ele>10.0</ele><time>2026-04-15T11:43:37.161Z</time></trkpt><trkpt lat="44.7318868" lon="11.554673"><ele>10.0</ele><time>2026-04-15T11:43:38.164Z</time></trkpt><trkpt lat="44.7318122" lon="11.5545185"><ele>10.0</ele><time>2026-04-15T11:43:39.145Z</time></trkpt><trkpt lat="44.7317388" lon="11.5543595"><ele>10.0</ele><time>2026-04-15T11:43:40.181Z</time></trkpt><trkpt lat="44.7316638" lon="11.5542078"><ele>10.0</ele><time>2026-04-15T11:43:41.17Z</time></trkpt><trkpt lat="44.731585" lon="11.5540566"><ele>10.0</ele><time>2026-04-15T11:43:42.131Z</time></trkpt><trkpt lat="44.7315101" lon="11.5539097"><ele>10.0</ele><time>2026-04-15T11:43:43.161Z</time></trkpt><trkpt lat="44.731437" lon="11.55376"><ele>10.25</ele><time>2026-04-15T11:43:44.164Z</time></trkpt><trkpt lat="44.7313658" lon="11.5536121"><ele>10.5</ele><time>2026-04-15T11:43:45.166Z</time></trkpt><trkpt lat="44.7312934" lon="11.5534629"><ele>10.75</ele><time>2026-04-15T11:43:46.152Z</time></trkpt><trkpt lat="44.731223" lon="11.5533138"><ele>11.0</ele><time>2026-04-15T11:43:47.168Z</time></trkpt><trkpt lat="44.7311454" lon="11.5531625"><ele>11.0</ele><time>2026-04-15T11:43:48.172Z</time></trkpt><trkpt lat="44.7310716" lon="11.5530103"><ele>11.0</ele><time>2026-04-15T11:43:49.178Z</time></trkpt><trkpt lat="44.7309967" lon="11.5528618"><ele>11.0</ele><time>2026-04-15T11:43:50.156Z</time></trkpt><trkpt lat="44.730922" lon="11.5527097"><ele>11.0</ele><time>2026-04-15T11:43:51.172Z</time></trkpt><trkpt lat="44.7308511" lon="11.552563"><ele>10.75</ele><time>2026-04-15T11:43:52.177Z</time></trkpt><trkpt lat="44.7307782" lon="11.5524151"><ele>10.5</ele><time>2026-04-15T11:43:53.158Z</time></trkpt><trkpt lat="44.7307072" lon="11.552273"><ele>10.25</ele><time>2026-04-15T11:43:54.172Z</time></trkpt><trkpt lat="44.7306415" lon="11.5521366"><ele>10.0</ele><time>2026-04-15T11:43:55.164Z</time></trkpt><trkpt lat="44.730577" lon="11.551997"><ele>10.0</ele><time>2026-04-15T11:43:56.178Z</time></trkpt><trkpt lat="44.7305069" lon="11.5518531"><ele>10.0</ele><time>2026-04-15T11:43:57.171Z</time></trkpt><trkpt lat="44.7304391" lon="11.5517026"><ele>10.0</ele><time>2026-04-15T11:43:58.184Z</time></trkpt><trkpt lat="44.730368" lon="11.5515499"><ele>10.0</ele><time>2026-04-15T11:43:59.156Z</time></trkpt><trkpt lat="44.7302969" lon="11.5513999"><ele>10.0</ele><time>2026-04-15T11:44:00.136Z</time></trkpt><trkpt lat="44.7302258" lon="11.5512415"><ele>10.0</ele><time>2026-04-15T11:44:01.172Z</time></trkpt><trkpt lat="44.7301537" lon="11.5510844"><ele>10.0</ele><time>2026-04-15T11:44:02.165Z</time></trkpt><trkpt lat="44.7300795" lon="11.5509369"><ele>10.0</ele><time>2026-04-15T11:44:03.144Z</time></trkpt><trkpt lat="44.7300049" lon="11.5507955"><ele>10.0</ele><time>2026-04-15T11:44:04.182Z</time></trkpt><trkpt lat="44.7299247" lon="11.550648"><ele>10.0</ele><time>2026-04-15T11:44:05.165Z</time></trkpt><trkpt lat="44.7298415" lon="11.550497"><ele>10.0</ele><time>2026-04-15T11:44:06.176Z</time></trkpt><trkpt lat="44.7297521" lon="11.5503526"><ele>10.0</ele><time>2026-04-15T11:44:07.159Z</time></trkpt><trkpt lat="44.7296457" lon="11.5502256"><ele>9.75</ele><time>2026-04-15T11:44:08.145Z</time></trkpt><trkpt lat="44.7295234" lon="11.550113"><ele>9.5</ele><time>2026-04-15T11:44:09.171Z</time></trkpt><trkpt lat="44.7293999" lon="11.5500036"><ele>9.25</ele><time>2026-04-15T11:44:10.171Z</time></trkpt><trkpt lat="44.7292805" lon="11.5498938"><ele>9.0</ele><time>2026-04-15T11:44:11.166Z</time></trkpt><trkpt lat="44.7291658" lon="11.5497858"><ele>9.0</ele><time>2026-04-15T11:44:12.145Z</time></trkpt><trkpt lat="44.729052" lon="11.5496762"><ele>9.0</ele><time>2026-04-15T11:44:13.154Z</time></trkpt><trkpt lat="44.7289359" lon="11.5495692"><ele>9.0</ele><time>2026-04-15T11:44:14.162Z</time></trkpt><trkpt lat="44.7288181" lon="11.5494593"><ele>9.0</ele><time>2026-04-15T11:44:15.15Z</time></trkpt><trkpt lat="44.7286972" lon="11.5493484"><ele>9.0</ele><time>2026-04-15T11:44:16.171Z</time></trkpt><trkpt lat="44.7285792" lon="11.5492371"><ele>9.0</ele><time>2026-04-15T11:44:17.161Z</time></trkpt><trkpt lat="44.7284574" lon="11.5491222"><ele>9.0</ele><time>2026-04-15T11:44:18.168Z</time></trkpt><trkpt lat="44.7283313" lon="11.5490093"><ele>9.0</ele><time>2026-04-15T11:44:19.164Z</time></trkpt><trkpt lat="44.728202" lon="11.5488898"><ele>9.333333333333334</ele><time>2026-04-15T11:44:20.175Z</time></trkpt><trkpt lat="44.7280536" lon="11.5487615"><ele>9.666666666666668</ele><time>2026-04-15T11:44:21.168Z</time></trkpt><trkpt lat="44.7278859" lon="11.548606"><ele>10.0</ele><time>2026-04-15T11:44:22.128Z</time></trkpt><trkpt lat="44.7277139" lon="11.548442"><ele>10.333333333333334</ele><time>2026-04-15T11:44:23.163Z</time></trkpt><trkpt lat="44.7275653" lon="11.5482866"><ele>10.666666666666666</ele><time>2026-04-15T11:44:24.157Z</time></trkpt><trkpt lat="44.7274293" lon="11.5481389"><ele>11.0</ele><time>2026-04-15T11:44:25.163Z</time></trkpt><trkpt lat="44.7273022" lon="11.5480035"><ele>10.5</ele><time>2026-04-15T11:44:26.149Z</time></trkpt><trkpt lat="44.7271655" lon="11.5478633"><ele>10.0</ele><time>2026-04-15T11:44:27.153Z</time></trkpt><trkpt lat="44.7268159" lon="11.5475451"><ele>9.333333333333334</ele><time>2026-04-15T11:44:29.167Z</time></trkpt><trkpt lat="44.7266293" lon="11.5473752"><ele>8.666666666666666</ele><time>2026-04-15T11:44:30.174Z</time></trkpt><trkpt lat="44.7264545" lon="11.547227"><ele>8.0</ele><time>2026-04-15T11:44:31.17Z</time></trkpt><trkpt lat="44.7262897" lon="11.5470899"><ele>8.666666666666666</ele><time>2026-04-15T11:44:32.139Z</time></trkpt><trkpt lat="44.7261356" lon="11.5469536"><ele>9.333333333333334</ele><time>2026-04-15T11:44:33.141Z</time></trkpt><trkpt lat="44.7259828" lon="11.5468226"><ele>10.0</ele><time>2026-04-15T11:44:34.158Z</time></trkpt><trkpt lat="44.7258305" lon="11.5467052"><ele>10.0</ele><time>2026-04-15T11:44:35.14Z</time></trkpt><trkpt lat="44.7256933" lon="11.5465917"><ele>10.0</ele><time>2026-04-15T11:44:36.177Z</time></trkpt><trkpt lat="44.7255664" lon="11.5464835"><ele>10.0</ele><time>2026-04-15T11:44:37.164Z</time></trkpt><trkpt lat="44.7254475" lon="11.5463769"><ele>10.0</ele><time>2026-04-15T11:44:38.158Z</time></trkpt><trkpt lat="44.7253326" lon="11.5462731"><ele>11.25</ele><time>2026-04-15T11:44:39.163Z</time></trkpt><trkpt lat="44.7252133" lon="11.5461682"><ele>12.5</ele><time>2026-04-15T11:44:40.176Z</time></trkpt><trkpt lat="44.7250957" lon="11.546067"><ele>13.75</ele><time>2026-04-15T11:44:41.136Z</time></trkpt><trkpt lat="44.7249757" lon="11.5459599"><ele>15.0</ele><time>2026-04-15T11:44:42.161Z</time></trkpt><trkpt lat="44.7248611" lon="11.5458561"><ele>15.0</ele><time>2026-04-15T11:44:43.16Z</time></trkpt><trkpt lat="44.724745" lon="11.5457581"><ele>15.0</ele><time>2026-04-15T11:44:44.181Z</time></trkpt><trkpt lat="44.7246188" lon="11.545665"><ele>15.0</ele><time>2026-04-15T11:44:45.183Z</time></trkpt><trkpt lat="44.7244908" lon="11.5455768"><ele>15.0</ele><time>2026-04-15T11:44:46.167Z</time></trkpt><trkpt lat="44.7243665" lon="11.5454976"><ele>14.75</ele><time>2026-04-15T11:44:47.137Z</time></trkpt><trkpt lat="44.7242443" lon="11.5454153"><ele>14.5</ele><time>2026-04-15T11:44:48.169Z</time></trkpt><trkpt lat="44.7241239" lon="11.5453383"><ele>14.25</ele><time>2026-04-15T11:44:49.158Z</time></trkpt><trkpt lat="44.7240004" lon="11.5452573"><ele>14.0</ele><time>2026-04-15T11:44:50.182Z</time></trkpt><trkpt lat="44.7238811" lon="11.545169"><ele>13.75</ele><time>2026-04-15T11:44:51.163Z</time></trkpt><trkpt lat="44.7237691" lon="11.5450955"><ele>13.5</ele><time>2026-04-15T11:44:52.172Z</time></trkpt><trkpt lat="44.7236646" lon="11.5450135"><ele>13.25</ele><time>2026-04-15T11:44:53.146Z</time></trkpt><trkpt lat="44.7235609" lon="11.5449275"><ele>13.0</ele><time>2026-04-15T11:44:54.147Z</time></trkpt><trkpt lat="44.7234813" lon="11.5448075"><ele>13.333333333333332</ele><time>2026-04-15T11:44:55.173Z</time></trkpt><trkpt lat="44.7234145" lon="11.5446511"><ele>13.666666666666668</ele><time>2026-04-15T11:44:56.171Z</time></trkpt><trkpt lat="44.7233325" lon="11.5444726"><ele>14.0</ele><time>2026-04-15T11:44:57.142Z</time></trkpt><trkpt lat="44.7232343" lon="11.5442775"><ele>14.0</ele><time>2026-04-15T11:44:58.175Z</time></trkpt><trkpt lat="44.7231415" lon="11.544074"><ele>14.0</ele><time>2026-04-15T11:44:59.173Z</time></trkpt><trkpt lat="44.7230535" lon="11.5438777"><ele>14.0</ele><time>2026-04-15T11:45:00.139Z</time></trkpt><trkpt lat="44.7229735" lon="11.5436996"><ele>13.75</ele><time>2026-04-15T11:45:01.173Z</time></trkpt><trkpt lat="44.7228965" lon="11.5435323"><ele>13.5</ele><time>2026-04-15T11:45:02.177Z</time></trkpt><trkpt lat="44.7228188" lon="11.5433722"><ele>13.25</ele><time>2026-04-15T11:45:03.163Z</time></trkpt><trkpt lat="44.7227368" lon="11.543204"><ele>13.0</ele><time>2026-04-15T11:45:04.172Z</time></trkpt><trkpt lat="44.7226551" lon="11.5430398"><ele>12.25</ele><time>2026-04-15T11:45:05.146Z</time></trkpt><trkpt lat="44.7225733" lon="11.5428769"><ele>11.5</ele><time>2026-04-15T11:45:06.176Z</time></trkpt><trkpt lat="44.7224867" lon="11.5427116"><ele>10.75</ele><time>2026-04-15T11:45:07.179Z</time></trkpt><trkpt lat="44.7224054" lon="11.542551"><ele>10.0</ele><time>2026-04-15T11:45:08.15Z</time></trkpt><trkpt lat="44.7223259" lon="11.5423851"><ele>10.0</ele><time>2026-04-15T11:45:09.168Z</time></trkpt><trkpt lat="44.7222438" lon="11.5422306"><ele>10.0</ele><time>2026-04-15T11:45:10.162Z</time></trkpt><trkpt lat="44.7221594" lon="11.5420743"><ele>10.0</ele><time>2026-04-15T11:45:11.169Z</time></trkpt><trkpt lat="44.7220729" lon="11.5419191"><ele>10.0</ele><time>2026-04-15T11:45:12.159Z</time></trkpt><trkpt lat="44.721982" lon="11.5417556"><ele>10.0</ele><time>2026-04-15T11:45:13.165Z</time></trkpt><trkpt lat="44.7218948" lon="11.5415915"><ele>10.0</ele><time>2026-04-15T11:45:14.172Z</time></trkpt><trkpt lat="44.7218045" lon="11.5414337"><ele>10.0</ele><time>2026-04-15T11:45:15.14Z</time></trkpt><trkpt lat="44.7217137" lon="11.5412731"><ele>10.0</ele><time>2026-04-15T11:45:16.153Z</time></trkpt><trkpt lat="44.7216228" lon="11.541108"><ele>10.0</ele><time>2026-04-15T11:45:17.152Z</time></trkpt><trkpt lat="44.7215308" lon="11.5409356"><ele>10.0</ele><time>2026-04-15T11:45:18.14Z</time></trkpt><trkpt lat="44.7214336" lon="11.5407618"><ele>10.0</ele><time>2026-04-15T11:45:19.168Z</time></trkpt><trkpt lat="44.7213378" lon="11.54059"><ele>10.0</ele><time>2026-04-15T11:45:20.164Z</time></trkpt><trkpt lat="44.7212414" lon="11.5404171"><ele>10.0</ele><time>2026-04-15T11:45:21.146Z</time></trkpt><trkpt lat="44.7211445" lon="11.5402441"><ele>10.0</ele><time>2026-04-15T11:45:22.144Z</time></trkpt><trkpt lat="44.7210439" lon="11.5400669"><ele>9.666666666666668</ele><time>2026-04-15T11:45:23.124Z</time></trkpt><trkpt lat="44.7209166" lon="11.5398629"><ele>9.333333333333334</ele><time>2026-04-15T11:45:24.132Z</time></trkpt><trkpt lat="44.7207862" lon="11.5396136"><ele>9.0</ele><time>2026-04-15T11:45:25.116Z</time></trkpt><trkpt lat="44.7206501" lon="11.5393496"><ele>9.0</ele><time>2026-04-15T11:45:26.172Z</time></trkpt><trkpt lat="44.720517" lon="11.5391061"><ele>9.0</ele><time>2026-04-15T11:45:27.148Z</time></trkpt><trkpt lat="44.7203898" lon="11.5388811"><ele>9.0</ele><time>2026-04-15T11:45:28.152Z</time></trkpt><trkpt lat="44.7202769" lon="11.538677"><ele>9.333333333333334</ele><time>2026-04-15T11:45:29.134Z</time></trkpt><trkpt lat="44.7201714" lon="11.538491"><ele>9.666666666666668</ele><time>2026-04-15T11:45:30.148Z</time></trkpt><trkpt lat="44.7200722" lon="11.5383088"><ele>10.0</ele><time>2026-04-15T11:45:31.152Z</time></trkpt><trkpt lat="44.7199778" lon="11.5381428"><ele>10.0</ele><time>2026-04-15T11:45:32.173Z</time></trkpt><trkpt lat="44.7198857" lon="11.5379824"><ele>10.0</ele><time>2026-04-15T11:45:33.132Z</time></trkpt><trkpt lat="44.7197928" lon="11.5378206"><ele>10.0</ele><time>2026-04-15T11:45:34.128Z</time></trkpt><trkpt lat="44.7197022" lon="11.5376595"><ele>10.0</ele><time>2026-04-15T11:45:35.158Z</time></trkpt><trkpt lat="44.7196092" lon="11.5375027"><ele>10.0</ele><time>2026-04-15T11:45:36.151Z</time></trkpt><trkpt lat="44.7195213" lon="11.5373486"><ele>10.0</ele><time>2026-04-15T11:45:37.131Z</time></trkpt><trkpt lat="44.7194424" lon="11.537205"><ele>10.0</ele><time>2026-04-15T11:45:38.132Z</time></trkpt><trkpt lat="44.7193658" lon="11.5370752"><ele>10.0</ele><time>2026-04-15T11:45:39.152Z</time></trkpt><trkpt lat="44.7192878" lon="11.5369559"><ele>10.0</ele><time>2026-04-15T11:45:40.141Z</time></trkpt><trkpt lat="44.7192095" lon="11.5368425"><ele>10.0</ele><time>2026-04-15T11:45:41.155Z</time></trkpt><trkpt lat="44.7191254" lon="11.5367316"><ele>10.0</ele><time>2026-04-15T11:45:42.16Z</time></trkpt><trkpt lat="44.7190384" lon="11.5366233"><ele>10.0</ele><time>2026-04-15T11:45:43.14Z</time></trkpt><trkpt lat="44.7189487" lon="11.5365157"><ele>10.0</ele><time>2026-04-15T11:45:44.149Z</time></trkpt><trkpt lat="44.7188629" lon="11.536408"><ele>10.0</ele><time>2026-04-15T11:45:45.15Z</time></trkpt><trkpt lat="44.7187781" lon="11.5362993"><ele>10.0</ele><time>2026-04-15T11:45:46.148Z</time></trkpt><trkpt lat="44.7187099" lon="11.5362113"><ele>10.0</ele><time>2026-04-15T11:45:47.166Z</time></trkpt><trkpt lat="44.7186462" lon="11.5361257"><ele>10.0</ele><time>2026-04-15T11:45:48.162Z</time></trkpt><trkpt lat="44.7185865" lon="11.5360405"><ele>10.0</ele><time>2026-04-15T11:45:49.152Z</time></trkpt><trkpt lat="44.7185316" lon="11.5359445"><ele>10.0</ele><time>2026-04-15T11:45:50.125Z</time></trkpt><trkpt lat="44.7184916" lon="11.535844"><ele>10.0</ele><time>2026-04-15T11:45:51.163Z</time></trkpt><trkpt lat="44.7184693" lon="11.5357354"><ele>10.0</ele><time>2026-04-15T11:45:52.147Z</time></trkpt><trkpt lat="44.7184503" lon="11.5356191"><ele>10.0</ele><time>2026-04-15T11:45:53.163Z</time></trkpt><trkpt lat="44.7184471" lon="11.5354888"><ele>10.0</ele><time>2026-04-15T11:45:54.158Z</time></trkpt><trkpt lat="44.7184463" lon="11.5353574"><ele>10.0</ele><time>2026-04-15T11:45:55.132Z</time></trkpt><trkpt lat="44.7184457" lon="11.5352271"><ele>10.0</ele><time>2026-04-15T11:45:56.161Z</time></trkpt><trkpt lat="44.7184539" lon="11.5350877"><ele>10.0</ele><time>2026-04-15T11:45:57.166Z</time></trkpt><trkpt lat="44.71847" lon="11.5349478"><ele>10.0</ele><time>2026-04-15T11:45:58.135Z</time></trkpt><trkpt lat="44.718493" lon="11.5348154"><ele>10.0</ele><time>2026-04-15T11:45:59.163Z</time></trkpt><trkpt lat="44.718517" lon="11.5346917"><ele>10.0</ele><time>2026-04-15T11:46:00.147Z</time></trkpt><trkpt lat="44.7185465" lon="11.5345675"><ele>10.0</ele><time>2026-04-15T11:46:01.161Z</time></trkpt><trkpt lat="44.7185761" lon="11.5344493"><ele>10.0</ele><time>2026-04-15T11:46:02.137Z</time></trkpt><trkpt lat="44.7186006" lon="11.5343488"><ele>10.0</ele><time>2026-04-15T11:46:03.153Z</time></trkpt><trkpt lat="44.7186312" lon="11.5341908"><ele>10.0</ele><time>2026-04-15T11:46:05.161Z</time></trkpt><trkpt lat="44.7186597" lon="11.534079"><ele>10.166666666666668</ele><time>2026-04-15T11:46:07.163Z</time></trkpt><trkpt lat="44.7186912" lon="11.5339879"><ele>10.333333333333334</ele><time>2026-04-15T11:46:10.138Z</time></trkpt><trkpt lat="44.7187282" lon="11.5338692"><ele>10.5</ele><time>2026-04-15T11:46:21.153Z</time></trkpt><trkpt lat="44.718755" lon="11.5337323"><ele>10.666666666666666</ele><time>2026-04-15T11:46:23.161Z</time></trkpt><trkpt lat="44.7187784" lon="11.5336478"><ele>10.833333333333332</ele><time>2026-04-15T11:46:24.146Z</time></trkpt><trkpt lat="44.7187995" lon="11.5335512"><ele>11.0</ele><time>2026-04-15T11:46:25.111Z</time></trkpt><trkpt lat="44.718829" lon="11.5334376"><ele>11.166666666666666</ele><time>2026-04-15T11:46:26.16Z</time></trkpt><trkpt lat="44.7188575" lon="11.5333269"><ele>11.333333333333332</ele><time>2026-04-15T11:46:27.158Z</time></trkpt><trkpt lat="44.7188835" lon="11.5332176"><ele>11.5</ele><time>2026-04-15T11:46:28.159Z</time></trkpt><trkpt lat="44.7189069" lon="11.5331207"><ele>11.666666666666666</ele><time>2026-04-15T11:46:29.162Z</time></trkpt><trkpt lat="44.7189275" lon="11.5330217"><ele>11.833333333333334</ele><time>2026-04-15T11:46:30.17Z</time></trkpt><trkpt lat="44.7189466" lon="11.5329237"><ele>12.0</ele><time>2026-04-15T11:46:31.164Z</time></trkpt><trkpt lat="44.7189616" lon="11.532819"><ele>12.333333333333334</ele><time>2026-04-15T11:46:32.161Z</time></trkpt><trkpt lat="44.7189699" lon="11.5327113"><ele>12.666666666666668</ele><time>2026-04-15T11:46:33.119Z</time></trkpt><trkpt lat="44.7189741" lon="11.5325926"><ele>13.0</ele><time>2026-04-15T11:46:34.171Z</time></trkpt><trkpt lat="44.7189731" lon="11.5324665"><ele>13.333333333333334</ele><time>2026-04-15T11:46:35.141Z</time></trkpt><trkpt lat="44.7189618" lon="11.5323338"><ele>13.666666666666668</ele><time>2026-04-15T11:46:36.123Z</time></trkpt><trkpt lat="44.7189472" lon="11.5322158"><ele>14.0</ele><time>2026-04-15T11:46:37.129Z</time></trkpt><trkpt lat="44.7189209" lon="11.5321002"><ele>14.2</ele><time>2026-04-15T11:46:38.138Z</time></trkpt><trkpt lat="44.7188755" lon="11.5319717"><ele>14.399999999999999</ele><time>2026-04-15T11:46:39.152Z</time></trkpt><trkpt lat="44.7188283" lon="11.5318274"><ele>14.6</ele><time>2026-04-15T11:46:40.147Z</time></trkpt><trkpt lat="44.7187767" lon="11.5316881"><ele>14.8</ele><time>2026-04-15T11:46:41.144Z</time></trkpt><trkpt lat="44.7187198" lon="11.5315428"><ele>15.0</ele><time>2026-04-15T11:46:42.158Z</time></trkpt><trkpt lat="44.7186654" lon="11.5314018"><ele>15.0</ele><time>2026-04-15T11:46:43.145Z</time></trkpt><trkpt lat="44.718606" lon="11.5312608"><ele>15.0</ele><time>2026-04-15T11:46:44.162Z</time></trkpt><trkpt lat="44.718545" lon="11.5311217"><ele>15.0</ele><time>2026-04-15T11:46:45.116Z</time></trkpt><trkpt lat="44.7184905" lon="11.5309766"><ele>15.0</ele><time>2026-04-15T11:46:46.147Z</time></trkpt><trkpt lat="44.718428" lon="11.5308346"><ele>14.5</ele><time>2026-04-15T11:46:47.162Z</time></trkpt><trkpt lat="44.7183724" lon="11.5306928"><ele>14.0</ele><time>2026-04-15T11:46:48.144Z</time></trkpt><trkpt lat="44.7183096" lon="11.5305418"><ele>13.5</ele><time>2026-04-15T11:46:49.15Z</time></trkpt><trkpt lat="44.718242" lon="11.530397"><ele>13.0</ele><time>2026-04-15T11:46:50.162Z</time></trkpt><trkpt lat="44.7181719" lon="11.5302508"><ele>12.5</ele><time>2026-04-15T11:46:51.155Z</time></trkpt><trkpt lat="44.7180937" lon="11.5301007"><ele>12.0</ele><time>2026-04-15T11:46:52.148Z</time></trkpt><trkpt lat="44.7180101" lon="11.5299487"><ele>11.5</ele><time>2026-04-15T11:46:53.137Z</time></trkpt><trkpt lat="44.7179257" lon="11.5297925"><ele>11.0</ele><time>2026-04-15T11:46:54.134Z</time></trkpt><trkpt lat="44.7178378" lon="11.5296387"><ele>10.75</ele><time>2026-04-15T11:46:55.154Z</time></trkpt><trkpt lat="44.7177418" lon="11.5294941"><ele>10.5</ele><time>2026-04-15T11:46:56.155Z</time></trkpt><trkpt lat="44.7176427" lon="11.5293547"><ele>10.25</ele><time>2026-04-15T11:46:57.144Z</time></trkpt><trkpt lat="44.7175428" lon="11.5292107"><ele>10.0</ele><time>2026-04-15T11:46:58.163Z</time></trkpt><trkpt lat="44.7174368" lon="11.5290605"><ele>9.666666666666668</ele><time>2026-04-15T11:46:59.151Z</time></trkpt><trkpt lat="44.7173251" lon="11.5289068"><ele>9.333333333333334</ele><time>2026-04-15T11:47:00.126Z</time></trkpt><trkpt lat="44.717219" lon="11.5287457"><ele>9.0</ele><time>2026-04-15T11:47:01.135Z</time></trkpt><trkpt lat="44.717121" lon="11.5285762"><ele>9.0</ele><time>2026-04-15T11:47:02.149Z</time></trkpt><trkpt lat="44.7170335" lon="11.5283978"><ele>9.0</ele><time>2026-04-15T11:47:03.156Z</time></trkpt><trkpt lat="44.7169527" lon="11.5282129"><ele>9.0</ele><time>2026-04-15T11:47:04.142Z</time></trkpt><trkpt lat="44.716876" lon="11.5280279"><ele>9.0</ele><time>2026-04-15T11:47:05.147Z</time></trkpt><trkpt lat="44.7168046" lon="11.5278358"><ele>9.0</ele><time>2026-04-15T11:47:06.142Z</time></trkpt><trkpt lat="44.7167348" lon="11.5276457"><ele>9.0</ele><time>2026-04-15T11:47:07.13Z</time></trkpt><trkpt lat="44.7166669" lon="11.5274537"><ele>9.0</ele><time>2026-04-15T11:47:08.153Z</time></trkpt><trkpt lat="44.7166108" lon="11.5272604"><ele>9.0</ele><time>2026-04-15T11:47:09.155Z</time></trkpt><trkpt lat="44.716562" lon="11.5270664"><ele>9.0</ele><time>2026-04-15T11:47:10.151Z</time></trkpt><trkpt lat="44.7165079" lon="11.5268751"><ele>9.0</ele><time>2026-04-15T11:47:11.127Z</time></trkpt><trkpt lat="44.7164522" lon="11.5266696"><ele>8.666666666666666</ele><time>2026-04-15T11:47:12.157Z</time></trkpt><trkpt lat="44.7163803" lon="11.5264497"><ele>8.333333333333332</ele><time>2026-04-15T11:47:13.148Z</time></trkpt><trkpt lat="44.7162988" lon="11.5261816"><ele>8.0</ele><time>2026-04-15T11:47:14.149Z</time></trkpt><trkpt lat="44.7162049" lon="11.5258658"><ele>8.0</ele><time>2026-04-15T11:47:15.153Z</time></trkpt><trkpt lat="44.7161184" lon="11.5255204"><ele>8.0</ele><time>2026-04-15T11:47:16.147Z</time></trkpt><trkpt lat="44.7160339" lon="11.5251726"><ele>8.0</ele><time>2026-04-15T11:47:17.13Z</time></trkpt><trkpt lat="44.715944" lon="11.5248308"><ele>8.0</ele><time>2026-04-15T11:47:18.141Z</time></trkpt><trkpt lat="44.7158176" lon="11.5244811"><ele>8.5</ele><time>2026-04-15T11:47:19.156Z</time></trkpt><trkpt lat="44.7156529" lon="11.5241227"><ele>9.0</ele><time>2026-04-15T11:47:20.121Z</time></trkpt><trkpt lat="44.7154704" lon="11.5237846"><ele>9.0</ele><time>2026-04-15T11:47:21.119Z</time></trkpt><trkpt lat="44.7152819" lon="11.5234685"><ele>9.0</ele><time>2026-04-15T11:47:22.113Z</time></trkpt><trkpt lat="44.715078" lon="11.5231698"><ele>9.0</ele><time>2026-04-15T11:47:23.112Z</time></trkpt><trkpt lat="44.7148652" lon="11.5228728"><ele>9.0</ele><time>2026-04-15T11:47:24.15Z</time></trkpt><trkpt lat="44.7146531" lon="11.5225803"><ele>9.0</ele><time>2026-04-15T11:47:25.154Z</time></trkpt><trkpt lat="44.7144478" lon="11.522291"><ele>9.0</ele><time>2026-04-15T11:47:26.11Z</time></trkpt><trkpt lat="44.7142435" lon="11.5220012"><ele>8.5</ele><time>2026-04-15T11:47:27.146Z</time></trkpt><trkpt lat="44.7140367" lon="11.5217094"><ele>8.0</ele><time>2026-04-15T11:47:28.152Z</time></trkpt><trkpt lat="44.7138246" lon="11.5214135"><ele>8.0</ele><time>2026-04-15T11:47:29.145Z</time></trkpt><trkpt lat="44.7136166" lon="11.5211182"><ele>8.0</ele><time>2026-04-15T11:47:30.154Z</time></trkpt><trkpt lat="44.7134074" lon="11.5208296"><ele>8.0</ele><time>2026-04-15T11:47:31.11Z</time></trkpt><trkpt lat="44.7132014" lon="11.5205394"><ele>8.0</ele><time>2026-04-15T11:47:32.173Z</time></trkpt><trkpt lat="44.7129977" lon="11.5202504"><ele>8.0</ele><time>2026-04-15T11:47:33.153Z</time></trkpt><trkpt lat="44.7127961" lon="11.5199632"><ele>8.0</ele><time>2026-04-15T11:47:34.113Z</time></trkpt><trkpt lat="44.7125905" lon="11.5196768"><ele>8.5</ele><time>2026-04-15T11:47:35.129Z</time></trkpt><trkpt lat="44.7123926" lon="11.5193958"><ele>9.0</ele><time>2026-04-15T11:47:36.134Z</time></trkpt><trkpt lat="44.7121989" lon="11.5191199"><ele>9.0</ele><time>2026-04-15T11:47:37.127Z</time></trkpt><trkpt lat="44.7120129" lon="11.5188545"><ele>9.0</ele><time>2026-04-15T11:47:38.121Z</time></trkpt><trkpt lat="44.7118241" lon="11.5185942"><ele>9.0</ele><time>2026-04-15T11:47:39.135Z</time></trkpt><trkpt lat="44.7116266" lon="11.5183314"><ele>9.0</ele><time>2026-04-15T11:47:40.147Z</time></trkpt><trkpt lat="44.7114264" lon="11.5180531"><ele>9.0</ele><time>2026-04-15T11:47:41.135Z</time></trkpt><trkpt lat="44.7112161" lon="11.5177723"><ele>9.0</ele><time>2026-04-15T11:47:42.142Z</time></trkpt><trkpt lat="44.7109995" lon="11.5174841"><ele>9.0</ele><time>2026-04-15T11:47:43.127Z</time></trkpt><trkpt lat="44.7107772" lon="11.5171955"><ele>9.0</ele><time>2026-04-15T11:47:44.145Z</time></trkpt><trkpt lat="44.7105586" lon="11.5169063"><ele>8.0</ele><time>2026-04-15T11:47:45.137Z</time></trkpt><trkpt lat="44.7103374" lon="11.5166162"><ele>7.0</ele><time>2026-04-15T11:47:46.147Z</time></trkpt><trkpt lat="44.7101149" lon="11.516339"><ele>8.5</ele><time>2026-04-15T11:47:47.117Z</time></trkpt><trkpt lat="44.7098952" lon="11.5160642"><ele>10.0</ele><time>2026-04-15T11:47:48.138Z</time></trkpt><trkpt lat="44.7096763" lon="11.515794"><ele>10.0</ele><time>2026-04-15T11:47:49.135Z</time></trkpt><trkpt lat="44.7094546" lon="11.5155298"><ele>10.0</ele><time>2026-04-15T11:47:50.108Z</time></trkpt><trkpt lat="44.7092392" lon="11.5152561"><ele>9.0</ele><time>2026-04-15T11:47:51.115Z</time></trkpt><trkpt lat="44.7090307" lon="11.5149643"><ele>8.0</ele><time>2026-04-15T11:47:52.149Z</time></trkpt><trkpt lat="44.7088289" lon="11.5146529"><ele>7.5</ele><time>2026-04-15T11:47:53.139Z</time></trkpt><trkpt lat="44.7086272" lon="11.5143351"><ele>7.0</ele><time>2026-04-15T11:47:54.118Z</time></trkpt><trkpt lat="44.7084249" lon="11.5140232"><ele>8.5</ele><time>2026-04-15T11:47:55.151Z</time></trkpt><trkpt lat="44.7082274" lon="11.5137166"><ele>10.0</ele><time>2026-04-15T11:47:56.138Z</time></trkpt><trkpt lat="44.7080361" lon="11.5134301"><ele>10.0</ele><time>2026-04-15T11:47:57.154Z</time></trkpt><trkpt lat="44.7078546" lon="11.5131589"><ele>10.0</ele><time>2026-04-15T11:47:58.149Z</time></trkpt><trkpt lat="44.7076711" lon="11.5129038"><ele>9.5</ele><time>2026-04-15T11:47:59.136Z</time></trkpt><trkpt lat="44.7074936" lon="11.5126663"><ele>9.0</ele><time>2026-04-15T11:48:00.118Z</time></trkpt><trkpt lat="44.707335" lon="11.5124488"><ele>9.0</ele><time>2026-04-15T11:48:01.13Z</time></trkpt><trkpt lat="44.7071915" lon="11.5122391"><ele>9.0</ele><time>2026-04-15T11:48:02.148Z</time></trkpt><trkpt lat="44.7070561" lon="11.5120268"><ele>9.0</ele><time>2026-04-15T11:48:03.132Z</time></trkpt><trkpt lat="44.7069226" lon="11.5118212"><ele>8.666666666666666</ele><time>2026-04-15T11:48:04.162Z</time></trkpt><trkpt lat="44.7067967" lon="11.511616"><ele>8.333333333333332</ele><time>2026-04-15T11:48:05.132Z</time></trkpt><trkpt lat="44.7066767" lon="11.5114185"><ele>8.0</ele><time>2026-04-15T11:48:06.153Z</time></trkpt><trkpt lat="44.7065494" lon="11.5112286"><ele>8.666666666666666</ele><time>2026-04-15T11:48:07.137Z</time></trkpt><trkpt lat="44.7064152" lon="11.511056"><ele>9.333333333333334</ele><time>2026-04-15T11:48:08.149Z</time></trkpt><trkpt lat="44.7062754" lon="11.5108955"><ele>10.0</ele><time>2026-04-15T11:48:09.141Z</time></trkpt><trkpt lat="44.7061378" lon="11.510741"><ele>10.0</ele><time>2026-04-15T11:48:10.134Z</time></trkpt><trkpt lat="44.7060067" lon="11.5105697"><ele>10.0</ele><time>2026-04-15T11:48:11.121Z</time></trkpt><trkpt lat="44.7058967" lon="11.5103801"><ele>10.0</ele><time>2026-04-15T11:48:12.131Z</time></trkpt><trkpt lat="44.7057976" lon="11.5101903"><ele>10.0</ele><time>2026-04-15T11:48:13.123Z</time></trkpt><trkpt lat="44.7056988" lon="11.5100102"><ele>10.0</ele><time>2026-04-15T11:48:14.136Z</time></trkpt><trkpt lat="44.7055923" lon="11.5098387"><ele>10.0</ele><time>2026-04-15T11:48:15.135Z</time></trkpt><trkpt lat="44.7054837" lon="11.5096756"><ele>10.0</ele><time>2026-04-15T11:48:16.15Z</time></trkpt><trkpt lat="44.7052396" lon="11.5093787"><ele>10.0</ele><time>2026-04-15T11:48:18.115Z</time></trkpt><trkpt lat="44.7051158" lon="11.5092354"><ele>10.0</ele><time>2026-04-15T11:48:19.144Z</time></trkpt><trkpt lat="44.7049985" lon="11.5090876"><ele>10.0</ele><time>2026-04-15T11:48:20.14Z</time></trkpt><trkpt lat="44.7048819" lon="11.5089434"><ele>10.0</ele><time>2026-04-15T11:48:21.142Z</time></trkpt><trkpt lat="44.7047593" lon="11.5087982"><ele>10.0</ele><time>2026-04-15T11:48:22.154Z</time></trkpt><trkpt lat="44.7046367" lon="11.5086585"><ele>10.0</ele><time>2026-04-15T11:48:23.138Z</time></trkpt><trkpt lat="44.7045153" lon="11.5085139"><ele>10.0</ele><time>2026-04-15T11:48:24.127Z</time></trkpt><trkpt lat="44.704395" lon="11.5083712"><ele>10.0</ele><time>2026-04-15T11:48:25.128Z</time></trkpt><trkpt lat="44.7042773" lon="11.5082205"><ele>10.0</ele><time>2026-04-15T11:48:26.14Z</time></trkpt><trkpt lat="44.7041622" lon="11.5080577"><ele>10.0</ele><time>2026-04-15T11:48:27.134Z</time></trkpt><trkpt lat="44.7040645" lon="11.5078813"><ele>9.666666666666668</ele><time>2026-04-15T11:48:28.137Z</time></trkpt><trkpt lat="44.7039695" lon="11.5076895"><ele>9.333333333333334</ele><time>2026-04-15T11:48:29.136Z</time></trkpt><trkpt lat="44.7038769" lon="11.5074968"><ele>9.0</ele><time>2026-04-15T11:48:30.15Z</time></trkpt><trkpt lat="44.7037818" lon="11.5072996"><ele>9.0</ele><time>2026-04-15T11:48:31.132Z</time></trkpt><trkpt lat="44.7036908" lon="11.5071036"><ele>9.0</ele><time>2026-04-15T11:48:32.14Z</time></trkpt><trkpt lat="44.7035971" lon="11.5069"><ele>9.0</ele><time>2026-04-15T11:48:33.118Z</time></trkpt><trkpt lat="44.7034987" lon="11.5067021"><ele>8.666666666666666</ele><time>2026-04-15T11:48:34.124Z</time></trkpt><trkpt lat="44.7033932" lon="11.5065026"><ele>8.333333333333332</ele><time>2026-04-15T11:48:35.143Z</time></trkpt><trkpt lat="44.7032844" lon="11.5063072"><ele>8.0</ele><time>2026-04-15T11:48:36.143Z</time></trkpt><trkpt lat="44.7031646" lon="11.5061332"><ele>8.333333333333332</ele><time>2026-04-15T11:48:37.142Z</time></trkpt><trkpt lat="44.7030338" lon="11.5059811"><ele>8.666666666666666</ele><time>2026-04-15T11:48:38.1Z</time></trkpt><trkpt lat="44.7028848" lon="11.5058431"><ele>9.0</ele><time>2026-04-15T11:48:39.137Z</time></trkpt><trkpt lat="44.7027364" lon="11.5057071"><ele>9.0</ele><time>2026-04-15T11:48:40.101Z</time></trkpt><trkpt lat="44.7025963" lon="11.505568"><ele>9.0</ele><time>2026-04-15T11:48:41.133Z</time></trkpt><trkpt lat="44.7024614" lon="11.505418"><ele>9.0</ele><time>2026-04-15T11:48:42.147Z</time></trkpt><trkpt lat="44.7023442" lon="11.5052361"><ele>9.333333333333334</ele><time>2026-04-15T11:48:43.135Z</time></trkpt><trkpt lat="44.7022467" lon="11.5050197"><ele>9.666666666666668</ele><time>2026-04-15T11:48:44.138Z</time></trkpt><trkpt lat="44.7021533" lon="11.5048029"><ele>10.0</ele><time>2026-04-15T11:48:45.142Z</time></trkpt><trkpt lat="44.7020626" lon="11.5045783"><ele>10.0</ele><time>2026-04-15T11:48:46.143Z</time></trkpt><trkpt lat="44.701961" lon="11.5043623"><ele>10.0</ele><time>2026-04-15T11:48:47.132Z</time></trkpt><trkpt lat="44.7018499" lon="11.5041619"><ele>10.0</ele><time>2026-04-15T11:48:48.126Z</time></trkpt><trkpt lat="44.7017213" lon="11.5039881"><ele>10.0</ele><time>2026-04-15T11:48:49.119Z</time></trkpt><trkpt lat="44.7015734" lon="11.5038497"><ele>10.0</ele><time>2026-04-15T11:48:50.124Z</time></trkpt><trkpt lat="44.7014206" lon="11.5037246"><ele>10.0</ele><time>2026-04-15T11:48:51.126Z</time></trkpt><trkpt lat="44.7012633" lon="11.5036033"><ele>10.0</ele><time>2026-04-15T11:48:52.133Z</time></trkpt><trkpt lat="44.7010988" lon="11.5034795"><ele>10.0</ele><time>2026-04-15T11:48:53.139Z</time></trkpt><trkpt lat="44.7009127" lon="11.5033496"><ele>10.0</ele><time>2026-04-15T11:48:54.134Z</time></trkpt><trkpt lat="44.7006929" lon="11.5032277"><ele>10.0</ele><time>2026-04-15T11:48:55.112Z</time></trkpt><trkpt lat="44.7004575" lon="11.5030699"><ele>10.0</ele><time>2026-04-15T11:48:56.125Z</time></trkpt><trkpt lat="44.700221" lon="11.5029037"><ele>11.0</ele><time>2026-04-15T11:48:57.142Z</time></trkpt><trkpt lat="44.7000064" lon="11.5027503"><ele>12.0</ele><time>2026-04-15T11:48:58.131Z</time></trkpt><trkpt lat="44.6998119" lon="11.5026179"><ele>12.0</ele><time>2026-04-15T11:48:59.138Z</time></trkpt><trkpt lat="44.699625" lon="11.5025001"><ele>12.0</ele><time>2026-04-15T11:49:00.128Z</time></trkpt><trkpt lat="44.6994533" lon="11.5023719"><ele>12.0</ele><time>2026-04-15T11:49:01.115Z</time></trkpt><trkpt lat="44.6992889" lon="11.5022554"><ele>11.666666666666666</ele><time>2026-04-15T11:49:02.123Z</time></trkpt><trkpt lat="44.699124" lon="11.5021396"><ele>11.333333333333332</ele><time>2026-04-15T11:49:03.124Z</time></trkpt><trkpt lat="44.6989643" lon="11.502019"><ele>11.0</ele><time>2026-04-15T11:49:04.133Z</time></trkpt><trkpt lat="44.6988031" lon="11.5019053"><ele>10.666666666666666</ele><time>2026-04-15T11:49:05.126Z</time></trkpt><trkpt lat="44.6986441" lon="11.5017833"><ele>10.333333333333334</ele><time>2026-04-15T11:49:06.128Z</time></trkpt><trkpt lat="44.6984808" lon="11.5016678"><ele>10.0</ele><time>2026-04-15T11:49:07.111Z</time></trkpt><trkpt lat="44.6983181" lon="11.5015697"><ele>10.0</ele><time>2026-04-15T11:49:08.132Z</time></trkpt><trkpt lat="44.6981514" lon="11.5014872"><ele>10.0</ele><time>2026-04-15T11:49:09.119Z</time></trkpt><trkpt lat="44.6979904" lon="11.5014202"><ele>10.0</ele><time>2026-04-15T11:49:10.122Z</time></trkpt><trkpt lat="44.697828" lon="11.5013755"><ele>10.0</ele><time>2026-04-15T11:49:11.111Z</time></trkpt><trkpt lat="44.6976653" lon="11.5013415"><ele>10.0</ele><time>2026-04-15T11:49:12.119Z</time></trkpt><trkpt lat="44.697508" lon="11.5013029"><ele>10.0</ele><time>2026-04-15T11:49:13.134Z</time></trkpt><trkpt lat="44.6973532" lon="11.5012558"><ele>10.0</ele><time>2026-04-15T11:49:14.112Z</time></trkpt><trkpt lat="44.6971961" lon="11.5012142"><ele>10.0</ele><time>2026-04-15T11:49:15.123Z</time></trkpt><trkpt lat="44.6970406" lon="11.5011724"><ele>10.0</ele><time>2026-04-15T11:49:16.112Z</time></trkpt><trkpt lat="44.6968883" lon="11.5011398"><ele>10.0</ele><time>2026-04-15T11:49:17.238Z</time></trkpt><trkpt lat="44.6967352" lon="11.5011216"><ele>10.0</ele><time>2026-04-15T11:49:18.228Z</time></trkpt><trkpt lat="44.6965775" lon="11.5011323"><ele>10.0</ele><time>2026-04-15T11:49:19.136Z</time></trkpt><trkpt lat="44.6964201" lon="11.5011666"><ele>10.0</ele><time>2026-04-15T11:49:20.119Z</time></trkpt><trkpt lat="44.6962631" lon="11.5012123"><ele>10.0</ele><time>2026-04-15T11:49:21.135Z</time></trkpt><trkpt lat="44.6961188" lon="11.5012548"><ele>10.0</ele><time>2026-04-15T11:49:22.105Z</time></trkpt><trkpt lat="44.6959803" lon="11.5013051"><ele>9.75</ele><time>2026-04-15T11:49:23.223Z</time></trkpt><trkpt lat="44.6958521" lon="11.5013618"><ele>9.5</ele><time>2026-04-15T11:49:24.223Z</time></trkpt><trkpt lat="44.6957307" lon="11.5014358"><ele>9.25</ele><time>2026-04-15T11:49:25.242Z</time></trkpt><trkpt lat="44.6956169" lon="11.5015138"><ele>9.0</ele><time>2026-04-15T11:49:26.148Z</time></trkpt><trkpt lat="44.6955039" lon="11.5015894"><ele>9.0</ele><time>2026-04-15T11:49:27.137Z</time></trkpt><trkpt lat="44.6953947" lon="11.5016713"><ele>9.0</ele><time>2026-04-15T11:49:28.226Z</time></trkpt><trkpt lat="44.6952936" lon="11.5017462"><ele>9.0</ele><time>2026-04-15T11:49:29.207Z</time></trkpt><trkpt lat="44.69519" lon="11.5018241"><ele>9.0</ele><time>2026-04-15T11:49:30.216Z</time></trkpt><trkpt lat="44.6950851" lon="11.5019023"><ele>9.0</ele><time>2026-04-15T11:49:31.227Z</time></trkpt><trkpt lat="44.6949646" lon="11.5019889"><ele>9.0</ele><time>2026-04-15T11:49:32.214Z</time></trkpt><trkpt lat="44.6948173" lon="11.5020914"><ele>9.0</ele><time>2026-04-15T11:49:33.124Z</time></trkpt><trkpt lat="44.6946384" lon="11.5021948"><ele>9.0</ele><time>2026-04-15T11:49:34.234Z</time></trkpt><trkpt lat="44.6944362" lon="11.5022799"><ele>9.0</ele><time>2026-04-15T11:49:35.235Z</time></trkpt><trkpt lat="44.6942237" lon="11.5023457"><ele>9.0</ele><time>2026-04-15T11:49:36.221Z</time></trkpt><trkpt lat="44.6939987" lon="11.5024139"><ele>9.5</ele><time>2026-04-15T11:49:37.23Z</time></trkpt><trkpt lat="44.6937752" lon="11.5024861"><ele>10.0</ele><time>2026-04-15T11:49:38.237Z</time></trkpt><trkpt lat="44.6935516" lon="11.502567"><ele>10.0</ele><time>2026-04-15T11:49:39.229Z</time></trkpt><trkpt lat="44.6931055" lon="11.5026836"><ele>10.0</ele><time>2026-04-15T11:49:41.24Z</time></trkpt><trkpt lat="44.6928763" lon="11.5026819"><ele>10.0</ele><time>2026-04-15T11:49:42.243Z</time></trkpt><trkpt lat="44.6926594" lon="11.5026344"><ele>10.0</ele><time>2026-04-15T11:49:43.224Z</time></trkpt><trkpt lat="44.6924488" lon="11.5025622"><ele>10.0</ele><time>2026-04-15T11:49:44.201Z</time></trkpt><trkpt lat="44.6922439" lon="11.5024881"><ele>10.0</ele><time>2026-04-15T11:49:45.211Z</time></trkpt><trkpt lat="44.6920426" lon="11.5024208"><ele>10.0</ele><time>2026-04-15T11:49:46.224Z</time></trkpt><trkpt lat="44.6916631" lon="11.5023032"><ele>10.0</ele><time>2026-04-15T11:49:48.222Z</time></trkpt><trkpt lat="44.6914888" lon="11.5022395"><ele>10.0</ele><time>2026-04-15T11:49:49.228Z</time></trkpt><trkpt lat="44.6913152" lon="11.5021889"><ele>10.0</ele><time>2026-04-15T11:49:50.208Z</time></trkpt><trkpt lat="44.6911531" lon="11.502134"><ele>10.0</ele><time>2026-04-15T11:49:51.216Z</time></trkpt><trkpt lat="44.691004" lon="11.5020789"><ele>10.0</ele><time>2026-04-15T11:49:52.234Z</time></trkpt><trkpt lat="44.6908672" lon="11.5020308"><ele>10.0</ele><time>2026-04-15T11:49:53.229Z</time></trkpt><trkpt lat="44.690728" lon="11.5019902"><ele>10.0</ele><time>2026-04-15T11:49:54.247Z</time></trkpt><trkpt lat="44.690601" lon="11.5019551"><ele>10.0</ele><time>2026-04-15T11:49:55.208Z</time></trkpt><trkpt lat="44.6904737" lon="11.5019189"><ele>10.0</ele><time>2026-04-15T11:49:56.213Z</time></trkpt><trkpt lat="44.6903496" lon="11.5018781"><ele>10.0</ele><time>2026-04-15T11:49:57.232Z</time></trkpt><trkpt lat="44.6902286" lon="11.5018321"><ele>10.0</ele><time>2026-04-15T11:49:58.211Z</time></trkpt><trkpt lat="44.6901104" lon="11.50178"><ele>10.25</ele><time>2026-04-15T11:49:59.214Z</time></trkpt><trkpt lat="44.6899933" lon="11.5017303"><ele>10.5</ele><time>2026-04-15T11:50:00.213Z</time></trkpt><trkpt lat="44.6898813" lon="11.5016799"><ele>10.75</ele><time>2026-04-15T11:50:01.23Z</time></trkpt><trkpt lat="44.6897648" lon="11.5016237"><ele>11.0</ele><time>2026-04-15T11:50:02.223Z</time></trkpt><trkpt lat="44.6896494" lon="11.5015651"><ele>11.0</ele><time>2026-04-15T11:50:03.227Z</time></trkpt><trkpt lat="44.6895258" lon="11.5015101"><ele>11.0</ele><time>2026-04-15T11:50:04.204Z</time></trkpt><trkpt lat="44.6894057" lon="11.5014448"><ele>11.0</ele><time>2026-04-15T11:50:05.219Z</time></trkpt><trkpt lat="44.6892842" lon="11.5013622"><ele>11.0</ele><time>2026-04-15T11:50:06.216Z</time></trkpt><trkpt lat="44.6891624" lon="11.5013123"><ele>11.25</ele><time>2026-04-15T11:50:07.229Z</time></trkpt><trkpt lat="44.6890252" lon="11.5012679"><ele>11.5</ele><time>2026-04-15T11:50:08.216Z</time></trkpt><trkpt lat="44.6888936" lon="11.5012143"><ele>11.75</ele><time>2026-04-15T11:50:09.218Z</time></trkpt><trkpt lat="44.6887677" lon="11.5011615"><ele>12.0</ele><time>2026-04-15T11:50:10.219Z</time></trkpt><trkpt lat="44.6886488" lon="11.5010961"><ele>11.75</ele><time>2026-04-15T11:50:11.202Z</time></trkpt><trkpt lat="44.6885372" lon="11.5010315"><ele>11.5</ele><time>2026-04-15T11:50:12.231Z</time></trkpt><trkpt lat="44.6884276" lon="11.5009643"><ele>11.25</ele><time>2026-04-15T11:50:13.23Z</time></trkpt><trkpt lat="44.6883131" lon="11.5009067"><ele>11.0</ele><time>2026-04-15T11:50:14.229Z</time></trkpt><trkpt lat="44.6882046" lon="11.5008523"><ele>11.0</ele><time>2026-04-15T11:50:15.226Z</time></trkpt><trkpt lat="44.6880922" lon="11.5007874"><ele>11.0</ele><time>2026-04-15T11:50:16.218Z</time></trkpt><trkpt lat="44.6879681" lon="11.5007168"><ele>11.0</ele><time>2026-04-15T11:50:17.224Z</time></trkpt><trkpt lat="44.6878395" lon="11.500656"><ele>11.0</ele><time>2026-04-15T11:50:18.208Z</time></trkpt><trkpt lat="44.6877134" lon="11.5005861"><ele>10.75</ele><time>2026-04-15T11:50:19.231Z</time></trkpt><trkpt lat="44.6875858" lon="11.5005222"><ele>10.5</ele><time>2026-04-15T11:50:20.223Z</time></trkpt><trkpt lat="44.6874491" lon="11.500454"><ele>10.25</ele><time>2026-04-15T11:50:21.23Z</time></trkpt><trkpt lat="44.6873005" lon="11.5003765"><ele>10.0</ele><time>2026-04-15T11:50:22.21Z</time></trkpt><trkpt lat="44.6871474" lon="11.5002987"><ele>10.0</ele><time>2026-04-15T11:50:23.224Z</time></trkpt><trkpt lat="44.6870004" lon="11.5002151"><ele>10.0</ele><time>2026-04-15T11:50:24.214Z</time></trkpt><trkpt lat="44.6868524" lon="11.5001305"><ele>10.0</ele><time>2026-04-15T11:50:25.221Z</time></trkpt><trkpt lat="44.6866837" lon="11.5000362"><ele>10.0</ele><time>2026-04-15T11:50:26.204Z</time></trkpt><trkpt lat="44.6864886" lon="11.4999016"><ele>10.0</ele><time>2026-04-15T11:50:27.201Z</time></trkpt><trkpt lat="44.6862812" lon="11.4997276"><ele>10.5</ele><time>2026-04-15T11:50:28.227Z</time></trkpt><trkpt lat="44.6860857" lon="11.4995333"><ele>11.0</ele><time>2026-04-15T11:50:29.219Z</time></trkpt><trkpt lat="44.6858763" lon="11.4993544"><ele>11.0</ele><time>2026-04-15T11:50:30.221Z</time></trkpt><trkpt lat="44.6856641" lon="11.4991981"><ele>11.0</ele><time>2026-04-15T11:50:31.2Z</time></trkpt><trkpt lat="44.6854449" lon="11.4990354"><ele>9.5</ele><time>2026-04-15T11:50:32.224Z</time></trkpt><trkpt lat="44.6852321" lon="11.4988742"><ele>8.0</ele><time>2026-04-15T11:50:33.227Z</time></trkpt><trkpt lat="44.6850186" lon="11.4987156"><ele>8.0</ele><time>2026-04-15T11:50:34.211Z</time></trkpt><trkpt lat="44.6848056" lon="11.4985631"><ele>8.0</ele><time>2026-04-15T11:50:35.228Z</time></trkpt><trkpt lat="44.6845942" lon="11.4984192"><ele>8.0</ele><time>2026-04-15T11:50:36.199Z</time></trkpt><trkpt lat="44.684385" lon="11.498285"><ele>8.0</ele><time>2026-04-15T11:50:37.19Z</time></trkpt><trkpt lat="44.6841729" lon="11.4981763"><ele>8.0</ele><time>2026-04-15T11:50:38.204Z</time></trkpt><trkpt lat="44.6839606" lon="11.4980775"><ele>8.0</ele><time>2026-04-15T11:50:39.234Z</time></trkpt><trkpt lat="44.6837516" lon="11.4979813"><ele>8.0</ele><time>2026-04-15T11:50:40.225Z</time></trkpt><trkpt lat="44.6835503" lon="11.4978838"><ele>8.666666666666666</ele><time>2026-04-15T11:50:41.211Z</time></trkpt><trkpt lat="44.683347" lon="11.4977804"><ele>9.333333333333334</ele><time>2026-04-15T11:50:42.205Z</time></trkpt><trkpt lat="44.683151" lon="11.497679"><ele>10.0</ele><time>2026-04-15T11:50:43.2Z</time></trkpt><trkpt lat="44.6829621" lon="11.4975877"><ele>10.0</ele><time>2026-04-15T11:50:44.203Z</time></trkpt><trkpt lat="44.6827842" lon="11.4975028"><ele>10.0</ele><time>2026-04-15T11:50:45.212Z</time></trkpt><trkpt lat="44.6826006" lon="11.4974218"><ele>10.0</ele><time>2026-04-15T11:50:46.221Z</time></trkpt><trkpt lat="44.6824243" lon="11.4973428"><ele>9.666666666666668</ele><time>2026-04-15T11:50:47.215Z</time></trkpt><trkpt lat="44.6822592" lon="11.4972726"><ele>9.333333333333334</ele><time>2026-04-15T11:50:48.216Z</time></trkpt><trkpt lat="44.6820963" lon="11.4972011"><ele>9.0</ele><time>2026-04-15T11:50:49.231Z</time></trkpt><trkpt lat="44.6819558" lon="11.4971328"><ele>9.25</ele><time>2026-04-15T11:50:50.214Z</time></trkpt><trkpt lat="44.6818682" lon="11.4970841"><ele>9.5</ele><time>2026-04-15T11:50:51.218Z</time></trkpt><trkpt lat="44.6817826" lon="11.4970506"><ele>9.75</ele><time>2026-04-15T11:50:52.205Z</time></trkpt><trkpt lat="44.6816553" lon="11.4969903"><ele>10.0</ele><time>2026-04-15T11:50:53.212Z</time></trkpt><trkpt lat="44.681528" lon="11.4969304"><ele>10.0</ele><time>2026-04-15T11:50:54.186Z</time></trkpt><trkpt lat="44.6814246" lon="11.4968722"><ele>10.0</ele><time>2026-04-15T11:50:55.207Z</time></trkpt><trkpt lat="44.6813228" lon="11.4968192"><ele>10.0</ele><time>2026-04-15T11:50:56.221Z</time></trkpt><trkpt lat="44.6812269" lon="11.4967653"><ele>10.0</ele><time>2026-04-15T11:50:57.201Z</time></trkpt><trkpt lat="44.6811187" lon="11.4966911"><ele>10.0</ele><time>2026-04-15T11:50:58.195Z</time></trkpt><trkpt lat="44.6809936" lon="11.4966049"><ele>10.0</ele><time>2026-04-15T11:50:59.207Z</time></trkpt><trkpt lat="44.680866" lon="11.4964993"><ele>10.0</ele><time>2026-04-15T11:51:00.204Z</time></trkpt><trkpt lat="44.6807422" lon="11.4963877"><ele>10.0</ele><time>2026-04-15T11:51:01.23Z</time></trkpt><trkpt lat="44.6806148" lon="11.4962755"><ele>10.0</ele><time>2026-04-15T11:51:02.214Z</time></trkpt><trkpt lat="44.6804907" lon="11.496166"><ele>10.0</ele><time>2026-04-15T11:51:03.217Z</time></trkpt><trkpt lat="44.6803664" lon="11.4960585"><ele>10.0</ele><time>2026-04-15T11:51:04.206Z</time></trkpt><trkpt lat="44.6802455" lon="11.4959582"><ele>10.0</ele><time>2026-04-15T11:51:05.201Z</time></trkpt><trkpt lat="44.6801265" lon="11.4958602"><ele>10.0</ele><time>2026-04-15T11:51:06.181Z</time></trkpt><trkpt lat="44.68001" lon="11.4957679"><ele>10.0</ele><time>2026-04-15T11:51:07.237Z</time></trkpt><trkpt lat="44.6798965" lon="11.495673"><ele>10.0</ele><time>2026-04-15T11:51:08.195Z</time></trkpt><trkpt lat="44.679786" lon="11.4955805"><ele>10.0</ele><time>2026-04-15T11:51:09.196Z</time></trkpt><trkpt lat="44.6796721" lon="11.4954833"><ele>10.0</ele><time>2026-04-15T11:51:10.186Z</time></trkpt><trkpt lat="44.6795538" lon="11.4953795"><ele>10.666666666666668</ele><time>2026-04-15T11:51:11.196Z</time></trkpt><trkpt lat="44.6794289" lon="11.4952718"><ele>11.333333333333334</ele><time>2026-04-15T11:51:12.195Z</time></trkpt><trkpt lat="44.6792952" lon="11.4951617"><ele>12.0</ele><time>2026-04-15T11:51:13.194Z</time></trkpt><trkpt lat="44.6791507" lon="11.4950411"><ele>12.0</ele><time>2026-04-15T11:51:14.221Z</time></trkpt><trkpt lat="44.679005" lon="11.4949223"><ele>12.0</ele><time>2026-04-15T11:51:15.194Z</time></trkpt><trkpt lat="44.6788603" lon="11.4947973"><ele>12.0</ele><time>2026-04-15T11:51:16.21Z</time></trkpt><trkpt lat="44.6787147" lon="11.4946762"><ele>11.666666666666666</ele><time>2026-04-15T11:51:17.225Z</time></trkpt><trkpt lat="44.6785667" lon="11.4945509"><ele>11.333333333333332</ele><time>2026-04-15T11:51:18.222Z</time></trkpt><trkpt lat="44.6784103" lon="11.49442"><ele>11.0</ele><time>2026-04-15T11:51:19.216Z</time></trkpt><trkpt lat="44.6782327" lon="11.4942814"><ele>11.0</ele><time>2026-04-15T11:51:20.219Z</time></trkpt><trkpt lat="44.6780444" lon="11.4941264"><ele>11.0</ele><time>2026-04-15T11:51:21.208Z</time></trkpt><trkpt lat="44.6778516" lon="11.4939599"><ele>11.0</ele><time>2026-04-15T11:51:22.204Z</time></trkpt><trkpt lat="44.6776546" lon="11.4937846"><ele>11.0</ele><time>2026-04-15T11:51:23.21Z</time></trkpt><trkpt lat="44.6774538" lon="11.4936157"><ele>11.0</ele><time>2026-04-15T11:51:24.188Z</time></trkpt><trkpt lat="44.6772536" lon="11.4934484"><ele>11.0</ele><time>2026-04-15T11:51:25.199Z</time></trkpt><trkpt lat="44.6770547" lon="11.4932804"><ele>11.0</ele><time>2026-04-15T11:51:26.22Z</time></trkpt><trkpt lat="44.676861" lon="11.4931143"><ele>11.0</ele><time>2026-04-15T11:51:27.211Z</time></trkpt><trkpt lat="44.676675" lon="11.4929478"><ele>11.0</ele><time>2026-04-15T11:51:28.199Z</time></trkpt><trkpt lat="44.6764956" lon="11.492781"><ele>11.0</ele><time>2026-04-15T11:51:29.244Z</time></trkpt><trkpt lat="44.6763176" lon="11.492617"><ele>11.0</ele><time>2026-04-15T11:51:30.22Z</time></trkpt><trkpt lat="44.6761375" lon="11.4924643"><ele>11.0</ele><time>2026-04-15T11:51:31.194Z</time></trkpt><trkpt lat="44.6759566" lon="11.4923165"><ele>11.0</ele><time>2026-04-15T11:51:32.199Z</time></trkpt><trkpt lat="44.6757751" lon="11.4921725"><ele>11.0</ele><time>2026-04-15T11:51:33.21Z</time></trkpt><trkpt lat="44.6755935" lon="11.4920371"><ele>11.0</ele><time>2026-04-15T11:51:34.199Z</time></trkpt><trkpt lat="44.6754092" lon="11.4919138"><ele>11.0</ele><time>2026-04-15T11:51:35.223Z</time></trkpt><trkpt lat="44.6752212" lon="11.4918103"><ele>11.0</ele><time>2026-04-15T11:51:36.202Z</time></trkpt><trkpt lat="44.6750321" lon="11.4917053"><ele>11.0</ele><time>2026-04-15T11:51:37.206Z</time></trkpt><trkpt lat="44.674846" lon="11.49161"><ele>11.0</ele><time>2026-04-15T11:51:38.201Z</time></trkpt><trkpt lat="44.6746589" lon="11.4915157"><ele>11.0</ele><time>2026-04-15T11:51:39.208Z</time></trkpt><trkpt lat="44.6744748" lon="11.4914186"><ele>11.0</ele><time>2026-04-15T11:51:40.193Z</time></trkpt><trkpt lat="44.674295" lon="11.4913242"><ele>11.0</ele><time>2026-04-15T11:51:41.231Z</time></trkpt><trkpt lat="44.6741174" lon="11.4912322"><ele>11.333333333333332</ele><time>2026-04-15T11:51:42.194Z</time></trkpt><trkpt lat="44.6739454" lon="11.4911469"><ele>11.666666666666666</ele><time>2026-04-15T11:51:43.229Z</time></trkpt><trkpt lat="44.6737779" lon="11.4910626"><ele>12.0</ele><time>2026-04-15T11:51:44.21Z</time></trkpt><trkpt lat="44.673631" lon="11.4909908"><ele>12.0</ele><time>2026-04-15T11:51:45.193Z</time></trkpt><trkpt lat="44.6735167" lon="11.4909313"><ele>12.0</ele><time>2026-04-15T11:51:46.19Z</time></trkpt><trkpt lat="44.6734206" lon="11.4908899"><ele>12.0</ele><time>2026-04-15T11:51:47.205Z</time></trkpt><trkpt lat="44.6733525" lon="11.4908597"><ele>12.0</ele><time>2026-04-15T11:51:48.225Z</time></trkpt><trkpt lat="44.673282" lon="11.4908287"><ele>12.0</ele><time>2026-04-15T11:51:50.201Z</time></trkpt><trkpt lat="44.6731787" lon="11.4907994"><ele>12.0</ele><time>2026-04-15T11:51:56.222Z</time></trkpt><trkpt lat="44.6730563" lon="11.490746"><ele>12.0</ele><time>2026-04-15T11:51:58.199Z</time></trkpt><trkpt lat="44.6729796" lon="11.4907061"><ele>12.0</ele><time>2026-04-15T11:51:59.227Z</time></trkpt><trkpt lat="44.672879" lon="11.4906656"><ele>12.0</ele><time>2026-04-15T11:52:00.225Z</time></trkpt><trkpt lat="44.6727705" lon="11.4906324"><ele>12.0</ele><time>2026-04-15T11:52:01.221Z</time></trkpt><trkpt lat="44.6726661" lon="11.4905958"><ele>12.75</ele><time>2026-04-15T11:52:02.217Z</time></trkpt><trkpt lat="44.6725557" lon="11.4905512"><ele>13.5</ele><time>2026-04-15T11:52:03.202Z</time></trkpt><trkpt lat="44.6724317" lon="11.4905121"><ele>14.25</ele><time>2026-04-15T11:52:04.204Z</time></trkpt><trkpt lat="44.6722989" lon="11.4904708"><ele>15.0</ele><time>2026-04-15T11:52:05.177Z</time></trkpt><trkpt lat="44.6721665" lon="11.4904263"><ele>15.0</ele><time>2026-04-15T11:52:06.189Z</time></trkpt><trkpt lat="44.6720348" lon="11.4903772"><ele>15.0</ele><time>2026-04-15T11:52:07.211Z</time></trkpt><trkpt lat="44.6719094" lon="11.4903332"><ele>15.0</ele><time>2026-04-15T11:52:08.189Z</time></trkpt><trkpt lat="44.6717834" lon="11.4902876"><ele>15.0</ele><time>2026-04-15T11:52:09.212Z</time></trkpt><trkpt lat="44.6716583" lon="11.4902432"><ele>15.0</ele><time>2026-04-15T11:52:10.208Z</time></trkpt><trkpt lat="44.6715355" lon="11.490198"><ele>15.0</ele><time>2026-04-15T11:52:11.215Z</time></trkpt><trkpt lat="44.6714089" lon="11.4901465"><ele>15.0</ele><time>2026-04-15T11:52:12.201Z</time></trkpt><trkpt lat="44.6712813" lon="11.4901035"><ele>15.0</ele><time>2026-04-15T11:52:13.214Z</time></trkpt><trkpt lat="44.6711496" lon="11.4900611"><ele>14.75</ele><time>2026-04-15T11:52:14.22Z</time></trkpt><trkpt lat="44.6710146" lon="11.4900056"><ele>14.5</ele><time>2026-04-15T11:52:15.19Z</time></trkpt><trkpt lat="44.6708779" lon="11.4899476"><ele>14.25</ele><time>2026-04-15T11:52:16.215Z</time></trkpt><trkpt lat="44.6707384" lon="11.4898985"><ele>14.0</ele><time>2026-04-15T11:52:17.192Z</time></trkpt><trkpt lat="44.6705925" lon="11.4898628"><ele>14.0</ele><time>2026-04-15T11:52:18.2Z</time></trkpt><trkpt lat="44.6704485" lon="11.4898091"><ele>14.0</ele><time>2026-04-15T11:52:19.216Z</time></trkpt><trkpt lat="44.6703087" lon="11.4897534"><ele>14.0</ele><time>2026-04-15T11:52:20.231Z</time></trkpt><trkpt lat="44.6701704" lon="11.489699"><ele>14.0</ele><time>2026-04-15T11:52:21.225Z</time></trkpt><trkpt lat="44.6700331" lon="11.4896448"><ele>14.25</ele><time>2026-04-15T11:52:22.205Z</time></trkpt><trkpt lat="44.6698976" lon="11.4895882"><ele>14.5</ele><time>2026-04-15T11:52:23.21Z</time></trkpt><trkpt lat="44.6697646" lon="11.4895333"><ele>14.75</ele><time>2026-04-15T11:52:24.215Z</time></trkpt><trkpt lat="44.6696304" lon="11.4894785"><ele>15.0</ele><time>2026-04-15T11:52:25.221Z</time></trkpt><trkpt lat="44.6695015" lon="11.4894258"><ele>15.25</ele><time>2026-04-15T11:52:26.214Z</time></trkpt><trkpt lat="44.6693715" lon="11.4893739"><ele>15.5</ele><time>2026-04-15T11:52:27.193Z</time></trkpt><trkpt lat="44.6692416" lon="11.4893188"><ele>15.75</ele><time>2026-04-15T11:52:28.186Z</time></trkpt><trkpt lat="44.6691079" lon="11.4892637"><ele>16.0</ele><time>2026-04-15T11:52:29.23Z</time></trkpt><trkpt lat="44.6689774" lon="11.4892086"><ele>16.0</ele><time>2026-04-15T11:52:30.2Z</time></trkpt><trkpt lat="44.668844" lon="11.4891546"><ele>16.0</ele><time>2026-04-15T11:52:31.217Z</time></trkpt><trkpt lat="44.6687086" lon="11.4891022"><ele>16.0</ele><time>2026-04-15T11:52:32.202Z</time></trkpt><trkpt lat="44.6685788" lon="11.489047"><ele>16.0</ele><time>2026-04-15T11:52:33.215Z</time></trkpt><trkpt lat="44.6684495" lon="11.4889915"><ele>15.5</ele><time>2026-04-15T11:52:34.201Z</time></trkpt><trkpt lat="44.6683201" lon="11.4889269"><ele>15.0</ele><time>2026-04-15T11:52:35.214Z</time></trkpt><trkpt lat="44.6681889" lon="11.4888603"><ele>14.5</ele><time>2026-04-15T11:52:36.204Z</time></trkpt><trkpt lat="44.6680625" lon="11.4887983"><ele>14.0</ele><time>2026-04-15T11:52:37.189Z</time></trkpt><trkpt lat="44.6679344" lon="11.4887335"><ele>14.0</ele><time>2026-04-15T11:52:38.213Z</time></trkpt><trkpt lat="44.6678046" lon="11.4886677"><ele>14.0</ele><time>2026-04-15T11:52:39.21Z</time></trkpt><trkpt lat="44.6676773" lon="11.4886029"><ele>14.0</ele><time>2026-04-15T11:52:40.205Z</time></trkpt><trkpt lat="44.6675484" lon="11.4885349"><ele>14.0</ele><time>2026-04-15T11:52:41.199Z</time></trkpt><trkpt lat="44.6674208" lon="11.4884622"><ele>14.0</ele><time>2026-04-15T11:52:42.197Z</time></trkpt><trkpt lat="44.6672896" lon="11.4883933"><ele>14.0</ele><time>2026-04-15T11:52:43.217Z</time></trkpt><trkpt lat="44.6671551" lon="11.4883205"><ele>14.0</ele><time>2026-04-15T11:52:44.21Z</time></trkpt><trkpt lat="44.6670248" lon="11.4882444"><ele>14.0</ele><time>2026-04-15T11:52:45.225Z</time></trkpt><trkpt lat="44.6668941" lon="11.4881723"><ele>14.0</ele><time>2026-04-15T11:52:46.226Z</time></trkpt><trkpt lat="44.6667703" lon="11.4881002"><ele>14.0</ele><time>2026-04-15T11:52:47.194Z</time></trkpt><trkpt lat="44.6666484" lon="11.4880309"><ele>14.0</ele><time>2026-04-15T11:52:48.188Z</time></trkpt><trkpt lat="44.6665259" lon="11.4879554"><ele>14.0</ele><time>2026-04-15T11:52:49.199Z</time></trkpt><trkpt lat="44.6664049" lon="11.4878827"><ele>14.0</ele><time>2026-04-15T11:52:50.194Z</time></trkpt><trkpt lat="44.6662941" lon="11.4878091"><ele>13.999999999999998</ele><time>2026-04-15T11:52:51.205Z</time></trkpt><trkpt lat="44.6661925" lon="11.4877491"><ele>13.999999999999998</ele><time>2026-04-15T11:52:52.19Z</time></trkpt><trkpt lat="44.6660972" lon="11.4876884"><ele>14.0</ele><time>2026-04-15T11:52:53.196Z</time></trkpt><trkpt lat="44.6660068" lon="11.4876271"><ele>14.0</ele><time>2026-04-15T11:52:54.174Z</time></trkpt><trkpt lat="44.6659165" lon="11.4875619"><ele>14.0</ele><time>2026-04-15T11:52:55.191Z</time></trkpt><trkpt lat="44.6658232" lon="11.4874974"><ele>13.999999999999998</ele><time>2026-04-15T11:52:56.187Z</time></trkpt><trkpt lat="44.6657287" lon="11.4874334"><ele>13.999999999999998</ele><time>2026-04-15T11:52:57.187Z</time></trkpt><trkpt lat="44.6656326" lon="11.4873655"><ele>14.0</ele><time>2026-04-15T11:52:58.202Z</time></trkpt><trkpt lat="44.6655258" lon="11.4873004"><ele>14.0</ele><time>2026-04-15T11:52:59.183Z</time></trkpt><trkpt lat="44.6654257" lon="11.4872264"><ele>14.0</ele><time>2026-04-15T11:53:00.183Z</time></trkpt><trkpt lat="44.6653331" lon="11.4871608"><ele>13.999999999999998</ele><time>2026-04-15T11:53:01.199Z</time></trkpt><trkpt lat="44.6652444" lon="11.4870917"><ele>13.999999999999998</ele><time>2026-04-15T11:53:02.201Z</time></trkpt><trkpt lat="44.6651563" lon="11.487025"><ele>14.0</ele><time>2026-04-15T11:53:03.178Z</time></trkpt><trkpt lat="44.6650678" lon="11.4869608"><ele>14.0</ele><time>2026-04-15T11:53:04.202Z</time></trkpt><trkpt lat="44.66498" lon="11.486897"><ele>14.2</ele><time>2026-04-15T11:53:05.193Z</time></trkpt><trkpt lat="44.6648932" lon="11.4868347"><ele>14.399999999999999</ele><time>2026-04-15T11:53:06.194Z</time></trkpt><trkpt lat="44.6648153" lon="11.4867816"><ele>14.6</ele><time>2026-04-15T11:53:07.198Z</time></trkpt><trkpt lat="44.6647359" lon="11.4867191"><ele>14.8</ele><time>2026-04-15T11:53:08.197Z</time></trkpt><trkpt lat="44.6646404" lon="11.4866373"><ele>15.0</ele><time>2026-04-15T11:53:09.195Z</time></trkpt><trkpt lat="44.6645193" lon="11.4865596"><ele>14.666666666666668</ele><time>2026-04-15T11:53:10.2Z</time></trkpt><trkpt lat="44.6643891" lon="11.486476"><ele>14.333333333333334</ele><time>2026-04-15T11:53:11.199Z</time></trkpt><trkpt lat="44.6642485" lon="11.4863818"><ele>14.0</ele><time>2026-04-15T11:53:12.195Z</time></trkpt><trkpt lat="44.6640946" lon="11.4862815"><ele>14.0</ele><time>2026-04-15T11:53:13.199Z</time></trkpt><trkpt lat="44.6639343" lon="11.486171"><ele>14.0</ele><time>2026-04-15T11:53:14.184Z</time></trkpt><trkpt lat="44.6637826" lon="11.4860706"><ele>14.0</ele><time>2026-04-15T11:53:15.203Z</time></trkpt><trkpt lat="44.6636303" lon="11.4859813"><ele>14.0</ele><time>2026-04-15T11:53:16.196Z</time></trkpt><trkpt lat="44.6634777" lon="11.4859077"><ele>14.0</ele><time>2026-04-15T11:53:17.183Z</time></trkpt><trkpt lat="44.6633187" lon="11.4858666"><ele>14.0</ele><time>2026-04-15T11:53:18.195Z</time></trkpt><trkpt lat="44.6631573" lon="11.4858822"><ele>14.0</ele><time>2026-04-15T11:53:19.197Z</time></trkpt><trkpt lat="44.6629962" lon="11.4859431"><ele>14.0</ele><time>2026-04-15T11:53:20.193Z</time></trkpt><trkpt lat="44.6628559" lon="11.4860433"><ele>14.0</ele><time>2026-04-15T11:53:21.216Z</time></trkpt><trkpt lat="44.6627346" lon="11.4861788"><ele>14.0</ele><time>2026-04-15T11:53:22.216Z</time></trkpt><trkpt lat="44.6626334" lon="11.4863245"><ele>14.0</ele><time>2026-04-15T11:53:23.181Z</time></trkpt><trkpt lat="44.66255" lon="11.4865046"><ele>14.0</ele><time>2026-04-15T11:53:24.195Z</time></trkpt><trkpt lat="44.6624773" lon="11.4867033"><ele>14.0</ele><time>2026-04-15T11:53:25.206Z</time></trkpt><trkpt lat="44.6624159" lon="11.4868912"><ele>14.0</ele><time>2026-04-15T11:53:26.209Z</time></trkpt><trkpt lat="44.662365" lon="11.4870651"><ele>14.0</ele><time>2026-04-15T11:53:27.202Z</time></trkpt><trkpt lat="44.6623259" lon="11.487214"><ele>14.0</ele><time>2026-04-15T11:53:28.202Z</time></trkpt><trkpt lat="44.6622849" lon="11.4873674"><ele>13.75</ele><time>2026-04-15T11:53:29.202Z</time></trkpt><trkpt lat="44.662243" lon="11.4875223"><ele>13.5</ele><time>2026-04-15T11:53:30.2Z</time></trkpt><trkpt lat="44.6621909" lon="11.4876956"><ele>13.25</ele><time>2026-04-15T11:53:31.211Z</time></trkpt><trkpt lat="44.6621292" lon="11.4878874"><ele>13.0</ele><time>2026-04-15T11:53:32.193Z</time></trkpt><trkpt lat="44.6620637" lon="11.4880848"><ele>13.0</ele><time>2026-04-15T11:53:33.173Z</time></trkpt><trkpt lat="44.6620039" lon="11.4882835"><ele>13.0</ele><time>2026-04-15T11:53:34.195Z</time></trkpt><trkpt lat="44.661947" lon="11.4884881"><ele>13.0</ele><time>2026-04-15T11:53:35.196Z</time></trkpt><trkpt lat="44.6618837" lon="11.4886901"><ele>12.333333333333332</ele><time>2026-04-15T11:53:36.199Z</time></trkpt><trkpt lat="44.6618224" lon="11.4889054"><ele>11.666666666666666</ele><time>2026-04-15T11:53:37.193Z</time></trkpt><trkpt lat="44.6617613" lon="11.4891263"><ele>11.0</ele><time>2026-04-15T11:53:38.203Z</time></trkpt><trkpt lat="44.6617009" lon="11.4893608"><ele>11.0</ele><time>2026-04-15T11:53:39.208Z</time></trkpt><trkpt lat="44.6616354" lon="11.4895909"><ele>11.0</ele><time>2026-04-15T11:53:40.19Z</time></trkpt><trkpt lat="44.6615662" lon="11.4898215"><ele>11.0</ele><time>2026-04-15T11:53:41.208Z</time></trkpt><trkpt lat="44.6615033" lon="11.4900425"><ele>11.0</ele><time>2026-04-15T11:53:42.2Z</time></trkpt><trkpt lat="44.6614408" lon="11.4902542"><ele>11.0</ele><time>2026-04-15T11:53:43.212Z</time></trkpt><trkpt lat="44.6613727" lon="11.490449"><ele>11.0</ele><time>2026-04-15T11:53:44.214Z</time></trkpt><trkpt lat="44.6612925" lon="11.4906432"><ele>11.0</ele><time>2026-04-15T11:53:45.198Z</time></trkpt><trkpt lat="44.6611965" lon="11.4908173"><ele>11.0</ele><time>2026-04-15T11:53:46.198Z</time></trkpt><trkpt lat="44.6610984" lon="11.4909626"><ele>11.0</ele><time>2026-04-15T11:53:47.192Z</time></trkpt><trkpt lat="44.6609879" lon="11.4910629"><ele>11.0</ele><time>2026-04-15T11:53:48.19Z</time></trkpt><trkpt lat="44.6608754" lon="11.4911338"><ele>10.8</ele><time>2026-04-15T11:53:49.179Z</time></trkpt><trkpt lat="44.6607767" lon="11.4911597"><ele>10.600000000000001</ele><time>2026-04-15T11:53:50.179Z</time></trkpt><trkpt lat="44.6606835" lon="11.4911498"><ele>10.4</ele><time>2026-04-15T11:53:51.206Z</time></trkpt><trkpt lat="44.6605949" lon="11.4911335"><ele>10.2</ele><time>2026-04-15T11:53:52.211Z</time></trkpt><trkpt lat="44.6604992" lon="11.4911478"><ele>10.0</ele><time>2026-04-15T11:53:53.182Z</time></trkpt><trkpt lat="44.6604094" lon="11.4912157"><ele>10.4</ele><time>2026-04-15T11:53:54.178Z</time></trkpt><trkpt lat="44.6603201" lon="11.4913052"><ele>10.8</ele><time>2026-04-15T11:53:55.204Z</time></trkpt><trkpt lat="44.6602311" lon="11.4913594"><ele>11.2</ele><time>2026-04-15T11:53:56.191Z</time></trkpt><trkpt lat="44.6601395" lon="11.4913859"><ele>11.6</ele><time>2026-04-15T11:53:57.196Z</time></trkpt><trkpt lat="44.6600341" lon="11.4913975"><ele>12.0</ele><time>2026-04-15T11:53:58.187Z</time></trkpt><trkpt lat="44.6599359" lon="11.4913997"><ele>12.0</ele><time>2026-04-15T11:53:59.22Z</time></trkpt><trkpt lat="44.6598392" lon="11.4913795"><ele>12.0</ele><time>2026-04-15T11:54:00.198Z</time></trkpt><trkpt lat="44.6597486" lon="11.4913385"><ele>12.0</ele><time>2026-04-15T11:54:01.213Z</time></trkpt><trkpt lat="44.6596574" lon="11.4912784"><ele>12.0</ele><time>2026-04-15T11:54:02.185Z</time></trkpt><trkpt lat="44.6595539" lon="11.4911935"><ele>12.0</ele><time>2026-04-15T11:54:03.184Z</time></trkpt><trkpt lat="44.6594191" lon="11.4910766"><ele>12.333333333333332</ele><time>2026-04-15T11:54:04.202Z</time></trkpt><trkpt lat="44.6592671" lon="11.4909439"><ele>12.666666666666666</ele><time>2026-04-15T11:54:05.209Z</time></trkpt><trkpt lat="44.6591219" lon="11.490805"><ele>13.0</ele><time>2026-04-15T11:54:06.199Z</time></trkpt><trkpt lat="44.658987" lon="11.490682"><ele>13.0</ele><time>2026-04-15T11:54:07.171Z</time></trkpt><trkpt lat="44.6588675" lon="11.4905658"><ele>13.0</ele><time>2026-04-15T11:54:08.182Z</time></trkpt><trkpt lat="44.6587553" lon="11.4904549"><ele>13.0</ele><time>2026-04-15T11:54:09.199Z</time></trkpt><trkpt lat="44.6586496" lon="11.4903483"><ele>13.0</ele><time>2026-04-15T11:54:10.198Z</time></trkpt><trkpt lat="44.6585389" lon="11.490237"><ele>13.0</ele><time>2026-04-15T11:54:11.201Z</time></trkpt><trkpt lat="44.6584179" lon="11.4901172"><ele>13.0</ele><time>2026-04-15T11:54:12.182Z</time></trkpt><trkpt lat="44.658295" lon="11.4900062"><ele>13.0</ele><time>2026-04-15T11:54:13.188Z</time></trkpt><trkpt lat="44.6581718" lon="11.489891"><ele>13.0</ele><time>2026-04-15T11:54:14.192Z</time></trkpt><trkpt lat="44.6580476" lon="11.4897721"><ele>13.0</ele><time>2026-04-15T11:54:15.22Z</time></trkpt><trkpt lat="44.65792" lon="11.4896526"><ele>13.0</ele><time>2026-04-15T11:54:16.198Z</time></trkpt><trkpt lat="44.6577904" lon="11.4895282"><ele>13.0</ele><time>2026-04-15T11:54:17.21Z</time></trkpt><trkpt lat="44.6576591" lon="11.4894029"><ele>12.333333333333332</ele><time>2026-04-15T11:54:18.205Z</time></trkpt><trkpt lat="44.6575024" lon="11.4892713"><ele>11.666666666666666</ele><time>2026-04-15T11:54:19.204Z</time></trkpt><trkpt lat="44.6573255" lon="11.4891153"><ele>11.0</ele><time>2026-04-15T11:54:20.195Z</time></trkpt><trkpt lat="44.6571572" lon="11.4889459"><ele>11.0</ele><time>2026-04-15T11:54:21.211Z</time></trkpt><trkpt lat="44.6569898" lon="11.4887753"><ele>11.0</ele><time>2026-04-15T11:54:22.203Z</time></trkpt><trkpt lat="44.6568244" lon="11.488612"><ele>11.0</ele><time>2026-04-15T11:54:23.18Z</time></trkpt><trkpt lat="44.6566528" lon="11.4884563"><ele>11.0</ele><time>2026-04-15T11:54:24.197Z</time></trkpt><trkpt lat="44.6564897" lon="11.4883025"><ele>11.0</ele><time>2026-04-15T11:54:25.202Z</time></trkpt><trkpt lat="44.6563333" lon="11.4881537"><ele>11.0</ele><time>2026-04-15T11:54:26.193Z</time></trkpt><trkpt lat="44.6561755" lon="11.4880062"><ele>11.666666666666666</ele><time>2026-04-15T11:54:27.197Z</time></trkpt><trkpt lat="44.6560192" lon="11.4878585"><ele>12.333333333333332</ele><time>2026-04-15T11:54:28.204Z</time></trkpt><trkpt lat="44.6558598" lon="11.4877053"><ele>13.0</ele><time>2026-04-15T11:54:29.21Z</time></trkpt><trkpt lat="44.6556989" lon="11.4875556"><ele>13.0</ele><time>2026-04-15T11:54:30.185Z</time></trkpt><trkpt lat="44.6555377" lon="11.4874049"><ele>13.0</ele><time>2026-04-15T11:54:31.184Z</time></trkpt><trkpt lat="44.6553797" lon="11.4872563"><ele>13.0</ele><time>2026-04-15T11:54:32.187Z</time></trkpt><trkpt lat="44.6552233" lon="11.487109"><ele>12.666666666666666</ele><time>2026-04-15T11:54:33.175Z</time></trkpt><trkpt lat="44.6550644" lon="11.4869668"><ele>12.333333333333332</ele><time>2026-04-15T11:54:34.203Z</time></trkpt><trkpt lat="44.6549074" lon="11.4868244"><ele>12.0</ele><time>2026-04-15T11:54:35.194Z</time></trkpt><trkpt lat="44.6547527" lon="11.4866809"><ele>12.0</ele><time>2026-04-15T11:54:36.203Z</time></trkpt><trkpt lat="44.6545985" lon="11.4865386"><ele>12.0</ele><time>2026-04-15T11:54:37.208Z</time></trkpt><trkpt lat="44.6544458" lon="11.4863905"><ele>12.0</ele><time>2026-04-15T11:54:38.2Z</time></trkpt><trkpt lat="44.654292" lon="11.4862433"><ele>12.333333333333332</ele><time>2026-04-15T11:54:39.199Z</time></trkpt><trkpt lat="44.6541403" lon="11.4860898"><ele>12.666666666666666</ele><time>2026-04-15T11:54:40.2Z</time></trkpt><trkpt lat="44.6539928" lon="11.4859285"><ele>13.0</ele><time>2026-04-15T11:54:41.201Z</time></trkpt><trkpt lat="44.6538477" lon="11.4857654"><ele>13.0</ele><time>2026-04-15T11:54:42.197Z</time></trkpt><trkpt lat="44.6537025" lon="11.485601"><ele>13.0</ele><time>2026-04-15T11:54:43.175Z</time></trkpt><trkpt lat="44.6535521" lon="11.4854368"><ele>13.0</ele><time>2026-04-15T11:54:44.208Z</time></trkpt><trkpt lat="44.6533981" lon="11.4852855"><ele>13.666666666666666</ele><time>2026-04-15T11:54:45.189Z</time></trkpt><trkpt lat="44.6532419" lon="11.4851431"><ele>14.333333333333332</ele><time>2026-04-15T11:54:46.197Z</time></trkpt><trkpt lat="44.6530863" lon="11.4850072"><ele>15.0</ele><time>2026-04-15T11:54:47.19Z</time></trkpt><trkpt lat="44.6529341" lon="11.4848695"><ele>14.666666666666668</ele><time>2026-04-15T11:54:48.179Z</time></trkpt><trkpt lat="44.6527808" lon="11.48473"><ele>14.333333333333334</ele><time>2026-04-15T11:54:49.172Z</time></trkpt><trkpt lat="44.6526281" lon="11.4845907"><ele>14.0</ele><time>2026-04-15T11:54:50.188Z</time></trkpt><trkpt lat="44.6524726" lon="11.4844516"><ele>13.666666666666668</ele><time>2026-04-15T11:54:51.181Z</time></trkpt><trkpt lat="44.6523215" lon="11.4843113"><ele>13.333333333333332</ele><time>2026-04-15T11:54:52.202Z</time></trkpt><trkpt lat="44.6521745" lon="11.484174"><ele>13.0</ele><time>2026-04-15T11:54:53.19Z</time></trkpt><trkpt lat="44.6520303" lon="11.4840382"><ele>13.0</ele><time>2026-04-15T11:54:54.199Z</time></trkpt><trkpt lat="44.6517471" lon="11.4837847"><ele>13.0</ele><time>2026-04-15T11:54:56.177Z</time></trkpt><trkpt lat="44.6516105" lon="11.4836643"><ele>12.333333333333332</ele><time>2026-04-15T11:54:57.191Z</time></trkpt><trkpt lat="44.6514702" lon="11.4835415"><ele>11.666666666666666</ele><time>2026-04-15T11:54:58.19Z</time></trkpt><trkpt lat="44.65133" lon="11.4834223"><ele>11.0</ele><time>2026-04-15T11:54:59.178Z</time></trkpt><trkpt lat="44.6511889" lon="11.4832985"><ele>11.333333333333332</ele><time>2026-04-15T11:55:00.179Z</time></trkpt><trkpt lat="44.6510418" lon="11.4831813"><ele>11.666666666666666</ele><time>2026-04-15T11:55:01.187Z</time></trkpt><trkpt lat="44.6508899" lon="11.4830611"><ele>12.0</ele><time>2026-04-15T11:55:02.173Z</time></trkpt><trkpt lat="44.6507271" lon="11.4829323"><ele>11.666666666666666</ele><time>2026-04-15T11:55:03.172Z</time></trkpt><trkpt lat="44.6505475" lon="11.4827838"><ele>11.333333333333332</ele><time>2026-04-15T11:55:04.195Z</time></trkpt><trkpt lat="44.6503539" lon="11.4826158"><ele>11.0</ele><time>2026-04-15T11:55:05.192Z</time></trkpt><trkpt lat="44.6501536" lon="11.4824392"><ele>10.5</ele><time>2026-04-15T11:55:06.193Z</time></trkpt><trkpt lat="44.6499409" lon="11.4822514"><ele>10.0</ele><time>2026-04-15T11:55:07.186Z</time></trkpt><trkpt lat="44.6497128" lon="11.4820572"><ele>10.0</ele><time>2026-04-15T11:55:08.195Z</time></trkpt><trkpt lat="44.6494877" lon="11.4818502"><ele>10.0</ele><time>2026-04-15T11:55:09.201Z</time></trkpt><trkpt lat="44.649264" lon="11.4816341"><ele>10.5</ele><time>2026-04-15T11:55:10.196Z</time></trkpt><trkpt lat="44.6490454" lon="11.4814135"><ele>11.0</ele><time>2026-04-15T11:55:11.162Z</time></trkpt><trkpt lat="44.6488248" lon="11.4812"><ele>12.5</ele><time>2026-04-15T11:55:12.19Z</time></trkpt><trkpt lat="44.6486048" lon="11.4809948"><ele>14.0</ele><time>2026-04-15T11:55:13.203Z</time></trkpt><trkpt lat="44.6483834" lon="11.4807914"><ele>14.0</ele><time>2026-04-15T11:55:14.196Z</time></trkpt><trkpt lat="44.6481623" lon="11.4805889"><ele>14.0</ele><time>2026-04-15T11:55:15.192Z</time></trkpt><trkpt lat="44.6479431" lon="11.4803821"><ele>14.0</ele><time>2026-04-15T11:55:16.204Z</time></trkpt><trkpt lat="44.647726" lon="11.480179"><ele>14.0</ele><time>2026-04-15T11:55:17.197Z</time></trkpt><trkpt lat="44.6475083" lon="11.479978"><ele>14.0</ele><time>2026-04-15T11:55:18.203Z</time></trkpt><trkpt lat="44.6472957" lon="11.4797781"><ele>14.0</ele><time>2026-04-15T11:55:19.184Z</time></trkpt><trkpt lat="44.6470899" lon="11.479584"><ele>13.5</ele><time>2026-04-15T11:55:20.184Z</time></trkpt><trkpt lat="44.6468905" lon="11.4793953"><ele>13.0</ele><time>2026-04-15T11:55:21.187Z</time></trkpt><trkpt lat="44.6466874" lon="11.4792038"><ele>13.0</ele><time>2026-04-15T11:55:22.207Z</time></trkpt><trkpt lat="44.646482" lon="11.4790142"><ele>13.0</ele><time>2026-04-15T11:55:23.195Z</time></trkpt><trkpt lat="44.6462719" lon="11.4788216"><ele>13.5</ele><time>2026-04-15T11:55:24.197Z</time></trkpt><trkpt lat="44.6460631" lon="11.4786272"><ele>14.0</ele><time>2026-04-15T11:55:25.172Z</time></trkpt><trkpt lat="44.6458511" lon="11.4784307"><ele>14.0</ele><time>2026-04-15T11:55:26.187Z</time></trkpt><trkpt lat="44.6456383" lon="11.4782365"><ele>14.0</ele><time>2026-04-15T11:55:27.179Z</time></trkpt><trkpt lat="44.6454316" lon="11.4780443"><ele>13.5</ele><time>2026-04-15T11:55:28.183Z</time></trkpt><trkpt lat="44.6452243" lon="11.4778483"><ele>13.0</ele><time>2026-04-15T11:55:29.174Z</time></trkpt><trkpt lat="44.6450173" lon="11.4776547"><ele>13.0</ele><time>2026-04-15T11:55:30.192Z</time></trkpt><trkpt lat="44.64481" lon="11.477461"><ele>13.0</ele><time>2026-04-15T11:55:31.162Z</time></trkpt><trkpt lat="44.6446061" lon="11.4772705"><ele>12.0</ele><time>2026-04-15T11:55:32.195Z</time></trkpt><trkpt lat="44.6444019" lon="11.4770849"><ele>11.0</ele><time>2026-04-15T11:55:33.197Z</time></trkpt><trkpt lat="44.6442054" lon="11.4769024"><ele>11.0</ele><time>2026-04-15T11:55:34.201Z</time></trkpt><trkpt lat="44.6440095" lon="11.4767219"><ele>11.0</ele><time>2026-04-15T11:55:35.188Z</time></trkpt><trkpt lat="44.6438099" lon="11.4765406"><ele>11.0</ele><time>2026-04-15T11:55:36.195Z</time></trkpt><trkpt lat="44.643607" lon="11.4763575"><ele>11.0</ele><time>2026-04-15T11:55:37.166Z</time></trkpt><trkpt lat="44.6434059" lon="11.4761683"><ele>11.0</ele><time>2026-04-15T11:55:38.192Z</time></trkpt><trkpt lat="44.6432054" lon="11.4759759"><ele>11.0</ele><time>2026-04-15T11:55:39.196Z</time></trkpt><trkpt lat="44.6430049" lon="11.4757839"><ele>11.0</ele><time>2026-04-15T11:55:40.2Z</time></trkpt><trkpt lat="44.6428111" lon="11.4756014"><ele>11.0</ele><time>2026-04-15T11:55:41.199Z</time></trkpt><trkpt lat="44.6426297" lon="11.4754292"><ele>11.333333333333332</ele><time>2026-04-15T11:55:42.191Z</time></trkpt><trkpt lat="44.6424571" lon="11.475264"><ele>11.666666666666666</ele><time>2026-04-15T11:55:43.194Z</time></trkpt><trkpt lat="44.6422839" lon="11.4751059"><ele>12.0</ele><time>2026-04-15T11:55:44.198Z</time></trkpt><trkpt lat="44.6421039" lon="11.4749472"><ele>11.666666666666666</ele><time>2026-04-15T11:55:45.202Z</time></trkpt><trkpt lat="44.6419226" lon="11.4747823"><ele>11.333333333333332</ele><time>2026-04-15T11:55:46.203Z</time></trkpt><trkpt lat="44.6417413" lon="11.4746098"><ele>11.0</ele><time>2026-04-15T11:55:47.209Z</time></trkpt><trkpt lat="44.6415627" lon="11.4744382"><ele>11.0</ele><time>2026-04-15T11:55:48.172Z</time></trkpt><trkpt lat="44.6413853" lon="11.474276"><ele>11.0</ele><time>2026-04-15T11:55:49.191Z</time></trkpt><trkpt lat="44.6412146" lon="11.4741168"><ele>11.0</ele><time>2026-04-15T11:55:50.197Z</time></trkpt><trkpt lat="44.6410471" lon="11.4739656"><ele>11.0</ele><time>2026-04-15T11:55:51.199Z</time></trkpt><trkpt lat="44.6408923" lon="11.4738226"><ele>11.0</ele><time>2026-04-15T11:55:52.209Z</time></trkpt><trkpt lat="44.640749" lon="11.4736861"><ele>11.0</ele><time>2026-04-15T11:55:53.197Z</time></trkpt><trkpt lat="44.6406104" lon="11.4735605"><ele>11.0</ele><time>2026-04-15T11:55:54.167Z</time></trkpt><trkpt lat="44.6404791" lon="11.4734389"><ele>11.0</ele><time>2026-04-15T11:55:55.193Z</time></trkpt><trkpt lat="44.6403593" lon="11.4733239"><ele>11.0</ele><time>2026-04-15T11:55:56.184Z</time></trkpt><trkpt lat="44.6402447" lon="11.4732193"><ele>11.0</ele><time>2026-04-15T11:55:57.183Z</time></trkpt><trkpt lat="44.6401362" lon="11.4731164"><ele>11.200000000000001</ele><time>2026-04-15T11:55:58.194Z</time></trkpt><trkpt lat="44.640033" lon="11.4730226"><ele>11.4</ele><time>2026-04-15T11:55:59.196Z</time></trkpt><trkpt lat="44.6399429" lon="11.4729406"><ele>11.6</ele><time>2026-04-15T11:56:00.18Z</time></trkpt><trkpt lat="44.6398559" lon="11.4728684"><ele>11.8</ele><time>2026-04-15T11:56:01.168Z</time></trkpt><trkpt lat="44.6397859" lon="11.4728037"><ele>12.0</ele><time>2026-04-15T11:56:02.195Z</time></trkpt><trkpt lat="44.6397218" lon="11.4727478"><ele>12.0</ele><time>2026-04-15T11:56:03.179Z</time></trkpt><trkpt lat="44.6396623" lon="11.4726845"><ele>12.0</ele><time>2026-04-15T11:56:04.192Z</time></trkpt><trkpt lat="44.6396036" lon="11.4726293"><ele>12.0</ele><time>2026-04-15T11:56:05.177Z</time></trkpt><trkpt lat="44.6395025" lon="11.4725354"><ele>12.0</ele><time>2026-04-15T11:56:07.165Z</time></trkpt><trkpt lat="44.6394084" lon="11.4724525"><ele>12.0</ele><time>2026-04-15T11:56:09.172Z</time></trkpt><trkpt lat="44.6393009" lon="11.4723577"><ele>12.5</ele><time>2026-04-15T11:56:11.182Z</time></trkpt><trkpt lat="44.6392374" lon="11.4723028"><ele>13.0</ele><time>2026-04-15T11:56:12.173Z</time></trkpt><trkpt lat="44.6391765" lon="11.4722783"><ele>13.5</ele><time>2026-04-15T11:56:13.171Z</time></trkpt><trkpt lat="44.6390737" lon="11.4723589"><ele>14.0</ele><time>2026-04-15T11:56:15.163Z</time></trkpt><trkpt lat="44.6390356" lon="11.4724401"><ele>14.5</ele><time>2026-04-15T11:56:16.16Z</time></trkpt><trkpt lat="44.6389881" lon="11.4725503"><ele>15.0</ele><time>2026-04-15T11:56:17.214Z</time></trkpt><trkpt lat="44.6389286" lon="11.4726725"><ele>15.0</ele><time>2026-04-15T11:56:18.196Z</time></trkpt><trkpt lat="44.6388608" lon="11.4728011"><ele>15.0</ele><time>2026-04-15T11:56:19.177Z</time></trkpt><trkpt lat="44.638794" lon="11.4729485"><ele>15.0</ele><time>2026-04-15T11:56:20.188Z</time></trkpt><trkpt lat="44.6387274" lon="11.4731055"><ele>15.0</ele><time>2026-04-15T11:56:21.189Z</time></trkpt><trkpt lat="44.6386541" lon="11.4732773"><ele>14.666666666666668</ele><time>2026-04-15T11:56:22.2Z</time></trkpt><trkpt lat="44.6385805" lon="11.4734536"><ele>14.333333333333334</ele><time>2026-04-15T11:56:23.195Z</time></trkpt><trkpt lat="44.6385036" lon="11.473641"><ele>14.0</ele><time>2026-04-15T11:56:24.166Z</time></trkpt><trkpt lat="44.6384198" lon="11.4738412"><ele>13.0</ele><time>2026-04-15T11:56:25.208Z</time></trkpt><trkpt lat="44.6383356" lon="11.4740556"><ele>12.0</ele><time>2026-04-15T11:56:26.188Z</time></trkpt><trkpt lat="44.6382482" lon="11.474277"><ele>11.0</ele><time>2026-04-15T11:56:27.191Z</time></trkpt><trkpt lat="44.6381615" lon="11.4745046"><ele>11.333333333333332</ele><time>2026-04-15T11:56:28.198Z</time></trkpt><trkpt lat="44.6380765" lon="11.4747337"><ele>11.666666666666666</ele><time>2026-04-15T11:56:29.161Z</time></trkpt><trkpt lat="44.6379977" lon="11.4749698"><ele>12.0</ele><time>2026-04-15T11:56:30.194Z</time></trkpt><trkpt lat="44.637917" lon="11.4752113"><ele>12.0</ele><time>2026-04-15T11:56:31.182Z</time></trkpt><trkpt lat="44.6378409" lon="11.4754494"><ele>12.0</ele><time>2026-04-15T11:56:32.177Z</time></trkpt><trkpt lat="44.6377792" lon="11.4756817"><ele>12.0</ele><time>2026-04-15T11:56:33.189Z</time></trkpt><trkpt lat="44.6377274" lon="11.4759005"><ele>11.75</ele><time>2026-04-15T11:56:34.184Z</time></trkpt><trkpt lat="44.6376766" lon="11.4761041"><ele>11.5</ele><time>2026-04-15T11:56:35.196Z</time></trkpt><trkpt lat="44.6376289" lon="11.4762992"><ele>11.25</ele><time>2026-04-15T11:56:36.185Z</time></trkpt><trkpt lat="44.637573" lon="11.4764829"><ele>11.0</ele><time>2026-04-15T11:56:37.195Z</time></trkpt><trkpt lat="44.6375175" lon="11.4766545"><ele>11.0</ele><time>2026-04-15T11:56:38.196Z</time></trkpt><trkpt lat="44.637463" lon="11.4768114"><ele>11.0</ele><time>2026-04-15T11:56:39.192Z</time></trkpt><trkpt lat="44.6374131" lon="11.4769578"><ele>11.0</ele><time>2026-04-15T11:56:40.186Z</time></trkpt><trkpt lat="44.6373598" lon="11.4771015"><ele>11.0</ele><time>2026-04-15T11:56:41.181Z</time></trkpt><trkpt lat="44.6373073" lon="11.4772428"><ele>11.25</ele><time>2026-04-15T11:56:42.17Z</time></trkpt><trkpt lat="44.6372491" lon="11.477385"><ele>11.5</ele><time>2026-04-15T11:56:43.178Z</time></trkpt><trkpt lat="44.6371885" lon="11.4775366"><ele>11.75</ele><time>2026-04-15T11:56:44.186Z</time></trkpt><trkpt lat="44.6371242" lon="11.4776959"><ele>12.0</ele><time>2026-04-15T11:56:45.192Z</time></trkpt><trkpt lat="44.637054" lon="11.4778625"><ele>12.25</ele><time>2026-04-15T11:56:46.2Z</time></trkpt><trkpt lat="44.636985" lon="11.4780342"><ele>12.5</ele><time>2026-04-15T11:56:47.189Z</time></trkpt><trkpt lat="44.6369069" lon="11.4782102"><ele>12.75</ele><time>2026-04-15T11:56:48.191Z</time></trkpt><trkpt lat="44.6368225" lon="11.4783929"><ele>13.0</ele><time>2026-04-15T11:56:49.18Z</time></trkpt><trkpt lat="44.6367333" lon="11.478576"><ele>13.0</ele><time>2026-04-15T11:56:50.177Z</time></trkpt><trkpt lat="44.6366419" lon="11.4787548"><ele>13.0</ele><time>2026-04-15T11:56:51.182Z</time></trkpt><trkpt lat="44.6365486" lon="11.4789337"><ele>13.0</ele><time>2026-04-15T11:56:52.184Z</time></trkpt><trkpt lat="44.6364551" lon="11.4791094"><ele>13.0</ele><time>2026-04-15T11:56:53.159Z</time></trkpt><trkpt lat="44.6363618" lon="11.4792826"><ele>13.0</ele><time>2026-04-15T11:56:54.186Z</time></trkpt><trkpt lat="44.6362627" lon="11.4794512"><ele>13.0</ele><time>2026-04-15T11:56:55.176Z</time></trkpt><trkpt lat="44.6361591" lon="11.4796264"><ele>12.333333333333332</ele><time>2026-04-15T11:56:56.178Z</time></trkpt><trkpt lat="44.636042" lon="11.4798215"><ele>11.666666666666666</ele><time>2026-04-15T11:56:57.183Z</time></trkpt><trkpt lat="44.6358985" lon="11.480027"><ele>11.0</ele><time>2026-04-15T11:56:58.15Z</time></trkpt><trkpt lat="44.6357428" lon="11.4802475"><ele>10.5</ele><time>2026-04-15T11:56:59.184Z</time></trkpt><trkpt lat="44.6355823" lon="11.480477"><ele>10.0</ele><time>2026-04-15T11:57:00.187Z</time></trkpt><trkpt lat="44.6354279" lon="11.4806995"><ele>10.0</ele><time>2026-04-15T11:57:01.174Z</time></trkpt><trkpt lat="44.6352956" lon="11.4809053"><ele>10.0</ele><time>2026-04-15T11:57:02.186Z</time></trkpt><trkpt lat="44.6351768" lon="11.481106"><ele>10.0</ele><time>2026-04-15T11:57:03.195Z</time></trkpt><trkpt lat="44.6350511" lon="11.4813219"><ele>9.666666666666668</ele><time>2026-04-15T11:57:04.196Z</time></trkpt><trkpt lat="44.6349281" lon="11.4815724"><ele>9.333333333333334</ele><time>2026-04-15T11:57:05.189Z</time></trkpt><trkpt lat="44.6347978" lon="11.4818315"><ele>9.0</ele><time>2026-04-15T11:57:06.195Z</time></trkpt><trkpt lat="44.6346748" lon="11.4820891"><ele>9.333333333333334</ele><time>2026-04-15T11:57:07.161Z</time></trkpt><trkpt lat="44.634547" lon="11.4823444"><ele>9.666666666666668</ele><time>2026-04-15T11:57:08.185Z</time></trkpt><trkpt lat="44.6344164" lon="11.4826054"><ele>10.0</ele><time>2026-04-15T11:57:09.191Z</time></trkpt><trkpt lat="44.6342906" lon="11.4828724"><ele>11.0</ele><time>2026-04-15T11:57:10.185Z</time></trkpt><trkpt lat="44.6341693" lon="11.4831493"><ele>12.0</ele><time>2026-04-15T11:57:11.159Z</time></trkpt><trkpt lat="44.6340526" lon="11.4834285"><ele>12.0</ele><time>2026-04-15T11:57:12.168Z</time></trkpt><trkpt lat="44.6339408" lon="11.4837113"><ele>12.0</ele><time>2026-04-15T11:57:13.167Z</time></trkpt><trkpt lat="44.6338419" lon="11.483997"><ele>12.0</ele><time>2026-04-15T11:57:14.178Z</time></trkpt><trkpt lat="44.6337528" lon="11.4842774"><ele>12.0</ele><time>2026-04-15T11:57:15.173Z</time></trkpt><trkpt lat="44.6336654" lon="11.4845361"><ele>12.0</ele><time>2026-04-15T11:57:16.168Z</time></trkpt><trkpt lat="44.6335862" lon="11.4847832"><ele>11.666666666666666</ele><time>2026-04-15T11:57:17.175Z</time></trkpt><trkpt lat="44.6335108" lon="11.4850209"><ele>11.333333333333332</ele><time>2026-04-15T11:57:18.174Z</time></trkpt><trkpt lat="44.6334395" lon="11.485241"><ele>11.0</ele><time>2026-04-15T11:57:19.168Z</time></trkpt><trkpt lat="44.6333728" lon="11.4854399"><ele>11.0</ele><time>2026-04-15T11:57:20.156Z</time></trkpt><trkpt lat="44.6333005" lon="11.4856158"><ele>11.0</ele><time>2026-04-15T11:57:21.16Z</time></trkpt><trkpt lat="44.6332282" lon="11.4857749"><ele>11.0</ele><time>2026-04-15T11:57:22.192Z</time></trkpt><trkpt lat="44.6331534" lon="11.4859227"><ele>11.0</ele><time>2026-04-15T11:57:23.172Z</time></trkpt><trkpt lat="44.6330711" lon="11.4860439"><ele>11.0</ele><time>2026-04-15T11:57:24.175Z</time></trkpt><trkpt lat="44.6329784" lon="11.4861401"><ele>11.0</ele><time>2026-04-15T11:57:25.175Z</time></trkpt><trkpt lat="44.6328726" lon="11.4862066"><ele>11.0</ele><time>2026-04-15T11:57:26.195Z</time></trkpt><trkpt lat="44.6327643" lon="11.4862406"><ele>11.0</ele><time>2026-04-15T11:57:27.179Z</time></trkpt><trkpt lat="44.6326566" lon="11.4862529"><ele>10.75</ele><time>2026-04-15T11:57:28.163Z</time></trkpt><trkpt lat="44.6325364" lon="11.4862339"><ele>10.5</ele><time>2026-04-15T11:57:29.175Z</time></trkpt><trkpt lat="44.6324214" lon="11.4861895"><ele>10.25</ele><time>2026-04-15T11:57:30.185Z</time></trkpt><trkpt lat="44.6323045" lon="11.4861302"><ele>10.0</ele><time>2026-04-15T11:57:31.194Z</time></trkpt><trkpt lat="44.6321699" lon="11.4860419"><ele>10.0</ele><time>2026-04-15T11:57:32.191Z</time></trkpt><trkpt lat="44.6320107" lon="11.4859165"><ele>10.0</ele><time>2026-04-15T11:57:33.193Z</time></trkpt><trkpt lat="44.6318399" lon="11.4857516"><ele>10.0</ele><time>2026-04-15T11:57:34.164Z</time></trkpt><trkpt lat="44.6316639" lon="11.4855602"><ele>9.5</ele><time>2026-04-15T11:57:35.168Z</time></trkpt><trkpt lat="44.6314595" lon="11.4853698"><ele>9.0</ele><time>2026-04-15T11:57:36.171Z</time></trkpt><trkpt lat="44.6312377" lon="11.4851721"><ele>9.5</ele><time>2026-04-15T11:57:37.173Z</time></trkpt><trkpt lat="44.6310134" lon="11.4849623"><ele>10.0</ele><time>2026-04-15T11:57:38.182Z</time></trkpt><trkpt lat="44.6307877" lon="11.4847666"><ele>9.5</ele><time>2026-04-15T11:57:39.181Z</time></trkpt><trkpt lat="44.6305719" lon="11.48458"><ele>9.0</ele><time>2026-04-15T11:57:40.199Z</time></trkpt><trkpt lat="44.6303551" lon="11.4843938"><ele>11.0</ele><time>2026-04-15T11:57:41.164Z</time></trkpt><trkpt lat="44.6301408" lon="11.4842029"><ele>13.0</ele><time>2026-04-15T11:57:42.177Z</time></trkpt><trkpt lat="44.6299181" lon="11.4840151"><ele>13.0</ele><time>2026-04-15T11:57:43.172Z</time></trkpt><trkpt lat="44.6296942" lon="11.4838282"><ele>13.0</ele><time>2026-04-15T11:57:44.18Z</time></trkpt><trkpt lat="44.6294747" lon="11.483636"><ele>11.0</ele><time>2026-04-15T11:57:45.161Z</time></trkpt><trkpt lat="44.6292572" lon="11.4834468"><ele>9.0</ele><time>2026-04-15T11:57:46.188Z</time></trkpt><trkpt lat="44.6290441" lon="11.4832605"><ele>9.0</ele><time>2026-04-15T11:57:47.189Z</time></trkpt><trkpt lat="44.6288358" lon="11.4830726"><ele>9.0</ele><time>2026-04-15T11:57:48.183Z</time></trkpt><trkpt lat="44.6286258" lon="11.4828877"><ele>9.5</ele><time>2026-04-15T11:57:49.18Z</time></trkpt><trkpt lat="44.6284089" lon="11.4827"><ele>10.0</ele><time>2026-04-15T11:57:50.193Z</time></trkpt><trkpt lat="44.6281935" lon="11.482513"><ele>10.0</ele><time>2026-04-15T11:57:51.194Z</time></trkpt><trkpt lat="44.6279831" lon="11.4823322"><ele>10.0</ele><time>2026-04-15T11:57:52.206Z</time></trkpt><trkpt lat="44.6277772" lon="11.4821541"><ele>10.666666666666668</ele><time>2026-04-15T11:57:53.18Z</time></trkpt><trkpt lat="44.6275851" lon="11.4819772"><ele>11.333333333333334</ele><time>2026-04-15T11:57:54.188Z</time></trkpt><trkpt lat="44.6274053" lon="11.4818092"><ele>12.0</ele><time>2026-04-15T11:57:55.164Z</time></trkpt><trkpt lat="44.6272386" lon="11.4816403"><ele>12.0</ele><time>2026-04-15T11:57:56.149Z</time></trkpt><trkpt lat="44.627088" lon="11.4814827"><ele>12.0</ele><time>2026-04-15T11:57:57.184Z</time></trkpt><trkpt lat="44.6269673" lon="11.481344"><ele>12.0</ele><time>2026-04-15T11:57:58.168Z</time></trkpt><trkpt lat="44.626885" lon="11.481205"><ele>11.6</ele><time>2026-04-15T11:57:59.191Z</time></trkpt><trkpt lat="44.6268338" lon="11.4810673"><ele>11.2</ele><time>2026-04-15T11:58:00.193Z</time></trkpt><trkpt lat="44.6267681" lon="11.4809554"><ele>10.8</ele><time>2026-04-15T11:58:01.172Z</time></trkpt><trkpt lat="44.6266772" lon="11.4809035"><ele>10.4</ele><time>2026-04-15T11:58:02.168Z</time></trkpt><trkpt lat="44.6265536" lon="11.4808779"><ele>10.0</ele><time>2026-04-15T11:58:03.161Z</time></trkpt><trkpt lat="44.6264306" lon="11.4808193"><ele>10.0</ele><time>2026-04-15T11:58:04.199Z</time></trkpt><trkpt lat="44.6263013" lon="11.4806739"><ele>10.0</ele><time>2026-04-15T11:58:05.168Z</time></trkpt><trkpt lat="44.626168" lon="11.4804795"><ele>10.0</ele><time>2026-04-15T11:58:06.179Z</time></trkpt><trkpt lat="44.6260058" lon="11.48025"><ele>10.5</ele><time>2026-04-15T11:58:07.171Z</time></trkpt><trkpt lat="44.6258304" lon="11.4799941"><ele>11.0</ele><time>2026-04-15T11:58:08.16Z</time></trkpt><trkpt lat="44.6256482" lon="11.4797278"><ele>11.0</ele><time>2026-04-15T11:58:09.174Z</time></trkpt><trkpt lat="44.6254719" lon="11.4794646"><ele>11.0</ele><time>2026-04-15T11:58:10.148Z</time></trkpt><trkpt lat="44.6253024" lon="11.4792244"><ele>11.0</ele><time>2026-04-15T11:58:11.178Z</time></trkpt><trkpt lat="44.625143" lon="11.4789913"><ele>11.0</ele><time>2026-04-15T11:58:12.183Z</time></trkpt><trkpt lat="44.6249914" lon="11.478775"><ele>11.0</ele><time>2026-04-15T11:58:13.179Z</time></trkpt><trkpt lat="44.6248514" lon="11.4785644"><ele>11.0</ele><time>2026-04-15T11:58:14.186Z</time></trkpt><trkpt lat="44.6247076" lon="11.4783561"><ele>11.0</ele><time>2026-04-15T11:58:15.182Z</time></trkpt><trkpt lat="44.6245706" lon="11.4781557"><ele>11.0</ele><time>2026-04-15T11:58:16.182Z</time></trkpt><trkpt lat="44.6244394" lon="11.4779596"><ele>10.333333333333332</ele><time>2026-04-15T11:58:17.18Z</time></trkpt><trkpt lat="44.6243096" lon="11.4777591"><ele>9.666666666666666</ele><time>2026-04-15T11:58:18.188Z</time></trkpt><trkpt lat="44.6241832" lon="11.4775613"><ele>9.0</ele><time>2026-04-15T11:58:19.177Z</time></trkpt><trkpt lat="44.6240551" lon="11.4773705"><ele>9.0</ele><time>2026-04-15T11:58:20.191Z</time></trkpt><trkpt lat="44.6239224" lon="11.477192"><ele>9.0</ele><time>2026-04-15T11:58:21.18Z</time></trkpt><trkpt lat="44.6237884" lon="11.4770199"><ele>9.0</ele><time>2026-04-15T11:58:22.18Z</time></trkpt><trkpt lat="44.6236468" lon="11.4768656"><ele>9.0</ele><time>2026-04-15T11:58:23.188Z</time></trkpt><trkpt lat="44.6234965" lon="11.4767322"><ele>9.0</ele><time>2026-04-15T11:58:24.16Z</time></trkpt><trkpt lat="44.6233391" lon="11.4766162"><ele>9.0</ele><time>2026-04-15T11:58:25.172Z</time></trkpt><trkpt lat="44.6231885" lon="11.4764991"><ele>9.0</ele><time>2026-04-15T11:58:26.174Z</time></trkpt><trkpt lat="44.6230403" lon="11.4763799"><ele>9.0</ele><time>2026-04-15T11:58:27.159Z</time></trkpt><trkpt lat="44.6228869" lon="11.4762755"><ele>9.0</ele><time>2026-04-15T11:58:28.184Z</time></trkpt><trkpt lat="44.6227346" lon="11.4761804"><ele>8.666666666666666</ele><time>2026-04-15T11:58:29.163Z</time></trkpt><trkpt lat="44.6225893" lon="11.4760746"><ele>8.333333333333332</ele><time>2026-04-15T11:58:30.173Z</time></trkpt><trkpt lat="44.6224461" lon="11.4759676"><ele>8.0</ele><time>2026-04-15T11:58:31.18Z</time></trkpt><trkpt lat="44.6223" lon="11.4758646"><ele>8.0</ele><time>2026-04-15T11:58:32.188Z</time></trkpt><trkpt lat="44.6221496" lon="11.4757653"><ele>8.0</ele><time>2026-04-15T11:58:33.174Z</time></trkpt><trkpt lat="44.6219985" lon="11.4756641"><ele>8.0</ele><time>2026-04-15T11:58:34.191Z</time></trkpt><trkpt lat="44.6218462" lon="11.4755506"><ele>8.333333333333332</ele><time>2026-04-15T11:58:35.177Z</time></trkpt><trkpt lat="44.6216846" lon="11.4754339"><ele>8.666666666666666</ele><time>2026-04-15T11:58:36.184Z</time></trkpt><trkpt lat="44.6215152" lon="11.4753147"><ele>9.0</ele><time>2026-04-15T11:58:37.156Z</time></trkpt><trkpt lat="44.6213469" lon="11.4752061"><ele>9.0</ele><time>2026-04-15T11:58:38.164Z</time></trkpt><trkpt lat="44.6211798" lon="11.4750925"><ele>9.0</ele><time>2026-04-15T11:58:39.159Z</time></trkpt><trkpt lat="44.6210078" lon="11.4749741"><ele>9.0</ele><time>2026-04-15T11:58:40.184Z</time></trkpt><trkpt lat="44.6208374" lon="11.4748547"><ele>10.0</ele><time>2026-04-15T11:58:41.163Z</time></trkpt><trkpt lat="44.6206693" lon="11.4747399"><ele>11.0</ele><time>2026-04-15T11:58:42.172Z</time></trkpt><trkpt lat="44.6205102" lon="11.4746284"><ele>12.0</ele><time>2026-04-15T11:58:43.175Z</time></trkpt><trkpt lat="44.6203671" lon="11.4745271"><ele>12.0</ele><time>2026-04-15T11:58:44.175Z</time></trkpt><trkpt lat="44.6202381" lon="11.4744379"><ele>12.0</ele><time>2026-04-15T11:58:45.175Z</time></trkpt><trkpt lat="44.6201264" lon="11.4743619"><ele>12.0</ele><time>2026-04-15T11:58:46.158Z</time></trkpt><trkpt lat="44.6200169" lon="11.4742912"><ele>12.0</ele><time>2026-04-15T11:58:47.163Z</time></trkpt><trkpt lat="44.6199181" lon="11.4742193"><ele>12.0</ele><time>2026-04-15T11:58:48.173Z</time></trkpt><trkpt lat="44.6198243" lon="11.4741555"><ele>12.0</ele><time>2026-04-15T11:58:49.171Z</time></trkpt><trkpt lat="44.6197303" lon="11.4740942"><ele>12.0</ele><time>2026-04-15T11:58:50.146Z</time></trkpt><trkpt lat="44.6196288" lon="11.4740285"><ele>12.0</ele><time>2026-04-15T11:58:51.175Z</time></trkpt><trkpt lat="44.6195274" lon="11.4739681"><ele>12.0</ele><time>2026-04-15T11:58:52.182Z</time></trkpt><trkpt lat="44.619428" lon="11.47391"><ele>12.0</ele><time>2026-04-15T11:58:53.174Z</time></trkpt><trkpt lat="44.6193268" lon="11.4738481"><ele>12.0</ele><time>2026-04-15T11:58:54.192Z</time></trkpt><trkpt lat="44.6192241" lon="11.4737992"><ele>12.0</ele><time>2026-04-15T11:58:55.168Z</time></trkpt><trkpt lat="44.6191241" lon="11.4737577"><ele>12.0</ele><time>2026-04-15T11:58:56.175Z</time></trkpt><trkpt lat="44.6190161" lon="11.4737334"><ele>12.0</ele><time>2026-04-15T11:58:57.148Z</time></trkpt><trkpt lat="44.6189182" lon="11.4737387"><ele>12.0</ele><time>2026-04-15T11:58:58.157Z</time></trkpt><trkpt lat="44.618826" lon="11.473757"><ele>12.0</ele><time>2026-04-15T11:58:59.15Z</time></trkpt><trkpt lat="44.6187405" lon="11.4737767"><ele>12.0</ele><time>2026-04-15T11:59:00.145Z</time></trkpt><trkpt lat="44.6186528" lon="11.4737745"><ele>12.0</ele><time>2026-04-15T11:59:01.159Z</time></trkpt><trkpt lat="44.618572" lon="11.4737529"><ele>12.0</ele><time>2026-04-15T11:59:02.161Z</time></trkpt><trkpt lat="44.618501" lon="11.4737034"><ele>12.0</ele><time>2026-04-15T11:59:03.141Z</time></trkpt><trkpt lat="44.6184375" lon="11.473634"><ele>11.833333333333334</ele><time>2026-04-15T11:59:04.148Z</time></trkpt><trkpt lat="44.6183707" lon="11.4735608"><ele>11.666666666666666</ele><time>2026-04-15T11:59:05.16Z</time></trkpt><trkpt lat="44.6183023" lon="11.473492"><ele>11.5</ele><time>2026-04-15T11:59:06.164Z</time></trkpt><trkpt lat="44.6182348" lon="11.4734143"><ele>11.333333333333332</ele><time>2026-04-15T11:59:07.155Z</time></trkpt><trkpt lat="44.6181648" lon="11.4733366"><ele>11.166666666666666</ele><time>2026-04-15T11:59:08.141Z</time></trkpt><trkpt lat="44.6180951" lon="11.4732602"><ele>11.0</ele><time>2026-04-15T11:59:09.163Z</time></trkpt><trkpt lat="44.618024" lon="11.4731792"><ele>11.0</ele><time>2026-04-15T11:59:10.189Z</time></trkpt><trkpt lat="44.6179479" lon="11.4731033"><ele>11.0</ele><time>2026-04-15T11:59:11.176Z</time></trkpt><trkpt lat="44.6178651" lon="11.4730086"><ele>11.0</ele><time>2026-04-15T11:59:12.169Z</time></trkpt><trkpt lat="44.6177657" lon="11.4729029"><ele>11.0</ele><time>2026-04-15T11:59:13.182Z</time></trkpt><trkpt lat="44.6176593" lon="11.4727914"><ele>11.166666666666666</ele><time>2026-04-15T11:59:14.177Z</time></trkpt><trkpt lat="44.6175734" lon="11.4726873"><ele>11.333333333333332</ele><time>2026-04-15T11:59:15.173Z</time></trkpt><trkpt lat="44.6175027" lon="11.4725951"><ele>11.5</ele><time>2026-04-15T11:59:16.181Z</time></trkpt><trkpt lat="44.6174451" lon="11.4725244"><ele>11.666666666666666</ele><time>2026-04-15T11:59:17.175Z</time></trkpt><trkpt lat="44.6173914" lon="11.4724699"><ele>11.833333333333334</ele><time>2026-04-15T11:59:18.184Z</time></trkpt><trkpt lat="44.6173038" lon="11.4724165"><ele>12.0</ele><time>2026-04-15T11:59:20.168Z</time></trkpt><trkpt lat="44.617255" lon="11.4723462"><ele>12.0</ele><time>2026-04-15T11:59:31.171Z</time></trkpt><trkpt lat="44.6171904" lon="11.472253"><ele>12.0</ele><time>2026-04-15T11:59:32.17Z</time></trkpt><trkpt lat="44.6171039" lon="11.4721381"><ele>12.0</ele><time>2026-04-15T11:59:33.168Z</time></trkpt><trkpt lat="44.6169943" lon="11.4719995"><ele>12.0</ele><time>2026-04-15T11:59:34.15Z</time></trkpt><trkpt lat="44.616868" lon="11.4718572"><ele>12.5</ele><time>2026-04-15T11:59:35.163Z</time></trkpt><trkpt lat="44.6167452" lon="11.4717197"><ele>13.0</ele><time>2026-04-15T11:59:36.159Z</time></trkpt><trkpt lat="44.6166361" lon="11.4715893"><ele>13.5</ele><time>2026-04-15T11:59:37.156Z</time></trkpt><trkpt lat="44.6165216" lon="11.4714682"><ele>14.0</ele><time>2026-04-15T11:59:38.163Z</time></trkpt><trkpt lat="44.6164095" lon="11.4713501"><ele>14.0</ele><time>2026-04-15T11:59:39.161Z</time></trkpt><trkpt lat="44.6162898" lon="11.4712336"><ele>14.0</ele><time>2026-04-15T11:59:40.158Z</time></trkpt><trkpt lat="44.6161751" lon="11.4711136"><ele>14.0</ele><time>2026-04-15T11:59:41.18Z</time></trkpt><trkpt lat="44.6160582" lon="11.4709937"><ele>14.0</ele><time>2026-04-15T11:59:42.17Z</time></trkpt><trkpt lat="44.6159352" lon="11.470874"><ele>14.0</ele><time>2026-04-15T11:59:43.172Z</time></trkpt><trkpt lat="44.6158145" lon="11.4707499"><ele>14.0</ele><time>2026-04-15T11:59:44.178Z</time></trkpt><trkpt lat="44.6157021" lon="11.4706231"><ele>14.0</ele><time>2026-04-15T11:59:45.134Z</time></trkpt><trkpt lat="44.6155888" lon="11.4704995"><ele>14.0</ele><time>2026-04-15T11:59:46.177Z</time></trkpt><trkpt lat="44.6154735" lon="11.4703799"><ele>14.0</ele><time>2026-04-15T11:59:47.178Z</time></trkpt><trkpt lat="44.6153545" lon="11.4702579"><ele>14.0</ele><time>2026-04-15T11:59:48.175Z</time></trkpt><trkpt lat="44.6152355" lon="11.4701362"><ele>14.0</ele><time>2026-04-15T11:59:49.175Z</time></trkpt><trkpt lat="44.6151216" lon="11.4700032"><ele>14.0</ele><time>2026-04-15T11:59:50.173Z</time></trkpt><trkpt lat="44.6150073" lon="11.4698761"><ele>14.0</ele><time>2026-04-15T11:59:51.152Z</time></trkpt><trkpt lat="44.6148947" lon="11.4697545"><ele>14.0</ele><time>2026-04-15T11:59:52.148Z</time></trkpt><trkpt lat="44.6147749" lon="11.4696316"><ele>14.0</ele><time>2026-04-15T11:59:53.149Z</time></trkpt><trkpt lat="44.6146593" lon="11.46951"><ele>14.0</ele><time>2026-04-15T11:59:54.162Z</time></trkpt><trkpt lat="44.6145517" lon="11.4693779"><ele>13.799999999999999</ele><time>2026-04-15T11:59:55.153Z</time></trkpt><trkpt lat="44.6144523" lon="11.4692567"><ele>13.599999999999998</ele><time>2026-04-15T11:59:56.167Z</time></trkpt><trkpt lat="44.6143778" lon="11.469162"><ele>13.4</ele><time>2026-04-15T11:59:57.139Z</time></trkpt><trkpt lat="44.6143167" lon="11.4690779"><ele>13.2</ele><time>2026-04-15T11:59:58.141Z</time></trkpt><trkpt lat="44.6142524" lon="11.4689999"><ele>13.0</ele><time>2026-04-15T11:59:59.156Z</time></trkpt><trkpt lat="44.6141755" lon="11.4689776"><ele>13.0</ele><time>2026-04-15T12:00:00.148Z</time></trkpt><trkpt lat="44.6140956" lon="11.4690106"><ele>13.0</ele><time>2026-04-15T12:00:01.164Z</time></trkpt><trkpt lat="44.6140314" lon="11.4691046"><ele>13.0</ele><time>2026-04-15T12:00:02.188Z</time></trkpt><trkpt lat="44.6139629" lon="11.4692551"><ele>13.0</ele><time>2026-04-15T12:00:03.17Z</time></trkpt><trkpt lat="44.6138839" lon="11.469434"><ele>13.0</ele><time>2026-04-15T12:00:04.18Z</time></trkpt><trkpt lat="44.6137817" lon="11.4696506"><ele>13.0</ele><time>2026-04-15T12:00:05.167Z</time></trkpt><trkpt lat="44.6136754" lon="11.4698977"><ele>13.0</ele><time>2026-04-15T12:00:06.159Z</time></trkpt><trkpt lat="44.6135645" lon="11.4701536"><ele>12.5</ele><time>2026-04-15T12:00:07.144Z</time></trkpt><trkpt lat="44.6134488" lon="11.4704298"><ele>12.0</ele><time>2026-04-15T12:00:08.161Z</time></trkpt><trkpt lat="44.6133289" lon="11.4707222"><ele>11.5</ele><time>2026-04-15T12:00:09.132Z</time></trkpt><trkpt lat="44.6132027" lon="11.4710152"><ele>11.0</ele><time>2026-04-15T12:00:10.145Z</time></trkpt><trkpt lat="44.6130755" lon="11.4713029"><ele>11.0</ele><time>2026-04-15T12:00:11.151Z</time></trkpt><trkpt lat="44.6129446" lon="11.4715854"><ele>11.0</ele><time>2026-04-15T12:00:12.157Z</time></trkpt><trkpt lat="44.6127975" lon="11.4718624"><ele>11.5</ele><time>2026-04-15T12:00:13.179Z</time></trkpt><trkpt lat="44.6126396" lon="11.4721392"><ele>12.0</ele><time>2026-04-15T12:00:14.183Z</time></trkpt><trkpt lat="44.6124797" lon="11.4724142"><ele>12.0</ele><time>2026-04-15T12:00:15.176Z</time></trkpt><trkpt lat="44.6123222" lon="11.4726866"><ele>12.0</ele><time>2026-04-15T12:00:16.148Z</time></trkpt><trkpt lat="44.6121645" lon="11.4729641"><ele>11.5</ele><time>2026-04-15T12:00:17.18Z</time></trkpt><trkpt lat="44.6120077" lon="11.4732367"><ele>11.0</ele><time>2026-04-15T12:00:18.13Z</time></trkpt><trkpt lat="44.6118523" lon="11.4735101"><ele>12.5</ele><time>2026-04-15T12:00:19.168Z</time></trkpt><trkpt lat="44.6116966" lon="11.4737848"><ele>14.0</ele><time>2026-04-15T12:00:20.178Z</time></trkpt><trkpt lat="44.6115432" lon="11.4740539"><ele>14.0</ele><time>2026-04-15T12:00:21.172Z</time></trkpt><trkpt lat="44.6113876" lon="11.4743244"><ele>14.0</ele><time>2026-04-15T12:00:22.175Z</time></trkpt><trkpt lat="44.6112348" lon="11.4745873"><ele>14.333333333333334</ele><time>2026-04-15T12:00:23.174Z</time></trkpt><trkpt lat="44.61109" lon="11.474837"><ele>14.666666666666668</ele><time>2026-04-15T12:00:24.165Z</time></trkpt><trkpt lat="44.6109492" lon="11.4750711"><ele>15.0</ele><time>2026-04-15T12:00:25.177Z</time></trkpt><trkpt lat="44.6108201" lon="11.4752859"><ele>15.0</ele><time>2026-04-15T12:00:26.178Z</time></trkpt><trkpt lat="44.6106985" lon="11.4755047"><ele>15.0</ele><time>2026-04-15T12:00:27.133Z</time></trkpt><trkpt lat="44.6105799" lon="11.4757215"><ele>15.0</ele><time>2026-04-15T12:00:28.183Z</time></trkpt><trkpt lat="44.6104636" lon="11.475931"><ele>15.0</ele><time>2026-04-15T12:00:29.156Z</time></trkpt><trkpt lat="44.6103518" lon="11.4761251"><ele>15.0</ele><time>2026-04-15T12:00:30.15Z</time></trkpt><trkpt lat="44.6102487" lon="11.4763066"><ele>15.0</ele><time>2026-04-15T12:00:31.17Z</time></trkpt><trkpt lat="44.6101455" lon="11.4764763"><ele>15.25</ele><time>2026-04-15T12:00:32.181Z</time></trkpt><trkpt lat="44.6100566" lon="11.4766274"><ele>15.5</ele><time>2026-04-15T12:00:33.181Z</time></trkpt><trkpt lat="44.6099787" lon="11.476767"><ele>15.75</ele><time>2026-04-15T12:00:34.141Z</time></trkpt><trkpt lat="44.6099176" lon="11.476904"><ele>16.0</ele><time>2026-04-15T12:00:35.145Z</time></trkpt><trkpt lat="44.6098802" lon="11.4770337"><ele>15.999999999999998</ele><time>2026-04-15T12:00:36.156Z</time></trkpt><trkpt lat="44.6098386" lon="11.4771357"><ele>16.0</ele><time>2026-04-15T12:00:37.149Z</time></trkpt><trkpt lat="44.6097819" lon="11.4772087"><ele>16.0</ele><time>2026-04-15T12:00:38.145Z</time></trkpt><trkpt lat="44.6097097" lon="11.4772119"><ele>16.0</ele><time>2026-04-15T12:00:39.139Z</time></trkpt><trkpt lat="44.6096233" lon="11.4771746"><ele>15.999999999999998</ele><time>2026-04-15T12:00:40.149Z</time></trkpt><trkpt lat="44.609551" lon="11.4770857"><ele>16.0</ele><time>2026-04-15T12:00:41.156Z</time></trkpt><trkpt lat="44.6094692" lon="11.4769529"><ele>16.5</ele><time>2026-04-15T12:00:42.154Z</time></trkpt><trkpt lat="44.6093723" lon="11.4768024"><ele>17.0</ele><time>2026-04-15T12:00:43.188Z</time></trkpt><trkpt lat="44.6092634" lon="11.4766572"><ele>17.5</ele><time>2026-04-15T12:00:44.182Z</time></trkpt><trkpt lat="44.609162" lon="11.476539"><ele>18.0</ele><time>2026-04-15T12:00:45.167Z</time></trkpt><trkpt lat="44.6090566" lon="11.4764481"><ele>18.0</ele><time>2026-04-15T12:00:46.171Z</time></trkpt><trkpt lat="44.6089225" lon="11.4763702"><ele>18.0</ele><time>2026-04-15T12:00:47.161Z</time></trkpt><trkpt lat="44.6087694" lon="11.4763234"><ele>18.0</ele><time>2026-04-15T12:00:48.159Z</time></trkpt><trkpt lat="44.6086001" lon="11.4763169"><ele>18.0</ele><time>2026-04-15T12:00:49.157Z</time></trkpt><trkpt lat="44.6084267" lon="11.4763399"><ele>18.0</ele><time>2026-04-15T12:00:50.171Z</time></trkpt><trkpt lat="44.608248" lon="11.476364"><ele>18.0</ele><time>2026-04-15T12:00:51.163Z</time></trkpt><trkpt lat="44.6080678" lon="11.476383"><ele>18.0</ele><time>2026-04-15T12:00:52.152Z</time></trkpt><trkpt lat="44.6078984" lon="11.4763916"><ele>18.0</ele><time>2026-04-15T12:00:53.155Z</time></trkpt><trkpt lat="44.6077282" lon="11.4764001"><ele>18.0</ele><time>2026-04-15T12:00:54.166Z</time></trkpt><trkpt lat="44.6075574" lon="11.4763907"><ele>17.0</ele><time>2026-04-15T12:00:55.15Z</time></trkpt><trkpt lat="44.607382" lon="11.47637"><ele>16.0</ele><time>2026-04-15T12:00:56.156Z</time></trkpt><trkpt lat="44.6072029" lon="11.4763465"><ele>15.0</ele><time>2026-04-15T12:00:57.144Z</time></trkpt><trkpt lat="44.6070124" lon="11.4763231"><ele>15.333333333333332</ele><time>2026-04-15T12:00:58.18Z</time></trkpt><trkpt lat="44.6068147" lon="11.4762965"><ele>15.666666666666666</ele><time>2026-04-15T12:00:59.127Z</time></trkpt><trkpt lat="44.6066205" lon="11.4762618"><ele>16.0</ele><time>2026-04-15T12:01:00.145Z</time></trkpt><trkpt lat="44.6064295" lon="11.4762056"><ele>16.0</ele><time>2026-04-15T12:01:01.138Z</time></trkpt><trkpt lat="44.6062389" lon="11.4761111"><ele>16.0</ele><time>2026-04-15T12:01:02.149Z</time></trkpt><trkpt lat="44.6060592" lon="11.4759905"><ele>16.0</ele><time>2026-04-15T12:01:03.162Z</time></trkpt><trkpt lat="44.6058919" lon="11.4758386"><ele>16.333333333333332</ele><time>2026-04-15T12:01:04.166Z</time></trkpt><trkpt lat="44.6057295" lon="11.4756593"><ele>16.666666666666668</ele><time>2026-04-15T12:01:05.163Z</time></trkpt><trkpt lat="44.6055708" lon="11.4754656"><ele>17.0</ele><time>2026-04-15T12:01:06.175Z</time></trkpt><trkpt lat="44.6054068" lon="11.4752849"><ele>17.0</ele><time>2026-04-15T12:01:07.171Z</time></trkpt><trkpt lat="44.6052403" lon="11.4751201"><ele>17.0</ele><time>2026-04-15T12:01:08.176Z</time></trkpt><trkpt lat="44.6050757" lon="11.4749736"><ele>17.0</ele><time>2026-04-15T12:01:09.141Z</time></trkpt><trkpt lat="44.6049056" lon="11.4748518"><ele>17.0</ele><time>2026-04-15T12:01:10.177Z</time></trkpt><trkpt lat="44.6047344" lon="11.4747429"><ele>17.0</ele><time>2026-04-15T12:01:11.187Z</time></trkpt><trkpt lat="44.604556" lon="11.4746456"><ele>17.0</ele><time>2026-04-15T12:01:12.168Z</time></trkpt><trkpt lat="44.6043729" lon="11.4745452"><ele>16.666666666666668</ele><time>2026-04-15T12:01:13.156Z</time></trkpt><trkpt lat="44.6041984" lon="11.4744309"><ele>16.333333333333332</ele><time>2026-04-15T12:01:14.146Z</time></trkpt><trkpt lat="44.6040282" lon="11.4742746"><ele>16.0</ele><time>2026-04-15T12:01:15.164Z</time></trkpt><trkpt lat="44.603861" lon="11.4740881"><ele>16.0</ele><time>2026-04-15T12:01:16.156Z</time></trkpt><trkpt lat="44.6036986" lon="11.4738855"><ele>16.0</ele><time>2026-04-15T12:01:17.161Z</time></trkpt><trkpt lat="44.6035405" lon="11.4736806"><ele>16.0</ele><time>2026-04-15T12:01:18.134Z</time></trkpt><trkpt lat="44.6033888" lon="11.4734883"><ele>16.333333333333332</ele><time>2026-04-15T12:01:19.152Z</time></trkpt><trkpt lat="44.6032364" lon="11.4733072"><ele>16.666666666666668</ele><time>2026-04-15T12:01:20.152Z</time></trkpt><trkpt lat="44.603086" lon="11.4731437"><ele>17.0</ele><time>2026-04-15T12:01:21.164Z</time></trkpt><trkpt lat="44.6029279" lon="11.4729864"><ele>17.666666666666668</ele><time>2026-04-15T12:01:22.161Z</time></trkpt><trkpt lat="44.6027632" lon="11.4728492"><ele>18.333333333333332</ele><time>2026-04-15T12:01:23.162Z</time></trkpt><trkpt lat="44.6026001" lon="11.4727128"><ele>19.0</ele><time>2026-04-15T12:01:24.172Z</time></trkpt><trkpt lat="44.6024334" lon="11.4725757"><ele>19.0</ele><time>2026-04-15T12:01:25.171Z</time></trkpt><trkpt lat="44.6022708" lon="11.4724349"><ele>19.0</ele><time>2026-04-15T12:01:26.178Z</time></trkpt><trkpt lat="44.6021058" lon="11.472302"><ele>19.0</ele><time>2026-04-15T12:01:27.141Z</time></trkpt><trkpt lat="44.6019428" lon="11.472173"><ele>19.0</ele><time>2026-04-15T12:01:28.179Z</time></trkpt><trkpt lat="44.6017799" lon="11.4720453"><ele>19.0</ele><time>2026-04-15T12:01:29.17Z</time></trkpt><trkpt lat="44.6016195" lon="11.4719171"><ele>19.0</ele><time>2026-04-15T12:01:30.164Z</time></trkpt><trkpt lat="44.601461" lon="11.47178"><ele>19.0</ele><time>2026-04-15T12:01:31.175Z</time></trkpt><trkpt lat="44.6013025" lon="11.4716444"><ele>19.0</ele><time>2026-04-15T12:01:32.172Z</time></trkpt><trkpt lat="44.6011426" lon="11.4715134"><ele>19.0</ele><time>2026-04-15T12:01:33.166Z</time></trkpt><trkpt lat="44.600985" lon="11.471385"><ele>18.0</ele><time>2026-04-15T12:01:34.179Z</time></trkpt><trkpt lat="44.6008326" lon="11.4712584"><ele>17.0</ele><time>2026-04-15T12:01:35.171Z</time></trkpt><trkpt lat="44.6006811" lon="11.4711327"><ele>16.0</ele><time>2026-04-15T12:01:36.164Z</time></trkpt><trkpt lat="44.6005294" lon="11.4710127"><ele>16.0</ele><time>2026-04-15T12:01:37.144Z</time></trkpt><trkpt lat="44.6003788" lon="11.4708921"><ele>16.0</ele><time>2026-04-15T12:01:38.157Z</time></trkpt><trkpt lat="44.6002308" lon="11.4707782"><ele>16.0</ele><time>2026-04-15T12:01:39.152Z</time></trkpt><trkpt lat="44.6000833" lon="11.4706677"><ele>16.333333333333332</ele><time>2026-04-15T12:01:40.179Z</time></trkpt><trkpt lat="44.5999313" lon="11.4705619"><ele>16.666666666666668</ele><time>2026-04-15T12:01:41.155Z</time></trkpt><trkpt lat="44.5997779" lon="11.4704643"><ele>17.0</ele><time>2026-04-15T12:01:42.156Z</time></trkpt><trkpt lat="44.5996252" lon="11.4703744"><ele>17.0</ele><time>2026-04-15T12:01:43.162Z</time></trkpt><trkpt lat="44.5994713" lon="11.4702885"><ele>17.0</ele><time>2026-04-15T12:01:44.129Z</time></trkpt><trkpt lat="44.5993164" lon="11.4702011"><ele>17.0</ele><time>2026-04-15T12:01:45.16Z</time></trkpt><trkpt lat="44.5991623" lon="11.47011"><ele>17.0</ele><time>2026-04-15T12:01:46.168Z</time></trkpt><trkpt lat="44.5990151" lon="11.4700125"><ele>17.0</ele><time>2026-04-15T12:01:47.153Z</time></trkpt><trkpt lat="44.5988649" lon="11.4699071"><ele>17.0</ele><time>2026-04-15T12:01:48.176Z</time></trkpt><trkpt lat="44.5987168" lon="11.4697955"><ele>16.666666666666668</ele><time>2026-04-15T12:01:49.169Z</time></trkpt><trkpt lat="44.5985684" lon="11.4696779"><ele>16.333333333333332</ele><time>2026-04-15T12:01:50.17Z</time></trkpt><trkpt lat="44.5984238" lon="11.4695552"><ele>16.0</ele><time>2026-04-15T12:01:51.164Z</time></trkpt><trkpt lat="44.5982762" lon="11.4694236"><ele>15.666666666666666</ele><time>2026-04-15T12:01:52.176Z</time></trkpt><trkpt lat="44.5981296" lon="11.4692917"><ele>15.333333333333332</ele><time>2026-04-15T12:01:53.175Z</time></trkpt><trkpt lat="44.5979854" lon="11.4691556"><ele>15.0</ele><time>2026-04-15T12:01:54.133Z</time></trkpt><trkpt lat="44.5978439" lon="11.4690154"><ele>15.666666666666668</ele><time>2026-04-15T12:01:55.153Z</time></trkpt><trkpt lat="44.5976985" lon="11.4688709"><ele>16.333333333333336</ele><time>2026-04-15T12:01:56.162Z</time></trkpt><trkpt lat="44.5975568" lon="11.4687258"><ele>17.0</ele><time>2026-04-15T12:01:57.163Z</time></trkpt><trkpt lat="44.5974194" lon="11.468573"><ele>17.0</ele><time>2026-04-15T12:01:58.161Z</time></trkpt><trkpt lat="44.5972932" lon="11.468404"><ele>17.0</ele><time>2026-04-15T12:01:59.164Z</time></trkpt><trkpt lat="44.5971881" lon="11.4682162"><ele>17.0</ele><time>2026-04-15T12:02:00.127Z</time></trkpt><trkpt lat="44.5970876" lon="11.4680193"><ele>16.666666666666668</ele><time>2026-04-15T12:02:01.147Z</time></trkpt><trkpt lat="44.5969933" lon="11.4678219"><ele>16.333333333333332</ele><time>2026-04-15T12:02:02.163Z</time></trkpt><trkpt lat="44.5969042" lon="11.4676222"><ele>16.0</ele><time>2026-04-15T12:02:03.158Z</time></trkpt><trkpt lat="44.5968151" lon="11.4674135"><ele>16.0</ele><time>2026-04-15T12:02:04.173Z</time></trkpt><trkpt lat="44.5967238" lon="11.4671836"><ele>16.0</ele><time>2026-04-15T12:02:05.159Z</time></trkpt><trkpt lat="44.5966413" lon="11.4669261"><ele>16.0</ele><time>2026-04-15T12:02:06.158Z</time></trkpt><trkpt lat="44.596566" lon="11.4666524"><ele>16.5</ele><time>2026-04-15T12:02:07.13Z</time></trkpt><trkpt lat="44.5964847" lon="11.4663512"><ele>17.0</ele><time>2026-04-15T12:02:08.142Z</time></trkpt><trkpt lat="44.5964049" lon="11.4660207"><ele>17.0</ele><time>2026-04-15T12:02:09.159Z</time></trkpt><trkpt lat="44.5963139" lon="11.4656842"><ele>17.0</ele><time>2026-04-15T12:02:10.145Z</time></trkpt><trkpt lat="44.5962216" lon="11.4653513"><ele>17.0</ele><time>2026-04-15T12:02:11.149Z</time></trkpt><trkpt lat="44.5961079" lon="11.4650226"><ele>17.0</ele><time>2026-04-15T12:02:12.157Z</time></trkpt><trkpt lat="44.5959701" lon="11.464719"><ele>17.5</ele><time>2026-04-15T12:02:13.162Z</time></trkpt><trkpt lat="44.5958139" lon="11.4644465"><ele>18.0</ele><time>2026-04-15T12:02:14.17Z</time></trkpt><trkpt lat="44.5956346" lon="11.4642072"><ele>18.0</ele><time>2026-04-15T12:02:15.134Z</time></trkpt><trkpt lat="44.595443" lon="11.464014"><ele>18.0</ele><time>2026-04-15T12:02:16.144Z</time></trkpt><trkpt lat="44.5952242" lon="11.4638662"><ele>18.5</ele><time>2026-04-15T12:02:17.136Z</time></trkpt><trkpt lat="44.5949698" lon="11.4637306"><ele>19.0</ele><time>2026-04-15T12:02:18.167Z</time></trkpt><trkpt lat="44.5947051" lon="11.4636113"><ele>19.0</ele><time>2026-04-15T12:02:19.152Z</time></trkpt><trkpt lat="44.594436" lon="11.4635112"><ele>19.0</ele><time>2026-04-15T12:02:20.164Z</time></trkpt><trkpt lat="44.5941704" lon="11.4633998"><ele>19.0</ele><time>2026-04-15T12:02:21.156Z</time></trkpt><trkpt lat="44.5939091" lon="11.4632766"><ele>19.0</ele><time>2026-04-15T12:02:22.132Z</time></trkpt><trkpt lat="44.593656" lon="11.4631346"><ele>19.5</ele><time>2026-04-15T12:02:23.148Z</time></trkpt><trkpt lat="44.5934021" lon="11.4629718"><ele>20.0</ele><time>2026-04-15T12:02:24.158Z</time></trkpt><trkpt lat="44.5931464" lon="11.4627738"><ele>19.0</ele><time>2026-04-15T12:02:25.152Z</time></trkpt><trkpt lat="44.5928885" lon="11.4625636"><ele>18.0</ele><time>2026-04-15T12:02:26.157Z</time></trkpt><trkpt lat="44.5926284" lon="11.4623331"><ele>16.5</ele><time>2026-04-15T12:02:27.152Z</time></trkpt><trkpt lat="44.5923666" lon="11.4621067"><ele>15.0</ele><time>2026-04-15T12:02:28.139Z</time></trkpt><trkpt lat="44.5921075" lon="11.4618821"><ele>15.5</ele><time>2026-04-15T12:02:29.152Z</time></trkpt><trkpt lat="44.5918432" lon="11.4616605"><ele>16.0</ele><time>2026-04-15T12:02:30.143Z</time></trkpt><trkpt lat="44.5915893" lon="11.4614421"><ele>16.0</ele><time>2026-04-15T12:02:31.162Z</time></trkpt><trkpt lat="44.5913514" lon="11.4612393"><ele>16.0</ele><time>2026-04-15T12:02:32.146Z</time></trkpt><trkpt lat="44.591125" lon="11.4610474"><ele>17.0</ele><time>2026-04-15T12:02:33.15Z</time></trkpt><trkpt lat="44.5908923" lon="11.4608875"><ele>18.0</ele><time>2026-04-15T12:02:34.158Z</time></trkpt><trkpt lat="44.5906402" lon="11.4607631"><ele>18.0</ele><time>2026-04-15T12:02:35.153Z</time></trkpt><trkpt lat="44.590375" lon="11.4606723"><ele>18.0</ele><time>2026-04-15T12:02:36.137Z</time></trkpt><trkpt lat="44.5901056" lon="11.4606205"><ele>18.0</ele><time>2026-04-15T12:02:37.138Z</time></trkpt><trkpt lat="44.5898352" lon="11.4606357"><ele>18.0</ele><time>2026-04-15T12:02:38.138Z</time></trkpt><trkpt lat="44.5895656" lon="11.4606966"><ele>19.0</ele><time>2026-04-15T12:02:39.16Z</time></trkpt><trkpt lat="44.5892994" lon="11.4607744"><ele>20.0</ele><time>2026-04-15T12:02:40.153Z</time></trkpt><trkpt lat="44.5890364" lon="11.4608485"><ele>20.0</ele><time>2026-04-15T12:02:41.164Z</time></trkpt><trkpt lat="44.5887902" lon="11.4609124"><ele>20.0</ele><time>2026-04-15T12:02:42.145Z</time></trkpt><trkpt lat="44.5885471" lon="11.4609527"><ele>20.0</ele><time>2026-04-15T12:02:43.128Z</time></trkpt><trkpt lat="44.5883017" lon="11.4609341"><ele>20.0</ele><time>2026-04-15T12:02:44.148Z</time></trkpt><trkpt lat="44.5880562" lon="11.4608687"><ele>19.5</ele><time>2026-04-15T12:02:45.148Z</time></trkpt><trkpt lat="44.5878058" lon="11.4607544"><ele>19.0</ele><time>2026-04-15T12:02:46.142Z</time></trkpt><trkpt lat="44.587547" lon="11.4606067"><ele>18.5</ele><time>2026-04-15T12:02:47.156Z</time></trkpt><trkpt lat="44.5872804" lon="11.4604363"><ele>18.0</ele><time>2026-04-15T12:02:48.16Z</time></trkpt><trkpt lat="44.5870026" lon="11.4602564"><ele>18.0</ele><time>2026-04-15T12:02:49.129Z</time></trkpt><trkpt lat="44.5867297" lon="11.4600846"><ele>18.0</ele><time>2026-04-15T12:02:50.146Z</time></trkpt><trkpt lat="44.5864798" lon="11.459923"><ele>18.0</ele><time>2026-04-15T12:02:51.159Z</time></trkpt><trkpt lat="44.5862476" lon="11.4597714"><ele>18.0</ele><time>2026-04-15T12:02:52.158Z</time></trkpt><trkpt lat="44.5860201" lon="11.4596402"><ele>18.5</ele><time>2026-04-15T12:02:53.142Z</time></trkpt><trkpt lat="44.5857918" lon="11.4595453"><ele>19.0</ele><time>2026-04-15T12:02:54.176Z</time></trkpt><trkpt lat="44.5855587" lon="11.4595114"><ele>19.5</ele><time>2026-04-15T12:02:55.138Z</time></trkpt><trkpt lat="44.585317" lon="11.4595135"><ele>20.0</ele><time>2026-04-15T12:02:56.141Z</time></trkpt><trkpt lat="44.5850749" lon="11.4595607"><ele>19.5</ele><time>2026-04-15T12:02:57.122Z</time></trkpt><trkpt lat="44.5848349" lon="11.4596607"><ele>19.0</ele><time>2026-04-15T12:02:58.135Z</time></trkpt><trkpt lat="44.5845946" lon="11.4598029"><ele>19.5</ele><time>2026-04-15T12:02:59.134Z</time></trkpt><trkpt lat="44.5843656" lon="11.4599902"><ele>20.0</ele><time>2026-04-15T12:03:00.115Z</time></trkpt><trkpt lat="44.5841338" lon="11.4601965"><ele>20.0</ele><time>2026-04-15T12:03:01.127Z</time></trkpt><trkpt lat="44.5839018" lon="11.4604139"><ele>20.0</ele><time>2026-04-15T12:03:02.165Z</time></trkpt><trkpt lat="44.5836734" lon="11.460617"><ele>18.5</ele><time>2026-04-15T12:03:03.146Z</time></trkpt><trkpt lat="44.5834477" lon="11.4608075"><ele>17.0</ele><time>2026-04-15T12:03:04.175Z</time></trkpt><trkpt lat="44.5832252" lon="11.4609805"><ele>17.0</ele><time>2026-04-15T12:03:05.141Z</time></trkpt><trkpt lat="44.5829953" lon="11.4610959"><ele>17.0</ele><time>2026-04-15T12:03:06.129Z</time></trkpt><trkpt lat="44.5827554" lon="11.461151"><ele>17.0</ele><time>2026-04-15T12:03:07.176Z</time></trkpt><trkpt lat="44.5825143" lon="11.4611587"><ele>17.0</ele><time>2026-04-15T12:03:08.171Z</time></trkpt><trkpt lat="44.5822822" lon="11.4611168"><ele>17.0</ele><time>2026-04-15T12:03:09.14Z</time></trkpt><trkpt lat="44.5820578" lon="11.461032"><ele>17.0</ele><time>2026-04-15T12:03:10.151Z</time></trkpt><trkpt lat="44.5818378" lon="11.4609212"><ele>18.0</ele><time>2026-04-15T12:03:11.148Z</time></trkpt><trkpt lat="44.5816251" lon="11.4607954"><ele>19.0</ele><time>2026-04-15T12:03:12.145Z</time></trkpt><trkpt lat="44.5814165" lon="11.4606516"><ele>19.0</ele><time>2026-04-15T12:03:13.139Z</time></trkpt><trkpt lat="44.5812061" lon="11.4605002"><ele>19.0</ele><time>2026-04-15T12:03:14.15Z</time></trkpt><trkpt lat="44.5809794" lon="11.460344"><ele>18.5</ele><time>2026-04-15T12:03:15.152Z</time></trkpt><trkpt lat="44.5807345" lon="11.4601758"><ele>18.0</ele><time>2026-04-15T12:03:16.137Z</time></trkpt><trkpt lat="44.5804913" lon="11.4600034"><ele>18.5</ele><time>2026-04-15T12:03:17.128Z</time></trkpt><trkpt lat="44.5802605" lon="11.4598339"><ele>19.0</ele><time>2026-04-15T12:03:18.16Z</time></trkpt><trkpt lat="44.580043" lon="11.4596756"><ele>19.0</ele><time>2026-04-15T12:03:19.145Z</time></trkpt><trkpt lat="44.5798222" lon="11.4595444"><ele>19.0</ele><time>2026-04-15T12:03:20.14Z</time></trkpt><trkpt lat="44.5793494" lon="11.4592974"><ele>20.5</ele><time>2026-04-15T12:03:22.135Z</time></trkpt><trkpt lat="44.5791313" lon="11.4591657"><ele>22.0</ele><time>2026-04-15T12:03:23.141Z</time></trkpt><trkpt lat="44.578934" lon="11.4590427"><ele>22.0</ele><time>2026-04-15T12:03:24.158Z</time></trkpt><trkpt lat="44.5787448" lon="11.4589433"><ele>22.0</ele><time>2026-04-15T12:03:25.156Z</time></trkpt><trkpt lat="44.5785687" lon="11.4588464"><ele>22.0</ele><time>2026-04-15T12:03:26.117Z</time></trkpt><trkpt lat="44.5783948" lon="11.4587565"><ele>20.666666666666664</ele><time>2026-04-15T12:03:27.158Z</time></trkpt><trkpt lat="44.5782291" lon="11.4586613"><ele>19.333333333333332</ele><time>2026-04-15T12:03:28.159Z</time></trkpt><trkpt lat="44.5780669" lon="11.4585739"><ele>18.0</ele><time>2026-04-15T12:03:29.143Z</time></trkpt><trkpt lat="44.5779086" lon="11.4584882"><ele>17.666666666666668</ele><time>2026-04-15T12:03:30.157Z</time></trkpt><trkpt lat="44.577753" lon="11.4584042"><ele>17.333333333333336</ele><time>2026-04-15T12:03:31.155Z</time></trkpt><trkpt lat="44.577597" lon="11.4583193"><ele>17.0</ele><time>2026-04-15T12:03:32.154Z</time></trkpt><trkpt lat="44.577443" lon="11.4582356"><ele>17.0</ele><time>2026-04-15T12:03:33.148Z</time></trkpt><trkpt lat="44.577291" lon="11.4581531"><ele>17.0</ele><time>2026-04-15T12:03:34.141Z</time></trkpt><trkpt lat="44.5771391" lon="11.458074"><ele>17.0</ele><time>2026-04-15T12:03:35.146Z</time></trkpt><trkpt lat="44.576998" lon="11.4579929"><ele>17.333333333333336</ele><time>2026-04-15T12:03:36.123Z</time></trkpt><trkpt lat="44.5768583" lon="11.4579183"><ele>17.666666666666668</ele><time>2026-04-15T12:03:37.132Z</time></trkpt><trkpt lat="44.5767196" lon="11.4578418"><ele>18.0</ele><time>2026-04-15T12:03:38.142Z</time></trkpt><trkpt lat="44.5765758" lon="11.4577642"><ele>18.0</ele><time>2026-04-15T12:03:39.147Z</time></trkpt><trkpt lat="44.5764315" lon="11.4576844"><ele>18.0</ele><time>2026-04-15T12:03:40.149Z</time></trkpt><trkpt lat="44.576284" lon="11.4576048"><ele>18.0</ele><time>2026-04-15T12:03:41.151Z</time></trkpt><trkpt lat="44.5761378" lon="11.4575228"><ele>18.0</ele><time>2026-04-15T12:03:42.122Z</time></trkpt><trkpt lat="44.5759838" lon="11.457438"><ele>18.0</ele><time>2026-04-15T12:03:43.155Z</time></trkpt><trkpt lat="44.5758218" lon="11.4573532"><ele>18.0</ele><time>2026-04-15T12:03:44.114Z</time></trkpt><trkpt lat="44.5756557" lon="11.4572666"><ele>18.0</ele><time>2026-04-15T12:03:45.152Z</time></trkpt><trkpt lat="44.5754833" lon="11.4571744"><ele>18.0</ele><time>2026-04-15T12:03:46.163Z</time></trkpt><trkpt lat="44.5753101" lon="11.4570851"><ele>18.0</ele><time>2026-04-15T12:03:47.154Z</time></trkpt><trkpt lat="44.5751405" lon="11.4569973"><ele>18.0</ele><time>2026-04-15T12:03:48.132Z</time></trkpt><trkpt lat="44.5749563" lon="11.4569556"><ele>18.0</ele><time>2026-04-15T12:03:49.114Z</time></trkpt><trkpt lat="44.574768" lon="11.4569673"><ele>18.0</ele><time>2026-04-15T12:03:50.139Z</time></trkpt><trkpt lat="44.5745833" lon="11.4570005"><ele>17.666666666666668</ele><time>2026-04-15T12:03:51.125Z</time></trkpt><trkpt lat="44.5744064" lon="11.4570551"><ele>17.333333333333336</ele><time>2026-04-15T12:03:52.15Z</time></trkpt><trkpt lat="44.5742341" lon="11.4571421"><ele>17.0</ele><time>2026-04-15T12:03:53.14Z</time></trkpt><trkpt lat="44.5740797" lon="11.4572458"><ele>17.0</ele><time>2026-04-15T12:03:54.133Z</time></trkpt><trkpt lat="44.5739364" lon="11.4573766"><ele>17.0</ele><time>2026-04-15T12:03:55.141Z</time></trkpt><trkpt lat="44.5737996" lon="11.4575381"><ele>17.0</ele><time>2026-04-15T12:03:56.138Z</time></trkpt><trkpt lat="44.5736624" lon="11.4577242"><ele>17.0</ele><time>2026-04-15T12:03:57.148Z</time></trkpt><trkpt lat="44.5735089" lon="11.4579434"><ele>17.0</ele><time>2026-04-15T12:03:58.142Z</time></trkpt><trkpt lat="44.5733284" lon="11.4581865"><ele>17.0</ele><time>2026-04-15T12:03:59.127Z</time></trkpt><trkpt lat="44.5731404" lon="11.4584346"><ele>17.0</ele><time>2026-04-15T12:04:00.123Z</time></trkpt><trkpt lat="44.5729691" lon="11.4586701"><ele>17.0</ele><time>2026-04-15T12:04:01.144Z</time></trkpt><trkpt lat="44.5728067" lon="11.4588976"><ele>17.0</ele><time>2026-04-15T12:04:02.17Z</time></trkpt><trkpt lat="44.5726329" lon="11.4590955"><ele>17.0</ele><time>2026-04-15T12:04:03.134Z</time></trkpt><trkpt lat="44.5724449" lon="11.4592492"><ele>17.0</ele><time>2026-04-15T12:04:04.141Z</time></trkpt><trkpt lat="44.5722412" lon="11.459361"><ele>17.0</ele><time>2026-04-15T12:04:05.12Z</time></trkpt><trkpt lat="44.5720234" lon="11.4594326"><ele>17.5</ele><time>2026-04-15T12:04:06.139Z</time></trkpt><trkpt lat="44.5717982" lon="11.4594716"><ele>18.0</ele><time>2026-04-15T12:04:07.116Z</time></trkpt><trkpt lat="44.5715751" lon="11.4594543"><ele>18.0</ele><time>2026-04-15T12:04:08.145Z</time></trkpt><trkpt lat="44.5713566" lon="11.4593942"><ele>18.0</ele><time>2026-04-15T12:04:09.135Z</time></trkpt><trkpt lat="44.5711445" lon="11.4592873"><ele>18.0</ele><time>2026-04-15T12:04:10.13Z</time></trkpt><trkpt lat="44.5709494" lon="11.4591634"><ele>18.333333333333332</ele><time>2026-04-15T12:04:11.12Z</time></trkpt><trkpt lat="44.5707645" lon="11.4590311"><ele>18.666666666666664</ele><time>2026-04-15T12:04:12.129Z</time></trkpt><trkpt lat="44.5705855" lon="11.4589143"><ele>19.0</ele><time>2026-04-15T12:04:13.151Z</time></trkpt><trkpt lat="44.5704161" lon="11.4588066"><ele>19.0</ele><time>2026-04-15T12:04:14.149Z</time></trkpt><trkpt lat="44.5702565" lon="11.458704"><ele>19.0</ele><time>2026-04-15T12:04:15.151Z</time></trkpt><trkpt lat="44.5700913" lon="11.458607"><ele>19.0</ele><time>2026-04-15T12:04:16.152Z</time></trkpt><trkpt lat="44.5699358" lon="11.4585061"><ele>19.0</ele><time>2026-04-15T12:04:17.146Z</time></trkpt><trkpt lat="44.5697864" lon="11.4584057"><ele>19.0</ele><time>2026-04-15T12:04:18.142Z</time></trkpt><trkpt lat="44.569651" lon="11.4583072"><ele>19.0</ele><time>2026-04-15T12:04:19.15Z</time></trkpt><trkpt lat="44.569516" lon="11.4582157"><ele>19.666666666666664</ele><time>2026-04-15T12:04:20.156Z</time></trkpt><trkpt lat="44.569375" lon="11.4581266"><ele>20.333333333333332</ele><time>2026-04-15T12:04:21.146Z</time></trkpt><trkpt lat="44.569233" lon="11.4580409"><ele>21.0</ele><time>2026-04-15T12:04:22.108Z</time></trkpt><trkpt lat="44.569094" lon="11.4579593"><ele>21.0</ele><time>2026-04-15T12:04:23.142Z</time></trkpt><trkpt lat="44.5689535" lon="11.4578771"><ele>21.0</ele><time>2026-04-15T12:04:24.146Z</time></trkpt><trkpt lat="44.5688106" lon="11.4578018"><ele>21.0</ele><time>2026-04-15T12:04:25.142Z</time></trkpt><trkpt lat="44.5686632" lon="11.4577281"><ele>20.666666666666668</ele><time>2026-04-15T12:04:26.126Z</time></trkpt><trkpt lat="44.5685179" lon="11.4576536"><ele>20.333333333333336</ele><time>2026-04-15T12:04:27.129Z</time></trkpt><trkpt lat="44.568372" lon="11.4575683"><ele>20.0</ele><time>2026-04-15T12:04:28.144Z</time></trkpt><trkpt lat="44.5682284" lon="11.4574675"><ele>20.0</ele><time>2026-04-15T12:04:29.151Z</time></trkpt><trkpt lat="44.568077" lon="11.4573695"><ele>20.0</ele><time>2026-04-15T12:04:30.158Z</time></trkpt><trkpt lat="44.5679212" lon="11.4572794"><ele>20.0</ele><time>2026-04-15T12:04:31.145Z</time></trkpt><trkpt lat="44.5677686" lon="11.4571739"><ele>20.0</ele><time>2026-04-15T12:04:32.142Z</time></trkpt><trkpt lat="44.5676168" lon="11.4570659"><ele>20.0</ele><time>2026-04-15T12:04:33.139Z</time></trkpt><trkpt lat="44.5674644" lon="11.4569907"><ele>20.0</ele><time>2026-04-15T12:04:34.116Z</time></trkpt><trkpt lat="44.5673222" lon="11.4569119"><ele>20.0</ele><time>2026-04-15T12:04:35.153Z</time></trkpt><trkpt lat="44.5671855" lon="11.4568227"><ele>20.0</ele><time>2026-04-15T12:04:36.151Z</time></trkpt><trkpt lat="44.5670473" lon="11.4567472"><ele>20.0</ele><time>2026-04-15T12:04:37.141Z</time></trkpt><trkpt lat="44.5669038" lon="11.4566785"><ele>20.0</ele><time>2026-04-15T12:04:38.149Z</time></trkpt><trkpt lat="44.5667585" lon="11.456593"><ele>20.0</ele><time>2026-04-15T12:04:39.13Z</time></trkpt><trkpt lat="44.5666085" lon="11.4564796"><ele>20.0</ele><time>2026-04-15T12:04:40.127Z</time></trkpt><trkpt lat="44.5664665" lon="11.4563659"><ele>19.666666666666668</ele><time>2026-04-15T12:04:41.138Z</time></trkpt><trkpt lat="44.5663318" lon="11.4562721"><ele>19.333333333333332</ele><time>2026-04-15T12:04:42.149Z</time></trkpt><trkpt lat="44.5661918" lon="11.4561842"><ele>19.0</ele><time>2026-04-15T12:04:43.116Z</time></trkpt><trkpt lat="44.5660422" lon="11.4561122"><ele>19.0</ele><time>2026-04-15T12:04:44.139Z</time></trkpt><trkpt lat="44.5658853" lon="11.4560723"><ele>19.0</ele><time>2026-04-15T12:04:45.15Z</time></trkpt><trkpt lat="44.5657293" lon="11.4560469"><ele>19.0</ele><time>2026-04-15T12:04:46.133Z</time></trkpt><trkpt lat="44.5655717" lon="11.4560201"><ele>19.0</ele><time>2026-04-15T12:04:47.131Z</time></trkpt><trkpt lat="44.5653984" lon="11.456019"><ele>19.0</ele><time>2026-04-15T12:04:48.121Z</time></trkpt><trkpt lat="44.5652177" lon="11.4560443"><ele>19.0</ele><time>2026-04-15T12:04:49.152Z</time></trkpt><trkpt lat="44.5650413" lon="11.4560766"><ele>19.0</ele><time>2026-04-15T12:04:50.138Z</time></trkpt><trkpt lat="44.5648723" lon="11.4561249"><ele>19.0</ele><time>2026-04-15T12:04:51.146Z</time></trkpt><trkpt lat="44.5647064" lon="11.4561993"><ele>19.0</ele><time>2026-04-15T12:04:52.112Z</time></trkpt><trkpt lat="44.5645344" lon="11.4563128"><ele>18.0</ele><time>2026-04-15T12:04:53.142Z</time></trkpt><trkpt lat="44.5643357" lon="11.4564637"><ele>17.0</ele><time>2026-04-15T12:04:54.155Z</time></trkpt><trkpt lat="44.5641148" lon="11.4566202"><ele>17.0</ele><time>2026-04-15T12:04:55.13Z</time></trkpt><trkpt lat="44.5638755" lon="11.4567417"><ele>17.0</ele><time>2026-04-15T12:04:56.14Z</time></trkpt><trkpt lat="44.5636274" lon="11.4568352"><ele>18.5</ele><time>2026-04-15T12:04:57.128Z</time></trkpt><trkpt lat="44.563359" lon="11.45689"><ele>20.0</ele><time>2026-04-15T12:04:58.126Z</time></trkpt><trkpt lat="44.5630851" lon="11.4568917"><ele>19.5</ele><time>2026-04-15T12:04:59.163Z</time></trkpt><trkpt lat="44.5628047" lon="11.4568432"><ele>19.0</ele><time>2026-04-15T12:05:00.123Z</time></trkpt><trkpt lat="44.5625131" lon="11.4567896"><ele>19.0</ele><time>2026-04-15T12:05:01.155Z</time></trkpt><trkpt lat="44.5622097" lon="11.4567376"><ele>19.0</ele><time>2026-04-15T12:05:02.116Z</time></trkpt><trkpt lat="44.5619052" lon="11.4566807"><ele>20.0</ele><time>2026-04-15T12:05:03.105Z</time></trkpt><trkpt lat="44.5616027" lon="11.4566176"><ele>21.0</ele><time>2026-04-15T12:05:04.147Z</time></trkpt><trkpt lat="44.5613029" lon="11.4565536"><ele>21.0</ele><time>2026-04-15T12:05:05.145Z</time></trkpt><trkpt lat="44.5610172" lon="11.4564902"><ele>21.0</ele><time>2026-04-15T12:05:06.122Z</time></trkpt><trkpt lat="44.5607344" lon="11.4564405"><ele>21.0</ele><time>2026-04-15T12:05:07.12Z</time></trkpt><trkpt lat="44.5604638" lon="11.4564019"><ele>21.0</ele><time>2026-04-15T12:05:08.122Z</time></trkpt><trkpt lat="44.5601888" lon="11.4563853"><ele>20.5</ele><time>2026-04-15T12:05:09.126Z</time></trkpt><trkpt lat="44.5599242" lon="11.4564106"><ele>20.0</ele><time>2026-04-15T12:05:10.16Z</time></trkpt><trkpt lat="44.5596562" lon="11.4564701"><ele>21.0</ele><time>2026-04-15T12:05:11.146Z</time></trkpt><trkpt lat="44.5593859" lon="11.4565754"><ele>22.0</ele><time>2026-04-15T12:05:12.12Z</time></trkpt><trkpt lat="44.5591169" lon="11.4567023"><ele>22.0</ele><time>2026-04-15T12:05:13.119Z</time></trkpt><trkpt lat="44.5588497" lon="11.4568764"><ele>22.0</ele><time>2026-04-15T12:05:14.13Z</time></trkpt><trkpt lat="44.5585837" lon="11.457091"><ele>22.0</ele><time>2026-04-15T12:05:15.142Z</time></trkpt><trkpt lat="44.5583239" lon="11.4573162"><ele>22.0</ele><time>2026-04-15T12:05:16.141Z</time></trkpt><trkpt lat="44.5580686" lon="11.4575474"><ele>22.5</ele><time>2026-04-15T12:05:17.143Z</time></trkpt><trkpt lat="44.5578153" lon="11.4577716"><ele>23.0</ele><time>2026-04-15T12:05:18.132Z</time></trkpt><trkpt lat="44.5575687" lon="11.4579756"><ele>22.0</ele><time>2026-04-15T12:05:19.145Z</time></trkpt><trkpt lat="44.5573314" lon="11.4581766"><ele>21.0</ele><time>2026-04-15T12:05:20.136Z</time></trkpt><trkpt lat="44.5571033" lon="11.4583696"><ele>22.5</ele><time>2026-04-15T12:05:21.107Z</time></trkpt><trkpt lat="44.5568719" lon="11.4585499"><ele>24.0</ele><time>2026-04-15T12:05:22.129Z</time></trkpt><trkpt lat="44.5566388" lon="11.4587227"><ele>24.0</ele><time>2026-04-15T12:05:23.117Z</time></trkpt><trkpt lat="44.5564036" lon="11.4588702"><ele>24.0</ele><time>2026-04-15T12:05:24.121Z</time></trkpt><trkpt lat="44.5561626" lon="11.4589939"><ele>24.0</ele><time>2026-04-15T12:05:25.146Z</time></trkpt><trkpt lat="44.5559268" lon="11.459101"><ele>24.0</ele><time>2026-04-15T12:05:26.149Z</time></trkpt><trkpt lat="44.5557018" lon="11.4591892"><ele>24.0</ele><time>2026-04-15T12:05:27.109Z</time></trkpt><trkpt lat="44.5554837" lon="11.4592551"><ele>24.0</ele><time>2026-04-15T12:05:28.163Z</time></trkpt><trkpt lat="44.5552786" lon="11.459307"><ele>24.0</ele><time>2026-04-15T12:05:29.141Z</time></trkpt><trkpt lat="44.5550801" lon="11.4593597"><ele>24.0</ele><time>2026-04-15T12:05:30.143Z</time></trkpt><trkpt lat="44.5549009" lon="11.459405"><ele>24.0</ele><time>2026-04-15T12:05:31.136Z</time></trkpt><trkpt lat="44.5547411" lon="11.459443"><ele>24.0</ele><time>2026-04-15T12:05:32.15Z</time></trkpt><trkpt lat="44.5545977" lon="11.4594752"><ele>24.25</ele><time>2026-04-15T12:05:33.13Z</time></trkpt><trkpt lat="44.5544557" lon="11.4595095"><ele>24.5</ele><time>2026-04-15T12:05:34.141Z</time></trkpt><trkpt lat="44.5543152" lon="11.4595408"><ele>24.75</ele><time>2026-04-15T12:05:35.127Z</time></trkpt><trkpt lat="44.5541682" lon="11.4595742"><ele>25.0</ele><time>2026-04-15T12:05:36.112Z</time></trkpt><trkpt lat="44.5540157" lon="11.4596101"><ele>25.0</ele><time>2026-04-15T12:05:37.134Z</time></trkpt><trkpt lat="44.5538641" lon="11.4596467"><ele>25.0</ele><time>2026-04-15T12:05:38.15Z</time></trkpt><trkpt lat="44.5537153" lon="11.4596842"><ele>25.0</ele><time>2026-04-15T12:05:39.137Z</time></trkpt><trkpt lat="44.5535644" lon="11.4597196"><ele>24.333333333333336</ele><time>2026-04-15T12:05:40.123Z</time></trkpt><trkpt lat="44.5533969" lon="11.4597529"><ele>23.666666666666668</ele><time>2026-04-15T12:05:41.16Z</time></trkpt><trkpt lat="44.5532269" lon="11.4597896"><ele>23.0</ele><time>2026-04-15T12:05:42.135Z</time></trkpt><trkpt lat="44.5530615" lon="11.4598189"><ele>23.0</ele><time>2026-04-15T12:05:43.127Z</time></trkpt><trkpt lat="44.5528934" lon="11.4598469"><ele>23.0</ele><time>2026-04-15T12:05:44.104Z</time></trkpt><trkpt lat="44.5527284" lon="11.459864"><ele>23.0</ele><time>2026-04-15T12:05:45.117Z</time></trkpt><trkpt lat="44.5525605" lon="11.4598736"><ele>23.666666666666668</ele><time>2026-04-15T12:05:46.106Z</time></trkpt><trkpt lat="44.552397" lon="11.4598633"><ele>24.333333333333336</ele><time>2026-04-15T12:05:47.132Z</time></trkpt><trkpt lat="44.552235" lon="11.4598478"><ele>25.0</ele><time>2026-04-15T12:05:48.124Z</time></trkpt><trkpt lat="44.5520702" lon="11.4598271"><ele>25.0</ele><time>2026-04-15T12:05:49.14Z</time></trkpt><trkpt lat="44.5518957" lon="11.4598014"><ele>25.0</ele><time>2026-04-15T12:05:50.139Z</time></trkpt><trkpt lat="44.5517175" lon="11.4597682"><ele>25.0</ele><time>2026-04-15T12:05:51.136Z</time></trkpt><trkpt lat="44.5515291" lon="11.459709"><ele>25.0</ele><time>2026-04-15T12:05:52.141Z</time></trkpt><trkpt lat="44.5513275" lon="11.4596338"><ele>25.0</ele><time>2026-04-15T12:05:53.153Z</time></trkpt><trkpt lat="44.5511113" lon="11.459545"><ele>25.0</ele><time>2026-04-15T12:05:54.106Z</time></trkpt><trkpt lat="44.5508822" lon="11.4594364"><ele>25.0</ele><time>2026-04-15T12:05:55.146Z</time></trkpt><trkpt lat="44.5506418" lon="11.459295"><ele>25.0</ele><time>2026-04-15T12:05:56.138Z</time></trkpt><trkpt lat="44.550383" lon="11.4591278"><ele>24.5</ele><time>2026-04-15T12:05:57.14Z</time></trkpt><trkpt lat="44.5501168" lon="11.458948"><ele>24.0</ele><time>2026-04-15T12:05:58.158Z</time></trkpt><trkpt lat="44.5498339" lon="11.4587634"><ele>24.0</ele><time>2026-04-15T12:05:59.137Z</time></trkpt><trkpt lat="44.5495372" lon="11.458575"><ele>24.0</ele><time>2026-04-15T12:06:00.111Z</time></trkpt><trkpt lat="44.5492354" lon="11.4583731"><ele>24.0</ele><time>2026-04-15T12:06:01.129Z</time></trkpt><trkpt lat="44.5489382" lon="11.4581667"><ele>24.0</ele><time>2026-04-15T12:06:02.115Z</time></trkpt><trkpt lat="44.5486563" lon="11.4579725"><ele>24.5</ele><time>2026-04-15T12:06:03.131Z</time></trkpt><trkpt lat="44.5483862" lon="11.4577946"><ele>25.0</ele><time>2026-04-15T12:06:04.112Z</time></trkpt><trkpt lat="44.54813" lon="11.457625"><ele>25.0</ele><time>2026-04-15T12:06:05.135Z</time></trkpt><trkpt lat="44.547878" lon="11.4574617"><ele>25.0</ele><time>2026-04-15T12:06:06.132Z</time></trkpt><trkpt lat="44.5476298" lon="11.4573031"><ele>25.5</ele><time>2026-04-15T12:06:07.13Z</time></trkpt><trkpt lat="44.5473844" lon="11.4571436"><ele>26.0</ele><time>2026-04-15T12:06:08.112Z</time></trkpt><trkpt lat="44.5471383" lon="11.4569834"><ele>26.5</ele><time>2026-04-15T12:06:09.105Z</time></trkpt><trkpt lat="44.5468835" lon="11.4568265"><ele>27.0</ele><time>2026-04-15T12:06:10.144Z</time></trkpt><trkpt lat="44.5466157" lon="11.4566898"><ele>27.0</ele><time>2026-04-15T12:06:11.132Z</time></trkpt><trkpt lat="44.5463404" lon="11.4565655"><ele>27.0</ele><time>2026-04-15T12:06:12.137Z</time></trkpt><trkpt lat="44.5460632" lon="11.4564562"><ele>26.5</ele><time>2026-04-15T12:06:13.129Z</time></trkpt><trkpt lat="44.5457911" lon="11.4563442"><ele>26.0</ele><time>2026-04-15T12:06:14.118Z</time></trkpt><trkpt lat="44.5455297" lon="11.4562105"><ele>26.0</ele><time>2026-04-15T12:06:15.129Z</time></trkpt><trkpt lat="44.545293" lon="11.4560605"><ele>26.0</ele><time>2026-04-15T12:06:16.1Z</time></trkpt><trkpt lat="44.545074" lon="11.4559058"><ele>26.0</ele><time>2026-04-15T12:06:17.124Z</time></trkpt><trkpt lat="44.5448615" lon="11.4557347"><ele>26.0</ele><time>2026-04-15T12:06:18.117Z</time></trkpt><trkpt lat="44.5446592" lon="11.4555554"><ele>26.5</ele><time>2026-04-15T12:06:19.119Z</time></trkpt><trkpt lat="44.5444673" lon="11.4553623"><ele>27.0</ele><time>2026-04-15T12:06:20.102Z</time></trkpt><trkpt lat="44.5442786" lon="11.4551601"><ele>27.0</ele><time>2026-04-15T12:06:21.112Z</time></trkpt><trkpt lat="44.5441036" lon="11.4549469"><ele>27.0</ele><time>2026-04-15T12:06:22.136Z</time></trkpt><trkpt lat="44.5439479" lon="11.4547336"><ele>27.0</ele><time>2026-04-15T12:06:23.105Z</time></trkpt><trkpt lat="44.5438023" lon="11.4545212"><ele>27.0</ele><time>2026-04-15T12:06:24.128Z</time></trkpt><trkpt lat="44.5436707" lon="11.4543072"><ele>27.0</ele><time>2026-04-15T12:06:25.118Z</time></trkpt><trkpt lat="44.5435513" lon="11.4540898"><ele>27.0</ele><time>2026-04-15T12:06:26.143Z</time></trkpt><trkpt lat="44.5434372" lon="11.4538811"><ele>27.333333333333336</ele><time>2026-04-15T12:06:27.118Z</time></trkpt><trkpt lat="44.5433385" lon="11.4536621"><ele>27.666666666666668</ele><time>2026-04-15T12:06:28.127Z</time></trkpt><trkpt lat="44.5432467" lon="11.4534326"><ele>28.0</ele><time>2026-04-15T12:06:29.13Z</time></trkpt><trkpt lat="44.5431519" lon="11.4531952"><ele>28.0</ele><time>2026-04-15T12:06:30.097Z</time></trkpt><trkpt lat="44.5430593" lon="11.4529519"><ele>28.0</ele><time>2026-04-15T12:06:31.122Z</time></trkpt><trkpt lat="44.5429696" lon="11.452708"><ele>28.0</ele><time>2026-04-15T12:06:32.139Z</time></trkpt><trkpt lat="44.5428836" lon="11.4524695"><ele>28.0</ele><time>2026-04-15T12:06:33.121Z</time></trkpt><trkpt lat="44.5427997" lon="11.4522402"><ele>28.0</ele><time>2026-04-15T12:06:34.11Z</time></trkpt><trkpt lat="44.5427146" lon="11.4520117"><ele>28.0</ele><time>2026-04-15T12:06:35.112Z</time></trkpt><trkpt lat="44.5426154" lon="11.4517593"><ele>28.0</ele><time>2026-04-15T12:06:36.123Z</time></trkpt><trkpt lat="44.5424976" lon="11.4514677"><ele>28.0</ele><time>2026-04-15T12:06:37.136Z</time></trkpt><trkpt lat="44.5423817" lon="11.451157"><ele>28.5</ele><time>2026-04-15T12:06:38.133Z</time></trkpt><trkpt lat="44.5422705" lon="11.4508343"><ele>29.0</ele><time>2026-04-15T12:06:39.134Z</time></trkpt><trkpt lat="44.5421619" lon="11.4505103"><ele>29.0</ele><time>2026-04-15T12:06:40.113Z</time></trkpt><trkpt lat="44.5420491" lon="11.4501869"><ele>29.0</ele><time>2026-04-15T12:06:41.129Z</time></trkpt><trkpt lat="44.5419282" lon="11.4498683"><ele>29.0</ele><time>2026-04-15T12:06:42.137Z</time></trkpt><trkpt lat="44.5417964" lon="11.4495558"><ele>29.0</ele><time>2026-04-15T12:06:43.111Z</time></trkpt><trkpt lat="44.5416548" lon="11.449258"><ele>29.0</ele><time>2026-04-15T12:06:44.12Z</time></trkpt><trkpt lat="44.5415029" lon="11.4489703"><ele>29.0</ele><time>2026-04-15T12:06:45.105Z</time></trkpt><trkpt lat="44.5413396" lon="11.4486942"><ele>28.5</ele><time>2026-04-15T12:06:46.112Z</time></trkpt><trkpt lat="44.5411747" lon="11.4484278"><ele>28.0</ele><time>2026-04-15T12:06:47.142Z</time></trkpt><trkpt lat="44.5410012" lon="11.4481721"><ele>28.5</ele><time>2026-04-15T12:06:48.104Z</time></trkpt><trkpt lat="44.5407971" lon="11.4479391"><ele>29.0</ele><time>2026-04-15T12:06:49.138Z</time></trkpt><trkpt lat="44.5405799" lon="11.4477159"><ele>29.0</ele><time>2026-04-15T12:06:50.125Z</time></trkpt><trkpt lat="44.5403504" lon="11.4474983"><ele>29.0</ele><time>2026-04-15T12:06:51.124Z</time></trkpt><trkpt lat="44.5401143" lon="11.447289"><ele>29.0</ele><time>2026-04-15T12:06:52.123Z</time></trkpt><trkpt lat="44.5398759" lon="11.4470872"><ele>29.0</ele><time>2026-04-15T12:06:53.134Z</time></trkpt><trkpt lat="44.5396357" lon="11.4468879"><ele>29.5</ele><time>2026-04-15T12:06:54.127Z</time></trkpt><trkpt lat="44.5394005" lon="11.4466881"><ele>30.0</ele><time>2026-04-15T12:06:55.119Z</time></trkpt><trkpt lat="44.5391717" lon="11.4464893"><ele>30.0</ele><time>2026-04-15T12:06:56.141Z</time></trkpt><trkpt lat="44.538947" lon="11.4462887"><ele>30.0</ele><time>2026-04-15T12:06:57.12Z</time></trkpt><trkpt lat="44.5387246" lon="11.4460929"><ele>30.0</ele><time>2026-04-15T12:06:58.111Z</time></trkpt><trkpt lat="44.5385016" lon="11.4459008"><ele>30.0</ele><time>2026-04-15T12:06:59.118Z</time></trkpt><trkpt lat="44.5382798" lon="11.4457042"><ele>30.0</ele><time>2026-04-15T12:07:00.124Z</time></trkpt><trkpt lat="44.538062" lon="11.4455034"><ele>30.0</ele><time>2026-04-15T12:07:01.122Z</time></trkpt><trkpt lat="44.5378408" lon="11.4452859"><ele>29.5</ele><time>2026-04-15T12:07:02.137Z</time></trkpt><trkpt lat="44.5376197" lon="11.4450488"><ele>29.0</ele><time>2026-04-15T12:07:03.137Z</time></trkpt><trkpt lat="44.5373959" lon="11.4447896"><ele>29.0</ele><time>2026-04-15T12:07:04.131Z</time></trkpt><trkpt lat="44.5371792" lon="11.4445133"><ele>29.0</ele><time>2026-04-15T12:07:05.099Z</time></trkpt><trkpt lat="44.5369636" lon="11.4442277"><ele>29.5</ele><time>2026-04-15T12:07:06.098Z</time></trkpt><trkpt lat="44.5367494" lon="11.4439502"><ele>30.0</ele><time>2026-04-15T12:07:07.127Z</time></trkpt><trkpt lat="44.5365248" lon="11.443685"><ele>30.0</ele><time>2026-04-15T12:07:08.131Z</time></trkpt><trkpt lat="44.5362849" lon="11.4434218"><ele>30.0</ele><time>2026-04-15T12:07:09.12Z</time></trkpt><trkpt lat="44.5360337" lon="11.4431601"><ele>29.0</ele><time>2026-04-15T12:07:10.115Z</time></trkpt><trkpt lat="44.5357658" lon="11.4429046"><ele>28.0</ele><time>2026-04-15T12:07:11.104Z</time></trkpt><trkpt lat="44.5354949" lon="11.4426589"><ele>29.0</ele><time>2026-04-15T12:07:12.12Z</time></trkpt><trkpt lat="44.5352223" lon="11.4424219"><ele>30.0</ele><time>2026-04-15T12:07:13.221Z</time></trkpt><trkpt lat="44.5349529" lon="11.4421906"><ele>30.0</ele><time>2026-04-15T12:07:14.211Z</time></trkpt><trkpt lat="44.5346828" lon="11.4419602"><ele>30.0</ele><time>2026-04-15T12:07:15.122Z</time></trkpt><trkpt lat="44.5344099" lon="11.4417453"><ele>29.5</ele><time>2026-04-15T12:07:16.12Z</time></trkpt><trkpt lat="44.5341356" lon="11.4415451"><ele>29.0</ele><time>2026-04-15T12:07:17.099Z</time></trkpt><trkpt lat="44.5338634" lon="11.4413542"><ele>29.5</ele><time>2026-04-15T12:07:18.131Z</time></trkpt><trkpt lat="44.5335935" lon="11.4411741"><ele>30.0</ele><time>2026-04-15T12:07:19.231Z</time></trkpt><trkpt lat="44.5333243" lon="11.4410056"><ele>30.0</ele><time>2026-04-15T12:07:20.23Z</time></trkpt><trkpt lat="44.5330625" lon="11.4408424"><ele>30.0</ele><time>2026-04-15T12:07:21.22Z</time></trkpt><trkpt lat="44.5328014" lon="11.4406895"><ele>31.0</ele><time>2026-04-15T12:07:22.144Z</time></trkpt><trkpt lat="44.5325338" lon="11.4405472"><ele>32.0</ele><time>2026-04-15T12:07:23.129Z</time></trkpt><trkpt lat="44.5322571" lon="11.4404162"><ele>32.5</ele><time>2026-04-15T12:07:24.122Z</time></trkpt><trkpt lat="44.5319779" lon="11.440292"><ele>33.0</ele><time>2026-04-15T12:07:25.109Z</time></trkpt><trkpt lat="44.531395" lon="11.4400509"><ele>32.5</ele><time>2026-04-15T12:07:27.226Z</time></trkpt><trkpt lat="44.5310932" lon="11.4399172"><ele>32.0</ele><time>2026-04-15T12:07:28.21Z</time></trkpt><trkpt lat="44.5307879" lon="11.439785"><ele>32.0</ele><time>2026-04-15T12:07:29.112Z</time></trkpt><trkpt lat="44.5304781" lon="11.4396472"><ele>32.0</ele><time>2026-04-15T12:07:30.099Z</time></trkpt><trkpt lat="44.5301618" lon="11.4395127"><ele>32.0</ele><time>2026-04-15T12:07:31.22Z</time></trkpt><trkpt lat="44.5298494" lon="11.4393769"><ele>32.0</ele><time>2026-04-15T12:07:32.232Z</time></trkpt><trkpt lat="44.5295371" lon="11.4392485"><ele>32.0</ele><time>2026-04-15T12:07:33.253Z</time></trkpt><trkpt lat="44.5292289" lon="11.4391179"><ele>32.0</ele><time>2026-04-15T12:07:34.217Z</time></trkpt><trkpt lat="44.5289272" lon="11.4389856"><ele>33.0</ele><time>2026-04-15T12:07:35.212Z</time></trkpt><trkpt lat="44.5283424" lon="11.438704"><ele>33.0</ele><time>2026-04-15T12:07:37.221Z</time></trkpt><trkpt lat="44.5280611" lon="11.4385409"><ele>33.0</ele><time>2026-04-15T12:07:38.231Z</time></trkpt><trkpt lat="44.5277829" lon="11.4383715"><ele>32.5</ele><time>2026-04-15T12:07:39.241Z</time></trkpt><trkpt lat="44.5275066" lon="11.4381979"><ele>32.0</ele><time>2026-04-15T12:07:40.191Z</time></trkpt><trkpt lat="44.5272387" lon="11.4380136"><ele>32.5</ele><time>2026-04-15T12:07:41.19Z</time></trkpt><trkpt lat="44.5269794" lon="11.4378449"><ele>33.0</ele><time>2026-04-15T12:07:42.231Z</time></trkpt><trkpt lat="44.5265147" lon="11.4375229"><ele>33.0</ele><time>2026-04-15T12:07:44.22Z</time></trkpt><trkpt lat="44.5262947" lon="11.437374"><ele>33.0</ele><time>2026-04-15T12:07:45.229Z</time></trkpt><trkpt lat="44.5260851" lon="11.4372347"><ele>33.333333333333336</ele><time>2026-04-15T12:07:46.231Z</time></trkpt><trkpt lat="44.5258882" lon="11.4370935"><ele>33.66666666666667</ele><time>2026-04-15T12:07:47.228Z</time></trkpt><trkpt lat="44.5256929" lon="11.4369617"><ele>34.0</ele><time>2026-04-15T12:07:48.227Z</time></trkpt><trkpt lat="44.5254794" lon="11.4368189"><ele>34.0</ele><time>2026-04-15T12:07:49.219Z</time></trkpt><trkpt lat="44.5252521" lon="11.4366683"><ele>34.0</ele><time>2026-04-15T12:07:50.215Z</time></trkpt><trkpt lat="44.5250223" lon="11.436517"><ele>34.0</ele><time>2026-04-15T12:07:51.215Z</time></trkpt><trkpt lat="44.5247852" lon="11.4363621"><ele>34.0</ele><time>2026-04-15T12:07:52.201Z</time></trkpt><trkpt lat="44.5245321" lon="11.4361988"><ele>34.0</ele><time>2026-04-15T12:07:53.214Z</time></trkpt><trkpt lat="44.5242631" lon="11.4360237"><ele>34.0</ele><time>2026-04-15T12:07:54.22Z</time></trkpt><trkpt lat="44.5239947" lon="11.4358322"><ele>34.0</ele><time>2026-04-15T12:07:55.208Z</time></trkpt><trkpt lat="44.5237369" lon="11.4356353"><ele>34.0</ele><time>2026-04-15T12:07:56.206Z</time></trkpt><trkpt lat="44.523488" lon="11.4354476"><ele>33.0</ele><time>2026-04-15T12:07:57.211Z</time></trkpt><trkpt lat="44.523242" lon="11.4352747"><ele>32.0</ele><time>2026-04-15T12:07:58.205Z</time></trkpt><trkpt lat="44.5230022" lon="11.4351142"><ele>32.5</ele><time>2026-04-15T12:07:59.194Z</time></trkpt><trkpt lat="44.5227649" lon="11.4349504"><ele>33.0</ele><time>2026-04-15T12:08:00.22Z</time></trkpt><trkpt lat="44.5225326" lon="11.4347887"><ele>34.0</ele><time>2026-04-15T12:08:01.22Z</time></trkpt><trkpt lat="44.5223037" lon="11.4346311"><ele>35.0</ele><time>2026-04-15T12:08:02.211Z</time></trkpt><trkpt lat="44.5220793" lon="11.4344782"><ele>35.0</ele><time>2026-04-15T12:08:03.211Z</time></trkpt><trkpt lat="44.5218586" lon="11.4343272"><ele>35.0</ele><time>2026-04-15T12:08:04.205Z</time></trkpt><trkpt lat="44.5216391" lon="11.4341706"><ele>35.0</ele><time>2026-04-15T12:08:05.211Z</time></trkpt><trkpt lat="44.521414" lon="11.4340219"><ele>35.0</ele><time>2026-04-15T12:08:06.221Z</time></trkpt><trkpt lat="44.5211841" lon="11.4338727"><ele>34.5</ele><time>2026-04-15T12:08:07.203Z</time></trkpt><trkpt lat="44.5209562" lon="11.4337203"><ele>34.0</ele><time>2026-04-15T12:08:08.222Z</time></trkpt><trkpt lat="44.5207306" lon="11.4335652"><ele>34.0</ele><time>2026-04-15T12:08:09.219Z</time></trkpt><trkpt lat="44.5204994" lon="11.4334141"><ele>34.0</ele><time>2026-04-15T12:08:10.191Z</time></trkpt><trkpt lat="44.5202723" lon="11.4332592"><ele>34.0</ele><time>2026-04-15T12:08:11.215Z</time></trkpt><trkpt lat="44.5200442" lon="11.433103"><ele>34.0</ele><time>2026-04-15T12:08:12.209Z</time></trkpt><trkpt lat="44.5198141" lon="11.4329502"><ele>34.5</ele><time>2026-04-15T12:08:13.191Z</time></trkpt><trkpt lat="44.5195807" lon="11.4328082"><ele>35.0</ele><time>2026-04-15T12:08:14.212Z</time></trkpt><trkpt lat="44.5193358" lon="11.4326758"><ele>35.0</ele><time>2026-04-15T12:08:15.22Z</time></trkpt><trkpt lat="44.5190735" lon="11.4325604"><ele>35.0</ele><time>2026-04-15T12:08:16.207Z</time></trkpt><trkpt lat="44.5187981" lon="11.4324542"><ele>35.5</ele><time>2026-04-15T12:08:17.213Z</time></trkpt><trkpt lat="44.518517" lon="11.4323593"><ele>36.0</ele><time>2026-04-15T12:08:18.22Z</time></trkpt><trkpt lat="44.5182318" lon="11.4322758"><ele>36.0</ele><time>2026-04-15T12:08:19.19Z</time></trkpt><trkpt lat="44.517951" lon="11.4321947"><ele>36.0</ele><time>2026-04-15T12:08:20.199Z</time></trkpt><trkpt lat="44.5176829" lon="11.4321118"><ele>36.5</ele><time>2026-04-15T12:08:21.226Z</time></trkpt><trkpt lat="44.5174259" lon="11.4320306"><ele>37.0</ele><time>2026-04-15T12:08:22.223Z</time></trkpt><trkpt lat="44.5171774" lon="11.4319452"><ele>37.5</ele><time>2026-04-15T12:08:23.221Z</time></trkpt><trkpt lat="44.5169326" lon="11.4318694"><ele>38.0</ele><time>2026-04-15T12:08:24.193Z</time></trkpt><trkpt lat="44.5166977" lon="11.4318071"><ele>38.0</ele><time>2026-04-15T12:08:25.197Z</time></trkpt><trkpt lat="44.5164676" lon="11.4317681"><ele>38.0</ele><time>2026-04-15T12:08:26.193Z</time></trkpt><trkpt lat="44.5162491" lon="11.4317411"><ele>37.0</ele><time>2026-04-15T12:08:27.195Z</time></trkpt><trkpt lat="44.5160392" lon="11.4317373"><ele>36.0</ele><time>2026-04-15T12:08:28.213Z</time></trkpt><trkpt lat="44.5158379" lon="11.4317526"><ele>35.0</ele><time>2026-04-15T12:08:29.222Z</time></trkpt><trkpt lat="44.515642" lon="11.4317817"><ele>35.0</ele><time>2026-04-15T12:08:30.209Z</time></trkpt><trkpt lat="44.5154655" lon="11.4318236"><ele>35.0</ele><time>2026-04-15T12:08:31.197Z</time></trkpt><trkpt lat="44.5152937" lon="11.4318794"><ele>35.0</ele><time>2026-04-15T12:08:32.219Z</time></trkpt><trkpt lat="44.515125" lon="11.4319451"><ele>35.666666666666664</ele><time>2026-04-15T12:08:33.209Z</time></trkpt><trkpt lat="44.5149644" lon="11.432024"><ele>36.333333333333336</ele><time>2026-04-15T12:08:34.187Z</time></trkpt><trkpt lat="44.5148194" lon="11.4321015"><ele>37.0</ele><time>2026-04-15T12:08:35.207Z</time></trkpt><trkpt lat="44.5146917" lon="11.4321628"><ele>37.0</ele><time>2026-04-15T12:08:36.192Z</time></trkpt><trkpt lat="44.5145804" lon="11.4322159"><ele>37.0</ele><time>2026-04-15T12:08:37.196Z</time></trkpt><trkpt lat="44.5144739" lon="11.4322595"><ele>37.0</ele><time>2026-04-15T12:08:38.198Z</time></trkpt><trkpt lat="44.5143791" lon="11.4323035"><ele>37.0</ele><time>2026-04-15T12:08:39.21Z</time></trkpt><trkpt lat="44.5142912" lon="11.432343"><ele>37.0</ele><time>2026-04-15T12:08:40.203Z</time></trkpt><trkpt lat="44.5142114" lon="11.4323656"><ele>37.0</ele><time>2026-04-15T12:08:41.22Z</time></trkpt><trkpt lat="44.5141331" lon="11.4323799"><ele>37.0</ele><time>2026-04-15T12:08:42.181Z</time></trkpt><trkpt lat="44.5140602" lon="11.4323746"><ele>37.0</ele><time>2026-04-15T12:08:43.207Z</time></trkpt><trkpt lat="44.5139883" lon="11.4323567"><ele>37.0</ele><time>2026-04-15T12:08:44.196Z</time></trkpt><trkpt lat="44.5139048" lon="11.4323088"><ele>37.0</ele><time>2026-04-15T12:08:45.196Z</time></trkpt><trkpt lat="44.513823" lon="11.4322296"><ele>37.0</ele><time>2026-04-15T12:08:46.234Z</time></trkpt><trkpt lat="44.5137371" lon="11.4321459"><ele>36.75</ele><time>2026-04-15T12:08:47.189Z</time></trkpt><trkpt lat="44.5136341" lon="11.4320771"><ele>36.5</ele><time>2026-04-15T12:08:48.178Z</time></trkpt><trkpt lat="44.513515" lon="11.4320528"><ele>36.25</ele><time>2026-04-15T12:08:49.189Z</time></trkpt><trkpt lat="44.5134006" lon="11.4320501"><ele>36.0</ele><time>2026-04-15T12:08:50.201Z</time></trkpt><trkpt lat="44.5132823" lon="11.4320976"><ele>36.25</ele><time>2026-04-15T12:08:51.201Z</time></trkpt><trkpt lat="44.5131765" lon="11.4321886"><ele>36.5</ele><time>2026-04-15T12:08:52.195Z</time></trkpt><trkpt lat="44.5130895" lon="11.4323181"><ele>36.75</ele><time>2026-04-15T12:08:53.174Z</time></trkpt><trkpt lat="44.5130198" lon="11.4324678"><ele>37.0</ele><time>2026-04-15T12:08:54.201Z</time></trkpt><trkpt lat="44.5129571" lon="11.43262"><ele>37.0</ele><time>2026-04-15T12:08:55.221Z</time></trkpt><trkpt lat="44.5128749" lon="11.4327654"><ele>37.0</ele><time>2026-04-15T12:08:56.223Z</time></trkpt><trkpt lat="44.512781" lon="11.4328981"><ele>37.0</ele><time>2026-04-15T12:08:57.206Z</time></trkpt><trkpt lat="44.5126664" lon="11.4329729"><ele>37.0</ele><time>2026-04-15T12:08:58.201Z</time></trkpt><trkpt lat="44.5125257" lon="11.432999"><ele>37.0</ele><time>2026-04-15T12:08:59.192Z</time></trkpt><trkpt lat="44.5123888" lon="11.4330226"><ele>37.0</ele><time>2026-04-15T12:09:00.188Z</time></trkpt><trkpt lat="44.5122453" lon="11.4330444"><ele>37.0</ele><time>2026-04-15T12:09:01.2Z</time></trkpt><trkpt lat="44.5121009" lon="11.4330655"><ele>37.0</ele><time>2026-04-15T12:09:02.216Z</time></trkpt><trkpt lat="44.5119543" lon="11.4330907"><ele>37.0</ele><time>2026-04-15T12:09:03.217Z</time></trkpt><trkpt lat="44.5118011" lon="11.4331131"><ele>37.0</ele><time>2026-04-15T12:09:04.212Z</time></trkpt><trkpt lat="44.5116352" lon="11.4331318"><ele>37.0</ele><time>2026-04-15T12:09:05.2Z</time></trkpt><trkpt lat="44.5114619" lon="11.4331486"><ele>37.0</ele><time>2026-04-15T12:09:06.201Z</time></trkpt><trkpt lat="44.5112756" lon="11.4331843"><ele>37.0</ele><time>2026-04-15T12:09:07.198Z</time></trkpt><trkpt lat="44.5110836" lon="11.4332213"><ele>37.0</ele><time>2026-04-15T12:09:08.217Z</time></trkpt><trkpt lat="44.510889" lon="11.4332493"><ele>36.5</ele><time>2026-04-15T12:09:09.237Z</time></trkpt><trkpt lat="44.5106778" lon="11.4332758"><ele>36.0</ele><time>2026-04-15T12:09:10.196Z</time></trkpt><trkpt lat="44.5104405" lon="11.4333086"><ele>36.5</ele><time>2026-04-15T12:09:11.194Z</time></trkpt><trkpt lat="44.5101972" lon="11.433318"><ele>37.0</ele><time>2026-04-15T12:09:12.197Z</time></trkpt><trkpt lat="44.5099544" lon="11.4333137"><ele>37.0</ele><time>2026-04-15T12:09:13.21Z</time></trkpt><trkpt lat="44.5097012" lon="11.4333069"><ele>37.0</ele><time>2026-04-15T12:09:14.208Z</time></trkpt><trkpt lat="44.5094353" lon="11.4332725"><ele>38.5</ele><time>2026-04-15T12:09:15.185Z</time></trkpt><trkpt lat="44.509169" lon="11.4331992"><ele>40.0</ele><time>2026-04-15T12:09:16.204Z</time></trkpt><trkpt lat="44.5089079" lon="11.4331168"><ele>40.0</ele><time>2026-04-15T12:09:17.192Z</time></trkpt><trkpt lat="44.5086658" lon="11.4330261"><ele>40.0</ele><time>2026-04-15T12:09:18.185Z</time></trkpt><trkpt lat="44.5084365" lon="11.4329218"><ele>41.0</ele><time>2026-04-15T12:09:19.194Z</time></trkpt><trkpt lat="44.5082089" lon="11.4328021"><ele>42.0</ele><time>2026-04-15T12:09:20.204Z</time></trkpt><trkpt lat="44.5079915" lon="11.4326729"><ele>41.0</ele><time>2026-04-15T12:09:21.194Z</time></trkpt><trkpt lat="44.507771" lon="11.4325281"><ele>40.0</ele><time>2026-04-15T12:09:22.194Z</time></trkpt><trkpt lat="44.5075462" lon="11.4323636"><ele>40.0</ele><time>2026-04-15T12:09:23.217Z</time></trkpt><trkpt lat="44.5073236" lon="11.4321942"><ele>40.0</ele><time>2026-04-15T12:09:24.195Z</time></trkpt><trkpt lat="44.5071083" lon="11.4320304"><ele>40.5</ele><time>2026-04-15T12:09:25.196Z</time></trkpt><trkpt lat="44.5069019" lon="11.4318737"><ele>41.0</ele><time>2026-04-15T12:09:26.194Z</time></trkpt><trkpt lat="44.506714" lon="11.4317259"><ele>41.0</ele><time>2026-04-15T12:09:27.215Z</time></trkpt><trkpt lat="44.5065526" lon="11.4316042"><ele>41.0</ele><time>2026-04-15T12:09:28.196Z</time></trkpt><trkpt lat="44.50643" lon="11.431487"><ele>41.0</ele><time>2026-04-15T12:09:29.203Z</time></trkpt><trkpt lat="44.5063405" lon="11.4313892"><ele>41.0</ele><time>2026-04-15T12:09:30.184Z</time></trkpt><trkpt lat="44.5062749" lon="11.4312742"><ele>40.8</ele><time>2026-04-15T12:09:31.194Z</time></trkpt><trkpt lat="44.5062239" lon="11.4311525"><ele>40.599999999999994</ele><time>2026-04-15T12:09:32.193Z</time></trkpt><trkpt lat="44.5061931" lon="11.4310118"><ele>40.4</ele><time>2026-04-15T12:09:33.187Z</time></trkpt><trkpt lat="44.5061644" lon="11.4308811"><ele>40.2</ele><time>2026-04-15T12:09:34.18Z</time></trkpt><trkpt lat="44.5061084" lon="11.4307655"><ele>40.0</ele><time>2026-04-15T12:09:35.193Z</time></trkpt><trkpt lat="44.5060286" lon="11.4306643"><ele>40.0</ele><time>2026-04-15T12:09:36.178Z</time></trkpt><trkpt lat="44.5059329" lon="11.4305825"><ele>40.0</ele><time>2026-04-15T12:09:37.183Z</time></trkpt><trkpt lat="44.505835" lon="11.430556"><ele>40.0</ele><time>2026-04-15T12:09:38.176Z</time></trkpt><trkpt lat="44.5057276" lon="11.4305742"><ele>40.0</ele><time>2026-04-15T12:09:39.203Z</time></trkpt><trkpt lat="44.505621" lon="11.430626"><ele>40.0</ele><time>2026-04-15T12:09:40.223Z</time></trkpt><trkpt lat="44.5055271" lon="11.4307075"><ele>40.0</ele><time>2026-04-15T12:09:41.183Z</time></trkpt><trkpt lat="44.50545" lon="11.4308241"><ele>40.0</ele><time>2026-04-15T12:09:42.207Z</time></trkpt><trkpt lat="44.5053999" lon="11.4309626"><ele>40.0</ele><time>2026-04-15T12:09:43.187Z</time></trkpt><trkpt lat="44.5054058" lon="11.4311056"><ele>40.0</ele><time>2026-04-15T12:09:44.173Z</time></trkpt><trkpt lat="44.5054325" lon="11.4312829"><ele>40.5</ele><time>2026-04-15T12:09:45.191Z</time></trkpt><trkpt lat="44.5054779" lon="11.4314561"><ele>41.0</ele><time>2026-04-15T12:09:46.207Z</time></trkpt><trkpt lat="44.5055225" lon="11.4316278"><ele>41.5</ele><time>2026-04-15T12:09:47.205Z</time></trkpt><trkpt lat="44.5055378" lon="11.4318184"><ele>42.0</ele><time>2026-04-15T12:09:48.19Z</time></trkpt><trkpt lat="44.5055289" lon="11.4320215"><ele>41.666666666666664</ele><time>2026-04-15T12:09:49.179Z</time></trkpt><trkpt lat="44.5054914" lon="11.4322258"><ele>41.33333333333333</ele><time>2026-04-15T12:09:50.192Z</time></trkpt><trkpt lat="44.5054407" lon="11.4324278"><ele>41.0</ele><time>2026-04-15T12:09:51.219Z</time></trkpt><trkpt lat="44.5053906" lon="11.4326236"><ele>41.5</ele><time>2026-04-15T12:09:52.209Z</time></trkpt><trkpt lat="44.505343" lon="11.4328153"><ele>42.0</ele><time>2026-04-15T12:09:53.192Z</time></trkpt><trkpt lat="44.5052959" lon="11.4330023"><ele>42.5</ele><time>2026-04-15T12:09:54.18Z</time></trkpt><trkpt lat="44.5052522" lon="11.433176"><ele>43.0</ele><time>2026-04-15T12:09:55.203Z</time></trkpt><trkpt lat="44.505208" lon="11.4333416"><ele>43.0</ele><time>2026-04-15T12:09:56.208Z</time></trkpt><trkpt lat="44.5051711" lon="11.4334927"><ele>43.0</ele><time>2026-04-15T12:09:57.198Z</time></trkpt><trkpt lat="44.5051386" lon="11.4336221"><ele>43.0</ele><time>2026-04-15T12:09:58.176Z</time></trkpt><trkpt lat="44.5051042" lon="11.4337086"><ele>43.0</ele><time>2026-04-15T12:09:59.22Z</time></trkpt><trkpt lat="44.5050214" lon="11.4338177"><ele>43.0</ele><time>2026-04-15T12:10:01.195Z</time></trkpt><trkpt lat="44.5049589" lon="11.4338545"><ele>43.0</ele><time>2026-04-15T12:10:02.187Z</time></trkpt><trkpt lat="44.5048752" lon="11.4338554"><ele>43.0</ele><time>2026-04-15T12:10:03.185Z</time></trkpt><trkpt lat="44.5047899" lon="11.4338175"><ele>43.0</ele><time>2026-04-15T12:10:04.191Z</time></trkpt><trkpt lat="44.504703" lon="11.4337613"><ele>43.0</ele><time>2026-04-15T12:10:05.192Z</time></trkpt><trkpt lat="44.5046042" lon="11.4336975"><ele>43.0</ele><time>2026-04-15T12:10:06.198Z</time></trkpt><trkpt lat="44.5045075" lon="11.4336362"><ele>43.5</ele><time>2026-04-15T12:10:07.201Z</time></trkpt><trkpt lat="44.5044083" lon="11.4335789"><ele>44.0</ele><time>2026-04-15T12:10:08.175Z</time></trkpt><trkpt lat="44.5042996" lon="11.4335277"><ele>44.5</ele><time>2026-04-15T12:10:09.2Z</time></trkpt><trkpt lat="44.5041875" lon="11.4334568"><ele>45.0</ele><time>2026-04-15T12:10:10.184Z</time></trkpt><trkpt lat="44.5040713" lon="11.4333915"><ele>45.0</ele><time>2026-04-15T12:10:11.187Z</time></trkpt><trkpt lat="44.5039474" lon="11.4333402"><ele>45.0</ele><time>2026-04-15T12:10:12.195Z</time></trkpt><trkpt lat="44.5038184" lon="11.4332963"><ele>45.0</ele><time>2026-04-15T12:10:13.217Z</time></trkpt><trkpt lat="44.5036937" lon="11.4332477"><ele>45.0</ele><time>2026-04-15T12:10:14.206Z</time></trkpt><trkpt lat="44.5034458" lon="11.4331401"><ele>45.0</ele><time>2026-04-15T12:10:16.196Z</time></trkpt><trkpt lat="44.5033282" lon="11.433078"><ele>45.0</ele><time>2026-04-15T12:10:17.208Z</time></trkpt><trkpt lat="44.5032165" lon="11.4330119"><ele>45.0</ele><time>2026-04-15T12:10:18.208Z</time></trkpt><trkpt lat="44.5031037" lon="11.4329484"><ele>45.0</ele><time>2026-04-15T12:10:19.178Z</time></trkpt><trkpt lat="44.5029928" lon="11.4328839"><ele>44.75</ele><time>2026-04-15T12:10:20.211Z</time></trkpt><trkpt lat="44.5028853" lon="11.432822"><ele>44.5</ele><time>2026-04-15T12:10:21.213Z</time></trkpt><trkpt lat="44.5027816" lon="11.4327631"><ele>44.25</ele><time>2026-04-15T12:10:22.199Z</time></trkpt><trkpt lat="44.5026738" lon="11.4326988"><ele>44.0</ele><time>2026-04-15T12:10:23.206Z</time></trkpt><trkpt lat="44.5025662" lon="11.4326418"><ele>44.0</ele><time>2026-04-15T12:10:24.18Z</time></trkpt><trkpt lat="44.5024571" lon="11.4325916"><ele>44.0</ele><time>2026-04-15T12:10:25.211Z</time></trkpt><trkpt lat="44.5023534" lon="11.4325371"><ele>44.0</ele><time>2026-04-15T12:10:26.203Z</time></trkpt><trkpt lat="44.5022514" lon="11.4324776"><ele>44.0</ele><time>2026-04-15T12:10:27.2Z</time></trkpt><trkpt lat="44.502148" lon="11.4324161"><ele>44.0</ele><time>2026-04-15T12:10:28.189Z</time></trkpt><trkpt lat="44.5020454" lon="11.4323632"><ele>44.0</ele><time>2026-04-15T12:10:29.192Z</time></trkpt><trkpt lat="44.5019464" lon="11.432305"><ele>44.0</ele><time>2026-04-15T12:10:30.179Z</time></trkpt><trkpt lat="44.5018509" lon="11.4322321"><ele>44.0</ele><time>2026-04-15T12:10:31.208Z</time></trkpt><trkpt lat="44.5017567" lon="11.4321699"><ele>44.0</ele><time>2026-04-15T12:10:32.208Z</time></trkpt><trkpt lat="44.5016817" lon="11.4321341"><ele>44.0</ele><time>2026-04-15T12:10:33.225Z</time></trkpt><trkpt lat="44.5016187" lon="11.4321018"><ele>44.0</ele><time>2026-04-15T12:10:34.204Z</time></trkpt><trkpt lat="44.5015395" lon="11.4320487"><ele>44.0</ele><time>2026-04-15T12:10:35.208Z</time></trkpt><trkpt lat="44.5014516" lon="11.431993"><ele>44.0</ele><time>2026-04-15T12:10:36.192Z</time></trkpt><trkpt lat="44.5013615" lon="11.4319285"><ele>44.0</ele><time>2026-04-15T12:10:37.196Z</time></trkpt><trkpt lat="44.5012607" lon="11.4318566"><ele>44.0</ele><time>2026-04-15T12:10:38.185Z</time></trkpt><trkpt lat="44.5011502" lon="11.4317816"><ele>44.25</ele><time>2026-04-15T12:10:39.201Z</time></trkpt><trkpt lat="44.501036" lon="11.431702"><ele>44.5</ele><time>2026-04-15T12:10:40.211Z</time></trkpt><trkpt lat="44.5009096" lon="11.4316208"><ele>44.75</ele><time>2026-04-15T12:10:41.17Z</time></trkpt><trkpt lat="44.5007867" lon="11.4315342"><ele>45.0</ele><time>2026-04-15T12:10:42.182Z</time></trkpt><trkpt lat="44.5006636" lon="11.4314504"><ele>45.0</ele><time>2026-04-15T12:10:43.19Z</time></trkpt><trkpt lat="44.5005402" lon="11.4313616"><ele>45.0</ele><time>2026-04-15T12:10:44.195Z</time></trkpt><trkpt lat="44.5004191" lon="11.4312725"><ele>45.0</ele><time>2026-04-15T12:10:45.215Z</time></trkpt><trkpt lat="44.5003072" lon="11.431193"><ele>45.0</ele><time>2026-04-15T12:10:46.182Z</time></trkpt><trkpt lat="44.500206" lon="11.4311224"><ele>44.8</ele><time>2026-04-15T12:10:47.226Z</time></trkpt><trkpt lat="44.5001047" lon="11.43109"><ele>44.6</ele><time>2026-04-15T12:10:48.194Z</time></trkpt><trkpt lat="44.5000049" lon="11.431098"><ele>44.400000000000006</ele><time>2026-04-15T12:10:49.178Z</time></trkpt><trkpt lat="44.4999167" lon="11.4311423"><ele>44.2</ele><time>2026-04-15T12:10:50.184Z</time></trkpt><trkpt lat="44.4998305" lon="11.4312214"><ele>44.0</ele><time>2026-04-15T12:10:51.18Z</time></trkpt><trkpt lat="44.499751" lon="11.4312979"><ele>44.2</ele><time>2026-04-15T12:10:52.179Z</time></trkpt><trkpt lat="44.4996571" lon="11.4313421"><ele>44.400000000000006</ele><time>2026-04-15T12:10:53.195Z</time></trkpt><trkpt lat="44.499557" lon="11.431325"><ele>44.6</ele><time>2026-04-15T12:10:54.203Z</time></trkpt><trkpt lat="44.4994659" lon="11.4312465"><ele>44.8</ele><time>2026-04-15T12:10:55.179Z</time></trkpt><trkpt lat="44.4993798" lon="11.4311496"><ele>45.0</ele><time>2026-04-15T12:10:56.207Z</time></trkpt><trkpt lat="44.4993122" lon="11.431036"><ele>45.0</ele><time>2026-04-15T12:10:57.178Z</time></trkpt><trkpt lat="44.4992638" lon="11.4309173"><ele>45.0</ele><time>2026-04-15T12:10:58.201Z</time></trkpt><trkpt lat="44.4992169" lon="11.4308204"><ele>45.0</ele><time>2026-04-15T12:10:59.202Z</time></trkpt><trkpt lat="44.4992318" lon="11.430661"><ele>45.0</ele><time>2026-04-15T12:11:01.186Z</time></trkpt><trkpt lat="44.499274" lon="11.4305424"><ele>45.0</ele><time>2026-04-15T12:11:03.183Z</time></trkpt><trkpt lat="44.4992387" lon="11.4304475"><ele>45.0</ele><time>2026-04-15T12:11:06.162Z</time></trkpt><trkpt lat="44.4991602" lon="11.430512"><ele>45.0</ele><time>2026-04-15T12:12:08.164Z</time></trkpt><trkpt lat="44.499087" lon="11.4305503"><ele>45.0</ele><time>2026-04-15T12:12:10.184Z</time></trkpt><trkpt lat="44.4990155" lon="11.4304188"><ele>45.0</ele><time>2026-04-15T12:12:12.174Z</time></trkpt><trkpt lat="44.4989642" lon="11.4303273"><ele>45.0</ele><time>2026-04-15T12:12:13.164Z</time></trkpt><trkpt lat="44.4989093" lon="11.4302375"><ele>45.0</ele><time>2026-04-15T12:12:14.168Z</time></trkpt><trkpt lat="44.4988606" lon="11.4301507"><ele>45.0</ele><time>2026-04-15T12:12:15.167Z</time></trkpt><trkpt lat="44.4988074" lon="11.4300653"><ele>45.0</ele><time>2026-04-15T12:12:16.186Z</time></trkpt><trkpt lat="44.4987496" lon="11.4299866"><ele>45.0</ele><time>2026-04-15T12:12:17.182Z</time></trkpt><trkpt lat="44.4986845" lon="11.4299046"><ele>45.0</ele><time>2026-04-15T12:12:18.192Z</time></trkpt><trkpt lat="44.4986072" lon="11.4298314"><ele>45.0</ele><time>2026-04-15T12:12:19.174Z</time></trkpt><trkpt lat="44.4985378" lon="11.4297786"><ele>45.333333333333336</ele><time>2026-04-15T12:12:20.196Z</time></trkpt><trkpt lat="44.4984335" lon="11.4296979"><ele>45.666666666666664</ele><time>2026-04-15T12:12:22.196Z</time></trkpt><trkpt lat="44.4983766" lon="11.4296257"><ele>46.0</ele><time>2026-04-15T12:12:24.182Z</time></trkpt><trkpt lat="44.4983252" lon="11.4295572"><ele>46.33333333333333</ele><time>2026-04-15T12:12:28.186Z</time></trkpt><trkpt lat="44.4982774" lon="11.4294505"><ele>46.666666666666664</ele><time>2026-04-15T12:12:31.181Z</time></trkpt><trkpt lat="44.4982405" lon="11.4293584"><ele>47.0</ele><time>2026-04-15T12:12:33.197Z</time></trkpt><trkpt lat="44.4981795" lon="11.4292552"><ele>47.166666666666664</ele><time>2026-04-15T12:12:35.181Z</time></trkpt><trkpt lat="44.4981235" lon="11.4291972"><ele>47.33333333333333</ele><time>2026-04-15T12:12:36.189Z</time></trkpt><trkpt lat="44.4980617" lon="11.4291518"><ele>47.5</ele><time>2026-04-15T12:12:37.182Z</time></trkpt><trkpt lat="44.4979848" lon="11.4291226"><ele>47.666666666666664</ele><time>2026-04-15T12:12:38.166Z</time></trkpt><trkpt lat="44.4979031" lon="11.4291209"><ele>47.833333333333336</ele><time>2026-04-15T12:12:39.165Z</time></trkpt><trkpt lat="44.4978243" lon="11.4291579"><ele>48.0</ele><time>2026-04-15T12:12:40.189Z</time></trkpt><trkpt lat="44.4977512" lon="11.4292185"><ele>48.0</ele><time>2026-04-15T12:12:41.191Z</time></trkpt><trkpt lat="44.4976907" lon="11.4293069"><ele>48.0</ele><time>2026-04-15T12:12:42.195Z</time></trkpt><trkpt lat="44.4976526" lon="11.4294193"><ele>48.0</ele><time>2026-04-15T12:12:43.171Z</time></trkpt><trkpt lat="44.4976346" lon="11.4295425"><ele>48.0</ele><time>2026-04-15T12:12:44.168Z</time></trkpt><trkpt lat="44.497647" lon="11.4296597"><ele>48.0</ele><time>2026-04-15T12:12:45.179Z</time></trkpt><trkpt lat="44.4976838" lon="11.4297717"><ele>48.0</ele><time>2026-04-15T12:12:46.182Z</time></trkpt><trkpt lat="44.4977324" lon="11.4298776"><ele>47.8</ele><time>2026-04-15T12:12:47.175Z</time></trkpt><trkpt lat="44.4977957" lon="11.4299787"><ele>47.599999999999994</ele><time>2026-04-15T12:12:48.185Z</time></trkpt><trkpt lat="44.4978659" lon="11.4300943"><ele>47.400000000000006</ele><time>2026-04-15T12:12:49.188Z</time></trkpt><trkpt lat="44.4979353" lon="11.430217"><ele>47.2</ele><time>2026-04-15T12:12:50.185Z</time></trkpt><trkpt lat="44.4979969" lon="11.4303474"><ele>47.0</ele><time>2026-04-15T12:12:51.166Z</time></trkpt><trkpt lat="44.4980548" lon="11.4304719"><ele>46.400000000000006</ele><time>2026-04-15T12:12:52.158Z</time></trkpt><trkpt lat="44.4981129" lon="11.4305896"><ele>45.800000000000004</ele><time>2026-04-15T12:12:53.191Z</time></trkpt><trkpt lat="44.4981795" lon="11.4306933"><ele>45.2</ele><time>2026-04-15T12:12:54.184Z</time></trkpt><trkpt lat="44.4982559" lon="11.4307826"><ele>44.6</ele><time>2026-04-15T12:12:55.191Z</time></trkpt><trkpt lat="44.4983419" lon="11.430862"><ele>44.0</ele><time>2026-04-15T12:12:56.176Z</time></trkpt><trkpt lat="44.4984354" lon="11.4309352"><ele>44.0</ele><time>2026-04-15T12:12:57.182Z</time></trkpt><trkpt lat="44.4985351" lon="11.4309996"><ele>44.0</ele><time>2026-04-15T12:12:58.183Z</time></trkpt><trkpt lat="44.4986364" lon="11.4310556"><ele>44.0</ele><time>2026-04-15T12:12:59.19Z</time></trkpt><trkpt lat="44.4987378" lon="11.4311033"><ele>44.0</ele><time>2026-04-15T12:13:00.151Z</time></trkpt><trkpt lat="44.4988378" lon="11.4311449"><ele>44.0</ele><time>2026-04-15T12:13:01.187Z</time></trkpt><trkpt lat="44.4989391" lon="11.4311796"><ele>44.2</ele><time>2026-04-15T12:13:02.189Z</time></trkpt><trkpt lat="44.4990411" lon="11.4312149"><ele>44.400000000000006</ele><time>2026-04-15T12:13:03.189Z</time></trkpt><trkpt lat="44.4991406" lon="11.4312568"><ele>44.6</ele><time>2026-04-15T12:13:04.174Z</time></trkpt><trkpt lat="44.4992361" lon="11.431304"><ele>44.8</ele><time>2026-04-15T12:13:05.19Z</time></trkpt><trkpt lat="44.4993295" lon="11.4313613"><ele>45.0</ele><time>2026-04-15T12:13:06.189Z</time></trkpt><trkpt lat="44.4994187" lon="11.4314284"><ele>45.0</ele><time>2026-04-15T12:13:07.164Z</time></trkpt><trkpt lat="44.4994997" lon="11.4315041"><ele>45.0</ele><time>2026-04-15T12:13:08.153Z</time></trkpt><trkpt lat="44.4995765" lon="11.4315871"><ele>45.0</ele><time>2026-04-15T12:13:09.177Z</time></trkpt><trkpt lat="44.4996367" lon="11.4316883"><ele>45.0</ele><time>2026-04-15T12:13:10.165Z</time></trkpt><trkpt lat="44.4996687" lon="11.4317813"><ele>45.0</ele><time>2026-04-15T12:13:11.148Z</time></trkpt><trkpt lat="44.4996781" lon="11.4318728"><ele>45.0</ele><time>2026-04-15T12:13:12.162Z</time></trkpt><trkpt lat="44.4996718" lon="11.4319695"><ele>45.0</ele><time>2026-04-15T12:13:13.162Z</time></trkpt><trkpt lat="44.4996469" lon="11.4320641"><ele>45.0</ele><time>2026-04-15T12:13:14.159Z</time></trkpt><trkpt lat="44.499628" lon="11.4321925"><ele>45.0</ele><time>2026-04-15T12:13:16.15Z</time></trkpt><trkpt lat="44.4997116" lon="11.4322009"><ele>45.0</ele><time>2026-04-15T12:13:19.148Z</time></trkpt><trkpt lat="44.499752" lon="11.4322825"><ele>45.0</ele><time>2026-04-15T12:13:23.184Z</time></trkpt><trkpt lat="44.4997051" lon="11.4323575"><ele>45.0</ele><time>2026-04-15T12:13:26.17Z</time></trkpt><trkpt lat="44.4996638" lon="11.4324309"><ele>45.166666666666664</ele><time>2026-04-15T12:13:38.18Z</time></trkpt><trkpt lat="44.499611" lon="11.4324812"><ele>45.333333333333336</ele><time>2026-04-15T12:13:40.174Z</time></trkpt><trkpt lat="44.4995436" lon="11.4325298"><ele>45.5</ele><time>2026-04-15T12:13:42.184Z</time></trkpt><trkpt lat="44.4994905" lon="11.4325876"><ele>45.66666666666667</ele><time>2026-04-15T12:13:43.173Z</time></trkpt><trkpt lat="44.4994396" lon="11.4326699"><ele>45.833333333333336</ele><time>2026-04-15T12:13:44.189Z</time></trkpt><trkpt lat="44.4993972" lon="11.4327828"><ele>46.0</ele><time>2026-04-15T12:13:45.164Z</time></trkpt><trkpt lat="44.4993534" lon="11.4329549"><ele>45.66666666666667</ele><time>2026-04-15T12:13:46.159Z</time></trkpt><trkpt lat="44.4992905" lon="11.4331502"><ele>45.333333333333336</ele><time>2026-04-15T12:13:47.151Z</time></trkpt><trkpt lat="44.4992258" lon="11.4333545"><ele>45.0</ele><time>2026-04-15T12:13:48.192Z</time></trkpt><trkpt lat="44.4991533" lon="11.4335766"><ele>45.0</ele><time>2026-04-15T12:13:49.179Z</time></trkpt><trkpt lat="44.4990779" lon="11.4338021"><ele>45.0</ele><time>2026-04-15T12:13:50.172Z</time></trkpt><trkpt lat="44.4990061" lon="11.4340328"><ele>45.0</ele><time>2026-04-15T12:13:51.182Z</time></trkpt><trkpt lat="44.4989308" lon="11.4342662"><ele>44.75</ele><time>2026-04-15T12:13:52.153Z</time></trkpt><trkpt lat="44.4988614" lon="11.4344837"><ele>44.5</ele><time>2026-04-15T12:13:53.181Z</time></trkpt><trkpt lat="44.498812" lon="11.4346508"><ele>44.25</ele><time>2026-04-15T12:13:54.162Z</time></trkpt><trkpt lat="44.4987632" lon="11.4347628"><ele>44.0</ele><time>2026-04-15T12:13:55.148Z</time></trkpt><trkpt lat="44.4987049" lon="11.4348978"><ele>44.0</ele><time>2026-04-15T12:13:56.156Z</time></trkpt><trkpt lat="44.4986578" lon="11.4350703"><ele>44.0</ele><time>2026-04-15T12:13:57.174Z</time></trkpt><trkpt lat="44.4985958" lon="11.4352795"><ele>44.0</ele><time>2026-04-15T12:13:58.184Z</time></trkpt><trkpt lat="44.4985255" lon="11.4355152"><ele>44.33333333333333</ele><time>2026-04-15T12:13:59.154Z</time></trkpt><trkpt lat="44.4984419" lon="11.4357706"><ele>44.666666666666664</ele><time>2026-04-15T12:14:00.171Z</time></trkpt><trkpt lat="44.4983643" lon="11.4360323"><ele>45.0</ele><time>2026-04-15T12:14:01.176Z</time></trkpt><trkpt lat="44.4982742" lon="11.4363093"><ele>45.0</ele><time>2026-04-15T12:14:02.175Z</time></trkpt><trkpt lat="44.4981794" lon="11.4366009"><ele>45.0</ele><time>2026-04-15T12:14:03.171Z</time></trkpt><trkpt lat="44.4980895" lon="11.4368803"><ele>45.0</ele><time>2026-04-15T12:14:04.161Z</time></trkpt><trkpt lat="44.4980078" lon="11.4371584"><ele>44.666666666666664</ele><time>2026-04-15T12:14:05.173Z</time></trkpt><trkpt lat="44.497925" lon="11.4374413"><ele>44.33333333333333</ele><time>2026-04-15T12:14:06.18Z</time></trkpt><trkpt lat="44.4978405" lon="11.4377275"><ele>44.0</ele><time>2026-04-15T12:14:07.162Z</time></trkpt><trkpt lat="44.4977653" lon="11.4380057"><ele>43.33333333333333</ele><time>2026-04-15T12:14:08.165Z</time></trkpt><trkpt lat="44.4976891" lon="11.4382725"><ele>42.666666666666664</ele><time>2026-04-15T12:14:09.172Z</time></trkpt><trkpt lat="44.4976084" lon="11.4385284"><ele>42.0</ele><time>2026-04-15T12:14:10.147Z</time></trkpt><trkpt lat="44.4975257" lon="11.4387781"><ele>42.333333333333336</ele><time>2026-04-15T12:14:11.151Z</time></trkpt><trkpt lat="44.4974485" lon="11.4390251"><ele>42.66666666666667</ele><time>2026-04-15T12:14:12.149Z</time></trkpt><trkpt lat="44.4973706" lon="11.4392767"><ele>43.0</ele><time>2026-04-15T12:14:13.15Z</time></trkpt><trkpt lat="44.4972902" lon="11.4395327"><ele>43.0</ele><time>2026-04-15T12:14:14.177Z</time></trkpt><trkpt lat="44.497206" lon="11.4397924"><ele>43.0</ele><time>2026-04-15T12:14:15.164Z</time></trkpt><trkpt lat="44.4971214" lon="11.4400528"><ele>43.0</ele><time>2026-04-15T12:14:16.172Z</time></trkpt><trkpt lat="44.4970393" lon="11.4403055"><ele>43.0</ele><time>2026-04-15T12:14:17.176Z</time></trkpt><trkpt lat="44.4969643" lon="11.4405418"><ele>43.0</ele><time>2026-04-15T12:14:18.166Z</time></trkpt><trkpt lat="44.4969026" lon="11.4407637"><ele>43.0</ele><time>2026-04-15T12:14:19.139Z</time></trkpt><trkpt lat="44.4968501" lon="11.4409813"><ele>43.0</ele><time>2026-04-15T12:14:20.152Z</time></trkpt><trkpt lat="44.4968093" lon="11.4411739"><ele>43.0</ele><time>2026-04-15T12:14:21.18Z</time></trkpt><trkpt lat="44.4967782" lon="11.441325"><ele>43.0</ele><time>2026-04-15T12:14:22.159Z</time></trkpt><trkpt lat="44.4967531" lon="11.4414478"><ele>43.0</ele><time>2026-04-15T12:14:23.176Z</time></trkpt><trkpt lat="44.4967248" lon="11.4415346"><ele>43.0</ele><time>2026-04-15T12:14:24.168Z</time></trkpt><trkpt lat="44.4966208" lon="11.4416218"><ele>43.4</ele><time>2026-04-15T12:14:26.163Z</time></trkpt><trkpt lat="44.4965497" lon="11.4416068"><ele>43.8</ele><time>2026-04-15T12:14:27.148Z</time></trkpt><trkpt lat="44.4964563" lon="11.4415623"><ele>44.2</ele><time>2026-04-15T12:14:28.161Z</time></trkpt><trkpt lat="44.4963416" lon="11.4415129"><ele>44.6</ele><time>2026-04-15T12:14:29.154Z</time></trkpt><trkpt lat="44.4962139" lon="11.441457"><ele>45.0</ele><time>2026-04-15T12:14:30.158Z</time></trkpt><trkpt lat="44.4960534" lon="11.4413963"><ele>45.0</ele><time>2026-04-15T12:14:31.172Z</time></trkpt><trkpt lat="44.4958903" lon="11.4413274"><ele>45.0</ele><time>2026-04-15T12:14:32.157Z</time></trkpt><trkpt lat="44.4957341" lon="11.4412598"><ele>45.0</ele><time>2026-04-15T12:14:33.157Z</time></trkpt><trkpt lat="44.4955896" lon="11.441175"><ele>45.0</ele><time>2026-04-15T12:14:34.18Z</time></trkpt><trkpt lat="44.4954524" lon="11.4410636"><ele>45.0</ele><time>2026-04-15T12:14:35.166Z</time></trkpt><trkpt lat="44.4953378" lon="11.4409391"><ele>45.0</ele><time>2026-04-15T12:14:36.169Z</time></trkpt><trkpt lat="44.4952549" lon="11.4407977"><ele>45.0</ele><time>2026-04-15T12:14:37.159Z</time></trkpt><trkpt lat="44.4951874" lon="11.4406439"><ele>45.0</ele><time>2026-04-15T12:14:38.165Z</time></trkpt><trkpt lat="44.4951483" lon="11.4404881"><ele>45.0</ele><time>2026-04-15T12:14:39.157Z</time></trkpt><trkpt lat="44.4951412" lon="11.4403123"><ele>45.0</ele><time>2026-04-15T12:14:40.168Z</time></trkpt><trkpt lat="44.4951394" lon="11.4401269"><ele>45.0</ele><time>2026-04-15T12:14:41.194Z</time></trkpt><trkpt lat="44.495124" lon="11.4399426"><ele>44.5</ele><time>2026-04-15T12:14:42.178Z</time></trkpt><trkpt lat="44.4950986" lon="11.4397649"><ele>44.0</ele><time>2026-04-15T12:14:43.149Z</time></trkpt><trkpt lat="44.4950578" lon="11.4396006"><ele>43.5</ele><time>2026-04-15T12:14:44.158Z</time></trkpt><trkpt lat="44.4949941" lon="11.4394365"><ele>43.0</ele><time>2026-04-15T12:14:45.184Z</time></trkpt><trkpt lat="44.4949003" lon="11.4392749"><ele>43.0</ele><time>2026-04-15T12:14:46.172Z</time></trkpt><trkpt lat="44.4947898" lon="11.439115"><ele>43.0</ele><time>2026-04-15T12:14:47.166Z</time></trkpt><trkpt lat="44.4946816" lon="11.4389497"><ele>43.0</ele><time>2026-04-15T12:14:48.191Z</time></trkpt><trkpt lat="44.4945822" lon="11.4388093"><ele>43.5</ele><time>2026-04-15T12:14:49.174Z</time></trkpt><trkpt lat="44.4944967" lon="11.4386718"><ele>44.0</ele><time>2026-04-15T12:14:50.186Z</time></trkpt><trkpt lat="44.4944385" lon="11.4385244"><ele>44.5</ele><time>2026-04-15T12:14:51.154Z</time></trkpt><trkpt lat="44.4944128" lon="11.4383415"><ele>45.0</ele><time>2026-04-15T12:14:52.148Z</time></trkpt><trkpt lat="44.4944282" lon="11.4381219"><ele>45.666666666666664</ele><time>2026-04-15T12:14:53.149Z</time></trkpt><trkpt lat="44.4944487" lon="11.4378845"><ele>46.33333333333333</ele><time>2026-04-15T12:14:54.16Z</time></trkpt><trkpt lat="44.4944986" lon="11.4376266"><ele>47.0</ele><time>2026-04-15T12:14:55.164Z</time></trkpt><trkpt lat="44.4945539" lon="11.4373577"><ele>45.666666666666664</ele><time>2026-04-15T12:14:56.16Z</time></trkpt><trkpt lat="44.4946183" lon="11.4370842"><ele>44.333333333333336</ele><time>2026-04-15T12:14:57.173Z</time></trkpt><trkpt lat="44.4946875" lon="11.4367967"><ele>43.0</ele><time>2026-04-15T12:14:58.145Z</time></trkpt><trkpt lat="44.4947621" lon="11.4365092"><ele>44.0</ele><time>2026-04-15T12:14:59.167Z</time></trkpt><trkpt lat="44.4948473" lon="11.4362217"><ele>45.0</ele><time>2026-04-15T12:15:00.152Z</time></trkpt><trkpt lat="44.4949387" lon="11.4359469"><ele>46.0</ele><time>2026-04-15T12:15:01.176Z</time></trkpt><trkpt lat="44.495021" lon="11.4356944"><ele>46.0</ele><time>2026-04-15T12:15:02.165Z</time></trkpt><trkpt lat="44.4950995" lon="11.4354636"><ele>46.0</ele><time>2026-04-15T12:15:03.137Z</time></trkpt><trkpt lat="44.4951714" lon="11.435251"><ele>46.0</ele><time>2026-04-15T12:15:04.166Z</time></trkpt><trkpt lat="44.4952426" lon="11.4350488"><ele>46.0</ele><time>2026-04-15T12:15:05.167Z</time></trkpt><trkpt lat="44.4953092" lon="11.4348541"><ele>46.0</ele><time>2026-04-15T12:15:06.17Z</time></trkpt><trkpt lat="44.4953707" lon="11.4346632"><ele>46.0</ele><time>2026-04-15T12:15:07.144Z</time></trkpt><trkpt lat="44.4954322" lon="11.4344755"><ele>45.333333333333336</ele><time>2026-04-15T12:15:08.173Z</time></trkpt><trkpt lat="44.495496" lon="11.4342761"><ele>44.666666666666664</ele><time>2026-04-15T12:15:09.157Z</time></trkpt><trkpt lat="44.4955639" lon="11.434073"><ele>44.0</ele><time>2026-04-15T12:15:10.179Z</time></trkpt><trkpt lat="44.4956383" lon="11.4338759"><ele>44.666666666666664</ele><time>2026-04-15T12:15:11.182Z</time></trkpt><trkpt lat="44.4957156" lon="11.4336748"><ele>45.333333333333336</ele><time>2026-04-15T12:15:12.156Z</time></trkpt><trkpt lat="44.495796" lon="11.4334675"><ele>46.0</ele><time>2026-04-15T12:15:13.16Z</time></trkpt><trkpt lat="44.4958719" lon="11.4332567"><ele>46.0</ele><time>2026-04-15T12:15:14.174Z</time></trkpt><trkpt lat="44.4959478" lon="11.4330454"><ele>46.0</ele><time>2026-04-15T12:15:15.17Z</time></trkpt><trkpt lat="44.4960264" lon="11.4328331"><ele>46.0</ele><time>2026-04-15T12:15:16.166Z</time></trkpt><trkpt lat="44.4961048" lon="11.4326229"><ele>46.333333333333336</ele><time>2026-04-15T12:15:17.145Z</time></trkpt><trkpt lat="44.4961773" lon="11.4324216"><ele>46.666666666666664</ele><time>2026-04-15T12:15:18.181Z</time></trkpt><trkpt lat="44.4962394" lon="11.432232"><ele>47.0</ele><time>2026-04-15T12:15:19.182Z</time></trkpt><trkpt lat="44.4963022" lon="11.4320497"><ele>46.666666666666664</ele><time>2026-04-15T12:15:20.176Z</time></trkpt><trkpt lat="44.4963546" lon="11.4319066"><ele>46.33333333333333</ele><time>2026-04-15T12:15:21.152Z</time></trkpt><trkpt lat="44.4963887" lon="11.4318113"><ele>46.0</ele><time>2026-04-15T12:15:22.154Z</time></trkpt><trkpt lat="44.4964601" lon="11.4317608"><ele>45.666666666666664</ele><time>2026-04-15T12:15:25.144Z</time></trkpt><trkpt lat="44.4965338" lon="11.4317603"><ele>45.333333333333336</ele><time>2026-04-15T12:15:29.152Z</time></trkpt><trkpt lat="44.4965722" lon="11.431632"><ele>45.0</ele><time>2026-04-15T12:15:34.168Z</time></trkpt><trkpt lat="44.4966276" lon="11.4315556"><ele>45.0</ele><time>2026-04-15T12:15:37.148Z</time></trkpt><trkpt lat="44.4966594" lon="11.431646"><ele>45.0</ele><time>2026-04-15T12:16:58.154Z</time></trkpt><trkpt lat="44.4967281" lon="11.4316234"><ele>45.0</ele><time>2026-04-15T12:17:04.134Z</time></trkpt><trkpt lat="44.4967895" lon="11.4315947"><ele>45.0</ele><time>2026-04-15T12:17:12.106Z</time></trkpt><trkpt lat="44.4969105" lon="11.4316237"><ele>45.0</ele><time>2026-04-15T12:18:06.156Z</time></trkpt><trkpt lat="44.4968436" lon="11.4316286"><ele>45.0</ele><time>2026-04-15T12:46:10.149Z</time></trkpt><trkpt lat="44.4967756" lon="11.4316239"><ele>45.0</ele><time>2026-04-15T12:46:16.164Z</time></trkpt><trkpt lat="44.4967106" lon="11.4316524"><ele>45.0</ele><time>2026-04-15T12:46:22.157Z</time></trkpt><trkpt lat="44.4966473" lon="11.4316636"><ele>45.0</ele><time>2026-04-15T12:46:27.15Z</time></trkpt><trkpt lat="44.4965888" lon="11.4316061"><ele>45.0</ele><time>2026-04-15T12:46:33.165Z</time></trkpt><trkpt lat="44.496546" lon="11.4316721"><ele>45.0</ele><time>2026-04-15T12:54:10.139Z</time></trkpt><trkpt lat="44.4964892" lon="11.4315062"><ele>45.0</ele><time>2026-04-15T12:54:13.122Z</time></trkpt><trkpt lat="44.4965421" lon="11.4313921"><ele>45.0</ele><time>2026-04-15T12:54:14.12Z</time></trkpt><trkpt lat="44.4966024" lon="11.4312562"><ele>45.0</ele><time>2026-04-15T12:54:15.11Z</time></trkpt><trkpt lat="44.4966712" lon="11.4311109"><ele>45.0</ele><time>2026-04-15T12:54:16.128Z</time></trkpt><trkpt lat="44.4967486" lon="11.4309627"><ele>45.0</ele><time>2026-04-15T12:54:17.081Z</time></trkpt><trkpt lat="44.4968245" lon="11.4308246"><ele>45.0</ele><time>2026-04-15T12:54:18.111Z</time></trkpt><trkpt lat="44.4968966" lon="11.4307101"><ele>45.0</ele><time>2026-04-15T12:54:19.109Z</time></trkpt><trkpt lat="44.4969677" lon="11.4305981"><ele>45.0</ele><time>2026-04-15T12:54:20.095Z</time></trkpt><trkpt lat="44.4970402" lon="11.4304931"><ele>45.0</ele><time>2026-04-15T12:54:21.132Z</time></trkpt><trkpt lat="44.4971081" lon="11.4303951"><ele>45.0</ele><time>2026-04-15T12:54:22.104Z</time></trkpt><trkpt lat="44.4971739" lon="11.4302993"><ele>45.0</ele><time>2026-04-15T12:54:23.104Z</time></trkpt><trkpt lat="44.4972414" lon="11.4302128"><ele>45.0</ele><time>2026-04-15T12:54:24.103Z</time></trkpt><trkpt lat="44.4973079" lon="11.4301374"><ele>45.0</ele><time>2026-04-15T12:54:25.124Z</time></trkpt><trkpt lat="44.4973719" lon="11.4300734"><ele>45.0</ele><time>2026-04-15T12:54:26.131Z</time></trkpt><trkpt lat="44.4974283" lon="11.4300132"><ele>45.0</ele><time>2026-04-15T12:54:27.156Z</time></trkpt><trkpt lat="44.4975209" lon="11.429944"><ele>45.0</ele><time>2026-04-15T12:54:29.089Z</time></trkpt><trkpt lat="44.4975918" lon="11.4299228"><ele>45.0</ele><time>2026-04-15T12:54:35.116Z</time></trkpt><trkpt lat="44.4977197" lon="11.4299614"><ele>45.0</ele><time>2026-04-15T12:54:37.119Z</time></trkpt><trkpt lat="44.4978151" lon="11.4299864"><ele>45.0</ele><time>2026-04-15T12:54:38.095Z</time></trkpt><trkpt lat="44.4979166" lon="11.4299894"><ele>45.0</ele><time>2026-04-15T12:54:39.115Z</time></trkpt><trkpt lat="44.4980161" lon="11.4299633"><ele>45.0</ele><time>2026-04-15T12:54:40.111Z</time></trkpt><trkpt lat="44.498111" lon="11.4299119"><ele>45.4</ele><time>2026-04-15T12:54:41.102Z</time></trkpt><trkpt lat="44.4981804" lon="11.4298261"><ele>45.8</ele><time>2026-04-15T12:54:42.128Z</time></trkpt><trkpt lat="44.4982289" lon="11.4296992"><ele>46.2</ele><time>2026-04-15T12:54:43.098Z</time></trkpt><trkpt lat="44.4982391" lon="11.4295532"><ele>46.6</ele><time>2026-04-15T12:54:44.082Z</time></trkpt><trkpt lat="44.4982182" lon="11.4294008"><ele>47.0</ele><time>2026-04-15T12:54:45.122Z</time></trkpt><trkpt lat="44.4981654" lon="11.4292783"><ele>47.25</ele><time>2026-04-15T12:54:46.099Z</time></trkpt><trkpt lat="44.4980792" lon="11.4291907"><ele>47.5</ele><time>2026-04-15T12:54:47.105Z</time></trkpt><trkpt lat="44.497975" lon="11.4291472"><ele>47.75</ele><time>2026-04-15T12:54:48.089Z</time></trkpt><trkpt lat="44.4978572" lon="11.4291301"><ele>48.0</ele><time>2026-04-15T12:54:49.118Z</time></trkpt><trkpt lat="44.4977302" lon="11.4291087"><ele>48.0</ele><time>2026-04-15T12:54:50.107Z</time></trkpt><trkpt lat="44.4976107" lon="11.4290434"><ele>48.0</ele><time>2026-04-15T12:54:51.091Z</time></trkpt><trkpt lat="44.4975003" lon="11.4289363"><ele>48.0</ele><time>2026-04-15T12:54:52.13Z</time></trkpt><trkpt lat="44.4973966" lon="11.4288228"><ele>48.0</ele><time>2026-04-15T12:54:53.118Z</time></trkpt><trkpt lat="44.4973002" lon="11.4287248"><ele>47.5</ele><time>2026-04-15T12:54:54.122Z</time></trkpt><trkpt lat="44.4972052" lon="11.4286436"><ele>47.0</ele><time>2026-04-15T12:54:55.114Z</time></trkpt><trkpt lat="44.4971069" lon="11.42856"><ele>46.5</ele><time>2026-04-15T12:54:56.104Z</time></trkpt><trkpt lat="44.4970076" lon="11.4284708"><ele>46.0</ele><time>2026-04-15T12:54:57.103Z</time></trkpt><trkpt lat="44.4968999" lon="11.4283928"><ele>46.0</ele><time>2026-04-15T12:54:58.118Z</time></trkpt><trkpt lat="44.4967967" lon="11.4283132"><ele>46.0</ele><time>2026-04-15T12:54:59.101Z</time></trkpt><trkpt lat="44.4966942" lon="11.4282428"><ele>46.0</ele><time>2026-04-15T12:55:00.098Z</time></trkpt><trkpt lat="44.4965917" lon="11.4281735"><ele>46.0</ele><time>2026-04-15T12:55:01.094Z</time></trkpt><trkpt lat="44.4964902" lon="11.4281128"><ele>46.0</ele><time>2026-04-15T12:55:02.134Z</time></trkpt><trkpt lat="44.4963886" lon="11.4280595"><ele>46.0</ele><time>2026-04-15T12:55:03.135Z</time></trkpt><trkpt lat="44.4962887" lon="11.4280015"><ele>46.0</ele><time>2026-04-15T12:55:04.122Z</time></trkpt><trkpt lat="44.4961881" lon="11.4279407"><ele>46.0</ele><time>2026-04-15T12:55:05.102Z</time></trkpt><trkpt lat="44.4960855" lon="11.4278818"><ele>46.0</ele><time>2026-04-15T12:55:06.121Z</time></trkpt><trkpt lat="44.4959874" lon="11.4278208"><ele>46.4</ele><time>2026-04-15T12:55:07.117Z</time></trkpt><trkpt lat="44.4958849" lon="11.4277569"><ele>46.8</ele><time>2026-04-15T12:55:08.109Z</time></trkpt><trkpt lat="44.4957847" lon="11.4276992"><ele>47.199999999999996</ele><time>2026-04-15T12:55:09.101Z</time></trkpt><trkpt lat="44.4956761" lon="11.4276478"><ele>47.599999999999994</ele><time>2026-04-15T12:55:10.11Z</time></trkpt><trkpt lat="44.4955704" lon="11.4275935"><ele>48.0</ele><time>2026-04-15T12:55:11.096Z</time></trkpt><trkpt lat="44.4954611" lon="11.427537"><ele>48.25</ele><time>2026-04-15T12:55:12.107Z</time></trkpt><trkpt lat="44.495351" lon="11.4274787"><ele>48.5</ele><time>2026-04-15T12:55:13.102Z</time></trkpt><trkpt lat="44.4952404" lon="11.4274243"><ele>48.75</ele><time>2026-04-15T12:55:14.13Z</time></trkpt><trkpt lat="44.4951324" lon="11.4273561"><ele>49.0</ele><time>2026-04-15T12:55:15.118Z</time></trkpt><trkpt lat="44.4950231" lon="11.4272959"><ele>49.0</ele><time>2026-04-15T12:55:16.139Z</time></trkpt><trkpt lat="44.4949191" lon="11.427231"><ele>49.0</ele><time>2026-04-15T12:55:17.127Z</time></trkpt><trkpt lat="44.4948141" lon="11.4271721"><ele>49.0</ele><time>2026-04-15T12:55:18.117Z</time></trkpt><trkpt lat="44.4947065" lon="11.4271059"><ele>49.0</ele><time>2026-04-15T12:55:19.077Z</time></trkpt><trkpt lat="44.4946006" lon="11.4270491"><ele>48.6</ele><time>2026-04-15T12:55:20.102Z</time></trkpt><trkpt lat="44.4944977" lon="11.4269846"><ele>48.2</ele><time>2026-04-15T12:55:21.127Z</time></trkpt><trkpt lat="44.4943983" lon="11.4269215"><ele>47.800000000000004</ele><time>2026-04-15T12:55:22.121Z</time></trkpt><trkpt lat="44.4943031" lon="11.4268676"><ele>47.400000000000006</ele><time>2026-04-15T12:55:23.115Z</time></trkpt><trkpt lat="44.4942073" lon="11.4268142"><ele>47.0</ele><time>2026-04-15T12:55:24.105Z</time></trkpt><trkpt lat="44.4941098" lon="11.4267545"><ele>47.0</ele><time>2026-04-15T12:55:25.113Z</time></trkpt><trkpt lat="44.4940056" lon="11.4266949"><ele>47.0</ele><time>2026-04-15T12:55:26.128Z</time></trkpt><trkpt lat="44.4938996" lon="11.4266334"><ele>47.0</ele><time>2026-04-15T12:55:27.105Z</time></trkpt><trkpt lat="44.4937876" lon="11.4265722"><ele>47.0</ele><time>2026-04-15T12:55:28.103Z</time></trkpt><trkpt lat="44.4936742" lon="11.4265065"><ele>47.5</ele><time>2026-04-15T12:55:29.085Z</time></trkpt><trkpt lat="44.4935542" lon="11.4264348"><ele>48.0</ele><time>2026-04-15T12:55:30.119Z</time></trkpt><trkpt lat="44.4934353" lon="11.4263674"><ele>48.5</ele><time>2026-04-15T12:55:31.128Z</time></trkpt><trkpt lat="44.4933066" lon="11.4263013"><ele>49.0</ele><time>2026-04-15T12:55:32.124Z</time></trkpt><trkpt lat="44.4931816" lon="11.4262338"><ele>49.0</ele><time>2026-04-15T12:55:33.117Z</time></trkpt><trkpt lat="44.4930572" lon="11.426161"><ele>49.0</ele><time>2026-04-15T12:55:34.118Z</time></trkpt><trkpt lat="44.4929369" lon="11.4260826"><ele>49.0</ele><time>2026-04-15T12:55:35.099Z</time></trkpt><trkpt lat="44.4928235" lon="11.4260102"><ele>49.0</ele><time>2026-04-15T12:55:36.114Z</time></trkpt><trkpt lat="44.492719" lon="11.4259375"><ele>49.0</ele><time>2026-04-15T12:55:37.119Z</time></trkpt><trkpt lat="44.4926246" lon="11.4258649"><ele>49.0</ele><time>2026-04-15T12:55:38.11Z</time></trkpt><trkpt lat="44.4925346" lon="11.4257969"><ele>49.0</ele><time>2026-04-15T12:55:39.08Z</time></trkpt><trkpt lat="44.4924432" lon="11.4257344"><ele>49.0</ele><time>2026-04-15T12:55:40.112Z</time></trkpt><trkpt lat="44.4923409" lon="11.4256696"><ele>49.0</ele><time>2026-04-15T12:55:41.122Z</time></trkpt><trkpt lat="44.4922253" lon="11.4255984"><ele>49.0</ele><time>2026-04-15T12:55:42.123Z</time></trkpt><trkpt lat="44.4921075" lon="11.4255199"><ele>49.0</ele><time>2026-04-15T12:55:43.111Z</time></trkpt><trkpt lat="44.4919924" lon="11.4254275"><ele>49.0</ele><time>2026-04-15T12:55:44.089Z</time></trkpt><trkpt lat="44.49187" lon="11.4253585"><ele>49.0</ele><time>2026-04-15T12:55:45.11Z</time></trkpt><trkpt lat="44.4917518" lon="11.4252718"><ele>49.0</ele><time>2026-04-15T12:55:46.128Z</time></trkpt><trkpt lat="44.4916281" lon="11.4251835"><ele>49.0</ele><time>2026-04-15T12:55:47.11Z</time></trkpt><trkpt lat="44.4914987" lon="11.4251095"><ele>49.0</ele><time>2026-04-15T12:55:48.079Z</time></trkpt><trkpt lat="44.4913689" lon="11.4250231"><ele>49.0</ele><time>2026-04-15T12:55:49.102Z</time></trkpt><trkpt lat="44.4912368" lon="11.4249467"><ele>49.0</ele><time>2026-04-15T12:55:50.108Z</time></trkpt><trkpt lat="44.4911159" lon="11.4248963"><ele>49.0</ele><time>2026-04-15T12:55:51.119Z</time></trkpt><trkpt lat="44.4910069" lon="11.4248483"><ele>49.0</ele><time>2026-04-15T12:55:52.091Z</time></trkpt><trkpt lat="44.4908928" lon="11.424799"><ele>49.0</ele><time>2026-04-15T12:55:53.119Z</time></trkpt><trkpt lat="44.4907678" lon="11.4247549"><ele>49.0</ele><time>2026-04-15T12:55:54.109Z</time></trkpt><trkpt lat="44.4906438" lon="11.4247072"><ele>49.0</ele><time>2026-04-15T12:55:55.125Z</time></trkpt><trkpt lat="44.490529" lon="11.4246706"><ele>49.0</ele><time>2026-04-15T12:55:56.094Z</time></trkpt><trkpt lat="44.4904191" lon="11.4246391"><ele>49.0</ele><time>2026-04-15T12:55:57.097Z</time></trkpt><trkpt lat="44.4903042" lon="11.4246061"><ele>48.5</ele><time>2026-04-15T12:55:58.093Z</time></trkpt><trkpt lat="44.4901888" lon="11.4245753"><ele>48.0</ele><time>2026-04-15T12:55:59.11Z</time></trkpt><trkpt lat="44.4900692" lon="11.4245485"><ele>47.5</ele><time>2026-04-15T12:56:00.1Z</time></trkpt><trkpt lat="44.4899509" lon="11.424511"><ele>47.0</ele><time>2026-04-15T12:56:01.104Z</time></trkpt><trkpt lat="44.4898353" lon="11.4244732"><ele>47.0</ele><time>2026-04-15T12:56:02.097Z</time></trkpt><trkpt lat="44.4897193" lon="11.4244345"><ele>47.0</ele><time>2026-04-15T12:56:03.083Z</time></trkpt><trkpt lat="44.4896074" lon="11.4243963"><ele>47.0</ele><time>2026-04-15T12:56:04.116Z</time></trkpt><trkpt lat="44.489499" lon="11.4243649"><ele>47.0</ele><time>2026-04-15T12:56:05.1Z</time></trkpt><trkpt lat="44.4894016" lon="11.4243308"><ele>47.0</ele><time>2026-04-15T12:56:06.096Z</time></trkpt><trkpt lat="44.4893173" lon="11.4243101"><ele>46.857142857142854</ele><time>2026-04-15T12:56:07.103Z</time></trkpt><trkpt lat="44.4892427" lon="11.4242858"><ele>46.71428571428571</ele><time>2026-04-15T12:56:08.082Z</time></trkpt><trkpt lat="44.4891791" lon="11.4242546"><ele>46.57142857142857</ele><time>2026-04-15T12:56:09.093Z</time></trkpt><trkpt lat="44.489122" lon="11.424204"><ele>46.42857142857143</ele><time>2026-04-15T12:56:10.093Z</time></trkpt><trkpt lat="44.4890709" lon="11.4241324"><ele>46.285714285714285</ele><time>2026-04-15T12:56:11.101Z</time></trkpt><trkpt lat="44.4890326" lon="11.4240425"><ele>46.142857142857146</ele><time>2026-04-15T12:56:12.11Z</time></trkpt><trkpt lat="44.4890014" lon="11.4239421"><ele>46.0</ele><time>2026-04-15T12:56:13.091Z</time></trkpt><trkpt lat="44.4889596" lon="11.4238583"><ele>46.0</ele><time>2026-04-15T12:56:14.08Z</time></trkpt><trkpt lat="44.4889" lon="11.4237871"><ele>46.0</ele><time>2026-04-15T12:56:15.123Z</time></trkpt><trkpt lat="44.4888279" lon="11.4237388"><ele>46.0</ele><time>2026-04-15T12:56:16.123Z</time></trkpt><trkpt lat="44.4887455" lon="11.4237182"><ele>46.0</ele><time>2026-04-15T12:56:17.1Z</time></trkpt><trkpt lat="44.4886567" lon="11.4237216"><ele>46.0</ele><time>2026-04-15T12:56:18.102Z</time></trkpt><trkpt lat="44.4885697" lon="11.4237615"><ele>46.0</ele><time>2026-04-15T12:56:19.087Z</time></trkpt><trkpt lat="44.4884841" lon="11.4238214"><ele>46.0</ele><time>2026-04-15T12:56:20.102Z</time></trkpt><trkpt lat="44.4883795" lon="11.4238693"><ele>46.0</ele><time>2026-04-15T12:56:21.096Z</time></trkpt><trkpt lat="44.4882618" lon="11.4238591"><ele>46.0</ele><time>2026-04-15T12:56:22.089Z</time></trkpt><trkpt lat="44.48813" lon="11.423816"><ele>46.0</ele><time>2026-04-15T12:56:23.101Z</time></trkpt><trkpt lat="44.487982" lon="11.4237358"><ele>46.66666666666667</ele><time>2026-04-15T12:56:24.109Z</time></trkpt><trkpt lat="44.4878113" lon="11.4236532"><ele>47.333333333333336</ele><time>2026-04-15T12:56:25.093Z</time></trkpt><trkpt lat="44.4876362" lon="11.4235556"><ele>48.0</ele><time>2026-04-15T12:56:26.091Z</time></trkpt><trkpt lat="44.4874474" lon="11.423445"><ele>48.0</ele><time>2026-04-15T12:56:27.11Z</time></trkpt><trkpt lat="44.4872418" lon="11.4233341"><ele>48.0</ele><time>2026-04-15T12:56:28.12Z</time></trkpt><trkpt lat="44.4870279" lon="11.4232049"><ele>47.5</ele><time>2026-04-15T12:56:29.117Z</time></trkpt><trkpt lat="44.4868189" lon="11.4230612"><ele>47.0</ele><time>2026-04-15T12:56:30.114Z</time></trkpt><trkpt lat="44.4866168" lon="11.4229164"><ele>47.0</ele><time>2026-04-15T12:56:31.119Z</time></trkpt><trkpt lat="44.4864105" lon="11.4227892"><ele>47.0</ele><time>2026-04-15T12:56:32.116Z</time></trkpt><trkpt lat="44.4861996" lon="11.4226703"><ele>47.666666666666664</ele><time>2026-04-15T12:56:33.078Z</time></trkpt><trkpt lat="44.4859963" lon="11.4225458"><ele>48.33333333333333</ele><time>2026-04-15T12:56:34.098Z</time></trkpt><trkpt lat="44.4857977" lon="11.4224198"><ele>49.0</ele><time>2026-04-15T12:56:35.125Z</time></trkpt><trkpt lat="44.4856125" lon="11.4223059"><ele>49.0</ele><time>2026-04-15T12:56:36.101Z</time></trkpt><trkpt lat="44.4854337" lon="11.4222017"><ele>49.0</ele><time>2026-04-15T12:56:37.12Z</time></trkpt><trkpt lat="44.4852633" lon="11.4220982"><ele>49.0</ele><time>2026-04-15T12:56:38.098Z</time></trkpt><trkpt lat="44.4850952" lon="11.4219923"><ele>49.0</ele><time>2026-04-15T12:56:39.114Z</time></trkpt><trkpt lat="44.4849345" lon="11.4218956"><ele>49.0</ele><time>2026-04-15T12:56:40.131Z</time></trkpt><trkpt lat="44.4848" lon="11.4218108"><ele>49.0</ele><time>2026-04-15T12:56:41.112Z</time></trkpt><trkpt lat="44.4846847" lon="11.4217391"><ele>49.0</ele><time>2026-04-15T12:56:42.092Z</time></trkpt><trkpt lat="44.4845847" lon="11.4216833"><ele>49.75</ele><time>2026-04-15T12:56:43.098Z</time></trkpt><trkpt lat="44.4844907" lon="11.4216262"><ele>50.5</ele><time>2026-04-15T12:56:44.089Z</time></trkpt><trkpt lat="44.4844019" lon="11.4215724"><ele>51.25</ele><time>2026-04-15T12:56:45.1Z</time></trkpt><trkpt lat="44.4843187" lon="11.4215327"><ele>52.0</ele><time>2026-04-15T12:56:46.207Z</time></trkpt><trkpt lat="44.4841291" lon="11.4215043"><ele>52.0</ele><time>2026-04-15T12:56:48.095Z</time></trkpt><trkpt lat="44.4840308" lon="11.421503"><ele>52.0</ele><time>2026-04-15T12:56:49.099Z</time></trkpt><trkpt lat="44.4839343" lon="11.4215113"><ele>52.0</ele><time>2026-04-15T12:56:50.121Z</time></trkpt><trkpt lat="44.4838463" lon="11.4215094"><ele>52.0</ele><time>2026-04-15T12:56:51.11Z</time></trkpt><trkpt lat="44.4837547" lon="11.4215145"><ele>52.0</ele><time>2026-04-15T12:56:52.092Z</time></trkpt><trkpt lat="44.483666" lon="11.4215026"><ele>52.0</ele><time>2026-04-15T12:56:53.102Z</time></trkpt><trkpt lat="44.4835706" lon="11.4214793"><ele>52.0</ele><time>2026-04-15T12:56:54.114Z</time></trkpt><trkpt lat="44.4834718" lon="11.4214358"><ele>52.0</ele><time>2026-04-15T12:56:55.117Z</time></trkpt><trkpt lat="44.4833755" lon="11.4213797"><ele>52.0</ele><time>2026-04-15T12:56:56.091Z</time></trkpt><trkpt lat="44.4832842" lon="11.4213087"><ele>52.0</ele><time>2026-04-15T12:56:57.119Z</time></trkpt><trkpt lat="44.4831849" lon="11.4212168"><ele>52.2</ele><time>2026-04-15T12:56:58.119Z</time></trkpt><trkpt lat="44.4830752" lon="11.4211272"><ele>52.400000000000006</ele><time>2026-04-15T12:56:59.105Z</time></trkpt><trkpt lat="44.4829745" lon="11.4210379"><ele>52.599999999999994</ele><time>2026-04-15T12:57:00.077Z</time></trkpt><trkpt lat="44.4828971" lon="11.4209602"><ele>52.8</ele><time>2026-04-15T12:57:01.092Z</time></trkpt><trkpt lat="44.4828395" lon="11.420856"><ele>53.0</ele><time>2026-04-15T12:57:02.077Z</time></trkpt><trkpt lat="44.4827834" lon="11.4207455"><ele>52.25</ele><time>2026-04-15T12:57:03.087Z</time></trkpt><trkpt lat="44.4827279" lon="11.420635"><ele>51.5</ele><time>2026-04-15T12:57:04.09Z</time></trkpt><trkpt lat="44.4825765" lon="11.4204797"><ele>50.75</ele><time>2026-04-15T12:57:06.11Z</time></trkpt><trkpt lat="44.4824745" lon="11.4204469"><ele>50.0</ele><time>2026-04-15T12:57:07.096Z</time></trkpt><trkpt lat="44.4823695" lon="11.4204693"><ele>50.0</ele><time>2026-04-15T12:57:08.087Z</time></trkpt><trkpt lat="44.482263" lon="11.4205362"><ele>50.0</ele><time>2026-04-15T12:57:09.12Z</time></trkpt><trkpt lat="44.4821617" lon="11.4206122"><ele>50.0</ele><time>2026-04-15T12:57:10.08Z</time></trkpt><trkpt lat="44.4820509" lon="11.4206333"><ele>50.0</ele><time>2026-04-15T12:57:11.079Z</time></trkpt><trkpt lat="44.4819323" lon="11.4205849"><ele>50.25</ele><time>2026-04-15T12:57:12.075Z</time></trkpt><trkpt lat="44.4817987" lon="11.4205125"><ele>50.5</ele><time>2026-04-15T12:57:13.102Z</time></trkpt><trkpt lat="44.4816667" lon="11.4204419"><ele>50.75</ele><time>2026-04-15T12:57:14.101Z</time></trkpt><trkpt lat="44.481552" lon="11.4203706"><ele>51.0</ele><time>2026-04-15T12:57:15.093Z</time></trkpt><trkpt lat="44.4814394" lon="11.4203054"><ele>51.0</ele><time>2026-04-15T12:57:16.194Z</time></trkpt><trkpt lat="44.4810231" lon="11.4201502"><ele>51.0</ele><time>2026-04-15T12:57:21.097Z</time></trkpt><trkpt lat="44.4809883" lon="11.4200712"><ele>51.0</ele><time>2026-04-15T12:57:22.122Z</time></trkpt><trkpt lat="44.480918" lon="11.4200015"><ele>51.0</ele><time>2026-04-15T12:57:23.121Z</time></trkpt><trkpt lat="44.4808627" lon="11.4199403"><ele>51.0</ele><time>2026-04-15T12:57:24.109Z</time></trkpt><trkpt lat="44.4807754" lon="11.419876"><ele>51.0</ele><time>2026-04-15T12:57:26.103Z</time></trkpt><trkpt lat="44.4806558" lon="11.4197834"><ele>51.0</ele><time>2026-04-15T12:57:28.088Z</time></trkpt><trkpt lat="44.4805833" lon="11.4197294"><ele>51.0</ele><time>2026-04-15T12:57:29.093Z</time></trkpt><trkpt lat="44.4805101" lon="11.4196686"><ele>51.0</ele><time>2026-04-15T12:57:30.104Z</time></trkpt><trkpt lat="44.4804318" lon="11.4196019"><ele>51.0</ele><time>2026-04-15T12:57:31.094Z</time></trkpt><trkpt lat="44.4803505" lon="11.4195237"><ele>51.0</ele><time>2026-04-15T12:57:32.121Z</time></trkpt><trkpt lat="44.4802701" lon="11.4194379"><ele>51.0</ele><time>2026-04-15T12:57:33.078Z</time></trkpt><trkpt lat="44.4801849" lon="11.4193558"><ele>51.4</ele><time>2026-04-15T12:57:34.089Z</time></trkpt><trkpt lat="44.4801023" lon="11.4192814"><ele>51.8</ele><time>2026-04-15T12:57:35.103Z</time></trkpt><trkpt lat="44.4800221" lon="11.4192159"><ele>52.199999999999996</ele><time>2026-04-15T12:57:36.103Z</time></trkpt><trkpt lat="44.4799415" lon="11.4191555"><ele>52.599999999999994</ele><time>2026-04-15T12:57:37.105Z</time></trkpt><trkpt lat="44.4798623" lon="11.4190877"><ele>53.0</ele><time>2026-04-15T12:57:38.093Z</time></trkpt><trkpt lat="44.4797942" lon="11.4190078"><ele>53.0</ele><time>2026-04-15T12:57:39.101Z</time></trkpt><trkpt lat="44.4797429" lon="11.4188882"><ele>53.0</ele><time>2026-04-15T12:57:40.113Z</time></trkpt><trkpt lat="44.4797092" lon="11.4187477"><ele>53.0</ele><time>2026-04-15T12:57:41.096Z</time></trkpt><trkpt lat="44.4796667" lon="11.41861"><ele>53.0</ele><time>2026-04-15T12:57:42.094Z</time></trkpt><trkpt lat="44.4796033" lon="11.4184988"><ele>53.0</ele><time>2026-04-15T12:57:43.093Z</time></trkpt><trkpt lat="44.4795215" lon="11.4184339"><ele>53.00000000000001</ele><time>2026-04-15T12:57:44.124Z</time></trkpt><trkpt lat="44.4794376" lon="11.4184216"><ele>53.0</ele><time>2026-04-15T12:57:45.094Z</time></trkpt><trkpt lat="44.4793498" lon="11.4184449"><ele>53.0</ele><time>2026-04-15T12:57:46.101Z</time></trkpt><trkpt lat="44.479287" lon="11.4185078"><ele>53.0</ele><time>2026-04-15T12:57:47.082Z</time></trkpt><trkpt lat="44.4792419" lon="11.41861"><ele>53.00000000000001</ele><time>2026-04-15T12:57:48.079Z</time></trkpt><trkpt lat="44.4792146" lon="11.4187238"><ele>53.0</ele><time>2026-04-15T12:57:49.1Z</time></trkpt><trkpt lat="44.4792035" lon="11.4188438"><ele>53.0</ele><time>2026-04-15T12:57:50.1Z</time></trkpt><trkpt lat="44.4791889" lon="11.4189676"><ele>53.0</ele><time>2026-04-15T12:57:51.098Z</time></trkpt><trkpt lat="44.4791526" lon="11.4190846"><ele>53.0</ele><time>2026-04-15T12:57:52.098Z</time></trkpt><trkpt lat="44.4790889" lon="11.4192074"><ele>53.0</ele><time>2026-04-15T12:57:53.082Z</time></trkpt><trkpt lat="44.4790232" lon="11.419341"><ele>53.0</ele><time>2026-04-15T12:57:54.112Z</time></trkpt><trkpt lat="44.4789741" lon="11.4194933"><ele>52.8</ele><time>2026-04-15T12:57:55.065Z</time></trkpt><trkpt lat="44.4789446" lon="11.4196537"><ele>52.599999999999994</ele><time>2026-04-15T12:57:56.1Z</time></trkpt><trkpt lat="44.478911" lon="11.4198024"><ele>52.400000000000006</ele><time>2026-04-15T12:57:57.104Z</time></trkpt><trkpt lat="44.4788866" lon="11.4199393"><ele>52.2</ele><time>2026-04-15T12:57:58.124Z</time></trkpt><trkpt lat="44.4788719" lon="11.4201008"><ele>52.0</ele><time>2026-04-15T12:57:59.112Z</time></trkpt><trkpt lat="44.4788543" lon="11.4203002"><ele>51.75</ele><time>2026-04-15T12:58:00.067Z</time></trkpt><trkpt lat="44.4788263" lon="11.4205232"><ele>51.5</ele><time>2026-04-15T12:58:01.127Z</time></trkpt><trkpt lat="44.4787926" lon="11.4207282"><ele>51.25</ele><time>2026-04-15T12:58:02.082Z</time></trkpt><trkpt lat="44.4787642" lon="11.4208993"><ele>51.0</ele><time>2026-04-15T12:58:03.103Z</time></trkpt><trkpt lat="44.4787433" lon="11.4210567"><ele>51.0</ele><time>2026-04-15T12:58:04.115Z</time></trkpt><trkpt lat="44.4787224" lon="11.4211996"><ele>51.0</ele><time>2026-04-15T12:58:05.094Z</time></trkpt><trkpt lat="44.4786975" lon="11.4213264"><ele>51.0</ele><time>2026-04-15T12:58:06.111Z</time></trkpt><trkpt lat="44.478661" lon="11.4214515"><ele>51.0</ele><time>2026-04-15T12:58:07.102Z</time></trkpt><trkpt lat="44.478618" lon="11.4215725"><ele>51.0</ele><time>2026-04-15T12:58:08.095Z</time></trkpt><trkpt lat="44.4785629" lon="11.4216915"><ele>50.75</ele><time>2026-04-15T12:58:09.102Z</time></trkpt><trkpt lat="44.4784865" lon="11.4218039"><ele>50.5</ele><time>2026-04-15T12:58:10.098Z</time></trkpt><trkpt lat="44.4783891" lon="11.421902"><ele>50.25</ele><time>2026-04-15T12:58:11.095Z</time></trkpt><trkpt lat="44.4782774" lon="11.4219892"><ele>50.0</ele><time>2026-04-15T12:58:12.12Z</time></trkpt><trkpt lat="44.4781608" lon="11.4220501"><ele>50.0</ele><time>2026-04-15T12:58:13.091Z</time></trkpt><trkpt lat="44.4780441" lon="11.4220811"><ele>50.0</ele><time>2026-04-15T12:58:14.074Z</time></trkpt><trkpt lat="44.4779248" lon="11.4220886"><ele>50.0</ele><time>2026-04-15T12:58:15.098Z</time></trkpt><trkpt lat="44.4778102" lon="11.4220705"><ele>50.0</ele><time>2026-04-15T12:58:16.096Z</time></trkpt><trkpt lat="44.4776945" lon="11.4220306"><ele>49.75</ele><time>2026-04-15T12:58:17.077Z</time></trkpt><trkpt lat="44.4775857" lon="11.4219651"><ele>49.5</ele><time>2026-04-15T12:58:18.085Z</time></trkpt><trkpt lat="44.4774757" lon="11.4218884"><ele>49.25</ele><time>2026-04-15T12:58:19.083Z</time></trkpt><trkpt lat="44.4773582" lon="11.4218031"><ele>49.0</ele><time>2026-04-15T12:58:20.103Z</time></trkpt><trkpt lat="44.4772106" lon="11.4217057"><ele>50.0</ele><time>2026-04-15T12:58:21.095Z</time></trkpt><trkpt lat="44.4770282" lon="11.4215782"><ele>51.0</ele><time>2026-04-15T12:58:22.086Z</time></trkpt><trkpt lat="44.4768425" lon="11.4214412"><ele>52.0</ele><time>2026-04-15T12:58:23.096Z</time></trkpt><trkpt lat="44.4764634" lon="11.421142"><ele>52.0</ele><time>2026-04-15T12:58:25.086Z</time></trkpt><trkpt lat="44.4762707" lon="11.4209988"><ele>52.0</ele><time>2026-04-15T12:58:26.078Z</time></trkpt><trkpt lat="44.476098" lon="11.4208705"><ele>52.0</ele><time>2026-04-15T12:58:27.072Z</time></trkpt><trkpt lat="44.4759494" lon="11.420757"><ele>52.0</ele><time>2026-04-15T12:58:28.086Z</time></trkpt><trkpt lat="44.4758263" lon="11.4206424"><ele>52.0</ele><time>2026-04-15T12:58:29.078Z</time></trkpt><trkpt lat="44.4757236" lon="11.4205168"><ele>52.0</ele><time>2026-04-15T12:58:30.081Z</time></trkpt><trkpt lat="44.4756455" lon="11.4203893"><ele>52.0</ele><time>2026-04-15T12:58:31.076Z</time></trkpt><trkpt lat="44.4755985" lon="11.4202511"><ele>52.25</ele><time>2026-04-15T12:58:32.074Z</time></trkpt><trkpt lat="44.4755611" lon="11.4201004"><ele>52.5</ele><time>2026-04-15T12:58:33.117Z</time></trkpt><trkpt lat="44.4755038" lon="11.4199494"><ele>52.75</ele><time>2026-04-15T12:58:34.07Z</time></trkpt><trkpt lat="44.4754123" lon="11.4198395"><ele>53.0</ele><time>2026-04-15T12:58:35.091Z</time></trkpt><trkpt lat="44.4752962" lon="11.4197879"><ele>53.0</ele><time>2026-04-15T12:58:36.098Z</time></trkpt><trkpt lat="44.4751579" lon="11.4197982"><ele>53.0</ele><time>2026-04-15T12:58:37.085Z</time></trkpt><trkpt lat="44.4750279" lon="11.4197935"><ele>53.0</ele><time>2026-04-15T12:58:38.091Z</time></trkpt><trkpt lat="44.4749105" lon="11.4197192"><ele>53.0</ele><time>2026-04-15T12:58:39.089Z</time></trkpt><trkpt lat="44.4747987" lon="11.4195909"><ele>53.0</ele><time>2026-04-15T12:58:40.119Z</time></trkpt><trkpt lat="44.4746915" lon="11.4194484"><ele>53.0</ele><time>2026-04-15T12:58:41.093Z</time></trkpt><trkpt lat="44.4745743" lon="11.4193416"><ele>53.0</ele><time>2026-04-15T12:58:42.072Z</time></trkpt><trkpt lat="44.4744636" lon="11.4192404"><ele>53.0</ele><time>2026-04-15T12:58:43.087Z</time></trkpt><trkpt lat="44.474353" lon="11.4191349"><ele>53.25</ele><time>2026-04-15T12:58:44.087Z</time></trkpt><trkpt lat="44.4742374" lon="11.4190357"><ele>53.5</ele><time>2026-04-15T12:58:45.106Z</time></trkpt><trkpt lat="44.4741212" lon="11.4189432"><ele>53.75</ele><time>2026-04-15T12:58:46.086Z</time></trkpt><trkpt lat="44.4740075" lon="11.4188803"><ele>54.0</ele><time>2026-04-15T12:58:47.07Z</time></trkpt><trkpt lat="44.4739" lon="11.4188408"><ele>54.0</ele><time>2026-04-15T12:58:48.074Z</time></trkpt><trkpt lat="44.4738009" lon="11.4188151"><ele>54.00000000000001</ele><time>2026-04-15T12:58:49.082Z</time></trkpt><trkpt lat="44.4736972" lon="11.4188023"><ele>54.00000000000001</ele><time>2026-04-15T12:58:50.072Z</time></trkpt><trkpt lat="44.473588" lon="11.4188127"><ele>54.0</ele><time>2026-04-15T12:58:51.115Z</time></trkpt><trkpt lat="44.4734734" lon="11.4188623"><ele>54.0</ele><time>2026-04-15T12:58:52.079Z</time></trkpt><trkpt lat="44.473339" lon="11.4189732"><ele>54.0</ele><time>2026-04-15T12:58:53.102Z</time></trkpt><trkpt lat="44.4731939" lon="11.41911"><ele>54.0</ele><time>2026-04-15T12:58:54.079Z</time></trkpt><trkpt lat="44.4730304" lon="11.4192348"><ele>54.0</ele><time>2026-04-15T12:58:55.13Z</time></trkpt><trkpt lat="44.4728501" lon="11.4193424"><ele>54.66666666666667</ele><time>2026-04-15T12:58:56.072Z</time></trkpt><trkpt lat="44.4726659" lon="11.4194185"><ele>55.333333333333336</ele><time>2026-04-15T12:58:57.081Z</time></trkpt><trkpt lat="44.4724851" lon="11.4194751"><ele>56.0</ele><time>2026-04-15T12:58:58.09Z</time></trkpt><trkpt lat="44.4721304" lon="11.4195056"><ele>56.333333333333336</ele><time>2026-04-15T12:59:00.108Z</time></trkpt><trkpt lat="44.4719518" lon="11.4194815"><ele>56.66666666666667</ele><time>2026-04-15T12:59:01.101Z</time></trkpt><trkpt lat="44.4717808" lon="11.4194351"><ele>57.0</ele><time>2026-04-15T12:59:02.089Z</time></trkpt><trkpt lat="44.4716236" lon="11.4193741"><ele>57.0</ele><time>2026-04-15T12:59:03.082Z</time></trkpt><trkpt lat="44.4714807" lon="11.4192994"><ele>57.0</ele><time>2026-04-15T12:59:04.083Z</time></trkpt><trkpt lat="44.4713514" lon="11.4192097"><ele>57.0</ele><time>2026-04-15T12:59:05.081Z</time></trkpt><trkpt lat="44.4712364" lon="11.4191096"><ele>57.0</ele><time>2026-04-15T12:59:06.087Z</time></trkpt><trkpt lat="44.4711463" lon="11.41899"><ele>56.8</ele><time>2026-04-15T12:59:07.108Z</time></trkpt><trkpt lat="44.4710779" lon="11.4188558"><ele>56.6</ele><time>2026-04-15T12:59:08.089Z</time></trkpt><trkpt lat="44.471039" lon="11.4187109"><ele>56.39999999999999</ele><time>2026-04-15T12:59:09.084Z</time></trkpt><trkpt lat="44.4709993" lon="11.4185853"><ele>56.199999999999996</ele><time>2026-04-15T12:59:10.08Z</time></trkpt><trkpt lat="44.4709318" lon="11.4185014"><ele>56.0</ele><time>2026-04-15T12:59:11.09Z</time></trkpt><trkpt lat="44.4708298" lon="11.4184909"><ele>56.199999999999996</ele><time>2026-04-15T12:59:12.081Z</time></trkpt><trkpt lat="44.4707303" lon="11.4185311"><ele>56.39999999999999</ele><time>2026-04-15T12:59:13.1Z</time></trkpt><trkpt lat="44.4706231" lon="11.4185686"><ele>56.6</ele><time>2026-04-15T12:59:14.14Z</time></trkpt><trkpt lat="44.4705117" lon="11.4185426"><ele>56.8</ele><time>2026-04-15T12:59:15.076Z</time></trkpt><trkpt lat="44.4703944" lon="11.418506"><ele>57.0</ele><time>2026-04-15T12:59:16.062Z</time></trkpt><trkpt lat="44.4702835" lon="11.4184572"><ele>57.0</ele><time>2026-04-15T12:59:17.081Z</time></trkpt><trkpt lat="44.4701792" lon="11.4183917"><ele>57.0</ele><time>2026-04-15T12:59:18.11Z</time></trkpt><trkpt lat="44.4700721" lon="11.4183154"><ele>57.0</ele><time>2026-04-15T12:59:19.083Z</time></trkpt><trkpt lat="44.4699602" lon="11.4182398"><ele>57.0</ele><time>2026-04-15T12:59:20.074Z</time></trkpt><trkpt lat="44.4698505" lon="11.4181619"><ele>57.0</ele><time>2026-04-15T12:59:21.087Z</time></trkpt><trkpt lat="44.469716" lon="11.418073"><ele>57.0</ele><time>2026-04-15T12:59:22.083Z</time></trkpt><trkpt lat="44.4695632" lon="11.4179708"><ele>57.0</ele><time>2026-04-15T12:59:23.072Z</time></trkpt><trkpt lat="44.4694006" lon="11.4178383"><ele>58.33333333333333</ele><time>2026-04-15T12:59:24.074Z</time></trkpt><trkpt lat="44.4692401" lon="11.4176993"><ele>59.666666666666664</ele><time>2026-04-15T12:59:25.082Z</time></trkpt><trkpt lat="44.4690817" lon="11.4175766"><ele>61.0</ele><time>2026-04-15T12:59:26.078Z</time></trkpt><trkpt lat="44.4689317" lon="11.4174618"><ele>61.0</ele><time>2026-04-15T12:59:27.1Z</time></trkpt><trkpt lat="44.4687851" lon="11.4173594"><ele>61.0</ele><time>2026-04-15T12:59:28.112Z</time></trkpt><trkpt lat="44.468643" lon="11.4172599"><ele>61.0</ele><time>2026-04-15T12:59:29.108Z</time></trkpt><trkpt lat="44.468514" lon="11.4171664"><ele>62.0</ele><time>2026-04-15T12:59:30.069Z</time></trkpt><trkpt lat="44.4683892" lon="11.4170785"><ele>63.0</ele><time>2026-04-15T12:59:31.071Z</time></trkpt><trkpt lat="44.4682833" lon="11.4170011"><ele>64.0</ele><time>2026-04-15T12:59:32.092Z</time></trkpt><trkpt lat="44.4681791" lon="11.4169269"><ele>65.0</ele><time>2026-04-15T12:59:33.107Z</time></trkpt><trkpt lat="44.4680827" lon="11.4168533"><ele>65.0</ele><time>2026-04-15T12:59:34.092Z</time></trkpt><trkpt lat="44.4679998" lon="11.4167858"><ele>65.0</ele><time>2026-04-15T12:59:35.1Z</time></trkpt><trkpt lat="44.4679303" lon="11.4167304"><ele>65.0</ele><time>2026-04-15T12:59:36.082Z</time></trkpt><trkpt lat="44.4678706" lon="11.416669"><ele>65.0</ele><time>2026-04-15T12:59:37.099Z</time></trkpt><trkpt lat="44.4678095" lon="11.4166037"><ele>65.0</ele><time>2026-04-15T12:59:38.081Z</time></trkpt><trkpt lat="44.4677468" lon="11.4165237"><ele>65.0</ele><time>2026-04-15T12:59:39.091Z</time></trkpt><trkpt lat="44.4676759" lon="11.4164379"><ele>64.75</ele><time>2026-04-15T12:59:40.108Z</time></trkpt><trkpt lat="44.4675856" lon="11.4163915"><ele>64.5</ele><time>2026-04-15T12:59:41.082Z</time></trkpt><trkpt lat="44.467477" lon="11.4163664"><ele>64.25</ele><time>2026-04-15T12:59:42.075Z</time></trkpt><trkpt lat="44.4673474" lon="11.416348"><ele>64.0</ele><time>2026-04-15T12:59:43.068Z</time></trkpt><trkpt lat="44.4672247" lon="11.4163094"><ele>63.800000000000004</ele><time>2026-04-15T12:59:44.076Z</time></trkpt><trkpt lat="44.4671127" lon="11.4162662"><ele>63.60000000000001</ele><time>2026-04-15T12:59:45.081Z</time></trkpt><trkpt lat="44.467009" lon="11.4162094"><ele>63.4</ele><time>2026-04-15T12:59:46.079Z</time></trkpt><trkpt lat="44.466912" lon="11.4161576"><ele>63.2</ele><time>2026-04-15T12:59:47.072Z</time></trkpt><trkpt lat="44.4668143" lon="11.4160979"><ele>63.0</ele><time>2026-04-15T12:59:48.086Z</time></trkpt><trkpt lat="44.4667157" lon="11.4160365"><ele>63.66666666666667</ele><time>2026-04-15T12:59:49.086Z</time></trkpt><trkpt lat="44.4666139" lon="11.4159742"><ele>64.33333333333334</ele><time>2026-04-15T12:59:50.083Z</time></trkpt><trkpt lat="44.4664111" lon="11.4158372"><ele>65.0</ele><time>2026-04-15T12:59:52.102Z</time></trkpt><trkpt lat="44.4663031" lon="11.4157624"><ele>65.25</ele><time>2026-04-15T12:59:53.095Z</time></trkpt><trkpt lat="44.4661974" lon="11.4156923"><ele>65.5</ele><time>2026-04-15T12:59:54.113Z</time></trkpt><trkpt lat="44.4660909" lon="11.4156293"><ele>65.75</ele><time>2026-04-15T12:59:55.114Z</time></trkpt><trkpt lat="44.4659891" lon="11.4155765"><ele>66.0</ele><time>2026-04-15T12:59:56.102Z</time></trkpt><trkpt lat="44.4658887" lon="11.4155135"><ele>66.0</ele><time>2026-04-15T12:59:57.08Z</time></trkpt><trkpt lat="44.4657808" lon="11.4154459"><ele>66.0</ele><time>2026-04-15T12:59:58.105Z</time></trkpt><trkpt lat="44.4656767" lon="11.4153869"><ele>66.0</ele><time>2026-04-15T12:59:59.104Z</time></trkpt><trkpt lat="44.4655757" lon="11.4153264"><ele>66.0</ele><time>2026-04-15T13:00:00.097Z</time></trkpt><trkpt lat="44.4654715" lon="11.415259"><ele>66.5</ele><time>2026-04-15T13:00:01.103Z</time></trkpt><trkpt lat="44.4653599" lon="11.4151974"><ele>67.0</ele><time>2026-04-15T13:00:02.109Z</time></trkpt><trkpt lat="44.4652545" lon="11.4151325"><ele>67.5</ele><time>2026-04-15T13:00:03.097Z</time></trkpt><trkpt lat="44.4651481" lon="11.4150627"><ele>68.0</ele><time>2026-04-15T13:00:04.098Z</time></trkpt><trkpt lat="44.4650416" lon="11.414998"><ele>68.0</ele><time>2026-04-15T13:00:05.092Z</time></trkpt><trkpt lat="44.4649347" lon="11.4149277"><ele>68.0</ele><time>2026-04-15T13:00:06.088Z</time></trkpt><trkpt lat="44.4648332" lon="11.4148523"><ele>68.0</ele><time>2026-04-15T13:00:07.074Z</time></trkpt><trkpt lat="44.4647317" lon="11.4147796"><ele>68.0</ele><time>2026-04-15T13:00:08.096Z</time></trkpt><trkpt lat="44.4646308" lon="11.4147012"><ele>67.25</ele><time>2026-04-15T13:00:09.066Z</time></trkpt><trkpt lat="44.4645287" lon="11.4146208"><ele>66.5</ele><time>2026-04-15T13:00:10.095Z</time></trkpt><trkpt lat="44.4644281" lon="11.414536"><ele>65.75</ele><time>2026-04-15T13:00:11.089Z</time></trkpt><trkpt lat="44.4643272" lon="11.4144497"><ele>65.0</ele><time>2026-04-15T13:00:12.095Z</time></trkpt><trkpt lat="44.4642236" lon="11.414365"><ele>65.0</ele><time>2026-04-15T13:00:13.085Z</time></trkpt><trkpt lat="44.4641268" lon="11.4142806"><ele>65.0</ele><time>2026-04-15T13:00:14.093Z</time></trkpt><trkpt lat="44.4640339" lon="11.4141916"><ele>65.0</ele><time>2026-04-15T13:00:15.098Z</time></trkpt><trkpt lat="44.4639352" lon="11.4141114"><ele>65.0</ele><time>2026-04-15T13:00:16.102Z</time></trkpt><trkpt lat="44.4638391" lon="11.4140251"><ele>65.33333333333334</ele><time>2026-04-15T13:00:17.074Z</time></trkpt><trkpt lat="44.4637482" lon="11.4139473"><ele>65.66666666666667</ele><time>2026-04-15T13:00:18.074Z</time></trkpt><trkpt lat="44.4636682" lon="11.413884"><ele>66.0</ele><time>2026-04-15T13:00:19.104Z</time></trkpt><trkpt lat="44.4636043" lon="11.4138321"><ele>66.33333333333333</ele><time>2026-04-15T13:00:20.097Z</time></trkpt><trkpt lat="44.4635368" lon="11.413781"><ele>66.66666666666666</ele><time>2026-04-15T13:00:22.082Z</time></trkpt><trkpt lat="44.4634737" lon="11.4137648"><ele>67.0</ele><time>2026-04-15T13:00:28.109Z</time></trkpt><trkpt lat="44.4633987" lon="11.41381"><ele>67.0</ele><time>2026-04-15T13:00:30.075Z</time></trkpt><trkpt lat="44.4633365" lon="11.4139062"><ele>67.0</ele><time>2026-04-15T13:00:31.096Z</time></trkpt><trkpt lat="44.4632539" lon="11.4140194"><ele>67.0</ele><time>2026-04-15T13:00:32.187Z</time></trkpt><trkpt lat="44.4630722" lon="11.4141585"><ele>67.0</ele><time>2026-04-15T13:00:34.086Z</time></trkpt><trkpt lat="44.4629891" lon="11.4141871"><ele>67.0</ele><time>2026-04-15T13:00:35.08Z</time></trkpt><trkpt lat="44.4629247" lon="11.4142095"><ele>67.0</ele><time>2026-04-15T13:00:36.066Z</time></trkpt><trkpt lat="44.4628687" lon="11.4142695"><ele>67.0</ele><time>2026-04-15T13:00:37.073Z</time></trkpt><trkpt lat="44.4628115" lon="11.4143634"><ele>67.0</ele><time>2026-04-15T13:00:38.088Z</time></trkpt><trkpt lat="44.4627414" lon="11.414486"><ele>67.0</ele><time>2026-04-15T13:00:39.079Z</time></trkpt><trkpt lat="44.4626433" lon="11.4146155"><ele>67.0</ele><time>2026-04-15T13:00:40.071Z</time></trkpt><trkpt lat="44.4625292" lon="11.4147611"><ele>67.0</ele><time>2026-04-15T13:00:41.103Z</time></trkpt><trkpt lat="44.4624037" lon="11.4149434"><ele>67.0</ele><time>2026-04-15T13:00:42.102Z</time></trkpt><trkpt lat="44.4622826" lon="11.4151306"><ele>67.0</ele><time>2026-04-15T13:00:43.094Z</time></trkpt><trkpt lat="44.4621525" lon="11.4153314"><ele>67.0</ele><time>2026-04-15T13:00:44.09Z</time></trkpt><trkpt lat="44.4620145" lon="11.4155427"><ele>67.0</ele><time>2026-04-15T13:00:45.092Z</time></trkpt><trkpt lat="44.4618729" lon="11.4157603"><ele>66.66666666666666</ele><time>2026-04-15T13:00:46.081Z</time></trkpt><trkpt lat="44.4617298" lon="11.4159788"><ele>66.33333333333333</ele><time>2026-04-15T13:00:47.076Z</time></trkpt><trkpt lat="44.4615878" lon="11.4162031"><ele>66.0</ele><time>2026-04-15T13:00:48.077Z</time></trkpt><trkpt lat="44.4614487" lon="11.4164275"><ele>66.0</ele><time>2026-04-15T13:00:49.086Z</time></trkpt><trkpt lat="44.4613147" lon="11.4166531"><ele>66.0</ele><time>2026-04-15T13:00:50.096Z</time></trkpt><trkpt lat="44.4611862" lon="11.4168774"><ele>66.0</ele><time>2026-04-15T13:00:51.073Z</time></trkpt><trkpt lat="44.4610666" lon="11.4170999"><ele>66.0</ele><time>2026-04-15T13:00:52.064Z</time></trkpt><trkpt lat="44.4609556" lon="11.4173277"><ele>66.0</ele><time>2026-04-15T13:00:53.095Z</time></trkpt><trkpt lat="44.4608465" lon="11.4175424"><ele>66.0</ele><time>2026-04-15T13:00:54.074Z</time></trkpt><trkpt lat="44.4607432" lon="11.4177497"><ele>66.0</ele><time>2026-04-15T13:00:55.081Z</time></trkpt><trkpt lat="44.4606464" lon="11.4179438"><ele>66.0</ele><time>2026-04-15T13:00:56.082Z</time></trkpt><trkpt lat="44.4605544" lon="11.4181178"><ele>66.0</ele><time>2026-04-15T13:00:57.077Z</time></trkpt><trkpt lat="44.4604639" lon="11.4182789"><ele>67.25</ele><time>2026-04-15T13:00:58.083Z</time></trkpt><trkpt lat="44.4603657" lon="11.4184227"><ele>68.5</ele><time>2026-04-15T13:00:59.085Z</time></trkpt><trkpt lat="44.4602579" lon="11.418551"><ele>69.75</ele><time>2026-04-15T13:01:00.116Z</time></trkpt><trkpt lat="44.4601466" lon="11.4186689"><ele>71.0</ele><time>2026-04-15T13:01:01.072Z</time></trkpt><trkpt lat="44.4600241" lon="11.4187764"><ele>70.75</ele><time>2026-04-15T13:01:02.094Z</time></trkpt><trkpt lat="44.4598957" lon="11.4188772"><ele>70.5</ele><time>2026-04-15T13:01:03.088Z</time></trkpt><trkpt lat="44.4597691" lon="11.4189753"><ele>70.25</ele><time>2026-04-15T13:01:04.071Z</time></trkpt><trkpt lat="44.4596458" lon="11.4190663"><ele>70.0</ele><time>2026-04-15T13:01:05.066Z</time></trkpt><trkpt lat="44.4595286" lon="11.4191495"><ele>70.0</ele><time>2026-04-15T13:01:06.067Z</time></trkpt><trkpt lat="44.4594125" lon="11.4192392"><ele>70.0</ele><time>2026-04-15T13:01:07.074Z</time></trkpt><trkpt lat="44.4592986" lon="11.4193272"><ele>70.0</ele><time>2026-04-15T13:01:08.174Z</time></trkpt><trkpt lat="44.4591836" lon="11.4194199"><ele>70.0</ele><time>2026-04-15T13:01:09.093Z</time></trkpt><trkpt lat="44.4590647" lon="11.4195152"><ele>70.0</ele><time>2026-04-15T13:01:10.088Z</time></trkpt><trkpt lat="44.4589491" lon="11.419616"><ele>70.0</ele><time>2026-04-15T13:01:11.092Z</time></trkpt><trkpt lat="44.4587185" lon="11.4198276"><ele>70.0</ele><time>2026-04-15T13:01:13.106Z</time></trkpt><trkpt lat="44.4586037" lon="11.4199318"><ele>70.75</ele><time>2026-04-15T13:01:14.097Z</time></trkpt><trkpt lat="44.4584918" lon="11.4200417"><ele>71.5</ele><time>2026-04-15T13:01:15.162Z</time></trkpt><trkpt lat="44.4583822" lon="11.4201477"><ele>72.25</ele><time>2026-04-15T13:01:16.094Z</time></trkpt><trkpt lat="44.4582712" lon="11.4202524"><ele>73.0</ele><time>2026-04-15T13:01:17.09Z</time></trkpt><trkpt lat="44.458161" lon="11.4203496"><ele>73.0</ele><time>2026-04-15T13:01:18.088Z</time></trkpt><trkpt lat="44.458049" lon="11.4204348"><ele>73.0</ele><time>2026-04-15T13:01:19.087Z</time></trkpt><trkpt lat="44.4579253" lon="11.4205112"><ele>73.0</ele><time>2026-04-15T13:01:20.08Z</time></trkpt><trkpt lat="44.4577904" lon="11.4205907"><ele>73.0</ele><time>2026-04-15T13:01:21.071Z</time></trkpt><trkpt lat="44.457648" lon="11.4206864"><ele>72.66666666666666</ele><time>2026-04-15T13:01:22.178Z</time></trkpt><trkpt lat="44.4574854" lon="11.4208011"><ele>72.33333333333333</ele><time>2026-04-15T13:01:23.081Z</time></trkpt><trkpt lat="44.4573151" lon="11.4209306"><ele>72.0</ele><time>2026-04-15T13:01:24.093Z</time></trkpt><trkpt lat="44.4571567" lon="11.4210524"><ele>71.66666666666667</ele><time>2026-04-15T13:01:25.083Z</time></trkpt><trkpt lat="44.4570153" lon="11.4211733"><ele>71.33333333333334</ele><time>2026-04-15T13:01:26.102Z</time></trkpt><trkpt lat="44.4568919" lon="11.4212861"><ele>71.0</ele><time>2026-04-15T13:01:27.198Z</time></trkpt><trkpt lat="44.4567751" lon="11.4213874"><ele>71.0</ele><time>2026-04-15T13:01:28.171Z</time></trkpt><trkpt lat="44.4566585" lon="11.4214882"><ele>71.0</ele><time>2026-04-15T13:01:29.191Z</time></trkpt><trkpt lat="44.4565455" lon="11.4215855"><ele>71.0</ele><time>2026-04-15T13:01:30.17Z</time></trkpt><trkpt lat="44.4564347" lon="11.4216833"><ele>71.0</ele><time>2026-04-15T13:01:31.106Z</time></trkpt><trkpt lat="44.4563281" lon="11.4217913"><ele>70.5</ele><time>2026-04-15T13:01:32.084Z</time></trkpt><trkpt lat="44.456229" lon="11.4219001"><ele>70.0</ele><time>2026-04-15T13:01:33.17Z</time></trkpt><trkpt lat="44.4561342" lon="11.4220044"><ele>69.5</ele><time>2026-04-15T13:01:34.165Z</time></trkpt><trkpt lat="44.4560508" lon="11.422104"><ele>69.0</ele><time>2026-04-15T13:01:35.174Z</time></trkpt><trkpt lat="44.4559796" lon="11.4221894"><ele>69.0</ele><time>2026-04-15T13:01:36.162Z</time></trkpt><trkpt lat="44.4559124" lon="11.422264"><ele>69.0</ele><time>2026-04-15T13:01:37.179Z</time></trkpt><trkpt lat="44.4558485" lon="11.4223318"><ele>69.0</ele><time>2026-04-15T13:01:38.093Z</time></trkpt><trkpt lat="44.4557924" lon="11.4223961"><ele>69.0</ele><time>2026-04-15T13:01:39.107Z</time></trkpt><trkpt lat="44.4557327" lon="11.4224713"><ele>69.0</ele><time>2026-04-15T13:01:40.199Z</time></trkpt><trkpt lat="44.4556738" lon="11.4225354"><ele>69.0</ele><time>2026-04-15T13:01:41.181Z</time></trkpt><trkpt lat="44.4556044" lon="11.4225877"><ele>69.0</ele><time>2026-04-15T13:01:42.168Z</time></trkpt><trkpt lat="44.4555145" lon="11.4225833"><ele>69.0</ele><time>2026-04-15T13:01:43.172Z</time></trkpt><trkpt lat="44.4554241" lon="11.422556"><ele>69.0</ele><time>2026-04-15T13:01:44.192Z</time></trkpt><trkpt lat="44.4552633" lon="11.422543"><ele>69.0</ele><time>2026-04-15T13:01:46.177Z</time></trkpt><trkpt lat="44.4551802" lon="11.4225293"><ele>69.0</ele><time>2026-04-15T13:01:47.169Z</time></trkpt><trkpt lat="44.4551042" lon="11.4224718"><ele>69.75</ele><time>2026-04-15T13:01:48.205Z</time></trkpt><trkpt lat="44.4550375" lon="11.4223596"><ele>70.5</ele><time>2026-04-15T13:01:49.176Z</time></trkpt><trkpt lat="44.4549725" lon="11.4222199"><ele>71.25</ele><time>2026-04-15T13:01:50.163Z</time></trkpt><trkpt lat="44.4549093" lon="11.4220528"><ele>72.0</ele><time>2026-04-15T13:01:51.171Z</time></trkpt><trkpt lat="44.4548378" lon="11.4218694"><ele>72.0</ele><time>2026-04-15T13:01:52.171Z</time></trkpt><trkpt lat="44.4547555" lon="11.4216663"><ele>72.0</ele><time>2026-04-15T13:01:53.178Z</time></trkpt><trkpt lat="44.4546756" lon="11.4214504"><ele>72.0</ele><time>2026-04-15T13:01:54.17Z</time></trkpt><trkpt lat="44.4545863" lon="11.4212272"><ele>72.0</ele><time>2026-04-15T13:01:55.19Z</time></trkpt><trkpt lat="44.4544966" lon="11.4210084"><ele>72.0</ele><time>2026-04-15T13:01:56.171Z</time></trkpt><trkpt lat="44.4543897" lon="11.4207941"><ele>72.0</ele><time>2026-04-15T13:01:57.2Z</time></trkpt><trkpt lat="44.454262" lon="11.420599"><ele>71.66666666666667</ele><time>2026-04-15T13:01:58.163Z</time></trkpt><trkpt lat="44.4541312" lon="11.4204184"><ele>71.33333333333334</ele><time>2026-04-15T13:01:59.186Z</time></trkpt><trkpt lat="44.4539995" lon="11.4202391"><ele>71.0</ele><time>2026-04-15T13:02:00.185Z</time></trkpt><trkpt lat="44.4538704" lon="11.4200562"><ele>71.66666666666667</ele><time>2026-04-15T13:02:01.19Z</time></trkpt><trkpt lat="44.4537458" lon="11.419875"><ele>72.33333333333333</ele><time>2026-04-15T13:02:02.191Z</time></trkpt><trkpt lat="44.4536223" lon="11.4196988"><ele>73.0</ele><time>2026-04-15T13:02:03.166Z</time></trkpt><trkpt lat="44.4535039" lon="11.4195261"><ele>73.0</ele><time>2026-04-15T13:02:04.155Z</time></trkpt><trkpt lat="44.4533845" lon="11.4193596"><ele>73.0</ele><time>2026-04-15T13:02:05.178Z</time></trkpt><trkpt lat="44.4532657" lon="11.4191945"><ele>73.0</ele><time>2026-04-15T13:02:06.155Z</time></trkpt><trkpt lat="44.4531487" lon="11.4190351"><ele>73.0</ele><time>2026-04-15T13:02:07.168Z</time></trkpt><trkpt lat="44.4530364" lon="11.4188737"><ele>73.0</ele><time>2026-04-15T13:02:08.165Z</time></trkpt><trkpt lat="44.4529273" lon="11.4187148"><ele>73.0</ele><time>2026-04-15T13:02:09.169Z</time></trkpt><trkpt lat="44.4528195" lon="11.4185549"><ele>74.33333333333333</ele><time>2026-04-15T13:02:10.167Z</time></trkpt><trkpt lat="44.4527126" lon="11.4184004"><ele>75.66666666666667</ele><time>2026-04-15T13:02:11.18Z</time></trkpt><trkpt lat="44.4526068" lon="11.4182467"><ele>77.0</ele><time>2026-04-15T13:02:12.15Z</time></trkpt><trkpt lat="44.4525028" lon="11.4180963"><ele>77.25</ele><time>2026-04-15T13:02:13.181Z</time></trkpt><trkpt lat="44.4524016" lon="11.4179512"><ele>77.5</ele><time>2026-04-15T13:02:14.171Z</time></trkpt><trkpt lat="44.4523052" lon="11.4178135"><ele>77.75</ele><time>2026-04-15T13:02:15.162Z</time></trkpt><trkpt lat="44.4522084" lon="11.4176744"><ele>78.0</ele><time>2026-04-15T13:02:16.155Z</time></trkpt><trkpt lat="44.452113" lon="11.4175377"><ele>78.0</ele><time>2026-04-15T13:02:17.152Z</time></trkpt><trkpt lat="44.4520224" lon="11.4174014"><ele>78.0</ele><time>2026-04-15T13:02:18.149Z</time></trkpt><trkpt lat="44.4519346" lon="11.4172704"><ele>78.0</ele><time>2026-04-15T13:02:19.147Z</time></trkpt><trkpt lat="44.4518479" lon="11.4171357"><ele>78.0</ele><time>2026-04-15T13:02:20.15Z</time></trkpt><trkpt lat="44.4516634" lon="11.4168724"><ele>77.66666666666667</ele><time>2026-04-15T13:02:22.147Z</time></trkpt><trkpt lat="44.4515721" lon="11.4167404"><ele>77.33333333333334</ele><time>2026-04-15T13:02:23.207Z</time></trkpt><trkpt lat="44.4514829" lon="11.416612"><ele>77.0</ele><time>2026-04-15T13:02:24.191Z</time></trkpt><trkpt lat="44.4513067" lon="11.4163489"><ele>77.0</ele><time>2026-04-15T13:02:26.14Z</time></trkpt><trkpt lat="44.4512262" lon="11.4162034"><ele>77.0</ele><time>2026-04-15T13:02:27.158Z</time></trkpt><trkpt lat="44.451157" lon="11.4160447"><ele>77.0</ele><time>2026-04-15T13:02:28.176Z</time></trkpt><trkpt lat="44.4510325" lon="11.4157025"><ele>77.0</ele><time>2026-04-15T13:02:30.164Z</time></trkpt><trkpt lat="44.4509772" lon="11.4155201"><ele>77.0</ele><time>2026-04-15T13:02:31.151Z</time></trkpt><trkpt lat="44.4509273" lon="11.415339"><ele>77.0</ele><time>2026-04-15T13:02:32.172Z</time></trkpt><trkpt lat="44.450891" lon="11.4151508"><ele>77.0</ele><time>2026-04-15T13:02:33.154Z</time></trkpt><trkpt lat="44.4508668" lon="11.4149756"><ele>78.0</ele><time>2026-04-15T13:02:34.156Z</time></trkpt><trkpt lat="44.4508586" lon="11.4148148"><ele>79.0</ele><time>2026-04-15T13:02:35.155Z</time></trkpt><trkpt lat="44.450871" lon="11.4146677"><ele>80.0</ele><time>2026-04-15T13:02:36.157Z</time></trkpt><trkpt lat="44.4509056" lon="11.4145332"><ele>81.0</ele><time>2026-04-15T13:02:37.159Z</time></trkpt><trkpt lat="44.4509419" lon="11.4144066"><ele>82.0</ele><time>2026-04-15T13:02:38.156Z</time></trkpt><trkpt lat="44.4509388" lon="11.4142746"><ele>82.25</ele><time>2026-04-15T13:02:39.177Z</time></trkpt><trkpt lat="44.4509105" lon="11.4141392"><ele>82.5</ele><time>2026-04-15T13:02:40.158Z</time></trkpt><trkpt lat="44.4508721" lon="11.4139995"><ele>82.75</ele><time>2026-04-15T13:02:41.162Z</time></trkpt><trkpt lat="44.4508495" lon="11.4138235"><ele>83.0</ele><time>2026-04-15T13:02:42.162Z</time></trkpt><trkpt lat="44.4508484" lon="11.4136452"><ele>83.5</ele><time>2026-04-15T13:02:43.159Z</time></trkpt><trkpt lat="44.4508612" lon="11.4134547"><ele>84.0</ele><time>2026-04-15T13:02:44.152Z</time></trkpt><trkpt lat="44.4508714" lon="11.4132547"><ele>84.5</ele><time>2026-04-15T13:02:45.168Z</time></trkpt><trkpt lat="44.4508842" lon="11.4130456"><ele>85.0</ele><time>2026-04-15T13:02:46.162Z</time></trkpt><trkpt lat="44.4508944" lon="11.4128289"><ele>85.33333333333333</ele><time>2026-04-15T13:02:47.154Z</time></trkpt><trkpt lat="44.4509019" lon="11.4126077"><ele>85.66666666666667</ele><time>2026-04-15T13:02:48.154Z</time></trkpt><trkpt lat="44.4509125" lon="11.4123781"><ele>86.0</ele><time>2026-04-15T13:02:49.159Z</time></trkpt><trkpt lat="44.4509254" lon="11.4121599"><ele>86.75</ele><time>2026-04-15T13:02:50.146Z</time></trkpt><trkpt lat="44.4509396" lon="11.4119458"><ele>87.5</ele><time>2026-04-15T13:02:51.152Z</time></trkpt><trkpt lat="44.450949" lon="11.4117351"><ele>88.25</ele><time>2026-04-15T13:02:52.167Z</time></trkpt><trkpt lat="44.4509578" lon="11.4115326"><ele>89.0</ele><time>2026-04-15T13:02:53.174Z</time></trkpt><trkpt lat="44.4509701" lon="11.4113439"><ele>88.75</ele><time>2026-04-15T13:02:54.151Z</time></trkpt><trkpt lat="44.4509815" lon="11.4111565"><ele>88.5</ele><time>2026-04-15T13:02:55.156Z</time></trkpt><trkpt lat="44.450994" lon="11.4109797"><ele>88.25</ele><time>2026-04-15T13:02:56.154Z</time></trkpt><trkpt lat="44.4510074" lon="11.4108011"><ele>88.0</ele><time>2026-04-15T13:02:57.166Z</time></trkpt><trkpt lat="44.4510139" lon="11.4106233"><ele>88.25</ele><time>2026-04-15T13:02:58.149Z</time></trkpt><trkpt lat="44.4510213" lon="11.4104524"><ele>88.5</ele><time>2026-04-15T13:02:59.158Z</time></trkpt><trkpt lat="44.4510283" lon="11.4102842"><ele>88.75</ele><time>2026-04-15T13:03:00.152Z</time></trkpt><trkpt lat="44.4510382" lon="11.4101243"><ele>89.0</ele><time>2026-04-15T13:03:01.186Z</time></trkpt><trkpt lat="44.4510493" lon="11.4099616"><ele>89.0</ele><time>2026-04-15T13:03:02.168Z</time></trkpt><trkpt lat="44.4510565" lon="11.4098074"><ele>89.0</ele><time>2026-04-15T13:03:03.156Z</time></trkpt><trkpt lat="44.4510636" lon="11.4096639"><ele>89.0</ele><time>2026-04-15T13:03:04.152Z</time></trkpt><trkpt lat="44.4510682" lon="11.4095287"><ele>89.0</ele><time>2026-04-15T13:03:05.145Z</time></trkpt><trkpt lat="44.4510742" lon="11.4094059"><ele>89.0</ele><time>2026-04-15T13:03:06.151Z</time></trkpt><trkpt lat="44.4510809" lon="11.4092807"><ele>89.16666666666667</ele><time>2026-04-15T13:03:07.169Z</time></trkpt><trkpt lat="44.4510865" lon="11.4091552"><ele>89.33333333333334</ele><time>2026-04-15T13:03:08.156Z</time></trkpt><trkpt lat="44.4510895" lon="11.4090412"><ele>89.5</ele><time>2026-04-15T13:03:09.162Z</time></trkpt><trkpt lat="44.4510921" lon="11.4089424"><ele>89.66666666666667</ele><time>2026-04-15T13:03:10.15Z</time></trkpt><trkpt lat="44.4510961" lon="11.4088365"><ele>89.83333333333333</ele><time>2026-04-15T13:03:11.159Z</time></trkpt><trkpt lat="44.4510987" lon="11.408732"><ele>90.0</ele><time>2026-04-15T13:03:12.154Z</time></trkpt><trkpt lat="44.4511022" lon="11.4086228"><ele>89.83333333333333</ele><time>2026-04-15T13:03:13.154Z</time></trkpt><trkpt lat="44.4511059" lon="11.4085293"><ele>89.66666666666667</ele><time>2026-04-15T13:03:14.162Z</time></trkpt><trkpt lat="44.4511071" lon="11.4083836"><ele>89.5</ele><time>2026-04-15T13:03:16.15Z</time></trkpt><trkpt lat="44.4511176" lon="11.4082941"><ele>89.33333333333334</ele><time>2026-04-15T13:03:18.162Z</time></trkpt><trkpt lat="44.4511298" lon="11.4081694"><ele>89.16666666666667</ele><time>2026-04-15T13:03:22.152Z</time></trkpt><trkpt lat="44.4511605" lon="11.408031"><ele>89.0</ele><time>2026-04-15T13:03:24.149Z</time></trkpt><trkpt lat="44.4512024" lon="11.4079051"><ele>89.0</ele><time>2026-04-15T13:03:26.149Z</time></trkpt><trkpt lat="44.4512611" lon="11.4077944"><ele>89.0</ele><time>2026-04-15T13:03:28.156Z</time></trkpt><trkpt lat="44.4513093" lon="11.4077343"><ele>89.0</ele><time>2026-04-15T13:03:29.149Z</time></trkpt><trkpt lat="44.451358" lon="11.4076715"><ele>89.0</ele><time>2026-04-15T13:03:30.146Z</time></trkpt><trkpt lat="44.4513887" lon="11.4075898"><ele>89.0</ele><time>2026-04-15T13:03:31.16Z</time></trkpt><trkpt lat="44.4513463" lon="11.4074554"><ele>89.0</ele><time>2026-04-15T13:03:33.165Z</time></trkpt><trkpt lat="44.4512852" lon="11.4074207"><ele>89.0</ele><time>2026-04-15T13:03:34.16Z</time></trkpt><trkpt lat="44.4512153" lon="11.4074116"><ele>89.0</ele><time>2026-04-15T13:03:35.157Z</time></trkpt><trkpt lat="44.4511296" lon="11.4074052"><ele>89.0</ele><time>2026-04-15T13:03:36.148Z</time></trkpt><trkpt lat="44.4510278" lon="11.4074002"><ele>89.0</ele><time>2026-04-15T13:03:37.156Z</time></trkpt><trkpt lat="44.4509053" lon="11.4074046"><ele>89.0</ele><time>2026-04-15T13:03:38.17Z</time></trkpt><trkpt lat="44.4507698" lon="11.4074196"><ele>89.0</ele><time>2026-04-15T13:03:39.172Z</time></trkpt><trkpt lat="44.4506168" lon="11.4074397"><ele>89.0</ele><time>2026-04-15T13:03:40.151Z</time></trkpt><trkpt lat="44.4504565" lon="11.407464"><ele>89.0</ele><time>2026-04-15T13:03:41.158Z</time></trkpt><trkpt lat="44.4502917" lon="11.4074892"><ele>90.33333333333334</ele><time>2026-04-15T13:03:42.147Z</time></trkpt><trkpt lat="44.4501262" lon="11.407511"><ele>91.66666666666667</ele><time>2026-04-15T13:03:43.161Z</time></trkpt><trkpt lat="44.4499621" lon="11.407535"><ele>93.0</ele><time>2026-04-15T13:03:44.153Z</time></trkpt><trkpt lat="44.4498003" lon="11.4075569"><ele>93.0</ele><time>2026-04-15T13:03:45.164Z</time></trkpt><trkpt lat="44.4496511" lon="11.4075882"><ele>93.0</ele><time>2026-04-15T13:03:46.151Z</time></trkpt><trkpt lat="44.4495284" lon="11.4076303"><ele>93.0</ele><time>2026-04-15T13:03:47.143Z</time></trkpt><trkpt lat="44.4493313" lon="11.4077596"><ele>93.0</ele><time>2026-04-15T13:03:49.16Z</time></trkpt><trkpt lat="44.4492776" lon="11.4078493"><ele>93.0</ele><time>2026-04-15T13:03:50.151Z</time></trkpt><trkpt lat="44.4492557" lon="11.4079568"><ele>93.0</ele><time>2026-04-15T13:03:51.164Z</time></trkpt><trkpt lat="44.4492456" lon="11.4080946"><ele>93.0</ele><time>2026-04-15T13:03:52.15Z</time></trkpt><trkpt lat="44.4492274" lon="11.4082692"><ele>93.0</ele><time>2026-04-15T13:03:53.166Z</time></trkpt><trkpt lat="44.4492003" lon="11.4084502"><ele>93.25</ele><time>2026-04-15T13:03:54.148Z</time></trkpt><trkpt lat="44.4491766" lon="11.4086302"><ele>93.5</ele><time>2026-04-15T13:03:55.153Z</time></trkpt><trkpt lat="44.4491521" lon="11.4088015"><ele>93.75</ele><time>2026-04-15T13:03:56.155Z</time></trkpt><trkpt lat="44.4491227" lon="11.4089633"><ele>94.0</ele><time>2026-04-15T13:03:57.165Z</time></trkpt><trkpt lat="44.4490944" lon="11.4091061"><ele>94.0</ele><time>2026-04-15T13:03:58.136Z</time></trkpt><trkpt lat="44.4490733" lon="11.4092365"><ele>94.0</ele><time>2026-04-15T13:03:59.157Z</time></trkpt><trkpt lat="44.4490504" lon="11.4093446"><ele>94.0</ele><time>2026-04-15T13:04:00.162Z</time></trkpt><trkpt lat="44.4490086" lon="11.4094287"><ele>94.0</ele><time>2026-04-15T13:04:01.16Z</time></trkpt><trkpt lat="44.4489393" lon="11.4094514"><ele>94.0</ele><time>2026-04-15T13:04:02.16Z</time></trkpt><trkpt lat="44.4488426" lon="11.4094241"><ele>94.0</ele><time>2026-04-15T13:04:03.144Z</time></trkpt><trkpt lat="44.4487345" lon="11.4093827"><ele>93.33333333333333</ele><time>2026-04-15T13:04:04.146Z</time></trkpt><trkpt lat="44.4485973" lon="11.4093401"><ele>92.66666666666667</ele><time>2026-04-15T13:04:05.146Z</time></trkpt><trkpt lat="44.4484385" lon="11.4092968"><ele>92.0</ele><time>2026-04-15T13:04:06.158Z</time></trkpt><trkpt lat="44.4482637" lon="11.4092316"><ele>92.0</ele><time>2026-04-15T13:04:07.147Z</time></trkpt><trkpt lat="44.4480936" lon="11.4091552"><ele>92.0</ele><time>2026-04-15T13:04:08.149Z</time></trkpt><trkpt lat="44.4479124" lon="11.409083"><ele>92.0</ele><time>2026-04-15T13:04:09.147Z</time></trkpt><trkpt lat="44.4477396" lon="11.4090265"><ele>92.0</ele><time>2026-04-15T13:04:10.15Z</time></trkpt><trkpt lat="44.4475634" lon="11.4089812"><ele>92.0</ele><time>2026-04-15T13:04:11.15Z</time></trkpt><trkpt lat="44.4473849" lon="11.4089319"><ele>92.0</ele><time>2026-04-15T13:04:12.147Z</time></trkpt><trkpt lat="44.4471944" lon="11.4088603"><ele>93.0</ele><time>2026-04-15T13:04:13.179Z</time></trkpt><trkpt lat="44.447" lon="11.4087733"><ele>94.0</ele><time>2026-04-15T13:04:14.154Z</time></trkpt><trkpt lat="44.4467995" lon="11.4086983"><ele>95.0</ele><time>2026-04-15T13:04:15.151Z</time></trkpt><trkpt lat="44.4465941" lon="11.4086233"><ele>95.0</ele><time>2026-04-15T13:04:16.15Z</time></trkpt><trkpt lat="44.4463876" lon="11.4085471"><ele>95.0</ele><time>2026-04-15T13:04:17.165Z</time></trkpt><trkpt lat="44.4461836" lon="11.4084786"><ele>95.0</ele><time>2026-04-15T13:04:18.163Z</time></trkpt><trkpt lat="44.4459804" lon="11.4084084"><ele>94.66666666666667</ele><time>2026-04-15T13:04:19.155Z</time></trkpt><trkpt lat="44.4457726" lon="11.4083406"><ele>94.33333333333333</ele><time>2026-04-15T13:04:20.154Z</time></trkpt><trkpt lat="44.4455736" lon="11.4082721"><ele>94.0</ele><time>2026-04-15T13:04:21.149Z</time></trkpt><trkpt lat="44.445376" lon="11.4082119"><ele>93.66666666666666</ele><time>2026-04-15T13:04:22.149Z</time></trkpt><trkpt lat="44.4451843" lon="11.4081461"><ele>93.33333333333333</ele><time>2026-04-15T13:04:23.159Z</time></trkpt><trkpt lat="44.4449938" lon="11.4080816"><ele>93.0</ele><time>2026-04-15T13:04:24.144Z</time></trkpt><trkpt lat="44.4448008" lon="11.4080113"><ele>93.66666666666667</ele><time>2026-04-15T13:04:25.154Z</time></trkpt><trkpt lat="44.4445968" lon="11.407934"><ele>94.33333333333334</ele><time>2026-04-15T13:04:26.163Z</time></trkpt><trkpt lat="44.444402" lon="11.4078583"><ele>95.0</ele><time>2026-04-15T13:04:27.168Z</time></trkpt><trkpt lat="44.4442077" lon="11.4077876"><ele>95.0</ele><time>2026-04-15T13:04:28.164Z</time></trkpt><trkpt lat="44.4440167" lon="11.4077172"><ele>95.0</ele><time>2026-04-15T13:04:29.151Z</time></trkpt><trkpt lat="44.4438222" lon="11.4076509"><ele>95.0</ele><time>2026-04-15T13:04:30.16Z</time></trkpt><trkpt lat="44.4436297" lon="11.407581"><ele>93.66666666666667</ele><time>2026-04-15T13:04:31.159Z</time></trkpt><trkpt lat="44.4434333" lon="11.4075126"><ele>92.33333333333333</ele><time>2026-04-15T13:04:32.147Z</time></trkpt><trkpt lat="44.4432346" lon="11.4074423"><ele>91.0</ele><time>2026-04-15T13:04:33.152Z</time></trkpt><trkpt lat="44.4430359" lon="11.4073705"><ele>90.33333333333333</ele><time>2026-04-15T13:04:34.148Z</time></trkpt><trkpt lat="44.4428386" lon="11.4073023"><ele>89.66666666666667</ele><time>2026-04-15T13:04:35.156Z</time></trkpt><trkpt lat="44.4426431" lon="11.4072305"><ele>89.0</ele><time>2026-04-15T13:04:36.152Z</time></trkpt><trkpt lat="44.4424458" lon="11.407164"><ele>89.33333333333334</ele><time>2026-04-15T13:04:37.155Z</time></trkpt><trkpt lat="44.4422512" lon="11.4070985"><ele>89.66666666666667</ele><time>2026-04-15T13:04:38.164Z</time></trkpt><trkpt lat="44.4420566" lon="11.4070298"><ele>90.0</ele><time>2026-04-15T13:04:39.151Z</time></trkpt><trkpt lat="44.4418606" lon="11.4069672"><ele>90.0</ele><time>2026-04-15T13:04:40.149Z</time></trkpt><trkpt lat="44.4416675" lon="11.4069051"><ele>90.0</ele><time>2026-04-15T13:04:41.152Z</time></trkpt><trkpt lat="44.4414832" lon="11.4068439"><ele>90.0</ele><time>2026-04-15T13:04:42.159Z</time></trkpt><trkpt lat="44.4413183" lon="11.4067971"><ele>89.4</ele><time>2026-04-15T13:04:43.158Z</time></trkpt><trkpt lat="44.4411818" lon="11.4067509"><ele>88.8</ele><time>2026-04-15T13:04:44.161Z</time></trkpt><trkpt lat="44.4410779" lon="11.4067123"><ele>88.19999999999999</ele><time>2026-04-15T13:04:45.146Z</time></trkpt><trkpt lat="44.4409939" lon="11.4066903"><ele>87.6</ele><time>2026-04-15T13:04:46.169Z</time></trkpt><trkpt lat="44.4409165" lon="11.4066745"><ele>87.0</ele><time>2026-04-15T13:04:47.156Z</time></trkpt><trkpt lat="44.4408439" lon="11.4066884"><ele>87.0</ele><time>2026-04-15T13:04:48.147Z</time></trkpt><trkpt lat="44.4407769" lon="11.4067475"><ele>87.0</ele><time>2026-04-15T13:04:49.153Z</time></trkpt><trkpt lat="44.4407218" lon="11.4068381"><ele>87.0</ele><time>2026-04-15T13:04:50.147Z</time></trkpt><trkpt lat="44.4406672" lon="11.4069645"><ele>87.0</ele><time>2026-04-15T13:04:51.167Z</time></trkpt><trkpt lat="44.4406132" lon="11.4071168"><ele>87.0</ele><time>2026-04-15T13:04:52.147Z</time></trkpt><trkpt lat="44.4405528" lon="11.4072929"><ele>87.0</ele><time>2026-04-15T13:04:53.144Z</time></trkpt><trkpt lat="44.4404952" lon="11.4074774"><ele>87.0</ele><time>2026-04-15T13:04:54.142Z</time></trkpt><trkpt lat="44.4404246" lon="11.4076854"><ele>87.0</ele><time>2026-04-15T13:04:55.158Z</time></trkpt><trkpt lat="44.4403501" lon="11.407888"><ele>87.0</ele><time>2026-04-15T13:04:56.144Z</time></trkpt><trkpt lat="44.4402818" lon="11.4080782"><ele>87.0</ele><time>2026-04-15T13:04:57.149Z</time></trkpt><trkpt lat="44.4402197" lon="11.4082575"><ele>87.0</ele><time>2026-04-15T13:04:58.142Z</time></trkpt><trkpt lat="44.4401604" lon="11.4084083"><ele>87.0</ele><time>2026-04-15T13:04:59.143Z</time></trkpt><trkpt lat="44.4400921" lon="11.4085239"><ele>87.0</ele><time>2026-04-15T13:05:00.143Z</time></trkpt><trkpt lat="44.4399977" lon="11.4085932"><ele>87.0</ele><time>2026-04-15T13:05:01.153Z</time></trkpt><trkpt lat="44.4398686" lon="11.4086314"><ele>87.0</ele><time>2026-04-15T13:05:02.159Z</time></trkpt><trkpt lat="44.4397264" lon="11.4086401"><ele>87.0</ele><time>2026-04-15T13:05:03.174Z</time></trkpt><trkpt lat="44.4395922" lon="11.408629"><ele>86.25</ele><time>2026-04-15T13:05:04.152Z</time></trkpt><trkpt lat="44.4394489" lon="11.4086181"><ele>85.5</ele><time>2026-04-15T13:05:05.145Z</time></trkpt><trkpt lat="44.4393017" lon="11.4086025"><ele>84.75</ele><time>2026-04-15T13:05:06.14Z</time></trkpt><trkpt lat="44.4391645" lon="11.4085711"><ele>84.0</ele><time>2026-04-15T13:05:07.159Z</time></trkpt><trkpt lat="44.4390268" lon="11.4085502"><ele>84.0</ele><time>2026-04-15T13:05:08.153Z</time></trkpt><trkpt lat="44.438893" lon="11.4085166"><ele>84.0</ele><time>2026-04-15T13:05:09.155Z</time></trkpt><trkpt lat="44.4387643" lon="11.4084843"><ele>84.0</ele><time>2026-04-15T13:05:10.154Z</time></trkpt><trkpt lat="44.4386432" lon="11.4084503"><ele>84.0</ele><time>2026-04-15T13:05:11.158Z</time></trkpt><trkpt lat="44.4385235" lon="11.4084176"><ele>83.75</ele><time>2026-04-15T13:05:12.141Z</time></trkpt><trkpt lat="44.4384041" lon="11.408384"><ele>83.5</ele><time>2026-04-15T13:05:13.169Z</time></trkpt><trkpt lat="44.4382891" lon="11.4083492"><ele>83.25</ele><time>2026-04-15T13:05:14.155Z</time></trkpt><trkpt lat="44.4381736" lon="11.4083156"><ele>83.0</ele><time>2026-04-15T13:05:15.144Z</time></trkpt><trkpt lat="44.4380601" lon="11.4082841"><ele>83.0</ele><time>2026-04-15T13:05:16.148Z</time></trkpt><trkpt lat="44.4379491" lon="11.4082498"><ele>83.0</ele><time>2026-04-15T13:05:17.15Z</time></trkpt><trkpt lat="44.4378392" lon="11.4082147"><ele>83.0</ele><time>2026-04-15T13:05:18.141Z</time></trkpt><trkpt lat="44.4377286" lon="11.4081783"><ele>83.0</ele><time>2026-04-15T13:05:19.14Z</time></trkpt><trkpt lat="44.4376152" lon="11.4081352"><ele>83.0</ele><time>2026-04-15T13:05:20.15Z</time></trkpt><trkpt lat="44.4374971" lon="11.4080846"><ele>83.0</ele><time>2026-04-15T13:05:21.144Z</time></trkpt><trkpt lat="44.4373772" lon="11.4080294"><ele>83.0</ele><time>2026-04-15T13:05:22.159Z</time></trkpt><trkpt lat="44.4372764" lon="11.407982"><ele>83.0</ele><time>2026-04-15T13:05:23.145Z</time></trkpt><trkpt lat="44.4371978" lon="11.4079455"><ele>83.0</ele><time>2026-04-15T13:05:24.142Z</time></trkpt><trkpt lat="44.437135" lon="11.4079135"><ele>82.5</ele><time>2026-04-15T13:05:25.145Z</time></trkpt><trkpt lat="44.4370508" lon="11.4078654"><ele>82.0</ele><time>2026-04-15T13:05:27.144Z</time></trkpt><trkpt lat="44.4369864" lon="11.4078248"><ele>81.5</ele><time>2026-04-15T13:05:42.149Z</time></trkpt><trkpt lat="44.4369107" lon="11.4077844"><ele>81.0</ele><time>2026-04-15T13:05:44.132Z</time></trkpt><trkpt lat="44.4368496" lon="11.4077355"><ele>80.5</ele><time>2026-04-15T13:05:45.152Z</time></trkpt><trkpt lat="44.4367842" lon="11.4076882"><ele>80.0</ele><time>2026-04-15T13:05:46.151Z</time></trkpt><trkpt lat="44.4367116" lon="11.4076268"><ele>80.0</ele><time>2026-04-15T13:05:47.15Z</time></trkpt><trkpt lat="44.4366329" lon="11.4075499"><ele>80.0</ele><time>2026-04-15T13:05:48.145Z</time></trkpt><trkpt lat="44.4365528" lon="11.4074604"><ele>80.0</ele><time>2026-04-15T13:05:49.141Z</time></trkpt><trkpt lat="44.4364648" lon="11.4073591"><ele>80.0</ele><time>2026-04-15T13:05:50.145Z</time></trkpt><trkpt lat="44.4363753" lon="11.4072506"><ele>80.0</ele><time>2026-04-15T13:05:51.136Z</time></trkpt><trkpt lat="44.4362883" lon="11.4071357"><ele>80.75</ele><time>2026-04-15T13:05:52.142Z</time></trkpt><trkpt lat="44.4362077" lon="11.407013"><ele>81.5</ele><time>2026-04-15T13:05:53.157Z</time></trkpt><trkpt lat="44.4361223" lon="11.4068886"><ele>82.25</ele><time>2026-04-15T13:05:54.14Z</time></trkpt><trkpt lat="44.4360329" lon="11.4067611"><ele>83.0</ele><time>2026-04-15T13:05:55.145Z</time></trkpt><trkpt lat="44.4359473" lon="11.4066267"><ele>83.0</ele><time>2026-04-15T13:05:56.15Z</time></trkpt><trkpt lat="44.4358615" lon="11.4064962"><ele>83.0</ele><time>2026-04-15T13:05:57.147Z</time></trkpt><trkpt lat="44.4357736" lon="11.4063584"><ele>83.0</ele><time>2026-04-15T13:05:58.147Z</time></trkpt><trkpt lat="44.4356828" lon="11.4062144"><ele>83.0</ele><time>2026-04-15T13:05:59.159Z</time></trkpt><trkpt lat="44.4355876" lon="11.4060653"><ele>83.5</ele><time>2026-04-15T13:06:00.143Z</time></trkpt><trkpt lat="44.435494" lon="11.4059176"><ele>84.0</ele><time>2026-04-15T13:06:01.145Z</time></trkpt><trkpt lat="44.4353957" lon="11.4057793"><ele>84.5</ele><time>2026-04-15T13:06:02.15Z</time></trkpt><trkpt lat="44.4352884" lon="11.4056561"><ele>85.0</ele><time>2026-04-15T13:06:03.14Z</time></trkpt><trkpt lat="44.4351678" lon="11.4055437"><ele>86.33333333333333</ele><time>2026-04-15T13:06:04.142Z</time></trkpt><trkpt lat="44.4350288" lon="11.4054547"><ele>87.66666666666667</ele><time>2026-04-15T13:06:05.137Z</time></trkpt><trkpt lat="44.4348879" lon="11.4053799"><ele>89.0</ele><time>2026-04-15T13:06:06.142Z</time></trkpt><trkpt lat="44.4347468" lon="11.4053182"><ele>91.0</ele><time>2026-04-15T13:06:07.137Z</time></trkpt><trkpt lat="44.434609" lon="11.4052485"><ele>93.0</ele><time>2026-04-15T13:06:08.139Z</time></trkpt><trkpt lat="44.4344715" lon="11.405167"><ele>95.0</ele><time>2026-04-15T13:06:09.143Z</time></trkpt><trkpt lat="44.4343284" lon="11.4050724"><ele>95.0</ele><time>2026-04-15T13:06:10.142Z</time></trkpt><trkpt lat="44.4341806" lon="11.404974"><ele>95.0</ele><time>2026-04-15T13:06:11.131Z</time></trkpt><trkpt lat="44.4340375" lon="11.4048656"><ele>95.0</ele><time>2026-04-15T13:06:12.148Z</time></trkpt><trkpt lat="44.4339025" lon="11.4047503"><ele>96.0</ele><time>2026-04-15T13:06:13.134Z</time></trkpt><trkpt lat="44.4337677" lon="11.4046323"><ele>97.0</ele><time>2026-04-15T13:06:14.148Z</time></trkpt><trkpt lat="44.4336385" lon="11.4045111"><ele>98.0</ele><time>2026-04-15T13:06:15.157Z</time></trkpt><trkpt lat="44.4335108" lon="11.4043867"><ele>98.0</ele><time>2026-04-15T13:06:16.124Z</time></trkpt><trkpt lat="44.4333812" lon="11.4042631"><ele>98.0</ele><time>2026-04-15T13:06:17.142Z</time></trkpt><trkpt lat="44.4332443" lon="11.4041393"><ele>98.0</ele><time>2026-04-15T13:06:18.163Z</time></trkpt><trkpt lat="44.4331099" lon="11.4040154"><ele>98.0</ele><time>2026-04-15T13:06:19.141Z</time></trkpt><trkpt lat="44.4329793" lon="11.4038907"><ele>98.0</ele><time>2026-04-15T13:06:20.141Z</time></trkpt><trkpt lat="44.4328478" lon="11.4037723"><ele>98.0</ele><time>2026-04-15T13:06:21.142Z</time></trkpt><trkpt lat="44.4327218" lon="11.4036546"><ele>95.66666666666666</ele><time>2026-04-15T13:06:22.138Z</time></trkpt><trkpt lat="44.432591" lon="11.4035376"><ele>93.33333333333333</ele><time>2026-04-15T13:06:23.125Z</time></trkpt><trkpt lat="44.4324609" lon="11.4034215"><ele>91.0</ele><time>2026-04-15T13:06:24.134Z</time></trkpt><trkpt lat="44.4323344" lon="11.4032955"><ele>91.0</ele><time>2026-04-15T13:06:25.12Z</time></trkpt><trkpt lat="44.4322161" lon="11.4031452"><ele>91.0</ele><time>2026-04-15T13:06:26.143Z</time></trkpt><trkpt lat="44.4321064" lon="11.4029828"><ele>91.0</ele><time>2026-04-15T13:06:27.131Z</time></trkpt><trkpt lat="44.4319928" lon="11.402821"><ele>91.33333333333333</ele><time>2026-04-15T13:06:28.137Z</time></trkpt><trkpt lat="44.4318679" lon="11.4026607"><ele>91.66666666666667</ele><time>2026-04-15T13:06:29.135Z</time></trkpt><trkpt lat="44.4317217" lon="11.4025155"><ele>92.0</ele><time>2026-04-15T13:06:30.127Z</time></trkpt><trkpt lat="44.4315479" lon="11.4023794"><ele>92.0</ele><time>2026-04-15T13:06:31.148Z</time></trkpt><trkpt lat="44.4313593" lon="11.4022439"><ele>92.0</ele><time>2026-04-15T13:06:32.126Z</time></trkpt><trkpt lat="44.4311587" lon="11.402103"><ele>92.0</ele><time>2026-04-15T13:06:33.131Z</time></trkpt><trkpt lat="44.430948" lon="11.4019473"><ele>91.5</ele><time>2026-04-15T13:06:34.134Z</time></trkpt><trkpt lat="44.4307306" lon="11.4017798"><ele>91.0</ele><time>2026-04-15T13:06:35.14Z</time></trkpt><trkpt lat="44.4305134" lon="11.4016162"><ele>90.5</ele><time>2026-04-15T13:06:36.152Z</time></trkpt><trkpt lat="44.4303171" lon="11.4014483"><ele>90.0</ele><time>2026-04-15T13:06:37.136Z</time></trkpt><trkpt lat="44.4301253" lon="11.4012835"><ele>90.0</ele><time>2026-04-15T13:06:38.131Z</time></trkpt><trkpt lat="44.4299405" lon="11.4011192"><ele>90.0</ele><time>2026-04-15T13:06:39.143Z</time></trkpt><trkpt lat="44.4297587" lon="11.400956"><ele>90.0</ele><time>2026-04-15T13:06:40.137Z</time></trkpt><trkpt lat="44.4295827" lon="11.4007985"><ele>90.33333333333333</ele><time>2026-04-15T13:06:41.148Z</time></trkpt><trkpt lat="44.4294081" lon="11.4006398"><ele>90.66666666666666</ele><time>2026-04-15T13:06:42.148Z</time></trkpt><trkpt lat="44.4292433" lon="11.4004791"><ele>91.0</ele><time>2026-04-15T13:06:43.154Z</time></trkpt><trkpt lat="44.4290766" lon="11.4003273"><ele>91.0</ele><time>2026-04-15T13:06:44.131Z</time></trkpt><trkpt lat="44.4289102" lon="11.400181"><ele>91.0</ele><time>2026-04-15T13:06:45.127Z</time></trkpt><trkpt lat="44.4287423" lon="11.4000466"><ele>91.0</ele><time>2026-04-15T13:06:46.132Z</time></trkpt><trkpt lat="44.4285735" lon="11.3999281"><ele>91.33333333333333</ele><time>2026-04-15T13:06:47.15Z</time></trkpt><trkpt lat="44.4283836" lon="11.3998412"><ele>91.66666666666667</ele><time>2026-04-15T13:06:48.141Z</time></trkpt><trkpt lat="44.4281885" lon="11.3997676"><ele>92.0</ele><time>2026-04-15T13:06:49.137Z</time></trkpt><trkpt lat="44.4279983" lon="11.3996851"><ele>91.66666666666667</ele><time>2026-04-15T13:06:50.148Z</time></trkpt><trkpt lat="44.4278222" lon="11.3996037"><ele>91.33333333333333</ele><time>2026-04-15T13:06:51.143Z</time></trkpt><trkpt lat="44.4276734" lon="11.3995185"><ele>91.0</ele><time>2026-04-15T13:06:52.132Z</time></trkpt><trkpt lat="44.4275537" lon="11.399441"><ele>91.0</ele><time>2026-04-15T13:06:53.152Z</time></trkpt><trkpt lat="44.4274507" lon="11.3993711"><ele>91.0</ele><time>2026-04-15T13:06:54.147Z</time></trkpt><trkpt lat="44.4273581" lon="11.3993265"><ele>91.0</ele><time>2026-04-15T13:06:55.141Z</time></trkpt><trkpt lat="44.4272652" lon="11.3993322"><ele>91.0</ele><time>2026-04-15T13:06:56.14Z</time></trkpt><trkpt lat="44.4271789" lon="11.3993896"><ele>91.0</ele><time>2026-04-15T13:06:57.15Z</time></trkpt><trkpt lat="44.427118" lon="11.3995229"><ele>91.25</ele><time>2026-04-15T13:06:58.147Z</time></trkpt><trkpt lat="44.4270491" lon="11.3996776"><ele>91.5</ele><time>2026-04-15T13:06:59.133Z</time></trkpt><trkpt lat="44.426978" lon="11.3998582"><ele>91.75</ele><time>2026-04-15T13:07:00.137Z</time></trkpt><trkpt lat="44.4268901" lon="11.4000437"><ele>92.0</ele><time>2026-04-15T13:07:01.152Z</time></trkpt><trkpt lat="44.4267773" lon="11.4002236"><ele>92.0</ele><time>2026-04-15T13:07:02.139Z</time></trkpt><trkpt lat="44.4266419" lon="11.4003853"><ele>92.0</ele><time>2026-04-15T13:07:03.134Z</time></trkpt><trkpt lat="44.4264926" lon="11.4005273"><ele>92.0</ele><time>2026-04-15T13:07:04.142Z</time></trkpt><trkpt lat="44.426329" lon="11.4006526"><ele>91.66666666666667</ele><time>2026-04-15T13:07:05.131Z</time></trkpt><trkpt lat="44.4261521" lon="11.4007511"><ele>91.33333333333333</ele><time>2026-04-15T13:07:06.13Z</time></trkpt><trkpt lat="44.4259708" lon="11.4008173"><ele>91.0</ele><time>2026-04-15T13:07:07.15Z</time></trkpt><trkpt lat="44.4257943" lon="11.4008655"><ele>91.0</ele><time>2026-04-15T13:07:08.136Z</time></trkpt><trkpt lat="44.4255975" lon="11.4008446"><ele>91.0</ele><time>2026-04-15T13:07:09.123Z</time></trkpt><trkpt lat="44.4254053" lon="11.4007976"><ele>91.0</ele><time>2026-04-15T13:07:10.144Z</time></trkpt><trkpt lat="44.425195" lon="11.4007242"><ele>91.5</ele><time>2026-04-15T13:07:11.135Z</time></trkpt><trkpt lat="44.4249736" lon="11.4006409"><ele>92.0</ele><time>2026-04-15T13:07:12.135Z</time></trkpt><trkpt lat="44.4247604" lon="11.4005572"><ele>92.0</ele><time>2026-04-15T13:07:13.14Z</time></trkpt><trkpt lat="44.4245464" lon="11.4004702"><ele>92.0</ele><time>2026-04-15T13:07:14.143Z</time></trkpt><trkpt lat="44.4243413" lon="11.400392"><ele>92.0</ele><time>2026-04-15T13:07:15.132Z</time></trkpt><trkpt lat="44.4241395" lon="11.400307"><ele>92.0</ele><time>2026-04-15T13:07:16.128Z</time></trkpt><trkpt lat="44.4239491" lon="11.400186"><ele>92.0</ele><time>2026-04-15T13:07:17.142Z</time></trkpt><trkpt lat="44.4237615" lon="11.4000424"><ele>92.0</ele><time>2026-04-15T13:07:18.133Z</time></trkpt><trkpt lat="44.4235764" lon="11.399888"><ele>93.0</ele><time>2026-04-15T13:07:19.135Z</time></trkpt><trkpt lat="44.4234031" lon="11.3997296"><ele>94.0</ele><time>2026-04-15T13:07:20.14Z</time></trkpt><trkpt lat="44.4232462" lon="11.3995786"><ele>95.0</ele><time>2026-04-15T13:07:21.125Z</time></trkpt><trkpt lat="44.4231042" lon="11.3994329"><ele>95.0</ele><time>2026-04-15T13:07:22.135Z</time></trkpt><trkpt lat="44.4229814" lon="11.3992598"><ele>95.0</ele><time>2026-04-15T13:07:23.13Z</time></trkpt><trkpt lat="44.4228868" lon="11.399056"><ele>95.0</ele><time>2026-04-15T13:07:24.138Z</time></trkpt><trkpt lat="44.4228129" lon="11.3988166"><ele>96.66666666666667</ele><time>2026-04-15T13:07:25.138Z</time></trkpt><trkpt lat="44.4227517" lon="11.3985511"><ele>98.33333333333334</ele><time>2026-04-15T13:07:26.145Z</time></trkpt><trkpt lat="44.4226942" lon="11.3982717"><ele>100.0</ele><time>2026-04-15T13:07:27.119Z</time></trkpt><trkpt lat="44.4226449" lon="11.3979859"><ele>100.33333333333334</ele><time>2026-04-15T13:07:28.134Z</time></trkpt><trkpt lat="44.4225994" lon="11.3977027"><ele>100.66666666666666</ele><time>2026-04-15T13:07:29.123Z</time></trkpt><trkpt lat="44.4225508" lon="11.397432"><ele>101.0</ele><time>2026-04-15T13:07:30.138Z</time></trkpt><trkpt lat="44.4224813" lon="11.3971826"><ele>102.66666666666666</ele><time>2026-04-15T13:07:31.129Z</time></trkpt><trkpt lat="44.4223943" lon="11.3969526"><ele>104.33333333333334</ele><time>2026-04-15T13:07:32.137Z</time></trkpt><trkpt lat="44.4222924" lon="11.3967575"><ele>106.0</ele><time>2026-04-15T13:07:33.141Z</time></trkpt><trkpt lat="44.4221715" lon="11.3965584"><ele>106.66666666666667</ele><time>2026-04-15T13:07:34.146Z</time></trkpt><trkpt lat="44.4220315" lon="11.3963759"><ele>107.33333333333334</ele><time>2026-04-15T13:07:35.139Z</time></trkpt><trkpt lat="44.4218651" lon="11.3961874"><ele>108.0</ele><time>2026-04-15T13:07:36.133Z</time></trkpt><trkpt lat="44.4216836" lon="11.3960142"><ele>108.0</ele><time>2026-04-15T13:07:37.152Z</time></trkpt><trkpt lat="44.4214835" lon="11.3958598"><ele>108.0</ele><time>2026-04-15T13:07:38.144Z</time></trkpt><trkpt lat="44.4212873" lon="11.3957171"><ele>107.33333333333334</ele><time>2026-04-15T13:07:39.142Z</time></trkpt><trkpt lat="44.4210943" lon="11.3955687"><ele>106.66666666666667</ele><time>2026-04-15T13:07:40.144Z</time></trkpt><trkpt lat="44.4209048" lon="11.3954147"><ele>106.0</ele><time>2026-04-15T13:07:41.131Z</time></trkpt><trkpt lat="44.4207338" lon="11.3952373"><ele>106.0</ele><time>2026-04-15T13:07:42.144Z</time></trkpt><trkpt lat="44.4205838" lon="11.395063"><ele>106.0</ele><time>2026-04-15T13:07:43.14Z</time></trkpt><trkpt lat="44.4204396" lon="11.3948985"><ele>106.0</ele><time>2026-04-15T13:07:44.135Z</time></trkpt><trkpt lat="44.4202862" lon="11.3947862"><ele>105.0</ele><time>2026-04-15T13:07:45.137Z</time></trkpt><trkpt lat="44.4201133" lon="11.3947237"><ele>104.0</ele><time>2026-04-15T13:07:46.13Z</time></trkpt><trkpt lat="44.4199329" lon="11.3946758"><ele>103.0</ele><time>2026-04-15T13:07:47.142Z</time></trkpt><trkpt lat="44.4197442" lon="11.3946489"><ele>104.66666666666667</ele><time>2026-04-15T13:07:48.141Z</time></trkpt><trkpt lat="44.4195602" lon="11.3946322"><ele>106.33333333333334</ele><time>2026-04-15T13:07:49.141Z</time></trkpt><trkpt lat="44.4193828" lon="11.3946193"><ele>108.0</ele><time>2026-04-15T13:07:50.133Z</time></trkpt><trkpt lat="44.4192062" lon="11.394567"><ele>108.0</ele><time>2026-04-15T13:07:51.14Z</time></trkpt><trkpt lat="44.4190276" lon="11.3944684"><ele>108.0</ele><time>2026-04-15T13:07:52.151Z</time></trkpt><trkpt lat="44.4188494" lon="11.3943603"><ele>108.0</ele><time>2026-04-15T13:07:53.132Z</time></trkpt><trkpt lat="44.4186751" lon="11.3942159"><ele>107.0</ele><time>2026-04-15T13:07:54.127Z</time></trkpt><trkpt lat="44.4185031" lon="11.3940385"><ele>106.0</ele><time>2026-04-15T13:07:55.154Z</time></trkpt><trkpt lat="44.41834" lon="11.3938373"><ele>105.0</ele><time>2026-04-15T13:07:56.121Z</time></trkpt><trkpt lat="44.4181815" lon="11.393624"><ele>105.5</ele><time>2026-04-15T13:07:57.129Z</time></trkpt><trkpt lat="44.4180152" lon="11.3934127"><ele>106.0</ele><time>2026-04-15T13:07:58.143Z</time></trkpt><trkpt lat="44.4178267" lon="11.3932179"><ele>106.0</ele><time>2026-04-15T13:07:59.121Z</time></trkpt><trkpt lat="44.4176259" lon="11.3930315"><ele>106.0</ele><time>2026-04-15T13:08:00.134Z</time></trkpt><trkpt lat="44.4174229" lon="11.3928569"><ele>106.0</ele><time>2026-04-15T13:08:01.135Z</time></trkpt><trkpt lat="44.4172072" lon="11.3927062"><ele>106.0</ele><time>2026-04-15T13:08:02.139Z</time></trkpt><trkpt lat="44.416984" lon="11.3925812"><ele>106.0</ele><time>2026-04-15T13:08:03.128Z</time></trkpt><trkpt lat="44.4167575" lon="11.3924701"><ele>106.0</ele><time>2026-04-15T13:08:04.132Z</time></trkpt><trkpt lat="44.4165372" lon="11.3923573"><ele>106.0</ele><time>2026-04-15T13:08:05.119Z</time></trkpt><trkpt lat="44.4163199" lon="11.3922366"><ele>106.0</ele><time>2026-04-15T13:08:06.13Z</time></trkpt><trkpt lat="44.4161042" lon="11.3921"><ele>108.0</ele><time>2026-04-15T13:08:07.139Z</time></trkpt><trkpt lat="44.4158888" lon="11.3919534"><ele>110.0</ele><time>2026-04-15T13:08:08.126Z</time></trkpt><trkpt lat="44.4156712" lon="11.3917946"><ele>108.5</ele><time>2026-04-15T13:08:09.118Z</time></trkpt><trkpt lat="44.4154586" lon="11.3916349"><ele>107.0</ele><time>2026-04-15T13:08:10.142Z</time></trkpt><trkpt lat="44.4152442" lon="11.3914773"><ele>110.0</ele><time>2026-04-15T13:08:11.113Z</time></trkpt><trkpt lat="44.4150341" lon="11.391327"><ele>113.0</ele><time>2026-04-15T13:08:12.142Z</time></trkpt><trkpt lat="44.4148342" lon="11.3911786"><ele>111.33333333333333</ele><time>2026-04-15T13:08:13.123Z</time></trkpt><trkpt lat="44.4146539" lon="11.391015"><ele>109.66666666666666</ele><time>2026-04-15T13:08:14.142Z</time></trkpt><trkpt lat="44.414498" lon="11.3908478"><ele>108.0</ele><time>2026-04-15T13:08:15.118Z</time></trkpt><trkpt lat="44.4143277" lon="11.3907315"><ele>108.0</ele><time>2026-04-15T13:08:16.142Z</time></trkpt><trkpt lat="44.4141391" lon="11.3906452"><ele>108.0</ele><time>2026-04-15T13:08:17.136Z</time></trkpt><trkpt lat="44.4139227" lon="11.3905703"><ele>108.0</ele><time>2026-04-15T13:08:18.132Z</time></trkpt><trkpt lat="44.4137092" lon="11.3905087"><ele>110.0</ele><time>2026-04-15T13:08:19.134Z</time></trkpt><trkpt lat="44.4134942" lon="11.3904425"><ele>112.0</ele><time>2026-04-15T13:08:20.136Z</time></trkpt><trkpt lat="44.4132806" lon="11.3903691"><ele>114.0</ele><time>2026-04-15T13:08:21.138Z</time></trkpt><trkpt lat="44.4130623" lon="11.390296"><ele>110.0</ele><time>2026-04-15T13:08:22.138Z</time></trkpt><trkpt lat="44.4128439" lon="11.3902242"><ele>106.0</ele><time>2026-04-15T13:08:23.137Z</time></trkpt><trkpt lat="44.4126153" lon="11.3901383"><ele>106.0</ele><time>2026-04-15T13:08:24.138Z</time></trkpt><trkpt lat="44.4123836" lon="11.3900654"><ele>106.0</ele><time>2026-04-15T13:08:25.134Z</time></trkpt><trkpt lat="44.4121719" lon="11.3899913"><ele>106.33333333333334</ele><time>2026-04-15T13:08:26.133Z</time></trkpt><trkpt lat="44.4119794" lon="11.3899216"><ele>106.66666666666666</ele><time>2026-04-15T13:08:27.121Z</time></trkpt><trkpt lat="44.4118039" lon="11.389862"><ele>107.0</ele><time>2026-04-15T13:08:28.131Z</time></trkpt><trkpt lat="44.4116463" lon="11.3898131"><ele>107.0</ele><time>2026-04-15T13:08:29.134Z</time></trkpt><trkpt lat="44.4114982" lon="11.3897953"><ele>107.0</ele><time>2026-04-15T13:08:30.138Z</time></trkpt><trkpt lat="44.4113472" lon="11.3898363"><ele>107.0</ele><time>2026-04-15T13:08:31.133Z</time></trkpt><trkpt lat="44.4111972" lon="11.3899031"><ele>108.0</ele><time>2026-04-15T13:08:32.132Z</time></trkpt><trkpt lat="44.4110418" lon="11.3899831"><ele>109.0</ele><time>2026-04-15T13:08:33.131Z</time></trkpt><trkpt lat="44.4108922" lon="11.390061"><ele>110.0</ele><time>2026-04-15T13:08:34.151Z</time></trkpt><trkpt lat="44.4107566" lon="11.3901282"><ele>110.0</ele><time>2026-04-15T13:08:35.138Z</time></trkpt><trkpt lat="44.4106276" lon="11.3901962"><ele>110.0</ele><time>2026-04-15T13:08:36.132Z</time></trkpt><trkpt lat="44.4105098" lon="11.3902574"><ele>110.0</ele><time>2026-04-15T13:08:37.132Z</time></trkpt><trkpt lat="44.4104128" lon="11.3903132"><ele>110.0</ele><time>2026-04-15T13:08:38.141Z</time></trkpt><trkpt lat="44.4103365" lon="11.3903605"><ele>109.83333333333333</ele><time>2026-04-15T13:08:39.137Z</time></trkpt><trkpt lat="44.4102462" lon="11.3904202"><ele>109.66666666666666</ele><time>2026-04-15T13:08:41.13Z</time></trkpt><trkpt lat="44.4101838" lon="11.3904512"><ele>109.5</ele><time>2026-04-15T13:09:20.12Z</time></trkpt><trkpt lat="44.4101244" lon="11.3904902"><ele>109.33333333333334</ele><time>2026-04-15T13:09:21.12Z</time></trkpt><trkpt lat="44.4100467" lon="11.3905374"><ele>109.16666666666667</ele><time>2026-04-15T13:09:22.124Z</time></trkpt><trkpt lat="44.4099607" lon="11.3906018"><ele>109.0</ele><time>2026-04-15T13:09:23.123Z</time></trkpt><trkpt lat="44.4098681" lon="11.390664"><ele>108.75</ele><time>2026-04-15T13:09:24.133Z</time></trkpt><trkpt lat="44.4097748" lon="11.3907436"><ele>108.5</ele><time>2026-04-15T13:09:25.115Z</time></trkpt><trkpt lat="44.4096815" lon="11.3908369"><ele>108.25</ele><time>2026-04-15T13:09:26.128Z</time></trkpt><trkpt lat="44.4095878" lon="11.3909227"><ele>108.0</ele><time>2026-04-15T13:09:27.122Z</time></trkpt><trkpt lat="44.4094916" lon="11.3910153"><ele>109.25</ele><time>2026-04-15T13:09:28.131Z</time></trkpt><trkpt lat="44.4093966" lon="11.3911104"><ele>110.5</ele><time>2026-04-15T13:09:29.113Z</time></trkpt><trkpt lat="44.4093001" lon="11.3912053"><ele>111.75</ele><time>2026-04-15T13:09:30.128Z</time></trkpt><trkpt lat="44.4092022" lon="11.3913036"><ele>113.0</ele><time>2026-04-15T13:09:31.132Z</time></trkpt><trkpt lat="44.4090958" lon="11.3913973"><ele>113.0</ele><time>2026-04-15T13:09:32.139Z</time></trkpt><trkpt lat="44.4089881" lon="11.391485"><ele>113.0</ele><time>2026-04-15T13:09:33.11Z</time></trkpt><trkpt lat="44.4088794" lon="11.3915869"><ele>113.0</ele><time>2026-04-15T13:09:34.141Z</time></trkpt><trkpt lat="44.4087739" lon="11.3917046"><ele>113.0</ele><time>2026-04-15T13:09:35.117Z</time></trkpt><trkpt lat="44.4086578" lon="11.3918438"><ele>112.66666666666666</ele><time>2026-04-15T13:09:36.126Z</time></trkpt><trkpt lat="44.408524" lon="11.3919913"><ele>112.33333333333334</ele><time>2026-04-15T13:09:37.11Z</time></trkpt><trkpt lat="44.4083904" lon="11.3921311"><ele>112.0</ele><time>2026-04-15T13:09:38.123Z</time></trkpt><trkpt lat="44.4082516" lon="11.3922546"><ele>112.0</ele><time>2026-04-15T13:09:39.121Z</time></trkpt><trkpt lat="44.4081068" lon="11.3923364"><ele>112.0</ele><time>2026-04-15T13:09:40.117Z</time></trkpt><trkpt lat="44.4079513" lon="11.3923775"><ele>112.0</ele><time>2026-04-15T13:09:41.127Z</time></trkpt><trkpt lat="44.4077931" lon="11.3923364"><ele>111.66666666666667</ele><time>2026-04-15T13:09:42.113Z</time></trkpt><trkpt lat="44.4076584" lon="11.3922235"><ele>111.33333333333334</ele><time>2026-04-15T13:09:43.141Z</time></trkpt><trkpt lat="44.4075143" lon="11.3921025"><ele>111.0</ele><time>2026-04-15T13:09:44.127Z</time></trkpt><trkpt lat="44.4073461" lon="11.3919756"><ele>111.33333333333334</ele><time>2026-04-15T13:09:45.133Z</time></trkpt><trkpt lat="44.4071661" lon="11.3918862"><ele>111.66666666666667</ele><time>2026-04-15T13:09:46.121Z</time></trkpt><trkpt lat="44.4069858" lon="11.3917911"><ele>112.0</ele><time>2026-04-15T13:09:47.12Z</time></trkpt><trkpt lat="44.4068036" lon="11.3916657"><ele>112.0</ele><time>2026-04-15T13:09:48.124Z</time></trkpt><trkpt lat="44.4066234" lon="11.3915215"><ele>112.0</ele><time>2026-04-15T13:09:49.119Z</time></trkpt><trkpt lat="44.4064504" lon="11.3913786"><ele>112.0</ele><time>2026-04-15T13:09:50.125Z</time></trkpt><trkpt lat="44.4062736" lon="11.3912708"><ele>116.0</ele><time>2026-04-15T13:09:51.124Z</time></trkpt><trkpt lat="44.4060937" lon="11.3912218"><ele>120.0</ele><time>2026-04-15T13:09:52.13Z</time></trkpt><trkpt lat="44.4059241" lon="11.3912134"><ele>124.0</ele><time>2026-04-15T13:09:53.131Z</time></trkpt><trkpt lat="44.4057897" lon="11.3912274"><ele>124.0</ele><time>2026-04-15T13:09:54.115Z</time></trkpt><trkpt lat="44.405679" lon="11.3912486"><ele>124.0</ele><time>2026-04-15T13:09:55.127Z</time></trkpt><trkpt lat="44.405572" lon="11.3912976"><ele>124.0</ele><time>2026-04-15T13:09:56.12Z</time></trkpt><trkpt lat="44.4054853" lon="11.3913696"><ele>124.0</ele><time>2026-04-15T13:09:57.115Z</time></trkpt><trkpt lat="44.4054181" lon="11.3914942"><ele>124.0</ele><time>2026-04-15T13:09:58.12Z</time></trkpt><trkpt lat="44.4053741" lon="11.3917515"><ele>120.0</ele><time>2026-04-15T13:09:59.112Z</time></trkpt><trkpt lat="44.4053272" lon="11.3920102"><ele>116.0</ele><time>2026-04-15T13:10:00.125Z</time></trkpt><trkpt lat="44.4052681" lon="11.3922473"><ele>112.0</ele><time>2026-04-15T13:10:01.132Z</time></trkpt><trkpt lat="44.4051979" lon="11.3924936"><ele>111.66666666666667</ele><time>2026-04-15T13:10:02.125Z</time></trkpt><trkpt lat="44.4051206" lon="11.3927485"><ele>111.33333333333334</ele><time>2026-04-15T13:10:03.115Z</time></trkpt><trkpt lat="44.4050423" lon="11.3929907"><ele>111.0</ele><time>2026-04-15T13:10:04.115Z</time></trkpt><trkpt lat="44.4049656" lon="11.3932182"><ele>111.0</ele><time>2026-04-15T13:10:05.121Z</time></trkpt><trkpt lat="44.4048682" lon="11.3933961"><ele>111.0</ele><time>2026-04-15T13:10:06.119Z</time></trkpt><trkpt lat="44.404731" lon="11.3935408"><ele>111.0</ele><time>2026-04-15T13:10:07.113Z</time></trkpt><trkpt lat="44.4045635" lon="11.3936445"><ele>111.0</ele><time>2026-04-15T13:10:08.119Z</time></trkpt><trkpt lat="44.4043841" lon="11.3936988"><ele>111.0</ele><time>2026-04-15T13:10:09.124Z</time></trkpt><trkpt lat="44.4041998" lon="11.3936905"><ele>111.0</ele><time>2026-04-15T13:10:10.121Z</time></trkpt><trkpt lat="44.4040476" lon="11.39363"><ele>111.0</ele><time>2026-04-15T13:10:11.109Z</time></trkpt><trkpt lat="44.4038968" lon="11.3935108"><ele>111.0</ele><time>2026-04-15T13:10:12.12Z</time></trkpt><trkpt lat="44.4037495" lon="11.3933695"><ele>111.0</ele><time>2026-04-15T13:10:13.111Z</time></trkpt><trkpt lat="44.4036155" lon="11.3931953"><ele>111.33333333333334</ele><time>2026-04-15T13:10:14.123Z</time></trkpt><trkpt lat="44.4034789" lon="11.3929894"><ele>111.66666666666667</ele><time>2026-04-15T13:10:15.119Z</time></trkpt><trkpt lat="44.4033422" lon="11.3927774"><ele>112.0</ele><time>2026-04-15T13:10:16.112Z</time></trkpt><trkpt lat="44.4032077" lon="11.3925564"><ele>112.0</ele><time>2026-04-15T13:10:17.117Z</time></trkpt><trkpt lat="44.4030689" lon="11.3923351"><ele>112.0</ele><time>2026-04-15T13:10:18.126Z</time></trkpt><trkpt lat="44.4029222" lon="11.3921077"><ele>112.0</ele><time>2026-04-15T13:10:19.113Z</time></trkpt><trkpt lat="44.4027657" lon="11.3918852"><ele>112.33333333333334</ele><time>2026-04-15T13:10:20.151Z</time></trkpt><trkpt lat="44.4026089" lon="11.3916707"><ele>112.66666666666666</ele><time>2026-04-15T13:10:21.107Z</time></trkpt><trkpt lat="44.4024494" lon="11.3914575"><ele>113.0</ele><time>2026-04-15T13:10:22.111Z</time></trkpt><trkpt lat="44.4022945" lon="11.3912533"><ele>114.66666666666666</ele><time>2026-04-15T13:10:23.115Z</time></trkpt><trkpt lat="44.4021581" lon="11.3910408"><ele>116.33333333333334</ele><time>2026-04-15T13:10:24.126Z</time></trkpt><trkpt lat="44.4020351" lon="11.3908385"><ele>118.0</ele><time>2026-04-15T13:10:25.108Z</time></trkpt><trkpt lat="44.4019282" lon="11.3906396"><ele>119.25</ele><time>2026-04-15T13:10:26.127Z</time></trkpt><trkpt lat="44.4018256" lon="11.3904649"><ele>120.5</ele><time>2026-04-15T13:10:27.128Z</time></trkpt><trkpt lat="44.4017257" lon="11.3903261"><ele>121.75</ele><time>2026-04-15T13:10:28.104Z</time></trkpt><trkpt lat="44.4016284" lon="11.39022"><ele>123.0</ele><time>2026-04-15T13:10:29.114Z</time></trkpt><trkpt lat="44.4015242" lon="11.3901738"><ele>123.0</ele><time>2026-04-15T13:10:30.115Z</time></trkpt><trkpt lat="44.4014163" lon="11.3901879"><ele>123.0</ele><time>2026-04-15T13:10:31.116Z</time></trkpt><trkpt lat="44.4013189" lon="11.3902878"><ele>123.0</ele><time>2026-04-15T13:10:32.114Z</time></trkpt><trkpt lat="44.4012396" lon="11.390418"><ele>123.0</ele><time>2026-04-15T13:10:33.123Z</time></trkpt><trkpt lat="44.401188" lon="11.3905737"><ele>122.0</ele><time>2026-04-15T13:10:34.115Z</time></trkpt><trkpt lat="44.4011516" lon="11.3907658"><ele>121.0</ele><time>2026-04-15T13:10:35.098Z</time></trkpt><trkpt lat="44.4011195" lon="11.3909542"><ele>120.0</ele><time>2026-04-15T13:10:36.111Z</time></trkpt><trkpt lat="44.4010652" lon="11.3911486"><ele>119.0</ele><time>2026-04-15T13:10:37.103Z</time></trkpt><trkpt lat="44.4009828" lon="11.3913213"><ele>118.33333333333333</ele><time>2026-04-15T13:10:38.112Z</time></trkpt><trkpt lat="44.4008717" lon="11.3914548"><ele>117.66666666666666</ele><time>2026-04-15T13:10:39.108Z</time></trkpt><trkpt lat="44.4007375" lon="11.3915491"><ele>117.0</ele><time>2026-04-15T13:10:40.113Z</time></trkpt><trkpt lat="44.4005812" lon="11.3916325"><ele>118.0</ele><time>2026-04-15T13:10:41.111Z</time></trkpt><trkpt lat="44.4004104" lon="11.3917147"><ele>119.0</ele><time>2026-04-15T13:10:42.119Z</time></trkpt><trkpt lat="44.4002311" lon="11.3917941"><ele>120.0</ele><time>2026-04-15T13:10:43.108Z</time></trkpt><trkpt lat="44.4000458" lon="11.3918716"><ele>120.0</ele><time>2026-04-15T13:10:44.121Z</time></trkpt><trkpt lat="44.399851" lon="11.3919457"><ele>120.0</ele><time>2026-04-15T13:10:45.123Z</time></trkpt><trkpt lat="44.3996518" lon="11.3920173"><ele>120.0</ele><time>2026-04-15T13:10:46.128Z</time></trkpt><trkpt lat="44.3994529" lon="11.3920915"><ele>120.33333333333334</ele><time>2026-04-15T13:10:47.111Z</time></trkpt><trkpt lat="44.399258" lon="11.3921623"><ele>120.66666666666667</ele><time>2026-04-15T13:10:48.107Z</time></trkpt><trkpt lat="44.3990694" lon="11.392229"><ele>121.0</ele><time>2026-04-15T13:10:49.133Z</time></trkpt><trkpt lat="44.3988797" lon="11.3923095"><ele>119.66666666666667</ele><time>2026-04-15T13:10:50.115Z</time></trkpt><trkpt lat="44.3987005" lon="11.3923883"><ele>118.33333333333334</ele><time>2026-04-15T13:10:51.112Z</time></trkpt><trkpt lat="44.3985288" lon="11.3924675"><ele>117.0</ele><time>2026-04-15T13:10:52.12Z</time></trkpt><trkpt lat="44.3983652" lon="11.3925469"><ele>117.0</ele><time>2026-04-15T13:10:53.102Z</time></trkpt><trkpt lat="44.3982166" lon="11.3926237"><ele>117.0</ele><time>2026-04-15T13:10:54.114Z</time></trkpt><trkpt lat="44.3980741" lon="11.3927003"><ele>117.0</ele><time>2026-04-15T13:10:55.122Z</time></trkpt><trkpt lat="44.3979524" lon="11.3927904"><ele>117.0</ele><time>2026-04-15T13:10:56.119Z</time></trkpt><trkpt lat="44.3978534" lon="11.3929091"><ele>116.75</ele><time>2026-04-15T13:10:57.118Z</time></trkpt><trkpt lat="44.3977642" lon="11.393051"><ele>116.5</ele><time>2026-04-15T13:10:58.117Z</time></trkpt><trkpt lat="44.3976855" lon="11.3931922"><ele>116.25</ele><time>2026-04-15T13:10:59.112Z</time></trkpt><trkpt lat="44.3976168" lon="11.3933162"><ele>116.0</ele><time>2026-04-15T13:11:00.118Z</time></trkpt><trkpt lat="44.3975538" lon="11.3934217"><ele>115.99999999999999</ele><time>2026-04-15T13:11:01.118Z</time></trkpt><trkpt lat="44.3974956" lon="11.3934888"><ele>116.0</ele><time>2026-04-15T13:11:02.115Z</time></trkpt><trkpt lat="44.3974228" lon="11.3934928"><ele>116.0</ele><time>2026-04-15T13:11:03.128Z</time></trkpt><trkpt lat="44.3973378" lon="11.3934671"><ele>116.0</ele><time>2026-04-15T13:11:04.112Z</time></trkpt><trkpt lat="44.3972469" lon="11.3934334"><ele>115.99999999999999</ele><time>2026-04-15T13:11:05.117Z</time></trkpt><trkpt lat="44.3971389" lon="11.3933794"><ele>116.0</ele><time>2026-04-15T13:11:06.134Z</time></trkpt><trkpt lat="44.3970083" lon="11.3933129"><ele>118.0</ele><time>2026-04-15T13:11:07.104Z</time></trkpt><trkpt lat="44.3968676" lon="11.393252"><ele>120.0</ele><time>2026-04-15T13:11:08.122Z</time></trkpt><trkpt lat="44.3967191" lon="11.393182"><ele>122.0</ele><time>2026-04-15T13:11:09.098Z</time></trkpt><trkpt lat="44.3965624" lon="11.3930992"><ele>123.66666666666666</ele><time>2026-04-15T13:11:10.123Z</time></trkpt><trkpt lat="44.3964139" lon="11.3929961"><ele>125.33333333333334</ele><time>2026-04-15T13:11:11.106Z</time></trkpt><trkpt lat="44.3962773" lon="11.3928662"><ele>127.0</ele><time>2026-04-15T13:11:12.098Z</time></trkpt><trkpt lat="44.3961468" lon="11.3926937"><ele>127.0</ele><time>2026-04-15T13:11:13.116Z</time></trkpt><trkpt lat="44.3960152" lon="11.3925115"><ele>127.0</ele><time>2026-04-15T13:11:14.116Z</time></trkpt><trkpt lat="44.3958893" lon="11.3923049"><ele>127.0</ele><time>2026-04-15T13:11:15.101Z</time></trkpt><trkpt lat="44.3957595" lon="11.3920913"><ele>127.33333333333334</ele><time>2026-04-15T13:11:16.195Z</time></trkpt><trkpt lat="44.3956215" lon="11.39188"><ele>127.66666666666666</ele><time>2026-04-15T13:11:17.117Z</time></trkpt><trkpt lat="44.3954758" lon="11.3916722"><ele>128.0</ele><time>2026-04-15T13:11:18.121Z</time></trkpt><trkpt lat="44.3953251" lon="11.3914739"><ele>133.33333333333331</ele><time>2026-04-15T13:11:19.106Z</time></trkpt><trkpt lat="44.3951701" lon="11.3912769"><ele>138.66666666666666</ele><time>2026-04-15T13:11:20.108Z</time></trkpt><trkpt lat="44.3950166" lon="11.3910823"><ele>144.0</ele><time>2026-04-15T13:11:21.114Z</time></trkpt><trkpt lat="44.3948668" lon="11.3908757"><ele>144.0</ele><time>2026-04-15T13:11:22.11Z</time></trkpt><trkpt lat="44.3947216" lon="11.3906681"><ele>144.0</ele><time>2026-04-15T13:11:23.102Z</time></trkpt><trkpt lat="44.3945964" lon="11.3904602"><ele>144.0</ele><time>2026-04-15T13:11:24.114Z</time></trkpt><trkpt lat="44.3944961" lon="11.3902538"><ele>143.66666666666666</ele><time>2026-04-15T13:11:25.112Z</time></trkpt><trkpt lat="44.3944166" lon="11.3900299"><ele>143.33333333333331</ele><time>2026-04-15T13:11:26.123Z</time></trkpt><trkpt lat="44.3943603" lon="11.3897856"><ele>143.0</ele><time>2026-04-15T13:11:27.109Z</time></trkpt><trkpt lat="44.3943088" lon="11.3895312"><ele>145.66666666666666</ele><time>2026-04-15T13:11:28.11Z</time></trkpt><trkpt lat="44.394257" lon="11.3892621"><ele>148.33333333333334</ele><time>2026-04-15T13:11:29.123Z</time></trkpt><trkpt lat="44.3942004" lon="11.3889968"><ele>151.0</ele><time>2026-04-15T13:11:30.117Z</time></trkpt><trkpt lat="44.3941373" lon="11.3887334"><ele>154.0</ele><time>2026-04-15T13:11:31.112Z</time></trkpt><trkpt lat="44.3940785" lon="11.3884733"><ele>157.0</ele><time>2026-04-15T13:11:32.112Z</time></trkpt><trkpt lat="44.3940262" lon="11.3882252"><ele>160.0</ele><time>2026-04-15T13:11:33.118Z</time></trkpt><trkpt lat="44.3939866" lon="11.3880115"><ele>160.66666666666669</ele><time>2026-04-15T13:11:34.109Z</time></trkpt><trkpt lat="44.3939669" lon="11.3878184"><ele>161.33333333333334</ele><time>2026-04-15T13:11:35.117Z</time></trkpt><trkpt lat="44.3939768" lon="11.3876231"><ele>162.0</ele><time>2026-04-15T13:11:36.106Z</time></trkpt><trkpt lat="44.3940987" lon="11.3872216"><ele>159.66666666666666</ele><time>2026-04-15T13:11:38.113Z</time></trkpt><trkpt lat="44.3941977" lon="11.3870615"><ele>157.33333333333331</ele><time>2026-04-15T13:11:39.117Z</time></trkpt><trkpt lat="44.3943186" lon="11.38694"><ele>155.0</ele><time>2026-04-15T13:11:40.101Z</time></trkpt><trkpt lat="44.3944519" lon="11.3868347"><ele>155.0</ele><time>2026-04-15T13:11:41.119Z</time></trkpt><trkpt lat="44.3946061" lon="11.3867575"><ele>155.0</ele><time>2026-04-15T13:11:42.096Z</time></trkpt><trkpt lat="44.3947685" lon="11.3866906"><ele>155.0</ele><time>2026-04-15T13:11:43.104Z</time></trkpt><trkpt lat="44.3949132" lon="11.3866068"><ele>158.0</ele><time>2026-04-15T13:11:44.097Z</time></trkpt><trkpt lat="44.3950315" lon="11.3864912"><ele>161.0</ele><time>2026-04-15T13:11:45.102Z</time></trkpt><trkpt lat="44.3951258" lon="11.3863465"><ele>164.0</ele><time>2026-04-15T13:11:46.097Z</time></trkpt><trkpt lat="44.3952034" lon="11.3861949"><ele>167.0</ele><time>2026-04-15T13:11:47.091Z</time></trkpt><trkpt lat="44.3952471" lon="11.3860506"><ele>167.0</ele><time>2026-04-15T13:11:48.114Z</time></trkpt><trkpt lat="44.3952675" lon="11.3859411"><ele>167.0</ele><time>2026-04-15T13:11:49.098Z</time></trkpt><trkpt lat="44.3952916" lon="11.3858411"><ele>167.0</ele><time>2026-04-15T13:11:50.104Z</time></trkpt><trkpt lat="44.3953153" lon="11.3857348"><ele>167.0</ele><time>2026-04-15T13:11:51.113Z</time></trkpt><trkpt lat="44.3953497" lon="11.3856167"><ele>167.0</ele><time>2026-04-15T13:11:52.096Z</time></trkpt><trkpt lat="44.395387" lon="11.385484"><ele>167.0</ele><time>2026-04-15T13:11:53.107Z</time></trkpt><trkpt lat="44.3954273" lon="11.3853432"><ele>168.5</ele><time>2026-04-15T13:11:54.115Z</time></trkpt><trkpt lat="44.3954644" lon="11.3851827"><ele>170.0</ele><time>2026-04-15T13:11:55.098Z</time></trkpt><trkpt lat="44.3954964" lon="11.3850115"><ele>171.5</ele><time>2026-04-15T13:11:56.103Z</time></trkpt><trkpt lat="44.3955135" lon="11.384846"><ele>173.0</ele><time>2026-04-15T13:11:57.102Z</time></trkpt><trkpt lat="44.3955073" lon="11.3846769"><ele>177.25</ele><time>2026-04-15T13:11:58.113Z</time></trkpt><trkpt lat="44.3954539" lon="11.3845129"><ele>181.5</ele><time>2026-04-15T13:11:59.105Z</time></trkpt><trkpt lat="44.3953725" lon="11.3843648"><ele>185.75</ele><time>2026-04-15T13:12:00.097Z</time></trkpt><trkpt lat="44.3952658" lon="11.3842553"><ele>190.0</ele><time>2026-04-15T13:12:01.115Z</time></trkpt><trkpt lat="44.3951363" lon="11.3841778"><ele>190.0</ele><time>2026-04-15T13:12:02.108Z</time></trkpt><trkpt lat="44.3949983" lon="11.384116"><ele>190.0</ele><time>2026-04-15T13:12:03.088Z</time></trkpt><trkpt lat="44.394856" lon="11.3840416"><ele>190.0</ele><time>2026-04-15T13:12:04.097Z</time></trkpt><trkpt lat="44.3946548" lon="11.3838064"><ele>189.25</ele><time>2026-04-15T13:12:06.096Z</time></trkpt><trkpt lat="44.3945877" lon="11.3836676"><ele>188.5</ele><time>2026-04-15T13:12:07.098Z</time></trkpt><trkpt lat="44.3945559" lon="11.3834965"><ele>187.75</ele><time>2026-04-15T13:12:08.098Z</time></trkpt><trkpt lat="44.3945394" lon="11.3832968"><ele>187.0</ele><time>2026-04-15T13:12:09.109Z</time></trkpt><trkpt lat="44.3945277" lon="11.3830715"><ele>188.0</ele><time>2026-04-15T13:12:10.106Z</time></trkpt><trkpt lat="44.3945155" lon="11.382833"><ele>189.0</ele><time>2026-04-15T13:12:11.1Z</time></trkpt><trkpt lat="44.3945006" lon="11.3825793"><ele>190.0</ele><time>2026-04-15T13:12:12.109Z</time></trkpt><trkpt lat="44.3944757" lon="11.3823181"><ele>192.66666666666669</ele><time>2026-04-15T13:12:13.134Z</time></trkpt><trkpt lat="44.3944453" lon="11.3820744"><ele>195.33333333333334</ele><time>2026-04-15T13:12:14.1Z</time></trkpt><trkpt lat="44.3944236" lon="11.3818431"><ele>198.0</ele><time>2026-04-15T13:12:15.118Z</time></trkpt><trkpt lat="44.3944165" lon="11.3816149"><ele>198.0</ele><time>2026-04-15T13:12:16.136Z</time></trkpt><trkpt lat="44.3944292" lon="11.3813893"><ele>198.0</ele><time>2026-04-15T13:12:17.116Z</time></trkpt><trkpt lat="44.394462" lon="11.3811686"><ele>198.0</ele><time>2026-04-15T13:12:18.115Z</time></trkpt><trkpt lat="44.3945219" lon="11.3809498"><ele>204.5</ele><time>2026-04-15T13:12:19.106Z</time></trkpt><trkpt lat="44.394695" lon="11.3805124"><ele>211.0</ele><time>2026-04-15T13:12:21.092Z</time></trkpt><trkpt lat="44.3948193" lon="11.380314"><ele>211.0</ele><time>2026-04-15T13:12:22.105Z</time></trkpt><trkpt lat="44.3949644" lon="11.3801503"><ele>211.0</ele><time>2026-04-15T13:12:23.118Z</time></trkpt><trkpt lat="44.395122" lon="11.3800119"><ele>211.0</ele><time>2026-04-15T13:12:24.1Z</time></trkpt><trkpt lat="44.3953015" lon="11.3798859"><ele>211.0</ele><time>2026-04-15T13:12:25.107Z</time></trkpt><trkpt lat="44.3954849" lon="11.3797618"><ele>211.0</ele><time>2026-04-15T13:12:26.119Z</time></trkpt><trkpt lat="44.3956689" lon="11.3796281"><ele>211.0</ele><time>2026-04-15T13:12:27.096Z</time></trkpt><trkpt lat="44.3961959" lon="11.3791251"><ele>214.66666666666666</ele><time>2026-04-15T13:12:30.11Z</time></trkpt><trkpt lat="44.3963632" lon="11.3789371"><ele>218.33333333333331</ele><time>2026-04-15T13:12:31.104Z</time></trkpt><trkpt lat="44.3965246" lon="11.3787527"><ele>222.0</ele><time>2026-04-15T13:12:32.084Z</time></trkpt><trkpt lat="44.3966693" lon="11.3785722"><ele>222.0</ele><time>2026-04-15T13:12:33.09Z</time></trkpt><trkpt lat="44.3967997" lon="11.3784038"><ele>222.0</ele><time>2026-04-15T13:12:34.099Z</time></trkpt><trkpt lat="44.3969043" lon="11.3782354"><ele>222.0</ele><time>2026-04-15T13:12:35.09Z</time></trkpt><trkpt lat="44.3969862" lon="11.3780375"><ele>221.66666666666669</ele><time>2026-04-15T13:12:36.099Z</time></trkpt><trkpt lat="44.3970323" lon="11.3778181"><ele>221.33333333333334</ele><time>2026-04-15T13:12:37.095Z</time></trkpt><trkpt lat="44.3970557" lon="11.3776008"><ele>221.0</ele><time>2026-04-15T13:12:38.1Z</time></trkpt><trkpt lat="44.3970507" lon="11.37737"><ele>222.0</ele><time>2026-04-15T13:12:39.089Z</time></trkpt><trkpt lat="44.3970242" lon="11.3771304"><ele>223.0</ele><time>2026-04-15T13:12:40.088Z</time></trkpt><trkpt lat="44.3969841" lon="11.3768929"><ele>224.0</ele><time>2026-04-15T13:12:41.086Z</time></trkpt><trkpt lat="44.3969381" lon="11.376652"><ele>224.0</ele><time>2026-04-15T13:12:42.118Z</time></trkpt><trkpt lat="44.3969023" lon="11.3764076"><ele>224.0</ele><time>2026-04-15T13:12:43.113Z</time></trkpt><trkpt lat="44.3968698" lon="11.3761751"><ele>224.0</ele><time>2026-04-15T13:12:44.103Z</time></trkpt><trkpt lat="44.3968385" lon="11.3759418"><ele>227.0</ele><time>2026-04-15T13:12:45.091Z</time></trkpt><trkpt lat="44.3968081" lon="11.3757034"><ele>230.0</ele><time>2026-04-15T13:12:46.107Z</time></trkpt><trkpt lat="44.3967743" lon="11.3754673"><ele>233.0</ele><time>2026-04-15T13:12:47.103Z</time></trkpt><trkpt lat="44.3967399" lon="11.3752457"><ele>234.66666666666669</ele><time>2026-04-15T13:12:48.09Z</time></trkpt><trkpt lat="44.3967063" lon="11.3750245"><ele>236.33333333333331</ele><time>2026-04-15T13:12:49.099Z</time></trkpt><trkpt lat="44.3966685" lon="11.3747987"><ele>238.0</ele><time>2026-04-15T13:12:50.105Z</time></trkpt><trkpt lat="44.3966274" lon="11.3745567"><ele>238.0</ele><time>2026-04-15T13:12:51.085Z</time></trkpt><trkpt lat="44.3964594" lon="11.3740844"><ele>238.0</ele><time>2026-04-15T13:12:53.099Z</time></trkpt><trkpt lat="44.3963548" lon="11.3738434"><ele>237.0</ele><time>2026-04-15T13:12:54.097Z</time></trkpt><trkpt lat="44.3962559" lon="11.3735972"><ele>236.0</ele><time>2026-04-15T13:12:55.096Z</time></trkpt><trkpt lat="44.3961779" lon="11.3733276"><ele>235.0</ele><time>2026-04-15T13:12:56.095Z</time></trkpt><trkpt lat="44.396114" lon="11.3730434"><ele>234.33333333333331</ele><time>2026-04-15T13:12:57.106Z</time></trkpt><trkpt lat="44.3960658" lon="11.372758"><ele>233.66666666666669</ele><time>2026-04-15T13:12:58.099Z</time></trkpt><trkpt lat="44.3960334" lon="11.3724734"><ele>233.0</ele><time>2026-04-15T13:12:59.084Z</time></trkpt><trkpt lat="44.3960017" lon="11.3721761"><ele>235.33333333333334</ele><time>2026-04-15T13:13:00.091Z</time></trkpt><trkpt lat="44.3959732" lon="11.3718947"><ele>237.66666666666669</ele><time>2026-04-15T13:13:01.09Z</time></trkpt><trkpt lat="44.3959403" lon="11.3716109"><ele>240.0</ele><time>2026-04-15T13:13:02.082Z</time></trkpt><trkpt lat="44.3959139" lon="11.3713517"><ele>241.66666666666669</ele><time>2026-04-15T13:13:03.114Z</time></trkpt><trkpt lat="44.3958912" lon="11.3711048"><ele>243.33333333333334</ele><time>2026-04-15T13:13:04.09Z</time></trkpt><trkpt lat="44.3958695" lon="11.3708555"><ele>245.0</ele><time>2026-04-15T13:13:05.094Z</time></trkpt><trkpt lat="44.3958555" lon="11.3705977"><ele>244.33333333333334</ele><time>2026-04-15T13:13:06.105Z</time></trkpt><trkpt lat="44.3958572" lon="11.3703251"><ele>243.66666666666669</ele><time>2026-04-15T13:13:07.089Z</time></trkpt><trkpt lat="44.3958786" lon="11.3700374"><ele>243.0</ele><time>2026-04-15T13:13:08.094Z</time></trkpt><trkpt lat="44.3958989" lon="11.369744"><ele>242.0</ele><time>2026-04-15T13:13:09.107Z</time></trkpt><trkpt lat="44.3959108" lon="11.3694425"><ele>241.0</ele><time>2026-04-15T13:13:10.111Z</time></trkpt><trkpt lat="44.3959189" lon="11.3691317"><ele>240.0</ele><time>2026-04-15T13:13:11.087Z</time></trkpt><trkpt lat="44.3959289" lon="11.3688181"><ele>239.66666666666669</ele><time>2026-04-15T13:13:12.082Z</time></trkpt><trkpt lat="44.3959425" lon="11.3685091"><ele>239.33333333333334</ele><time>2026-04-15T13:13:13.083Z</time></trkpt><trkpt lat="44.3959543" lon="11.3682218"><ele>239.0</ele><time>2026-04-15T13:13:14.09Z</time></trkpt><trkpt lat="44.3959677" lon="11.3679504"><ele>239.0</ele><time>2026-04-15T13:13:15.081Z</time></trkpt><trkpt lat="44.3959759" lon="11.3677004"><ele>239.0</ele><time>2026-04-15T13:13:16.095Z</time></trkpt><trkpt lat="44.3959586" lon="11.3674706"><ele>239.0</ele><time>2026-04-15T13:13:17.104Z</time></trkpt><trkpt lat="44.3959126" lon="11.3672462"><ele>238.66666666666669</ele><time>2026-04-15T13:13:18.081Z</time></trkpt><trkpt lat="44.3958325" lon="11.3670252"><ele>238.33333333333331</ele><time>2026-04-15T13:13:19.086Z</time></trkpt><trkpt lat="44.3957293" lon="11.3668094"><ele>238.0</ele><time>2026-04-15T13:13:20.099Z</time></trkpt><trkpt lat="44.3953707" lon="11.3661473"><ele>238.66666666666666</ele><time>2026-04-15T13:13:23.109Z</time></trkpt><trkpt lat="44.3952552" lon="11.3659123"><ele>239.33333333333331</ele><time>2026-04-15T13:13:24.089Z</time></trkpt><trkpt lat="44.3951373" lon="11.3656872"><ele>240.0</ele><time>2026-04-15T13:13:25.112Z</time></trkpt><trkpt lat="44.3948816" lon="11.3652203"><ele>245.0</ele><time>2026-04-15T13:13:27.095Z</time></trkpt><trkpt lat="44.3945209" lon="11.364538"><ele>245.0</ele><time>2026-04-15T13:13:30.123Z</time></trkpt><trkpt lat="44.3943357" lon="11.3641184"><ele>245.0</ele><time>2026-04-15T13:13:32.099Z</time></trkpt><trkpt lat="44.3942774" lon="11.3639086"><ele>245.66666666666669</ele><time>2026-04-15T13:13:33.103Z</time></trkpt><trkpt lat="44.3942518" lon="11.3636589"><ele>246.33333333333331</ele><time>2026-04-15T13:13:34.093Z</time></trkpt><trkpt lat="44.3942452" lon="11.3634038"><ele>247.0</ele><time>2026-04-15T13:13:35.079Z</time></trkpt><trkpt lat="44.3942575" lon="11.363139"><ele>247.33333333333331</ele><time>2026-04-15T13:13:36.09Z</time></trkpt><trkpt lat="44.3942702" lon="11.3628589"><ele>247.66666666666669</ele><time>2026-04-15T13:13:37.104Z</time></trkpt><trkpt lat="44.3942826" lon="11.3625671"><ele>248.0</ele><time>2026-04-15T13:13:38.085Z</time></trkpt><trkpt lat="44.394296" lon="11.362266"><ele>251.0</ele><time>2026-04-15T13:13:39.086Z</time></trkpt><trkpt lat="44.3943459" lon="11.3616737"><ele>254.0</ele><time>2026-04-15T13:13:41.087Z</time></trkpt><trkpt lat="44.3943526" lon="11.3613868"><ele>255.33333333333334</ele><time>2026-04-15T13:13:42.092Z</time></trkpt><trkpt lat="44.3943587" lon="11.3611025"><ele>256.6666666666667</ele><time>2026-04-15T13:13:43.11Z</time></trkpt><trkpt lat="44.3943593" lon="11.3608187"><ele>258.0</ele><time>2026-04-15T13:13:44.119Z</time></trkpt><trkpt lat="44.3943401" lon="11.3605255"><ele>258.6666666666667</ele><time>2026-04-15T13:13:45.091Z</time></trkpt><trkpt lat="44.3942935" lon="11.3602219"><ele>259.33333333333337</ele><time>2026-04-15T13:13:46.098Z</time></trkpt><trkpt lat="44.3942433" lon="11.359929"><ele>260.0</ele><time>2026-04-15T13:13:47.079Z</time></trkpt><trkpt lat="44.394212" lon="11.359645"><ele>260.6666666666667</ele><time>2026-04-15T13:13:48.099Z</time></trkpt><trkpt lat="44.3942156" lon="11.3593692"><ele>261.3333333333333</ele><time>2026-04-15T13:13:49.094Z</time></trkpt><trkpt lat="44.3942381" lon="11.3590965"><ele>262.0</ele><time>2026-04-15T13:13:50.105Z</time></trkpt><trkpt lat="44.3942653" lon="11.3588322"><ele>263.5</ele><time>2026-04-15T13:13:51.084Z</time></trkpt><trkpt lat="44.3943065" lon="11.3585661"><ele>265.0</ele><time>2026-04-15T13:13:52.091Z</time></trkpt><trkpt lat="44.3944243" lon="11.3580227"><ele>267.0</ele><time>2026-04-15T13:13:54.083Z</time></trkpt><trkpt lat="44.3945072" lon="11.3577486"><ele>269.0</ele><time>2026-04-15T13:13:55.1Z</time></trkpt><trkpt lat="44.3945894" lon="11.3574866"><ele>271.0</ele><time>2026-04-15T13:13:56.078Z</time></trkpt><trkpt lat="44.3946732" lon="11.357242"><ele>270.0</ele><time>2026-04-15T13:13:57.087Z</time></trkpt><trkpt lat="44.3947626" lon="11.3570233"><ele>269.0</ele><time>2026-04-15T13:13:58.118Z</time></trkpt><trkpt lat="44.3950105" lon="11.3566476"><ele>269.0</ele><time>2026-04-15T13:14:00.096Z</time></trkpt><trkpt lat="44.3951613" lon="11.3564815"><ele>269.0</ele><time>2026-04-15T13:14:01.084Z</time></trkpt><trkpt lat="44.3953157" lon="11.3563274"><ele>269.0</ele><time>2026-04-15T13:14:02.081Z</time></trkpt><trkpt lat="44.3954709" lon="11.3561921"><ele>268.33333333333337</ele><time>2026-04-15T13:14:03.08Z</time></trkpt><trkpt lat="44.3956361" lon="11.3560708"><ele>267.6666666666667</ele><time>2026-04-15T13:14:04.082Z</time></trkpt><trkpt lat="44.3957982" lon="11.3559605"><ele>267.0</ele><time>2026-04-15T13:14:05.086Z</time></trkpt><trkpt lat="44.3959462" lon="11.3558708"><ele>267.0</ele><time>2026-04-15T13:14:06.075Z</time></trkpt><trkpt lat="44.3960762" lon="11.3558008"><ele>267.0</ele><time>2026-04-15T13:14:07.092Z</time></trkpt><trkpt lat="44.3961899" lon="11.3557273"><ele>267.0</ele><time>2026-04-15T13:14:08.074Z</time></trkpt><trkpt lat="44.3962727" lon="11.3556427"><ele>267.0</ele><time>2026-04-15T13:14:09.079Z</time></trkpt><trkpt lat="44.3963201" lon="11.3555514"><ele>267.0</ele><time>2026-04-15T13:14:10.077Z</time></trkpt><trkpt lat="44.3963386" lon="11.355456"><ele>266.25</ele><time>2026-04-15T13:14:11.092Z</time></trkpt><trkpt lat="44.3962739" lon="11.3553117"><ele>265.5</ele><time>2026-04-15T13:14:13.078Z</time></trkpt><trkpt lat="44.3961876" lon="11.3552518"><ele>264.75</ele><time>2026-04-15T13:14:14.076Z</time></trkpt><trkpt lat="44.39607" lon="11.3552084"><ele>264.0</ele><time>2026-04-15T13:14:15.085Z</time></trkpt><trkpt lat="44.3959436" lon="11.3551663"><ele>264.0</ele><time>2026-04-15T13:14:16.087Z</time></trkpt><trkpt lat="44.3956646" lon="11.3549854"><ele>264.0</ele><time>2026-04-15T13:14:18.067Z</time></trkpt><trkpt lat="44.3955214" lon="11.3548467"><ele>265.6666666666667</ele><time>2026-04-15T13:14:19.083Z</time></trkpt><trkpt lat="44.3953674" lon="11.354708"><ele>267.33333333333337</ele><time>2026-04-15T13:14:20.073Z</time></trkpt><trkpt lat="44.3952158" lon="11.3545683"><ele>269.0</ele><time>2026-04-15T13:14:21.08Z</time></trkpt><trkpt lat="44.3950717" lon="11.3544276"><ele>262.33333333333337</ele><time>2026-04-15T13:14:22.078Z</time></trkpt><trkpt lat="44.3949404" lon="11.3542942"><ele>255.66666666666669</ele><time>2026-04-15T13:14:23.074Z</time></trkpt><trkpt lat="44.3948205" lon="11.3541564"><ele>249.0</ele><time>2026-04-15T13:14:24.076Z</time></trkpt><trkpt lat="44.3947273" lon="11.3539973"><ele>247.0</ele><time>2026-04-15T13:14:25.109Z</time></trkpt><trkpt lat="44.3946706" lon="11.3538359"><ele>244.99999999999997</ele><time>2026-04-15T13:14:26.087Z</time></trkpt><trkpt lat="44.3946147" lon="11.3537128"><ele>242.99999999999997</ele><time>2026-04-15T13:14:27.08Z</time></trkpt><trkpt lat="44.3945436" lon="11.3536306"><ele>241.0</ele><time>2026-04-15T13:14:28.074Z</time></trkpt><trkpt lat="44.3944428" lon="11.3535828"><ele>239.0</ele><time>2026-04-15T13:14:29.071Z</time></trkpt><trkpt lat="44.3943282" lon="11.3535798"><ele>239.0</ele><time>2026-04-15T13:14:30.073Z</time></trkpt><trkpt lat="44.3942215" lon="11.353605"><ele>239.0</ele><time>2026-04-15T13:14:31.088Z</time></trkpt><trkpt lat="44.3941041" lon="11.3536419"><ele>239.0</ele><time>2026-04-15T13:14:32.079Z</time></trkpt><trkpt lat="44.393982" lon="11.3536321"><ele>239.0</ele><time>2026-04-15T13:14:33.071Z</time></trkpt><trkpt lat="44.3938734" lon="11.353548"><ele>239.25</ele><time>2026-04-15T13:14:34.073Z</time></trkpt><trkpt lat="44.3937603" lon="11.3534265"><ele>239.5</ele><time>2026-04-15T13:14:35.105Z</time></trkpt><trkpt lat="44.3936478" lon="11.3533085"><ele>239.75</ele><time>2026-04-15T13:14:36.09Z</time></trkpt><trkpt lat="44.393547" lon="11.3532031"><ele>240.0</ele><time>2026-04-15T13:14:37.069Z</time></trkpt><trkpt lat="44.3934515" lon="11.3531269"><ele>240.0</ele><time>2026-04-15T13:14:38.085Z</time></trkpt><trkpt lat="44.3933511" lon="11.3531055"><ele>240.0</ele><time>2026-04-15T13:14:39.086Z</time></trkpt><trkpt lat="44.3932509" lon="11.3531457"><ele>240.0</ele><time>2026-04-15T13:14:40.079Z</time></trkpt><trkpt lat="44.3931345" lon="11.353207"><ele>240.0</ele><time>2026-04-15T13:14:41.07Z</time></trkpt><trkpt lat="44.3930063" lon="11.3532475"><ele>239.33333333333331</ele><time>2026-04-15T13:14:42.088Z</time></trkpt><trkpt lat="44.3928636" lon="11.3532294"><ele>238.66666666666666</ele><time>2026-04-15T13:14:43.087Z</time></trkpt><trkpt lat="44.3927301" lon="11.3532061"><ele>238.0</ele><time>2026-04-15T13:14:44.077Z</time></trkpt><trkpt lat="44.3924704" lon="11.353084"><ele>235.25</ele><time>2026-04-15T13:14:46.076Z</time></trkpt><trkpt lat="44.392344" lon="11.353008"><ele>232.5</ele><time>2026-04-15T13:14:47.083Z</time></trkpt><trkpt lat="44.3922254" lon="11.3529099"><ele>229.75</ele><time>2026-04-15T13:14:48.078Z</time></trkpt><trkpt lat="44.3921039" lon="11.3527875"><ele>227.0</ele><time>2026-04-15T13:14:49.076Z</time></trkpt><trkpt lat="44.3919861" lon="11.3526329"><ele>227.0</ele><time>2026-04-15T13:14:50.102Z</time></trkpt><trkpt lat="44.3918628" lon="11.3524554"><ele>227.0</ele><time>2026-04-15T13:14:51.066Z</time></trkpt><trkpt lat="44.3917363" lon="11.3522861"><ele>227.0</ele><time>2026-04-15T13:14:52.089Z</time></trkpt><trkpt lat="44.3916198" lon="11.3521224"><ele>224.5</ele><time>2026-04-15T13:14:53.084Z</time></trkpt><trkpt lat="44.3915108" lon="11.3519822"><ele>222.0</ele><time>2026-04-15T13:14:54.087Z</time></trkpt><trkpt lat="44.3914064" lon="11.3518544"><ele>219.5</ele><time>2026-04-15T13:14:55.075Z</time></trkpt><trkpt lat="44.3912916" lon="11.3517494"><ele>217.0</ele><time>2026-04-15T13:14:56.085Z</time></trkpt><trkpt lat="44.3911658" lon="11.3516934"><ele>217.0</ele><time>2026-04-15T13:14:57.072Z</time></trkpt><trkpt lat="44.3910386" lon="11.3516959"><ele>217.0</ele><time>2026-04-15T13:14:58.077Z</time></trkpt><trkpt lat="44.3908928" lon="11.3516928"><ele>217.0</ele><time>2026-04-15T13:14:59.078Z</time></trkpt><trkpt lat="44.3907468" lon="11.351653"><ele>217.0</ele><time>2026-04-15T13:15:00.089Z</time></trkpt><trkpt lat="44.3906011" lon="11.3515888"><ele>214.33333333333331</ele><time>2026-04-15T13:15:01.071Z</time></trkpt><trkpt lat="44.390345" lon="11.3513899"><ele>211.66666666666669</ele><time>2026-04-15T13:15:03.083Z</time></trkpt><trkpt lat="44.3902238" lon="11.3512544"><ele>209.0</ele><time>2026-04-15T13:15:04.073Z</time></trkpt><trkpt lat="44.3901118" lon="11.3511266"><ele>209.0</ele><time>2026-04-15T13:15:05.083Z</time></trkpt><trkpt lat="44.3899896" lon="11.3510226"><ele>209.0</ele><time>2026-04-15T13:15:06.077Z</time></trkpt><trkpt lat="44.3898553" lon="11.3509789"><ele>209.0</ele><time>2026-04-15T13:15:07.071Z</time></trkpt><trkpt lat="44.3897185" lon="11.3509553"><ele>209.0</ele><time>2026-04-15T13:15:08.085Z</time></trkpt><trkpt lat="44.3895798" lon="11.3509107"><ele>210.0</ele><time>2026-04-15T13:15:09.078Z</time></trkpt><trkpt lat="44.3894414" lon="11.3508407"><ele>211.0</ele><time>2026-04-15T13:15:10.069Z</time></trkpt><trkpt lat="44.3893116" lon="11.3507399"><ele>212.0</ele><time>2026-04-15T13:15:11.069Z</time></trkpt><trkpt lat="44.3891709" lon="11.3506351"><ele>212.0</ele><time>2026-04-15T13:15:12.082Z</time></trkpt><trkpt lat="44.3890238" lon="11.3505605"><ele>212.0</ele><time>2026-04-15T13:15:13.067Z</time></trkpt><trkpt lat="44.3888676" lon="11.3505243"><ele>212.0</ele><time>2026-04-15T13:15:14.083Z</time></trkpt><trkpt lat="44.3887138" lon="11.350511"><ele>207.66666666666669</ele><time>2026-04-15T13:15:15.084Z</time></trkpt><trkpt lat="44.3885458" lon="11.3504792"><ele>203.33333333333331</ele><time>2026-04-15T13:15:16.073Z</time></trkpt><trkpt lat="44.3883846" lon="11.3504139"><ele>199.0</ele><time>2026-04-15T13:15:17.073Z</time></trkpt><trkpt lat="44.3882287" lon="11.3503082"><ele>199.0</ele><time>2026-04-15T13:15:18.077Z</time></trkpt><trkpt lat="44.3880847" lon="11.3501901"><ele>199.0</ele><time>2026-04-15T13:15:19.069Z</time></trkpt><trkpt lat="44.387951" lon="11.3500767"><ele>199.0</ele><time>2026-04-15T13:15:20.074Z</time></trkpt><trkpt lat="44.38783" lon="11.3499746"><ele>199.25</ele><time>2026-04-15T13:15:21.082Z</time></trkpt><trkpt lat="44.3876243" lon="11.3498062"><ele>199.5</ele><time>2026-04-15T13:15:23.076Z</time></trkpt><trkpt lat="44.3875468" lon="11.3497366"><ele>199.75</ele><time>2026-04-15T13:15:24.067Z</time></trkpt><trkpt lat="44.3874873" lon="11.3496646"><ele>200.0</ele><time>2026-04-15T13:15:25.073Z</time></trkpt><trkpt lat="44.3874173" lon="11.3495679"><ele>200.0</ele><time>2026-04-15T13:15:27.083Z</time></trkpt><trkpt lat="44.3873568" lon="11.3495314"><ele>200.0</ele><time>2026-04-15T13:15:29.077Z</time></trkpt><trkpt lat="44.3872308" lon="11.3494847"><ele>200.0</ele><time>2026-04-15T13:15:31.071Z</time></trkpt><trkpt lat="44.3871237" lon="11.3494431"><ele>200.0</ele><time>2026-04-15T13:15:32.063Z</time></trkpt><trkpt lat="44.3869805" lon="11.3493851"><ele>201.33333333333334</ele><time>2026-04-15T13:15:33.077Z</time></trkpt><trkpt lat="44.3868333" lon="11.3493111"><ele>202.66666666666669</ele><time>2026-04-15T13:15:34.072Z</time></trkpt><trkpt lat="44.3866658" lon="11.3492163"><ele>204.0</ele><time>2026-04-15T13:15:35.087Z</time></trkpt><trkpt lat="44.3864937" lon="11.3491537"><ele>206.33333333333331</ele><time>2026-04-15T13:15:36.086Z</time></trkpt><trkpt lat="44.3863272" lon="11.349062"><ele>208.66666666666666</ele><time>2026-04-15T13:15:37.07Z</time></trkpt><trkpt lat="44.3861674" lon="11.3489744"><ele>211.0</ele><time>2026-04-15T13:15:38.086Z</time></trkpt><trkpt lat="44.386008" lon="11.3488935"><ele>208.66666666666666</ele><time>2026-04-15T13:15:39.071Z</time></trkpt><trkpt lat="44.3858489" lon="11.3487959"><ele>206.33333333333331</ele><time>2026-04-15T13:15:40.064Z</time></trkpt><trkpt lat="44.3856923" lon="11.3486776"><ele>204.0</ele><time>2026-04-15T13:15:41.069Z</time></trkpt><trkpt lat="44.3855354" lon="11.3485381"><ele>206.0</ele><time>2026-04-15T13:15:42.092Z</time></trkpt><trkpt lat="44.3853783" lon="11.3483987"><ele>208.0</ele><time>2026-04-15T13:15:43.06Z</time></trkpt><trkpt lat="44.3852202" lon="11.3482621"><ele>210.0</ele><time>2026-04-15T13:15:44.062Z</time></trkpt><trkpt lat="44.3850597" lon="11.3481293"><ele>210.0</ele><time>2026-04-15T13:15:45.067Z</time></trkpt><trkpt lat="44.384901" lon="11.3479932"><ele>210.0</ele><time>2026-04-15T13:15:46.067Z</time></trkpt><trkpt lat="44.3847414" lon="11.3478557"><ele>210.0</ele><time>2026-04-15T13:15:47.074Z</time></trkpt><trkpt lat="44.3845857" lon="11.3477248"><ele>210.0</ele><time>2026-04-15T13:15:48.067Z</time></trkpt><trkpt lat="44.3844358" lon="11.3475897"><ele>210.0</ele><time>2026-04-15T13:15:49.058Z</time></trkpt><trkpt lat="44.3842823" lon="11.347464"><ele>210.0</ele><time>2026-04-15T13:15:50.068Z</time></trkpt><trkpt lat="44.384129" lon="11.3473513"><ele>210.0</ele><time>2026-04-15T13:15:51.069Z</time></trkpt><trkpt lat="44.3839797" lon="11.3472443"><ele>210.0</ele><time>2026-04-15T13:15:52.084Z</time></trkpt><trkpt lat="44.3838347" lon="11.3471437"><ele>210.0</ele><time>2026-04-15T13:15:53.065Z</time></trkpt><trkpt lat="44.3836827" lon="11.3470494"><ele>208.66666666666669</ele><time>2026-04-15T13:15:54.063Z</time></trkpt><trkpt lat="44.3835267" lon="11.3469658"><ele>207.33333333333334</ele><time>2026-04-15T13:15:55.069Z</time></trkpt><trkpt lat="44.3833676" lon="11.3468686"><ele>206.0</ele><time>2026-04-15T13:15:56.067Z</time></trkpt><trkpt lat="44.3832032" lon="11.3467745"><ele>206.0</ele><time>2026-04-15T13:15:57.066Z</time></trkpt><trkpt lat="44.3830247" lon="11.3466935"><ele>206.0</ele><time>2026-04-15T13:15:58.059Z</time></trkpt><trkpt lat="44.3828516" lon="11.3466196"><ele>206.0</ele><time>2026-04-15T13:15:59.064Z</time></trkpt><trkpt lat="44.382694" lon="11.3465623"><ele>206.0</ele><time>2026-04-15T13:16:00.077Z</time></trkpt><trkpt lat="44.3825489" lon="11.346496"><ele>206.0</ele><time>2026-04-15T13:16:01.069Z</time></trkpt><trkpt lat="44.382413" lon="11.3464455"><ele>206.0</ele><time>2026-04-15T13:16:02.084Z</time></trkpt><trkpt lat="44.3823023" lon="11.3464113"><ele>206.0</ele><time>2026-04-15T13:16:03.062Z</time></trkpt><trkpt lat="44.3822092" lon="11.3463699"><ele>206.00000000000003</ele><time>2026-04-15T13:16:04.062Z</time></trkpt><trkpt lat="44.3821275" lon="11.346331"><ele>206.0</ele><time>2026-04-15T13:16:05.065Z</time></trkpt><trkpt lat="44.3820669" lon="11.3462591"><ele>206.0</ele><time>2026-04-15T13:16:06.079Z</time></trkpt><trkpt lat="44.3820167" lon="11.3461693"><ele>206.0</ele><time>2026-04-15T13:16:07.068Z</time></trkpt><trkpt lat="44.3819649" lon="11.3460812"><ele>206.00000000000003</ele><time>2026-04-15T13:16:08.061Z</time></trkpt><trkpt lat="44.3818964" lon="11.3460373"><ele>206.0</ele><time>2026-04-15T13:16:09.062Z</time></trkpt><trkpt lat="44.3818209" lon="11.346043"><ele>206.0</ele><time>2026-04-15T13:16:10.072Z</time></trkpt><trkpt lat="44.3817397" lon="11.3460612"><ele>206.0</ele><time>2026-04-15T13:16:11.064Z</time></trkpt><trkpt lat="44.3816497" lon="11.3460515"><ele>206.0</ele><time>2026-04-15T13:16:12.083Z</time></trkpt><trkpt lat="44.3815427" lon="11.3460144"><ele>206.0</ele><time>2026-04-15T13:16:13.056Z</time></trkpt><trkpt lat="44.3814137" lon="11.3459672"><ele>206.0</ele><time>2026-04-15T13:16:14.071Z</time></trkpt><trkpt lat="44.3812747" lon="11.3459189"><ele>205.0</ele><time>2026-04-15T13:16:15.074Z</time></trkpt><trkpt lat="44.3811306" lon="11.3458692"><ele>204.0</ele><time>2026-04-15T13:16:16.084Z</time></trkpt><trkpt lat="44.3809989" lon="11.3458181"><ele>203.0</ele><time>2026-04-15T13:16:17.072Z</time></trkpt><trkpt lat="44.3808738" lon="11.3457762"><ele>202.0</ele><time>2026-04-15T13:16:18.064Z</time></trkpt><trkpt lat="44.3807563" lon="11.3457689"><ele>202.0</ele><time>2026-04-15T13:16:19.064Z</time></trkpt><trkpt lat="44.3806351" lon="11.3457956"><ele>202.0</ele><time>2026-04-15T13:16:20.062Z</time></trkpt><trkpt lat="44.380524" lon="11.3458507"><ele>202.0</ele><time>2026-04-15T13:16:21.072Z</time></trkpt><trkpt lat="44.380433" lon="11.3458913"><ele>202.0</ele><time>2026-04-15T13:16:22.078Z</time></trkpt><trkpt lat="44.3803544" lon="11.3459208"><ele>202.0</ele><time>2026-04-15T13:16:23.082Z</time></trkpt><trkpt lat="44.3802821" lon="11.3459111"><ele>200.39999999999998</ele><time>2026-04-15T13:16:24.067Z</time></trkpt><trkpt lat="44.3802236" lon="11.3458457"><ele>198.79999999999998</ele><time>2026-04-15T13:16:25.079Z</time></trkpt><trkpt lat="44.3802004" lon="11.3457373"><ele>197.2</ele><time>2026-04-15T13:16:26.062Z</time></trkpt><trkpt lat="44.3802067" lon="11.3456016"><ele>195.6</ele><time>2026-04-15T13:16:27.059Z</time></trkpt><trkpt lat="44.380255" lon="11.3454622"><ele>194.0</ele><time>2026-04-15T13:16:28.062Z</time></trkpt><trkpt lat="44.3803414" lon="11.3453353"><ele>193.75</ele><time>2026-04-15T13:16:29.071Z</time></trkpt><trkpt lat="44.3804466" lon="11.3452061"><ele>193.5</ele><time>2026-04-15T13:16:30.074Z</time></trkpt><trkpt lat="44.3805484" lon="11.3450505"><ele>193.25</ele><time>2026-04-15T13:16:31.065Z</time></trkpt><trkpt lat="44.3806442" lon="11.3448849"><ele>193.0</ele><time>2026-04-15T13:16:32.072Z</time></trkpt><trkpt lat="44.3807367" lon="11.3447195"><ele>191.25</ele><time>2026-04-15T13:16:33.055Z</time></trkpt><trkpt lat="44.3808187" lon="11.3445583"><ele>189.5</ele><time>2026-04-15T13:16:34.059Z</time></trkpt><trkpt lat="44.380867" lon="11.3443729"><ele>187.75</ele><time>2026-04-15T13:16:35.065Z</time></trkpt><trkpt lat="44.3808915" lon="11.344175"><ele>186.0</ele><time>2026-04-15T13:16:36.059Z</time></trkpt><trkpt lat="44.3809112" lon="11.3439776"><ele>184.0</ele><time>2026-04-15T13:16:37.062Z</time></trkpt><trkpt lat="44.3809278" lon="11.3437865"><ele>182.0</ele><time>2026-04-15T13:16:38.062Z</time></trkpt><trkpt lat="44.3809315" lon="11.3436003"><ele>180.0</ele><time>2026-04-15T13:16:39.066Z</time></trkpt><trkpt lat="44.3809199" lon="11.3434256"><ele>178.0</ele><time>2026-04-15T13:16:40.069Z</time></trkpt><trkpt lat="44.3809074" lon="11.3432844"><ele>178.0</ele><time>2026-04-15T13:16:41.078Z</time></trkpt><trkpt lat="44.3808861" lon="11.3431557"><ele>178.0</ele><time>2026-04-15T13:16:42.068Z</time></trkpt><trkpt lat="44.3808618" lon="11.3430345"><ele>178.0</ele><time>2026-04-15T13:16:43.08Z</time></trkpt><trkpt lat="44.3808403" lon="11.3429267"><ele>178.0</ele><time>2026-04-15T13:16:44.069Z</time></trkpt><trkpt lat="44.3808224" lon="11.3428353"><ele>178.0</ele><time>2026-04-15T13:16:45.084Z</time></trkpt><trkpt lat="44.3808116" lon="11.3426925"><ele>178.0</ele><time>2026-04-15T13:16:47.066Z</time></trkpt><trkpt lat="44.3808035" lon="11.3426044"><ele>177.16666666666669</ele><time>2026-04-15T13:16:49.075Z</time></trkpt><trkpt lat="44.3807616" lon="11.3425286"><ele>176.33333333333334</ele><time>2026-04-15T13:16:52.056Z</time></trkpt><trkpt lat="44.3806793" lon="11.3424774"><ele>175.5</ele><time>2026-04-15T13:16:59.077Z</time></trkpt><trkpt lat="44.3806011" lon="11.3424717"><ele>174.66666666666666</ele><time>2026-04-15T13:17:00.057Z</time></trkpt><trkpt lat="44.3805102" lon="11.342478"><ele>173.83333333333331</ele><time>2026-04-15T13:17:01.052Z</time></trkpt><trkpt lat="44.3804092" lon="11.3424901"><ele>173.0</ele><time>2026-04-15T13:17:02.053Z</time></trkpt><trkpt lat="44.380292" lon="11.3424944"><ele>172.0</ele><time>2026-04-15T13:17:03.068Z</time></trkpt><trkpt lat="44.3801676" lon="11.3424961"><ele>171.0</ele><time>2026-04-15T13:17:04.064Z</time></trkpt><trkpt lat="44.380039" lon="11.3424923"><ele>170.0</ele><time>2026-04-15T13:17:05.062Z</time></trkpt><trkpt lat="44.3799221" lon="11.3424846"><ele>169.0</ele><time>2026-04-15T13:17:06.065Z</time></trkpt><trkpt lat="44.3798158" lon="11.3424807"><ele>169.0</ele><time>2026-04-15T13:17:07.065Z</time></trkpt><trkpt lat="44.3797064" lon="11.3424687"><ele>169.0</ele><time>2026-04-15T13:17:08.057Z</time></trkpt><trkpt lat="44.379571" lon="11.3424407"><ele>169.0</ele><time>2026-04-15T13:17:09.049Z</time></trkpt><trkpt lat="44.3794238" lon="11.3424071"><ele>169.0</ele><time>2026-04-15T13:17:10.073Z</time></trkpt><trkpt lat="44.3792723" lon="11.3423759"><ele>168.66666666666669</ele><time>2026-04-15T13:17:11.066Z</time></trkpt><trkpt lat="44.3791159" lon="11.3423372"><ele>168.33333333333334</ele><time>2026-04-15T13:17:12.06Z</time></trkpt><trkpt lat="44.3789568" lon="11.3422961"><ele>168.0</ele><time>2026-04-15T13:17:13.077Z</time></trkpt><trkpt lat="44.3787958" lon="11.3422539"><ele>167.25</ele><time>2026-04-15T13:17:14.059Z</time></trkpt><trkpt lat="44.3786395" lon="11.3422136"><ele>166.5</ele><time>2026-04-15T13:17:15.049Z</time></trkpt><trkpt lat="44.3784935" lon="11.342179"><ele>165.75</ele><time>2026-04-15T13:17:16.083Z</time></trkpt><trkpt lat="44.3783761" lon="11.3421481"><ele>165.0</ele><time>2026-04-15T13:17:17.052Z</time></trkpt><trkpt lat="44.3782655" lon="11.3421365"><ele>165.0</ele><time>2026-04-15T13:17:18.065Z</time></trkpt><trkpt lat="44.3781631" lon="11.3421262"><ele>165.0</ele><time>2026-04-15T13:17:19.051Z</time></trkpt><trkpt lat="44.3780668" lon="11.3421063"><ele>165.0</ele><time>2026-04-15T13:17:20.055Z</time></trkpt><trkpt lat="44.3779754" lon="11.3420729"><ele>165.0</ele><time>2026-04-15T13:17:21.052Z</time></trkpt><trkpt lat="44.3778862" lon="11.3420499"><ele>165.0</ele><time>2026-04-15T13:17:22.062Z</time></trkpt><trkpt lat="44.377815" lon="11.342032"><ele>166.0</ele><time>2026-04-15T13:17:23.06Z</time></trkpt><trkpt lat="44.3777049" lon="11.3419949"><ele>167.0</ele><time>2026-04-15T13:17:25.051Z</time></trkpt><trkpt lat="44.3776185" lon="11.3419538"><ele>168.0</ele><time>2026-04-15T13:17:26.053Z</time></trkpt><trkpt lat="44.3775134" lon="11.341893"><ele>169.0</ele><time>2026-04-15T13:17:27.06Z</time></trkpt><trkpt lat="44.3774015" lon="11.3417947"><ele>169.0</ele><time>2026-04-15T13:17:28.054Z</time></trkpt><trkpt lat="44.3772808" lon="11.3416695"><ele>169.0</ele><time>2026-04-15T13:17:29.06Z</time></trkpt><trkpt lat="44.377159" lon="11.341544"><ele>169.0</ele><time>2026-04-15T13:17:30.059Z</time></trkpt><trkpt lat="44.3770267" lon="11.3414176"><ele>171.66666666666669</ele><time>2026-04-15T13:17:31.077Z</time></trkpt><trkpt lat="44.3768891" lon="11.3413017"><ele>174.33333333333334</ele><time>2026-04-15T13:17:32.057Z</time></trkpt><trkpt lat="44.3767626" lon="11.3411612"><ele>177.0</ele><time>2026-04-15T13:17:33.052Z</time></trkpt><trkpt lat="44.3766564" lon="11.3409989"><ele>177.0</ele><time>2026-04-15T13:17:34.062Z</time></trkpt><trkpt lat="44.376572" lon="11.3407951"><ele>177.0</ele><time>2026-04-15T13:17:35.054Z</time></trkpt><trkpt lat="44.3765166" lon="11.3405779"><ele>177.0</ele><time>2026-04-15T13:17:36.058Z</time></trkpt><trkpt lat="44.376494" lon="11.3403773"><ele>177.6</ele><time>2026-04-15T13:17:37.068Z</time></trkpt><trkpt lat="44.3764722" lon="11.3401915"><ele>178.2</ele><time>2026-04-15T13:17:38.081Z</time></trkpt><trkpt lat="44.3764496" lon="11.3400485"><ele>178.8</ele><time>2026-04-15T13:17:39.066Z</time></trkpt><trkpt lat="44.3764045" lon="11.3399389"><ele>179.4</ele><time>2026-04-15T13:17:40.073Z</time></trkpt><trkpt lat="44.3763296" lon="11.3398748"><ele>180.0</ele><time>2026-04-15T13:17:41.054Z</time></trkpt><trkpt lat="44.3762271" lon="11.3398713"><ele>180.0</ele><time>2026-04-15T13:17:42.054Z</time></trkpt><trkpt lat="44.3761011" lon="11.3399039"><ele>180.0</ele><time>2026-04-15T13:17:43.049Z</time></trkpt><trkpt lat="44.3759602" lon="11.3399543"><ele>180.0</ele><time>2026-04-15T13:17:44.049Z</time></trkpt><trkpt lat="44.375808" lon="11.3400206"><ele>180.0</ele><time>2026-04-15T13:17:45.051Z</time></trkpt><trkpt lat="44.3756373" lon="11.3400945"><ele>179.66666666666666</ele><time>2026-04-15T13:17:46.047Z</time></trkpt><trkpt lat="44.375457" lon="11.3401707"><ele>179.33333333333331</ele><time>2026-04-15T13:17:47.066Z</time></trkpt><trkpt lat="44.3752709" lon="11.3402472"><ele>179.0</ele><time>2026-04-15T13:17:48.081Z</time></trkpt><trkpt lat="44.375088" lon="11.3403289"><ele>179.0</ele><time>2026-04-15T13:17:49.051Z</time></trkpt><trkpt lat="44.3749104" lon="11.3404038"><ele>179.0</ele><time>2026-04-15T13:17:50.06Z</time></trkpt><trkpt lat="44.3747433" lon="11.3404648"><ele>179.0</ele><time>2026-04-15T13:17:51.058Z</time></trkpt><trkpt lat="44.3745868" lon="11.3405237"><ele>179.66666666666666</ele><time>2026-04-15T13:17:52.048Z</time></trkpt><trkpt lat="44.374426" lon="11.3405772"><ele>180.33333333333334</ele><time>2026-04-15T13:17:53.084Z</time></trkpt><trkpt lat="44.3742696" lon="11.340621"><ele>181.0</ele><time>2026-04-15T13:17:54.054Z</time></trkpt><trkpt lat="44.3741204" lon="11.3406644"><ele>181.0</ele><time>2026-04-15T13:17:55.048Z</time></trkpt><trkpt lat="44.3739679" lon="11.3407176"><ele>181.0</ele><time>2026-04-15T13:17:56.05Z</time></trkpt><trkpt lat="44.3738176" lon="11.3407825"><ele>181.0</ele><time>2026-04-15T13:17:57.049Z</time></trkpt><trkpt lat="44.3736727" lon="11.3408693"><ele>179.0</ele><time>2026-04-15T13:17:58.047Z</time></trkpt><trkpt lat="44.3734106" lon="11.3410925"><ele>177.0</ele><time>2026-04-15T13:18:00.058Z</time></trkpt><trkpt lat="44.3732944" lon="11.3412269"><ele>177.0</ele><time>2026-04-15T13:18:01.065Z</time></trkpt><trkpt lat="44.3731784" lon="11.3413395"><ele>177.0</ele><time>2026-04-15T13:18:02.057Z</time></trkpt><trkpt lat="44.373061" lon="11.3414168"><ele>177.0</ele><time>2026-04-15T13:18:03.049Z</time></trkpt><trkpt lat="44.3729458" lon="11.3414726"><ele>177.0</ele><time>2026-04-15T13:18:04.057Z</time></trkpt><trkpt lat="44.3728436" lon="11.3415335"><ele>177.0</ele><time>2026-04-15T13:18:05.057Z</time></trkpt><trkpt lat="44.3727503" lon="11.341614"><ele>177.0</ele><time>2026-04-15T13:18:06.05Z</time></trkpt><trkpt lat="44.3726735" lon="11.3417002"><ele>177.0</ele><time>2026-04-15T13:18:07.059Z</time></trkpt><trkpt lat="44.3726057" lon="11.3417828"><ele>177.0</ele><time>2026-04-15T13:18:08.047Z</time></trkpt><trkpt lat="44.3725458" lon="11.3418672"><ele>177.0</ele><time>2026-04-15T13:18:09.067Z</time></trkpt><trkpt lat="44.3724762" lon="11.3419294"><ele>177.0</ele><time>2026-04-15T13:18:10.082Z</time></trkpt><trkpt lat="44.3723984" lon="11.3419667"><ele>177.0</ele><time>2026-04-15T13:18:11.056Z</time></trkpt><trkpt lat="44.3723207" lon="11.341977"><ele>177.0</ele><time>2026-04-15T13:18:12.043Z</time></trkpt><trkpt lat="44.3722399" lon="11.3419709"><ele>177.0</ele><time>2026-04-15T13:18:13.062Z</time></trkpt><trkpt lat="44.372161" lon="11.341946"><ele>177.0</ele><time>2026-04-15T13:18:14.046Z</time></trkpt><trkpt lat="44.3720859" lon="11.341887"><ele>177.0</ele><time>2026-04-15T13:18:15.058Z</time></trkpt><trkpt lat="44.3720061" lon="11.3418279"><ele>176.66666666666666</ele><time>2026-04-15T13:18:16.05Z</time></trkpt><trkpt lat="44.3719337" lon="11.3417619"><ele>176.33333333333334</ele><time>2026-04-15T13:18:17.044Z</time></trkpt><trkpt lat="44.371866" lon="11.3416897"><ele>176.0</ele><time>2026-04-15T13:18:18.053Z</time></trkpt><trkpt lat="44.3717927" lon="11.3416202"><ele>175.66666666666669</ele><time>2026-04-15T13:18:19.046Z</time></trkpt><trkpt lat="44.3717137" lon="11.341551"><ele>175.33333333333334</ele><time>2026-04-15T13:18:20.07Z</time></trkpt><trkpt lat="44.3716345" lon="11.3414824"><ele>175.0</ele><time>2026-04-15T13:18:21.056Z</time></trkpt><trkpt lat="44.3715611" lon="11.3414081"><ele>175.0</ele><time>2026-04-15T13:18:22.042Z</time></trkpt><trkpt lat="44.3714888" lon="11.3413363"><ele>175.0</ele><time>2026-04-15T13:18:23.047Z</time></trkpt><trkpt lat="44.3714135" lon="11.3412609"><ele>175.0</ele><time>2026-04-15T13:18:24.049Z</time></trkpt><trkpt lat="44.3713378" lon="11.3411821"><ele>175.0</ele><time>2026-04-15T13:18:25.039Z</time></trkpt><trkpt lat="44.3712637" lon="11.3411149"><ele>175.0</ele><time>2026-04-15T13:18:26.047Z</time></trkpt><trkpt lat="44.3711834" lon="11.3410467"><ele>175.0</ele><time>2026-04-15T13:18:27.066Z</time></trkpt><trkpt lat="44.371098" lon="11.3409825"><ele>175.0</ele><time>2026-04-15T13:18:28.042Z</time></trkpt><trkpt lat="44.371008" lon="11.3409308"><ele>175.0</ele><time>2026-04-15T13:18:29.043Z</time></trkpt><trkpt lat="44.3709304" lon="11.340873"><ele>175.0</ele><time>2026-04-15T13:18:30.047Z</time></trkpt><trkpt lat="44.3708782" lon="11.3407636"><ele>175.0</ele><time>2026-04-15T13:18:32.047Z</time></trkpt><trkpt lat="44.3708995" lon="11.3406748"><ele>175.0</ele><time>2026-04-15T13:18:33.065Z</time></trkpt><trkpt lat="44.3709701" lon="11.3405051"><ele>174.5</ele><time>2026-04-15T13:18:35.047Z</time></trkpt><trkpt lat="44.3710103" lon="11.340408"><ele>174.0</ele><time>2026-04-15T13:18:36.054Z</time></trkpt><trkpt lat="44.3710334" lon="11.3403232"><ele>173.5</ele><time>2026-04-15T13:18:37.058Z</time></trkpt><trkpt lat="44.3710565" lon="11.340237"><ele>173.0</ele><time>2026-04-15T13:18:40.041Z</time></trkpt><trkpt lat="44.371038" lon="11.340122"><ele>172.5</ele><time>2026-04-15T13:18:53.049Z</time></trkpt><trkpt lat="44.3709756" lon="11.3400387"><ele>172.0</ele><time>2026-04-15T13:18:54.036Z</time></trkpt><trkpt lat="44.3709013" lon="11.3399206"><ele>172.0</ele><time>2026-04-15T13:18:55.047Z</time></trkpt><trkpt lat="44.3708171" lon="11.3397849"><ele>172.0</ele><time>2026-04-15T13:18:56.041Z</time></trkpt><trkpt lat="44.3707259" lon="11.3396224"><ele>172.0</ele><time>2026-04-15T13:18:57.063Z</time></trkpt><trkpt lat="44.3706339" lon="11.3394415"><ele>172.0</ele><time>2026-04-15T13:18:58.063Z</time></trkpt><trkpt lat="44.3705429" lon="11.3392555"><ele>173.0</ele><time>2026-04-15T13:18:59.044Z</time></trkpt><trkpt lat="44.3704431" lon="11.3390482"><ele>174.0</ele><time>2026-04-15T13:19:00.044Z</time></trkpt><trkpt lat="44.3703457" lon="11.3388581"><ele>175.0</ele><time>2026-04-15T13:19:01.045Z</time></trkpt><trkpt lat="44.3702538" lon="11.338677"><ele>175.75</ele><time>2026-04-15T13:19:02.047Z</time></trkpt><trkpt lat="44.3701735" lon="11.3385163"><ele>176.5</ele><time>2026-04-15T13:19:03.051Z</time></trkpt><trkpt lat="44.3700826" lon="11.3384102"><ele>177.25</ele><time>2026-04-15T13:19:04.041Z</time></trkpt><trkpt lat="44.3699828" lon="11.3383256"><ele>178.0</ele><time>2026-04-15T13:19:05.058Z</time></trkpt><trkpt lat="44.3698776" lon="11.3382724"><ele>178.0</ele><time>2026-04-15T13:19:06.034Z</time></trkpt><trkpt lat="44.3697657" lon="11.3382702"><ele>178.0</ele><time>2026-04-15T13:19:07.052Z</time></trkpt><trkpt lat="44.3696412" lon="11.3383065"><ele>178.0</ele><time>2026-04-15T13:19:08.068Z</time></trkpt><trkpt lat="44.3695324" lon="11.3383669"><ele>178.0</ele><time>2026-04-15T13:19:09.035Z</time></trkpt><trkpt lat="44.3694095" lon="11.3384639"><ele>177.66666666666669</ele><time>2026-04-15T13:19:10.051Z</time></trkpt><trkpt lat="44.3692845" lon="11.3385867"><ele>177.33333333333334</ele><time>2026-04-15T13:19:11.047Z</time></trkpt><trkpt lat="44.3691587" lon="11.3387269"><ele>177.0</ele><time>2026-04-15T13:19:12.041Z</time></trkpt><trkpt lat="44.3690251" lon="11.3388774"><ele>176.66666666666666</ele><time>2026-04-15T13:19:13.03Z</time></trkpt><trkpt lat="44.3688755" lon="11.3390328"><ele>176.33333333333331</ele><time>2026-04-15T13:19:14.035Z</time></trkpt><trkpt lat="44.3687166" lon="11.3392093"><ele>176.0</ele><time>2026-04-15T13:19:15.053Z</time></trkpt><trkpt lat="44.3685479" lon="11.3393948"><ele>176.0</ele><time>2026-04-15T13:19:16.036Z</time></trkpt><trkpt lat="44.3683825" lon="11.3395838"><ele>176.0</ele><time>2026-04-15T13:19:17.043Z</time></trkpt><trkpt lat="44.3682171" lon="11.339756"><ele>176.0</ele><time>2026-04-15T13:19:18.051Z</time></trkpt><trkpt lat="44.3680505" lon="11.3399001"><ele>177.66666666666666</ele><time>2026-04-15T13:19:19.045Z</time></trkpt><trkpt lat="44.3678783" lon="11.340019"><ele>179.33333333333334</ele><time>2026-04-15T13:19:20.031Z</time></trkpt><trkpt lat="44.3676931" lon="11.3401112"><ele>181.0</ele><time>2026-04-15T13:19:21.041Z</time></trkpt><trkpt lat="44.3675035" lon="11.3401946"><ele>181.0</ele><time>2026-04-15T13:19:22.038Z</time></trkpt><trkpt lat="44.3673119" lon="11.3402724"><ele>181.0</ele><time>2026-04-15T13:19:23.039Z</time></trkpt><trkpt lat="44.3671181" lon="11.340349"><ele>181.0</ele><time>2026-04-15T13:19:24.168Z</time></trkpt><trkpt lat="44.3669208" lon="11.3404304"><ele>180.5</ele><time>2026-04-15T13:19:25.146Z</time></trkpt><trkpt lat="44.3665046" lon="11.34052"><ele>180.0</ele><time>2026-04-15T13:19:27.052Z</time></trkpt><trkpt lat="44.366304" lon="11.3404883"><ele>178.66666666666666</ele><time>2026-04-15T13:19:28.039Z</time></trkpt><trkpt lat="44.3661083" lon="11.3404075"><ele>177.33333333333331</ele><time>2026-04-15T13:19:29.033Z</time></trkpt><trkpt lat="44.3659308" lon="11.3402972"><ele>176.0</ele><time>2026-04-15T13:19:30.158Z</time></trkpt><trkpt lat="44.3657688" lon="11.3401508"><ele>176.0</ele><time>2026-04-15T13:19:31.153Z</time></trkpt><trkpt lat="44.3656221" lon="11.3399647"><ele>176.0</ele><time>2026-04-15T13:19:32.138Z</time></trkpt><trkpt lat="44.3654209" lon="11.3395393"><ele>176.33333333333331</ele><time>2026-04-15T13:19:34.037Z</time></trkpt><trkpt lat="44.3653627" lon="11.3392953"><ele>176.66666666666666</ele><time>2026-04-15T13:19:35.056Z</time></trkpt><trkpt lat="44.3653176" lon="11.3390404"><ele>177.0</ele><time>2026-04-15T13:19:36.175Z</time></trkpt><trkpt lat="44.3652804" lon="11.3387673"><ele>177.0</ele><time>2026-04-15T13:19:37.14Z</time></trkpt><trkpt lat="44.3652476" lon="11.3384867"><ele>177.0</ele><time>2026-04-15T13:19:38.132Z</time></trkpt><trkpt lat="44.3652151" lon="11.3382238"><ele>177.0</ele><time>2026-04-15T13:19:39.139Z</time></trkpt><trkpt lat="44.3651145" lon="11.3378883"><ele>177.6</ele><time>2026-04-15T13:19:41.048Z</time></trkpt><trkpt lat="44.3650643" lon="11.3377915"><ele>178.2</ele><time>2026-04-15T13:19:42.135Z</time></trkpt><trkpt lat="44.3650114" lon="11.3377149"><ele>178.8</ele><time>2026-04-15T13:19:43.14Z</time></trkpt><trkpt lat="44.3649165" lon="11.3376409"><ele>179.4</ele><time>2026-04-15T13:19:44.139Z</time></trkpt><trkpt lat="44.3647555" lon="11.3375423"><ele>180.0</ele><time>2026-04-15T13:19:45.134Z</time></trkpt><trkpt lat="44.3645798" lon="11.3374127"><ele>180.0</ele><time>2026-04-15T13:19:46.138Z</time></trkpt><trkpt lat="44.3644053" lon="11.3372868"><ele>180.0</ele><time>2026-04-15T13:19:47.049Z</time></trkpt><trkpt lat="44.3640252" lon="11.3370229"><ele>185.0</ele><time>2026-04-15T13:19:49.139Z</time></trkpt><trkpt lat="44.3638279" lon="11.3368811"><ele>190.0</ele><time>2026-04-15T13:19:50.141Z</time></trkpt><trkpt lat="44.3636304" lon="11.3367361"><ele>195.0</ele><time>2026-04-15T13:19:51.144Z</time></trkpt><trkpt lat="44.3634284" lon="11.3366027"><ele>195.0</ele><time>2026-04-15T13:19:52.157Z</time></trkpt><trkpt lat="44.3632277" lon="11.3364638"><ele>195.0</ele><time>2026-04-15T13:19:53.145Z</time></trkpt><trkpt lat="44.3630328" lon="11.3363381"><ele>195.0</ele><time>2026-04-15T13:19:54.138Z</time></trkpt><trkpt lat="44.3628518" lon="11.3362163"><ele>193.66666666666666</ele><time>2026-04-15T13:19:55.161Z</time></trkpt><trkpt lat="44.3626778" lon="11.3360969"><ele>192.33333333333331</ele><time>2026-04-15T13:19:56.141Z</time></trkpt><trkpt lat="44.3624899" lon="11.3359717"><ele>191.0</ele><time>2026-04-15T13:19:57.14Z</time></trkpt><trkpt lat="44.3623149" lon="11.3358454"><ele>190.66666666666666</ele><time>2026-04-15T13:19:58.134Z</time></trkpt><trkpt lat="44.3621408" lon="11.3357089"><ele>190.33333333333334</ele><time>2026-04-15T13:19:59.13Z</time></trkpt><trkpt lat="44.3619741" lon="11.3355443"><ele>190.0</ele><time>2026-04-15T13:20:00.131Z</time></trkpt><trkpt lat="44.3618283" lon="11.3353642"><ele>190.0</ele><time>2026-04-15T13:20:01.143Z</time></trkpt><trkpt lat="44.3617018" lon="11.3351572"><ele>190.0</ele><time>2026-04-15T13:20:02.137Z</time></trkpt><trkpt lat="44.3616125" lon="11.3349479"><ele>190.0</ele><time>2026-04-15T13:20:03.14Z</time></trkpt><trkpt lat="44.361531" lon="11.3347257"><ele>189.33333333333334</ele><time>2026-04-15T13:20:04.137Z</time></trkpt><trkpt lat="44.3614758" lon="11.3344801"><ele>188.66666666666666</ele><time>2026-04-15T13:20:05.13Z</time></trkpt><trkpt lat="44.3614479" lon="11.3342139"><ele>188.0</ele><time>2026-04-15T13:20:06.128Z</time></trkpt><trkpt lat="44.3614277" lon="11.3339315"><ele>188.33333333333331</ele><time>2026-04-15T13:20:07.141Z</time></trkpt><trkpt lat="44.361404" lon="11.3336276"><ele>188.66666666666666</ele><time>2026-04-15T13:20:08.146Z</time></trkpt><trkpt lat="44.3613874" lon="11.3333331"><ele>189.0</ele><time>2026-04-15T13:20:09.137Z</time></trkpt><trkpt lat="44.3613665" lon="11.3330442"><ele>190.66666666666669</ele><time>2026-04-15T13:20:10.149Z</time></trkpt><trkpt lat="44.3613474" lon="11.3327584"><ele>192.33333333333334</ele><time>2026-04-15T13:20:11.138Z</time></trkpt><trkpt lat="44.3613289" lon="11.3324787"><ele>194.0</ele><time>2026-04-15T13:20:12.137Z</time></trkpt><trkpt lat="44.3613133" lon="11.3322141"><ele>194.33333333333334</ele><time>2026-04-15T13:20:13.145Z</time></trkpt><trkpt lat="44.3612898" lon="11.3319681"><ele>194.66666666666669</ele><time>2026-04-15T13:20:14.129Z</time></trkpt><trkpt lat="44.361263" lon="11.3317427"><ele>195.0</ele><time>2026-04-15T13:20:15.13Z</time></trkpt><trkpt lat="44.3612253" lon="11.331535"><ele>194.0</ele><time>2026-04-15T13:20:16.139Z</time></trkpt><trkpt lat="44.3611621" lon="11.3313427"><ele>193.0</ele><time>2026-04-15T13:20:17.146Z</time></trkpt><trkpt lat="44.3610697" lon="11.3311657"><ele>192.0</ele><time>2026-04-15T13:20:18.145Z</time></trkpt><trkpt lat="44.3609562" lon="11.331023"><ele>192.0</ele><time>2026-04-15T13:20:19.148Z</time></trkpt><trkpt lat="44.360836" lon="11.3309104"><ele>192.0</ele><time>2026-04-15T13:20:20.136Z</time></trkpt><trkpt lat="44.3607401" lon="11.3308235"><ele>192.0</ele><time>2026-04-15T13:20:21.145Z</time></trkpt><trkpt lat="44.3606657" lon="11.3307366"><ele>192.0</ele><time>2026-04-15T13:20:22.144Z</time></trkpt><trkpt lat="44.3606078" lon="11.3306307"><ele>191.8</ele><time>2026-04-15T13:20:23.144Z</time></trkpt><trkpt lat="44.3605866" lon="11.330506"><ele>191.6</ele><time>2026-04-15T13:20:24.139Z</time></trkpt><trkpt lat="44.3605848" lon="11.3303731"><ele>191.4</ele><time>2026-04-15T13:20:25.136Z</time></trkpt><trkpt lat="44.360604" lon="11.3302258"><ele>191.20000000000002</ele><time>2026-04-15T13:20:26.138Z</time></trkpt><trkpt lat="44.3606385" lon="11.3300563"><ele>191.0</ele><time>2026-04-15T13:20:27.128Z</time></trkpt><trkpt lat="44.3606819" lon="11.3298574"><ele>191.66666666666666</ele><time>2026-04-15T13:20:28.146Z</time></trkpt><trkpt lat="44.3607169" lon="11.3296448"><ele>192.33333333333331</ele><time>2026-04-15T13:20:29.145Z</time></trkpt><trkpt lat="44.3607515" lon="11.3294102"><ele>193.0</ele><time>2026-04-15T13:20:30.14Z</time></trkpt><trkpt lat="44.360798" lon="11.3291646"><ele>193.0</ele><time>2026-04-15T13:20:31.134Z</time></trkpt><trkpt lat="44.3608452" lon="11.3289123"><ele>193.0</ele><time>2026-04-15T13:20:32.135Z</time></trkpt><trkpt lat="44.3608886" lon="11.3286561"><ele>193.0</ele><time>2026-04-15T13:20:33.127Z</time></trkpt><trkpt lat="44.3609319" lon="11.3284022"><ele>192.66666666666666</ele><time>2026-04-15T13:20:34.144Z</time></trkpt><trkpt lat="44.3609747" lon="11.3281516"><ele>192.33333333333331</ele><time>2026-04-15T13:20:35.152Z</time></trkpt><trkpt lat="44.3610161" lon="11.3279109"><ele>192.0</ele><time>2026-04-15T13:20:36.137Z</time></trkpt><trkpt lat="44.3610535" lon="11.3276914"><ele>193.0</ele><time>2026-04-15T13:20:37.147Z</time></trkpt><trkpt lat="44.3610869" lon="11.3274888"><ele>194.0</ele><time>2026-04-15T13:20:38.136Z</time></trkpt><trkpt lat="44.3611135" lon="11.3273068"><ele>195.0</ele><time>2026-04-15T13:20:39.146Z</time></trkpt><trkpt lat="44.3611303" lon="11.3271489"><ele>196.0</ele><time>2026-04-15T13:20:40.126Z</time></trkpt><trkpt lat="44.3611309" lon="11.3270059"><ele>197.75</ele><time>2026-04-15T13:20:41.14Z</time></trkpt><trkpt lat="44.3611062" lon="11.3268692"><ele>199.5</ele><time>2026-04-15T13:20:42.141Z</time></trkpt><trkpt lat="44.3610516" lon="11.3267381"><ele>201.25</ele><time>2026-04-15T13:20:43.138Z</time></trkpt><trkpt lat="44.3609684" lon="11.3266164"><ele>203.0</ele><time>2026-04-15T13:20:44.132Z</time></trkpt><trkpt lat="44.3608606" lon="11.3265326"><ele>203.0</ele><time>2026-04-15T13:20:45.138Z</time></trkpt><trkpt lat="44.3607293" lon="11.3264621"><ele>203.0</ele><time>2026-04-15T13:20:46.133Z</time></trkpt><trkpt lat="44.360587" lon="11.3263931"><ele>203.0</ele><time>2026-04-15T13:20:47.138Z</time></trkpt><trkpt lat="44.3604234" lon="11.3263545"><ele>206.33333333333334</ele><time>2026-04-15T13:20:48.128Z</time></trkpt><trkpt lat="44.3602484" lon="11.3263301"><ele>209.66666666666669</ele><time>2026-04-15T13:20:49.127Z</time></trkpt><trkpt lat="44.3600759" lon="11.326308"><ele>213.0</ele><time>2026-04-15T13:20:50.141Z</time></trkpt><trkpt lat="44.3599094" lon="11.3262921"><ele>213.0</ele><time>2026-04-15T13:20:51.128Z</time></trkpt><trkpt lat="44.3597573" lon="11.3262762"><ele>213.0</ele><time>2026-04-15T13:20:52.126Z</time></trkpt><trkpt lat="44.359626" lon="11.3262573"><ele>213.0</ele><time>2026-04-15T13:20:53.138Z</time></trkpt><trkpt lat="44.3595168" lon="11.3262786"><ele>213.0</ele><time>2026-04-15T13:20:54.132Z</time></trkpt><trkpt lat="44.3594143" lon="11.3263567"><ele>211.75</ele><time>2026-04-15T13:20:55.13Z</time></trkpt><trkpt lat="44.3593117" lon="11.3264744"><ele>210.5</ele><time>2026-04-15T13:20:56.148Z</time></trkpt><trkpt lat="44.3592155" lon="11.32662"><ele>209.25</ele><time>2026-04-15T13:20:57.125Z</time></trkpt><trkpt lat="44.3591159" lon="11.3267819"><ele>208.0</ele><time>2026-04-15T13:20:58.148Z</time></trkpt><trkpt lat="44.3590262" lon="11.3269459"><ele>208.0</ele><time>2026-04-15T13:20:59.139Z</time></trkpt><trkpt lat="44.3589394" lon="11.3270988"><ele>208.0</ele><time>2026-04-15T13:21:00.126Z</time></trkpt><trkpt lat="44.3588625" lon="11.3272293"><ele>208.0</ele><time>2026-04-15T13:21:01.123Z</time></trkpt><trkpt lat="44.358782" lon="11.3273236"><ele>208.0</ele><time>2026-04-15T13:21:02.132Z</time></trkpt><trkpt lat="44.358592" lon="11.327389"><ele>209.5</ele><time>2026-04-15T13:21:04.139Z</time></trkpt><trkpt lat="44.3584886" lon="11.3273656"><ele>211.0</ele><time>2026-04-15T13:21:05.129Z</time></trkpt><trkpt lat="44.3583865" lon="11.3272933"><ele>212.5</ele><time>2026-04-15T13:21:06.129Z</time></trkpt><trkpt lat="44.3582935" lon="11.3271879"><ele>214.0</ele><time>2026-04-15T13:21:07.144Z</time></trkpt><trkpt lat="44.3581962" lon="11.3270638"><ele>214.0</ele><time>2026-04-15T13:21:08.126Z</time></trkpt><trkpt lat="44.3581004" lon="11.326926"><ele>214.0</ele><time>2026-04-15T13:21:09.127Z</time></trkpt><trkpt lat="44.3579935" lon="11.3267566"><ele>214.0</ele><time>2026-04-15T13:21:10.125Z</time></trkpt><trkpt lat="44.3578742" lon="11.3265792"><ele>213.33333333333331</ele><time>2026-04-15T13:21:11.132Z</time></trkpt><trkpt lat="44.3577365" lon="11.3263922"><ele>212.66666666666669</ele><time>2026-04-15T13:21:12.139Z</time></trkpt><trkpt lat="44.3575702" lon="11.3262128"><ele>212.0</ele><time>2026-04-15T13:21:13.128Z</time></trkpt><trkpt lat="44.3573966" lon="11.3260482"><ele>212.0</ele><time>2026-04-15T13:21:14.141Z</time></trkpt><trkpt lat="44.357226" lon="11.3259017"><ele>212.0</ele><time>2026-04-15T13:21:15.129Z</time></trkpt><trkpt lat="44.3570588" lon="11.3257597"><ele>212.0</ele><time>2026-04-15T13:21:16.13Z</time></trkpt><trkpt lat="44.3568869" lon="11.325619"><ele>210.66666666666669</ele><time>2026-04-15T13:21:17.139Z</time></trkpt><trkpt lat="44.3567096" lon="11.3254826"><ele>209.33333333333331</ele><time>2026-04-15T13:21:18.131Z</time></trkpt><trkpt lat="44.3565262" lon="11.3253475"><ele>208.0</ele><time>2026-04-15T13:21:19.147Z</time></trkpt><trkpt lat="44.3563537" lon="11.3252175"><ele>206.66666666666666</ele><time>2026-04-15T13:21:20.113Z</time></trkpt><trkpt lat="44.3561915" lon="11.3251043"><ele>205.33333333333331</ele><time>2026-04-15T13:21:21.14Z</time></trkpt><trkpt lat="44.3560321" lon="11.3250161"><ele>204.0</ele><time>2026-04-15T13:21:22.129Z</time></trkpt><trkpt lat="44.3558885" lon="11.3249394"><ele>204.0</ele><time>2026-04-15T13:21:23.129Z</time></trkpt><trkpt lat="44.3557643" lon="11.3248358"><ele>204.0</ele><time>2026-04-15T13:21:24.136Z</time></trkpt><trkpt lat="44.3556492" lon="11.3247119"><ele>204.0</ele><time>2026-04-15T13:21:25.139Z</time></trkpt><trkpt lat="44.3555448" lon="11.3245657"><ele>204.0</ele><time>2026-04-15T13:21:26.135Z</time></trkpt><trkpt lat="44.3554674" lon="11.3244064"><ele>205.25</ele><time>2026-04-15T13:21:27.125Z</time></trkpt><trkpt lat="44.3554024" lon="11.3242418"><ele>206.5</ele><time>2026-04-15T13:21:28.141Z</time></trkpt><trkpt lat="44.3553527" lon="11.3240742"><ele>207.75</ele><time>2026-04-15T13:21:29.137Z</time></trkpt><trkpt lat="44.3553282" lon="11.3239089"><ele>209.0</ele><time>2026-04-15T13:21:30.137Z</time></trkpt><trkpt lat="44.3553304" lon="11.323758"><ele>210.0</ele><time>2026-04-15T13:21:31.12Z</time></trkpt><trkpt lat="44.3553679" lon="11.323624"><ele>211.0</ele><time>2026-04-15T13:21:32.12Z</time></trkpt><trkpt lat="44.3554188" lon="11.3234914"><ele>211.99999999999997</ele><time>2026-04-15T13:21:33.126Z</time></trkpt><trkpt lat="44.3554427" lon="11.3233691"><ele>213.0</ele><time>2026-04-15T13:21:34.121Z</time></trkpt><trkpt lat="44.3554298" lon="11.3232724"><ele>214.0</ele><time>2026-04-15T13:21:35.129Z</time></trkpt><trkpt lat="44.3553813" lon="11.3231531"><ele>214.75</ele><time>2026-04-15T13:21:36.122Z</time></trkpt><trkpt lat="44.3553192" lon="11.3229992"><ele>215.5</ele><time>2026-04-15T13:21:37.134Z</time></trkpt><trkpt lat="44.355247" lon="11.3228439"><ele>216.25</ele><time>2026-04-15T13:21:38.133Z</time></trkpt><trkpt lat="44.3551782" lon="11.3226868"><ele>217.0</ele><time>2026-04-15T13:21:39.138Z</time></trkpt><trkpt lat="44.3549028" lon="11.3224315"><ele>217.0</ele><time>2026-04-15T13:21:42.127Z</time></trkpt><trkpt lat="44.3547956" lon="11.3224049"><ele>217.0</ele><time>2026-04-15T13:21:43.141Z</time></trkpt><trkpt lat="44.3546703" lon="11.3224068"><ele>217.0</ele><time>2026-04-15T13:21:44.137Z</time></trkpt><trkpt lat="44.3545241" lon="11.3223902"><ele>217.0</ele><time>2026-04-15T13:21:45.118Z</time></trkpt><trkpt lat="44.3543624" lon="11.3223765"><ele>219.0</ele><time>2026-04-15T13:21:46.133Z</time></trkpt><trkpt lat="44.354184" lon="11.3223538"><ele>221.0</ele><time>2026-04-15T13:21:47.126Z</time></trkpt><trkpt lat="44.3539966" lon="11.3223468"><ele>223.0</ele><time>2026-04-15T13:21:48.121Z</time></trkpt><trkpt lat="44.353818" lon="11.3223381"><ele>224.5</ele><time>2026-04-15T13:21:49.114Z</time></trkpt><trkpt lat="44.3535045" lon="11.3223257"><ele>226.0</ele><time>2026-04-15T13:21:51.13Z</time></trkpt><trkpt lat="44.3533519" lon="11.3223225"><ele>226.0</ele><time>2026-04-15T13:21:52.132Z</time></trkpt><trkpt lat="44.3532171" lon="11.3223068"><ele>226.0</ele><time>2026-04-15T13:21:53.145Z</time></trkpt><trkpt lat="44.3530937" lon="11.3222872"><ele>226.0</ele><time>2026-04-15T13:21:54.132Z</time></trkpt><trkpt lat="44.352977" lon="11.3222445"><ele>226.0</ele><time>2026-04-15T13:21:55.137Z</time></trkpt><trkpt lat="44.3528679" lon="11.3222131"><ele>226.8</ele><time>2026-04-15T13:21:56.124Z</time></trkpt><trkpt lat="44.3528113" lon="11.3221722"><ele>227.60000000000002</ele><time>2026-04-15T13:21:57.14Z</time></trkpt><trkpt lat="44.3528825" lon="11.3219916"><ele>228.4</ele><time>2026-04-15T13:21:59.13Z</time></trkpt><trkpt lat="44.3529543" lon="11.3219449"><ele>229.2</ele><time>2026-04-15T13:22:00.124Z</time></trkpt><trkpt lat="44.3530462" lon="11.321912"><ele>230.0</ele><time>2026-04-15T13:22:01.124Z</time></trkpt><trkpt lat="44.3531629" lon="11.3218867"><ele>231.75</ele><time>2026-04-15T13:22:02.125Z</time></trkpt><trkpt lat="44.353289" lon="11.3218593"><ele>233.5</ele><time>2026-04-15T13:22:03.128Z</time></trkpt><trkpt lat="44.353406" lon="11.321802"><ele>235.25</ele><time>2026-04-15T13:22:04.111Z</time></trkpt><trkpt lat="44.3534976" lon="11.3217263"><ele>237.0</ele><time>2026-04-15T13:22:05.127Z</time></trkpt><trkpt lat="44.3535476" lon="11.3216107"><ele>237.0</ele><time>2026-04-15T13:22:06.131Z</time></trkpt><trkpt lat="44.3535735" lon="11.3214584"><ele>237.0</ele><time>2026-04-15T13:22:07.129Z</time></trkpt><trkpt lat="44.3535814" lon="11.3212695"><ele>237.0</ele><time>2026-04-15T13:22:08.133Z</time></trkpt><trkpt lat="44.353594" lon="11.3210693"><ele>237.0</ele><time>2026-04-15T13:22:09.123Z</time></trkpt><trkpt lat="44.3536044" lon="11.3208639"><ele>237.25</ele><time>2026-04-15T13:22:10.13Z</time></trkpt><trkpt lat="44.3536111" lon="11.3206678"><ele>237.5</ele><time>2026-04-15T13:22:11.124Z</time></trkpt><trkpt lat="44.3535922" lon="11.3204588"><ele>237.75</ele><time>2026-04-15T13:22:12.128Z</time></trkpt><trkpt lat="44.3535382" lon="11.320259"><ele>238.0</ele><time>2026-04-15T13:22:13.11Z</time></trkpt><trkpt lat="44.353458" lon="11.3200584"><ele>238.0</ele><time>2026-04-15T13:22:14.133Z</time></trkpt><trkpt lat="44.3533622" lon="11.3198617"><ele>238.0</ele><time>2026-04-15T13:22:15.119Z</time></trkpt><trkpt lat="44.3532634" lon="11.3196733"><ele>238.0</ele><time>2026-04-15T13:22:16.127Z</time></trkpt><trkpt lat="44.3531541" lon="11.3194979"><ele>243.33333333333331</ele><time>2026-04-15T13:22:17.117Z</time></trkpt><trkpt lat="44.3530337" lon="11.3193677"><ele>248.66666666666669</ele><time>2026-04-15T13:22:18.138Z</time></trkpt><trkpt lat="44.3528763" lon="11.3192539"><ele>254.0</ele><time>2026-04-15T13:22:19.124Z</time></trkpt><trkpt lat="44.3525138" lon="11.3190391"><ele>254.0</ele><time>2026-04-15T13:22:21.123Z</time></trkpt><trkpt lat="44.3523328" lon="11.3189215"><ele>254.0</ele><time>2026-04-15T13:22:22.12Z</time></trkpt><trkpt lat="44.3521411" lon="11.318816"><ele>254.0</ele><time>2026-04-15T13:22:23.117Z</time></trkpt><trkpt lat="44.3519569" lon="11.3187212"><ele>260.6666666666667</ele><time>2026-04-15T13:22:24.13Z</time></trkpt><trkpt lat="44.3517776" lon="11.318641"><ele>267.3333333333333</ele><time>2026-04-15T13:22:25.117Z</time></trkpt><trkpt lat="44.3515963" lon="11.3185887"><ele>274.0</ele><time>2026-04-15T13:22:26.11Z</time></trkpt><trkpt lat="44.3514163" lon="11.318549"><ele>273.66666666666663</ele><time>2026-04-15T13:22:27.118Z</time></trkpt><trkpt lat="44.351242" lon="11.3184895"><ele>273.3333333333333</ele><time>2026-04-15T13:22:28.115Z</time></trkpt><trkpt lat="44.3510785" lon="11.3184014"><ele>273.0</ele><time>2026-04-15T13:22:29.114Z</time></trkpt><trkpt lat="44.3509285" lon="11.3182889"><ele>273.0</ele><time>2026-04-15T13:22:30.106Z</time></trkpt><trkpt lat="44.3507883" lon="11.3181652"><ele>273.0</ele><time>2026-04-15T13:22:31.123Z</time></trkpt><trkpt lat="44.3506473" lon="11.3180574"><ele>273.0</ele><time>2026-04-15T13:22:32.118Z</time></trkpt><trkpt lat="44.3504899" lon="11.3180025"><ele>278.0</ele><time>2026-04-15T13:22:33.113Z</time></trkpt><trkpt lat="44.3501716" lon="11.3179113"><ele>283.0</ele><time>2026-04-15T13:22:35.122Z</time></trkpt><trkpt lat="44.3500485" lon="11.3178321"><ele>283.0</ele><time>2026-04-15T13:22:36.114Z</time></trkpt><trkpt lat="44.3499601" lon="11.3177512"><ele>283.0</ele><time>2026-04-15T13:22:37.13Z</time></trkpt><trkpt lat="44.3499132" lon="11.3176689"><ele>283.0</ele><time>2026-04-15T13:22:38.116Z</time></trkpt><trkpt lat="44.3499399" lon="11.3174814"><ele>283.0</ele><time>2026-04-15T13:22:40.131Z</time></trkpt><trkpt lat="44.3500063" lon="11.3173645"><ele>283.0</ele><time>2026-04-15T13:22:41.111Z</time></trkpt><trkpt lat="44.3500894" lon="11.3172245"><ele>284.25</ele><time>2026-04-15T13:22:42.116Z</time></trkpt><trkpt lat="44.3501774" lon="11.3170825"><ele>285.5</ele><time>2026-04-15T13:22:43.123Z</time></trkpt><trkpt lat="44.3502678" lon="11.3169313"><ele>286.75</ele><time>2026-04-15T13:22:44.12Z</time></trkpt><trkpt lat="44.3503648" lon="11.316795"><ele>288.0</ele><time>2026-04-15T13:22:45.126Z</time></trkpt><trkpt lat="44.3504738" lon="11.3167055"><ele>291.0</ele><time>2026-04-15T13:22:46.127Z</time></trkpt><trkpt lat="44.3506065" lon="11.3166526"><ele>294.0</ele><time>2026-04-15T13:22:47.127Z</time></trkpt><trkpt lat="44.3507514" lon="11.3166127"><ele>297.0</ele><time>2026-04-15T13:22:48.138Z</time></trkpt><trkpt lat="44.3508745" lon="11.3165391"><ele>300.0</ele><time>2026-04-15T13:22:49.133Z</time></trkpt><trkpt lat="44.3509755" lon="11.316422"><ele>301.5</ele><time>2026-04-15T13:22:50.124Z</time></trkpt><trkpt lat="44.3510359" lon="11.3162665"><ele>303.0</ele><time>2026-04-15T13:22:51.111Z</time></trkpt><trkpt lat="44.3510564" lon="11.3160943"><ele>304.5</ele><time>2026-04-15T13:22:52.124Z</time></trkpt><trkpt lat="44.351047" lon="11.3159274"><ele>306.0</ele><time>2026-04-15T13:22:53.141Z</time></trkpt><trkpt lat="44.3509978" lon="11.3157631"><ele>306.0</ele><time>2026-04-15T13:22:54.13Z</time></trkpt><trkpt lat="44.350921" lon="11.3156282"><ele>306.0</ele><time>2026-04-15T13:22:55.132Z</time></trkpt><trkpt lat="44.350811" lon="11.3155079"><ele>306.0</ele><time>2026-04-15T13:22:56.122Z</time></trkpt><trkpt lat="44.350688" lon="11.3154385"><ele>306.0</ele><time>2026-04-15T13:22:57.116Z</time></trkpt><trkpt lat="44.3505605" lon="11.3153709"><ele>309.3333333333333</ele><time>2026-04-15T13:22:58.117Z</time></trkpt><trkpt lat="44.3504425" lon="11.3152733"><ele>312.66666666666663</ele><time>2026-04-15T13:22:59.111Z</time></trkpt><trkpt lat="44.350333" lon="11.3151242"><ele>316.0</ele><time>2026-04-15T13:23:00.118Z</time></trkpt><trkpt lat="44.3502068" lon="11.3149722"><ele>316.0</ele><time>2026-04-15T13:23:01.115Z</time></trkpt><trkpt lat="44.3500552" lon="11.3148336"><ele>316.0</ele><time>2026-04-15T13:23:02.107Z</time></trkpt><trkpt lat="44.3498961" lon="11.3146956"><ele>316.0</ele><time>2026-04-15T13:23:03.107Z</time></trkpt><trkpt lat="44.3495862" lon="11.314423"><ele>320.0</ele><time>2026-04-15T13:23:05.108Z</time></trkpt><trkpt lat="44.3492053" lon="11.3141433"><ele>324.0</ele><time>2026-04-15T13:23:08.119Z</time></trkpt><trkpt lat="44.3491018" lon="11.3140316"><ele>324.0</ele><time>2026-04-15T13:23:09.158Z</time></trkpt><trkpt lat="44.3490242" lon="11.3139061"><ele>324.0</ele><time>2026-04-15T13:23:10.102Z</time></trkpt><trkpt lat="44.3489901" lon="11.3137576"><ele>324.0</ele><time>2026-04-15T13:23:11.105Z</time></trkpt><trkpt lat="44.3489885" lon="11.3135996"><ele>324.0</ele><time>2026-04-15T13:23:12.107Z</time></trkpt><trkpt lat="44.3489881" lon="11.3134275"><ele>324.5</ele><time>2026-04-15T13:23:13.124Z</time></trkpt><trkpt lat="44.3489833" lon="11.3132394"><ele>325.0</ele><time>2026-04-15T13:23:14.106Z</time></trkpt><trkpt lat="44.348965" lon="11.3130799"><ele>325.5</ele><time>2026-04-15T13:23:15.109Z</time></trkpt><trkpt lat="44.3489333" lon="11.312933"><ele>326.0</ele><time>2026-04-15T13:23:16.114Z</time></trkpt><trkpt lat="44.3488673" lon="11.3128093"><ele>326.0</ele><time>2026-04-15T13:23:17.108Z</time></trkpt><trkpt lat="44.3487705" lon="11.312707"><ele>326.0</ele><time>2026-04-15T13:23:18.113Z</time></trkpt><trkpt lat="44.3486576" lon="11.3126174"><ele>326.0</ele><time>2026-04-15T13:23:19.131Z</time></trkpt><trkpt lat="44.3485043" lon="11.3125352"><ele>326.0</ele><time>2026-04-15T13:23:20.109Z</time></trkpt><trkpt lat="44.3483463" lon="11.3124385"><ele>326.0</ele><time>2026-04-15T13:23:21.109Z</time></trkpt><trkpt lat="44.3481774" lon="11.3123298"><ele>326.0</ele><time>2026-04-15T13:23:22.102Z</time></trkpt><trkpt lat="44.3478793" lon="11.3120953"><ele>333.33333333333337</ele><time>2026-04-15T13:23:24.124Z</time></trkpt><trkpt lat="44.3477248" lon="11.311981"><ele>340.6666666666667</ele><time>2026-04-15T13:23:25.116Z</time></trkpt><trkpt lat="44.3475651" lon="11.3118945"><ele>348.0</ele><time>2026-04-15T13:23:26.102Z</time></trkpt><trkpt lat="44.3472491" lon="11.3117869"><ele>347.6666666666667</ele><time>2026-04-15T13:23:28.116Z</time></trkpt><trkpt lat="44.3470829" lon="11.3117925"><ele>347.33333333333337</ele><time>2026-04-15T13:23:29.11Z</time></trkpt><trkpt lat="44.3469359" lon="11.3118302"><ele>347.0</ele><time>2026-04-15T13:23:30.108Z</time></trkpt><trkpt lat="44.3468039" lon="11.3118672"><ele>347.0</ele><time>2026-04-15T13:23:31.116Z</time></trkpt><trkpt lat="44.3466998" lon="11.3118804"><ele>347.0</ele><time>2026-04-15T13:23:32.104Z</time></trkpt><trkpt lat="44.3466172" lon="11.3118436"><ele>347.0</ele><time>2026-04-15T13:23:33.107Z</time></trkpt><trkpt lat="44.3465473" lon="11.3117571"><ele>347.0</ele><time>2026-04-15T13:23:34.104Z</time></trkpt><trkpt lat="44.3464921" lon="11.3116414"><ele>347.0</ele><time>2026-04-15T13:23:35.098Z</time></trkpt><trkpt lat="44.3463653" lon="11.3113663"><ele>354.0</ele><time>2026-04-15T13:23:37.108Z</time></trkpt><trkpt lat="44.3462811" lon="11.3112339"><ele>361.0</ele><time>2026-04-15T13:23:38.104Z</time></trkpt><trkpt lat="44.3461659" lon="11.3111072"><ele>368.0</ele><time>2026-04-15T13:23:39.111Z</time></trkpt><trkpt lat="44.346029" lon="11.3109908"><ele>375.0</ele><time>2026-04-15T13:23:40.118Z</time></trkpt><trkpt lat="44.3459017" lon="11.3109146"><ele>375.0</ele><time>2026-04-15T13:23:41.126Z</time></trkpt><trkpt lat="44.3456354" lon="11.310883"><ele>375.0</ele><time>2026-04-15T13:23:43.104Z</time></trkpt><trkpt lat="44.3454934" lon="11.3109527"><ele>375.0</ele><time>2026-04-15T13:23:44.115Z</time></trkpt><trkpt lat="44.3453732" lon="11.3110487"><ele>371.75</ele><time>2026-04-15T13:23:45.116Z</time></trkpt><trkpt lat="44.3452621" lon="11.3111529"><ele>368.5</ele><time>2026-04-15T13:23:46.104Z</time></trkpt><trkpt lat="44.345164" lon="11.3112779"><ele>365.25</ele><time>2026-04-15T13:23:47.106Z</time></trkpt><trkpt lat="44.3450755" lon="11.3114262"><ele>362.0</ele><time>2026-04-15T13:23:48.103Z</time></trkpt><trkpt lat="44.345011" lon="11.3115298"><ele>362.0</ele><time>2026-04-15T13:23:49.102Z</time></trkpt><trkpt lat="44.344951" lon="11.3115859"><ele>362.0</ele><time>2026-04-15T13:23:50.103Z</time></trkpt><trkpt lat="44.3448681" lon="11.3116003"><ele>362.0</ele><time>2026-04-15T13:23:51.102Z</time></trkpt><trkpt lat="44.3447892" lon="11.311551"><ele>362.0</ele><time>2026-04-15T13:23:52.11Z</time></trkpt><trkpt lat="44.3446955" lon="11.3114789"><ele>362.0</ele><time>2026-04-15T13:23:53.105Z</time></trkpt><trkpt lat="44.3445931" lon="11.3113822"><ele>371.33333333333337</ele><time>2026-04-15T13:23:54.105Z</time></trkpt><trkpt lat="44.3444822" lon="11.3112727"><ele>380.6666666666667</ele><time>2026-04-15T13:23:55.109Z</time></trkpt><trkpt lat="44.3443711" lon="11.3111529"><ele>390.0</ele><time>2026-04-15T13:23:56.117Z</time></trkpt><trkpt lat="44.3441595" lon="11.3108452"><ele>390.0</ele><time>2026-04-15T13:23:58.12Z</time></trkpt><trkpt lat="44.3440411" lon="11.3106757"><ele>390.0</ele><time>2026-04-15T13:23:59.106Z</time></trkpt><trkpt lat="44.3439258" lon="11.3105248"><ele>390.0</ele><time>2026-04-15T13:24:00.126Z</time></trkpt><trkpt lat="44.3438093" lon="11.3103719"><ele>387.5</ele><time>2026-04-15T13:24:01.106Z</time></trkpt><trkpt lat="44.3436913" lon="11.3102329"><ele>385.0</ele><time>2026-04-15T13:24:02.108Z</time></trkpt><trkpt lat="44.3436004" lon="11.3100798"><ele>382.5</ele><time>2026-04-15T13:24:03.097Z</time></trkpt><trkpt lat="44.3435318" lon="11.3099191"><ele>380.0</ele><time>2026-04-15T13:24:04.151Z</time></trkpt><trkpt lat="44.3434821" lon="11.309764"><ele>385.0</ele><time>2026-04-15T13:24:05.107Z</time></trkpt><trkpt lat="44.3434424" lon="11.3095895"><ele>390.0</ele><time>2026-04-15T13:24:06.112Z</time></trkpt><trkpt lat="44.3434096" lon="11.3094272"><ele>395.0</ele><time>2026-04-15T13:24:07.104Z</time></trkpt><trkpt lat="44.3433815" lon="11.3092727"><ele>400.0</ele><time>2026-04-15T13:24:08.112Z</time></trkpt><trkpt lat="44.3433736" lon="11.3091324"><ele>400.0</ele><time>2026-04-15T13:24:09.11Z</time></trkpt><trkpt lat="44.3433939" lon="11.3089878"><ele>400.0</ele><time>2026-04-15T13:24:10.1Z</time></trkpt><trkpt lat="44.3434399" lon="11.3088281"><ele>400.0</ele><time>2026-04-15T13:24:11.096Z</time></trkpt><trkpt lat="44.3435171" lon="11.3086694"><ele>400.0</ele><time>2026-04-15T13:24:12.115Z</time></trkpt><trkpt lat="44.3435995" lon="11.3085137"><ele>401.8</ele><time>2026-04-15T13:24:13.102Z</time></trkpt><trkpt lat="44.3436728" lon="11.3083794"><ele>403.6</ele><time>2026-04-15T13:24:14.109Z</time></trkpt><trkpt lat="44.3437275" lon="11.3082703"><ele>405.4</ele><time>2026-04-15T13:24:15.108Z</time></trkpt><trkpt lat="44.343711" lon="11.3081304"><ele>407.2</ele><time>2026-04-15T13:24:17.115Z</time></trkpt><trkpt lat="44.3436521" lon="11.3080706"><ele>409.0</ele><time>2026-04-15T13:24:18.109Z</time></trkpt><trkpt lat="44.3435856" lon="11.3080631"><ele>409.0</ele><time>2026-04-15T13:24:19.094Z</time></trkpt><trkpt lat="44.3434892" lon="11.3080636"><ele>409.0</ele><time>2026-04-15T13:24:20.106Z</time></trkpt><trkpt lat="44.3433685" lon="11.3080961"><ele>409.0</ele><time>2026-04-15T13:24:21.11Z</time></trkpt><trkpt lat="44.3432449" lon="11.3081345"><ele>409.0</ele><time>2026-04-15T13:24:22.107Z</time></trkpt><trkpt lat="44.3431131" lon="11.3081682"><ele>410.0</ele><time>2026-04-15T13:24:23.099Z</time></trkpt><trkpt lat="44.3429911" lon="11.3082044"><ele>411.0</ele><time>2026-04-15T13:24:24.094Z</time></trkpt><trkpt lat="44.3428799" lon="11.3082288"><ele>412.0</ele><time>2026-04-15T13:24:25.116Z</time></trkpt><trkpt lat="44.3428034" lon="11.3081605"><ele>413.0</ele><time>2026-04-15T13:24:27.095Z</time></trkpt><trkpt lat="44.342801" lon="11.307966"><ele>413.0</ele><time>2026-04-15T13:24:29.091Z</time></trkpt><trkpt lat="44.3428148" lon="11.307792"><ele>413.0</ele><time>2026-04-15T13:24:30.114Z</time></trkpt><trkpt lat="44.3427906" lon="11.3074187"><ele>413.0</ele><time>2026-04-15T13:24:32.109Z</time></trkpt><trkpt lat="44.3427722" lon="11.3072263"><ele>416.3333333333333</ele><time>2026-04-15T13:24:33.097Z</time></trkpt><trkpt lat="44.3427508" lon="11.3070414"><ele>419.66666666666663</ele><time>2026-04-15T13:24:34.127Z</time></trkpt><trkpt lat="44.3427497" lon="11.3068634"><ele>423.0</ele><time>2026-04-15T13:24:35.125Z</time></trkpt><trkpt lat="44.3428815" lon="11.3063877"><ele>424.5</ele><time>2026-04-15T13:24:38.11Z</time></trkpt><trkpt lat="44.3429312" lon="11.3061653"><ele>426.0</ele><time>2026-04-15T13:24:40.106Z</time></trkpt><trkpt lat="44.3428989" lon="11.3060422"><ele>427.5</ele><time>2026-04-15T13:24:41.092Z</time></trkpt><trkpt lat="44.3428564" lon="11.3059314"><ele>429.0</ele><time>2026-04-15T13:24:42.112Z</time></trkpt><trkpt lat="44.3427986" lon="11.3058143"><ele>432.0</ele><time>2026-04-15T13:24:43.111Z</time></trkpt><trkpt lat="44.3427415" lon="11.3055496"><ele>435.0</ele><time>2026-04-15T13:24:45.098Z</time></trkpt><trkpt lat="44.3427474" lon="11.305404"><ele>438.0</ele><time>2026-04-15T13:24:46.118Z</time></trkpt><trkpt lat="44.3427681" lon="11.3052522"><ele>441.0</ele><time>2026-04-15T13:24:47.098Z</time></trkpt><trkpt lat="44.3427997" lon="11.3051171"><ele>441.0</ele><time>2026-04-15T13:24:48.103Z</time></trkpt><trkpt lat="44.3428196" lon="11.3049775"><ele>441.0</ele><time>2026-04-15T13:24:49.1Z</time></trkpt><trkpt lat="44.3427143" lon="11.3047466"><ele>441.0</ele><time>2026-04-15T13:24:51.11Z</time></trkpt><trkpt lat="44.3425876" lon="11.3046322"><ele>441.0</ele><time>2026-04-15T13:24:52.104Z</time></trkpt><trkpt lat="44.3424609" lon="11.3045395"><ele>442.4</ele><time>2026-04-15T13:24:53.112Z</time></trkpt><trkpt lat="44.3423519" lon="11.3044608"><ele>443.8</ele><time>2026-04-15T13:24:54.116Z</time></trkpt><trkpt lat="44.3422623" lon="11.3043804"><ele>445.19999999999993</ele><time>2026-04-15T13:24:55.099Z</time></trkpt><trkpt lat="44.3422066" lon="11.3042629"><ele>446.59999999999997</ele><time>2026-04-15T13:24:56.101Z</time></trkpt><trkpt lat="44.3421673" lon="11.304125"><ele>448.0</ele><time>2026-04-15T13:24:57.123Z</time></trkpt><trkpt lat="44.3421265" lon="11.3039682"><ele>450.25</ele><time>2026-04-15T13:24:58.104Z</time></trkpt><trkpt lat="44.3420814" lon="11.3038009"><ele>452.5</ele><time>2026-04-15T13:24:59.104Z</time></trkpt><trkpt lat="44.3420211" lon="11.3036285"><ele>454.75</ele><time>2026-04-15T13:25:00.097Z</time></trkpt><trkpt lat="44.3419427" lon="11.3034568"><ele>457.0</ele><time>2026-04-15T13:25:01.107Z</time></trkpt><trkpt lat="44.3418597" lon="11.3033173"><ele>461.0</ele><time>2026-04-15T13:25:02.104Z</time></trkpt><trkpt lat="44.3415342" lon="11.3029315"><ele>465.0</ele><time>2026-04-15T13:25:05.11Z</time></trkpt><trkpt lat="44.3412775" lon="11.3027714"><ele>465.0</ele><time>2026-04-15T13:25:07.102Z</time></trkpt><trkpt lat="44.3411353" lon="11.3027409"><ele>465.0</ele><time>2026-04-15T13:25:08.102Z</time></trkpt><trkpt lat="44.3409998" lon="11.3027589"><ele>465.0</ele><time>2026-04-15T13:25:09.111Z</time></trkpt><trkpt lat="44.3407332" lon="11.302749"><ele>465.0</ele><time>2026-04-15T13:25:11.096Z</time></trkpt><trkpt lat="44.3406048" lon="11.3027393"><ele>465.0</ele><time>2026-04-15T13:25:12.103Z</time></trkpt><trkpt lat="44.3405022" lon="11.3027051"><ele>465.0</ele><time>2026-04-15T13:25:13.087Z</time></trkpt><trkpt lat="44.3403973" lon="11.302642"><ele>465.0</ele><time>2026-04-15T13:25:14.101Z</time></trkpt><trkpt lat="44.3403052" lon="11.3025647"><ele>463.2</ele><time>2026-04-15T13:25:15.102Z</time></trkpt><trkpt lat="44.340236" lon="11.3024966"><ele>461.4</ele><time>2026-04-15T13:25:16.103Z</time></trkpt><trkpt lat="44.3401937" lon="11.3024073"><ele>459.6</ele><time>2026-04-15T13:25:17.092Z</time></trkpt><trkpt lat="44.3401874" lon="11.3022985"><ele>457.8</ele><time>2026-04-15T13:25:18.086Z</time></trkpt><trkpt lat="44.3401998" lon="11.3021625"><ele>456.0</ele><time>2026-04-15T13:25:19.109Z</time></trkpt><trkpt lat="44.3402216" lon="11.3020081"><ele>455.66666666666663</ele><time>2026-04-15T13:25:20.099Z</time></trkpt><trkpt lat="44.3402504" lon="11.3018551"><ele>455.3333333333333</ele><time>2026-04-15T13:25:21.118Z</time></trkpt><trkpt lat="44.3402768" lon="11.3016833"><ele>455.0</ele><time>2026-04-15T13:25:22.101Z</time></trkpt><trkpt lat="44.340248" lon="11.3012651"><ele>458.66666666666663</ele><time>2026-04-15T13:25:24.094Z</time></trkpt><trkpt lat="44.3402224" lon="11.3010529"><ele>462.33333333333337</ele><time>2026-04-15T13:25:25.105Z</time></trkpt><trkpt lat="44.3401826" lon="11.300843"><ele>466.0</ele><time>2026-04-15T13:25:26.092Z</time></trkpt><trkpt lat="44.3401158" lon="11.3006329"><ele>464.25</ele><time>2026-04-15T13:25:27.09Z</time></trkpt><trkpt lat="44.3400319" lon="11.3004459"><ele>462.5</ele><time>2026-04-15T13:25:28.098Z</time></trkpt><trkpt lat="44.3399467" lon="11.3002776"><ele>460.75</ele><time>2026-04-15T13:25:29.101Z</time></trkpt><trkpt lat="44.339848" lon="11.3001312"><ele>459.0</ele><time>2026-04-15T13:25:30.098Z</time></trkpt><trkpt lat="44.3396322" lon="11.2998596"><ele>471.5</ele><time>2026-04-15T13:25:32.089Z</time></trkpt><trkpt lat="44.3392999" lon="11.299608"><ele>484.0</ele><time>2026-04-15T13:25:35.081Z</time></trkpt><trkpt lat="44.3391844" lon="11.2995205"><ele>484.0</ele><time>2026-04-15T13:25:36.082Z</time></trkpt><trkpt lat="44.3389301" lon="11.299439"><ele>484.0</ele><time>2026-04-15T13:25:38.097Z</time></trkpt><trkpt lat="44.338834" lon="11.2993698"><ele>484.0</ele><time>2026-04-15T13:25:39.088Z</time></trkpt><trkpt lat="44.3387193" lon="11.299294"><ele>482.0</ele><time>2026-04-15T13:25:40.096Z</time></trkpt><trkpt lat="44.3386232" lon="11.2991744"><ele>480.0</ele><time>2026-04-15T13:25:41.108Z</time></trkpt><trkpt lat="44.3385398" lon="11.2990475"><ele>478.0</ele><time>2026-04-15T13:25:42.097Z</time></trkpt><trkpt lat="44.3384744" lon="11.2989052"><ele>476.0</ele><time>2026-04-15T13:25:43.081Z</time></trkpt><trkpt lat="44.3384105" lon="11.2987514"><ele>476.0</ele><time>2026-04-15T13:25:44.095Z</time></trkpt><trkpt lat="44.338329" lon="11.2986085"><ele>476.0</ele><time>2026-04-15T13:25:45.094Z</time></trkpt><trkpt lat="44.3382329" lon="11.2985294"><ele>476.0</ele><time>2026-04-15T13:25:46.089Z</time></trkpt><trkpt lat="44.3381426" lon="11.2984462"><ele>476.0</ele><time>2026-04-15T13:25:47.086Z</time></trkpt><trkpt lat="44.3380512" lon="11.298387"><ele>468.20000000000005</ele><time>2026-04-15T13:25:48.097Z</time></trkpt><trkpt lat="44.3379625" lon="11.2983297"><ele>460.40000000000003</ele><time>2026-04-15T13:25:49.094Z</time></trkpt><trkpt lat="44.3378862" lon="11.2982375"><ele>452.6</ele><time>2026-04-15T13:25:50.092Z</time></trkpt><trkpt lat="44.3378197" lon="11.2981078"><ele>444.8</ele><time>2026-04-15T13:25:51.095Z</time></trkpt><trkpt lat="44.337775" lon="11.2979557"><ele>437.0</ele><time>2026-04-15T13:25:52.095Z</time></trkpt><trkpt lat="44.3377471" lon="11.2978264"><ele>436.99999999999994</ele><time>2026-04-15T13:25:53.099Z</time></trkpt><trkpt lat="44.3377326" lon="11.2976931"><ele>437.0</ele><time>2026-04-15T13:25:55.106Z</time></trkpt><trkpt lat="44.3377086" lon="11.297571"><ele>437.0</ele><time>2026-04-15T13:26:25.083Z</time></trkpt><trkpt lat="44.3376924" lon="11.2974777"><ele>437.0</ele><time>2026-04-15T13:26:26.091Z</time></trkpt><trkpt lat="44.3376871" lon="11.2973687"><ele>436.99999999999994</ele><time>2026-04-15T13:26:27.094Z</time></trkpt><trkpt lat="44.3376812" lon="11.2972464"><ele>437.0</ele><time>2026-04-15T13:26:28.097Z</time></trkpt><trkpt lat="44.3376788" lon="11.2971181"><ele>442.20000000000005</ele><time>2026-04-15T13:26:29.085Z</time></trkpt><trkpt lat="44.3376763" lon="11.2969892"><ele>447.40000000000003</ele><time>2026-04-15T13:26:30.082Z</time></trkpt><trkpt lat="44.3376809" lon="11.2968729"><ele>452.59999999999997</ele><time>2026-04-15T13:26:31.093Z</time></trkpt><trkpt lat="44.3376719" lon="11.2967586"><ele>457.79999999999995</ele><time>2026-04-15T13:26:32.087Z</time></trkpt><trkpt lat="44.3376335" lon="11.2966495"><ele>463.0</ele><time>2026-04-15T13:26:33.091Z</time></trkpt><trkpt lat="44.3374974" lon="11.2964715"><ele>465.59999999999997</ele><time>2026-04-15T13:26:35.082Z</time></trkpt><trkpt lat="44.3374036" lon="11.2964092"><ele>468.19999999999993</ele><time>2026-04-15T13:26:36.083Z</time></trkpt><trkpt lat="44.3373064" lon="11.2963461"><ele>470.8</ele><time>2026-04-15T13:26:37.081Z</time></trkpt><trkpt lat="44.3372068" lon="11.296275"><ele>473.4</ele><time>2026-04-15T13:26:38.092Z</time></trkpt><trkpt lat="44.3371044" lon="11.2961738"><ele>476.0</ele><time>2026-04-15T13:26:39.082Z</time></trkpt><trkpt lat="44.3369943" lon="11.2960634"><ele>470.0</ele><time>2026-04-15T13:26:40.102Z</time></trkpt><trkpt lat="44.3368972" lon="11.2959308"><ele>464.0</ele><time>2026-04-15T13:26:41.094Z</time></trkpt><trkpt lat="44.3368189" lon="11.295799"><ele>458.0</ele><time>2026-04-15T13:26:42.08Z</time></trkpt><trkpt lat="44.3367349" lon="11.2955815"><ele>452.0</ele><time>2026-04-15T13:26:44.1Z</time></trkpt><trkpt lat="44.3366905" lon="11.2955046"><ele>452.0</ele><time>2026-04-15T13:26:45.08Z</time></trkpt><trkpt lat="44.3366328" lon="11.2954462"><ele>452.00000000000006</ele><time>2026-04-15T13:26:46.077Z</time></trkpt><trkpt lat="44.3365492" lon="11.2953767"><ele>452.00000000000006</ele><time>2026-04-15T13:26:47.081Z</time></trkpt><trkpt lat="44.3364491" lon="11.2953036"><ele>452.0</ele><time>2026-04-15T13:26:48.098Z</time></trkpt><trkpt lat="44.3363323" lon="11.2952164"><ele>452.0</ele><time>2026-04-15T13:26:49.108Z</time></trkpt><trkpt lat="44.3362125" lon="11.2951261"><ele>448.5</ele><time>2026-04-15T13:26:50.083Z</time></trkpt><trkpt lat="44.3360937" lon="11.2950218"><ele>445.0</ele><time>2026-04-15T13:26:51.097Z</time></trkpt><trkpt lat="44.3359743" lon="11.2949121"><ele>441.5</ele><time>2026-04-15T13:26:52.09Z</time></trkpt><trkpt lat="44.3358613" lon="11.2948002"><ele>438.0</ele><time>2026-04-15T13:26:53.099Z</time></trkpt><trkpt lat="44.335753" lon="11.2946771"><ele>435.75</ele><time>2026-04-15T13:26:54.073Z</time></trkpt><trkpt lat="44.3356366" lon="11.2945605"><ele>433.5</ele><time>2026-04-15T13:26:55.094Z</time></trkpt><trkpt lat="44.3355173" lon="11.2944591"><ele>431.25</ele><time>2026-04-15T13:26:56.093Z</time></trkpt><trkpt lat="44.3353957" lon="11.2943739"><ele>429.0</ele><time>2026-04-15T13:26:57.07Z</time></trkpt><trkpt lat="44.3351054" lon="11.294228"><ele>428.75</ele><time>2026-04-15T13:26:59.104Z</time></trkpt><trkpt lat="44.3349623" lon="11.294159"><ele>428.5</ele><time>2026-04-15T13:27:00.083Z</time></trkpt><trkpt lat="44.3348279" lon="11.2940951"><ele>428.25</ele><time>2026-04-15T13:27:01.102Z</time></trkpt><trkpt lat="44.3347017" lon="11.2940516"><ele>428.0</ele><time>2026-04-15T13:27:02.105Z</time></trkpt><trkpt lat="44.3345825" lon="11.2940435"><ele>427.75</ele><time>2026-04-15T13:27:03.101Z</time></trkpt><trkpt lat="44.3344636" lon="11.2940746"><ele>427.5</ele><time>2026-04-15T13:27:04.084Z</time></trkpt><trkpt lat="44.3343467" lon="11.29413"><ele>427.25</ele><time>2026-04-15T13:27:05.08Z</time></trkpt><trkpt lat="44.3342284" lon="11.2942061"><ele>427.0</ele><time>2026-04-15T13:27:06.081Z</time></trkpt><trkpt lat="44.3340998" lon="11.2942868"><ele>427.0</ele><time>2026-04-15T13:27:07.085Z</time></trkpt><trkpt lat="44.3339672" lon="11.2943533"><ele>427.0</ele><time>2026-04-15T13:27:08.073Z</time></trkpt><trkpt lat="44.3338296" lon="11.2944222"><ele>427.0</ele><time>2026-04-15T13:27:09.09Z</time></trkpt><trkpt lat="44.3335909" lon="11.2945704"><ele>427.0</ele><time>2026-04-15T13:27:11.094Z</time></trkpt><trkpt lat="44.3334869" lon="11.294634"><ele>427.00000000000006</ele><time>2026-04-15T13:27:12.092Z</time></trkpt><trkpt lat="44.333395" lon="11.2946698"><ele>427.00000000000006</ele><time>2026-04-15T13:27:13.092Z</time></trkpt><trkpt lat="44.3333124" lon="11.2946635"><ele>427.0</ele><time>2026-04-15T13:27:14.093Z</time></trkpt><trkpt lat="44.3332249" lon="11.2946464"><ele>427.0</ele><time>2026-04-15T13:27:15.09Z</time></trkpt><trkpt lat="44.3331498" lon="11.2945812"><ele>427.0</ele><time>2026-04-15T13:27:16.133Z</time></trkpt><trkpt lat="44.3330926" lon="11.29445"><ele>427.0</ele><time>2026-04-15T13:27:17.09Z</time></trkpt><trkpt lat="44.3330248" lon="11.2943214"><ele>427.0</ele><time>2026-04-15T13:27:18.079Z</time></trkpt><trkpt lat="44.3328236" lon="11.2940838"><ele>419.0</ele><time>2026-04-15T13:27:20.096Z</time></trkpt><trkpt lat="44.3325358" lon="11.2939224"><ele>411.0</ele><time>2026-04-15T13:27:22.079Z</time></trkpt><trkpt lat="44.3323638" lon="11.2938428"><ele>408.66666666666663</ele><time>2026-04-15T13:27:23.1Z</time></trkpt><trkpt lat="44.3321804" lon="11.2937553"><ele>406.3333333333333</ele><time>2026-04-15T13:27:24.08Z</time></trkpt><trkpt lat="44.3319976" lon="11.2936697"><ele>404.0</ele><time>2026-04-15T13:27:25.099Z</time></trkpt><trkpt lat="44.3318144" lon="11.2935726"><ele>404.0</ele><time>2026-04-15T13:27:26.114Z</time></trkpt><trkpt lat="44.3316313" lon="11.2934867"><ele>404.0</ele><time>2026-04-15T13:27:27.088Z</time></trkpt><trkpt lat="44.3314519" lon="11.2933894"><ele>404.0</ele><time>2026-04-15T13:27:28.109Z</time></trkpt><trkpt lat="44.3312707" lon="11.2932839"><ele>404.0</ele><time>2026-04-15T13:27:29.089Z</time></trkpt><trkpt lat="44.3310949" lon="11.2931839"><ele>404.0</ele><time>2026-04-15T13:27:30.091Z</time></trkpt><trkpt lat="44.3309231" lon="11.2930821"><ele>404.0</ele><time>2026-04-15T13:27:31.073Z</time></trkpt><trkpt lat="44.3307391" lon="11.2929896"><ele>407.66666666666663</ele><time>2026-04-15T13:27:32.09Z</time></trkpt><trkpt lat="44.3305516" lon="11.2928894"><ele>411.33333333333337</ele><time>2026-04-15T13:27:33.087Z</time></trkpt><trkpt lat="44.3303669" lon="11.2927822"><ele>415.0</ele><time>2026-04-15T13:27:34.073Z</time></trkpt><trkpt lat="44.3301867" lon="11.2926691"><ele>415.0</ele><time>2026-04-15T13:27:35.08Z</time></trkpt><trkpt lat="44.3300092" lon="11.2925543"><ele>415.0</ele><time>2026-04-15T13:27:36.082Z</time></trkpt><trkpt lat="44.3298471" lon="11.2924381"><ele>415.0</ele><time>2026-04-15T13:27:37.082Z</time></trkpt><trkpt lat="44.3297041" lon="11.2923198"><ele>415.8</ele><time>2026-04-15T13:27:38.073Z</time></trkpt><trkpt lat="44.3295941" lon="11.292216"><ele>416.6</ele><time>2026-04-15T13:27:39.069Z</time></trkpt><trkpt lat="44.329498" lon="11.2921546"><ele>417.4</ele><time>2026-04-15T13:27:40.082Z</time></trkpt><trkpt lat="44.3294038" lon="11.2921125"><ele>418.2</ele><time>2026-04-15T13:27:41.094Z</time></trkpt><trkpt lat="44.3292943" lon="11.2920876"><ele>419.0</ele><time>2026-04-15T13:27:42.087Z</time></trkpt><trkpt lat="44.3291679" lon="11.2920876"><ele>419.0</ele><time>2026-04-15T13:27:43.076Z</time></trkpt><trkpt lat="44.3290382" lon="11.2920945"><ele>419.0</ele><time>2026-04-15T13:27:44.093Z</time></trkpt><trkpt lat="44.3289005" lon="11.2920765"><ele>419.0</ele><time>2026-04-15T13:27:45.079Z</time></trkpt><trkpt lat="44.3287578" lon="11.2920295"><ele>419.0</ele><time>2026-04-15T13:27:46.072Z</time></trkpt><trkpt lat="44.3286184" lon="11.2919352"><ele>418.66666666666663</ele><time>2026-04-15T13:27:47.079Z</time></trkpt><trkpt lat="44.3284748" lon="11.2918182"><ele>418.33333333333337</ele><time>2026-04-15T13:27:48.085Z</time></trkpt><trkpt lat="44.3283276" lon="11.2916843"><ele>418.0</ele><time>2026-04-15T13:27:49.067Z</time></trkpt><trkpt lat="44.3281781" lon="11.2915503"><ele>417.6666666666667</ele><time>2026-04-15T13:27:50.082Z</time></trkpt><trkpt lat="44.3280176" lon="11.2914154"><ele>417.33333333333337</ele><time>2026-04-15T13:27:51.082Z</time></trkpt><trkpt lat="44.3278499" lon="11.291285"><ele>417.0</ele><time>2026-04-15T13:27:52.074Z</time></trkpt><trkpt lat="44.3276814" lon="11.2911577"><ele>417.0</ele><time>2026-04-15T13:27:53.069Z</time></trkpt><trkpt lat="44.327521" lon="11.2910272"><ele>417.0</ele><time>2026-04-15T13:27:54.091Z</time></trkpt><trkpt lat="44.3273699" lon="11.290916"><ele>417.0</ele><time>2026-04-15T13:27:55.07Z</time></trkpt><trkpt lat="44.3271441" lon="11.2906588"><ele>418.25</ele><time>2026-04-15T13:27:57.078Z</time></trkpt><trkpt lat="44.3270705" lon="11.2904911"><ele>419.5</ele><time>2026-04-15T13:27:58.085Z</time></trkpt><trkpt lat="44.3270089" lon="11.2903191"><ele>420.75</ele><time>2026-04-15T13:27:59.074Z</time></trkpt><trkpt lat="44.3269522" lon="11.2901769"><ele>422.0</ele><time>2026-04-15T13:28:00.069Z</time></trkpt><trkpt lat="44.3268541" lon="11.2900716"><ele>422.0</ele><time>2026-04-15T13:28:01.071Z</time></trkpt><trkpt lat="44.3267202" lon="11.2899599"><ele>422.0</ele><time>2026-04-15T13:28:02.075Z</time></trkpt><trkpt lat="44.3265646" lon="11.2898408"><ele>422.0</ele><time>2026-04-15T13:28:03.078Z</time></trkpt><trkpt lat="44.3264017" lon="11.2896975"><ele>424.3333333333333</ele><time>2026-04-15T13:28:04.079Z</time></trkpt><trkpt lat="44.3262552" lon="11.2895343"><ele>426.66666666666663</ele><time>2026-04-15T13:28:05.071Z</time></trkpt><trkpt lat="44.3261265" lon="11.2893633"><ele>429.0</ele><time>2026-04-15T13:28:06.066Z</time></trkpt><trkpt lat="44.3260063" lon="11.2891928"><ele>429.0</ele><time>2026-04-15T13:28:07.075Z</time></trkpt><trkpt lat="44.3258918" lon="11.2890316"><ele>429.0</ele><time>2026-04-15T13:28:08.069Z</time></trkpt><trkpt lat="44.3257756" lon="11.288893"><ele>429.0</ele><time>2026-04-15T13:28:09.073Z</time></trkpt><trkpt lat="44.3256475" lon="11.2887885"><ele>435.66666666666663</ele><time>2026-04-15T13:28:10.067Z</time></trkpt><trkpt lat="44.3255028" lon="11.288712"><ele>442.3333333333333</ele><time>2026-04-15T13:28:11.074Z</time></trkpt><trkpt lat="44.3253466" lon="11.2886604"><ele>449.0</ele><time>2026-04-15T13:28:12.079Z</time></trkpt><trkpt lat="44.3251771" lon="11.2886248"><ele>449.0</ele><time>2026-04-15T13:28:13.067Z</time></trkpt><trkpt lat="44.3250115" lon="11.2885718"><ele>449.0</ele><time>2026-04-15T13:28:14.08Z</time></trkpt><trkpt lat="44.3248543" lon="11.2885072"><ele>449.0</ele><time>2026-04-15T13:28:15.108Z</time></trkpt><trkpt lat="44.3247017" lon="11.288445"><ele>449.75</ele><time>2026-04-15T13:28:16.081Z</time></trkpt><trkpt lat="44.324555" lon="11.288376"><ele>450.5</ele><time>2026-04-15T13:28:17.067Z</time></trkpt><trkpt lat="44.3244225" lon="11.2883123"><ele>451.25</ele><time>2026-04-15T13:28:18.066Z</time></trkpt><trkpt lat="44.3243105" lon="11.288214"><ele>452.0</ele><time>2026-04-15T13:28:19.071Z</time></trkpt><trkpt lat="44.3242078" lon="11.288103"><ele>455.75</ele><time>2026-04-15T13:28:20.065Z</time></trkpt><trkpt lat="44.3241138" lon="11.2879884"><ele>459.5</ele><time>2026-04-15T13:28:21.089Z</time></trkpt><trkpt lat="44.3240242" lon="11.2878904"><ele>463.25</ele><time>2026-04-15T13:28:22.087Z</time></trkpt><trkpt lat="44.3239331" lon="11.2878126"><ele>467.0</ele><time>2026-04-15T13:28:23.065Z</time></trkpt><trkpt lat="44.3238376" lon="11.287741"><ele>469.75</ele><time>2026-04-15T13:28:24.073Z</time></trkpt><trkpt lat="44.3237378" lon="11.2876599"><ele>472.5</ele><time>2026-04-15T13:28:25.075Z</time></trkpt><trkpt lat="44.3236268" lon="11.2875658"><ele>475.25</ele><time>2026-04-15T13:28:26.064Z</time></trkpt><trkpt lat="44.3235014" lon="11.2874595"><ele>478.0</ele><time>2026-04-15T13:28:27.066Z</time></trkpt><trkpt lat="44.3233642" lon="11.2873447"><ele>495.0</ele><time>2026-04-15T13:28:28.116Z</time></trkpt><trkpt lat="44.3228888" lon="11.2870711"><ele>495.0</ele><time>2026-04-15T13:28:31.068Z</time></trkpt><trkpt lat="44.3227123" lon="11.2870156"><ele>495.0</ele><time>2026-04-15T13:28:32.096Z</time></trkpt><trkpt lat="44.3225396" lon="11.2869644"><ele>495.0</ele><time>2026-04-15T13:28:33.085Z</time></trkpt><trkpt lat="44.3223608" lon="11.2869332"><ele>498.33333333333337</ele><time>2026-04-15T13:28:34.077Z</time></trkpt><trkpt lat="44.322193" lon="11.2868905"><ele>501.6666666666667</ele><time>2026-04-15T13:28:35.088Z</time></trkpt><trkpt lat="44.322006" lon="11.286848"><ele>505.0</ele><time>2026-04-15T13:28:36.078Z</time></trkpt><trkpt lat="44.3218205" lon="11.2868112"><ele>505.0</ele><time>2026-04-15T13:28:37.061Z</time></trkpt><trkpt lat="44.3216374" lon="11.2867772"><ele>505.0</ele><time>2026-04-15T13:28:38.065Z</time></trkpt><trkpt lat="44.3214948" lon="11.2867479"><ele>505.0</ele><time>2026-04-15T13:28:39.071Z</time></trkpt><trkpt lat="44.3213468" lon="11.2867149"><ele>505.5</ele><time>2026-04-15T13:28:40.084Z</time></trkpt><trkpt lat="44.3212" lon="11.2866896"><ele>506.0</ele><time>2026-04-15T13:28:41.06Z</time></trkpt><trkpt lat="44.3210575" lon="11.2866899"><ele>506.5</ele><time>2026-04-15T13:28:42.07Z</time></trkpt><trkpt lat="44.3209043" lon="11.2866991"><ele>507.0</ele><time>2026-04-15T13:28:43.074Z</time></trkpt><trkpt lat="44.3207368" lon="11.2867195"><ele>507.0</ele><time>2026-04-15T13:28:44.066Z</time></trkpt><trkpt lat="44.3205662" lon="11.286731"><ele>507.0</ele><time>2026-04-15T13:28:45.069Z</time></trkpt><trkpt lat="44.3203916" lon="11.2867642"><ele>507.0</ele><time>2026-04-15T13:28:46.064Z</time></trkpt><trkpt lat="44.3202142" lon="11.2868087"><ele>510.33333333333337</ele><time>2026-04-15T13:28:47.07Z</time></trkpt><trkpt lat="44.320042" lon="11.2868713"><ele>513.6666666666667</ele><time>2026-04-15T13:28:48.083Z</time></trkpt><trkpt lat="44.3198802" lon="11.2869402"><ele>517.0</ele><time>2026-04-15T13:28:49.067Z</time></trkpt><trkpt lat="44.3197272" lon="11.2870232"><ele>523.0</ele><time>2026-04-15T13:28:50.065Z</time></trkpt><trkpt lat="44.3195742" lon="11.2871085"><ele>529.0</ele><time>2026-04-15T13:28:51.065Z</time></trkpt><trkpt lat="44.3194266" lon="11.2871633"><ele>535.0</ele><time>2026-04-15T13:28:52.062Z</time></trkpt><trkpt lat="44.319277" lon="11.2871768"><ele>535.0</ele><time>2026-04-15T13:28:53.073Z</time></trkpt><trkpt lat="44.3191207" lon="11.2871585"><ele>535.0</ele><time>2026-04-15T13:28:54.064Z</time></trkpt><trkpt lat="44.3189562" lon="11.2871256"><ele>535.0</ele><time>2026-04-15T13:28:55.058Z</time></trkpt><trkpt lat="44.3187925" lon="11.2870654"><ele>534.3333333333334</ele><time>2026-04-15T13:28:56.062Z</time></trkpt><trkpt lat="44.3186213" lon="11.286982"><ele>533.6666666666666</ele><time>2026-04-15T13:28:57.063Z</time></trkpt><trkpt lat="44.3184478" lon="11.2868898"><ele>533.0</ele><time>2026-04-15T13:28:58.061Z</time></trkpt><trkpt lat="44.3182792" lon="11.2867971"><ele>533.0</ele><time>2026-04-15T13:28:59.065Z</time></trkpt><trkpt lat="44.3181148" lon="11.2867079"><ele>533.0</ele><time>2026-04-15T13:29:00.058Z</time></trkpt><trkpt lat="44.3179715" lon="11.2866263"><ele>533.0</ele><time>2026-04-15T13:29:01.064Z</time></trkpt><trkpt lat="44.3178466" lon="11.2865396"><ele>531.5</ele><time>2026-04-15T13:29:02.075Z</time></trkpt><trkpt lat="44.3177412" lon="11.286458"><ele>530.0</ele><time>2026-04-15T13:29:03.085Z</time></trkpt><trkpt lat="44.317636" lon="11.2863646"><ele>528.5</ele><time>2026-04-15T13:29:04.068Z</time></trkpt><trkpt lat="44.3175281" lon="11.2862562"><ele>527.0</ele><time>2026-04-15T13:29:05.059Z</time></trkpt><trkpt lat="44.3174303" lon="11.2861173"><ele>530.5</ele><time>2026-04-15T13:29:06.057Z</time></trkpt><trkpt lat="44.317329" lon="11.2859507"><ele>534.0</ele><time>2026-04-15T13:29:07.065Z</time></trkpt><trkpt lat="44.3172174" lon="11.2858019"><ele>537.5</ele><time>2026-04-15T13:29:08.077Z</time></trkpt><trkpt lat="44.3170993" lon="11.2857065"><ele>541.0</ele><time>2026-04-15T13:29:09.062Z</time></trkpt><trkpt lat="44.3169909" lon="11.2856528"><ele>541.0</ele><time>2026-04-15T13:29:10.07Z</time></trkpt><trkpt lat="44.3168858" lon="11.2856367"><ele>541.0</ele><time>2026-04-15T13:29:11.059Z</time></trkpt><trkpt lat="44.3167922" lon="11.2856456"><ele>541.0</ele><time>2026-04-15T13:29:12.069Z</time></trkpt><trkpt lat="44.3167215" lon="11.2856668"><ele>541.0</ele><time>2026-04-15T13:29:13.063Z</time></trkpt><trkpt lat="44.3166588" lon="11.2856458"><ele>541.0</ele><time>2026-04-15T13:29:14.065Z</time></trkpt><trkpt lat="44.3166152" lon="11.285516"><ele>541.0</ele><time>2026-04-15T13:29:16.071Z</time></trkpt><trkpt lat="44.3166916" lon="11.2853575"><ele>544.4</ele><time>2026-04-15T13:29:18.072Z</time></trkpt><trkpt lat="44.3167533" lon="11.2852695"><ele>547.8</ele><time>2026-04-15T13:29:19.063Z</time></trkpt><trkpt lat="44.316821" lon="11.285169"><ele>551.1999999999999</ele><time>2026-04-15T13:29:20.065Z</time></trkpt><trkpt lat="44.3169098" lon="11.2850702"><ele>554.6</ele><time>2026-04-15T13:29:21.084Z</time></trkpt><trkpt lat="44.3169906" lon="11.2849828"><ele>558.0</ele><time>2026-04-15T13:29:22.062Z</time></trkpt><trkpt lat="44.3170832" lon="11.2849431"><ele>558.0</ele><time>2026-04-15T13:29:23.073Z</time></trkpt><trkpt lat="44.3171692" lon="11.2849229"><ele>558.0</ele><time>2026-04-15T13:29:24.065Z</time></trkpt><trkpt lat="44.3172361" lon="11.2849056"><ele>558.0</ele><time>2026-04-15T13:29:25.066Z</time></trkpt><trkpt lat="44.3172183" lon="11.2847388"><ele>558.0</ele><time>2026-04-15T13:29:28.073Z</time></trkpt><trkpt lat="44.3171763" lon="11.2846424"><ele>558.0</ele><time>2026-04-15T13:29:29.056Z</time></trkpt><trkpt lat="44.3171341" lon="11.2845324"><ele>558.0</ele><time>2026-04-15T13:29:30.066Z</time></trkpt><trkpt lat="44.3170751" lon="11.2844318"><ele>558.75</ele><time>2026-04-15T13:29:31.065Z</time></trkpt><trkpt lat="44.3170029" lon="11.2843448"><ele>559.5</ele><time>2026-04-15T13:29:32.063Z</time></trkpt><trkpt lat="44.3169152" lon="11.2842656"><ele>560.25</ele><time>2026-04-15T13:29:33.082Z</time></trkpt><trkpt lat="44.316686" lon="11.2841425"><ele>561.0</ele><time>2026-04-15T13:29:35.066Z</time></trkpt><trkpt lat="44.3164748" lon="11.2839746"><ele>557.0</ele><time>2026-04-15T13:29:37.067Z</time></trkpt><trkpt lat="44.3163975" lon="11.2838613"><ele>553.0</ele><time>2026-04-15T13:29:38.066Z</time></trkpt><trkpt lat="44.3163349" lon="11.283745"><ele>549.0</ele><time>2026-04-15T13:29:39.068Z</time></trkpt><trkpt lat="44.3162836" lon="11.2836181"><ele>545.0</ele><time>2026-04-15T13:29:40.057Z</time></trkpt><trkpt lat="44.3162403" lon="11.2834778"><ele>541.0</ele><time>2026-04-15T13:29:41.087Z</time></trkpt><trkpt lat="44.316189" lon="11.2833385"><ele>541.0</ele><time>2026-04-15T13:29:42.08Z</time></trkpt><trkpt lat="44.3161178" lon="11.283212"><ele>541.0</ele><time>2026-04-15T13:29:43.056Z</time></trkpt><trkpt lat="44.3160321" lon="11.2831104"><ele>541.0</ele><time>2026-04-15T13:29:44.071Z</time></trkpt><trkpt lat="44.3159255" lon="11.2830418"><ele>541.0</ele><time>2026-04-15T13:29:45.09Z</time></trkpt><trkpt lat="44.315814" lon="11.2829848"><ele>525.0</ele><time>2026-04-15T13:29:46.073Z</time></trkpt><trkpt lat="44.3154154" lon="11.2829051"><ele>509.0</ele><time>2026-04-15T13:29:49.061Z</time></trkpt><trkpt lat="44.3152792" lon="11.2829165"><ele>509.0</ele><time>2026-04-15T13:29:50.066Z</time></trkpt><trkpt lat="44.3149449" lon="11.2829329"><ele>509.0</ele><time>2026-04-15T13:29:53.058Z</time></trkpt><trkpt lat="44.3148529" lon="11.2829131"><ele>509.0</ele><time>2026-04-15T13:29:54.112Z</time></trkpt><trkpt lat="44.3147632" lon="11.2828516"><ele>507.5</ele><time>2026-04-15T13:29:55.051Z</time></trkpt><trkpt lat="44.3146601" lon="11.2827895"><ele>506.0</ele><time>2026-04-15T13:29:56.054Z</time></trkpt><trkpt lat="44.3145593" lon="11.2826923"><ele>504.5</ele><time>2026-04-15T13:29:57.057Z</time></trkpt><trkpt lat="44.3144643" lon="11.2825847"><ele>503.0</ele><time>2026-04-15T13:29:58.058Z</time></trkpt><trkpt lat="44.3143703" lon="11.2824648"><ele>503.0</ele><time>2026-04-15T13:29:59.066Z</time></trkpt><trkpt lat="44.3142745" lon="11.2823427"><ele>503.0</ele><time>2026-04-15T13:30:00.062Z</time></trkpt><trkpt lat="44.3141794" lon="11.2822238"><ele>503.0</ele><time>2026-04-15T13:30:01.072Z</time></trkpt><trkpt lat="44.3140946" lon="11.282101"><ele>503.0</ele><time>2026-04-15T13:30:02.062Z</time></trkpt><trkpt lat="44.3140196" lon="11.2819845"><ele>503.25</ele><time>2026-04-15T13:30:03.058Z</time></trkpt><trkpt lat="44.3139592" lon="11.2818465"><ele>503.5</ele><time>2026-04-15T13:30:04.059Z</time></trkpt><trkpt lat="44.3139175" lon="11.2816965"><ele>503.75</ele><time>2026-04-15T13:30:05.055Z</time></trkpt><trkpt lat="44.3138681" lon="11.28153"><ele>504.0</ele><time>2026-04-15T13:30:06.052Z</time></trkpt><trkpt lat="44.3138093" lon="11.2813587"><ele>497.0</ele><time>2026-04-15T13:30:07.056Z</time></trkpt><trkpt lat="44.3137455" lon="11.2811718"><ele>490.0</ele><time>2026-04-15T13:30:08.053Z</time></trkpt><trkpt lat="44.3136862" lon="11.2809811"><ele>483.0</ele><time>2026-04-15T13:30:09.057Z</time></trkpt><trkpt lat="44.3136349" lon="11.2808093"><ele>476.0</ele><time>2026-04-15T13:30:10.053Z</time></trkpt><trkpt lat="44.3135574" lon="11.2805181"><ele>476.0</ele><time>2026-04-15T13:30:12.058Z</time></trkpt><trkpt lat="44.3135329" lon="11.2803749"><ele>476.0</ele><time>2026-04-15T13:30:13.061Z</time></trkpt><trkpt lat="44.3135116" lon="11.2800099"><ele>476.0</ele><time>2026-04-15T13:30:15.054Z</time></trkpt><trkpt lat="44.3134959" lon="11.2798235"><ele>474.5</ele><time>2026-04-15T13:30:16.056Z</time></trkpt><trkpt lat="44.3134952" lon="11.2796522"><ele>473.0</ele><time>2026-04-15T13:30:17.053Z</time></trkpt><trkpt lat="44.313486" lon="11.2794789"><ele>471.5</ele><time>2026-04-15T13:30:18.049Z</time></trkpt><trkpt lat="44.3134781" lon="11.2793042"><ele>470.0</ele><time>2026-04-15T13:30:19.07Z</time></trkpt><trkpt lat="44.3134913" lon="11.2791593"><ele>469.99999999999994</ele><time>2026-04-15T13:30:20.055Z</time></trkpt><trkpt lat="44.3135055" lon="11.2790369"><ele>470.0</ele><time>2026-04-15T13:30:21.052Z</time></trkpt><trkpt lat="44.3135148" lon="11.2789279"><ele>470.0</ele><time>2026-04-15T13:30:22.065Z</time></trkpt><trkpt lat="44.3135121" lon="11.2788355"><ele>470.0</ele><time>2026-04-15T13:30:23.062Z</time></trkpt><trkpt lat="44.3134288" lon="11.2787117"><ele>469.99999999999994</ele><time>2026-04-15T13:30:25.063Z</time></trkpt><trkpt lat="44.3133553" lon="11.2787151"><ele>470.0</ele><time>2026-04-15T13:30:26.06Z</time></trkpt><trkpt lat="44.3132763" lon="11.2787664"><ele>470.0</ele><time>2026-04-15T13:30:27.062Z</time></trkpt><trkpt lat="44.3132212" lon="11.2788254"><ele>470.0</ele><time>2026-04-15T13:30:28.057Z</time></trkpt><trkpt lat="44.3131822" lon="11.2789368"><ele>470.0</ele><time>2026-04-15T13:30:29.06Z</time></trkpt><trkpt lat="44.3131245" lon="11.2790903"><ele>470.0</ele><time>2026-04-15T13:30:30.053Z</time></trkpt><trkpt lat="44.3130833" lon="11.2792626"><ele>470.0</ele><time>2026-04-15T13:30:31.058Z</time></trkpt><trkpt lat="44.3130557" lon="11.2794473"><ele>465.5</ele><time>2026-04-15T13:30:32.065Z</time></trkpt><trkpt lat="44.3130353" lon="11.2796335"><ele>461.0</ele><time>2026-04-15T13:30:33.055Z</time></trkpt><trkpt lat="44.3130261" lon="11.2798213"><ele>456.5</ele><time>2026-04-15T13:30:34.061Z</time></trkpt><trkpt lat="44.3130271" lon="11.2799987"><ele>452.0</ele><time>2026-04-15T13:30:35.056Z</time></trkpt><trkpt lat="44.3130296" lon="11.2801723"><ele>452.0</ele><time>2026-04-15T13:30:36.071Z</time></trkpt><trkpt lat="44.3130262" lon="11.2803252"><ele>452.0</ele><time>2026-04-15T13:30:37.067Z</time></trkpt><trkpt lat="44.3129903" lon="11.2805314"><ele>452.0</ele><time>2026-04-15T13:30:39.065Z</time></trkpt><trkpt lat="44.312868" lon="11.2806025"><ele>452.0</ele><time>2026-04-15T13:30:41.068Z</time></trkpt><trkpt lat="44.3127875" lon="11.28058"><ele>452.0</ele><time>2026-04-15T13:30:42.055Z</time></trkpt><trkpt lat="44.3127099" lon="11.280514"><ele>452.00000000000006</ele><time>2026-04-15T13:30:43.077Z</time></trkpt><trkpt lat="44.3126544" lon="11.2803826"><ele>452.00000000000006</ele><time>2026-04-15T13:30:44.056Z</time></trkpt><trkpt lat="44.3126028" lon="11.2802616"><ele>452.0</ele><time>2026-04-15T13:30:45.082Z</time></trkpt><trkpt lat="44.3125529" lon="11.2801188"><ele>452.0</ele><time>2026-04-15T13:30:46.058Z</time></trkpt><trkpt lat="44.3125021" lon="11.2799875"><ele>452.0</ele><time>2026-04-15T13:30:47.055Z</time></trkpt><trkpt lat="44.3124594" lon="11.2798435"><ele>452.00000000000006</ele><time>2026-04-15T13:30:48.061Z</time></trkpt><trkpt lat="44.3124218" lon="11.2797005"><ele>452.00000000000006</ele><time>2026-04-15T13:30:49.058Z</time></trkpt><trkpt lat="44.3123881" lon="11.2795698"><ele>452.0</ele><time>2026-04-15T13:30:50.056Z</time></trkpt><trkpt lat="44.3123664" lon="11.2794628"><ele>452.0</ele><time>2026-04-15T13:30:51.055Z</time></trkpt><trkpt lat="44.3123305" lon="11.2793289"><ele>449.0</ele><time>2026-04-15T13:30:53.062Z</time></trkpt><trkpt lat="44.3122126" lon="11.2793131"><ele>446.00000000000006</ele><time>2026-04-15T13:30:56.05Z</time></trkpt><trkpt lat="44.3121252" lon="11.2792926"><ele>443.00000000000006</ele><time>2026-04-15T13:30:57.054Z</time></trkpt><trkpt lat="44.3120306" lon="11.279252"><ele>440.0</ele><time>2026-04-15T13:30:58.059Z</time></trkpt><trkpt lat="44.3119347" lon="11.2791694"><ele>437.0</ele><time>2026-04-15T13:30:59.047Z</time></trkpt><trkpt lat="44.3118265" lon="11.2790568"><ele>437.0</ele><time>2026-04-15T13:31:00.049Z</time></trkpt><trkpt lat="44.3117114" lon="11.2789505"><ele>437.0</ele><time>2026-04-15T13:31:01.069Z</time></trkpt><trkpt lat="44.3115865" lon="11.2788605"><ele>437.0</ele><time>2026-04-15T13:31:02.052Z</time></trkpt><trkpt lat="44.311445" lon="11.2787824"><ele>437.0</ele><time>2026-04-15T13:31:03.048Z</time></trkpt><trkpt lat="44.3113041" lon="11.2787148"><ele>437.3333333333333</ele><time>2026-04-15T13:31:04.063Z</time></trkpt><trkpt lat="44.3111574" lon="11.2786544"><ele>437.66666666666663</ele><time>2026-04-15T13:31:05.07Z</time></trkpt><trkpt lat="44.3110153" lon="11.2786018"><ele>438.0</ele><time>2026-04-15T13:31:06.06Z</time></trkpt><trkpt lat="44.3108641" lon="11.2785604"><ele>438.0</ele><time>2026-04-15T13:31:07.071Z</time></trkpt><trkpt lat="44.3107032" lon="11.2785305"><ele>438.0</ele><time>2026-04-15T13:31:08.069Z</time></trkpt><trkpt lat="44.3105425" lon="11.2785164"><ele>438.0</ele><time>2026-04-15T13:31:09.056Z</time></trkpt><trkpt lat="44.3103777" lon="11.2785172"><ele>437.33333333333337</ele><time>2026-04-15T13:31:10.051Z</time></trkpt><trkpt lat="44.3102127" lon="11.278534"><ele>436.6666666666667</ele><time>2026-04-15T13:31:11.054Z</time></trkpt><trkpt lat="44.3100531" lon="11.2785684"><ele>436.0</ele><time>2026-04-15T13:31:12.056Z</time></trkpt><trkpt lat="44.309889" lon="11.2786273"><ele>433.33333333333337</ele><time>2026-04-15T13:31:13.043Z</time></trkpt><trkpt lat="44.3097322" lon="11.2787156"><ele>430.66666666666663</ele><time>2026-04-15T13:31:14.044Z</time></trkpt><trkpt lat="44.309578" lon="11.2788266"><ele>428.0</ele><time>2026-04-15T13:31:15.059Z</time></trkpt><trkpt lat="44.3094283" lon="11.2789232"><ele>431.0</ele><time>2026-04-15T13:31:16.059Z</time></trkpt><trkpt lat="44.3092755" lon="11.2789921"><ele>434.0</ele><time>2026-04-15T13:31:17.063Z</time></trkpt><trkpt lat="44.3091107" lon="11.2790316"><ele>437.0</ele><time>2026-04-15T13:31:18.052Z</time></trkpt><trkpt lat="44.3089399" lon="11.2790432"><ele>435.0</ele><time>2026-04-15T13:31:19.054Z</time></trkpt><trkpt lat="44.3087679" lon="11.2790358"><ele>433.0</ele><time>2026-04-15T13:31:20.048Z</time></trkpt><trkpt lat="44.3085928" lon="11.2790227"><ele>431.0</ele><time>2026-04-15T13:31:21.058Z</time></trkpt><trkpt lat="44.3084197" lon="11.2789896"><ele>431.0</ele><time>2026-04-15T13:31:22.055Z</time></trkpt><trkpt lat="44.308257" lon="11.2789354"><ele>431.0</ele><time>2026-04-15T13:31:23.063Z</time></trkpt><trkpt lat="44.3081088" lon="11.2788755"><ele>431.0</ele><time>2026-04-15T13:31:24.044Z</time></trkpt><trkpt lat="44.3079727" lon="11.2788296"><ele>432.0</ele><time>2026-04-15T13:31:25.047Z</time></trkpt><trkpt lat="44.3078428" lon="11.2788305"><ele>433.0</ele><time>2026-04-15T13:31:26.064Z</time></trkpt><trkpt lat="44.3077094" lon="11.2788922"><ele>434.0</ele><time>2026-04-15T13:31:27.049Z</time></trkpt><trkpt lat="44.3075781" lon="11.2789948"><ele>435.0</ele><time>2026-04-15T13:31:28.047Z</time></trkpt><trkpt lat="44.3074375" lon="11.2790816"><ele>436.5</ele><time>2026-04-15T13:31:29.05Z</time></trkpt><trkpt lat="44.307302" lon="11.2791472"><ele>438.0</ele><time>2026-04-15T13:31:30.04Z</time></trkpt><trkpt lat="44.3071571" lon="11.2791725"><ele>439.5</ele><time>2026-04-15T13:31:31.043Z</time></trkpt><trkpt lat="44.3070057" lon="11.2791481"><ele>441.0</ele><time>2026-04-15T13:31:32.05Z</time></trkpt><trkpt lat="44.3068395" lon="11.2791242"><ele>444.0</ele><time>2026-04-15T13:31:33.055Z</time></trkpt><trkpt lat="44.3066538" lon="11.2791058"><ele>447.0</ele><time>2026-04-15T13:31:34.046Z</time></trkpt><trkpt lat="44.3064651" lon="11.2790864"><ele>450.0</ele><time>2026-04-15T13:31:35.049Z</time></trkpt><trkpt lat="44.3060798" lon="11.2791375"><ele>450.66666666666663</ele><time>2026-04-15T13:31:37.055Z</time></trkpt><trkpt lat="44.3058847" lon="11.279169"><ele>451.3333333333333</ele><time>2026-04-15T13:31:38.064Z</time></trkpt><trkpt lat="44.3056956" lon="11.2791699"><ele>452.0</ele><time>2026-04-15T13:31:39.046Z</time></trkpt><trkpt lat="44.3055102" lon="11.279155"><ele>453.66666666666663</ele><time>2026-04-15T13:31:40.061Z</time></trkpt><trkpt lat="44.3053322" lon="11.2791333"><ele>455.33333333333337</ele><time>2026-04-15T13:31:41.049Z</time></trkpt><trkpt lat="44.3051641" lon="11.2791532"><ele>457.0</ele><time>2026-04-15T13:31:42.038Z</time></trkpt><trkpt lat="44.3049903" lon="11.2792097"><ele>457.0</ele><time>2026-04-15T13:31:43.035Z</time></trkpt><trkpt lat="44.3048187" lon="11.2792935"><ele>457.0</ele><time>2026-04-15T13:31:44.05Z</time></trkpt><trkpt lat="44.3046475" lon="11.2793924"><ele>457.0</ele><time>2026-04-15T13:31:45.054Z</time></trkpt><trkpt lat="44.3044745" lon="11.2794874"><ele>460.33333333333337</ele><time>2026-04-15T13:31:46.045Z</time></trkpt><trkpt lat="44.3043039" lon="11.279553"><ele>463.66666666666663</ele><time>2026-04-15T13:31:47.042Z</time></trkpt><trkpt lat="44.3041364" lon="11.2795874"><ele>467.0</ele><time>2026-04-15T13:31:48.044Z</time></trkpt><trkpt lat="44.3039796" lon="11.2795969"><ele>469.0</ele><time>2026-04-15T13:31:49.052Z</time></trkpt><trkpt lat="44.3038138" lon="11.2795658"><ele>471.0</ele><time>2026-04-15T13:31:50.041Z</time></trkpt><trkpt lat="44.3036565" lon="11.2795088"><ele>473.0</ele><time>2026-04-15T13:31:51.041Z</time></trkpt><trkpt lat="44.3034957" lon="11.2794439"><ele>473.0</ele><time>2026-04-15T13:31:52.046Z</time></trkpt><trkpt lat="44.3033262" lon="11.2793859"><ele>473.0</ele><time>2026-04-15T13:31:53.053Z</time></trkpt><trkpt lat="44.3031494" lon="11.2793184"><ele>473.0</ele><time>2026-04-15T13:31:54.044Z</time></trkpt><trkpt lat="44.3029734" lon="11.2792507"><ele>471.5</ele><time>2026-04-15T13:31:55.054Z</time></trkpt><trkpt lat="44.302651" lon="11.2791813"><ele>470.0</ele><time>2026-04-15T13:31:57.045Z</time></trkpt><trkpt lat="44.3024887" lon="11.2791866"><ele>470.0</ele><time>2026-04-15T13:31:58.045Z</time></trkpt><trkpt lat="44.3023198" lon="11.2791727"><ele>470.0</ele><time>2026-04-15T13:31:59.038Z</time></trkpt><trkpt lat="44.3021668" lon="11.2791126"><ele>470.0</ele><time>2026-04-15T13:32:00.049Z</time></trkpt><trkpt lat="44.3020214" lon="11.2790406"><ele>469.3333333333333</ele><time>2026-04-15T13:32:01.053Z</time></trkpt><trkpt lat="44.3018698" lon="11.2789788"><ele>468.66666666666663</ele><time>2026-04-15T13:32:02.047Z</time></trkpt><trkpt lat="44.3017025" lon="11.2789746"><ele>468.0</ele><time>2026-04-15T13:32:03.054Z</time></trkpt><trkpt lat="44.3015309" lon="11.2790445"><ele>469.0</ele><time>2026-04-15T13:32:04.04Z</time></trkpt><trkpt lat="44.3013523" lon="11.279104"><ele>470.0</ele><time>2026-04-15T13:32:05.047Z</time></trkpt><trkpt lat="44.3011647" lon="11.2791569"><ele>471.0</ele><time>2026-04-15T13:32:06.044Z</time></trkpt><trkpt lat="44.3009657" lon="11.2792059"><ele>471.0</ele><time>2026-04-15T13:32:07.055Z</time></trkpt><trkpt lat="44.3007607" lon="11.2792416"><ele>471.0</ele><time>2026-04-15T13:32:08.055Z</time></trkpt><trkpt lat="44.3005636" lon="11.2792651"><ele>471.0</ele><time>2026-04-15T13:32:09.036Z</time></trkpt><trkpt lat="44.3003743" lon="11.2792614"><ele>474.33333333333337</ele><time>2026-04-15T13:32:10.056Z</time></trkpt><trkpt lat="44.3002017" lon="11.279237"><ele>477.6666666666667</ele><time>2026-04-15T13:32:11.037Z</time></trkpt><trkpt lat="44.3000428" lon="11.2792082"><ele>481.0</ele><time>2026-04-15T13:32:12.039Z</time></trkpt><trkpt lat="44.2998886" lon="11.2792121"><ele>481.0</ele><time>2026-04-15T13:32:13.052Z</time></trkpt><trkpt lat="44.299596" lon="11.2793321"><ele>481.0</ele><time>2026-04-15T13:32:15.054Z</time></trkpt><trkpt lat="44.2994385" lon="11.2794068"><ele>481.0</ele><time>2026-04-15T13:32:16.057Z</time></trkpt><trkpt lat="44.2992742" lon="11.2794496"><ele>481.0</ele><time>2026-04-15T13:32:17.041Z</time></trkpt><trkpt lat="44.2991053" lon="11.2794647"><ele>481.0</ele><time>2026-04-15T13:32:18.037Z</time></trkpt><trkpt lat="44.2989364" lon="11.2794932"><ele>476.33333333333337</ele><time>2026-04-15T13:32:19.041Z</time></trkpt><trkpt lat="44.29877" lon="11.279534"><ele>471.66666666666663</ele><time>2026-04-15T13:32:20.041Z</time></trkpt><trkpt lat="44.2986152" lon="11.279605"><ele>467.0</ele><time>2026-04-15T13:32:21.049Z</time></trkpt><trkpt lat="44.2984582" lon="11.2796851"><ele>467.0</ele><time>2026-04-15T13:32:22.047Z</time></trkpt><trkpt lat="44.2983111" lon="11.2797387"><ele>467.0</ele><time>2026-04-15T13:32:23.035Z</time></trkpt><trkpt lat="44.2981724" lon="11.2797589"><ele>467.0</ele><time>2026-04-15T13:32:24.047Z</time></trkpt><trkpt lat="44.2980239" lon="11.2797236"><ele>467.0</ele><time>2026-04-15T13:32:25.045Z</time></trkpt><trkpt lat="44.2978669" lon="11.279658"><ele>466.66666666666663</ele><time>2026-04-15T13:32:26.043Z</time></trkpt><trkpt lat="44.2977136" lon="11.2795652"><ele>466.33333333333337</ele><time>2026-04-15T13:32:27.039Z</time></trkpt><trkpt lat="44.2975715" lon="11.2794704"><ele>466.0</ele><time>2026-04-15T13:32:28.038Z</time></trkpt><trkpt lat="44.2972096" lon="11.2793247"><ele>466.0</ele><time>2026-04-15T13:32:31.031Z</time></trkpt><trkpt lat="44.2970823" lon="11.2793463"><ele>466.0</ele><time>2026-04-15T13:32:32.055Z</time></trkpt><trkpt lat="44.29697" lon="11.279412"><ele>466.0</ele><time>2026-04-15T13:32:33.059Z</time></trkpt><trkpt lat="44.2968785" lon="11.2795171"><ele>466.0</ele><time>2026-04-15T13:32:34.031Z</time></trkpt><trkpt lat="44.2968058" lon="11.279655"><ele>467.0</ele><time>2026-04-15T13:32:35.037Z</time></trkpt><trkpt lat="44.2967733" lon="11.279816"><ele>468.0</ele><time>2026-04-15T13:32:36.044Z</time></trkpt><trkpt lat="44.2967837" lon="11.2799916"><ele>469.0</ele><time>2026-04-15T13:32:37.037Z</time></trkpt><trkpt lat="44.2968382" lon="11.2801623"><ele>470.0</ele><time>2026-04-15T13:32:38.044Z</time></trkpt><trkpt lat="44.2968812" lon="11.2803499"><ele>470.0</ele><time>2026-04-15T13:32:39.051Z</time></trkpt><trkpt lat="44.2968865" lon="11.2805421"><ele>470.0</ele><time>2026-04-15T13:32:40.039Z</time></trkpt><trkpt lat="44.2968602" lon="11.2807245"><ele>470.0</ele><time>2026-04-15T13:32:41.035Z</time></trkpt><trkpt lat="44.2967929" lon="11.2808825"><ele>470.0</ele><time>2026-04-15T13:32:42.036Z</time></trkpt><trkpt lat="44.29669" lon="11.2810057"><ele>469.5</ele><time>2026-04-15T13:32:43.05Z</time></trkpt><trkpt lat="44.2965803" lon="11.2810741"><ele>469.0</ele><time>2026-04-15T13:32:44.044Z</time></trkpt><trkpt lat="44.2964488" lon="11.2811139"><ele>468.5</ele><time>2026-04-15T13:32:45.046Z</time></trkpt><trkpt lat="44.2963111" lon="11.2811483"><ele>468.0</ele><time>2026-04-15T13:32:46.04Z</time></trkpt><trkpt lat="44.2961651" lon="11.2811518"><ele>468.0</ele><time>2026-04-15T13:32:47.035Z</time></trkpt><trkpt lat="44.2960234" lon="11.2811255"><ele>468.0</ele><time>2026-04-15T13:32:48.038Z</time></trkpt><trkpt lat="44.2958935" lon="11.2810457"><ele>468.0</ele><time>2026-04-15T13:32:49.035Z</time></trkpt><trkpt lat="44.2957723" lon="11.2809279"><ele>468.0</ele><time>2026-04-15T13:32:50.057Z</time></trkpt><trkpt lat="44.2956586" lon="11.2807949"><ele>474.0</ele><time>2026-04-15T13:32:51.039Z</time></trkpt><trkpt lat="44.2955434" lon="11.2806731"><ele>480.0</ele><time>2026-04-15T13:32:52.038Z</time></trkpt><trkpt lat="44.2954417" lon="11.2805696"><ele>486.0</ele><time>2026-04-15T13:32:53.037Z</time></trkpt><trkpt lat="44.2953506" lon="11.2803069"><ele>486.0</ele><time>2026-04-15T13:32:55.042Z</time></trkpt><trkpt lat="44.29535" lon="11.2801644"><ele>486.0</ele><time>2026-04-15T13:32:56.043Z</time></trkpt><trkpt lat="44.2953498" lon="11.2800167"><ele>486.0</ele><time>2026-04-15T13:32:57.042Z</time></trkpt><trkpt lat="44.2953376" lon="11.2798746"><ele>486.0</ele><time>2026-04-15T13:32:58.04Z</time></trkpt><trkpt lat="44.2952969" lon="11.2797288"><ele>486.0</ele><time>2026-04-15T13:32:59.031Z</time></trkpt><trkpt lat="44.2952127" lon="11.2796121"><ele>483.0</ele><time>2026-04-15T13:33:00.049Z</time></trkpt><trkpt lat="44.2951156" lon="11.279528"><ele>480.0</ele><time>2026-04-15T13:33:01.045Z</time></trkpt><trkpt lat="44.2950029" lon="11.2794972"><ele>477.0</ele><time>2026-04-15T13:33:02.046Z</time></trkpt><trkpt lat="44.2948905" lon="11.2795114"><ele>474.0</ele><time>2026-04-15T13:33:03.031Z</time></trkpt><trkpt lat="44.2947803" lon="11.2795622"><ele>477.25</ele><time>2026-04-15T13:33:04.038Z</time></trkpt><trkpt lat="44.2946706" lon="11.2796238"><ele>480.5</ele><time>2026-04-15T13:33:05.037Z</time></trkpt><trkpt lat="44.2945533" lon="11.2796592"><ele>483.75</ele><time>2026-04-15T13:33:06.042Z</time></trkpt><trkpt lat="44.2944293" lon="11.2796538"><ele>487.0</ele><time>2026-04-15T13:33:07.033Z</time></trkpt><trkpt lat="44.2942983" lon="11.2796326"><ele>487.0</ele><time>2026-04-15T13:33:08.037Z</time></trkpt><trkpt lat="44.2941667" lon="11.2795952"><ele>487.0</ele><time>2026-04-15T13:33:09.035Z</time></trkpt><trkpt lat="44.2940357" lon="11.2795336"><ele>487.0</ele><time>2026-04-15T13:33:10.031Z</time></trkpt><trkpt lat="44.293909" lon="11.2794368"><ele>487.0</ele><time>2026-04-15T13:33:11.035Z</time></trkpt><trkpt lat="44.2937973" lon="11.2793001"><ele>487.0</ele><time>2026-04-15T13:33:12.041Z</time></trkpt><trkpt lat="44.2936987" lon="11.2791474"><ele>487.0</ele><time>2026-04-15T13:33:13.039Z</time></trkpt><trkpt lat="44.2935996" lon="11.2789727"><ele>487.0</ele><time>2026-04-15T13:33:14.03Z</time></trkpt><trkpt lat="44.2934958" lon="11.2787813"><ele>488.0</ele><time>2026-04-15T13:33:15.026Z</time></trkpt><trkpt lat="44.2933864" lon="11.2785935"><ele>489.0</ele><time>2026-04-15T13:33:16.034Z</time></trkpt><trkpt lat="44.2932683" lon="11.2784135"><ele>490.0</ele><time>2026-04-15T13:33:17.033Z</time></trkpt><trkpt lat="44.2930167" lon="11.2780444"><ele>493.0</ele><time>2026-04-15T13:33:19.035Z</time></trkpt><trkpt lat="44.2928851" lon="11.2778666"><ele>496.0</ele><time>2026-04-15T13:33:20.027Z</time></trkpt><trkpt lat="44.2927454" lon="11.2776914"><ele>499.0</ele><time>2026-04-15T13:33:21.042Z</time></trkpt><trkpt lat="44.2925908" lon="11.2775283"><ele>499.0</ele><time>2026-04-15T13:33:22.031Z</time></trkpt><trkpt lat="44.2924284" lon="11.2774005"><ele>499.0</ele><time>2026-04-15T13:33:23.048Z</time></trkpt><trkpt lat="44.2922587" lon="11.2773014"><ele>499.0</ele><time>2026-04-15T13:33:24.052Z</time></trkpt><trkpt lat="44.2920944" lon="11.2772038"><ele>502.6666666666667</ele><time>2026-04-15T13:33:25.056Z</time></trkpt><trkpt lat="44.2919373" lon="11.2770956"><ele>506.33333333333337</ele><time>2026-04-15T13:33:26.043Z</time></trkpt><trkpt lat="44.2917793" lon="11.2769993"><ele>510.0</ele><time>2026-04-15T13:33:27.024Z</time></trkpt><trkpt lat="44.2914361" lon="11.2769089"><ele>509.0</ele><time>2026-04-15T13:33:29.043Z</time></trkpt><trkpt lat="44.2912637" lon="11.2769021"><ele>508.0</ele><time>2026-04-15T13:33:30.03Z</time></trkpt><trkpt lat="44.2910804" lon="11.2769033"><ele>507.0</ele><time>2026-04-15T13:33:31.025Z</time></trkpt><trkpt lat="44.2908966" lon="11.2769072"><ele>507.0</ele><time>2026-04-15T13:33:32.036Z</time></trkpt><trkpt lat="44.2907173" lon="11.2768942"><ele>507.0</ele><time>2026-04-15T13:33:33.028Z</time></trkpt><trkpt lat="44.2903807" lon="11.2768691"><ele>506.0</ele><time>2026-04-15T13:33:35.047Z</time></trkpt><trkpt lat="44.2902238" lon="11.2768681"><ele>505.0</ele><time>2026-04-15T13:33:36.044Z</time></trkpt><trkpt lat="44.289959" lon="11.2768826"><ele>504.0</ele><time>2026-04-15T13:33:38.041Z</time></trkpt><trkpt lat="44.2898398" lon="11.2768755"><ele>504.4</ele><time>2026-04-15T13:33:39.039Z</time></trkpt><trkpt lat="44.289729" lon="11.2768798"><ele>504.79999999999995</ele><time>2026-04-15T13:33:40.022Z</time></trkpt><trkpt lat="44.2896304" lon="11.2768868"><ele>505.20000000000005</ele><time>2026-04-15T13:33:41.028Z</time></trkpt><trkpt lat="44.2895343" lon="11.2769078"><ele>505.6</ele><time>2026-04-15T13:33:42.034Z</time></trkpt><trkpt lat="44.2894276" lon="11.2769405"><ele>506.0</ele><time>2026-04-15T13:33:43.028Z</time></trkpt><trkpt lat="44.2893061" lon="11.2769816"><ele>506.0</ele><time>2026-04-15T13:33:44.037Z</time></trkpt><trkpt lat="44.2891767" lon="11.2770265"><ele>506.0</ele><time>2026-04-15T13:33:45.045Z</time></trkpt><trkpt lat="44.2890405" lon="11.2770515"><ele>506.0</ele><time>2026-04-15T13:33:46.038Z</time></trkpt><trkpt lat="44.2889027" lon="11.2770902"><ele>506.0</ele><time>2026-04-15T13:33:47.029Z</time></trkpt><trkpt lat="44.288764" lon="11.277141"><ele>506.0</ele><time>2026-04-15T13:33:48.031Z</time></trkpt><trkpt lat="44.2886225" lon="11.2772118"><ele>506.0</ele><time>2026-04-15T13:33:49.036Z</time></trkpt><trkpt lat="44.2884823" lon="11.2773072"><ele>506.0</ele><time>2026-04-15T13:33:50.025Z</time></trkpt><trkpt lat="44.2883312" lon="11.2773971"><ele>505.66666666666663</ele><time>2026-04-15T13:33:51.126Z</time></trkpt><trkpt lat="44.2881681" lon="11.2774672"><ele>505.33333333333337</ele><time>2026-04-15T13:33:52.027Z</time></trkpt><trkpt lat="44.2880006" lon="11.2775153"><ele>505.0</ele><time>2026-04-15T13:33:53.05Z</time></trkpt><trkpt lat="44.2878327" lon="11.2775773"><ele>505.0</ele><time>2026-04-15T13:33:54.03Z</time></trkpt><trkpt lat="44.2876718" lon="11.2776462"><ele>505.0</ele><time>2026-04-15T13:33:55.033Z</time></trkpt><trkpt lat="44.2875155" lon="11.2777451"><ele>505.0</ele><time>2026-04-15T13:33:56.024Z</time></trkpt><trkpt lat="44.2873773" lon="11.277887"><ele>506.5</ele><time>2026-04-15T13:33:57.134Z</time></trkpt><trkpt lat="44.2872328" lon="11.2780334"><ele>508.0</ele><time>2026-04-15T13:33:58.125Z</time></trkpt><trkpt lat="44.2869498" lon="11.2783326"><ele>508.0</ele><time>2026-04-15T13:34:00.046Z</time></trkpt><trkpt lat="44.2868214" lon="11.2785071"><ele>508.0</ele><time>2026-04-15T13:34:01.023Z</time></trkpt><trkpt lat="44.2867154" lon="11.2787006"><ele>508.0</ele><time>2026-04-15T13:34:02.032Z</time></trkpt><trkpt lat="44.2866202" lon="11.2789012"><ele>512.6666666666667</ele><time>2026-04-15T13:34:03.127Z</time></trkpt><trkpt lat="44.286534" lon="11.279082"><ele>517.3333333333334</ele><time>2026-04-15T13:34:04.131Z</time></trkpt><trkpt lat="44.2863747" lon="11.2793434"><ele>522.0</ele><time>2026-04-15T13:34:06.027Z</time></trkpt><trkpt lat="44.2862708" lon="11.2794075"><ele>522.25</ele><time>2026-04-15T13:34:07.027Z</time></trkpt><trkpt lat="44.2861613" lon="11.2794049"><ele>522.5</ele><time>2026-04-15T13:34:08.033Z</time></trkpt><trkpt lat="44.286053" lon="11.2793472"><ele>522.75</ele><time>2026-04-15T13:34:09.039Z</time></trkpt><trkpt lat="44.285953" lon="11.2792418"><ele>523.0</ele><time>2026-04-15T13:34:10.125Z</time></trkpt><trkpt lat="44.2858432" lon="11.2791475"><ele>523.0</ele><time>2026-04-15T13:34:11.132Z</time></trkpt><trkpt lat="44.2857129" lon="11.2790919"><ele>523.0</ele><time>2026-04-15T13:34:12.129Z</time></trkpt><trkpt lat="44.2855679" lon="11.2790681"><ele>523.0</ele><time>2026-04-15T13:34:13.037Z</time></trkpt><trkpt lat="44.2854018" lon="11.2790544"><ele>523.0</ele><time>2026-04-15T13:34:14.041Z</time></trkpt><trkpt lat="44.2852132" lon="11.2790385"><ele>525.3333333333334</ele><time>2026-04-15T13:34:15.127Z</time></trkpt><trkpt lat="44.2850331" lon="11.2790332"><ele>527.6666666666666</ele><time>2026-04-15T13:34:16.132Z</time></trkpt><trkpt lat="44.2848427" lon="11.2790498"><ele>530.0</ele><time>2026-04-15T13:34:17.131Z</time></trkpt><trkpt lat="44.2846418" lon="11.2790741"><ele>530.0</ele><time>2026-04-15T13:34:18.134Z</time></trkpt><trkpt lat="44.2844459" lon="11.2791079"><ele>530.0</ele><time>2026-04-15T13:34:19.132Z</time></trkpt><trkpt lat="44.2842482" lon="11.2791464"><ele>530.0</ele><time>2026-04-15T13:34:20.121Z</time></trkpt><trkpt lat="44.2840509" lon="11.2791678"><ele>534.3333333333333</ele><time>2026-04-15T13:34:21.037Z</time></trkpt><trkpt lat="44.2838647" lon="11.2791744"><ele>538.6666666666666</ele><time>2026-04-15T13:34:22.129Z</time></trkpt><trkpt lat="44.2836869" lon="11.2791824"><ele>543.0</ele><time>2026-04-15T13:34:23.126Z</time></trkpt><trkpt lat="44.2835176" lon="11.2792035"><ele>543.0</ele><time>2026-04-15T13:34:24.121Z</time></trkpt><trkpt lat="44.2833672" lon="11.2792238"><ele>543.0</ele><time>2026-04-15T13:34:25.15Z</time></trkpt><trkpt lat="44.283222" lon="11.2792184"><ele>543.0</ele><time>2026-04-15T13:34:26.142Z</time></trkpt><trkpt lat="44.2830778" lon="11.2791841"><ele>543.0</ele><time>2026-04-15T13:34:27.126Z</time></trkpt><trkpt lat="44.2829386" lon="11.2791346"><ele>543.25</ele><time>2026-04-15T13:34:28.139Z</time></trkpt><trkpt lat="44.2828093" lon="11.2790844"><ele>543.5</ele><time>2026-04-15T13:34:29.137Z</time></trkpt><trkpt lat="44.2826883" lon="11.2790161"><ele>543.75</ele><time>2026-04-15T13:34:30.128Z</time></trkpt><trkpt lat="44.2825877" lon="11.2789176"><ele>544.0</ele><time>2026-04-15T13:34:31.124Z</time></trkpt><trkpt lat="44.2824986" lon="11.2787917"><ele>546.2</ele><time>2026-04-15T13:34:32.124Z</time></trkpt><trkpt lat="44.2824412" lon="11.2786466"><ele>548.4</ele><time>2026-04-15T13:34:33.128Z</time></trkpt><trkpt lat="44.282399" lon="11.278488"><ele>550.6</ele><time>2026-04-15T13:34:34.135Z</time></trkpt><trkpt lat="44.2823739" lon="11.2783487"><ele>552.8</ele><time>2026-04-15T13:34:35.132Z</time></trkpt><trkpt lat="44.2823745" lon="11.2782198"><ele>555.0</ele><time>2026-04-15T13:34:36.129Z</time></trkpt><trkpt lat="44.282393" lon="11.2780834"><ele>555.75</ele><time>2026-04-15T13:34:37.121Z</time></trkpt><trkpt lat="44.2824214" lon="11.2779374"><ele>556.5</ele><time>2026-04-15T13:34:38.126Z</time></trkpt><trkpt lat="44.2824593" lon="11.277763"><ele>557.25</ele><time>2026-04-15T13:34:39.125Z</time></trkpt><trkpt lat="44.2824904" lon="11.2775598"><ele>558.0</ele><time>2026-04-15T13:34:40.138Z</time></trkpt><trkpt lat="44.282522" lon="11.277341"><ele>562.0</ele><time>2026-04-15T13:34:41.117Z</time></trkpt><trkpt lat="44.2825573" lon="11.2771114"><ele>566.0</ele><time>2026-04-15T13:34:42.133Z</time></trkpt><trkpt lat="44.2825997" lon="11.2768703"><ele>570.0</ele><time>2026-04-15T13:34:43.129Z</time></trkpt><trkpt lat="44.2826459" lon="11.2766201"><ele>575.6666666666666</ele><time>2026-04-15T13:34:44.135Z</time></trkpt><trkpt lat="44.2826968" lon="11.2763771"><ele>581.3333333333333</ele><time>2026-04-15T13:34:45.125Z</time></trkpt><trkpt lat="44.2827578" lon="11.2761541"><ele>587.0</ele><time>2026-04-15T13:34:46.114Z</time></trkpt><trkpt lat="44.2828186" lon="11.2759559"><ele>587.0</ele><time>2026-04-15T13:34:47.123Z</time></trkpt><trkpt lat="44.2828911" lon="11.2756307"><ele>587.0</ele><time>2026-04-15T13:34:49.139Z</time></trkpt><trkpt lat="44.2829026" lon="11.2754949"><ele>587.0</ele><time>2026-04-15T13:34:50.131Z</time></trkpt><trkpt lat="44.2828872" lon="11.2753747"><ele>587.0</ele><time>2026-04-15T13:34:51.122Z</time></trkpt><trkpt lat="44.2828547" lon="11.2752802"><ele>584.75</ele><time>2026-04-15T13:34:52.128Z</time></trkpt><trkpt lat="44.2827988" lon="11.2752294"><ele>582.5</ele><time>2026-04-15T13:34:53.113Z</time></trkpt><trkpt lat="44.2826742" lon="11.2752077"><ele>580.25</ele><time>2026-04-15T13:34:54.124Z</time></trkpt><trkpt lat="44.2825398" lon="11.2752097"><ele>578.0</ele><time>2026-04-15T13:34:55.129Z</time></trkpt><trkpt lat="44.2824014" lon="11.2752065"><ele>578.0</ele><time>2026-04-15T13:34:56.124Z</time></trkpt><trkpt lat="44.2822687" lon="11.2751757"><ele>578.0</ele><time>2026-04-15T13:34:57.113Z</time></trkpt><trkpt lat="44.2821401" lon="11.2750976"><ele>578.0</ele><time>2026-04-15T13:34:58.128Z</time></trkpt><trkpt lat="44.282042" lon="11.2749891"><ele>578.0</ele><time>2026-04-15T13:34:59.116Z</time></trkpt><trkpt lat="44.2819617" lon="11.2748279"><ele>582.5</ele><time>2026-04-15T13:35:00.122Z</time></trkpt><trkpt lat="44.2818823" lon="11.2746607"><ele>587.0</ele><time>2026-04-15T13:35:01.132Z</time></trkpt><trkpt lat="44.2818022" lon="11.2744895"><ele>591.5</ele><time>2026-04-15T13:35:02.128Z</time></trkpt><trkpt lat="44.2817152" lon="11.2743069"><ele>596.0</ele><time>2026-04-15T13:35:03.125Z</time></trkpt><trkpt lat="44.2816678" lon="11.2741307"><ele>596.0</ele><time>2026-04-15T13:35:04.115Z</time></trkpt><trkpt lat="44.2816238" lon="11.2739531"><ele>596.0</ele><time>2026-04-15T13:35:05.115Z</time></trkpt><trkpt lat="44.2815707" lon="11.2737871"><ele>596.0</ele><time>2026-04-15T13:35:06.125Z</time></trkpt><trkpt lat="44.2814958" lon="11.2736529"><ele>596.0</ele><time>2026-04-15T13:35:07.122Z</time></trkpt><trkpt lat="44.2814007" lon="11.2735298"><ele>600.75</ele><time>2026-04-15T13:35:08.118Z</time></trkpt><trkpt lat="44.2812765" lon="11.2734303"><ele>605.5</ele><time>2026-04-15T13:35:09.116Z</time></trkpt><trkpt lat="44.2811525" lon="11.27331"><ele>610.25</ele><time>2026-04-15T13:35:10.108Z</time></trkpt><trkpt lat="44.2810415" lon="11.2732011"><ele>615.0</ele><time>2026-04-15T13:35:11.111Z</time></trkpt><trkpt lat="44.2809683" lon="11.2730813"><ele>615.2</ele><time>2026-04-15T13:35:12.111Z</time></trkpt><trkpt lat="44.2809262" lon="11.2729621"><ele>615.4</ele><time>2026-04-15T13:35:13.115Z</time></trkpt><trkpt lat="44.2809091" lon="11.2728221"><ele>615.6</ele><time>2026-04-15T13:35:14.132Z</time></trkpt><trkpt lat="44.2809193" lon="11.2726658"><ele>615.8</ele><time>2026-04-15T13:35:15.116Z</time></trkpt><trkpt lat="44.2809358" lon="11.2724912"><ele>616.0</ele><time>2026-04-15T13:35:16.114Z</time></trkpt><trkpt lat="44.2809625" lon="11.2722984"><ele>615.25</ele><time>2026-04-15T13:35:17.127Z</time></trkpt><trkpt lat="44.2809856" lon="11.2721026"><ele>614.5</ele><time>2026-04-15T13:35:18.117Z</time></trkpt><trkpt lat="44.2810217" lon="11.2717888"><ele>613.75</ele><time>2026-04-15T13:35:20.113Z</time></trkpt><trkpt lat="44.2810208" lon="11.2716775"><ele>613.0</ele><time>2026-04-15T13:35:21.118Z</time></trkpt><trkpt lat="44.2809795" lon="11.2715961"><ele>613.0</ele><time>2026-04-15T13:35:22.111Z</time></trkpt><trkpt lat="44.2809172" lon="11.2715333"><ele>613.0</ele><time>2026-04-15T13:35:23.13Z</time></trkpt><trkpt lat="44.2808248" lon="11.2715175"><ele>613.0</ele><time>2026-04-15T13:35:24.127Z</time></trkpt><trkpt lat="44.2807213" lon="11.2715191"><ele>613.0</ele><time>2026-04-15T13:35:25.123Z</time></trkpt><trkpt lat="44.2806087" lon="11.2714928"><ele>613.0</ele><time>2026-04-15T13:35:26.132Z</time></trkpt><trkpt lat="44.280488" lon="11.2714166"><ele>613.25</ele><time>2026-04-15T13:35:27.119Z</time></trkpt><trkpt lat="44.280359" lon="11.2713171"><ele>613.5</ele><time>2026-04-15T13:35:28.115Z</time></trkpt><trkpt lat="44.2802291" lon="11.2712071"><ele>613.75</ele><time>2026-04-15T13:35:29.116Z</time></trkpt><trkpt lat="44.2800954" lon="11.2711217"><ele>614.0</ele><time>2026-04-15T13:35:30.141Z</time></trkpt><trkpt lat="44.2798321" lon="11.2710766"><ele>615.5</ele><time>2026-04-15T13:35:32.133Z</time></trkpt><trkpt lat="44.2797132" lon="11.2711054"><ele>617.0</ele><time>2026-04-15T13:35:33.114Z</time></trkpt><trkpt lat="44.2795962" lon="11.2711375"><ele>618.5</ele><time>2026-04-15T13:35:34.116Z</time></trkpt><trkpt lat="44.2794765" lon="11.2711496"><ele>620.0</ele><time>2026-04-15T13:35:35.124Z</time></trkpt><trkpt lat="44.2793608" lon="11.2711147"><ele>620.0</ele><time>2026-04-15T13:35:36.126Z</time></trkpt><trkpt lat="44.2792545" lon="11.2710524"><ele>620.0</ele><time>2026-04-15T13:35:37.138Z</time></trkpt><trkpt lat="44.279167" lon="11.2709549"><ele>620.0</ele><time>2026-04-15T13:35:38.115Z</time></trkpt><trkpt lat="44.2790819" lon="11.2708201"><ele>620.0</ele><time>2026-04-15T13:35:39.117Z</time></trkpt><trkpt lat="44.2789959" lon="11.2706942"><ele>621.8</ele><time>2026-04-15T13:35:40.122Z</time></trkpt><trkpt lat="44.2788424" lon="11.2705308"><ele>623.6</ele><time>2026-04-15T13:35:42.12Z</time></trkpt><trkpt lat="44.278772" lon="11.2704865"><ele>625.4</ele><time>2026-04-15T13:35:43.132Z</time></trkpt><trkpt lat="44.2787055" lon="11.2704866"><ele>627.2</ele><time>2026-04-15T13:35:44.117Z</time></trkpt><trkpt lat="44.2786385" lon="11.2705352"><ele>629.0</ele><time>2026-04-15T13:35:45.111Z</time></trkpt><trkpt lat="44.2785765" lon="11.2705668"><ele>629.0</ele><time>2026-04-15T13:35:46.138Z</time></trkpt><trkpt lat="44.2784689" lon="11.2705399"><ele>629.0</ele><time>2026-04-15T13:35:48.114Z</time></trkpt><trkpt lat="44.2784219" lon="11.2704621"><ele>629.0</ele><time>2026-04-15T13:35:49.108Z</time></trkpt><trkpt lat="44.2783741" lon="11.2703721"><ele>629.0</ele><time>2026-04-15T13:35:50.126Z</time></trkpt><trkpt lat="44.2783184" lon="11.2702796"><ele>629.0</ele><time>2026-04-15T13:35:51.102Z</time></trkpt><trkpt lat="44.2782568" lon="11.2701463"><ele>629.0</ele><time>2026-04-15T13:35:52.112Z</time></trkpt><trkpt lat="44.2781871" lon="11.2700115"><ele>629.0</ele><time>2026-04-15T13:35:53.142Z</time></trkpt><trkpt lat="44.2781091" lon="11.2698737"><ele>629.0</ele><time>2026-04-15T13:35:54.115Z</time></trkpt><trkpt lat="44.2780223" lon="11.2697514"><ele>629.0</ele><time>2026-04-15T13:35:55.111Z</time></trkpt><trkpt lat="44.2779311" lon="11.2696573"><ele>633.25</ele><time>2026-04-15T13:35:56.111Z</time></trkpt><trkpt lat="44.2778501" lon="11.2695587"><ele>637.5</ele><time>2026-04-15T13:35:57.119Z</time></trkpt><trkpt lat="44.2777835" lon="11.2694447"><ele>641.75</ele><time>2026-04-15T13:35:58.114Z</time></trkpt><trkpt lat="44.2777211" lon="11.2691681"><ele>646.0</ele><time>2026-04-15T13:36:00.117Z</time></trkpt><trkpt lat="44.2776945" lon="11.2690185"><ele>645.75</ele><time>2026-04-15T13:36:01.119Z</time></trkpt><trkpt lat="44.2776905" lon="11.2688651"><ele>645.5</ele><time>2026-04-15T13:36:02.112Z</time></trkpt><trkpt lat="44.2776944" lon="11.2686938"><ele>645.25</ele><time>2026-04-15T13:36:03.104Z</time></trkpt><trkpt lat="44.2777158" lon="11.268505"><ele>645.0</ele><time>2026-04-15T13:36:04.117Z</time></trkpt><trkpt lat="44.2777729" lon="11.2683262"><ele>645.0</ele><time>2026-04-15T13:36:05.125Z</time></trkpt><trkpt lat="44.2778356" lon="11.2681758"><ele>645.0</ele><time>2026-04-15T13:36:06.122Z</time></trkpt><trkpt lat="44.2778979" lon="11.2680394"><ele>645.0</ele><time>2026-04-15T13:36:07.127Z</time></trkpt><trkpt lat="44.2779643" lon="11.2679181"><ele>645.0</ele><time>2026-04-15T13:36:08.119Z</time></trkpt><trkpt lat="44.2780999" lon="11.2676947"><ele>642.6666666666666</ele><time>2026-04-15T13:36:10.108Z</time></trkpt><trkpt lat="44.2781689" lon="11.26758"><ele>640.3333333333333</ele><time>2026-04-15T13:36:11.113Z</time></trkpt><trkpt lat="44.2782432" lon="11.2674677"><ele>638.0</ele><time>2026-04-15T13:36:12.113Z</time></trkpt><trkpt lat="44.2784104" lon="11.2672188"><ele>638.0</ele><time>2026-04-15T13:36:14.119Z</time></trkpt><trkpt lat="44.2784947" lon="11.2670834"><ele>638.0</ele><time>2026-04-15T13:36:15.104Z</time></trkpt><trkpt lat="44.2785709" lon="11.2669299"><ele>638.0</ele><time>2026-04-15T13:36:16.117Z</time></trkpt><trkpt lat="44.2786591" lon="11.2667966"><ele>638.0</ele><time>2026-04-15T13:36:17.115Z</time></trkpt><trkpt lat="44.2787459" lon="11.2666627"><ele>638.0</ele><time>2026-04-15T13:36:18.119Z</time></trkpt><trkpt lat="44.2788265" lon="11.2665313"><ele>638.0</ele><time>2026-04-15T13:36:19.111Z</time></trkpt><trkpt lat="44.2789052" lon="11.2663917"><ele>638.0</ele><time>2026-04-15T13:36:20.119Z</time></trkpt><trkpt lat="44.2789835" lon="11.2662544"><ele>638.0</ele><time>2026-04-15T13:36:21.116Z</time></trkpt><trkpt lat="44.2790589" lon="11.2661233"><ele>636.0</ele><time>2026-04-15T13:36:22.127Z</time></trkpt><trkpt lat="44.2791422" lon="11.2660109"><ele>634.0</ele><time>2026-04-15T13:36:23.101Z</time></trkpt><trkpt lat="44.2792422" lon="11.2659074"><ele>632.0</ele><time>2026-04-15T13:36:24.122Z</time></trkpt><trkpt lat="44.2794221" lon="11.2657399"><ele>632.0</ele><time>2026-04-15T13:36:26.139Z</time></trkpt><trkpt lat="44.279491" lon="11.2656513"><ele>632.0</ele><time>2026-04-15T13:36:27.115Z</time></trkpt><trkpt lat="44.279566" lon="11.2654047"><ele>632.0</ele><time>2026-04-15T13:36:29.108Z</time></trkpt><trkpt lat="44.279623" lon="11.2652901"><ele>632.0</ele><time>2026-04-15T13:36:30.116Z</time></trkpt><trkpt lat="44.2797087" lon="11.2651785"><ele>632.3333333333333</ele><time>2026-04-15T13:36:31.104Z</time></trkpt><trkpt lat="44.2799003" lon="11.2649645"><ele>632.6666666666666</ele><time>2026-04-15T13:36:33.108Z</time></trkpt><trkpt lat="44.2800027" lon="11.2648511"><ele>633.0</ele><time>2026-04-15T13:36:34.139Z</time></trkpt><trkpt lat="44.2800967" lon="11.2647529"><ele>633.0</ele><time>2026-04-15T13:36:35.106Z</time></trkpt><trkpt lat="44.280204" lon="11.2646788"><ele>633.0</ele><time>2026-04-15T13:36:36.107Z</time></trkpt><trkpt lat="44.2803247" lon="11.2646425"><ele>633.0</ele><time>2026-04-15T13:36:37.106Z</time></trkpt><trkpt lat="44.2804473" lon="11.2646211"><ele>633.0</ele><time>2026-04-15T13:36:38.107Z</time></trkpt><trkpt lat="44.2805472" lon="11.2645961"><ele>633.0</ele><time>2026-04-15T13:36:39.12Z</time></trkpt><trkpt lat="44.2805988" lon="11.2645312"><ele>633.0</ele><time>2026-04-15T13:36:40.107Z</time></trkpt><trkpt lat="44.280601" lon="11.2644316"><ele>633.0</ele><time>2026-04-15T13:36:41.105Z</time></trkpt><trkpt lat="44.2805859" lon="11.2643239"><ele>633.0</ele><time>2026-04-15T13:36:42.13Z</time></trkpt><trkpt lat="44.2805513" lon="11.264238"><ele>633.0</ele><time>2026-04-15T13:36:43.111Z</time></trkpt><trkpt lat="44.280488" lon="11.2641546"><ele>633.0</ele><time>2026-04-15T13:36:44.127Z</time></trkpt><trkpt lat="44.2804138" lon="11.2640417"><ele>632.0</ele><time>2026-04-15T13:36:45.119Z</time></trkpt><trkpt lat="44.2802392" lon="11.2637674"><ele>631.0</ele><time>2026-04-15T13:36:47.136Z</time></trkpt><trkpt lat="44.2801749" lon="11.2636176"><ele>630.0</ele><time>2026-04-15T13:36:48.108Z</time></trkpt><trkpt lat="44.279877" lon="11.2631562"><ele>627.6666666666666</ele><time>2026-04-15T13:36:51.112Z</time></trkpt><trkpt lat="44.2797729" lon="11.2629971"><ele>625.3333333333333</ele><time>2026-04-15T13:36:52.109Z</time></trkpt><trkpt lat="44.279682" lon="11.2628266"><ele>623.0</ele><time>2026-04-15T13:36:53.125Z</time></trkpt><trkpt lat="44.2795918" lon="11.2626574"><ele>626.3333333333333</ele><time>2026-04-15T13:36:54.145Z</time></trkpt><trkpt lat="44.2794945" lon="11.262507"><ele>629.6666666666666</ele><time>2026-04-15T13:36:55.104Z</time></trkpt><trkpt lat="44.2793734" lon="11.2623687"><ele>633.0</ele><time>2026-04-15T13:36:56.116Z</time></trkpt><trkpt lat="44.2792366" lon="11.2622464"><ele>633.0</ele><time>2026-04-15T13:36:57.124Z</time></trkpt><trkpt lat="44.2790887" lon="11.2621389"><ele>633.0</ele><time>2026-04-15T13:36:58.104Z</time></trkpt><trkpt lat="44.2789452" lon="11.2620211"><ele>633.0</ele><time>2026-04-15T13:36:59.111Z</time></trkpt><trkpt lat="44.2788073" lon="11.2618926"><ele>636.25</ele><time>2026-04-15T13:37:00.132Z</time></trkpt><trkpt lat="44.2786804" lon="11.2617576"><ele>639.5</ele><time>2026-04-15T13:37:01.106Z</time></trkpt><trkpt lat="44.2785887" lon="11.2616433"><ele>642.75</ele><time>2026-04-15T13:37:02.116Z</time></trkpt><trkpt lat="44.2785196" lon="11.2615401"><ele>646.0</ele><time>2026-04-15T13:37:03.113Z</time></trkpt><trkpt lat="44.2784674" lon="11.2614365"><ele>646.0</ele><time>2026-04-15T13:37:04.108Z</time></trkpt><trkpt lat="44.2784156" lon="11.2613273"><ele>646.0</ele><time>2026-04-15T13:37:05.115Z</time></trkpt><trkpt lat="44.2783662" lon="11.2612054"><ele>646.0</ele><time>2026-04-15T13:37:06.132Z</time></trkpt><trkpt lat="44.2783121" lon="11.2610738"><ele>646.0</ele><time>2026-04-15T13:37:07.108Z</time></trkpt><trkpt lat="44.2781852" lon="11.2607669"><ele>646.5</ele><time>2026-04-15T13:37:09.108Z</time></trkpt><trkpt lat="44.2781347" lon="11.2606068"><ele>647.0</ele><time>2026-04-15T13:37:10.117Z</time></trkpt><trkpt lat="44.2780921" lon="11.2604479"><ele>647.5</ele><time>2026-04-15T13:37:11.1Z</time></trkpt><trkpt lat="44.2780595" lon="11.2602763"><ele>648.0</ele><time>2026-04-15T13:37:12.106Z</time></trkpt><trkpt lat="44.2780266" lon="11.2600844"><ele>651.3333333333334</ele><time>2026-04-15T13:37:13.112Z</time></trkpt><trkpt lat="44.2779591" lon="11.2597197"><ele>654.6666666666667</ele><time>2026-04-15T13:37:15.119Z</time></trkpt><trkpt lat="44.2779176" lon="11.2595529"><ele>658.0</ele><time>2026-04-15T13:37:16.112Z</time></trkpt><trkpt lat="44.2778549" lon="11.2594016"><ele>658.0</ele><time>2026-04-15T13:37:17.109Z</time></trkpt><trkpt lat="44.2777569" lon="11.2592505"><ele>658.0</ele><time>2026-04-15T13:37:18.105Z</time></trkpt><trkpt lat="44.2776353" lon="11.2590985"><ele>658.0</ele><time>2026-04-15T13:37:19.112Z</time></trkpt><trkpt lat="44.2775206" lon="11.258941"><ele>656.6666666666667</ele><time>2026-04-15T13:37:20.103Z</time></trkpt><trkpt lat="44.2774111" lon="11.2587774"><ele>655.3333333333334</ele><time>2026-04-15T13:37:21.1Z</time></trkpt><trkpt lat="44.2772347" lon="11.258469"><ele>654.0</ele><time>2026-04-15T13:37:23.107Z</time></trkpt><trkpt lat="44.2771508" lon="11.2583336"><ele>654.0</ele><time>2026-04-15T13:37:24.116Z</time></trkpt><trkpt lat="44.277038" lon="11.2582226"><ele>654.0</ele><time>2026-04-15T13:37:25.109Z</time></trkpt><trkpt lat="44.2769016" lon="11.2581227"><ele>654.0</ele><time>2026-04-15T13:37:26.108Z</time></trkpt><trkpt lat="44.2766173" lon="11.2580234"><ele>652.0</ele><time>2026-04-15T13:37:28.114Z</time></trkpt><trkpt lat="44.2764767" lon="11.2579526"><ele>650.0</ele><time>2026-04-15T13:37:29.114Z</time></trkpt><trkpt lat="44.2763332" lon="11.2578334"><ele>648.0</ele><time>2026-04-15T13:37:30.109Z</time></trkpt><trkpt lat="44.2761975" lon="11.2576924"><ele>647.3333333333334</ele><time>2026-04-15T13:37:31.118Z</time></trkpt><trkpt lat="44.2760592" lon="11.2575341"><ele>646.6666666666667</ele><time>2026-04-15T13:37:32.12Z</time></trkpt><trkpt lat="44.2759294" lon="11.2573617"><ele>646.0</ele><time>2026-04-15T13:37:33.107Z</time></trkpt><trkpt lat="44.2758095" lon="11.2571992"><ele>645.0</ele><time>2026-04-15T13:37:34.112Z</time></trkpt><trkpt lat="44.2756964" lon="11.2570422"><ele>644.0</ele><time>2026-04-15T13:37:35.114Z</time></trkpt><trkpt lat="44.2755949" lon="11.256877"><ele>643.0</ele><time>2026-04-15T13:37:36.116Z</time></trkpt><trkpt lat="44.2754197" lon="11.2565398"><ele>645.25</ele><time>2026-04-15T13:37:38.136Z</time></trkpt><trkpt lat="44.2753444" lon="11.256377"><ele>647.5</ele><time>2026-04-15T13:37:39.116Z</time></trkpt><trkpt lat="44.2752902" lon="11.2562156"><ele>649.75</ele><time>2026-04-15T13:37:40.104Z</time></trkpt><trkpt lat="44.2752585" lon="11.2560341"><ele>652.0</ele><time>2026-04-15T13:37:41.1Z</time></trkpt><trkpt lat="44.2752248" lon="11.2553851"><ele>652.0</ele><time>2026-04-15T13:37:44.106Z</time></trkpt><trkpt lat="44.2752168" lon="11.2551821"><ele>652.0</ele><time>2026-04-15T13:37:45.115Z</time></trkpt><trkpt lat="44.2752033" lon="11.2549592"><ele>652.0</ele><time>2026-04-15T13:37:46.11Z</time></trkpt><trkpt lat="44.2751256" lon="11.2545587"><ele>649.6666666666667</ele><time>2026-04-15T13:37:48.106Z</time></trkpt><trkpt lat="44.2750683" lon="11.2543671"><ele>647.3333333333334</ele><time>2026-04-15T13:37:49.134Z</time></trkpt><trkpt lat="44.2749958" lon="11.2541647"><ele>645.0</ele><time>2026-04-15T13:37:50.163Z</time></trkpt><trkpt lat="44.274923" lon="11.2539672"><ele>650.0</ele><time>2026-04-15T13:37:51.11Z</time></trkpt><trkpt lat="44.2746902" lon="11.2534113"><ele>650.0</ele><time>2026-04-15T13:37:54.127Z</time></trkpt><trkpt lat="44.2746063" lon="11.2532576"><ele>650.0</ele><time>2026-04-15T13:37:55.113Z</time></trkpt><trkpt lat="44.2744973" lon="11.2531423"><ele>650.0</ele><time>2026-04-15T13:37:56.148Z</time></trkpt><trkpt lat="44.2743701" lon="11.2530415"><ele>650.0</ele><time>2026-04-15T13:37:57.137Z</time></trkpt><trkpt lat="44.2742512" lon="11.2529454"><ele>650.0</ele><time>2026-04-15T13:37:58.103Z</time></trkpt><trkpt lat="44.2741387" lon="11.252824"><ele>650.0</ele><time>2026-04-15T13:37:59.128Z</time></trkpt><trkpt lat="44.2740402" lon="11.2526995"><ele>650.0</ele><time>2026-04-15T13:38:00.107Z</time></trkpt><trkpt lat="44.2738264" lon="11.2525294"><ele>650.0</ele><time>2026-04-15T13:38:02.097Z</time></trkpt><trkpt lat="44.2737244" lon="11.2524387"><ele>650.0</ele><time>2026-04-15T13:38:03.107Z</time></trkpt><trkpt lat="44.2736392" lon="11.2523356"><ele>650.0</ele><time>2026-04-15T13:38:04.111Z</time></trkpt><trkpt lat="44.2735827" lon="11.2521863"><ele>650.0</ele><time>2026-04-15T13:38:05.104Z</time></trkpt><trkpt lat="44.2735498" lon="11.2520083"><ele>647.5</ele><time>2026-04-15T13:38:06.108Z</time></trkpt><trkpt lat="44.2735269" lon="11.2518265"><ele>645.0</ele><time>2026-04-15T13:38:07.099Z</time></trkpt><trkpt lat="44.2734839" lon="11.2516368"><ele>642.5</ele><time>2026-04-15T13:38:08.099Z</time></trkpt><trkpt lat="44.2734268" lon="11.2514445"><ele>640.0</ele><time>2026-04-15T13:38:09.095Z</time></trkpt><trkpt lat="44.2733841" lon="11.251259"><ele>638.3333333333334</ele><time>2026-04-15T13:38:10.122Z</time></trkpt><trkpt lat="44.2733846" lon="11.2509045"><ele>636.6666666666666</ele><time>2026-04-15T13:38:12.124Z</time></trkpt><trkpt lat="44.2734172" lon="11.2507281"><ele>635.0</ele><time>2026-04-15T13:38:13.112Z</time></trkpt><trkpt lat="44.2734445" lon="11.2505425"><ele>635.0</ele><time>2026-04-15T13:38:14.116Z</time></trkpt><trkpt lat="44.2734477" lon="11.2503462"><ele>635.0</ele><time>2026-04-15T13:38:15.097Z</time></trkpt><trkpt lat="44.2734459" lon="11.2501462"><ele>635.0</ele><time>2026-04-15T13:38:16.107Z</time></trkpt><trkpt lat="44.2734498" lon="11.2499521"><ele>635.0</ele><time>2026-04-15T13:38:17.095Z</time></trkpt><trkpt lat="44.2736416" lon="11.2495903"><ele>635.5</ele><time>2026-04-15T13:38:20.115Z</time></trkpt><trkpt lat="44.2737454" lon="11.249526"><ele>636.0</ele><time>2026-04-15T13:38:21.098Z</time></trkpt><trkpt lat="44.2738665" lon="11.2494887"><ele>636.5</ele><time>2026-04-15T13:38:22.121Z</time></trkpt><trkpt lat="44.2740124" lon="11.2494797"><ele>637.0</ele><time>2026-04-15T13:38:23.112Z</time></trkpt><trkpt lat="44.2741665" lon="11.2494789"><ele>637.0</ele><time>2026-04-15T13:38:24.1Z</time></trkpt><trkpt lat="44.2743008" lon="11.2494679"><ele>637.0</ele><time>2026-04-15T13:38:25.11Z</time></trkpt><trkpt lat="44.2744066" lon="11.2494182"><ele>637.0</ele><time>2026-04-15T13:38:26.098Z</time></trkpt><trkpt lat="44.2745016" lon="11.2493506"><ele>637.0</ele><time>2026-04-15T13:38:27.105Z</time></trkpt><trkpt lat="44.2745718" lon="11.2492226"><ele>637.0</ele><time>2026-04-15T13:38:28.105Z</time></trkpt><trkpt lat="44.2746097" lon="11.2490508"><ele>637.0</ele><time>2026-04-15T13:38:29.099Z</time></trkpt><trkpt lat="44.2746244" lon="11.2488757"><ele>637.0</ele><time>2026-04-15T13:38:30.102Z</time></trkpt><trkpt lat="44.2746127" lon="11.2487095"><ele>637.0</ele><time>2026-04-15T13:38:31.099Z</time></trkpt><trkpt lat="44.2745599" lon="11.248554"><ele>637.75</ele><time>2026-04-15T13:38:32.101Z</time></trkpt><trkpt lat="44.2745055" lon="11.2483847"><ele>638.5</ele><time>2026-04-15T13:38:33.101Z</time></trkpt><trkpt lat="44.2744685" lon="11.2481852"><ele>639.25</ele><time>2026-04-15T13:38:34.102Z</time></trkpt><trkpt lat="44.2744348" lon="11.2479816"><ele>640.0</ele><time>2026-04-15T13:38:35.11Z</time></trkpt><trkpt lat="44.2742957" lon="11.247568"><ele>640.0</ele><time>2026-04-15T13:38:37.101Z</time></trkpt><trkpt lat="44.2742035" lon="11.2473764"><ele>640.0</ele><time>2026-04-15T13:38:38.113Z</time></trkpt><trkpt lat="44.2741193" lon="11.2471761"><ele>640.0</ele><time>2026-04-15T13:38:39.111Z</time></trkpt><trkpt lat="44.2740407" lon="11.2469735"><ele>652.0</ele><time>2026-04-15T13:38:40.105Z</time></trkpt><trkpt lat="44.2739246" lon="11.2463966"><ele>664.0</ele><time>2026-04-15T13:38:43.097Z</time></trkpt><trkpt lat="44.2739322" lon="11.2462078"><ele>664.0</ele><time>2026-04-15T13:38:44.104Z</time></trkpt><trkpt lat="44.273924" lon="11.246023"><ele>664.0</ele><time>2026-04-15T13:38:45.125Z</time></trkpt><trkpt lat="44.2737361" lon="11.2455604"><ele>661.25</ele><time>2026-04-15T13:38:48.128Z</time></trkpt><trkpt lat="44.2736363" lon="11.2454209"><ele>658.5</ele><time>2026-04-15T13:38:49.106Z</time></trkpt><trkpt lat="44.2735742" lon="11.2452543"><ele>655.75</ele><time>2026-04-15T13:38:50.118Z</time></trkpt><trkpt lat="44.2735446" lon="11.2450706"><ele>653.0</ele><time>2026-04-15T13:38:51.111Z</time></trkpt><trkpt lat="44.2735241" lon="11.2448726"><ele>650.0</ele><time>2026-04-15T13:38:52.124Z</time></trkpt><trkpt lat="44.273505" lon="11.2446905"><ele>647.0</ele><time>2026-04-15T13:38:53.111Z</time></trkpt><trkpt lat="44.2734466" lon="11.2445074"><ele>644.0</ele><time>2026-04-15T13:38:54.094Z</time></trkpt><trkpt lat="44.2733615" lon="11.2443229"><ele>641.0</ele><time>2026-04-15T13:38:55.112Z</time></trkpt><trkpt lat="44.2732587" lon="11.2441413"><ele>642.5</ele><time>2026-04-15T13:38:56.102Z</time></trkpt><trkpt lat="44.2731369" lon="11.2439589"><ele>644.0</ele><time>2026-04-15T13:38:57.094Z</time></trkpt><trkpt lat="44.2728556" lon="11.2436298"><ele>644.0</ele><time>2026-04-15T13:38:59.097Z</time></trkpt><trkpt lat="44.2726989" lon="11.2435362"><ele>644.0</ele><time>2026-04-15T13:39:00.136Z</time></trkpt><trkpt lat="44.2725605" lon="11.2434309"><ele>644.0</ele><time>2026-04-15T13:39:01.114Z</time></trkpt><trkpt lat="44.2724197" lon="11.243319"><ele>644.0</ele><time>2026-04-15T13:39:02.092Z</time></trkpt><trkpt lat="44.2722805" lon="11.243206"><ele>644.0</ele><time>2026-04-15T13:39:03.134Z</time></trkpt><trkpt lat="44.2721628" lon="11.2430843"><ele>644.0</ele><time>2026-04-15T13:39:04.106Z</time></trkpt><trkpt lat="44.2720449" lon="11.2429429"><ele>644.0</ele><time>2026-04-15T13:39:05.114Z</time></trkpt><trkpt lat="44.2719258" lon="11.2427872"><ele>644.0</ele><time>2026-04-15T13:39:06.098Z</time></trkpt><trkpt lat="44.271807" lon="11.2426197"><ele>644.0</ele><time>2026-04-15T13:39:07.109Z</time></trkpt><trkpt lat="44.2716983" lon="11.242442"><ele>642.6666666666666</ele><time>2026-04-15T13:39:08.117Z</time></trkpt><trkpt lat="44.2716012" lon="11.242261"><ele>641.3333333333334</ele><time>2026-04-15T13:39:09.106Z</time></trkpt><trkpt lat="44.2715123" lon="11.242087"><ele>640.0</ele><time>2026-04-15T13:39:10.096Z</time></trkpt><trkpt lat="44.2714144" lon="11.2419297"><ele>640.0</ele><time>2026-04-15T13:39:11.117Z</time></trkpt><trkpt lat="44.2711814" lon="11.2417461"><ele>640.0</ele><time>2026-04-15T13:39:13.1Z</time></trkpt><trkpt lat="44.2710854" lon="11.2416593"><ele>640.0</ele><time>2026-04-15T13:39:14.107Z</time></trkpt><trkpt lat="44.2710151" lon="11.241551"><ele>640.25</ele><time>2026-04-15T13:39:15.113Z</time></trkpt><trkpt lat="44.270996" lon="11.2414122"><ele>640.5</ele><time>2026-04-15T13:39:16.099Z</time></trkpt><trkpt lat="44.2710162" lon="11.2412702"><ele>640.75</ele><time>2026-04-15T13:39:17.105Z</time></trkpt><trkpt lat="44.271063" lon="11.2411128"><ele>641.0</ele><time>2026-04-15T13:39:18.12Z</time></trkpt><trkpt lat="44.271116" lon="11.2409328"><ele>641.0</ele><time>2026-04-15T13:39:19.11Z</time></trkpt><trkpt lat="44.2711776" lon="11.2407455"><ele>641.0</ele><time>2026-04-15T13:39:20.101Z</time></trkpt><trkpt lat="44.2712356" lon="11.2405437"><ele>641.0</ele><time>2026-04-15T13:39:21.098Z</time></trkpt><trkpt lat="44.2712927" lon="11.2403418"><ele>640.5</ele><time>2026-04-15T13:39:22.1Z</time></trkpt><trkpt lat="44.2713539" lon="11.2401486"><ele>640.0</ele><time>2026-04-15T13:39:23.099Z</time></trkpt><trkpt lat="44.2713856" lon="11.2399656"><ele>639.5</ele><time>2026-04-15T13:39:24.102Z</time></trkpt><trkpt lat="44.2713639" lon="11.2397895"><ele>639.0</ele><time>2026-04-15T13:39:25.098Z</time></trkpt><trkpt lat="44.2713074" lon="11.2396197"><ele>638.0</ele><time>2026-04-15T13:39:26.093Z</time></trkpt><trkpt lat="44.2712252" lon="11.2394579"><ele>637.0</ele><time>2026-04-15T13:39:27.095Z</time></trkpt><trkpt lat="44.2708493" lon="11.2387085"><ele>635.6666666666667</ele><time>2026-04-15T13:39:31.161Z</time></trkpt><trkpt lat="44.2707468" lon="11.238501"><ele>634.3333333333334</ele><time>2026-04-15T13:39:32.101Z</time></trkpt><trkpt lat="44.2706773" lon="11.2382668"><ele>633.0</ele><time>2026-04-15T13:39:33.107Z</time></trkpt><trkpt lat="44.2706122" lon="11.2380357"><ele>629.0</ele><time>2026-04-15T13:39:34.096Z</time></trkpt><trkpt lat="44.2704605" lon="11.2375884"><ele>625.0</ele><time>2026-04-15T13:39:36.109Z</time></trkpt><trkpt lat="44.2702517" lon="11.2371857"><ele>625.0</ele><time>2026-04-15T13:39:38.107Z</time></trkpt><trkpt lat="44.2700608" lon="11.2368243"><ele>625.0</ele><time>2026-04-15T13:39:40.098Z</time></trkpt><trkpt lat="44.2699817" lon="11.23667"><ele>627.0</ele><time>2026-04-15T13:39:41.109Z</time></trkpt><trkpt lat="44.2699121" lon="11.2362967"><ele>629.0</ele><time>2026-04-15T13:39:43.094Z</time></trkpt><trkpt lat="44.2698892" lon="11.2360844"><ele>631.0</ele><time>2026-04-15T13:39:44.103Z</time></trkpt><trkpt lat="44.2698143" lon="11.2356296"><ele>626.0</ele><time>2026-04-15T13:39:46.108Z</time></trkpt><trkpt lat="44.2697732" lon="11.2353987"><ele>621.0</ele><time>2026-04-15T13:39:47.094Z</time></trkpt><trkpt lat="44.269751" lon="11.2351704"><ele>616.0</ele><time>2026-04-15T13:39:48.105Z</time></trkpt><trkpt lat="44.2697308" lon="11.2349327"><ele>617.5</ele><time>2026-04-15T13:39:49.095Z</time></trkpt><trkpt lat="44.2696602" lon="11.2345088"><ele>619.0</ele><time>2026-04-15T13:39:51.1Z</time></trkpt><trkpt lat="44.2695961" lon="11.2343226"><ele>619.0</ele><time>2026-04-15T13:39:52.097Z</time></trkpt><trkpt lat="44.269534" lon="11.2341589"><ele>619.0</ele><time>2026-04-15T13:39:53.125Z</time></trkpt><trkpt lat="44.2694917" lon="11.2340036"><ele>619.0</ele><time>2026-04-15T13:39:54.097Z</time></trkpt><trkpt lat="44.2694734" lon="11.233842"><ele>619.0</ele><time>2026-04-15T13:39:55.098Z</time></trkpt><trkpt lat="44.2694922" lon="11.2336684"><ele>619.0</ele><time>2026-04-15T13:39:56.095Z</time></trkpt><trkpt lat="44.2695336" lon="11.2334876"><ele>619.0</ele><time>2026-04-15T13:39:57.09Z</time></trkpt><trkpt lat="44.2695513" lon="11.2333054"><ele>619.0</ele><time>2026-04-15T13:39:58.104Z</time></trkpt><trkpt lat="44.2694748" lon="11.2329576"><ele>617.3333333333334</ele><time>2026-04-15T13:40:00.09Z</time></trkpt><trkpt lat="44.2694209" lon="11.2327912"><ele>615.6666666666666</ele><time>2026-04-15T13:40:01.104Z</time></trkpt><trkpt lat="44.2693578" lon="11.2326367"><ele>614.0</ele><time>2026-04-15T13:40:02.093Z</time></trkpt><trkpt lat="44.2692999" lon="11.23229"><ele>613.2</ele><time>2026-04-15T13:40:05.124Z</time></trkpt><trkpt lat="44.269339" lon="11.2321855"><ele>612.4</ele><time>2026-04-15T13:40:06.115Z</time></trkpt><trkpt lat="44.2694037" lon="11.2320771"><ele>611.6</ele><time>2026-04-15T13:40:07.12Z</time></trkpt><trkpt lat="44.269491" lon="11.231974"><ele>610.8</ele><time>2026-04-15T13:40:08.093Z</time></trkpt><trkpt lat="44.2695717" lon="11.2318643"><ele>610.0</ele><time>2026-04-15T13:40:09.109Z</time></trkpt><trkpt lat="44.2698408" lon="11.2316104"><ele>610.0</ele><time>2026-04-15T13:40:12.168Z</time></trkpt><trkpt lat="44.269936" lon="11.2315613"><ele>610.0</ele><time>2026-04-15T13:40:13.107Z</time></trkpt><trkpt lat="44.2700251" lon="11.2315201"><ele>610.0</ele><time>2026-04-15T13:40:14.105Z</time></trkpt><trkpt lat="44.2701133" lon="11.2314425"><ele>610.0</ele><time>2026-04-15T13:40:15.096Z</time></trkpt><trkpt lat="44.2701982" lon="11.2313326"><ele>610.0</ele><time>2026-04-15T13:40:16.096Z</time></trkpt><trkpt lat="44.270246" lon="11.2311841"><ele>604.0</ele><time>2026-04-15T13:40:17.102Z</time></trkpt><trkpt lat="44.2702575" lon="11.2310027"><ele>598.0</ele><time>2026-04-15T13:40:18.102Z</time></trkpt><trkpt lat="44.2702734" lon="11.2308255"><ele>592.0</ele><time>2026-04-15T13:40:19.093Z</time></trkpt><trkpt lat="44.2702356" lon="11.2304563"><ele>590.5</ele><time>2026-04-15T13:40:21.09Z</time></trkpt><trkpt lat="44.2701788" lon="11.230306"><ele>589.0</ele><time>2026-04-15T13:40:22.097Z</time></trkpt><trkpt lat="44.270111" lon="11.2301724"><ele>587.5</ele><time>2026-04-15T13:40:23.104Z</time></trkpt><trkpt lat="44.2700418" lon="11.2300295"><ele>586.0</ele><time>2026-04-15T13:40:24.088Z</time></trkpt><trkpt lat="44.2700451" lon="11.2296016"><ele>585.3333333333334</ele><time>2026-04-15T13:40:27.099Z</time></trkpt><trkpt lat="44.2700826" lon="11.2294531"><ele>584.6666666666666</ele><time>2026-04-15T13:40:28.102Z</time></trkpt><trkpt lat="44.2700884" lon="11.229287"><ele>584.0</ele><time>2026-04-15T13:40:29.102Z</time></trkpt><trkpt lat="44.2699934" lon="11.2289873"><ele>585.5</ele><time>2026-04-15T13:40:31.098Z</time></trkpt><trkpt lat="44.2698951" lon="11.2288563"><ele>587.0</ele><time>2026-04-15T13:40:32.106Z</time></trkpt><trkpt lat="44.2698026" lon="11.22871"><ele>588.5</ele><time>2026-04-15T13:40:33.091Z</time></trkpt><trkpt lat="44.2697093" lon="11.2285567"><ele>590.0</ele><time>2026-04-15T13:40:34.098Z</time></trkpt><trkpt lat="44.269622" lon="11.2283994"><ele>582.0</ele><time>2026-04-15T13:40:35.095Z</time></trkpt><trkpt lat="44.2695573" lon="11.2282268"><ele>574.0</ele><time>2026-04-15T13:40:36.093Z</time></trkpt><trkpt lat="44.2695085" lon="11.228034"><ele>566.0</ele><time>2026-04-15T13:40:37.098Z</time></trkpt><trkpt lat="44.2694703" lon="11.2278235"><ele>558.0</ele><time>2026-04-15T13:40:38.104Z</time></trkpt><trkpt lat="44.2694409" lon="11.2276075"><ele>559.0</ele><time>2026-04-15T13:40:39.1Z</time></trkpt><trkpt lat="44.2693542" lon="11.2272927"><ele>560.0</ele><time>2026-04-15T13:40:41.081Z</time></trkpt><trkpt lat="44.2692841" lon="11.2271524"><ele>561.0</ele><time>2026-04-15T13:40:42.11Z</time></trkpt><trkpt lat="44.2691893" lon="11.2270312"><ele>561.0</ele><time>2026-04-15T13:40:43.087Z</time></trkpt><trkpt lat="44.2690778" lon="11.2269021"><ele>561.0</ele><time>2026-04-15T13:40:44.096Z</time></trkpt><trkpt lat="44.2689642" lon="11.2267637"><ele>561.0</ele><time>2026-04-15T13:40:45.097Z</time></trkpt><trkpt lat="44.2688706" lon="11.2266055"><ele>561.0</ele><time>2026-04-15T13:40:46.101Z</time></trkpt><trkpt lat="44.2687976" lon="11.2264644"><ele>555.0</ele><time>2026-04-15T13:40:47.1Z</time></trkpt><trkpt lat="44.2687277" lon="11.2261922"><ele>549.0</ele><time>2026-04-15T13:40:49.082Z</time></trkpt><trkpt lat="44.268726" lon="11.2260499"><ele>543.0</ele><time>2026-04-15T13:40:50.095Z</time></trkpt><trkpt lat="44.2687627" lon="11.2259102"><ele>537.0</ele><time>2026-04-15T13:40:51.092Z</time></trkpt><trkpt lat="44.2688305" lon="11.2257673"><ele>537.0</ele><time>2026-04-15T13:40:52.094Z</time></trkpt><trkpt lat="44.2689149" lon="11.2256499"><ele>537.0</ele><time>2026-04-15T13:40:53.098Z</time></trkpt><trkpt lat="44.2690325" lon="11.2255725"><ele>537.0</ele><time>2026-04-15T13:40:54.096Z</time></trkpt><trkpt lat="44.2691623" lon="11.2255114"><ele>537.0</ele><time>2026-04-15T13:40:55.097Z</time></trkpt><trkpt lat="44.2693069" lon="11.2254594"><ele>535.0</ele><time>2026-04-15T13:40:56.096Z</time></trkpt><trkpt lat="44.2694421" lon="11.2254008"><ele>533.0</ele><time>2026-04-15T13:40:57.094Z</time></trkpt><trkpt lat="44.2695793" lon="11.2253395"><ele>531.0</ele><time>2026-04-15T13:40:58.089Z</time></trkpt><trkpt lat="44.2696832" lon="11.2252326"><ele>529.0</ele><time>2026-04-15T13:40:59.091Z</time></trkpt><trkpt lat="44.2697616" lon="11.2250666"><ele>530.0</ele><time>2026-04-15T13:41:00.098Z</time></trkpt><trkpt lat="44.2698302" lon="11.2248961"><ele>531.0</ele><time>2026-04-15T13:41:01.103Z</time></trkpt><trkpt lat="44.2698805" lon="11.2247126"><ele>532.0</ele><time>2026-04-15T13:41:02.094Z</time></trkpt><trkpt lat="44.2699128" lon="11.2245102"><ele>533.0</ele><time>2026-04-15T13:41:03.087Z</time></trkpt><trkpt lat="44.2699236" lon="11.22431"><ele>533.0</ele><time>2026-04-15T13:41:04.088Z</time></trkpt><trkpt lat="44.2699221" lon="11.2241319"><ele>533.0</ele><time>2026-04-15T13:41:05.103Z</time></trkpt><trkpt lat="44.269897" lon="11.223942"><ele>533.0</ele><time>2026-04-15T13:41:06.087Z</time></trkpt><trkpt lat="44.2698583" lon="11.2237779"><ele>533.0</ele><time>2026-04-15T13:41:07.087Z</time></trkpt><trkpt lat="44.2698156" lon="11.2236081"><ele>532.25</ele><time>2026-04-15T13:41:08.103Z</time></trkpt><trkpt lat="44.2697784" lon="11.2234445"><ele>531.5</ele><time>2026-04-15T13:41:09.088Z</time></trkpt><trkpt lat="44.269746" lon="11.2232987"><ele>530.75</ele><time>2026-04-15T13:41:10.091Z</time></trkpt><trkpt lat="44.2697092" lon="11.2231734"><ele>530.0</ele><time>2026-04-15T13:41:11.095Z</time></trkpt><trkpt lat="44.2695938" lon="11.2229508"><ele>526.5</ele><time>2026-04-15T13:41:14.106Z</time></trkpt><trkpt lat="44.2695086" lon="11.2229167"><ele>523.0</ele><time>2026-04-15T13:41:15.091Z</time></trkpt><trkpt lat="44.2694414" lon="11.2229332"><ele>519.5</ele><time>2026-04-15T13:41:16.098Z</time></trkpt><trkpt lat="44.2693861" lon="11.2229776"><ele>516.0</ele><time>2026-04-15T13:41:17.085Z</time></trkpt><trkpt lat="44.2693397" lon="11.2230373"><ele>512.5</ele><time>2026-04-15T13:41:18.1Z</time></trkpt><trkpt lat="44.2692957" lon="11.2231252"><ele>509.0</ele><time>2026-04-15T13:41:19.084Z</time></trkpt><trkpt lat="44.269229" lon="11.2232289"><ele>509.0</ele><time>2026-04-15T13:41:20.102Z</time></trkpt><trkpt lat="44.2691513" lon="11.223351"><ele>509.0</ele><time>2026-04-15T13:41:21.108Z</time></trkpt><trkpt lat="44.2690713" lon="11.2234922"><ele>509.0</ele><time>2026-04-15T13:41:22.09Z</time></trkpt><trkpt lat="44.2689894" lon="11.2236303"><ele>509.0</ele><time>2026-04-15T13:41:23.101Z</time></trkpt><trkpt lat="44.2689172" lon="11.2237479"><ele>506.3333333333333</ele><time>2026-04-15T13:41:24.097Z</time></trkpt><trkpt lat="44.2688557" lon="11.2238472"><ele>503.66666666666663</ele><time>2026-04-15T13:41:25.095Z</time></trkpt><trkpt lat="44.2687985" lon="11.2239086"><ele>501.0</ele><time>2026-04-15T13:41:26.099Z</time></trkpt><trkpt lat="44.2687308" lon="11.223936"><ele>498.33333333333337</ele><time>2026-04-15T13:41:27.088Z</time></trkpt><trkpt lat="44.2686655" lon="11.2239064"><ele>495.6666666666667</ele><time>2026-04-15T13:41:28.086Z</time></trkpt><trkpt lat="44.2686135" lon="11.223813"><ele>493.0</ele><time>2026-04-15T13:41:29.09Z</time></trkpt><trkpt lat="44.2685741" lon="11.2236895"><ele>493.0</ele><time>2026-04-15T13:41:30.09Z</time></trkpt><trkpt lat="44.2685645" lon="11.2235472"><ele>493.0</ele><time>2026-04-15T13:41:31.09Z</time></trkpt><trkpt lat="44.2685798" lon="11.223373"><ele>493.0</ele><time>2026-04-15T13:41:32.087Z</time></trkpt><trkpt lat="44.2685924" lon="11.2231632"><ele>493.0</ele><time>2026-04-15T13:41:33.101Z</time></trkpt><trkpt lat="44.268601" lon="11.22294"><ele>489.5</ele><time>2026-04-15T13:41:34.117Z</time></trkpt><trkpt lat="44.2686052" lon="11.2227218"><ele>486.0</ele><time>2026-04-15T13:41:35.091Z</time></trkpt><trkpt lat="44.2685532" lon="11.2222776"><ele>485.25</ele><time>2026-04-15T13:41:37.085Z</time></trkpt><trkpt lat="44.2685076" lon="11.2220743"><ele>484.5</ele><time>2026-04-15T13:41:38.092Z</time></trkpt><trkpt lat="44.2684561" lon="11.2219123"><ele>483.75</ele><time>2026-04-15T13:41:39.091Z</time></trkpt><trkpt lat="44.2684119" lon="11.2217551"><ele>483.0</ele><time>2026-04-15T13:41:40.095Z</time></trkpt><trkpt lat="44.2683902" lon="11.2215925"><ele>481.25</ele><time>2026-04-15T13:41:41.095Z</time></trkpt><trkpt lat="44.2684062" lon="11.2214295"><ele>479.5</ele><time>2026-04-15T13:41:42.089Z</time></trkpt><trkpt lat="44.2684509" lon="11.2212634"><ele>477.75</ele><time>2026-04-15T13:41:43.084Z</time></trkpt><trkpt lat="44.2684979" lon="11.221092"><ele>476.0</ele><time>2026-04-15T13:41:44.099Z</time></trkpt><trkpt lat="44.2685319" lon="11.2209138"><ele>476.0</ele><time>2026-04-15T13:41:45.09Z</time></trkpt><trkpt lat="44.2685488" lon="11.2207316"><ele>476.0</ele><time>2026-04-15T13:41:46.085Z</time></trkpt><trkpt lat="44.2685499" lon="11.2205788"><ele>476.0</ele><time>2026-04-15T13:41:47.079Z</time></trkpt><trkpt lat="44.2685517" lon="11.2204519"><ele>476.0</ele><time>2026-04-15T13:41:48.092Z</time></trkpt><trkpt lat="44.2685642" lon="11.220344"><ele>476.0</ele><time>2026-04-15T13:41:49.079Z</time></trkpt><trkpt lat="44.2685966" lon="11.2202351"><ele>474.4</ele><time>2026-04-15T13:41:50.097Z</time></trkpt><trkpt lat="44.2686685" lon="11.2201468"><ele>472.8</ele><time>2026-04-15T13:41:51.093Z</time></trkpt><trkpt lat="44.2687705" lon="11.2200985"><ele>471.19999999999993</ele><time>2026-04-15T13:41:52.089Z</time></trkpt><trkpt lat="44.2688812" lon="11.2200712"><ele>469.59999999999997</ele><time>2026-04-15T13:41:53.078Z</time></trkpt><trkpt lat="44.2689769" lon="11.2200588"><ele>468.0</ele><time>2026-04-15T13:41:54.088Z</time></trkpt><trkpt lat="44.2690441" lon="11.2200556"><ele>468.0</ele><time>2026-04-15T13:41:55.087Z</time></trkpt><trkpt lat="44.269091" lon="11.2199894"><ele>468.0</ele><time>2026-04-15T13:41:58.086Z</time></trkpt><trkpt lat="44.2690353" lon="11.219913"><ele>468.0</ele><time>2026-04-15T13:42:01.088Z</time></trkpt><trkpt lat="44.2689589" lon="11.2198316"><ele>468.0</ele><time>2026-04-15T13:42:03.088Z</time></trkpt><trkpt lat="44.2689011" lon="11.2197733"><ele>468.0</ele><time>2026-04-15T13:42:04.101Z</time></trkpt><trkpt lat="44.2688329" lon="11.2197038"><ele>468.0</ele><time>2026-04-15T13:42:05.088Z</time></trkpt><trkpt lat="44.2687002" lon="11.2195968"><ele>466.3333333333333</ele><time>2026-04-15T13:42:07.099Z</time></trkpt><trkpt lat="44.2686284" lon="11.2195609"><ele>464.66666666666663</ele><time>2026-04-15T13:42:08.088Z</time></trkpt><trkpt lat="44.2685619" lon="11.2195433"><ele>463.0</ele><time>2026-04-15T13:42:09.081Z</time></trkpt><trkpt lat="44.2684831" lon="11.2195346"><ele>461.3333333333333</ele><time>2026-04-15T13:42:10.081Z</time></trkpt><trkpt lat="44.2684085" lon="11.2195471"><ele>459.66666666666663</ele><time>2026-04-15T13:42:11.089Z</time></trkpt><trkpt lat="44.2683105" lon="11.2195482"><ele>458.0</ele><time>2026-04-15T13:42:13.09Z</time></trkpt><trkpt lat="44.2682288" lon="11.2195717"><ele>458.0</ele><time>2026-04-15T13:42:15.081Z</time></trkpt><trkpt lat="44.2681538" lon="11.2196207"><ele>457.99999999999994</ele><time>2026-04-15T13:42:17.092Z</time></trkpt><trkpt lat="44.2680763" lon="11.2197502"><ele>457.99999999999994</ele><time>2026-04-15T13:42:19.081Z</time></trkpt><trkpt lat="44.2680268" lon="11.2198493"><ele>458.0</ele><time>2026-04-15T13:42:20.091Z</time></trkpt><trkpt lat="44.2679806" lon="11.2199628"><ele>458.0</ele><time>2026-04-15T13:42:21.08Z</time></trkpt><trkpt lat="44.2679263" lon="11.2200856"><ele>456.0</ele><time>2026-04-15T13:42:22.077Z</time></trkpt><trkpt lat="44.2678651" lon="11.2202001"><ele>453.99999999999994</ele><time>2026-04-15T13:42:23.091Z</time></trkpt><trkpt lat="44.2678028" lon="11.2203064"><ele>451.99999999999994</ele><time>2026-04-15T13:42:24.086Z</time></trkpt><trkpt lat="44.2677329" lon="11.2204276"><ele>450.0</ele><time>2026-04-15T13:42:25.077Z</time></trkpt><trkpt lat="44.2676572" lon="11.2205566"><ele>448.0</ele><time>2026-04-15T13:42:26.095Z</time></trkpt><trkpt lat="44.2675788" lon="11.2206916"><ele>448.0</ele><time>2026-04-15T13:42:27.083Z</time></trkpt><trkpt lat="44.2674971" lon="11.2208161"><ele>448.0</ele><time>2026-04-15T13:42:28.085Z</time></trkpt><trkpt lat="44.2674109" lon="11.2209304"><ele>448.0</ele><time>2026-04-15T13:42:29.08Z</time></trkpt><trkpt lat="44.2673158" lon="11.2210226"><ele>448.0</ele><time>2026-04-15T13:42:30.086Z</time></trkpt><trkpt lat="44.2672167" lon="11.2211099"><ele>447.0</ele><time>2026-04-15T13:42:31.082Z</time></trkpt><trkpt lat="44.2671219" lon="11.2211939"><ele>445.99999999999994</ele><time>2026-04-15T13:42:32.075Z</time></trkpt><trkpt lat="44.2670327" lon="11.2212858"><ele>444.99999999999994</ele><time>2026-04-15T13:42:33.093Z</time></trkpt><trkpt lat="44.266946" lon="11.2213751"><ele>444.0</ele><time>2026-04-15T13:42:34.076Z</time></trkpt><trkpt lat="44.2668538" lon="11.221459"><ele>443.0</ele><time>2026-04-15T13:42:35.074Z</time></trkpt><trkpt lat="44.2667592" lon="11.2215343"><ele>443.0</ele><time>2026-04-15T13:42:36.087Z</time></trkpt><trkpt lat="44.2666592" lon="11.2216102"><ele>443.0</ele><time>2026-04-15T13:42:37.085Z</time></trkpt><trkpt lat="44.2664511" lon="11.2217747"><ele>443.0</ele><time>2026-04-15T13:42:39.076Z</time></trkpt><trkpt lat="44.266334" lon="11.2218478"><ele>439.0</ele><time>2026-04-15T13:42:40.078Z</time></trkpt><trkpt lat="44.2662142" lon="11.22191"><ele>434.99999999999994</ele><time>2026-04-15T13:42:41.085Z</time></trkpt><trkpt lat="44.2661039" lon="11.2219636"><ele>431.0</ele><time>2026-04-15T13:42:42.078Z</time></trkpt><trkpt lat="44.2660023" lon="11.2220096"><ele>427.0</ele><time>2026-04-15T13:42:43.071Z</time></trkpt><trkpt lat="44.2659098" lon="11.2220303"><ele>423.0</ele><time>2026-04-15T13:42:44.091Z</time></trkpt><trkpt lat="44.2658426" lon="11.2220449"><ele>423.0</ele><time>2026-04-15T13:42:45.086Z</time></trkpt><trkpt lat="44.2657216" lon="11.2220104"><ele>423.0</ele><time>2026-04-15T13:42:47.075Z</time></trkpt><trkpt lat="44.2656535" lon="11.2219457"><ele>423.0</ele><time>2026-04-15T13:42:48.092Z</time></trkpt><trkpt lat="44.2656024" lon="11.2218615"><ele>423.0</ele><time>2026-04-15T13:42:49.079Z</time></trkpt><trkpt lat="44.2655577" lon="11.2217614"><ele>423.0</ele><time>2026-04-15T13:42:50.081Z</time></trkpt><trkpt lat="44.2655205" lon="11.2216505"><ele>419.2</ele><time>2026-04-15T13:42:51.081Z</time></trkpt><trkpt lat="44.2654893" lon="11.221544"><ele>415.4</ele><time>2026-04-15T13:42:52.083Z</time></trkpt><trkpt lat="44.2654532" lon="11.2214266"><ele>411.59999999999997</ele><time>2026-04-15T13:42:53.075Z</time></trkpt><trkpt lat="44.2654195" lon="11.2212874"><ele>407.79999999999995</ele><time>2026-04-15T13:42:54.085Z</time></trkpt><trkpt lat="44.265382" lon="11.2211536"><ele>404.0</ele><time>2026-04-15T13:42:55.072Z</time></trkpt><trkpt lat="44.2653536" lon="11.2210274"><ele>403.99999999999994</ele><time>2026-04-15T13:42:56.101Z</time></trkpt><trkpt lat="44.2653236" lon="11.2209195"><ele>404.0</ele><time>2026-04-15T13:42:57.092Z</time></trkpt><trkpt lat="44.2652865" lon="11.2208021"><ele>404.0</ele><time>2026-04-15T13:42:58.071Z</time></trkpt><trkpt lat="44.2652467" lon="11.2206894"><ele>404.0</ele><time>2026-04-15T13:42:59.076Z</time></trkpt><trkpt lat="44.2652101" lon="11.2205854"><ele>403.99999999999994</ele><time>2026-04-15T13:43:00.087Z</time></trkpt><trkpt lat="44.2651725" lon="11.2204893"><ele>404.0</ele><time>2026-04-15T13:43:01.082Z</time></trkpt><trkpt lat="44.2651564" lon="11.220385"><ele>403.3333333333333</ele><time>2026-04-15T13:43:02.071Z</time></trkpt><trkpt lat="44.2651489" lon="11.2202918"><ele>402.66666666666663</ele><time>2026-04-15T13:43:03.076Z</time></trkpt><trkpt lat="44.2651761" lon="11.2201872"><ele>402.0</ele><time>2026-04-15T13:43:04.095Z</time></trkpt><trkpt lat="44.2651888" lon="11.2200992"><ele>401.33333333333337</ele><time>2026-04-15T13:43:05.065Z</time></trkpt><trkpt lat="44.2651727" lon="11.2199553"><ele>400.6666666666667</ele><time>2026-04-15T13:43:07.078Z</time></trkpt><trkpt lat="44.2650651" lon="11.2199193"><ele>400.0</ele><time>2026-04-15T13:43:09.078Z</time></trkpt><trkpt lat="44.2649956" lon="11.2199521"><ele>400.00000000000006</ele><time>2026-04-15T13:43:10.081Z</time></trkpt><trkpt lat="44.2649313" lon="11.2200016"><ele>400.0</ele><time>2026-04-15T13:43:11.072Z</time></trkpt><trkpt lat="44.2648698" lon="11.2200711"><ele>400.0</ele><time>2026-04-15T13:43:12.084Z</time></trkpt><trkpt lat="44.2648161" lon="11.2201563"><ele>400.0</ele><time>2026-04-15T13:43:13.086Z</time></trkpt><trkpt lat="44.2647726" lon="11.2202621"><ele>400.00000000000006</ele><time>2026-04-15T13:43:14.073Z</time></trkpt><trkpt lat="44.2647552" lon="11.2203832"><ele>400.0</ele><time>2026-04-15T13:43:15.076Z</time></trkpt><trkpt lat="44.2647455" lon="11.2205141"><ele>395.8</ele><time>2026-04-15T13:43:16.075Z</time></trkpt><trkpt lat="44.2647491" lon="11.2206443"><ele>391.6</ele><time>2026-04-15T13:43:17.074Z</time></trkpt><trkpt lat="44.2647571" lon="11.2207845"><ele>387.4</ele><time>2026-04-15T13:43:18.085Z</time></trkpt><trkpt lat="44.2647615" lon="11.2209321"><ele>383.2</ele><time>2026-04-15T13:43:19.081Z</time></trkpt><trkpt lat="44.2647627" lon="11.2210774"><ele>379.0</ele><time>2026-04-15T13:43:20.074Z</time></trkpt><trkpt lat="44.264754" lon="11.2212227"><ele>379.0</ele><time>2026-04-15T13:43:21.072Z</time></trkpt><trkpt lat="44.2647338" lon="11.2213568"><ele>379.0</ele><time>2026-04-15T13:43:22.081Z</time></trkpt><trkpt lat="44.2646925" lon="11.2214675"><ele>379.0</ele><time>2026-04-15T13:43:23.079Z</time></trkpt><trkpt lat="44.2646422" lon="11.2215617"><ele>379.0</ele><time>2026-04-15T13:43:24.07Z</time></trkpt><trkpt lat="44.2645766" lon="11.2216499"><ele>379.0</ele><time>2026-04-15T13:43:25.066Z</time></trkpt><trkpt lat="44.2645012" lon="11.2217288"><ele>380.2</ele><time>2026-04-15T13:43:26.076Z</time></trkpt><trkpt lat="44.2644187" lon="11.2218082"><ele>381.4</ele><time>2026-04-15T13:43:27.083Z</time></trkpt><trkpt lat="44.2643367" lon="11.2218913"><ele>382.6</ele><time>2026-04-15T13:43:28.084Z</time></trkpt><trkpt lat="44.2642479" lon="11.2219712"><ele>383.8</ele><time>2026-04-15T13:43:29.074Z</time></trkpt><trkpt lat="44.2641617" lon="11.2220546"><ele>385.0</ele><time>2026-04-15T13:43:30.089Z</time></trkpt><trkpt lat="44.2640758" lon="11.2221423"><ele>385.0</ele><time>2026-04-15T13:43:31.084Z</time></trkpt><trkpt lat="44.2639938" lon="11.2222252"><ele>385.0</ele><time>2026-04-15T13:43:32.084Z</time></trkpt><trkpt lat="44.2637686" lon="11.222482"><ele>385.0</ele><time>2026-04-15T13:43:35.074Z</time></trkpt><trkpt lat="44.263701" lon="11.2225907"><ele>383.4</ele><time>2026-04-15T13:43:36.072Z</time></trkpt><trkpt lat="44.2636373" lon="11.2226991"><ele>381.8</ele><time>2026-04-15T13:43:37.069Z</time></trkpt><trkpt lat="44.2635732" lon="11.2228227"><ele>380.20000000000005</ele><time>2026-04-15T13:43:38.073Z</time></trkpt><trkpt lat="44.2635048" lon="11.2229583"><ele>378.6</ele><time>2026-04-15T13:43:39.086Z</time></trkpt><trkpt lat="44.2634462" lon="11.2231026"><ele>377.0</ele><time>2026-04-15T13:43:40.087Z</time></trkpt><trkpt lat="44.2633955" lon="11.2232591"><ele>377.0</ele><time>2026-04-15T13:43:41.072Z</time></trkpt><trkpt lat="44.2633413" lon="11.223408"><ele>377.0</ele><time>2026-04-15T13:43:42.078Z</time></trkpt><trkpt lat="44.2632725" lon="11.2235413"><ele>377.0</ele><time>2026-04-15T13:43:43.075Z</time></trkpt><trkpt lat="44.2630997" lon="11.2237501"><ele>377.0</ele><time>2026-04-15T13:43:45.068Z</time></trkpt><trkpt lat="44.2630103" lon="11.2238221"><ele>377.0</ele><time>2026-04-15T13:43:46.084Z</time></trkpt><trkpt lat="44.2629138" lon="11.2239055"><ele>377.0</ele><time>2026-04-15T13:43:47.08Z</time></trkpt><trkpt lat="44.2628051" lon="11.2239841"><ele>377.0</ele><time>2026-04-15T13:43:48.07Z</time></trkpt><trkpt lat="44.262694" lon="11.2240445"><ele>377.0</ele><time>2026-04-15T13:43:49.07Z</time></trkpt><trkpt lat="44.2625965" lon="11.224093"><ele>377.0</ele><time>2026-04-15T13:43:50.066Z</time></trkpt><trkpt lat="44.2625077" lon="11.224114"><ele>377.0</ele><time>2026-04-15T13:43:51.086Z</time></trkpt><trkpt lat="44.262416" lon="11.224109"><ele>377.0</ele><time>2026-04-15T13:43:52.087Z</time></trkpt><trkpt lat="44.262326" lon="11.2240832"><ele>377.0</ele><time>2026-04-15T13:43:53.073Z</time></trkpt><trkpt lat="44.2622468" lon="11.2240029"><ele>373.5</ele><time>2026-04-15T13:43:54.073Z</time></trkpt><trkpt lat="44.2621831" lon="11.2238896"><ele>370.0</ele><time>2026-04-15T13:43:55.091Z</time></trkpt><trkpt lat="44.2621351" lon="11.2237432"><ele>366.5</ele><time>2026-04-15T13:43:56.079Z</time></trkpt><trkpt lat="44.2620927" lon="11.2235852"><ele>363.0</ele><time>2026-04-15T13:43:57.071Z</time></trkpt><trkpt lat="44.2620017" lon="11.2232598"><ele>360.0</ele><time>2026-04-15T13:43:59.074Z</time></trkpt><trkpt lat="44.2619076" lon="11.2229171"><ele>357.0</ele><time>2026-04-15T13:44:01.078Z</time></trkpt><trkpt lat="44.2618697" lon="11.2227512"><ele>354.0</ele><time>2026-04-15T13:44:02.086Z</time></trkpt><trkpt lat="44.2618237" lon="11.2225871"><ele>354.0</ele><time>2026-04-15T13:44:03.088Z</time></trkpt><trkpt lat="44.2617735" lon="11.2224336"><ele>354.0</ele><time>2026-04-15T13:44:04.078Z</time></trkpt><trkpt lat="44.2617216" lon="11.2222871"><ele>354.0</ele><time>2026-04-15T13:44:05.073Z</time></trkpt><trkpt lat="44.2616794" lon="11.2221592"><ele>354.0</ele><time>2026-04-15T13:44:06.078Z</time></trkpt><trkpt lat="44.2616558" lon="11.2220267"><ele>354.0</ele><time>2026-04-15T13:44:07.07Z</time></trkpt><trkpt lat="44.2616539" lon="11.2218735"><ele>353.0</ele><time>2026-04-15T13:44:08.061Z</time></trkpt><trkpt lat="44.2616141" lon="11.2215888"><ele>352.0</ele><time>2026-04-15T13:44:10.063Z</time></trkpt><trkpt lat="44.2615998" lon="11.2214586"><ele>351.0</ele><time>2026-04-15T13:44:11.073Z</time></trkpt><trkpt lat="44.2615708" lon="11.2213334"><ele>350.0</ele><time>2026-04-15T13:44:12.063Z</time></trkpt><trkpt lat="44.2615103" lon="11.2212283"><ele>349.2</ele><time>2026-04-15T13:44:13.073Z</time></trkpt><trkpt lat="44.2614538" lon="11.2211471"><ele>348.4</ele><time>2026-04-15T13:44:14.083Z</time></trkpt><trkpt lat="44.2613736" lon="11.2210733"><ele>347.6</ele><time>2026-04-15T13:44:15.066Z</time></trkpt><trkpt lat="44.2612893" lon="11.221001"><ele>346.8</ele><time>2026-04-15T13:44:16.062Z</time></trkpt><trkpt lat="44.2611987" lon="11.2209304"><ele>346.0</ele><time>2026-04-15T13:44:17.065Z</time></trkpt><trkpt lat="44.2611042" lon="11.2208559"><ele>342.8</ele><time>2026-04-15T13:44:18.095Z</time></trkpt><trkpt lat="44.2610214" lon="11.220776"><ele>339.6</ele><time>2026-04-15T13:44:19.086Z</time></trkpt><trkpt lat="44.2609607" lon="11.2206573"><ele>336.4</ele><time>2026-04-15T13:44:20.078Z</time></trkpt><trkpt lat="44.2609196" lon="11.2205247"><ele>333.2</ele><time>2026-04-15T13:44:21.064Z</time></trkpt><trkpt lat="44.2608881" lon="11.2203944"><ele>330.0</ele><time>2026-04-15T13:44:22.063Z</time></trkpt><trkpt lat="44.2608534" lon="11.2202742"><ele>329.2</ele><time>2026-04-15T13:44:23.098Z</time></trkpt><trkpt lat="44.2608128" lon="11.220146"><ele>328.4</ele><time>2026-04-15T13:44:24.07Z</time></trkpt><trkpt lat="44.2607545" lon="11.2200261"><ele>327.6</ele><time>2026-04-15T13:44:25.063Z</time></trkpt><trkpt lat="44.2607169" lon="11.2199122"><ele>326.8</ele><time>2026-04-15T13:44:26.066Z</time></trkpt><trkpt lat="44.2606902" lon="11.2198034"><ele>326.0</ele><time>2026-04-15T13:44:27.074Z</time></trkpt><trkpt lat="44.2606768" lon="11.2196713"><ele>323.40000000000003</ele><time>2026-04-15T13:44:28.062Z</time></trkpt><trkpt lat="44.2606837" lon="11.219505"><ele>320.8</ele><time>2026-04-15T13:44:29.069Z</time></trkpt><trkpt lat="44.2607131" lon="11.2193784"><ele>318.20000000000005</ele><time>2026-04-15T13:44:30.065Z</time></trkpt><trkpt lat="44.2607832" lon="11.2192616"><ele>315.6</ele><time>2026-04-15T13:44:31.069Z</time></trkpt><trkpt lat="44.2608812" lon="11.2191548"><ele>313.0</ele><time>2026-04-15T13:44:32.063Z</time></trkpt><trkpt lat="44.2609892" lon="11.2190458"><ele>309.5</ele><time>2026-04-15T13:44:33.065Z</time></trkpt><trkpt lat="44.2610916" lon="11.2189114"><ele>306.0</ele><time>2026-04-15T13:44:34.082Z</time></trkpt><trkpt lat="44.261184" lon="11.2187622"><ele>302.5</ele><time>2026-04-15T13:44:35.065Z</time></trkpt><trkpt lat="44.2612725" lon="11.2186075"><ele>299.0</ele><time>2026-04-15T13:44:36.082Z</time></trkpt><trkpt lat="44.2613582" lon="11.2184552"><ele>299.0</ele><time>2026-04-15T13:44:37.09Z</time></trkpt><trkpt lat="44.2614206" lon="11.2183088"><ele>299.0</ele><time>2026-04-15T13:44:38.067Z</time></trkpt><trkpt lat="44.2614928" lon="11.2181582"><ele>299.0</ele><time>2026-04-15T13:44:39.059Z</time></trkpt><trkpt lat="44.2615819" lon="11.218025"><ele>299.0</ele><time>2026-04-15T13:44:40.057Z</time></trkpt><trkpt lat="44.2616687" lon="11.2178905"><ele>298.0</ele><time>2026-04-15T13:44:41.076Z</time></trkpt><trkpt lat="44.2617458" lon="11.2177714"><ele>297.0</ele><time>2026-04-15T13:44:42.07Z</time></trkpt><trkpt lat="44.2618189" lon="11.2176735"><ele>296.0</ele><time>2026-04-15T13:44:43.06Z</time></trkpt><trkpt lat="44.2618781" lon="11.2175939"><ele>295.0</ele><time>2026-04-15T13:44:44.07Z</time></trkpt><trkpt lat="44.2619237" lon="11.2175225"><ele>294.0</ele><time>2026-04-15T13:44:45.067Z</time></trkpt><trkpt lat="44.2619841" lon="11.2173812"><ele>292.5</ele><time>2026-04-15T13:44:47.063Z</time></trkpt><trkpt lat="44.2620507" lon="11.2172936"><ele>291.0</ele><time>2026-04-15T13:44:49.062Z</time></trkpt><trkpt lat="44.262069" lon="11.2171959"><ele>289.5</ele><time>2026-04-15T13:45:46.058Z</time></trkpt><trkpt lat="44.2621035" lon="11.2171053"><ele>288.0</ele><time>2026-04-15T13:45:48.067Z</time></trkpt><trkpt lat="44.2621448" lon="11.2169949"><ele>286.5</ele><time>2026-04-15T13:45:51.066Z</time></trkpt><trkpt lat="44.2621901" lon="11.216908"><ele>285.0</ele><time>2026-04-15T13:45:53.062Z</time></trkpt><trkpt lat="44.2622455" lon="11.216826"><ele>284.5</ele><time>2026-04-15T13:45:55.06Z</time></trkpt><trkpt lat="44.2623085" lon="11.2167166"><ele>284.0</ele><time>2026-04-15T13:45:57.051Z</time></trkpt><trkpt lat="44.262358" lon="11.2166146"><ele>283.5</ele><time>2026-04-15T13:45:58.068Z</time></trkpt><trkpt lat="44.2624149" lon="11.2165393"><ele>283.0</ele><time>2026-04-15T13:45:59.066Z</time></trkpt><trkpt lat="44.2624683" lon="11.2164635"><ele>282.5</ele><time>2026-04-15T13:46:00.051Z</time></trkpt><trkpt lat="44.2625144" lon="11.2163705"><ele>282.0</ele><time>2026-04-15T13:46:01.061Z</time></trkpt><trkpt lat="44.262555" lon="11.216287"><ele>282.0</ele><time>2026-04-15T13:46:02.064Z</time></trkpt><trkpt lat="44.262597" lon="11.2162183"><ele>282.0</ele><time>2026-04-15T13:46:03.061Z</time></trkpt><trkpt lat="44.2627007" lon="11.2161196"><ele>282.0</ele><time>2026-04-15T13:46:05.062Z</time></trkpt><trkpt lat="44.262785" lon="11.2159913"><ele>282.0</ele><time>2026-04-15T13:46:07.065Z</time></trkpt><trkpt lat="44.2628667" lon="11.2158735"><ele>282.0</ele><time>2026-04-15T13:46:09.059Z</time></trkpt><trkpt lat="44.2629416" lon="11.2157587"><ele>281.0</ele><time>2026-04-15T13:46:11.05Z</time></trkpt><trkpt lat="44.2630072" lon="11.2156531"><ele>280.0</ele><time>2026-04-15T13:46:13.048Z</time></trkpt><trkpt lat="44.2631313" lon="11.2155182"><ele>279.0</ele><time>2026-04-15T13:46:16.055Z</time></trkpt><trkpt lat="44.2632126" lon="11.2154228"><ele>278.0</ele><time>2026-04-15T13:46:18.062Z</time></trkpt><trkpt lat="44.2632765" lon="11.2152748"><ele>278.0</ele><time>2026-04-15T13:46:21.056Z</time></trkpt><trkpt lat="44.2632388" lon="11.2151473"><ele>278.0</ele><time>2026-04-15T13:46:23.071Z</time></trkpt><trkpt lat="44.2632207" lon="11.2150054"><ele>278.0</ele><time>2026-04-15T13:46:25.047Z</time></trkpt><trkpt lat="44.2631936" lon="11.2148912"><ele>278.0</ele><time>2026-04-15T13:46:27.048Z</time></trkpt><trkpt lat="44.2631443" lon="11.2147872"><ele>278.0</ele><time>2026-04-15T13:46:29.057Z</time></trkpt><trkpt lat="44.2630891" lon="11.2146564"><ele>280.5</ele><time>2026-04-15T13:46:31.044Z</time></trkpt><trkpt lat="44.2629873" lon="11.2144676"><ele>283.0</ele><time>2026-04-15T13:46:34.056Z</time></trkpt><trkpt lat="44.2629303" lon="11.214343"><ele>285.5</ele><time>2026-04-15T13:46:36.081Z</time></trkpt><trkpt lat="44.2628897" lon="11.2142179"><ele>288.0</ele><time>2026-04-15T13:46:38.046Z</time></trkpt><trkpt lat="44.2629176" lon="11.214069"><ele>287.0</ele><time>2026-04-15T13:46:40.042Z</time></trkpt><trkpt lat="44.2630061" lon="11.2139475"><ele>286.0</ele><time>2026-04-15T13:46:42.049Z</time></trkpt><trkpt lat="44.2630874" lon="11.2138559"><ele>285.0</ele><time>2026-04-15T13:46:44.043Z</time></trkpt><trkpt lat="44.2631754" lon="11.2137562"><ele>284.0</ele><time>2026-04-15T13:46:46.046Z</time></trkpt><trkpt lat="44.2632358" lon="11.2137166"><ele>283.0</ele><time>2026-04-15T13:46:47.055Z</time></trkpt><trkpt lat="44.2632967" lon="11.2136736"><ele>283.0</ele><time>2026-04-15T13:46:48.058Z</time></trkpt><trkpt lat="44.2633522" lon="11.2136284"><ele>283.0</ele><time>2026-04-15T13:46:49.055Z</time></trkpt><trkpt lat="44.2633949" lon="11.2135613"><ele>283.0</ele><time>2026-04-15T13:46:50.041Z</time></trkpt><trkpt lat="44.2634619" lon="11.2134422"><ele>283.0</ele><time>2026-04-15T13:46:52.048Z</time></trkpt><trkpt lat="44.2635108" lon="11.2133407"><ele>283.0</ele><time>2026-04-15T13:46:54.038Z</time></trkpt><trkpt lat="44.2635511" lon="11.2132122"><ele>283.0</ele><time>2026-04-15T13:46:56.059Z</time></trkpt><trkpt lat="44.2635728" lon="11.2130856"><ele>286.0</ele><time>2026-04-15T13:46:58.058Z</time></trkpt><trkpt lat="44.2635759" lon="11.2129464"><ele>289.0</ele><time>2026-04-15T13:47:00.044Z</time></trkpt><trkpt lat="44.2635656" lon="11.2128227"><ele>292.0</ele><time>2026-04-15T13:47:02.045Z</time></trkpt><trkpt lat="44.2635268" lon="11.2127056"><ele>295.0</ele><time>2026-04-15T13:47:04.051Z</time></trkpt><trkpt lat="44.2633959" lon="11.2126674"><ele>298.0</ele><time>2026-04-15T13:47:06.053Z</time></trkpt><trkpt lat="44.2633026" lon="11.2126491"><ele>298.0</ele><time>2026-04-15T13:47:07.05Z</time></trkpt><trkpt lat="44.2632059" lon="11.2126186"><ele>298.0</ele><time>2026-04-15T13:47:08.068Z</time></trkpt><trkpt lat="44.2631106" lon="11.2125907"><ele>298.0</ele><time>2026-04-15T13:47:09.052Z</time></trkpt><trkpt lat="44.2630177" lon="11.2125542"><ele>298.0</ele><time>2026-04-15T13:47:10.043Z</time></trkpt><trkpt lat="44.2629332" lon="11.2124974"><ele>298.0</ele><time>2026-04-15T13:47:11.038Z</time></trkpt><trkpt lat="44.2628102" lon="11.2123435"><ele>301.2</ele><time>2026-04-15T13:47:13.042Z</time></trkpt><trkpt lat="44.2627571" lon="11.2122337"><ele>304.4</ele><time>2026-04-15T13:47:14.041Z</time></trkpt><trkpt lat="44.2626994" lon="11.2121342"><ele>307.59999999999997</ele><time>2026-04-15T13:47:15.039Z</time></trkpt><trkpt lat="44.2626363" lon="11.2120165"><ele>310.8</ele><time>2026-04-15T13:47:16.043Z</time></trkpt><trkpt lat="44.2625724" lon="11.2119068"><ele>314.0</ele><time>2026-04-15T13:47:17.039Z</time></trkpt><trkpt lat="44.2625179" lon="11.2117804"><ele>314.0</ele><time>2026-04-15T13:47:18.046Z</time></trkpt><trkpt lat="44.262465" lon="11.211669"><ele>314.0</ele><time>2026-04-15T13:47:19.048Z</time></trkpt><trkpt lat="44.2624361" lon="11.2115561"><ele>314.0</ele><time>2026-04-15T13:47:20.05Z</time></trkpt><trkpt lat="44.2624444" lon="11.2114567"><ele>314.0</ele><time>2026-04-15T13:47:21.055Z</time></trkpt><trkpt lat="44.2624842" lon="11.2113805"><ele>314.0</ele><time>2026-04-15T13:47:22.059Z</time></trkpt><trkpt lat="44.2625345" lon="11.2113246"><ele>314.0</ele><time>2026-04-15T13:47:23.035Z</time></trkpt><trkpt lat="44.2626007" lon="11.2113132"><ele>314.0</ele><time>2026-04-15T13:47:24.047Z</time></trkpt><trkpt lat="44.2626729" lon="11.2113439"><ele>314.0</ele><time>2026-04-15T13:47:25.05Z</time></trkpt><trkpt lat="44.2627576" lon="11.2113931"><ele>314.0</ele><time>2026-04-15T13:47:26.04Z</time></trkpt><trkpt lat="44.2628303" lon="11.2114639"><ele>314.0</ele><time>2026-04-15T13:47:27.039Z</time></trkpt><trkpt lat="44.2628943" lon="11.2115318"><ele>314.0</ele><time>2026-04-15T13:47:28.042Z</time></trkpt><trkpt lat="44.2629596" lon="11.2115882"><ele>314.0</ele><time>2026-04-15T13:47:29.039Z</time></trkpt><trkpt lat="44.2630205" lon="11.2116287"><ele>314.2</ele><time>2026-04-15T13:47:30.048Z</time></trkpt><trkpt lat="44.2631326" lon="11.21165"><ele>314.4</ele><time>2026-04-15T13:47:32.051Z</time></trkpt><trkpt lat="44.2632003" lon="11.211591"><ele>314.6</ele><time>2026-04-15T13:47:33.039Z</time></trkpt><trkpt lat="44.2632616" lon="11.2115018"><ele>314.8</ele><time>2026-04-15T13:47:34.046Z</time></trkpt><trkpt lat="44.2633279" lon="11.2113934"><ele>315.0</ele><time>2026-04-15T13:47:35.052Z</time></trkpt><trkpt lat="44.2633879" lon="11.211283"><ele>317.4</ele><time>2026-04-15T13:47:36.047Z</time></trkpt><trkpt lat="44.2634303" lon="11.2111801"><ele>319.8</ele><time>2026-04-15T13:47:37.052Z</time></trkpt><trkpt lat="44.2634214" lon="11.2110153"><ele>322.20000000000005</ele><time>2026-04-15T13:47:39.042Z</time></trkpt><trkpt lat="44.2633483" lon="11.2108931"><ele>324.6</ele><time>2026-04-15T13:47:41.04Z</time></trkpt><trkpt lat="44.2632701" lon="11.2108481"><ele>327.0</ele><time>2026-04-15T13:47:42.043Z</time></trkpt><trkpt lat="44.2631776" lon="11.2108038"><ele>328.8333333333333</ele><time>2026-04-15T13:47:43.047Z</time></trkpt><trkpt lat="44.2630788" lon="11.2107615"><ele>330.6666666666667</ele><time>2026-04-15T13:47:44.045Z</time></trkpt><trkpt lat="44.26299" lon="11.2107113"><ele>332.5</ele><time>2026-04-15T13:47:45.045Z</time></trkpt><trkpt lat="44.2629096" lon="11.2106608"><ele>334.33333333333337</ele><time>2026-04-15T13:47:46.039Z</time></trkpt><trkpt lat="44.262845" lon="11.2105997"><ele>336.1666666666667</ele><time>2026-04-15T13:47:47.035Z</time></trkpt><trkpt lat="44.2628354" lon="11.2105081"><ele>338.0</ele><time>2026-04-15T13:47:48.042Z</time></trkpt><trkpt lat="44.2628816" lon="11.2103679"><ele>340.33333333333337</ele><time>2026-04-15T13:47:50.042Z</time></trkpt><trkpt lat="44.2628959" lon="11.2102566"><ele>342.6666666666667</ele><time>2026-04-15T13:47:52.034Z</time></trkpt><trkpt lat="44.2628347" lon="11.2102202"><ele>345.0</ele><time>2026-04-15T13:47:54.044Z</time></trkpt><trkpt lat="44.2627657" lon="11.2102538"><ele>347.3333333333333</ele><time>2026-04-15T13:47:55.035Z</time></trkpt><trkpt lat="44.262692" lon="11.2102813"><ele>349.66666666666663</ele><time>2026-04-15T13:47:56.042Z</time></trkpt><trkpt lat="44.2626005" lon="11.2102746"><ele>352.0</ele><time>2026-04-15T13:47:57.041Z</time></trkpt><trkpt lat="44.2625235" lon="11.2102362"><ele>352.0</ele><time>2026-04-15T13:47:58.031Z</time></trkpt><trkpt lat="44.2624591" lon="11.2101688"><ele>352.0</ele><time>2026-04-15T13:47:59.033Z</time></trkpt><trkpt lat="44.2624115" lon="11.210088"><ele>352.0</ele><time>2026-04-15T13:48:00.04Z</time></trkpt><trkpt lat="44.2623782" lon="11.209983"><ele>352.0</ele><time>2026-04-15T13:48:01.041Z</time></trkpt><trkpt lat="44.2623523" lon="11.2098569"><ele>352.0</ele><time>2026-04-15T13:48:02.038Z</time></trkpt><trkpt lat="44.2623297" lon="11.2096997"><ele>352.0</ele><time>2026-04-15T13:48:03.048Z</time></trkpt><trkpt lat="44.2622999" lon="11.2095326"><ele>355.0</ele><time>2026-04-15T13:48:04.04Z</time></trkpt><trkpt lat="44.2622579" lon="11.2093465"><ele>358.0</ele><time>2026-04-15T13:48:05.045Z</time></trkpt><trkpt lat="44.2622047" lon="11.2091566"><ele>361.0</ele><time>2026-04-15T13:48:06.031Z</time></trkpt><trkpt lat="44.2621465" lon="11.2089697"><ele>364.0</ele><time>2026-04-15T13:48:07.033Z</time></trkpt><trkpt lat="44.2620804" lon="11.2087913"><ele>367.25</ele><time>2026-04-15T13:48:08.052Z</time></trkpt><trkpt lat="44.2620053" lon="11.2086159"><ele>370.5</ele><time>2026-04-15T13:48:09.031Z</time></trkpt><trkpt lat="44.2619153" lon="11.2084658"><ele>373.75</ele><time>2026-04-15T13:48:10.045Z</time></trkpt><trkpt lat="44.2618436" lon="11.2083017"><ele>377.0</ele><time>2026-04-15T13:48:11.043Z</time></trkpt><trkpt lat="44.261788" lon="11.2081287"><ele>379.6666666666667</ele><time>2026-04-15T13:48:12.036Z</time></trkpt><trkpt lat="44.2617357" lon="11.2079377"><ele>382.33333333333337</ele><time>2026-04-15T13:48:13.048Z</time></trkpt><trkpt lat="44.2616844" lon="11.2077309"><ele>385.0</ele><time>2026-04-15T13:48:14.045Z</time></trkpt><trkpt lat="44.2616247" lon="11.2075385"><ele>385.0</ele><time>2026-04-15T13:48:15.051Z</time></trkpt><trkpt lat="44.2615783" lon="11.2073499"><ele>385.0</ele><time>2026-04-15T13:48:16.032Z</time></trkpt><trkpt lat="44.2615348" lon="11.2071717"><ele>385.0</ele><time>2026-04-15T13:48:17.035Z</time></trkpt><trkpt lat="44.2615094" lon="11.2067255"><ele>387.6</ele><time>2026-04-15T13:48:20.058Z</time></trkpt><trkpt lat="44.2615134" lon="11.2065972"><ele>390.2</ele><time>2026-04-15T13:48:21.037Z</time></trkpt><trkpt lat="44.2615358" lon="11.2064711"><ele>392.79999999999995</ele><time>2026-04-15T13:48:22.037Z</time></trkpt><trkpt lat="44.261566" lon="11.206337"><ele>395.4</ele><time>2026-04-15T13:48:23.039Z</time></trkpt><trkpt lat="44.261596" lon="11.206201"><ele>398.0</ele><time>2026-04-15T13:48:24.044Z</time></trkpt><trkpt lat="44.2616263" lon="11.2060699"><ele>401.25</ele><time>2026-04-15T13:48:25.05Z</time></trkpt><trkpt lat="44.2616725" lon="11.2058769"><ele>404.5</ele><time>2026-04-15T13:48:27.036Z</time></trkpt><trkpt lat="44.2616874" lon="11.2057822"><ele>407.75</ele><time>2026-04-15T13:48:29.037Z</time></trkpt><trkpt lat="44.2615685" lon="11.2057648"><ele>411.0</ele><time>2026-04-15T13:48:32.034Z</time></trkpt><trkpt lat="44.2614535" lon="11.2057878"><ele>413.4</ele><time>2026-04-15T13:48:34.03Z</time></trkpt><trkpt lat="44.2613358" lon="11.2058008"><ele>415.8</ele><time>2026-04-15T13:48:36.037Z</time></trkpt><trkpt lat="44.2612257" lon="11.205823"><ele>418.2</ele><time>2026-04-15T13:48:38.046Z</time></trkpt><trkpt lat="44.261095" lon="11.2058162"><ele>420.59999999999997</ele><time>2026-04-15T13:48:40.037Z</time></trkpt><trkpt lat="44.261026" lon="11.2058091"><ele>423.0</ele><time>2026-04-15T13:48:41.034Z</time></trkpt><trkpt lat="44.2609564" lon="11.2058012"><ele>423.0</ele><time>2026-04-15T13:48:42.032Z</time></trkpt><trkpt lat="44.2608906" lon="11.2057958"><ele>423.0</ele><time>2026-04-15T13:48:43.037Z</time></trkpt><trkpt lat="44.2607938" lon="11.2058109"><ele>423.0</ele><time>2026-04-15T13:48:45.04Z</time></trkpt><trkpt lat="44.2607229" lon="11.2058038"><ele>423.0</ele><time>2026-04-15T13:48:48.036Z</time></trkpt><trkpt lat="44.2606811" lon="11.2057203"><ele>423.0</ele><time>2026-04-15T13:48:51.037Z</time></trkpt><trkpt lat="44.260655" lon="11.2055847"><ele>423.0</ele><time>2026-04-15T13:48:53.029Z</time></trkpt><trkpt lat="44.2606259" lon="11.2053981"><ele>422.59999999999997</ele><time>2026-04-15T13:48:55.033Z</time></trkpt><trkpt lat="44.2606067" lon="11.205253"><ele>422.2</ele><time>2026-04-15T13:48:56.044Z</time></trkpt><trkpt lat="44.2605906" lon="11.2051104"><ele>421.8</ele><time>2026-04-15T13:48:57.035Z</time></trkpt><trkpt lat="44.2605784" lon="11.2049876"><ele>421.4</ele><time>2026-04-15T13:48:58.027Z</time></trkpt><trkpt lat="44.2605693" lon="11.2048787"><ele>421.0</ele><time>2026-04-15T13:48:59.026Z</time></trkpt><trkpt lat="44.2605584" lon="11.204764"><ele>421.00000000000006</ele><time>2026-04-15T13:49:00.046Z</time></trkpt><trkpt lat="44.260544" lon="11.2046461"><ele>421.0</ele><time>2026-04-15T13:49:01.035Z</time></trkpt><trkpt lat="44.2605262" lon="11.2045286"><ele>421.0</ele><time>2026-04-15T13:49:02.024Z</time></trkpt><trkpt lat="44.2605222" lon="11.204434"><ele>421.0</ele><time>2026-04-15T13:49:03.027Z</time></trkpt><trkpt lat="44.260513" lon="11.2043337"><ele>421.00000000000006</ele><time>2026-04-15T13:49:04.038Z</time></trkpt><trkpt lat="44.260521" lon="11.204197"><ele>421.0</ele><time>2026-04-15T13:49:05.035Z</time></trkpt><trkpt lat="44.2605193" lon="11.2040904"><ele>420.00000000000006</ele><time>2026-04-15T13:49:06.034Z</time></trkpt><trkpt lat="44.2605237" lon="11.2039962"><ele>419.0</ele><time>2026-04-15T13:49:09.038Z</time></trkpt><trkpt lat="44.2605355" lon="11.2038725"><ele>418.0</ele><time>2026-04-15T13:50:10.015Z</time></trkpt><trkpt lat="44.2605467" lon="11.2037383"><ele>417.0</ele><time>2026-04-15T13:50:12.033Z</time></trkpt><trkpt lat="44.2605455" lon="11.2035792"><ele>416.00000000000006</ele><time>2026-04-15T13:50:14.015Z</time></trkpt><trkpt lat="44.2605321" lon="11.2034774"><ele>415.0</ele><time>2026-04-15T13:50:15.018Z</time></trkpt><trkpt lat="44.2605148" lon="11.2033486"><ele>415.0</ele><time>2026-04-15T13:50:16.033Z</time></trkpt><trkpt lat="44.2604864" lon="11.2032101"><ele>415.0</ele><time>2026-04-15T13:50:17.036Z</time></trkpt><trkpt lat="44.260454" lon="11.2030766"><ele>415.0</ele><time>2026-04-15T13:50:18.014Z</time></trkpt><trkpt lat="44.2604141" lon="11.2029489"><ele>415.0</ele><time>2026-04-15T13:50:19.019Z</time></trkpt><trkpt lat="44.2603721" lon="11.2028176"><ele>415.0</ele><time>2026-04-15T13:50:20.027Z</time></trkpt><trkpt lat="44.2603271" lon="11.2025648"><ele>412.6</ele><time>2026-04-15T13:50:22.045Z</time></trkpt><trkpt lat="44.2603033" lon="11.2024288"><ele>410.2</ele><time>2026-04-15T13:50:23.121Z</time></trkpt><trkpt lat="44.260268" lon="11.2023376"><ele>407.79999999999995</ele><time>2026-04-15T13:50:24.125Z</time></trkpt><trkpt lat="44.2601879" lon="11.2022195"><ele>405.4</ele><time>2026-04-15T13:50:26.028Z</time></trkpt><trkpt lat="44.2601406" lon="11.2021595"><ele>403.0</ele><time>2026-04-15T13:50:30.112Z</time></trkpt><trkpt lat="44.260062" lon="11.2020804"><ele>401.0</ele><time>2026-04-15T14:02:52.08Z</time></trkpt><trkpt lat="44.2599481" lon="11.2019932"><ele>399.0</ele><time>2026-04-15T14:02:54.085Z</time></trkpt><trkpt lat="44.2597738" lon="11.2018471"><ele>397.0</ele><time>2026-04-15T14:02:56.095Z</time></trkpt><trkpt lat="44.2596744" lon="11.2017975"><ele>395.0</ele><time>2026-04-15T14:02:57.086Z</time></trkpt><trkpt lat="44.2595689" lon="11.2017619"><ele>395.0</ele><time>2026-04-15T14:02:58.083Z</time></trkpt><trkpt lat="44.2594557" lon="11.2017135"><ele>395.0</ele><time>2026-04-15T14:02:59.093Z</time></trkpt><trkpt lat="44.2593492" lon="11.2016755"><ele>395.0</ele><time>2026-04-15T14:03:00.095Z</time></trkpt><trkpt lat="44.2592424" lon="11.2016394"><ele>395.0</ele><time>2026-04-15T14:03:01.091Z</time></trkpt><trkpt lat="44.2591334" lon="11.2016135"><ele>395.0</ele><time>2026-04-15T14:03:02.092Z</time></trkpt><trkpt lat="44.259035" lon="11.2015824"><ele>395.0</ele><time>2026-04-15T14:03:03.097Z</time></trkpt><trkpt lat="44.2589611" lon="11.2015096"><ele>395.0</ele><time>2026-04-15T14:03:04.08Z</time></trkpt><trkpt lat="44.258898" lon="11.2013969"><ele>395.0</ele><time>2026-04-15T14:03:05.086Z</time></trkpt><trkpt lat="44.2588402" lon="11.2013165"><ele>395.0</ele><time>2026-04-15T14:03:06.082Z</time></trkpt><trkpt lat="44.2587621" lon="11.2012813"><ele>395.0</ele><time>2026-04-15T14:03:07.078Z</time></trkpt><trkpt lat="44.2586674" lon="11.201283"><ele>394.2</ele><time>2026-04-15T14:03:08.087Z</time></trkpt><trkpt lat="44.2585583" lon="11.2012892"><ele>393.4</ele><time>2026-04-15T14:03:09.086Z</time></trkpt><trkpt lat="44.2584481" lon="11.2012707"><ele>392.6</ele><time>2026-04-15T14:03:10.097Z</time></trkpt><trkpt lat="44.2583405" lon="11.201226"><ele>391.8</ele><time>2026-04-15T14:03:11.088Z</time></trkpt><trkpt lat="44.2582453" lon="11.2011624"><ele>391.0</ele><time>2026-04-15T14:03:12.093Z</time></trkpt><trkpt lat="44.258148" lon="11.2010864"><ele>392.20000000000005</ele><time>2026-04-15T14:03:13.091Z</time></trkpt><trkpt lat="44.2580597" lon="11.2010044"><ele>393.40000000000003</ele><time>2026-04-15T14:03:14.094Z</time></trkpt><trkpt lat="44.2579881" lon="11.200938"><ele>394.6</ele><time>2026-04-15T14:03:15.084Z</time></trkpt><trkpt lat="44.2579193" lon="11.2008857"><ele>395.8</ele><time>2026-04-15T14:03:16.09Z</time></trkpt><trkpt lat="44.2578441" lon="11.2008555"><ele>397.0</ele><time>2026-04-15T14:03:17.082Z</time></trkpt><trkpt lat="44.2577328" lon="11.2008604"><ele>397.0</ele><time>2026-04-15T14:03:18.099Z</time></trkpt><trkpt lat="44.2576124" lon="11.2008596"><ele>397.0</ele><time>2026-04-15T14:03:19.087Z</time></trkpt><trkpt lat="44.257495" lon="11.200842"><ele>397.0</ele><time>2026-04-15T14:03:20.079Z</time></trkpt><trkpt lat="44.2573892" lon="11.2007924"><ele>397.0</ele><time>2026-04-15T14:03:21.083Z</time></trkpt><trkpt lat="44.2572923" lon="11.2007077"><ele>398.40000000000003</ele><time>2026-04-15T14:03:22.087Z</time></trkpt><trkpt lat="44.2572022" lon="11.2006195"><ele>399.8</ele><time>2026-04-15T14:03:23.083Z</time></trkpt><trkpt lat="44.2571256" lon="11.200505"><ele>401.2</ele><time>2026-04-15T14:03:24.084Z</time></trkpt><trkpt lat="44.2570643" lon="11.2003701"><ele>402.6</ele><time>2026-04-15T14:03:25.091Z</time></trkpt><trkpt lat="44.2570375" lon="11.2002258"><ele>404.0</ele><time>2026-04-15T14:03:26.086Z</time></trkpt><trkpt lat="44.257014" lon="11.2000687"><ele>404.0</ele><time>2026-04-15T14:03:27.079Z</time></trkpt><trkpt lat="44.2569946" lon="11.1999116"><ele>404.0</ele><time>2026-04-15T14:03:28.085Z</time></trkpt><trkpt lat="44.2569722" lon="11.1997576"><ele>404.0</ele><time>2026-04-15T14:03:29.079Z</time></trkpt><trkpt lat="44.2569329" lon="11.1996108"><ele>404.0</ele><time>2026-04-15T14:03:30.086Z</time></trkpt><trkpt lat="44.2568855" lon="11.1994543"><ele>403.4</ele><time>2026-04-15T14:03:31.084Z</time></trkpt><trkpt lat="44.2568376" lon="11.1992914"><ele>402.79999999999995</ele><time>2026-04-15T14:03:32.098Z</time></trkpt><trkpt lat="44.2567975" lon="11.1991453"><ele>402.20000000000005</ele><time>2026-04-15T14:03:33.104Z</time></trkpt><trkpt lat="44.2567574" lon="11.1990089"><ele>401.6</ele><time>2026-04-15T14:03:34.083Z</time></trkpt><trkpt lat="44.2567295" lon="11.1989009"><ele>401.0</ele><time>2026-04-15T14:03:35.077Z</time></trkpt><trkpt lat="44.2567007" lon="11.1988085"><ele>400.6</ele><time>2026-04-15T14:03:36.087Z</time></trkpt><trkpt lat="44.2566943" lon="11.1986469"><ele>400.20000000000005</ele><time>2026-04-15T14:03:38.081Z</time></trkpt><trkpt lat="44.2567599" lon="11.1984811"><ele>399.79999999999995</ele><time>2026-04-15T14:03:40.099Z</time></trkpt><trkpt lat="44.2568082" lon="11.198383"><ele>399.4</ele><time>2026-04-15T14:03:41.09Z</time></trkpt><trkpt lat="44.2568436" lon="11.1982552"><ele>399.0</ele><time>2026-04-15T14:03:42.087Z</time></trkpt><trkpt lat="44.2568558" lon="11.1981337"><ele>397.4</ele><time>2026-04-15T14:03:43.082Z</time></trkpt><trkpt lat="44.2568856" lon="11.197999"><ele>395.79999999999995</ele><time>2026-04-15T14:03:44.098Z</time></trkpt><trkpt lat="44.2569148" lon="11.1978931"><ele>394.20000000000005</ele><time>2026-04-15T14:03:45.095Z</time></trkpt><trkpt lat="44.2569329" lon="11.197796"><ele>392.6</ele><time>2026-04-15T14:03:46.1Z</time></trkpt><trkpt lat="44.2569496" lon="11.1976954"><ele>391.0</ele><time>2026-04-15T14:03:47.087Z</time></trkpt><trkpt lat="44.2569" lon="11.197521"><ele>391.0</ele><time>2026-04-15T14:03:49.09Z</time></trkpt><trkpt lat="44.2568361" lon="11.1974167"><ele>391.0</ele><time>2026-04-15T14:03:50.081Z</time></trkpt><trkpt lat="44.256749" lon="11.1972782"><ele>391.0</ele><time>2026-04-15T14:03:51.087Z</time></trkpt><trkpt lat="44.256656" lon="11.1971492"><ele>391.0</ele><time>2026-04-15T14:03:52.099Z</time></trkpt><trkpt lat="44.2565621" lon="11.1970206"><ele>390.25</ele><time>2026-04-15T14:03:53.084Z</time></trkpt><trkpt lat="44.256475" lon="11.1969041"><ele>389.5</ele><time>2026-04-15T14:03:54.083Z</time></trkpt><trkpt lat="44.2563897" lon="11.1968077"><ele>388.75</ele><time>2026-04-15T14:03:55.082Z</time></trkpt><trkpt lat="44.2562884" lon="11.1967566"><ele>388.0</ele><time>2026-04-15T14:03:56.093Z</time></trkpt><trkpt lat="44.2561771" lon="11.1967064"><ele>387.79999999999995</ele><time>2026-04-15T14:03:57.098Z</time></trkpt><trkpt lat="44.2560727" lon="11.1966696"><ele>387.6</ele><time>2026-04-15T14:03:58.08Z</time></trkpt><trkpt lat="44.2559725" lon="11.1966329"><ele>387.4</ele><time>2026-04-15T14:03:59.087Z</time></trkpt><trkpt lat="44.255872" lon="11.1965874"><ele>387.20000000000005</ele><time>2026-04-15T14:04:00.096Z</time></trkpt><trkpt lat="44.2557639" lon="11.1965382"><ele>387.0</ele><time>2026-04-15T14:04:01.105Z</time></trkpt><trkpt lat="44.2556568" lon="11.1964905"><ele>383.6</ele><time>2026-04-15T14:04:02.08Z</time></trkpt><trkpt lat="44.2555523" lon="11.1964443"><ele>380.20000000000005</ele><time>2026-04-15T14:04:03.091Z</time></trkpt><trkpt lat="44.2554544" lon="11.1964059"><ele>376.8</ele><time>2026-04-15T14:04:04.091Z</time></trkpt><trkpt lat="44.2553552" lon="11.1963856"><ele>373.4</ele><time>2026-04-15T14:04:05.093Z</time></trkpt><trkpt lat="44.255248" lon="11.1963854"><ele>370.0</ele><time>2026-04-15T14:04:06.083Z</time></trkpt><trkpt lat="44.2551454" lon="11.196394"><ele>370.0</ele><time>2026-04-15T14:04:07.087Z</time></trkpt><trkpt lat="44.255045" lon="11.1964042"><ele>370.0</ele><time>2026-04-15T14:04:08.101Z</time></trkpt><trkpt lat="44.2549353" lon="11.1964182"><ele>370.0</ele><time>2026-04-15T14:04:09.096Z</time></trkpt><trkpt lat="44.2548139" lon="11.196421"><ele>370.0</ele><time>2026-04-15T14:04:10.079Z</time></trkpt><trkpt lat="44.2546715" lon="11.1964223"><ele>368.5</ele><time>2026-04-15T14:04:11.088Z</time></trkpt><trkpt lat="44.25453" lon="11.1964181"><ele>367.0</ele><time>2026-04-15T14:04:12.094Z</time></trkpt><trkpt lat="44.2543987" lon="11.1964185"><ele>365.5</ele><time>2026-04-15T14:04:13.086Z</time></trkpt><trkpt lat="44.2542698" lon="11.1964212"><ele>364.0</ele><time>2026-04-15T14:04:14.099Z</time></trkpt><trkpt lat="44.2541392" lon="11.1964174"><ele>364.0</ele><time>2026-04-15T14:04:15.088Z</time></trkpt><trkpt lat="44.2540039" lon="11.1964038"><ele>364.0</ele><time>2026-04-15T14:04:16.088Z</time></trkpt><trkpt lat="44.2538517" lon="11.1963891"><ele>364.0</ele><time>2026-04-15T14:04:17.11Z</time></trkpt><trkpt lat="44.2536924" lon="11.1963733"><ele>364.0</ele><time>2026-04-15T14:04:18.102Z</time></trkpt><trkpt lat="44.2535509" lon="11.1963579"><ele>363.5</ele><time>2026-04-15T14:04:19.081Z</time></trkpt><trkpt lat="44.2534236" lon="11.1963443"><ele>363.0</ele><time>2026-04-15T14:04:20.081Z</time></trkpt><trkpt lat="44.2533082" lon="11.1963256"><ele>362.5</ele><time>2026-04-15T14:04:21.093Z</time></trkpt><trkpt lat="44.2531891" lon="11.1962619"><ele>362.0</ele><time>2026-04-15T14:04:22.099Z</time></trkpt><trkpt lat="44.2530697" lon="11.1961443"><ele>363.25</ele><time>2026-04-15T14:04:23.091Z</time></trkpt><trkpt lat="44.2529744" lon="11.1960407"><ele>364.5</ele><time>2026-04-15T14:04:24.088Z</time></trkpt><trkpt lat="44.2527728" lon="11.1959702"><ele>365.75</ele><time>2026-04-15T14:04:26.086Z</time></trkpt><trkpt lat="44.2526667" lon="11.1959468"><ele>367.0</ele><time>2026-04-15T14:04:27.099Z</time></trkpt><trkpt lat="44.2525732" lon="11.1959437"><ele>367.0</ele><time>2026-04-15T14:04:28.085Z</time></trkpt><trkpt lat="44.2524752" lon="11.1959467"><ele>367.0</ele><time>2026-04-15T14:04:29.088Z</time></trkpt><trkpt lat="44.2523875" lon="11.1959433"><ele>367.0</ele><time>2026-04-15T14:04:30.089Z</time></trkpt><trkpt lat="44.252296" lon="11.1959305"><ele>367.0</ele><time>2026-04-15T14:04:31.102Z</time></trkpt><trkpt lat="44.2522006" lon="11.1958958"><ele>367.0</ele><time>2026-04-15T14:04:32.096Z</time></trkpt><trkpt lat="44.2521039" lon="11.1958506"><ele>366.8333333333333</ele><time>2026-04-15T14:04:33.105Z</time></trkpt><trkpt lat="44.2520257" lon="11.1958082"><ele>366.66666666666663</ele><time>2026-04-15T14:04:34.095Z</time></trkpt><trkpt lat="44.2519545" lon="11.1957652"><ele>366.5</ele><time>2026-04-15T14:04:35.092Z</time></trkpt><trkpt lat="44.2518602" lon="11.1956822"><ele>366.3333333333333</ele><time>2026-04-15T14:04:37.079Z</time></trkpt><trkpt lat="44.2518413" lon="11.1955325"><ele>366.1666666666667</ele><time>2026-04-15T14:04:39.091Z</time></trkpt><trkpt lat="44.2518532" lon="11.1954438"><ele>366.0</ele><time>2026-04-15T14:04:40.095Z</time></trkpt><trkpt lat="44.2518221" lon="11.19503"><ele>366.0</ele><time>2026-04-15T14:04:43.135Z</time></trkpt><trkpt lat="44.2517469" lon="11.1950121"><ele>366.0</ele><time>2026-04-15T14:04:45.088Z</time></trkpt><trkpt lat="44.2516139" lon="11.1950109"><ele>366.0</ele><time>2026-04-15T14:04:47.105Z</time></trkpt><trkpt lat="44.2515263" lon="11.1949908"><ele>366.0</ele><time>2026-04-15T14:04:48.105Z</time></trkpt><trkpt lat="44.2514558" lon="11.1949421"><ele>366.0</ele><time>2026-04-15T14:04:49.094Z</time></trkpt><trkpt lat="44.2514096" lon="11.1948588"><ele>366.0</ele><time>2026-04-15T14:04:50.095Z</time></trkpt><trkpt lat="44.2513679" lon="11.1947492"><ele>366.0</ele><time>2026-04-15T14:04:51.1Z</time></trkpt><trkpt lat="44.2513205" lon="11.194616"><ele>366.0</ele><time>2026-04-15T14:04:52.083Z</time></trkpt><trkpt lat="44.2512757" lon="11.1944757"><ele>366.0</ele><time>2026-04-15T14:04:53.092Z</time></trkpt><trkpt lat="44.2512512" lon="11.1943253"><ele>366.0</ele><time>2026-04-15T14:04:54.103Z</time></trkpt><trkpt lat="44.2512303" lon="11.19419"><ele>366.0</ele><time>2026-04-15T14:04:55.089Z</time></trkpt><trkpt lat="44.2512093" lon="11.1940729"><ele>366.0</ele><time>2026-04-15T14:04:56.107Z</time></trkpt><trkpt lat="44.2511821" lon="11.1939689"><ele>366.0</ele><time>2026-04-15T14:04:57.104Z</time></trkpt><trkpt lat="44.2511562" lon="11.1938836"><ele>366.0</ele><time>2026-04-15T14:04:58.104Z</time></trkpt><trkpt lat="44.2510578" lon="11.1937738"><ele>366.0</ele><time>2026-04-15T14:05:00.098Z</time></trkpt><trkpt lat="44.2509743" lon="11.1937474"><ele>366.0</ele><time>2026-04-15T14:05:01.085Z</time></trkpt><trkpt lat="44.2508857" lon="11.1937534"><ele>364.25</ele><time>2026-04-15T14:05:02.082Z</time></trkpt><trkpt lat="44.2507738" lon="11.1937828"><ele>362.5</ele><time>2026-04-15T14:05:03.102Z</time></trkpt><trkpt lat="44.2506387" lon="11.1937963"><ele>360.75</ele><time>2026-04-15T14:05:04.111Z</time></trkpt><trkpt lat="44.2505028" lon="11.1938089"><ele>359.0</ele><time>2026-04-15T14:05:05.085Z</time></trkpt><trkpt lat="44.2503712" lon="11.1938195"><ele>357.5</ele><time>2026-04-15T14:05:06.113Z</time></trkpt><trkpt lat="44.2502456" lon="11.1938396"><ele>356.0</ele><time>2026-04-15T14:05:07.096Z</time></trkpt><trkpt lat="44.2501296" lon="11.1938682"><ele>354.5</ele><time>2026-04-15T14:05:08.094Z</time></trkpt><trkpt lat="44.2500255" lon="11.1938976"><ele>353.0</ele><time>2026-04-15T14:05:09.102Z</time></trkpt><trkpt lat="44.2499268" lon="11.1939221"><ele>353.0</ele><time>2026-04-15T14:05:10.086Z</time></trkpt><trkpt lat="44.2498395" lon="11.1939335"><ele>353.0</ele><time>2026-04-15T14:05:11.101Z</time></trkpt><trkpt lat="44.2497705" lon="11.1939167"><ele>353.0</ele><time>2026-04-15T14:05:12.1Z</time></trkpt><trkpt lat="44.2497209" lon="11.1938494"><ele>353.0</ele><time>2026-04-15T14:05:13.103Z</time></trkpt><trkpt lat="44.2496689" lon="11.1937535"><ele>353.0</ele><time>2026-04-15T14:05:14.104Z</time></trkpt><trkpt lat="44.2496058" lon="11.1936484"><ele>353.0</ele><time>2026-04-15T14:05:15.094Z</time></trkpt><trkpt lat="44.2495446" lon="11.1935536"><ele>353.0</ele><time>2026-04-15T14:05:16.091Z</time></trkpt><trkpt lat="44.2494787" lon="11.1934564"><ele>353.0</ele><time>2026-04-15T14:05:17.089Z</time></trkpt><trkpt lat="44.24944" lon="11.1933455"><ele>353.0</ele><time>2026-04-15T14:05:18.089Z</time></trkpt><trkpt lat="44.2494287" lon="11.193227"><ele>353.0</ele><time>2026-04-15T14:05:19.089Z</time></trkpt><trkpt lat="44.249425" lon="11.1931255"><ele>353.0</ele><time>2026-04-15T14:05:20.105Z</time></trkpt><trkpt lat="44.2494253" lon="11.1930194"><ele>353.0</ele><time>2026-04-15T14:05:21.096Z</time></trkpt><trkpt lat="44.2494261" lon="11.1929161"><ele>349.4</ele><time>2026-04-15T14:05:22.095Z</time></trkpt><trkpt lat="44.2493674" lon="11.192783"><ele>345.79999999999995</ele><time>2026-04-15T14:05:24.107Z</time></trkpt><trkpt lat="44.2492771" lon="11.1927436"><ele>342.2</ele><time>2026-04-15T14:05:25.096Z</time></trkpt><trkpt lat="44.2491798" lon="11.1927047"><ele>338.6</ele><time>2026-04-15T14:05:26.108Z</time></trkpt><trkpt lat="44.2490684" lon="11.1926726"><ele>335.0</ele><time>2026-04-15T14:05:27.092Z</time></trkpt><trkpt lat="44.2489572" lon="11.1926214"><ele>333.75</ele><time>2026-04-15T14:05:28.09Z</time></trkpt><trkpt lat="44.2488456" lon="11.1925617"><ele>332.5</ele><time>2026-04-15T14:05:29.09Z</time></trkpt><trkpt lat="44.2487402" lon="11.1924898"><ele>331.25</ele><time>2026-04-15T14:05:30.1Z</time></trkpt><trkpt lat="44.248642" lon="11.1924078"><ele>330.0</ele><time>2026-04-15T14:05:31.086Z</time></trkpt><trkpt lat="44.2485586" lon="11.1923139"><ele>327.8</ele><time>2026-04-15T14:05:32.094Z</time></trkpt><trkpt lat="44.2485038" lon="11.1922126"><ele>325.6</ele><time>2026-04-15T14:05:33.093Z</time></trkpt><trkpt lat="44.2484545" lon="11.1920716"><ele>323.4</ele><time>2026-04-15T14:05:34.097Z</time></trkpt><trkpt lat="44.2484246" lon="11.19191"><ele>321.2</ele><time>2026-04-15T14:05:35.087Z</time></trkpt><trkpt lat="44.2484245" lon="11.1917542"><ele>319.0</ele><time>2026-04-15T14:05:36.095Z</time></trkpt><trkpt lat="44.2484517" lon="11.1915977"><ele>316.8</ele><time>2026-04-15T14:05:37.085Z</time></trkpt><trkpt lat="44.2484952" lon="11.1914528"><ele>314.59999999999997</ele><time>2026-04-15T14:05:38.099Z</time></trkpt><trkpt lat="44.2485481" lon="11.1913246"><ele>312.4</ele><time>2026-04-15T14:05:39.106Z</time></trkpt><trkpt lat="44.2486107" lon="11.1912163"><ele>310.2</ele><time>2026-04-15T14:05:40.1Z</time></trkpt><trkpt lat="44.2486663" lon="11.1911056"><ele>308.0</ele><time>2026-04-15T14:05:41.1Z</time></trkpt><trkpt lat="44.248699" lon="11.190985"><ele>308.0</ele><time>2026-04-15T14:05:42.097Z</time></trkpt><trkpt lat="44.2487186" lon="11.1908561"><ele>308.0</ele><time>2026-04-15T14:05:43.087Z</time></trkpt><trkpt lat="44.2487093" lon="11.190759"><ele>308.0</ele><time>2026-04-15T14:05:44.099Z</time></trkpt><trkpt lat="44.248667" lon="11.1906555"><ele>308.0</ele><time>2026-04-15T14:05:45.099Z</time></trkpt><trkpt lat="44.2486088" lon="11.1905815"><ele>308.0</ele><time>2026-04-15T14:05:46.099Z</time></trkpt><trkpt lat="44.2485195" lon="11.190551"><ele>308.0</ele><time>2026-04-15T14:05:47.082Z</time></trkpt><trkpt lat="44.2484429" lon="11.1905391"><ele>305.1666666666667</ele><time>2026-04-15T14:05:48.087Z</time></trkpt><trkpt lat="44.2483638" lon="11.1905358"><ele>302.33333333333337</ele><time>2026-04-15T14:05:49.107Z</time></trkpt><trkpt lat="44.2482846" lon="11.190528"><ele>299.5</ele><time>2026-04-15T14:05:50.093Z</time></trkpt><trkpt lat="44.2482116" lon="11.1904972"><ele>296.6666666666667</ele><time>2026-04-15T14:05:51.085Z</time></trkpt><trkpt lat="44.2481653" lon="11.1904128"><ele>293.8333333333333</ele><time>2026-04-15T14:05:52.098Z</time></trkpt><trkpt lat="44.2481393" lon="11.1902895"><ele>291.0</ele><time>2026-04-15T14:05:53.084Z</time></trkpt><trkpt lat="44.2481545" lon="11.1901636"><ele>291.0</ele><time>2026-04-15T14:05:54.11Z</time></trkpt><trkpt lat="44.2482116" lon="11.19006"><ele>291.0</ele><time>2026-04-15T14:05:55.098Z</time></trkpt><trkpt lat="44.2482755" lon="11.1899713"><ele>291.0</ele><time>2026-04-15T14:05:56.1Z</time></trkpt><trkpt lat="44.2483333" lon="11.1898906"><ele>291.0</ele><time>2026-04-15T14:05:57.084Z</time></trkpt><trkpt lat="44.2483857" lon="11.1898132"><ele>291.0</ele><time>2026-04-15T14:05:58.096Z</time></trkpt><trkpt lat="44.2484317" lon="11.1897238"><ele>291.0</ele><time>2026-04-15T14:05:59.084Z</time></trkpt><trkpt lat="44.2484302" lon="11.189566"><ele>287.5</ele><time>2026-04-15T14:06:00.091Z</time></trkpt><trkpt lat="44.2483895" lon="11.1893399"><ele>284.0</ele><time>2026-04-15T14:06:01.096Z</time></trkpt><trkpt lat="44.2483499" lon="11.1891295"><ele>280.5</ele><time>2026-04-15T14:06:02.104Z</time></trkpt><trkpt lat="44.2483216" lon="11.1889673"><ele>277.0</ele><time>2026-04-15T14:06:03.101Z</time></trkpt><trkpt lat="44.2482971" lon="11.1888341"><ele>275.25</ele><time>2026-04-15T14:06:04.099Z</time></trkpt><trkpt lat="44.2482472" lon="11.1887237"><ele>273.5</ele><time>2026-04-15T14:06:05.097Z</time></trkpt><trkpt lat="44.2481517" lon="11.1886275"><ele>271.75</ele><time>2026-04-15T14:06:06.091Z</time></trkpt><trkpt lat="44.2480347" lon="11.1885446"><ele>270.0</ele><time>2026-04-15T14:06:07.092Z</time></trkpt><trkpt lat="44.247909" lon="11.1884684"><ele>270.0</ele><time>2026-04-15T14:06:08.103Z</time></trkpt><trkpt lat="44.2477971" lon="11.1884104"><ele>270.0</ele><time>2026-04-15T14:06:09.085Z</time></trkpt><trkpt lat="44.2477081" lon="11.1883367"><ele>270.0</ele><time>2026-04-15T14:06:10.089Z</time></trkpt><trkpt lat="44.2476347" lon="11.1882502"><ele>270.0</ele><time>2026-04-15T14:06:11.089Z</time></trkpt><trkpt lat="44.2475825" lon="11.1881618"><ele>270.0</ele><time>2026-04-15T14:06:12.089Z</time></trkpt><trkpt lat="44.2475355" lon="11.1880768"><ele>269.3333333333333</ele><time>2026-04-15T14:06:13.095Z</time></trkpt><trkpt lat="44.2474783" lon="11.1879952"><ele>268.6666666666667</ele><time>2026-04-15T14:06:14.095Z</time></trkpt><trkpt lat="44.2474374" lon="11.1879281"><ele>268.0</ele><time>2026-04-15T14:06:15.086Z</time></trkpt><trkpt lat="44.2474453" lon="11.1877951"><ele>267.33333333333337</ele><time>2026-04-15T14:06:17.088Z</time></trkpt><trkpt lat="44.2474737" lon="11.1877037"><ele>266.6666666666667</ele><time>2026-04-15T14:06:18.103Z</time></trkpt><trkpt lat="44.2475009" lon="11.1876005"><ele>266.0</ele><time>2026-04-15T14:06:19.092Z</time></trkpt><trkpt lat="44.247532" lon="11.1874852"><ele>266.0</ele><time>2026-04-15T14:06:20.097Z</time></trkpt><trkpt lat="44.2475438" lon="11.1873826"><ele>266.0</ele><time>2026-04-15T14:06:21.085Z</time></trkpt><trkpt lat="44.2475366" lon="11.1872942"><ele>266.0</ele><time>2026-04-15T14:06:22.096Z</time></trkpt><trkpt lat="44.2475032" lon="11.1871744"><ele>266.0</ele><time>2026-04-15T14:06:24.086Z</time></trkpt><trkpt lat="44.2474895" lon="11.1870754"><ele>266.0</ele><time>2026-04-15T14:06:28.093Z</time></trkpt><trkpt lat="44.2474282" lon="11.1869616"><ele>266.0</ele><time>2026-04-15T14:06:30.093Z</time></trkpt><trkpt lat="44.2473571" lon="11.1868644"><ele>264.0</ele><time>2026-04-15T14:06:31.091Z</time></trkpt><trkpt lat="44.2472631" lon="11.1867586"><ele>262.0</ele><time>2026-04-15T14:06:32.086Z</time></trkpt><trkpt lat="44.2471556" lon="11.1866316"><ele>260.0</ele><time>2026-04-15T14:06:33.092Z</time></trkpt><trkpt lat="44.2470507" lon="11.1864942"><ele>258.0</ele><time>2026-04-15T14:06:34.088Z</time></trkpt><trkpt lat="44.2469416" lon="11.1863682"><ele>258.0</ele><time>2026-04-15T14:06:35.088Z</time></trkpt><trkpt lat="44.2468321" lon="11.1862336"><ele>258.0</ele><time>2026-04-15T14:06:36.092Z</time></trkpt><trkpt lat="44.2467211" lon="11.1861037"><ele>258.0</ele><time>2026-04-15T14:06:37.091Z</time></trkpt><trkpt lat="44.2466112" lon="11.1859728"><ele>258.0</ele><time>2026-04-15T14:06:38.093Z</time></trkpt><trkpt lat="44.2465058" lon="11.185852"><ele>259.75</ele><time>2026-04-15T14:06:39.092Z</time></trkpt><trkpt lat="44.2464068" lon="11.1857306"><ele>261.5</ele><time>2026-04-15T14:06:40.092Z</time></trkpt><trkpt lat="44.2463081" lon="11.1856093"><ele>263.25</ele><time>2026-04-15T14:06:41.097Z</time></trkpt><trkpt lat="44.2462167" lon="11.1854932"><ele>265.0</ele><time>2026-04-15T14:06:42.09Z</time></trkpt><trkpt lat="44.2461284" lon="11.1853764"><ele>266.2</ele><time>2026-04-15T14:06:43.086Z</time></trkpt><trkpt lat="44.2460395" lon="11.1852676"><ele>267.4</ele><time>2026-04-15T14:06:44.088Z</time></trkpt><trkpt lat="44.2459535" lon="11.1851757"><ele>268.6</ele><time>2026-04-15T14:06:45.091Z</time></trkpt><trkpt lat="44.2458671" lon="11.1851232"><ele>269.8</ele><time>2026-04-15T14:06:46.108Z</time></trkpt><trkpt lat="44.2457739" lon="11.1851163"><ele>271.0</ele><time>2026-04-15T14:06:47.091Z</time></trkpt><trkpt lat="44.2456702" lon="11.1851511"><ele>277.66666666666663</ele><time>2026-04-15T14:06:48.094Z</time></trkpt><trkpt lat="44.2455639" lon="11.1852407"><ele>284.3333333333333</ele><time>2026-04-15T14:06:49.079Z</time></trkpt><trkpt lat="44.2454543" lon="11.1853652"><ele>291.0</ele><time>2026-04-15T14:06:50.091Z</time></trkpt><trkpt lat="44.2452238" lon="11.1856536"><ele>288.0</ele><time>2026-04-15T14:06:52.085Z</time></trkpt><trkpt lat="44.2451185" lon="11.1857872"><ele>285.0</ele><time>2026-04-15T14:06:53.088Z</time></trkpt><trkpt lat="44.2450121" lon="11.1858855"><ele>282.0</ele><time>2026-04-15T14:06:54.095Z</time></trkpt><trkpt lat="44.2449012" lon="11.1859426"><ele>279.0</ele><time>2026-04-15T14:06:55.085Z</time></trkpt><trkpt lat="44.244767" lon="11.1859576"><ele>279.0</ele><time>2026-04-15T14:06:56.103Z</time></trkpt><trkpt lat="44.2446168" lon="11.1859611"><ele>279.0</ele><time>2026-04-15T14:06:57.088Z</time></trkpt><trkpt lat="44.2444657" lon="11.1859447"><ele>279.0</ele><time>2026-04-15T14:06:58.085Z</time></trkpt><trkpt lat="44.2443281" lon="11.1858836"><ele>279.0</ele><time>2026-04-15T14:06:59.083Z</time></trkpt><trkpt lat="44.2441978" lon="11.1857883"><ele>281.25</ele><time>2026-04-15T14:07:00.08Z</time></trkpt><trkpt lat="44.2440793" lon="11.1856753"><ele>283.5</ele><time>2026-04-15T14:07:01.081Z</time></trkpt><trkpt lat="44.2439674" lon="11.1855765"><ele>285.75</ele><time>2026-04-15T14:07:02.091Z</time></trkpt><trkpt lat="44.2438396" lon="11.1855268"><ele>288.0</ele><time>2026-04-15T14:07:03.091Z</time></trkpt><trkpt lat="44.2436989" lon="11.1855128"><ele>288.0</ele><time>2026-04-15T14:07:04.087Z</time></trkpt><trkpt lat="44.2435671" lon="11.1855065"><ele>288.0</ele><time>2026-04-15T14:07:05.09Z</time></trkpt><trkpt lat="44.2434363" lon="11.185479"><ele>288.0</ele><time>2026-04-15T14:07:06.086Z</time></trkpt><trkpt lat="44.2433245" lon="11.1854086"><ele>288.0</ele><time>2026-04-15T14:07:07.089Z</time></trkpt><trkpt lat="44.243223" lon="11.1852915"><ele>288.0</ele><time>2026-04-15T14:07:08.078Z</time></trkpt><trkpt lat="44.2431089" lon="11.1852037"><ele>288.0</ele><time>2026-04-15T14:07:09.09Z</time></trkpt><trkpt lat="44.2429764" lon="11.1851723"><ele>288.0</ele><time>2026-04-15T14:07:10.097Z</time></trkpt><trkpt lat="44.2428246" lon="11.1851701"><ele>288.0</ele><time>2026-04-15T14:07:11.088Z</time></trkpt><trkpt lat="44.2426656" lon="11.1851921"><ele>288.0</ele><time>2026-04-15T14:07:12.08Z</time></trkpt><trkpt lat="44.2425158" lon="11.1852104"><ele>288.0</ele><time>2026-04-15T14:07:13.101Z</time></trkpt><trkpt lat="44.2423838" lon="11.1851962"><ele>288.0</ele><time>2026-04-15T14:07:14.091Z</time></trkpt><trkpt lat="44.2422537" lon="11.1851357"><ele>288.0</ele><time>2026-04-15T14:07:15.081Z</time></trkpt><trkpt lat="44.2421204" lon="11.1850674"><ele>287.75</ele><time>2026-04-15T14:07:16.082Z</time></trkpt><trkpt lat="44.2419774" lon="11.1850356"><ele>287.5</ele><time>2026-04-15T14:07:17.095Z</time></trkpt><trkpt lat="44.2418356" lon="11.1850374"><ele>287.25</ele><time>2026-04-15T14:07:18.098Z</time></trkpt><trkpt lat="44.2417087" lon="11.1850257"><ele>287.0</ele><time>2026-04-15T14:07:19.095Z</time></trkpt><trkpt lat="44.2415868" lon="11.1849833"><ele>287.0</ele><time>2026-04-15T14:07:20.089Z</time></trkpt><trkpt lat="44.2414712" lon="11.1848816"><ele>287.0</ele><time>2026-04-15T14:07:21.086Z</time></trkpt><trkpt lat="44.2413536" lon="11.1847437"><ele>287.0</ele><time>2026-04-15T14:07:22.083Z</time></trkpt><trkpt lat="44.2412336" lon="11.1846074"><ele>287.0</ele><time>2026-04-15T14:07:23.107Z</time></trkpt><trkpt lat="44.2411089" lon="11.184469"><ele>288.75</ele><time>2026-04-15T14:07:24.1Z</time></trkpt><trkpt lat="44.2409902" lon="11.1843476"><ele>290.5</ele><time>2026-04-15T14:07:25.079Z</time></trkpt><trkpt lat="44.2408773" lon="11.1842658"><ele>292.25</ele><time>2026-04-15T14:07:26.075Z</time></trkpt><trkpt lat="44.2407577" lon="11.1842063"><ele>294.0</ele><time>2026-04-15T14:07:27.097Z</time></trkpt><trkpt lat="44.2406359" lon="11.1841743"><ele>293.8</ele><time>2026-04-15T14:07:28.1Z</time></trkpt><trkpt lat="44.2405192" lon="11.184157"><ele>293.59999999999997</ele><time>2026-04-15T14:07:29.088Z</time></trkpt><trkpt lat="44.2404042" lon="11.1841293"><ele>293.4</ele><time>2026-04-15T14:07:30.078Z</time></trkpt><trkpt lat="44.2403074" lon="11.1841204"><ele>293.2</ele><time>2026-04-15T14:07:31.087Z</time></trkpt><trkpt lat="44.2402113" lon="11.1841119"><ele>293.0</ele><time>2026-04-15T14:07:32.09Z</time></trkpt><trkpt lat="44.2401158" lon="11.1840876"><ele>293.0</ele><time>2026-04-15T14:07:33.086Z</time></trkpt><trkpt lat="44.2400125" lon="11.1840633"><ele>293.0</ele><time>2026-04-15T14:07:34.082Z</time></trkpt><trkpt lat="44.2399132" lon="11.1840267"><ele>293.0</ele><time>2026-04-15T14:07:35.088Z</time></trkpt><trkpt lat="44.239823" lon="11.1839716"><ele>293.0</ele><time>2026-04-15T14:07:36.09Z</time></trkpt><trkpt lat="44.2397444" lon="11.1838892"><ele>293.0</ele><time>2026-04-15T14:07:37.087Z</time></trkpt><trkpt lat="44.2396771" lon="11.1837846"><ele>295.0</ele><time>2026-04-15T14:07:38.088Z</time></trkpt><trkpt lat="44.2396212" lon="11.1836494"><ele>297.0</ele><time>2026-04-15T14:07:39.083Z</time></trkpt><trkpt lat="44.2395658" lon="11.1835282"><ele>299.0</ele><time>2026-04-15T14:07:40.085Z</time></trkpt><trkpt lat="44.23951" lon="11.1834174"><ele>301.0</ele><time>2026-04-15T14:07:41.08Z</time></trkpt><trkpt lat="44.2394435" lon="11.1833203"><ele>303.0</ele><time>2026-04-15T14:07:42.087Z</time></trkpt><trkpt lat="44.2393598" lon="11.1832633"><ele>303.0</ele><time>2026-04-15T14:07:43.09Z</time></trkpt><trkpt lat="44.2392662" lon="11.1832364"><ele>303.0</ele><time>2026-04-15T14:07:44.08Z</time></trkpt><trkpt lat="44.2391568" lon="11.1832466"><ele>303.0</ele><time>2026-04-15T14:07:45.074Z</time></trkpt><trkpt lat="44.239045" lon="11.1832868"><ele>303.0</ele><time>2026-04-15T14:07:46.082Z</time></trkpt><trkpt lat="44.2389418" lon="11.1833164"><ele>303.0</ele><time>2026-04-15T14:07:47.095Z</time></trkpt><trkpt lat="44.2388449" lon="11.1833265"><ele>301.8</ele><time>2026-04-15T14:07:48.075Z</time></trkpt><trkpt lat="44.2387591" lon="11.1833265"><ele>300.6</ele><time>2026-04-15T14:07:49.083Z</time></trkpt><trkpt lat="44.2386651" lon="11.1833069"><ele>299.4</ele><time>2026-04-15T14:07:50.082Z</time></trkpt><trkpt lat="44.2385788" lon="11.183252"><ele>298.2</ele><time>2026-04-15T14:07:51.085Z</time></trkpt><trkpt lat="44.2384991" lon="11.1831694"><ele>297.0</ele><time>2026-04-15T14:07:52.084Z</time></trkpt><trkpt lat="44.2384124" lon="11.1830437"><ele>298.3333333333333</ele><time>2026-04-15T14:07:53.075Z</time></trkpt><trkpt lat="44.2383003" lon="11.1828805"><ele>299.66666666666663</ele><time>2026-04-15T14:07:54.118Z</time></trkpt><trkpt lat="44.2381584" lon="11.1826988"><ele>301.0</ele><time>2026-04-15T14:07:55.106Z</time></trkpt><trkpt lat="44.2380158" lon="11.1825059"><ele>305.66666666666663</ele><time>2026-04-15T14:07:56.084Z</time></trkpt><trkpt lat="44.237883" lon="11.1823278"><ele>310.3333333333333</ele><time>2026-04-15T14:07:57.091Z</time></trkpt><trkpt lat="44.2377693" lon="11.1821649"><ele>315.0</ele><time>2026-04-15T14:07:58.099Z</time></trkpt><trkpt lat="44.2376559" lon="11.1820129"><ele>315.0</ele><time>2026-04-15T14:07:59.09Z</time></trkpt><trkpt lat="44.2375302" lon="11.181837"><ele>315.0</ele><time>2026-04-15T14:08:00.085Z</time></trkpt><trkpt lat="44.2374076" lon="11.1816582"><ele>315.0</ele><time>2026-04-15T14:08:01.074Z</time></trkpt><trkpt lat="44.2372877" lon="11.1814889"><ele>316.3333333333333</ele><time>2026-04-15T14:08:02.082Z</time></trkpt><trkpt lat="44.237154" lon="11.1813334"><ele>317.66666666666663</ele><time>2026-04-15T14:08:03.075Z</time></trkpt><trkpt lat="44.2370157" lon="11.1811963"><ele>319.0</ele><time>2026-04-15T14:08:04.096Z</time></trkpt><trkpt lat="44.2368888" lon="11.1810803"><ele>319.0</ele><time>2026-04-15T14:08:05.074Z</time></trkpt><trkpt lat="44.2367888" lon="11.1809942"><ele>319.0</ele><time>2026-04-15T14:08:06.078Z</time></trkpt><trkpt lat="44.2366844" lon="11.1809537"><ele>319.0</ele><time>2026-04-15T14:08:07.104Z</time></trkpt><trkpt lat="44.2365769" lon="11.1809589"><ele>319.0</ele><time>2026-04-15T14:08:08.095Z</time></trkpt><trkpt lat="44.2364714" lon="11.1810233"><ele>319.0</ele><time>2026-04-15T14:08:09.091Z</time></trkpt><trkpt lat="44.23639" lon="11.1811423"><ele>320.25</ele><time>2026-04-15T14:08:10.085Z</time></trkpt><trkpt lat="44.236301" lon="11.1812715"><ele>321.5</ele><time>2026-04-15T14:08:11.073Z</time></trkpt><trkpt lat="44.2362088" lon="11.1813766"><ele>322.75</ele><time>2026-04-15T14:08:12.087Z</time></trkpt><trkpt lat="44.2360765" lon="11.1814513"><ele>324.0</ele><time>2026-04-15T14:08:13.076Z</time></trkpt><trkpt lat="44.2359315" lon="11.1815196"><ele>322.25</ele><time>2026-04-15T14:08:14.081Z</time></trkpt><trkpt lat="44.2358021" lon="11.1815662"><ele>320.5</ele><time>2026-04-15T14:08:15.08Z</time></trkpt><trkpt lat="44.2356839" lon="11.1816039"><ele>318.75</ele><time>2026-04-15T14:08:16.098Z</time></trkpt><trkpt lat="44.2355724" lon="11.1815794"><ele>317.0</ele><time>2026-04-15T14:08:17.086Z</time></trkpt><trkpt lat="44.2354623" lon="11.1814865"><ele>317.0</ele><time>2026-04-15T14:08:18.082Z</time></trkpt><trkpt lat="44.2353586" lon="11.1813739"><ele>317.0</ele><time>2026-04-15T14:08:19.075Z</time></trkpt><trkpt lat="44.2352526" lon="11.1812639"><ele>317.0</ele><time>2026-04-15T14:08:20.077Z</time></trkpt><trkpt lat="44.2351285" lon="11.181184"><ele>317.0</ele><time>2026-04-15T14:08:21.079Z</time></trkpt><trkpt lat="44.234977" lon="11.1811375"><ele>317.0</ele><time>2026-04-15T14:08:22.074Z</time></trkpt><trkpt lat="44.2348046" lon="11.1810981"><ele>317.0</ele><time>2026-04-15T14:08:23.081Z</time></trkpt><trkpt lat="44.2346424" lon="11.1810609"><ele>317.0</ele><time>2026-04-15T14:08:24.093Z</time></trkpt><trkpt lat="44.2344849" lon="11.1810469"><ele>315.75</ele><time>2026-04-15T14:08:25.087Z</time></trkpt><trkpt lat="44.2343459" lon="11.1810561"><ele>314.5</ele><time>2026-04-15T14:08:26.104Z</time></trkpt><trkpt lat="44.2342165" lon="11.1810676"><ele>313.25</ele><time>2026-04-15T14:08:27.083Z</time></trkpt><trkpt lat="44.2340913" lon="11.1810602"><ele>312.0</ele><time>2026-04-15T14:08:28.096Z</time></trkpt><trkpt lat="44.2339665" lon="11.1810127"><ele>310.5</ele><time>2026-04-15T14:08:29.099Z</time></trkpt><trkpt lat="44.2338411" lon="11.1809351"><ele>309.0</ele><time>2026-04-15T14:08:30.092Z</time></trkpt><trkpt lat="44.2337013" lon="11.1808898"><ele>307.5</ele><time>2026-04-15T14:08:31.075Z</time></trkpt><trkpt lat="44.2335389" lon="11.1808852"><ele>306.0</ele><time>2026-04-15T14:08:32.089Z</time></trkpt><trkpt lat="44.2333593" lon="11.1808947"><ele>306.0</ele><time>2026-04-15T14:08:33.079Z</time></trkpt><trkpt lat="44.233178" lon="11.1809152"><ele>306.0</ele><time>2026-04-15T14:08:34.077Z</time></trkpt><trkpt lat="44.2329894" lon="11.1809147"><ele>306.0</ele><time>2026-04-15T14:08:35.08Z</time></trkpt><trkpt lat="44.232815" lon="11.1808951"><ele>307.0</ele><time>2026-04-15T14:08:36.081Z</time></trkpt><trkpt lat="44.2326545" lon="11.1808635"><ele>308.0</ele><time>2026-04-15T14:08:37.072Z</time></trkpt><trkpt lat="44.2325014" lon="11.1808421"><ele>309.0</ele><time>2026-04-15T14:08:38.074Z</time></trkpt><trkpt lat="44.2323492" lon="11.1808419"><ele>309.6666666666667</ele><time>2026-04-15T14:08:39.077Z</time></trkpt><trkpt lat="44.2322015" lon="11.1808732"><ele>310.33333333333337</ele><time>2026-04-15T14:08:40.08Z</time></trkpt><trkpt lat="44.2320655" lon="11.1809529"><ele>311.0</ele><time>2026-04-15T14:08:41.077Z</time></trkpt><trkpt lat="44.2319176" lon="11.1810503"><ele>311.0</ele><time>2026-04-15T14:08:42.066Z</time></trkpt><trkpt lat="44.2317776" lon="11.1811579"><ele>311.0</ele><time>2026-04-15T14:08:43.088Z</time></trkpt><trkpt lat="44.2316428" lon="11.1812632"><ele>311.0</ele><time>2026-04-15T14:08:44.085Z</time></trkpt><trkpt lat="44.2315185" lon="11.1813424"><ele>311.0</ele><time>2026-04-15T14:08:45.076Z</time></trkpt><trkpt lat="44.2313937" lon="11.181404"><ele>311.0</ele><time>2026-04-15T14:08:46.082Z</time></trkpt><trkpt lat="44.2312573" lon="11.1814397"><ele>311.0</ele><time>2026-04-15T14:08:47.071Z</time></trkpt><trkpt lat="44.2311048" lon="11.1814441"><ele>311.0</ele><time>2026-04-15T14:08:48.069Z</time></trkpt><trkpt lat="44.2309335" lon="11.181421"><ele>311.0</ele><time>2026-04-15T14:08:49.07Z</time></trkpt><trkpt lat="44.230751" lon="11.1813784"><ele>311.0</ele><time>2026-04-15T14:08:50.073Z</time></trkpt><trkpt lat="44.2305628" lon="11.1813324"><ele>311.0</ele><time>2026-04-15T14:08:51.074Z</time></trkpt><trkpt lat="44.2303826" lon="11.1812869"><ele>312.0</ele><time>2026-04-15T14:08:52.077Z</time></trkpt><trkpt lat="44.2302142" lon="11.1812369"><ele>313.0</ele><time>2026-04-15T14:08:53.089Z</time></trkpt><trkpt lat="44.2300577" lon="11.181192"><ele>314.0</ele><time>2026-04-15T14:08:54.075Z</time></trkpt><trkpt lat="44.2298989" lon="11.1811721"><ele>313.33333333333337</ele><time>2026-04-15T14:08:55.067Z</time></trkpt><trkpt lat="44.2297335" lon="11.1811874"><ele>312.6666666666667</ele><time>2026-04-15T14:08:56.07Z</time></trkpt><trkpt lat="44.2295682" lon="11.1812222"><ele>312.0</ele><time>2026-04-15T14:08:57.081Z</time></trkpt><trkpt lat="44.2294064" lon="11.181262"><ele>312.0</ele><time>2026-04-15T14:08:58.097Z</time></trkpt><trkpt lat="44.2292382" lon="11.1812822"><ele>312.0</ele><time>2026-04-15T14:08:59.082Z</time></trkpt><trkpt lat="44.2290639" lon="11.1812857"><ele>312.0</ele><time>2026-04-15T14:09:00.077Z</time></trkpt><trkpt lat="44.2288824" lon="11.1812869"><ele>310.6666666666667</ele><time>2026-04-15T14:09:01.072Z</time></trkpt><trkpt lat="44.2287" lon="11.1812828"><ele>309.33333333333337</ele><time>2026-04-15T14:09:02.071Z</time></trkpt><trkpt lat="44.2285303" lon="11.1812813"><ele>308.0</ele><time>2026-04-15T14:09:03.092Z</time></trkpt><trkpt lat="44.2283819" lon="11.1812725"><ele>308.0</ele><time>2026-04-15T14:09:04.076Z</time></trkpt><trkpt lat="44.2282493" lon="11.1812439"><ele>308.0</ele><time>2026-04-15T14:09:05.078Z</time></trkpt><trkpt lat="44.2281348" lon="11.1811779"><ele>308.0</ele><time>2026-04-15T14:09:06.079Z</time></trkpt><trkpt lat="44.2280181" lon="11.1810846"><ele>308.0</ele><time>2026-04-15T14:09:07.077Z</time></trkpt><trkpt lat="44.2279009" lon="11.1810019"><ele>306.8</ele><time>2026-04-15T14:09:08.079Z</time></trkpt><trkpt lat="44.2277888" lon="11.1809536"><ele>305.6</ele><time>2026-04-15T14:09:09.075Z</time></trkpt><trkpt lat="44.2276883" lon="11.1809372"><ele>304.4</ele><time>2026-04-15T14:09:10.078Z</time></trkpt><trkpt lat="44.2275856" lon="11.1809506"><ele>303.2</ele><time>2026-04-15T14:09:11.07Z</time></trkpt><trkpt lat="44.2274742" lon="11.1810246"><ele>302.0</ele><time>2026-04-15T14:09:12.063Z</time></trkpt><trkpt lat="44.2273697" lon="11.1811379"><ele>300.33333333333337</ele><time>2026-04-15T14:09:13.083Z</time></trkpt><trkpt lat="44.2272496" lon="11.1812748"><ele>298.6666666666667</ele><time>2026-04-15T14:09:14.079Z</time></trkpt><trkpt lat="44.227128" lon="11.181412"><ele>297.0</ele><time>2026-04-15T14:09:15.069Z</time></trkpt><trkpt lat="44.2270123" lon="11.181539"><ele>297.0</ele><time>2026-04-15T14:09:16.08Z</time></trkpt><trkpt lat="44.2268992" lon="11.1816228"><ele>297.0</ele><time>2026-04-15T14:09:17.065Z</time></trkpt><trkpt lat="44.2267883" lon="11.1816364"><ele>297.0</ele><time>2026-04-15T14:09:18.078Z</time></trkpt><trkpt lat="44.2266707" lon="11.1816143"><ele>297.0</ele><time>2026-04-15T14:09:19.069Z</time></trkpt><trkpt lat="44.2265531" lon="11.1815453"><ele>295.0</ele><time>2026-04-15T14:09:20.093Z</time></trkpt><trkpt lat="44.2264099" lon="11.1814453"><ele>293.0</ele><time>2026-04-15T14:09:21.088Z</time></trkpt><trkpt lat="44.2262479" lon="11.181343"><ele>291.0</ele><time>2026-04-15T14:09:22.089Z</time></trkpt><trkpt lat="44.2260739" lon="11.1812254"><ele>291.0</ele><time>2026-04-15T14:09:23.081Z</time></trkpt><trkpt lat="44.2258934" lon="11.1811145"><ele>291.0</ele><time>2026-04-15T14:09:24.067Z</time></trkpt><trkpt lat="44.2257189" lon="11.1810221"><ele>291.0</ele><time>2026-04-15T14:09:25.074Z</time></trkpt><trkpt lat="44.225536" lon="11.1809694"><ele>292.6666666666667</ele><time>2026-04-15T14:09:26.081Z</time></trkpt><trkpt lat="44.2253526" lon="11.1809313"><ele>294.33333333333337</ele><time>2026-04-15T14:09:27.09Z</time></trkpt><trkpt lat="44.2251705" lon="11.1809198"><ele>296.0</ele><time>2026-04-15T14:09:28.081Z</time></trkpt><trkpt lat="44.2249879" lon="11.1809276"><ele>299.33333333333337</ele><time>2026-04-15T14:09:29.069Z</time></trkpt><trkpt lat="44.2248089" lon="11.1809435"><ele>302.6666666666667</ele><time>2026-04-15T14:09:30.089Z</time></trkpt><trkpt lat="44.2246333" lon="11.1809656"><ele>306.0</ele><time>2026-04-15T14:09:31.064Z</time></trkpt><trkpt lat="44.2244639" lon="11.1809941"><ele>306.0</ele><time>2026-04-15T14:09:32.064Z</time></trkpt><trkpt lat="44.2243146" lon="11.1810324"><ele>306.0</ele><time>2026-04-15T14:09:33.072Z</time></trkpt><trkpt lat="44.224191" lon="11.1810568"><ele>306.0</ele><time>2026-04-15T14:09:34.072Z</time></trkpt><trkpt lat="44.2240875" lon="11.1810456"><ele>306.0</ele><time>2026-04-15T14:09:35.071Z</time></trkpt><trkpt lat="44.2239961" lon="11.1809791"><ele>307.0</ele><time>2026-04-15T14:09:36.071Z</time></trkpt><trkpt lat="44.2239141" lon="11.1808733"><ele>308.0</ele><time>2026-04-15T14:09:37.066Z</time></trkpt><trkpt lat="44.2238254" lon="11.180741"><ele>309.0</ele><time>2026-04-15T14:09:38.074Z</time></trkpt><trkpt lat="44.2237284" lon="11.1805875"><ele>310.0</ele><time>2026-04-15T14:09:39.077Z</time></trkpt><trkpt lat="44.2236232" lon="11.1804145"><ele>310.0</ele><time>2026-04-15T14:09:40.071Z</time></trkpt><trkpt lat="44.2233784" lon="11.1801844"><ele>310.0</ele><time>2026-04-15T14:09:42.071Z</time></trkpt><trkpt lat="44.2232485" lon="11.1801187"><ele>310.0</ele><time>2026-04-15T14:09:43.074Z</time></trkpt><trkpt lat="44.223105" lon="11.1800974"><ele>311.25</ele><time>2026-04-15T14:09:44.069Z</time></trkpt><trkpt lat="44.2229651" lon="11.1801243"><ele>312.5</ele><time>2026-04-15T14:09:45.065Z</time></trkpt><trkpt lat="44.2228239" lon="11.1801933"><ele>313.75</ele><time>2026-04-15T14:09:46.075Z</time></trkpt><trkpt lat="44.222693" lon="11.1802824"><ele>315.0</ele><time>2026-04-15T14:09:47.073Z</time></trkpt><trkpt lat="44.2225684" lon="11.1803957"><ele>315.0</ele><time>2026-04-15T14:09:48.076Z</time></trkpt><trkpt lat="44.222437" lon="11.1804865"><ele>315.0</ele><time>2026-04-15T14:09:49.071Z</time></trkpt><trkpt lat="44.2223114" lon="11.1805174"><ele>315.0</ele><time>2026-04-15T14:09:50.076Z</time></trkpt><trkpt lat="44.2221946" lon="11.1805101"><ele>315.0</ele><time>2026-04-15T14:09:51.08Z</time></trkpt><trkpt lat="44.2220763" lon="11.1804415"><ele>317.6666666666667</ele><time>2026-04-15T14:09:52.078Z</time></trkpt><trkpt lat="44.2219578" lon="11.1803417"><ele>320.33333333333337</ele><time>2026-04-15T14:09:53.066Z</time></trkpt><trkpt lat="44.2218232" lon="11.180231"><ele>323.0</ele><time>2026-04-15T14:09:54.077Z</time></trkpt><trkpt lat="44.2216665" lon="11.1801145"><ele>323.0</ele><time>2026-04-15T14:09:55.074Z</time></trkpt><trkpt lat="44.2215068" lon="11.1799855"><ele>323.0</ele><time>2026-04-15T14:09:56.081Z</time></trkpt><trkpt lat="44.2213522" lon="11.1798311"><ele>323.0</ele><time>2026-04-15T14:09:57.071Z</time></trkpt><trkpt lat="44.2212279" lon="11.1796788"><ele>323.33333333333337</ele><time>2026-04-15T14:09:58.074Z</time></trkpt><trkpt lat="44.2211003" lon="11.1795457"><ele>323.6666666666667</ele><time>2026-04-15T14:09:59.065Z</time></trkpt><trkpt lat="44.2209695" lon="11.1794486"><ele>324.0</ele><time>2026-04-15T14:10:00.08Z</time></trkpt><trkpt lat="44.2208341" lon="11.17936"><ele>324.0</ele><time>2026-04-15T14:10:01.07Z</time></trkpt><trkpt lat="44.220721" lon="11.1792412"><ele>324.0</ele><time>2026-04-15T14:10:02.071Z</time></trkpt><trkpt lat="44.2206326" lon="11.1790702"><ele>324.0</ele><time>2026-04-15T14:10:03.065Z</time></trkpt><trkpt lat="44.2205413" lon="11.178883"><ele>328.6666666666667</ele><time>2026-04-15T14:10:04.062Z</time></trkpt><trkpt lat="44.2204563" lon="11.1786684"><ele>333.33333333333337</ele><time>2026-04-15T14:10:05.064Z</time></trkpt><trkpt lat="44.2203626" lon="11.1784355"><ele>338.0</ele><time>2026-04-15T14:10:06.081Z</time></trkpt><trkpt lat="44.2202473" lon="11.1782191"><ele>335.33333333333337</ele><time>2026-04-15T14:10:07.072Z</time></trkpt><trkpt lat="44.2201124" lon="11.1780046"><ele>332.6666666666667</ele><time>2026-04-15T14:10:08.08Z</time></trkpt><trkpt lat="44.2199552" lon="11.177813"><ele>330.0</ele><time>2026-04-15T14:10:09.06Z</time></trkpt><trkpt lat="44.2197923" lon="11.1776374"><ele>334.6666666666667</ele><time>2026-04-15T14:10:10.091Z</time></trkpt><trkpt lat="44.2196454" lon="11.1774566"><ele>339.33333333333337</ele><time>2026-04-15T14:10:11.082Z</time></trkpt><trkpt lat="44.2195159" lon="11.1772527"><ele>344.0</ele><time>2026-04-15T14:10:12.078Z</time></trkpt><trkpt lat="44.2194053" lon="11.1770286"><ele>344.0</ele><time>2026-04-15T14:10:13.07Z</time></trkpt><trkpt lat="44.2193189" lon="11.176775"><ele>344.0</ele><time>2026-04-15T14:10:14.077Z</time></trkpt><trkpt lat="44.2192501" lon="11.1765102"><ele>344.0</ele><time>2026-04-15T14:10:15.063Z</time></trkpt><trkpt lat="44.2191795" lon="11.176245"><ele>343.6666666666667</ele><time>2026-04-15T14:10:16.071Z</time></trkpt><trkpt lat="44.2191009" lon="11.1759705"><ele>343.3333333333333</ele><time>2026-04-15T14:10:17.069Z</time></trkpt><trkpt lat="44.2190326" lon="11.1756841"><ele>343.0</ele><time>2026-04-15T14:10:18.07Z</time></trkpt><trkpt lat="44.2189591" lon="11.1753713"><ele>345.0</ele><time>2026-04-15T14:10:19.071Z</time></trkpt><trkpt lat="44.2188838" lon="11.1750641"><ele>347.0</ele><time>2026-04-15T14:10:20.075Z</time></trkpt><trkpt lat="44.2188117" lon="11.1747694"><ele>347.0</ele><time>2026-04-15T14:10:21.071Z</time></trkpt><trkpt lat="44.2187397" lon="11.1744946"><ele>347.0</ele><time>2026-04-15T14:10:22.065Z</time></trkpt><trkpt lat="44.2186564" lon="11.174234"><ele>347.0</ele><time>2026-04-15T14:10:23.058Z</time></trkpt><trkpt lat="44.2184378" lon="11.1737621"><ele>346.33333333333337</ele><time>2026-04-15T14:10:25.065Z</time></trkpt><trkpt lat="44.218292" lon="11.1735411"><ele>345.6666666666667</ele><time>2026-04-15T14:10:26.079Z</time></trkpt><trkpt lat="44.2181326" lon="11.1733465"><ele>345.0</ele><time>2026-04-15T14:10:27.068Z</time></trkpt><trkpt lat="44.2179483" lon="11.173185"><ele>345.0</ele><time>2026-04-15T14:10:28.091Z</time></trkpt><trkpt lat="44.2177867" lon="11.1729981"><ele>345.0</ele><time>2026-04-15T14:10:29.071Z</time></trkpt><trkpt lat="44.2176326" lon="11.1727926"><ele>345.0</ele><time>2026-04-15T14:10:30.06Z</time></trkpt><trkpt lat="44.2174928" lon="11.17256"><ele>343.3333333333333</ele><time>2026-04-15T14:10:31.058Z</time></trkpt><trkpt lat="44.2173568" lon="11.17232"><ele>341.66666666666663</ele><time>2026-04-15T14:10:32.064Z</time></trkpt><trkpt lat="44.2172207" lon="11.1720693"><ele>340.0</ele><time>2026-04-15T14:10:33.065Z</time></trkpt><trkpt lat="44.2170822" lon="11.1718131"><ele>348.0</ele><time>2026-04-15T14:10:34.057Z</time></trkpt><trkpt lat="44.2169424" lon="11.1715628"><ele>356.0</ele><time>2026-04-15T14:10:35.065Z</time></trkpt><trkpt lat="44.2168089" lon="11.1713126"><ele>356.0</ele><time>2026-04-15T14:10:36.061Z</time></trkpt><trkpt lat="44.2166738" lon="11.1710685"><ele>356.0</ele><time>2026-04-15T14:10:37.065Z</time></trkpt><trkpt lat="44.2165476" lon="11.1708215"><ele>356.0</ele><time>2026-04-15T14:10:38.065Z</time></trkpt><trkpt lat="44.2164159" lon="11.1705732"><ele>356.6666666666667</ele><time>2026-04-15T14:10:39.054Z</time></trkpt><trkpt lat="44.2162859" lon="11.1703272"><ele>357.3333333333333</ele><time>2026-04-15T14:10:40.065Z</time></trkpt><trkpt lat="44.2161628" lon="11.1700674"><ele>358.0</ele><time>2026-04-15T14:10:41.068Z</time></trkpt><trkpt lat="44.2160479" lon="11.1697917"><ele>358.0</ele><time>2026-04-15T14:10:42.066Z</time></trkpt><trkpt lat="44.21594" lon="11.169501"><ele>358.0</ele><time>2026-04-15T14:10:43.06Z</time></trkpt><trkpt lat="44.2158326" lon="11.1692047"><ele>357.66666666666663</ele><time>2026-04-15T14:10:44.06Z</time></trkpt><trkpt lat="44.2157324" lon="11.1689162"><ele>357.3333333333333</ele><time>2026-04-15T14:10:45.053Z</time></trkpt><trkpt lat="44.2156455" lon="11.1686587"><ele>357.0</ele><time>2026-04-15T14:10:46.056Z</time></trkpt><trkpt lat="44.2155583" lon="11.1684314"><ele>358.3333333333333</ele><time>2026-04-15T14:10:47.065Z</time></trkpt><trkpt lat="44.2154538" lon="11.1682358"><ele>359.66666666666663</ele><time>2026-04-15T14:10:48.083Z</time></trkpt><trkpt lat="44.2153342" lon="11.1680723"><ele>361.0</ele><time>2026-04-15T14:10:49.071Z</time></trkpt><trkpt lat="44.2152067" lon="11.1679715"><ele>361.0</ele><time>2026-04-15T14:10:50.075Z</time></trkpt><trkpt lat="44.2150838" lon="11.1678914"><ele>361.0</ele><time>2026-04-15T14:10:51.064Z</time></trkpt><trkpt lat="44.2149867" lon="11.1678164"><ele>361.0</ele><time>2026-04-15T14:10:52.062Z</time></trkpt><trkpt lat="44.2149106" lon="11.167743"><ele>361.0</ele><time>2026-04-15T14:10:53.067Z</time></trkpt><trkpt lat="44.2148633" lon="11.1676524"><ele>361.0</ele><time>2026-04-15T14:10:54.07Z</time></trkpt><trkpt lat="44.214826" lon="11.1675574"><ele>362.6</ele><time>2026-04-15T14:10:55.072Z</time></trkpt><trkpt lat="44.2147908" lon="11.1674399"><ele>364.20000000000005</ele><time>2026-04-15T14:10:56.078Z</time></trkpt><trkpt lat="44.2147668" lon="11.1673058"><ele>365.79999999999995</ele><time>2026-04-15T14:10:57.055Z</time></trkpt><trkpt lat="44.2147525" lon="11.1671741"><ele>367.4</ele><time>2026-04-15T14:10:58.06Z</time></trkpt><trkpt lat="44.2147327" lon="11.1670506"><ele>369.0</ele><time>2026-04-15T14:10:59.054Z</time></trkpt><trkpt lat="44.2146853" lon="11.1669341"><ele>369.0</ele><time>2026-04-15T14:11:00.061Z</time></trkpt><trkpt lat="44.2145982" lon="11.1668252"><ele>369.0</ele><time>2026-04-15T14:11:01.068Z</time></trkpt><trkpt lat="44.2144903" lon="11.1667118"><ele>369.0</ele><time>2026-04-15T14:11:02.069Z</time></trkpt><trkpt lat="44.2143747" lon="11.1665905"><ele>369.0</ele><time>2026-04-15T14:11:03.06Z</time></trkpt><trkpt lat="44.2142664" lon="11.1664851"><ele>367.25</ele><time>2026-04-15T14:11:04.077Z</time></trkpt><trkpt lat="44.2141693" lon="11.1663801"><ele>365.5</ele><time>2026-04-15T14:11:05.067Z</time></trkpt><trkpt lat="44.2140949" lon="11.1662578"><ele>363.75</ele><time>2026-04-15T14:11:06.061Z</time></trkpt><trkpt lat="44.214046" lon="11.1661016"><ele>362.0</ele><time>2026-04-15T14:11:07.065Z</time></trkpt><trkpt lat="44.2140161" lon="11.1659023"><ele>361.0</ele><time>2026-04-15T14:11:08.051Z</time></trkpt><trkpt lat="44.2139894" lon="11.1656917"><ele>360.0</ele><time>2026-04-15T14:11:09.067Z</time></trkpt><trkpt lat="44.213947" lon="11.1654635"><ele>359.0</ele><time>2026-04-15T14:11:10.06Z</time></trkpt><trkpt lat="44.2139021" lon="11.1652291"><ele>363.5</ele><time>2026-04-15T14:11:11.067Z</time></trkpt><trkpt lat="44.2138664" lon="11.1650257"><ele>368.0</ele><time>2026-04-15T14:11:12.07Z</time></trkpt><trkpt lat="44.2138574" lon="11.1648489"><ele>372.5</ele><time>2026-04-15T14:11:13.067Z</time></trkpt><trkpt lat="44.2138602" lon="11.164685"><ele>377.0</ele><time>2026-04-15T14:11:14.051Z</time></trkpt><trkpt lat="44.2138698" lon="11.1645377"><ele>377.0</ele><time>2026-04-15T14:11:15.069Z</time></trkpt><trkpt lat="44.2138802" lon="11.1644418"><ele>377.0</ele><time>2026-04-15T14:11:16.074Z</time></trkpt><trkpt lat="44.2138493" lon="11.1643096"><ele>377.0</ele><time>2026-04-15T14:11:18.058Z</time></trkpt><trkpt lat="44.2137902" lon="11.1642212"><ele>377.0</ele><time>2026-04-15T14:11:19.06Z</time></trkpt><trkpt lat="44.2136864" lon="11.1640895"><ele>377.0</ele><time>2026-04-15T14:11:20.06Z</time></trkpt><trkpt lat="44.2135825" lon="11.1639538"><ele>371.75</ele><time>2026-04-15T14:11:21.063Z</time></trkpt><trkpt lat="44.2134806" lon="11.1638133"><ele>366.5</ele><time>2026-04-15T14:11:22.062Z</time></trkpt><trkpt lat="44.2133894" lon="11.1636673"><ele>361.25</ele><time>2026-04-15T14:11:23.064Z</time></trkpt><trkpt lat="44.213317" lon="11.1635088"><ele>356.0</ele><time>2026-04-15T14:11:24.085Z</time></trkpt><trkpt lat="44.213266" lon="11.1633593"><ele>356.0</ele><time>2026-04-15T14:11:25.062Z</time></trkpt><trkpt lat="44.2132432" lon="11.1632384"><ele>356.0</ele><time>2026-04-15T14:11:26.067Z</time></trkpt><trkpt lat="44.213176" lon="11.1630792"><ele>356.0</ele><time>2026-04-15T14:11:28.062Z</time></trkpt><trkpt lat="44.2131115" lon="11.1630098"><ele>356.0</ele><time>2026-04-15T14:11:29.062Z</time></trkpt><trkpt lat="44.2130223" lon="11.1629444"><ele>356.0</ele><time>2026-04-15T14:11:30.059Z</time></trkpt><trkpt lat="44.2129366" lon="11.1628482"><ele>356.0</ele><time>2026-04-15T14:11:31.056Z</time></trkpt><trkpt lat="44.212889" lon="11.1627596"><ele>356.0</ele><time>2026-04-15T14:11:32.073Z</time></trkpt><trkpt lat="44.2128611" lon="11.1626711"><ele>356.0</ele><time>2026-04-15T14:11:33.057Z</time></trkpt><trkpt lat="44.2128183" lon="11.1624474"><ele>356.0</ele><time>2026-04-15T14:11:36.072Z</time></trkpt><trkpt lat="44.2128394" lon="11.162336"><ele>356.0</ele><time>2026-04-15T14:11:38.05Z</time></trkpt><trkpt lat="44.2128392" lon="11.1622302"><ele>356.0</ele><time>2026-04-15T14:11:40.087Z</time></trkpt><trkpt lat="44.2127753" lon="11.1622582"><ele>356.0</ele><time>2026-04-15T14:11:44.07Z</time></trkpt><trkpt lat="44.2127706" lon="11.1623459"><ele>356.0</ele><time>2026-04-15T14:15:39.026Z</time></trkpt><trkpt lat="44.2128068" lon="11.1625175"><ele>356.0</ele><time>2026-04-15T14:15:41.044Z</time></trkpt><trkpt lat="44.2128513" lon="11.1626258"><ele>356.0</ele><time>2026-04-15T14:15:42.02Z</time></trkpt><trkpt lat="44.2129049" lon="11.1627425"><ele>356.0</ele><time>2026-04-15T14:15:43.051Z</time></trkpt><trkpt lat="44.2129631" lon="11.1628635"><ele>356.0</ele><time>2026-04-15T14:15:44.042Z</time></trkpt><trkpt lat="44.2130335" lon="11.1629708"><ele>356.0</ele><time>2026-04-15T14:15:45.059Z</time></trkpt><trkpt lat="44.2131151" lon="11.1630535"><ele>356.0</ele><time>2026-04-15T14:15:46.013Z</time></trkpt><trkpt lat="44.2131828" lon="11.1631308"><ele>356.0</ele><time>2026-04-15T14:15:47.045Z</time></trkpt><trkpt lat="44.2132338" lon="11.1632313"><ele>356.0</ele><time>2026-04-15T14:15:48.031Z</time></trkpt><trkpt lat="44.2132765" lon="11.1633566"><ele>356.0</ele><time>2026-04-15T14:15:49.032Z</time></trkpt><trkpt lat="44.2133171" lon="11.1635034"><ele>356.0</ele><time>2026-04-15T14:15:50.045Z</time></trkpt><trkpt lat="44.213366" lon="11.163665"><ele>356.0</ele><time>2026-04-15T14:15:51.055Z</time></trkpt><trkpt lat="44.2135299" lon="11.1639668"><ele>361.25</ele><time>2026-04-15T14:15:53.053Z</time></trkpt><trkpt lat="44.2136171" lon="11.1640987"><ele>366.5</ele><time>2026-04-15T14:15:54.032Z</time></trkpt><trkpt lat="44.2136919" lon="11.1642207"><ele>371.75</ele><time>2026-04-15T14:15:55.019Z</time></trkpt><trkpt lat="44.2137785" lon="11.1644287"><ele>377.0</ele><time>2026-04-15T14:15:57.06Z</time></trkpt><trkpt lat="44.2138032" lon="11.1645224"><ele>377.0</ele><time>2026-04-15T14:15:58.023Z</time></trkpt><trkpt lat="44.2138098" lon="11.1646386"><ele>377.0</ele><time>2026-04-15T14:15:59.037Z</time></trkpt><trkpt lat="44.2138116" lon="11.1647971"><ele>377.0</ele><time>2026-04-15T14:16:00.027Z</time></trkpt><trkpt lat="44.2138178" lon="11.1649705"><ele>377.0</ele><time>2026-04-15T14:16:01.02Z</time></trkpt><trkpt lat="44.2138357" lon="11.1651648"><ele>379.33333333333337</ele><time>2026-04-15T14:16:02.032Z</time></trkpt><trkpt lat="44.2138612" lon="11.1653756"><ele>381.6666666666667</ele><time>2026-04-15T14:16:03.025Z</time></trkpt><trkpt lat="44.2139287" lon="11.1656095"><ele>384.0</ele><time>2026-04-15T14:16:04.054Z</time></trkpt><trkpt lat="44.2139694" lon="11.165835"><ele>376.5</ele><time>2026-04-15T14:16:05.041Z</time></trkpt><trkpt lat="44.214007" lon="11.1660314"><ele>369.0</ele><time>2026-04-15T14:16:06.046Z</time></trkpt><trkpt lat="44.2144324" lon="11.166677"><ele>369.0</ele><time>2026-04-15T14:16:11.062Z</time></trkpt><trkpt lat="44.2145419" lon="11.1667934"><ele>369.0</ele><time>2026-04-15T14:16:12.039Z</time></trkpt><trkpt lat="44.2146801" lon="11.1669665"><ele>369.0</ele><time>2026-04-15T14:16:14.05Z</time></trkpt><trkpt lat="44.2147169" lon="11.1670681"><ele>369.0</ele><time>2026-04-15T14:16:15.035Z</time></trkpt><trkpt lat="44.2147224" lon="11.1671647"><ele>369.0</ele><time>2026-04-15T14:16:16.031Z</time></trkpt><trkpt lat="44.2146643" lon="11.1673171"><ele>369.0</ele><time>2026-04-15T14:16:18.049Z</time></trkpt><trkpt lat="44.2146026" lon="11.1673503"><ele>369.0</ele><time>2026-04-15T14:16:19.01Z</time></trkpt><trkpt lat="44.2145332" lon="11.1673471"><ele>369.0</ele><time>2026-04-15T14:16:20.015Z</time></trkpt><trkpt lat="44.2144618" lon="11.1673065"><ele>369.0</ele><time>2026-04-15T14:16:21.026Z</time></trkpt><trkpt lat="44.2144019" lon="11.1672177"><ele>369.0</ele><time>2026-04-15T14:16:22.029Z</time></trkpt><trkpt lat="44.2143423" lon="11.1671031"><ele>369.0</ele><time>2026-04-15T14:16:23.027Z</time></trkpt><trkpt lat="44.2142879" lon="11.1669596"><ele>369.0</ele><time>2026-04-15T14:16:24.052Z</time></trkpt><trkpt lat="44.2142382" lon="11.166806"><ele>369.0</ele><time>2026-04-15T14:16:25.036Z</time></trkpt><trkpt lat="44.2141613" lon="11.1666343"><ele>369.0</ele><time>2026-04-15T14:16:26.016Z</time></trkpt><trkpt lat="44.214075" lon="11.1664338"><ele>374.33333333333337</ele><time>2026-04-15T14:16:27.052Z</time></trkpt><trkpt lat="44.2139846" lon="11.1662101"><ele>379.6666666666667</ele><time>2026-04-15T14:16:28.037Z</time></trkpt><trkpt lat="44.2138983" lon="11.1659733"><ele>385.0</ele><time>2026-04-15T14:16:29.06Z</time></trkpt><trkpt lat="44.2138201" lon="11.1657428"><ele>384.75</ele><time>2026-04-15T14:16:30.055Z</time></trkpt><trkpt lat="44.2137619" lon="11.1655243"><ele>384.5</ele><time>2026-04-15T14:16:31.027Z</time></trkpt><trkpt lat="44.2137401" lon="11.1653239"><ele>384.25</ele><time>2026-04-15T14:16:32.041Z</time></trkpt><trkpt lat="44.21374" lon="11.1651391"><ele>384.0</ele><time>2026-04-15T14:16:33.014Z</time></trkpt><trkpt lat="44.2137227" lon="11.1649779"><ele>382.6</ele><time>2026-04-15T14:16:34.017Z</time></trkpt><trkpt lat="44.2136779" lon="11.1648435"><ele>381.2</ele><time>2026-04-15T14:16:35.028Z</time></trkpt><trkpt lat="44.2136173" lon="11.1647452"><ele>379.8</ele><time>2026-04-15T14:16:36.016Z</time></trkpt><trkpt lat="44.2135267" lon="11.1646765"><ele>378.40000000000003</ele><time>2026-04-15T14:16:37.044Z</time></trkpt><trkpt lat="44.2134303" lon="11.1646747"><ele>377.0</ele><time>2026-04-15T14:16:38.013Z</time></trkpt><trkpt lat="44.2133329" lon="11.1647235"><ele>377.0</ele><time>2026-04-15T14:16:39.032Z</time></trkpt><trkpt lat="44.2132414" lon="11.1648144"><ele>377.0</ele><time>2026-04-15T14:16:40.037Z</time></trkpt><trkpt lat="44.213185" lon="11.164958"><ele>377.0</ele><time>2026-04-15T14:16:41.058Z</time></trkpt><trkpt lat="44.2131436" lon="11.1651461"><ele>377.0</ele><time>2026-04-15T14:16:42.03Z</time></trkpt><trkpt lat="44.2131239" lon="11.1653639"><ele>379.6666666666667</ele><time>2026-04-15T14:16:43.036Z</time></trkpt><trkpt lat="44.2131317" lon="11.1655799"><ele>382.33333333333337</ele><time>2026-04-15T14:16:44.015Z</time></trkpt><trkpt lat="44.213166" lon="11.1657994"><ele>385.0</ele><time>2026-04-15T14:16:45.049Z</time></trkpt><trkpt lat="44.2133024" lon="11.1661741"><ele>385.0</ele><time>2026-04-15T14:16:47.023Z</time></trkpt><trkpt lat="44.2133502" lon="11.1663154"><ele>385.0</ele><time>2026-04-15T14:16:48.041Z</time></trkpt><trkpt lat="44.2133943" lon="11.1666053"><ele>385.0</ele><time>2026-04-15T14:16:50.025Z</time></trkpt><trkpt lat="44.2133576" lon="11.1667281"><ele>385.0</ele><time>2026-04-15T14:16:51.007Z</time></trkpt><trkpt lat="44.213292" lon="11.16682"><ele>386.25</ele><time>2026-04-15T14:16:52.039Z</time></trkpt><trkpt lat="44.213209" lon="11.1668653"><ele>387.5</ele><time>2026-04-15T14:16:53.036Z</time></trkpt><trkpt lat="44.2131204" lon="11.166854"><ele>388.75</ele><time>2026-04-15T14:16:54.023Z</time></trkpt><trkpt lat="44.2129852" lon="11.1666811"><ele>390.0</ele><time>2026-04-15T14:16:56.009Z</time></trkpt><trkpt lat="44.2129358" lon="11.1663282"><ele>393.75</ele><time>2026-04-15T14:16:58.007Z</time></trkpt><trkpt lat="44.2129081" lon="11.1661346"><ele>397.5</ele><time>2026-04-15T14:16:59.026Z</time></trkpt><trkpt lat="44.2128654" lon="11.1659503"><ele>401.25</ele><time>2026-04-15T14:17:00.071Z</time></trkpt><trkpt lat="44.212775" lon="11.1657944"><ele>405.0</ele><time>2026-04-15T14:17:01.013Z</time></trkpt><trkpt lat="44.2126481" lon="11.1656517"><ele>405.0</ele><time>2026-04-15T14:17:02.043Z</time></trkpt><trkpt lat="44.2125286" lon="11.1655176"><ele>405.0</ele><time>2026-04-15T14:17:03.063Z</time></trkpt><trkpt lat="44.2123094" lon="11.1650046"><ele>405.33333333333337</ele><time>2026-04-15T14:17:06.002Z</time></trkpt><trkpt lat="44.2122869" lon="11.1648075"><ele>405.6666666666667</ele><time>2026-04-15T14:17:07.027Z</time></trkpt><trkpt lat="44.2122081" lon="11.1645054"><ele>406.0</ele><time>2026-04-15T14:17:09.037Z</time></trkpt><trkpt lat="44.2121534" lon="11.1643955"><ele>406.0</ele><time>2026-04-15T14:17:10.045Z</time></trkpt><trkpt lat="44.2120838" lon="11.1643349"><ele>406.0</ele><time>2026-04-15T14:17:11.029Z</time></trkpt><trkpt lat="44.2119742" lon="11.1643004"><ele>406.0</ele><time>2026-04-15T14:17:12.025Z</time></trkpt><trkpt lat="44.2118812" lon="11.1643286"><ele>406.0</ele><time>2026-04-15T14:17:13.024Z</time></trkpt><trkpt lat="44.2117565" lon="11.1645075"><ele>406.0</ele><time>2026-04-15T14:17:15.013Z</time></trkpt><trkpt lat="44.2117453" lon="11.1648"><ele>406.0</ele><time>2026-04-15T14:17:17.031Z</time></trkpt><trkpt lat="44.2117982" lon="11.1649571"><ele>406.0</ele><time>2026-04-15T14:17:18.048Z</time></trkpt><trkpt lat="44.2118698" lon="11.1651377"><ele>408.75</ele><time>2026-04-15T14:17:19.007Z</time></trkpt><trkpt lat="44.2119416" lon="11.1653336"><ele>411.5</ele><time>2026-04-15T14:17:20.013Z</time></trkpt><trkpt lat="44.2119931" lon="11.1655166"><ele>414.25</ele><time>2026-04-15T14:17:21.048Z</time></trkpt><trkpt lat="44.2120102" lon="11.1656738"><ele>417.0</ele><time>2026-04-15T14:17:22.016Z</time></trkpt><trkpt lat="44.211977" lon="11.1658166"><ele>419.0</ele><time>2026-04-15T14:17:23.022Z</time></trkpt><trkpt lat="44.2119283" lon="11.1659217"><ele>421.0</ele><time>2026-04-15T14:17:24.022Z</time></trkpt><trkpt lat="44.2118443" lon="11.1659811"><ele>423.00000000000006</ele><time>2026-04-15T14:17:25.026Z</time></trkpt><trkpt lat="44.2117475" lon="11.166"><ele>425.0</ele><time>2026-04-15T14:17:26.016Z</time></trkpt><trkpt lat="44.2116318" lon="11.1659821"><ele>427.0</ele><time>2026-04-15T14:17:27.042Z</time></trkpt><trkpt lat="44.2114967" lon="11.1659314"><ele>430.0</ele><time>2026-04-15T14:17:28.009Z</time></trkpt><trkpt lat="44.2113575" lon="11.1658648"><ele>433.0</ele><time>2026-04-15T14:17:29.032Z</time></trkpt><trkpt lat="44.2110551" lon="11.1657032"><ele>434.0</ele><time>2026-04-15T14:17:31.044Z</time></trkpt><trkpt lat="44.2109375" lon="11.1656452"><ele>435.0</ele><time>2026-04-15T14:17:32.023Z</time></trkpt><trkpt lat="44.2108223" lon="11.1655881"><ele>436.0</ele><time>2026-04-15T14:17:33.059Z</time></trkpt><trkpt lat="44.2107079" lon="11.1655518"><ele>437.0</ele><time>2026-04-15T14:17:34.033Z</time></trkpt><trkpt lat="44.2104882" lon="11.1655833"><ele>437.0</ele><time>2026-04-15T14:17:36.014Z</time></trkpt><trkpt lat="44.2103809" lon="11.165637"><ele>437.0</ele><time>2026-04-15T14:17:37.012Z</time></trkpt><trkpt lat="44.2102986" lon="11.1657338"><ele>437.0</ele><time>2026-04-15T14:17:38.023Z</time></trkpt><trkpt lat="44.2102534" lon="11.1658721"><ele>437.0</ele><time>2026-04-15T14:17:39.141Z</time></trkpt><trkpt lat="44.2102804" lon="11.1661851"><ele>437.0</ele><time>2026-04-15T14:17:41.045Z</time></trkpt><trkpt lat="44.2103496" lon="11.1663359"><ele>437.0</ele><time>2026-04-15T14:17:42.019Z</time></trkpt><trkpt lat="44.2104547" lon="11.1664449"><ele>437.0</ele><time>2026-04-15T14:17:43.041Z</time></trkpt><trkpt lat="44.2105878" lon="11.1665329"><ele>437.0</ele><time>2026-04-15T14:17:44.009Z</time></trkpt><trkpt lat="44.210737" lon="11.1666277"><ele>437.0</ele><time>2026-04-15T14:17:45.009Z</time></trkpt><trkpt lat="44.2109048" lon="11.1667378"><ele>437.0</ele><time>2026-04-15T14:17:46.11Z</time></trkpt><trkpt lat="44.2114139" lon="11.1670855"><ele>437.75</ele><time>2026-04-15T14:17:49.025Z</time></trkpt><trkpt lat="44.2115483" lon="11.1671792"><ele>438.5</ele><time>2026-04-15T14:17:50.119Z</time></trkpt><trkpt lat="44.2116665" lon="11.1672637"><ele>439.25</ele><time>2026-04-15T14:17:51.141Z</time></trkpt><trkpt lat="44.2117692" lon="11.1673484"><ele>440.0</ele><time>2026-04-15T14:17:52.127Z</time></trkpt><trkpt lat="44.2118485" lon="11.1674343"><ele>440.0</ele><time>2026-04-15T14:17:53.117Z</time></trkpt><trkpt lat="44.2118881" lon="11.1676317"><ele>440.0</ele><time>2026-04-15T14:17:55.021Z</time></trkpt><trkpt lat="44.2118442" lon="11.1677076"><ele>440.0</ele><time>2026-04-15T14:17:56.106Z</time></trkpt><trkpt lat="44.2117727" lon="11.1677325"><ele>440.0</ele><time>2026-04-15T14:17:57.118Z</time></trkpt><trkpt lat="44.2116758" lon="11.1677196"><ele>440.0</ele><time>2026-04-15T14:17:58.099Z</time></trkpt><trkpt lat="44.211554" lon="11.1676802"><ele>443.0</ele><time>2026-04-15T14:17:59.128Z</time></trkpt><trkpt lat="44.2114101" lon="11.1676248"><ele>446.0</ele><time>2026-04-15T14:18:00.112Z</time></trkpt><trkpt lat="44.2112472" lon="11.1675665"><ele>449.0</ele><time>2026-04-15T14:18:01.028Z</time></trkpt><trkpt lat="44.2110734" lon="11.1674958"><ele>456.0</ele><time>2026-04-15T14:18:02.044Z</time></trkpt><trkpt lat="44.2105113" lon="11.1672265"><ele>456.0</ele><time>2026-04-15T14:18:05.112Z</time></trkpt><trkpt lat="44.210331" lon="11.1671081"><ele>456.0</ele><time>2026-04-15T14:18:06.14Z</time></trkpt><trkpt lat="44.2101724" lon="11.16698"><ele>456.0</ele><time>2026-04-15T14:18:07.135Z</time></trkpt><trkpt lat="44.210039" lon="11.1668454"><ele>453.66666666666663</ele><time>2026-04-15T14:18:08.137Z</time></trkpt><trkpt lat="44.2098661" lon="11.1665233"><ele>451.3333333333333</ele><time>2026-04-15T14:18:10.123Z</time></trkpt><trkpt lat="44.2098002" lon="11.1663359"><ele>449.0</ele><time>2026-04-15T14:18:11.129Z</time></trkpt><trkpt lat="44.209749" lon="11.1661239"><ele>450.66666666666663</ele><time>2026-04-15T14:18:12.106Z</time></trkpt><trkpt lat="44.2097012" lon="11.1659081"><ele>452.33333333333337</ele><time>2026-04-15T14:18:13.132Z</time></trkpt><trkpt lat="44.2096426" lon="11.1657136"><ele>454.0</ele><time>2026-04-15T14:18:14.13Z</time></trkpt><trkpt lat="44.2095631" lon="11.1655545"><ele>454.0</ele><time>2026-04-15T14:18:15.133Z</time></trkpt><trkpt lat="44.2094553" lon="11.1654203"><ele>454.0</ele><time>2026-04-15T14:18:16.107Z</time></trkpt><trkpt lat="44.2093428" lon="11.1653195"><ele>454.0</ele><time>2026-04-15T14:18:17.122Z</time></trkpt><trkpt lat="44.2092144" lon="11.1652406"><ele>454.0</ele><time>2026-04-15T14:18:18.112Z</time></trkpt><trkpt lat="44.2090569" lon="11.1652037"><ele>454.5</ele><time>2026-04-15T14:18:19.127Z</time></trkpt><trkpt lat="44.2086869" lon="11.1652471"><ele>455.0</ele><time>2026-04-15T14:18:21.117Z</time></trkpt><trkpt lat="44.2084749" lon="11.1652937"><ele>455.0</ele><time>2026-04-15T14:18:22.118Z</time></trkpt><trkpt lat="44.2082867" lon="11.1653353"><ele>455.0</ele><time>2026-04-15T14:18:23.132Z</time></trkpt><trkpt lat="44.2081286" lon="11.1653459"><ele>455.0</ele><time>2026-04-15T14:18:24.105Z</time></trkpt><trkpt lat="44.2079718" lon="11.1653353"><ele>452.5</ele><time>2026-04-15T14:18:25.107Z</time></trkpt><trkpt lat="44.2078227" lon="11.1653264"><ele>450.0</ele><time>2026-04-15T14:18:26.121Z</time></trkpt><trkpt lat="44.2076954" lon="11.1653595"><ele>447.5</ele><time>2026-04-15T14:18:27.111Z</time></trkpt><trkpt lat="44.2075756" lon="11.165418"><ele>445.0</ele><time>2026-04-15T14:18:28.124Z</time></trkpt><trkpt lat="44.2074787" lon="11.1655503"><ele>448.0</ele><time>2026-04-15T14:18:29.127Z</time></trkpt><trkpt lat="44.2072779" lon="11.1662086"><ele>448.0</ele><time>2026-04-15T14:18:32.134Z</time></trkpt><trkpt lat="44.2071572" lon="11.1664213"><ele>448.0</ele><time>2026-04-15T14:18:33.099Z</time></trkpt><trkpt lat="44.2070135" lon="11.1666309"><ele>448.0</ele><time>2026-04-15T14:18:34.123Z</time></trkpt><trkpt lat="44.2068555" lon="11.1668397"><ele>453.6666666666667</ele><time>2026-04-15T14:18:35.123Z</time></trkpt><trkpt lat="44.2066866" lon="11.1670403"><ele>459.33333333333337</ele><time>2026-04-15T14:18:36.124Z</time></trkpt><trkpt lat="44.2065137" lon="11.167218"><ele>465.0</ele><time>2026-04-15T14:18:37.101Z</time></trkpt><trkpt lat="44.2063348" lon="11.1673761"><ele>470.0</ele><time>2026-04-15T14:18:38.119Z</time></trkpt><trkpt lat="44.2061512" lon="11.1675076"><ele>475.0</ele><time>2026-04-15T14:18:39.146Z</time></trkpt><trkpt lat="44.2058223" lon="11.1677414"><ele>475.0</ele><time>2026-04-15T14:18:41.105Z</time></trkpt><trkpt lat="44.2056734" lon="11.1678436"><ele>475.0</ele><time>2026-04-15T14:18:42.118Z</time></trkpt><trkpt lat="44.2055175" lon="11.1679113"><ele>475.0</ele><time>2026-04-15T14:18:43.107Z</time></trkpt><trkpt lat="44.2053709" lon="11.1679243"><ele>474.33333333333337</ele><time>2026-04-15T14:18:44.125Z</time></trkpt><trkpt lat="44.2052138" lon="11.1679171"><ele>473.66666666666663</ele><time>2026-04-15T14:18:45.131Z</time></trkpt><trkpt lat="44.2050533" lon="11.1678775"><ele>473.0</ele><time>2026-04-15T14:18:46.119Z</time></trkpt><trkpt lat="44.204912" lon="11.1678283"><ele>474.66666666666663</ele><time>2026-04-15T14:18:47.152Z</time></trkpt><trkpt lat="44.2047796" lon="11.1677921"><ele>476.33333333333337</ele><time>2026-04-15T14:18:48.1Z</time></trkpt><trkpt lat="44.2045216" lon="11.1678289"><ele>478.0</ele><time>2026-04-15T14:18:50.098Z</time></trkpt><trkpt lat="44.2044025" lon="11.1679272"><ele>478.0</ele><time>2026-04-15T14:18:51.11Z</time></trkpt><trkpt lat="44.204299" lon="11.1680711"><ele>478.0</ele><time>2026-04-15T14:18:52.113Z</time></trkpt><trkpt lat="44.2041979" lon="11.1682519"><ele>478.0</ele><time>2026-04-15T14:18:53.105Z</time></trkpt><trkpt lat="44.2040991" lon="11.1684426"><ele>476.33333333333337</ele><time>2026-04-15T14:18:54.127Z</time></trkpt><trkpt lat="44.2039926" lon="11.168662"><ele>474.66666666666663</ele><time>2026-04-15T14:18:55.096Z</time></trkpt><trkpt lat="44.2038783" lon="11.1688485"><ele>473.0</ele><time>2026-04-15T14:18:56.097Z</time></trkpt><trkpt lat="44.2037673" lon="11.1690206"><ele>476.5</ele><time>2026-04-15T14:18:57.128Z</time></trkpt><trkpt lat="44.2036616" lon="11.1691736"><ele>480.0</ele><time>2026-04-15T14:18:58.103Z</time></trkpt><trkpt lat="44.203556" lon="11.1693029"><ele>483.5</ele><time>2026-04-15T14:18:59.144Z</time></trkpt><trkpt lat="44.2034395" lon="11.1693885"><ele>487.0</ele><time>2026-04-15T14:19:00.106Z</time></trkpt><trkpt lat="44.2033162" lon="11.1694289"><ele>487.0</ele><time>2026-04-15T14:19:01.131Z</time></trkpt><trkpt lat="44.2031804" lon="11.1694334"><ele>487.0</ele><time>2026-04-15T14:19:02.107Z</time></trkpt><trkpt lat="44.2030443" lon="11.1693918"><ele>487.0</ele><time>2026-04-15T14:19:03.103Z</time></trkpt><trkpt lat="44.2029109" lon="11.1693272"><ele>487.0</ele><time>2026-04-15T14:19:04.116Z</time></trkpt><trkpt lat="44.2027934" lon="11.1693088"><ele>486.5</ele><time>2026-04-15T14:19:05.126Z</time></trkpt><trkpt lat="44.2026694" lon="11.1692991"><ele>486.0</ele><time>2026-04-15T14:19:06.11Z</time></trkpt><trkpt lat="44.2025535" lon="11.1693407"><ele>485.5</ele><time>2026-04-15T14:19:07.134Z</time></trkpt><trkpt lat="44.2024376" lon="11.1694274"><ele>485.0</ele><time>2026-04-15T14:19:08.108Z</time></trkpt><trkpt lat="44.2023379" lon="11.1695626"><ele>487.0</ele><time>2026-04-15T14:19:09.124Z</time></trkpt><trkpt lat="44.2022326" lon="11.1697096"><ele>489.0</ele><time>2026-04-15T14:19:10.104Z</time></trkpt><trkpt lat="44.2021077" lon="11.1698387"><ele>491.0</ele><time>2026-04-15T14:19:11.132Z</time></trkpt><trkpt lat="44.2019685" lon="11.1699312"><ele>491.0</ele><time>2026-04-15T14:19:12.115Z</time></trkpt><trkpt lat="44.2018231" lon="11.1700037"><ele>491.0</ele><time>2026-04-15T14:19:13.105Z</time></trkpt><trkpt lat="44.2016725" lon="11.1700596"><ele>491.0</ele><time>2026-04-15T14:19:14.121Z</time></trkpt><trkpt lat="44.2013304" lon="11.1700311"><ele>488.66666666666663</ele><time>2026-04-15T14:19:16.106Z</time></trkpt><trkpt lat="44.2011553" lon="11.1699734"><ele>486.33333333333337</ele><time>2026-04-15T14:19:17.088Z</time></trkpt><trkpt lat="44.2009864" lon="11.1698879"><ele>484.0</ele><time>2026-04-15T14:19:18.109Z</time></trkpt><trkpt lat="44.2008117" lon="11.1697667"><ele>491.0</ele><time>2026-04-15T14:19:19.098Z</time></trkpt><trkpt lat="44.2006327" lon="11.1696239"><ele>498.0</ele><time>2026-04-15T14:19:20.124Z</time></trkpt><trkpt lat="44.2004581" lon="11.1694869"><ele>505.0</ele><time>2026-04-15T14:19:21.124Z</time></trkpt><trkpt lat="44.2002892" lon="11.1693586"><ele>505.0</ele><time>2026-04-15T14:19:22.11Z</time></trkpt><trkpt lat="44.2001341" lon="11.1692267"><ele>505.0</ele><time>2026-04-15T14:19:23.126Z</time></trkpt><trkpt lat="44.1999967" lon="11.169089"><ele>505.0</ele><time>2026-04-15T14:19:24.114Z</time></trkpt><trkpt lat="44.1998645" lon="11.1689461"><ele>503.33333333333337</ele><time>2026-04-15T14:19:25.129Z</time></trkpt><trkpt lat="44.1997434" lon="11.1687872"><ele>501.66666666666663</ele><time>2026-04-15T14:19:26.117Z</time></trkpt><trkpt lat="44.1996385" lon="11.1686344"><ele>500.0</ele><time>2026-04-15T14:19:27.135Z</time></trkpt><trkpt lat="44.1995222" lon="11.1684758"><ele>500.0</ele><time>2026-04-15T14:19:28.113Z</time></trkpt><trkpt lat="44.1993924" lon="11.1683442"><ele>500.0</ele><time>2026-04-15T14:19:29.135Z</time></trkpt><trkpt lat="44.1991297" lon="11.1681668"><ele>494.75</ele><time>2026-04-15T14:19:31.099Z</time></trkpt><trkpt lat="44.1990003" lon="11.1681132"><ele>489.5</ele><time>2026-04-15T14:19:32.096Z</time></trkpt><trkpt lat="44.1988691" lon="11.1680828"><ele>484.25</ele><time>2026-04-15T14:19:33.138Z</time></trkpt><trkpt lat="44.1987217" lon="11.1680955"><ele>479.0</ele><time>2026-04-15T14:19:34.129Z</time></trkpt><trkpt lat="44.1985322" lon="11.1681386"><ele>479.0</ele><time>2026-04-15T14:19:35.122Z</time></trkpt><trkpt lat="44.1983463" lon="11.1681878"><ele>479.0</ele><time>2026-04-15T14:19:36.116Z</time></trkpt><trkpt lat="44.1981807" lon="11.1682429"><ele>479.0</ele><time>2026-04-15T14:19:37.098Z</time></trkpt><trkpt lat="44.198039" lon="11.1683047"><ele>485.0</ele><time>2026-04-15T14:19:38.094Z</time></trkpt><trkpt lat="44.1978859" lon="11.1683759"><ele>491.0</ele><time>2026-04-15T14:19:39.088Z</time></trkpt><trkpt lat="44.1977477" lon="11.1684696"><ele>497.0</ele><time>2026-04-15T14:19:40.124Z</time></trkpt><trkpt lat="44.1976194" lon="11.1685757"><ele>497.0</ele><time>2026-04-15T14:19:41.121Z</time></trkpt><trkpt lat="44.1975025" lon="11.1686842"><ele>497.0</ele><time>2026-04-15T14:19:42.106Z</time></trkpt><trkpt lat="44.1973929" lon="11.1687879"><ele>497.0</ele><time>2026-04-15T14:19:43.129Z</time></trkpt><trkpt lat="44.1972881" lon="11.1689321"><ele>497.0</ele><time>2026-04-15T14:19:44.092Z</time></trkpt><trkpt lat="44.1972109" lon="11.1690977"><ele>497.0</ele><time>2026-04-15T14:19:45.094Z</time></trkpt><trkpt lat="44.1971487" lon="11.1692581"><ele>497.0</ele><time>2026-04-15T14:19:46.119Z</time></trkpt><trkpt lat="44.1970674" lon="11.1693831"><ele>497.0</ele><time>2026-04-15T14:19:47.108Z</time></trkpt><trkpt lat="44.1969761" lon="11.1694634"><ele>497.0</ele><time>2026-04-15T14:19:48.106Z</time></trkpt><trkpt lat="44.1968804" lon="11.1695026"><ele>497.0</ele><time>2026-04-15T14:19:49.096Z</time></trkpt><trkpt lat="44.1967702" lon="11.1694799"><ele>497.0</ele><time>2026-04-15T14:19:50.086Z</time></trkpt><trkpt lat="44.1966527" lon="11.1694178"><ele>497.0</ele><time>2026-04-15T14:19:51.127Z</time></trkpt><trkpt lat="44.1965295" lon="11.169373"><ele>497.0</ele><time>2026-04-15T14:19:52.102Z</time></trkpt><trkpt lat="44.1963966" lon="11.1693471"><ele>495.66666666666663</ele><time>2026-04-15T14:19:53.097Z</time></trkpt><trkpt lat="44.1962633" lon="11.1693449"><ele>494.33333333333337</ele><time>2026-04-15T14:19:54.093Z</time></trkpt><trkpt lat="44.1959988" lon="11.1694316"><ele>493.0</ele><time>2026-04-15T14:19:56.128Z</time></trkpt><trkpt lat="44.1958647" lon="11.1695027"><ele>493.0</ele><time>2026-04-15T14:19:57.127Z</time></trkpt><trkpt lat="44.1957378" lon="11.1695919"><ele>493.0</ele><time>2026-04-15T14:19:58.094Z</time></trkpt><trkpt lat="44.1956106" lon="11.1696813"><ele>493.0</ele><time>2026-04-15T14:19:59.107Z</time></trkpt><trkpt lat="44.1954917" lon="11.1697477"><ele>493.0</ele><time>2026-04-15T14:20:00.116Z</time></trkpt><trkpt lat="44.1952298" lon="11.1698259"><ele>492.75</ele><time>2026-04-15T14:20:02.098Z</time></trkpt><trkpt lat="44.1950905" lon="11.1698407"><ele>492.5</ele><time>2026-04-15T14:20:03.128Z</time></trkpt><trkpt lat="44.1949573" lon="11.1698623"><ele>492.25</ele><time>2026-04-15T14:20:04.103Z</time></trkpt><trkpt lat="44.1948327" lon="11.1698797"><ele>492.0</ele><time>2026-04-15T14:20:05.13Z</time></trkpt><trkpt lat="44.1947157" lon="11.1699154"><ele>492.0</ele><time>2026-04-15T14:20:06.115Z</time></trkpt><trkpt lat="44.1946112" lon="11.1699786"><ele>492.0</ele><time>2026-04-15T14:20:07.094Z</time></trkpt><trkpt lat="44.1945214" lon="11.1700783"><ele>492.0</ele><time>2026-04-15T14:20:08.128Z</time></trkpt><trkpt lat="44.1944362" lon="11.1702089"><ele>492.0</ele><time>2026-04-15T14:20:09.126Z</time></trkpt><trkpt lat="44.1943616" lon="11.1703595"><ele>492.0</ele><time>2026-04-15T14:20:10.095Z</time></trkpt><trkpt lat="44.1942886" lon="11.1705007"><ele>492.0</ele><time>2026-04-15T14:20:11.109Z</time></trkpt><trkpt lat="44.1942099" lon="11.1706338"><ele>492.0</ele><time>2026-04-15T14:20:12.108Z</time></trkpt><trkpt lat="44.194054" lon="11.1708787"><ele>492.75</ele><time>2026-04-15T14:20:14.113Z</time></trkpt><trkpt lat="44.1939824" lon="11.1709949"><ele>493.5</ele><time>2026-04-15T14:20:15.127Z</time></trkpt><trkpt lat="44.1938257" lon="11.1711967"><ele>494.25</ele><time>2026-04-15T14:20:17.113Z</time></trkpt><trkpt lat="44.1937547" lon="11.1713077"><ele>495.0</ele><time>2026-04-15T14:20:18.099Z</time></trkpt><trkpt lat="44.1936698" lon="11.1714061"><ele>495.0</ele><time>2026-04-15T14:20:19.095Z</time></trkpt><trkpt lat="44.1935841" lon="11.1714941"><ele>495.0</ele><time>2026-04-15T14:20:20.113Z</time></trkpt><trkpt lat="44.193498" lon="11.1715467"><ele>495.0</ele><time>2026-04-15T14:20:21.083Z</time></trkpt><trkpt lat="44.1934005" lon="11.171589"><ele>495.0</ele><time>2026-04-15T14:20:22.122Z</time></trkpt><trkpt lat="44.1932961" lon="11.1716184"><ele>495.0</ele><time>2026-04-15T14:20:23.093Z</time></trkpt><trkpt lat="44.1931937" lon="11.171639"><ele>497.2</ele><time>2026-04-15T14:20:24.099Z</time></trkpt><trkpt lat="44.1930936" lon="11.171659"><ele>499.4</ele><time>2026-04-15T14:20:25.118Z</time></trkpt><trkpt lat="44.1929877" lon="11.1716609"><ele>501.6</ele><time>2026-04-15T14:20:26.115Z</time></trkpt><trkpt lat="44.1928824" lon="11.17164"><ele>503.8</ele><time>2026-04-15T14:20:27.121Z</time></trkpt><trkpt lat="44.1927725" lon="11.1715997"><ele>506.0</ele><time>2026-04-15T14:20:28.106Z</time></trkpt><trkpt lat="44.1926638" lon="11.171553"><ele>505.75</ele><time>2026-04-15T14:20:29.114Z</time></trkpt><trkpt lat="44.1925562" lon="11.1715231"><ele>505.5</ele><time>2026-04-15T14:20:30.094Z</time></trkpt><trkpt lat="44.1924491" lon="11.1715047"><ele>505.25</ele><time>2026-04-15T14:20:31.101Z</time></trkpt><trkpt lat="44.1923352" lon="11.1715083"><ele>505.0</ele><time>2026-04-15T14:20:32.112Z</time></trkpt><trkpt lat="44.1922138" lon="11.1715439"><ele>505.0</ele><time>2026-04-15T14:20:33.113Z</time></trkpt><trkpt lat="44.1920949" lon="11.1716003"><ele>505.0</ele><time>2026-04-15T14:20:34.119Z</time></trkpt><trkpt lat="44.1919619" lon="11.1716774"><ele>505.0</ele><time>2026-04-15T14:20:35.132Z</time></trkpt><trkpt lat="44.1918065" lon="11.171763"><ele>505.0</ele><time>2026-04-15T14:20:36.122Z</time></trkpt><trkpt lat="44.1916434" lon="11.1718623"><ele>503.6666666666667</ele><time>2026-04-15T14:20:37.113Z</time></trkpt><trkpt lat="44.1914829" lon="11.1719569"><ele>502.33333333333337</ele><time>2026-04-15T14:20:38.129Z</time></trkpt><trkpt lat="44.1913493" lon="11.1720642"><ele>501.0</ele><time>2026-04-15T14:20:39.087Z</time></trkpt><trkpt lat="44.1912383" lon="11.172147"><ele>501.0</ele><time>2026-04-15T14:20:40.125Z</time></trkpt><trkpt lat="44.1911274" lon="11.1721889"><ele>501.0</ele><time>2026-04-15T14:20:41.122Z</time></trkpt><trkpt lat="44.1910199" lon="11.1721732"><ele>501.0</ele><time>2026-04-15T14:20:42.116Z</time></trkpt><trkpt lat="44.1909052" lon="11.1721078"><ele>501.0</ele><time>2026-04-15T14:20:43.126Z</time></trkpt><trkpt lat="44.1907812" lon="11.1719989"><ele>506.33333333333337</ele><time>2026-04-15T14:20:44.114Z</time></trkpt><trkpt lat="44.1906464" lon="11.1718633"><ele>511.6666666666667</ele><time>2026-04-15T14:20:45.098Z</time></trkpt><trkpt lat="44.1905083" lon="11.1717015"><ele>517.0</ele><time>2026-04-15T14:20:46.079Z</time></trkpt><trkpt lat="44.1903753" lon="11.1715363"><ele>512.6666666666667</ele><time>2026-04-15T14:20:47.117Z</time></trkpt><trkpt lat="44.190247" lon="11.1713736"><ele>508.33333333333337</ele><time>2026-04-15T14:20:48.108Z</time></trkpt><trkpt lat="44.1901227" lon="11.1712297"><ele>504.0</ele><time>2026-04-15T14:20:49.126Z</time></trkpt><trkpt lat="44.189999" lon="11.1710986"><ele>504.0</ele><time>2026-04-15T14:20:50.112Z</time></trkpt><trkpt lat="44.1898723" lon="11.1709826"><ele>504.0</ele><time>2026-04-15T14:20:51.108Z</time></trkpt><trkpt lat="44.1897365" lon="11.1708856"><ele>504.0</ele><time>2026-04-15T14:20:52.107Z</time></trkpt><trkpt lat="44.18959" lon="11.1708183"><ele>505.66666666666663</ele><time>2026-04-15T14:20:53.103Z</time></trkpt><trkpt lat="44.1894415" lon="11.1707788"><ele>507.3333333333333</ele><time>2026-04-15T14:20:54.102Z</time></trkpt><trkpt lat="44.1892871" lon="11.1707826"><ele>509.0</ele><time>2026-04-15T14:20:55.084Z</time></trkpt><trkpt lat="44.189137" lon="11.1708004"><ele>508.5</ele><time>2026-04-15T14:20:56.102Z</time></trkpt><trkpt lat="44.1890054" lon="11.170838"><ele>508.0</ele><time>2026-04-15T14:20:57.11Z</time></trkpt><trkpt lat="44.1888783" lon="11.1708951"><ele>507.5</ele><time>2026-04-15T14:20:58.108Z</time></trkpt><trkpt lat="44.1887516" lon="11.1709835"><ele>507.0</ele><time>2026-04-15T14:20:59.113Z</time></trkpt><trkpt lat="44.1886382" lon="11.1711166"><ele>507.0</ele><time>2026-04-15T14:21:00.106Z</time></trkpt><trkpt lat="44.1885194" lon="11.1712603"><ele>507.0</ele><time>2026-04-15T14:21:01.109Z</time></trkpt><trkpt lat="44.1883872" lon="11.1714042"><ele>507.0</ele><time>2026-04-15T14:21:02.103Z</time></trkpt><trkpt lat="44.1882517" lon="11.1715155"><ele>510.0</ele><time>2026-04-15T14:21:03.112Z</time></trkpt><trkpt lat="44.1880936" lon="11.1715823"><ele>513.0</ele><time>2026-04-15T14:21:04.098Z</time></trkpt><trkpt lat="44.1879308" lon="11.1716212"><ele>516.0</ele><time>2026-04-15T14:21:05.089Z</time></trkpt><trkpt lat="44.1877506" lon="11.171624"><ele>516.0</ele><time>2026-04-15T14:21:06.092Z</time></trkpt><trkpt lat="44.1875718" lon="11.1716092"><ele>516.0</ele><time>2026-04-15T14:21:07.108Z</time></trkpt><trkpt lat="44.1873767" lon="11.1716155"><ele>516.0</ele><time>2026-04-15T14:21:08.117Z</time></trkpt><trkpt lat="44.1871819" lon="11.1716575"><ele>517.25</ele><time>2026-04-15T14:21:09.129Z</time></trkpt><trkpt lat="44.187009" lon="11.1717196"><ele>518.5</ele><time>2026-04-15T14:21:10.116Z</time></trkpt><trkpt lat="44.1868724" lon="11.1717668"><ele>519.75</ele><time>2026-04-15T14:21:11.08Z</time></trkpt><trkpt lat="44.186757" lon="11.1717793"><ele>521.0</ele><time>2026-04-15T14:21:12.087Z</time></trkpt><trkpt lat="44.1866439" lon="11.1717448"><ele>521.0</ele><time>2026-04-15T14:21:13.092Z</time></trkpt><trkpt lat="44.1865218" lon="11.1716519"><ele>521.0</ele><time>2026-04-15T14:21:14.129Z</time></trkpt><trkpt lat="44.1864006" lon="11.1715342"><ele>521.0</ele><time>2026-04-15T14:21:15.114Z</time></trkpt><trkpt lat="44.1862779" lon="11.171389"><ele>521.0</ele><time>2026-04-15T14:21:16.109Z</time></trkpt><trkpt lat="44.1861644" lon="11.1712134"><ele>521.25</ele><time>2026-04-15T14:21:17.105Z</time></trkpt><trkpt lat="44.1860687" lon="11.1710346"><ele>521.5</ele><time>2026-04-15T14:21:18.101Z</time></trkpt><trkpt lat="44.1859919" lon="11.170855"><ele>521.75</ele><time>2026-04-15T14:21:19.109Z</time></trkpt><trkpt lat="44.1859181" lon="11.1706917"><ele>522.0</ele><time>2026-04-15T14:21:20.102Z</time></trkpt><trkpt lat="44.1858226" lon="11.1705698"><ele>520.3333333333334</ele><time>2026-04-15T14:21:21.114Z</time></trkpt><trkpt lat="44.1856887" lon="11.1704893"><ele>518.6666666666667</ele><time>2026-04-15T14:21:22.119Z</time></trkpt><trkpt lat="44.1855465" lon="11.1704057"><ele>517.0</ele><time>2026-04-15T14:21:23.08Z</time></trkpt><trkpt lat="44.1853863" lon="11.1703199"><ele>517.0</ele><time>2026-04-15T14:21:24.124Z</time></trkpt><trkpt lat="44.1852063" lon="11.1702229"><ele>517.0</ele><time>2026-04-15T14:21:25.117Z</time></trkpt><trkpt lat="44.1850193" lon="11.1701309"><ele>517.0</ele><time>2026-04-15T14:21:26.111Z</time></trkpt><trkpt lat="44.1848458" lon="11.1700403"><ele>518.3333333333334</ele><time>2026-04-15T14:21:27.122Z</time></trkpt><trkpt lat="44.1846791" lon="11.1699755"><ele>519.6666666666666</ele><time>2026-04-15T14:21:28.099Z</time></trkpt><trkpt lat="44.1845118" lon="11.1699367"><ele>521.0</ele><time>2026-04-15T14:21:29.106Z</time></trkpt><trkpt lat="44.184335" lon="11.1699285"><ele>521.0</ele><time>2026-04-15T14:21:30.113Z</time></trkpt><trkpt lat="44.1841628" lon="11.169912"><ele>521.0</ele><time>2026-04-15T14:21:31.12Z</time></trkpt><trkpt lat="44.183987" lon="11.169871"><ele>521.0</ele><time>2026-04-15T14:21:32.117Z</time></trkpt><trkpt lat="44.1838294" lon="11.169817"><ele>517.75</ele><time>2026-04-15T14:21:33.074Z</time></trkpt><trkpt lat="44.183685" lon="11.1697776"><ele>514.5</ele><time>2026-04-15T14:21:34.095Z</time></trkpt><trkpt lat="44.183537" lon="11.1697769"><ele>511.25</ele><time>2026-04-15T14:21:35.118Z</time></trkpt><trkpt lat="44.1833865" lon="11.1698079"><ele>508.0</ele><time>2026-04-15T14:21:36.104Z</time></trkpt><trkpt lat="44.1832235" lon="11.1698404"><ele>511.0</ele><time>2026-04-15T14:21:37.102Z</time></trkpt><trkpt lat="44.1830651" lon="11.1698532"><ele>514.0</ele><time>2026-04-15T14:21:38.108Z</time></trkpt><trkpt lat="44.1829262" lon="11.1698398"><ele>517.0</ele><time>2026-04-15T14:21:39.08Z</time></trkpt><trkpt lat="44.1827224" lon="11.1696995"><ele>517.0</ele><time>2026-04-15T14:21:41.084Z</time></trkpt><trkpt lat="44.1826581" lon="11.1695679"><ele>517.0</ele><time>2026-04-15T14:21:42.119Z</time></trkpt><trkpt lat="44.1826038" lon="11.1693914"><ele>517.0</ele><time>2026-04-15T14:21:43.102Z</time></trkpt><trkpt lat="44.1825622" lon="11.1692164"><ele>517.0</ele><time>2026-04-15T14:21:44.117Z</time></trkpt><trkpt lat="44.1825183" lon="11.1690607"><ele>515.0</ele><time>2026-04-15T14:21:45.113Z</time></trkpt><trkpt lat="44.1824586" lon="11.1689356"><ele>513.0</ele><time>2026-04-15T14:21:46.102Z</time></trkpt><trkpt lat="44.1823698" lon="11.1688627"><ele>511.0</ele><time>2026-04-15T14:21:47.084Z</time></trkpt><trkpt lat="44.1822562" lon="11.1688162"><ele>509.0</ele><time>2026-04-15T14:21:48.09Z</time></trkpt><trkpt lat="44.1820923" lon="11.1688098"><ele>509.0</ele><time>2026-04-15T14:21:49.107Z</time></trkpt><trkpt lat="44.1819266" lon="11.1687949"><ele>509.0</ele><time>2026-04-15T14:21:50.101Z</time></trkpt><trkpt lat="44.1817689" lon="11.1687521"><ele>509.0</ele><time>2026-04-15T14:21:51.095Z</time></trkpt><trkpt lat="44.1816123" lon="11.1686675"><ele>511.3333333333333</ele><time>2026-04-15T14:21:52.098Z</time></trkpt><trkpt lat="44.1814649" lon="11.1685427"><ele>513.6666666666666</ele><time>2026-04-15T14:21:53.079Z</time></trkpt><trkpt lat="44.1813263" lon="11.1684119"><ele>516.0</ele><time>2026-04-15T14:21:54.108Z</time></trkpt><trkpt lat="44.1811986" lon="11.1682728"><ele>512.75</ele><time>2026-04-15T14:21:55.105Z</time></trkpt><trkpt lat="44.1810666" lon="11.1681811"><ele>509.5</ele><time>2026-04-15T14:21:56.093Z</time></trkpt><trkpt lat="44.1809243" lon="11.1681283"><ele>506.25</ele><time>2026-04-15T14:21:57.077Z</time></trkpt><trkpt lat="44.1807721" lon="11.1680994"><ele>503.0</ele><time>2026-04-15T14:21:58.118Z</time></trkpt><trkpt lat="44.1806058" lon="11.1681057"><ele>501.0</ele><time>2026-04-15T14:21:59.113Z</time></trkpt><trkpt lat="44.1804409" lon="11.1681564"><ele>499.0</ele><time>2026-04-15T14:22:00.088Z</time></trkpt><trkpt lat="44.1802759" lon="11.1682372"><ele>497.0</ele><time>2026-04-15T14:22:01.092Z</time></trkpt><trkpt lat="44.1801113" lon="11.1683367"><ele>499.3333333333333</ele><time>2026-04-15T14:22:02.111Z</time></trkpt><trkpt lat="44.1799582" lon="11.1684524"><ele>501.66666666666663</ele><time>2026-04-15T14:22:03.106Z</time></trkpt><trkpt lat="44.1798178" lon="11.1685624"><ele>504.0</ele><time>2026-04-15T14:22:04.117Z</time></trkpt><trkpt lat="44.1796672" lon="11.16864"><ele>504.0</ele><time>2026-04-15T14:22:05.1Z</time></trkpt><trkpt lat="44.1794959" lon="11.1686824"><ele>504.0</ele><time>2026-04-15T14:22:06.088Z</time></trkpt><trkpt lat="44.1793226" lon="11.1687058"><ele>504.0</ele><time>2026-04-15T14:22:07.09Z</time></trkpt><trkpt lat="44.1791581" lon="11.1687287"><ele>502.66666666666663</ele><time>2026-04-15T14:22:08.106Z</time></trkpt><trkpt lat="44.1789958" lon="11.1687683"><ele>501.3333333333333</ele><time>2026-04-15T14:22:09.108Z</time></trkpt><trkpt lat="44.1788338" lon="11.1688338"><ele>500.0</ele><time>2026-04-15T14:22:10.085Z</time></trkpt><trkpt lat="44.1786634" lon="11.1689471"><ele>499.3333333333333</ele><time>2026-04-15T14:22:11.111Z</time></trkpt><trkpt lat="44.1784874" lon="11.1690832"><ele>498.66666666666663</ele><time>2026-04-15T14:22:12.092Z</time></trkpt><trkpt lat="44.1783105" lon="11.1692259"><ele>498.0</ele><time>2026-04-15T14:22:13.112Z</time></trkpt><trkpt lat="44.1781445" lon="11.1693614"><ele>498.0</ele><time>2026-04-15T14:22:14.11Z</time></trkpt><trkpt lat="44.1779987" lon="11.169477"><ele>498.0</ele><time>2026-04-15T14:22:15.098Z</time></trkpt><trkpt lat="44.1778805" lon="11.1695827"><ele>498.0</ele><time>2026-04-15T14:22:16.083Z</time></trkpt><trkpt lat="44.17778" lon="11.1696903"><ele>498.0</ele><time>2026-04-15T14:22:17.12Z</time></trkpt><trkpt lat="44.1776329" lon="11.1700658"><ele>501.0</ele><time>2026-04-15T14:22:19.063Z</time></trkpt><trkpt lat="44.1775643" lon="11.1702901"><ele>504.0</ele><time>2026-04-15T14:22:20.115Z</time></trkpt><trkpt lat="44.1774968" lon="11.1705024"><ele>507.0</ele><time>2026-04-15T14:22:21.107Z</time></trkpt><trkpt lat="44.1774292" lon="11.1706713"><ele>506.0</ele><time>2026-04-15T14:22:22.11Z</time></trkpt><trkpt lat="44.1773304" lon="11.1708297"><ele>505.0</ele><time>2026-04-15T14:22:23.1Z</time></trkpt><trkpt lat="44.1772189" lon="11.1709595"><ele>504.0</ele><time>2026-04-15T14:22:24.119Z</time></trkpt><trkpt lat="44.1770808" lon="11.1710763"><ele>504.0</ele><time>2026-04-15T14:22:25.101Z</time></trkpt><trkpt lat="44.1767718" lon="11.1712645"><ele>504.0</ele><time>2026-04-15T14:22:27.091Z</time></trkpt><trkpt lat="44.1766304" lon="11.1713442"><ele>505.25</ele><time>2026-04-15T14:22:28.104Z</time></trkpt><trkpt lat="44.1764948" lon="11.1713801"><ele>506.5</ele><time>2026-04-15T14:22:29.088Z</time></trkpt><trkpt lat="44.1763544" lon="11.1713748"><ele>507.75</ele><time>2026-04-15T14:22:30.085Z</time></trkpt><trkpt lat="44.1762059" lon="11.1713223"><ele>509.0</ele><time>2026-04-15T14:22:31.115Z</time></trkpt><trkpt lat="44.176063" lon="11.1712064"><ele>509.0</ele><time>2026-04-15T14:22:32.124Z</time></trkpt><trkpt lat="44.1759263" lon="11.1710638"><ele>509.0</ele><time>2026-04-15T14:22:33.068Z</time></trkpt><trkpt lat="44.1756189" lon="11.1707339"><ele>510.3333333333333</ele><time>2026-04-15T14:22:35.101Z</time></trkpt><trkpt lat="44.1754672" lon="11.1705559"><ele>511.66666666666663</ele><time>2026-04-15T14:22:36.101Z</time></trkpt><trkpt lat="44.1753126" lon="11.1703996"><ele>513.0</ele><time>2026-04-15T14:22:37.089Z</time></trkpt><trkpt lat="44.1749621" lon="11.1701805"><ele>515.0</ele><time>2026-04-15T14:22:39.1Z</time></trkpt><trkpt lat="44.1743522" lon="11.1700164"><ele>515.0</ele><time>2026-04-15T14:22:42.097Z</time></trkpt><trkpt lat="44.1741463" lon="11.1699855"><ele>515.0</ele><time>2026-04-15T14:22:43.113Z</time></trkpt><trkpt lat="44.1739543" lon="11.1699356"><ele>515.0</ele><time>2026-04-15T14:22:44.081Z</time></trkpt><trkpt lat="44.1737812" lon="11.1698839"><ele>516.0</ele><time>2026-04-15T14:22:45.09Z</time></trkpt><trkpt lat="44.1736307" lon="11.1698221"><ele>517.0</ele><time>2026-04-15T14:22:46.098Z</time></trkpt><trkpt lat="44.1735121" lon="11.1697569"><ele>518.0</ele><time>2026-04-15T14:22:47.117Z</time></trkpt><trkpt lat="44.173405" lon="11.1696983"><ele>519.0</ele><time>2026-04-15T14:22:48.109Z</time></trkpt><trkpt lat="44.173318" lon="11.169608"><ele>519.0</ele><time>2026-04-15T14:22:49.082Z</time></trkpt><trkpt lat="44.1732551" lon="11.1694572"><ele>519.0</ele><time>2026-04-15T14:22:50.107Z</time></trkpt><trkpt lat="44.1732196" lon="11.1692876"><ele>519.0</ele><time>2026-04-15T14:22:51.086Z</time></trkpt><trkpt lat="44.1732192" lon="11.1691074"><ele>519.0</ele><time>2026-04-15T14:22:52.105Z</time></trkpt><trkpt lat="44.1732319" lon="11.1689548"><ele>519.6</ele><time>2026-04-15T14:22:53.071Z</time></trkpt><trkpt lat="44.1732353" lon="11.1688283"><ele>520.2</ele><time>2026-04-15T14:22:54.086Z</time></trkpt><trkpt lat="44.1732086" lon="11.1687266"><ele>520.8000000000001</ele><time>2026-04-15T14:22:55.071Z</time></trkpt><trkpt lat="44.1731478" lon="11.1686469"><ele>521.4</ele><time>2026-04-15T14:22:56.097Z</time></trkpt><trkpt lat="44.1730481" lon="11.1686157"><ele>522.0</ele><time>2026-04-15T14:22:57.06Z</time></trkpt><trkpt lat="44.1729243" lon="11.1686223"><ele>522.0</ele><time>2026-04-15T14:22:58.1Z</time></trkpt><trkpt lat="44.1727868" lon="11.1686499"><ele>522.0</ele><time>2026-04-15T14:22:59.092Z</time></trkpt><trkpt lat="44.172644" lon="11.1686845"><ele>522.0</ele><time>2026-04-15T14:23:00.121Z</time></trkpt><trkpt lat="44.1725138" lon="11.1686737"><ele>522.0</ele><time>2026-04-15T14:23:01.095Z</time></trkpt><trkpt lat="44.1723024" lon="11.1684957"><ele>522.0</ele><time>2026-04-15T14:23:03.079Z</time></trkpt><trkpt lat="44.1722168" lon="11.1683577"><ele>522.0</ele><time>2026-04-15T14:23:04.093Z</time></trkpt><trkpt lat="44.1721357" lon="11.1682144"><ele>522.0</ele><time>2026-04-15T14:23:05.091Z</time></trkpt><trkpt lat="44.1720432" lon="11.1681001"><ele>522.0</ele><time>2026-04-15T14:23:06.097Z</time></trkpt><trkpt lat="44.1719284" lon="11.1680049"><ele>522.0</ele><time>2026-04-15T14:23:07.086Z</time></trkpt><trkpt lat="44.1717728" lon="11.1679119"><ele>522.0</ele><time>2026-04-15T14:23:08.08Z</time></trkpt><trkpt lat="44.1716225" lon="11.1678273"><ele>522.0</ele><time>2026-04-15T14:23:09.106Z</time></trkpt><trkpt lat="44.1714605" lon="11.1677623"><ele>528.0</ele><time>2026-04-15T14:23:10.106Z</time></trkpt><trkpt lat="44.1713042" lon="11.167674"><ele>534.0</ele><time>2026-04-15T14:23:11.066Z</time></trkpt><trkpt lat="44.1709904" lon="11.1676195"><ele>534.0</ele><time>2026-04-15T14:23:13.105Z</time></trkpt><trkpt lat="44.1708414" lon="11.1676073"><ele>534.0</ele><time>2026-04-15T14:23:14.094Z</time></trkpt><trkpt lat="44.1707095" lon="11.1675925"><ele>534.0</ele><time>2026-04-15T14:23:15.119Z</time></trkpt><trkpt lat="44.1706122" lon="11.167522"><ele>534.0</ele><time>2026-04-15T14:23:16.093Z</time></trkpt><trkpt lat="44.170523" lon="11.1673926"><ele>533.6</ele><time>2026-04-15T14:23:17.095Z</time></trkpt><trkpt lat="44.1704723" lon="11.167264"><ele>533.2</ele><time>2026-04-15T14:23:18.105Z</time></trkpt><trkpt lat="44.1704089" lon="11.1671528"><ele>532.8000000000001</ele><time>2026-04-15T14:23:19.061Z</time></trkpt><trkpt lat="44.1703123" lon="11.1670902"><ele>532.4</ele><time>2026-04-15T14:23:20.068Z</time></trkpt><trkpt lat="44.1701809" lon="11.1670555"><ele>532.0</ele><time>2026-04-15T14:23:21.08Z</time></trkpt><trkpt lat="44.1700268" lon="11.1670315"><ele>532.0</ele><time>2026-04-15T14:23:22.098Z</time></trkpt><trkpt lat="44.1698689" lon="11.1670063"><ele>532.0</ele><time>2026-04-15T14:23:23.095Z</time></trkpt><trkpt lat="44.1697172" lon="11.1669943"><ele>532.0</ele><time>2026-04-15T14:23:24.092Z</time></trkpt><trkpt lat="44.1695784" lon="11.1669904"><ele>534.5</ele><time>2026-04-15T14:23:25.086Z</time></trkpt><trkpt lat="44.1694466" lon="11.1669669"><ele>537.0</ele><time>2026-04-15T14:23:26.102Z</time></trkpt><trkpt lat="44.1693118" lon="11.1668974"><ele>539.5</ele><time>2026-04-15T14:23:27.096Z</time></trkpt><trkpt lat="44.1691882" lon="11.1667933"><ele>542.0</ele><time>2026-04-15T14:23:28.096Z</time></trkpt><trkpt lat="44.1690676" lon="11.1666764"><ele>544.6666666666666</ele><time>2026-04-15T14:23:29.095Z</time></trkpt><trkpt lat="44.1689445" lon="11.1665779"><ele>547.3333333333334</ele><time>2026-04-15T14:23:30.103Z</time></trkpt><trkpt lat="44.1688131" lon="11.166514"><ele>550.0</ele><time>2026-04-15T14:23:31.075Z</time></trkpt><trkpt lat="44.1685478" lon="11.1664663"><ele>550.0</ele><time>2026-04-15T14:23:33.082Z</time></trkpt><trkpt lat="44.1684146" lon="11.1665059"><ele>550.0</ele><time>2026-04-15T14:23:34.1Z</time></trkpt><trkpt lat="44.1682922" lon="11.1665657"><ele>550.0</ele><time>2026-04-15T14:23:35.09Z</time></trkpt><trkpt lat="44.168092" lon="11.1665963"><ele>549.2</ele><time>2026-04-15T14:23:37.087Z</time></trkpt><trkpt lat="44.1679889" lon="11.1665718"><ele>548.4</ele><time>2026-04-15T14:23:38.086Z</time></trkpt><trkpt lat="44.1678872" lon="11.1665203"><ele>547.6</ele><time>2026-04-15T14:23:39.111Z</time></trkpt><trkpt lat="44.1678053" lon="11.1664552"><ele>546.8</ele><time>2026-04-15T14:23:40.103Z</time></trkpt><trkpt lat="44.1677248" lon="11.1663441"><ele>546.0</ele><time>2026-04-15T14:23:41.069Z</time></trkpt><trkpt lat="44.167666" lon="11.1662209"><ele>546.0</ele><time>2026-04-15T14:23:42.083Z</time></trkpt><trkpt lat="44.1676092" lon="11.1661046"><ele>546.0</ele><time>2026-04-15T14:23:43.086Z</time></trkpt><trkpt lat="44.1674742" lon="11.1659545"><ele>546.0</ele><time>2026-04-15T14:23:45.111Z</time></trkpt><trkpt lat="44.1673863" lon="11.1659108"><ele>546.0</ele><time>2026-04-15T14:23:46.106Z</time></trkpt><trkpt lat="44.1672816" lon="11.1658847"><ele>548.0</ele><time>2026-04-15T14:23:47.073Z</time></trkpt><trkpt lat="44.1671521" lon="11.1658746"><ele>550.0</ele><time>2026-04-15T14:23:48.103Z</time></trkpt><trkpt lat="44.166988" lon="11.1658711"><ele>552.0</ele><time>2026-04-15T14:23:49.095Z</time></trkpt><trkpt lat="44.1668113" lon="11.1658504"><ele>552.0</ele><time>2026-04-15T14:23:50.073Z</time></trkpt><trkpt lat="44.1666337" lon="11.16582"><ele>552.0</ele><time>2026-04-15T14:23:51.099Z</time></trkpt><trkpt lat="44.1664596" lon="11.1657972"><ele>552.0</ele><time>2026-04-15T14:23:52.102Z</time></trkpt><trkpt lat="44.1663053" lon="11.1657864"><ele>552.25</ele><time>2026-04-15T14:23:53.077Z</time></trkpt><trkpt lat="44.1661741" lon="11.1657851"><ele>552.5</ele><time>2026-04-15T14:23:54.107Z</time></trkpt><trkpt lat="44.1660682" lon="11.1658202"><ele>552.75</ele><time>2026-04-15T14:23:55.089Z</time></trkpt><trkpt lat="44.1659783" lon="11.1659143"><ele>553.0</ele><time>2026-04-15T14:23:56.102Z</time></trkpt><trkpt lat="44.1659058" lon="11.166078"><ele>553.0</ele><time>2026-04-15T14:23:57.084Z</time></trkpt><trkpt lat="44.1658471" lon="11.1662821"><ele>553.0</ele><time>2026-04-15T14:23:58.093Z</time></trkpt><trkpt lat="44.1657892" lon="11.1665084"><ele>553.0</ele><time>2026-04-15T14:23:59.072Z</time></trkpt><trkpt lat="44.1657185" lon="11.1667146"><ele>554.75</ele><time>2026-04-15T14:24:00.105Z</time></trkpt><trkpt lat="44.1656356" lon="11.1668887"><ele>556.5</ele><time>2026-04-15T14:24:01.085Z</time></trkpt><trkpt lat="44.1655312" lon="11.1670299"><ele>558.25</ele><time>2026-04-15T14:24:02.093Z</time></trkpt><trkpt lat="44.1654197" lon="11.1671392"><ele>560.0</ele><time>2026-04-15T14:24:03.097Z</time></trkpt><trkpt lat="44.1652927" lon="11.1672162"><ele>560.0</ele><time>2026-04-15T14:24:04.096Z</time></trkpt><trkpt lat="44.1651661" lon="11.1672645"><ele>560.0</ele><time>2026-04-15T14:24:05.063Z</time></trkpt><trkpt lat="44.1650439" lon="11.1672802"><ele>560.0</ele><time>2026-04-15T14:24:06.097Z</time></trkpt><trkpt lat="44.1649328" lon="11.1672625"><ele>560.0</ele><time>2026-04-15T14:24:07.102Z</time></trkpt><trkpt lat="44.1648321" lon="11.1672106"><ele>563.6</ele><time>2026-04-15T14:24:08.095Z</time></trkpt><trkpt lat="44.164747" lon="11.1671151"><ele>567.2</ele><time>2026-04-15T14:24:09.066Z</time></trkpt><trkpt lat="44.1646879" lon="11.1669954"><ele>570.8</ele><time>2026-04-15T14:24:10.111Z</time></trkpt><trkpt lat="44.1646333" lon="11.1668739"><ele>574.4</ele><time>2026-04-15T14:24:11.094Z</time></trkpt><trkpt lat="44.1645912" lon="11.1667408"><ele>578.0</ele><time>2026-04-15T14:24:12.073Z</time></trkpt><trkpt lat="44.1645456" lon="11.1666275"><ele>578.0</ele><time>2026-04-15T14:24:13.069Z</time></trkpt><trkpt lat="44.1644895" lon="11.1665452"><ele>578.0</ele><time>2026-04-15T14:24:14.083Z</time></trkpt><trkpt lat="44.1644113" lon="11.1665035"><ele>578.0</ele><time>2026-04-15T14:24:15.064Z</time></trkpt><trkpt lat="44.1643332" lon="11.1664898"><ele>578.0</ele><time>2026-04-15T14:24:16.085Z</time></trkpt><trkpt lat="44.1642379" lon="11.1665286"><ele>578.0</ele><time>2026-04-15T14:24:17.092Z</time></trkpt><trkpt lat="44.1641502" lon="11.1666013"><ele>578.0</ele><time>2026-04-15T14:24:18.099Z</time></trkpt><trkpt lat="44.1640521" lon="11.1666656"><ele>578.75</ele><time>2026-04-15T14:24:19.086Z</time></trkpt><trkpt lat="44.1639451" lon="11.1667173"><ele>579.5</ele><time>2026-04-15T14:24:20.058Z</time></trkpt><trkpt lat="44.1638179" lon="11.1667537"><ele>580.25</ele><time>2026-04-15T14:24:21.085Z</time></trkpt><trkpt lat="44.1636991" lon="11.1667694"><ele>581.0</ele><time>2026-04-15T14:24:22.096Z</time></trkpt><trkpt lat="44.1635839" lon="11.1667728"><ele>581.0</ele><time>2026-04-15T14:24:23.066Z</time></trkpt><trkpt lat="44.1634709" lon="11.1667692"><ele>581.0</ele><time>2026-04-15T14:24:24.082Z</time></trkpt><trkpt lat="44.1633625" lon="11.1667593"><ele>581.0</ele><time>2026-04-15T14:24:25.085Z</time></trkpt><trkpt lat="44.1632597" lon="11.166753"><ele>581.0</ele><time>2026-04-15T14:24:26.091Z</time></trkpt><trkpt lat="44.1631539" lon="11.16677"><ele>581.0</ele><time>2026-04-15T14:24:27.068Z</time></trkpt><trkpt lat="44.1630405" lon="11.1668363"><ele>580.6666666666666</ele><time>2026-04-15T14:24:28.092Z</time></trkpt><trkpt lat="44.1629125" lon="11.1669459"><ele>580.3333333333334</ele><time>2026-04-15T14:24:29.097Z</time></trkpt><trkpt lat="44.1627568" lon="11.1670705"><ele>580.0</ele><time>2026-04-15T14:24:30.095Z</time></trkpt><trkpt lat="44.1625687" lon="11.1671928"><ele>580.0</ele><time>2026-04-15T14:24:31.064Z</time></trkpt><trkpt lat="44.1623676" lon="11.1673174"><ele>580.0</ele><time>2026-04-15T14:24:32.075Z</time></trkpt><trkpt lat="44.1621713" lon="11.1674444"><ele>580.0</ele><time>2026-04-15T14:24:33.08Z</time></trkpt><trkpt lat="44.1619881" lon="11.1675652"><ele>585.0</ele><time>2026-04-15T14:24:34.08Z</time></trkpt><trkpt lat="44.1618196" lon="11.1676712"><ele>590.0</ele><time>2026-04-15T14:24:35.078Z</time></trkpt><trkpt lat="44.1616526" lon="11.1677395"><ele>595.0</ele><time>2026-04-15T14:24:36.089Z</time></trkpt><trkpt lat="44.16149" lon="11.1677924"><ele>597.6666666666667</ele><time>2026-04-15T14:24:37.084Z</time></trkpt><trkpt lat="44.1613165" lon="11.1678121"><ele>600.3333333333334</ele><time>2026-04-15T14:24:38.09Z</time></trkpt><trkpt lat="44.161132" lon="11.1677965"><ele>603.0</ele><time>2026-04-15T14:24:39.067Z</time></trkpt><trkpt lat="44.1609345" lon="11.1677688"><ele>603.0</ele><time>2026-04-15T14:24:40.083Z</time></trkpt><trkpt lat="44.1607334" lon="11.1677347"><ele>603.0</ele><time>2026-04-15T14:24:41.075Z</time></trkpt><trkpt lat="44.1605252" lon="11.1677078"><ele>603.0</ele><time>2026-04-15T14:24:42.098Z</time></trkpt><trkpt lat="44.1600805" lon="11.1676567"><ele>606.3333333333334</ele><time>2026-04-15T14:24:44.102Z</time></trkpt><trkpt lat="44.159862" lon="11.167637"><ele>609.6666666666667</ele><time>2026-04-15T14:24:45.102Z</time></trkpt><trkpt lat="44.1596551" lon="11.1676135"><ele>613.0</ele><time>2026-04-15T14:24:46.102Z</time></trkpt><trkpt lat="44.1594638" lon="11.1675968"><ele>613.0</ele><time>2026-04-15T14:24:47.071Z</time></trkpt><trkpt lat="44.1592763" lon="11.1675941"><ele>613.0</ele><time>2026-04-15T14:24:48.076Z</time></trkpt><trkpt lat="44.159086" lon="11.1676139"><ele>613.0</ele><time>2026-04-15T14:24:49.077Z</time></trkpt><trkpt lat="44.158901" lon="11.1676608"><ele>612.3333333333334</ele><time>2026-04-15T14:24:50.099Z</time></trkpt><trkpt lat="44.1587185" lon="11.1677282"><ele>611.6666666666666</ele><time>2026-04-15T14:24:51.108Z</time></trkpt><trkpt lat="44.158542" lon="11.1678165"><ele>611.0</ele><time>2026-04-15T14:24:52.102Z</time></trkpt><trkpt lat="44.1583743" lon="11.1679268"><ele>611.0</ele><time>2026-04-15T14:24:53.059Z</time></trkpt><trkpt lat="44.1582202" lon="11.1680535"><ele>611.0</ele><time>2026-04-15T14:24:54.101Z</time></trkpt><trkpt lat="44.1580692" lon="11.1681852"><ele>611.0</ele><time>2026-04-15T14:24:55.07Z</time></trkpt><trkpt lat="44.1579279" lon="11.1683498"><ele>610.3333333333333</ele><time>2026-04-15T14:24:56.059Z</time></trkpt><trkpt lat="44.1578099" lon="11.1685511"><ele>609.6666666666666</ele><time>2026-04-15T14:24:57.064Z</time></trkpt><trkpt lat="44.1577021" lon="11.1687655"><ele>609.0</ele><time>2026-04-15T14:24:58.088Z</time></trkpt><trkpt lat="44.1576139" lon="11.1689859"><ele>610.25</ele><time>2026-04-15T14:24:59.091Z</time></trkpt><trkpt lat="44.1575386" lon="11.1691829"><ele>611.5</ele><time>2026-04-15T14:25:00.093Z</time></trkpt><trkpt lat="44.1574577" lon="11.1693442"><ele>612.75</ele><time>2026-04-15T14:25:01.066Z</time></trkpt><trkpt lat="44.1573632" lon="11.1694619"><ele>614.0</ele><time>2026-04-15T14:25:02.084Z</time></trkpt><trkpt lat="44.157252" lon="11.169537"><ele>614.0</ele><time>2026-04-15T14:25:03.087Z</time></trkpt><trkpt lat="44.1571366" lon="11.1695586"><ele>614.0</ele><time>2026-04-15T14:25:04.085Z</time></trkpt><trkpt lat="44.1570202" lon="11.1695407"><ele>614.0</ele><time>2026-04-15T14:25:05.098Z</time></trkpt><trkpt lat="44.1569091" lon="11.1694911"><ele>614.0</ele><time>2026-04-15T14:25:06.064Z</time></trkpt><trkpt lat="44.1568125" lon="11.1694514"><ele>614.0</ele><time>2026-04-15T14:25:07.114Z</time></trkpt><trkpt lat="44.1567117" lon="11.1694345"><ele>614.0</ele><time>2026-04-15T14:25:08.104Z</time></trkpt><trkpt lat="44.1566036" lon="11.1694482"><ele>614.0</ele><time>2026-04-15T14:25:09.06Z</time></trkpt><trkpt lat="44.1564791" lon="11.1695318"><ele>614.0</ele><time>2026-04-15T14:25:10.06Z</time></trkpt><trkpt lat="44.1563355" lon="11.1696576"><ele>619.0</ele><time>2026-04-15T14:25:11.076Z</time></trkpt><trkpt lat="44.1560386" lon="11.1698677"><ele>624.0</ele><time>2026-04-15T14:25:13.082Z</time></trkpt><trkpt lat="44.1558974" lon="11.1699409"><ele>624.0</ele><time>2026-04-15T14:25:14.092Z</time></trkpt><trkpt lat="44.1557666" lon="11.1699662"><ele>624.0</ele><time>2026-04-15T14:25:15.071Z</time></trkpt><trkpt lat="44.15565" lon="11.1699501"><ele>624.0</ele><time>2026-04-15T14:25:16.084Z</time></trkpt><trkpt lat="44.1555498" lon="11.1698835"><ele>624.0</ele><time>2026-04-15T14:25:17.065Z</time></trkpt><trkpt lat="44.1554666" lon="11.1697704"><ele>623.75</ele><time>2026-04-15T14:25:18.068Z</time></trkpt><trkpt lat="44.1553852" lon="11.1696413"><ele>623.5</ele><time>2026-04-15T14:25:19.05Z</time></trkpt><trkpt lat="44.1552829" lon="11.1695295"><ele>623.25</ele><time>2026-04-15T14:25:20.06Z</time></trkpt><trkpt lat="44.1551457" lon="11.1694533"><ele>623.0</ele><time>2026-04-15T14:25:21.065Z</time></trkpt><trkpt lat="44.1549864" lon="11.1694036"><ele>624.0</ele><time>2026-04-15T14:25:22.055Z</time></trkpt><trkpt lat="44.1546789" lon="11.1693034"><ele>625.0</ele><time>2026-04-15T14:25:24.06Z</time></trkpt><trkpt lat="44.1545341" lon="11.1692752"><ele>625.0</ele><time>2026-04-15T14:25:25.086Z</time></trkpt><trkpt lat="44.1542639" lon="11.1693763"><ele>625.0</ele><time>2026-04-15T14:25:27.088Z</time></trkpt><trkpt lat="44.1541332" lon="11.1694589"><ele>625.0</ele><time>2026-04-15T14:25:28.065Z</time></trkpt><trkpt lat="44.1539963" lon="11.169464"><ele>625.3333333333334</ele><time>2026-04-15T14:25:29.081Z</time></trkpt><trkpt lat="44.1538529" lon="11.1694075"><ele>625.6666666666666</ele><time>2026-04-15T14:25:30.098Z</time></trkpt><trkpt lat="44.153702" lon="11.1693462"><ele>626.0</ele><time>2026-04-15T14:25:31.089Z</time></trkpt><trkpt lat="44.1535465" lon="11.1693122"><ele>626.0</ele><time>2026-04-15T14:25:32.088Z</time></trkpt><trkpt lat="44.1533692" lon="11.1693065"><ele>626.0</ele><time>2026-04-15T14:25:33.065Z</time></trkpt><trkpt lat="44.1531995" lon="11.1693254"><ele>626.0</ele><time>2026-04-15T14:25:34.094Z</time></trkpt><trkpt lat="44.1530401" lon="11.1693844"><ele>625.6666666666666</ele><time>2026-04-15T14:25:35.074Z</time></trkpt><trkpt lat="44.1528793" lon="11.1694731"><ele>625.3333333333334</ele><time>2026-04-15T14:25:36.077Z</time></trkpt><trkpt lat="44.1527177" lon="11.1695422"><ele>625.0</ele><time>2026-04-15T14:25:37.092Z</time></trkpt><trkpt lat="44.1525576" lon="11.1695566"><ele>625.0</ele><time>2026-04-15T14:25:38.1Z</time></trkpt><trkpt lat="44.1524074" lon="11.1695375"><ele>625.0</ele><time>2026-04-15T14:25:39.082Z</time></trkpt><trkpt lat="44.1522672" lon="11.1695252"><ele>625.0</ele><time>2026-04-15T14:25:40.079Z</time></trkpt><trkpt lat="44.1521393" lon="11.1695474"><ele>625.0</ele><time>2026-04-15T14:25:41.068Z</time></trkpt><trkpt lat="44.1520191" lon="11.1696136"><ele>623.5</ele><time>2026-04-15T14:25:42.062Z</time></trkpt><trkpt lat="44.1519088" lon="11.169745"><ele>622.0</ele><time>2026-04-15T14:25:43.064Z</time></trkpt><trkpt lat="44.1518127" lon="11.1699127"><ele>620.5</ele><time>2026-04-15T14:25:44.11Z</time></trkpt><trkpt lat="44.151733" lon="11.1700873"><ele>619.0</ele><time>2026-04-15T14:25:45.082Z</time></trkpt><trkpt lat="44.1516519" lon="11.1702195"><ele>624.6666666666667</ele><time>2026-04-15T14:25:46.099Z</time></trkpt><trkpt lat="44.1515659" lon="11.170321"><ele>630.3333333333334</ele><time>2026-04-15T14:25:47.073Z</time></trkpt><trkpt lat="44.15134" lon="11.1703294"><ele>636.0</ele><time>2026-04-15T14:25:49.076Z</time></trkpt><trkpt lat="44.151224" lon="11.1702567"><ele>637.0</ele><time>2026-04-15T14:25:50.092Z</time></trkpt><trkpt lat="44.151142" lon="11.1701387"><ele>638.0</ele><time>2026-04-15T14:25:51.05Z</time></trkpt><trkpt lat="44.1510723" lon="11.1699954"><ele>639.0</ele><time>2026-04-15T14:25:52.107Z</time></trkpt><trkpt lat="44.1510167" lon="11.1698538"><ele>640.0</ele><time>2026-04-15T14:25:53.087Z</time></trkpt><trkpt lat="44.1508442" lon="11.1697492"><ele>640.75</ele><time>2026-04-15T14:25:55.082Z</time></trkpt><trkpt lat="44.1507617" lon="11.1697039"><ele>641.5</ele><time>2026-04-15T14:25:56.068Z</time></trkpt><trkpt lat="44.1506552" lon="11.1697515"><ele>642.25</ele><time>2026-04-15T14:25:57.08Z</time></trkpt><trkpt lat="44.1505219" lon="11.1698363"><ele>643.0</ele><time>2026-04-15T14:25:58.092Z</time></trkpt><trkpt lat="44.1503791" lon="11.16989"><ele>643.0</ele><time>2026-04-15T14:25:59.075Z</time></trkpt><trkpt lat="44.1502306" lon="11.1698717"><ele>643.0</ele><time>2026-04-15T14:26:00.096Z</time></trkpt><trkpt lat="44.1500701" lon="11.1698268"><ele>643.0</ele><time>2026-04-15T14:26:01.073Z</time></trkpt><trkpt lat="44.149905" lon="11.1697724"><ele>641.3333333333334</ele><time>2026-04-15T14:26:02.051Z</time></trkpt><trkpt lat="44.14973" lon="11.1697377"><ele>639.6666666666666</ele><time>2026-04-15T14:26:03.063Z</time></trkpt><trkpt lat="44.149549" lon="11.1697521"><ele>638.0</ele><time>2026-04-15T14:26:04.087Z</time></trkpt><trkpt lat="44.1493641" lon="11.1697929"><ele>638.0</ele><time>2026-04-15T14:26:05.079Z</time></trkpt><trkpt lat="44.1491877" lon="11.1698325"><ele>638.0</ele><time>2026-04-15T14:26:06.109Z</time></trkpt><trkpt lat="44.1490343" lon="11.1698605"><ele>638.0</ele><time>2026-04-15T14:26:07.058Z</time></trkpt><trkpt lat="44.148899" lon="11.169853"><ele>643.3333333333333</ele><time>2026-04-15T14:26:08.068Z</time></trkpt><trkpt lat="44.1486939" lon="11.1696539"><ele>648.6666666666666</ele><time>2026-04-15T14:26:10.078Z</time></trkpt><trkpt lat="44.1486192" lon="11.1694976"><ele>654.0</ele><time>2026-04-15T14:26:11.059Z</time></trkpt><trkpt lat="44.1485672" lon="11.169317"><ele>654.0</ele><time>2026-04-15T14:26:12.09Z</time></trkpt><trkpt lat="44.1485422" lon="11.1691259"><ele>654.0</ele><time>2026-04-15T14:26:13.072Z</time></trkpt><trkpt lat="44.1485034" lon="11.1689701"><ele>654.0</ele><time>2026-04-15T14:26:14.066Z</time></trkpt><trkpt lat="44.1484136" lon="11.1688624"><ele>654.0</ele><time>2026-04-15T14:26:15.059Z</time></trkpt><trkpt lat="44.1482715" lon="11.1687951"><ele>656.0</ele><time>2026-04-15T14:26:16.066Z</time></trkpt><trkpt lat="44.1481459" lon="11.1687235"><ele>658.0</ele><time>2026-04-15T14:26:17.06Z</time></trkpt><trkpt lat="44.1480406" lon="11.1686054"><ele>660.0</ele><time>2026-04-15T14:26:18.052Z</time></trkpt><trkpt lat="44.1479761" lon="11.1684344"><ele>662.0</ele><time>2026-04-15T14:26:19.059Z</time></trkpt><trkpt lat="44.1479391" lon="11.1682586"><ele>659.25</ele><time>2026-04-15T14:26:20.059Z</time></trkpt><trkpt lat="44.147889" lon="11.168108"><ele>656.5</ele><time>2026-04-15T14:26:21.084Z</time></trkpt><trkpt lat="44.1478199" lon="11.1680083"><ele>653.75</ele><time>2026-04-15T14:26:22.117Z</time></trkpt><trkpt lat="44.147707" lon="11.1679777"><ele>651.0</ele><time>2026-04-15T14:26:23.047Z</time></trkpt><trkpt lat="44.147569" lon="11.1679972"><ele>651.0</ele><time>2026-04-15T14:26:24.052Z</time></trkpt><trkpt lat="44.1474135" lon="11.1680579"><ele>651.0</ele><time>2026-04-15T14:26:25.05Z</time></trkpt><trkpt lat="44.1472698" lon="11.1681151"><ele>651.0</ele><time>2026-04-15T14:26:26.065Z</time></trkpt><trkpt lat="44.1471348" lon="11.1681224"><ele>651.0</ele><time>2026-04-15T14:26:27.065Z</time></trkpt><trkpt lat="44.1469896" lon="11.1680993"><ele>653.75</ele><time>2026-04-15T14:26:28.047Z</time></trkpt><trkpt lat="44.1468554" lon="11.1680473"><ele>656.5</ele><time>2026-04-15T14:26:29.042Z</time></trkpt><trkpt lat="44.1467275" lon="11.1679552"><ele>659.25</ele><time>2026-04-15T14:26:30.058Z</time></trkpt><trkpt lat="44.1465946" lon="11.1678442"><ele>662.0</ele><time>2026-04-15T14:26:31.054Z</time></trkpt><trkpt lat="44.1464635" lon="11.1676817"><ele>662.5</ele><time>2026-04-15T14:26:32.081Z</time></trkpt><trkpt lat="44.1463358" lon="11.1675078"><ele>663.0</ele><time>2026-04-15T14:26:33.052Z</time></trkpt><trkpt lat="44.1461066" lon="11.1671862"><ele>663.0</ele><time>2026-04-15T14:26:35.074Z</time></trkpt><trkpt lat="44.1459986" lon="11.1670492"><ele>663.0</ele><time>2026-04-15T14:26:36.068Z</time></trkpt><trkpt lat="44.145891" lon="11.1669518"><ele>663.0</ele><time>2026-04-15T14:26:37.061Z</time></trkpt><trkpt lat="44.1457642" lon="11.1669099"><ele>663.0</ele><time>2026-04-15T14:26:38.07Z</time></trkpt><trkpt lat="44.1456523" lon="11.166898"><ele>663.25</ele><time>2026-04-15T14:26:39.062Z</time></trkpt><trkpt lat="44.1455357" lon="11.1669042"><ele>663.5</ele><time>2026-04-15T14:26:40.049Z</time></trkpt><trkpt lat="44.1454143" lon="11.1669427"><ele>663.75</ele><time>2026-04-15T14:26:41.049Z</time></trkpt><trkpt lat="44.1452763" lon="11.1670094"><ele>664.0</ele><time>2026-04-15T14:26:42.079Z</time></trkpt><trkpt lat="44.1451233" lon="11.1670631"><ele>664.0</ele><time>2026-04-15T14:26:43.082Z</time></trkpt><trkpt lat="44.144941" lon="11.1670985"><ele>664.0</ele><time>2026-04-15T14:26:44.092Z</time></trkpt><trkpt lat="44.1447625" lon="11.1671192"><ele>664.0</ele><time>2026-04-15T14:26:45.043Z</time></trkpt><trkpt lat="44.1446057" lon="11.1670975"><ele>666.0</ele><time>2026-04-15T14:26:46.085Z</time></trkpt><trkpt lat="44.1444628" lon="11.1670669"><ele>668.0</ele><time>2026-04-15T14:26:47.059Z</time></trkpt><trkpt lat="44.1443217" lon="11.167007"><ele>670.0</ele><time>2026-04-15T14:26:48.091Z</time></trkpt><trkpt lat="44.1440523" lon="11.1668501"><ele>670.75</ele><time>2026-04-15T14:26:50.065Z</time></trkpt><trkpt lat="44.1439262" lon="11.1667435"><ele>671.5</ele><time>2026-04-15T14:26:51.043Z</time></trkpt><trkpt lat="44.143819" lon="11.1666284"><ele>672.25</ele><time>2026-04-15T14:26:52.051Z</time></trkpt><trkpt lat="44.1437323" lon="11.1665121"><ele>673.0</ele><time>2026-04-15T14:26:53.085Z</time></trkpt><trkpt lat="44.1436688" lon="11.1664068"><ele>673.0</ele><time>2026-04-15T14:26:54.054Z</time></trkpt><trkpt lat="44.1436104" lon="11.1663072"><ele>673.0</ele><time>2026-04-15T14:26:55.043Z</time></trkpt><trkpt lat="44.1435566" lon="11.1662251"><ele>673.0</ele><time>2026-04-15T14:26:56.047Z</time></trkpt><trkpt lat="44.143498" lon="11.1661566"><ele>673.0</ele><time>2026-04-15T14:26:57.048Z</time></trkpt><trkpt lat="44.1434196" lon="11.166138"><ele>673.0</ele><time>2026-04-15T14:26:58.064Z</time></trkpt><trkpt lat="44.1433565" lon="11.1661619"><ele>673.0</ele><time>2026-04-15T14:26:59.046Z</time></trkpt><trkpt lat="44.1432971" lon="11.1662252"><ele>673.0</ele><time>2026-04-15T14:27:00.1Z</time></trkpt><trkpt lat="44.1432651" lon="11.166312"><ele>673.0</ele><time>2026-04-15T14:27:01.054Z</time></trkpt><trkpt lat="44.143256" lon="11.1664452"><ele>673.0</ele><time>2026-04-15T14:27:02.042Z</time></trkpt><trkpt lat="44.1432653" lon="11.1665807"><ele>673.0</ele><time>2026-04-15T14:27:03.046Z</time></trkpt><trkpt lat="44.1433023" lon="11.166714"><ele>673.0</ele><time>2026-04-15T14:27:04.061Z</time></trkpt><trkpt lat="44.1433673" lon="11.1668405"><ele>674.5</ele><time>2026-04-15T14:27:05.064Z</time></trkpt><trkpt lat="44.1434721" lon="11.1669431"><ele>676.0</ele><time>2026-04-15T14:27:06.058Z</time></trkpt><trkpt lat="44.1436087" lon="11.1670393"><ele>677.5</ele><time>2026-04-15T14:27:07.065Z</time></trkpt><trkpt lat="44.1437593" lon="11.1671346"><ele>679.0</ele><time>2026-04-15T14:27:08.052Z</time></trkpt><trkpt lat="44.1439183" lon="11.167246"><ele>679.0</ele><time>2026-04-15T14:27:09.073Z</time></trkpt><trkpt lat="44.1440868" lon="11.1673644"><ele>679.0</ele><time>2026-04-15T14:27:10.1Z</time></trkpt><trkpt lat="44.14424" lon="11.1674652"><ele>679.0</ele><time>2026-04-15T14:27:11.073Z</time></trkpt><trkpt lat="44.1444587" lon="11.1676313"><ele>679.0</ele><time>2026-04-15T14:27:13.064Z</time></trkpt><trkpt lat="44.1445586" lon="11.1677133"><ele>679.0</ele><time>2026-04-15T14:27:14.043Z</time></trkpt><trkpt lat="44.1446378" lon="11.1679121"><ele>679.0</ele><time>2026-04-15T14:27:16.049Z</time></trkpt><trkpt lat="44.1446389" lon="11.1680182"><ele>679.0</ele><time>2026-04-15T14:27:17.051Z</time></trkpt><trkpt lat="44.1446215" lon="11.1681078"><ele>679.0</ele><time>2026-04-15T14:27:18.041Z</time></trkpt><trkpt lat="44.1444963" lon="11.1681672"><ele>679.0</ele><time>2026-04-15T14:27:20.063Z</time></trkpt><trkpt lat="44.1443982" lon="11.1681568"><ele>679.0</ele><time>2026-04-15T14:27:21.051Z</time></trkpt><trkpt lat="44.1442623" lon="11.1681196"><ele>679.0</ele><time>2026-04-15T14:27:22.041Z</time></trkpt><trkpt lat="44.1441053" lon="11.1680625"><ele>679.0</ele><time>2026-04-15T14:27:23.065Z</time></trkpt><trkpt lat="44.1439343" lon="11.1680107"><ele>683.6666666666667</ele><time>2026-04-15T14:27:24.043Z</time></trkpt><trkpt lat="44.1437468" lon="11.1679533"><ele>688.3333333333334</ele><time>2026-04-15T14:27:25.075Z</time></trkpt><trkpt lat="44.1435617" lon="11.1678648"><ele>693.0</ele><time>2026-04-15T14:27:26.078Z</time></trkpt><trkpt lat="44.1433712" lon="11.1677187"><ele>692.3333333333334</ele><time>2026-04-15T14:27:27.047Z</time></trkpt><trkpt lat="44.1431797" lon="11.1675872"><ele>691.6666666666667</ele><time>2026-04-15T14:27:28.068Z</time></trkpt><trkpt lat="44.1429864" lon="11.167457"><ele>691.0</ele><time>2026-04-15T14:27:29.065Z</time></trkpt><trkpt lat="44.142795" lon="11.167338"><ele>691.0</ele><time>2026-04-15T14:27:30.072Z</time></trkpt><trkpt lat="44.142606" lon="11.1672278"><ele>691.0</ele><time>2026-04-15T14:27:31.062Z</time></trkpt><trkpt lat="44.1424135" lon="11.167134"><ele>691.0</ele><time>2026-04-15T14:27:32.074Z</time></trkpt><trkpt lat="44.1422115" lon="11.1670551"><ele>694.6666666666667</ele><time>2026-04-15T14:27:33.067Z</time></trkpt><trkpt lat="44.1419961" lon="11.1669966"><ele>698.3333333333334</ele><time>2026-04-15T14:27:34.033Z</time></trkpt><trkpt lat="44.1417831" lon="11.1669575"><ele>702.0</ele><time>2026-04-15T14:27:35.058Z</time></trkpt><trkpt lat="44.1415789" lon="11.1669226"><ele>712.0</ele><time>2026-04-15T14:27:36.039Z</time></trkpt><trkpt lat="44.1410013" lon="11.1667547"><ele>712.0</ele><time>2026-04-15T14:27:40.055Z</time></trkpt><trkpt lat="44.1409057" lon="11.1667059"><ele>712.0</ele><time>2026-04-15T14:27:41.037Z</time></trkpt><trkpt lat="44.1408236" lon="11.1666569"><ele>712.0</ele><time>2026-04-15T14:27:42.048Z</time></trkpt><trkpt lat="44.1407451" lon="11.1666541"><ele>712.0</ele><time>2026-04-15T14:27:43.053Z</time></trkpt><trkpt lat="44.1406844" lon="11.1666907"><ele>712.0</ele><time>2026-04-15T14:27:44.05Z</time></trkpt><trkpt lat="44.140648" lon="11.166766"><ele>712.0</ele><time>2026-04-15T14:27:45.038Z</time></trkpt><trkpt lat="44.140637" lon="11.1668579"><ele>712.0</ele><time>2026-04-15T14:27:46.056Z</time></trkpt><trkpt lat="44.1406607" lon="11.1669702"><ele>712.0</ele><time>2026-04-15T14:27:47.044Z</time></trkpt><trkpt lat="44.1407131" lon="11.1671125"><ele>712.0</ele><time>2026-04-15T14:27:48.035Z</time></trkpt><trkpt lat="44.1407903" lon="11.1672815"><ele>712.0</ele><time>2026-04-15T14:27:49.055Z</time></trkpt><trkpt lat="44.140891" lon="11.1674443"><ele>714.6666666666667</ele><time>2026-04-15T14:27:50.046Z</time></trkpt><trkpt lat="44.1411361" lon="11.1676491"><ele>717.3333333333334</ele><time>2026-04-15T14:27:52.078Z</time></trkpt><trkpt lat="44.1412576" lon="11.1676999"><ele>720.0</ele><time>2026-04-15T14:27:53.034Z</time></trkpt><trkpt lat="44.1413675" lon="11.1677423"><ele>720.0</ele><time>2026-04-15T14:27:54.065Z</time></trkpt><trkpt lat="44.1414492" lon="11.1678154"><ele>720.0</ele><time>2026-04-15T14:27:55.071Z</time></trkpt><trkpt lat="44.1415295" lon="11.1679544"><ele>720.0</ele><time>2026-04-15T14:27:56.064Z</time></trkpt><trkpt lat="44.1416023" lon="11.1681142"><ele>720.0</ele><time>2026-04-15T14:27:57.058Z</time></trkpt><trkpt lat="44.1416876" lon="11.1683023"><ele>721.3333333333334</ele><time>2026-04-15T14:27:58.055Z</time></trkpt><trkpt lat="44.1417908" lon="11.1685156"><ele>722.6666666666667</ele><time>2026-04-15T14:27:59.077Z</time></trkpt><trkpt lat="44.1418949" lon="11.168736"><ele>724.0</ele><time>2026-04-15T14:28:00.096Z</time></trkpt><trkpt lat="44.1419923" lon="11.1689378"><ele>726.6666666666667</ele><time>2026-04-15T14:28:01.052Z</time></trkpt><trkpt lat="44.1421191" lon="11.1692862"><ele>729.3333333333334</ele><time>2026-04-15T14:28:03.07Z</time></trkpt><trkpt lat="44.1421692" lon="11.1694678"><ele>732.0</ele><time>2026-04-15T14:28:04.046Z</time></trkpt><trkpt lat="44.1421868" lon="11.1696365"><ele>734.0</ele><time>2026-04-15T14:28:05.042Z</time></trkpt><trkpt lat="44.1422007" lon="11.1700129"><ele>736.0</ele><time>2026-04-15T14:28:07.054Z</time></trkpt><trkpt lat="44.1422137" lon="11.1701976"><ele>738.0</ele><time>2026-04-15T14:28:08.056Z</time></trkpt><trkpt lat="44.1422111" lon="11.1703301"><ele>738.0</ele><time>2026-04-15T14:28:09.067Z</time></trkpt><trkpt lat="44.1421618" lon="11.1704339"><ele>738.0</ele><time>2026-04-15T14:28:10.048Z</time></trkpt><trkpt lat="44.1420753" lon="11.1705017"><ele>738.0</ele><time>2026-04-15T14:28:11.058Z</time></trkpt><trkpt lat="44.1419769" lon="11.1705407"><ele>738.0</ele><time>2026-04-15T14:28:12.05Z</time></trkpt><trkpt lat="44.1418513" lon="11.1705734"><ele>738.0</ele><time>2026-04-15T14:28:13.068Z</time></trkpt><trkpt lat="44.1417233" lon="11.1706414"><ele>739.3333333333334</ele><time>2026-04-15T14:28:14.044Z</time></trkpt><trkpt lat="44.1415838" lon="11.1707476"><ele>740.6666666666667</ele><time>2026-04-15T14:28:15.059Z</time></trkpt><trkpt lat="44.1414524" lon="11.1709069"><ele>742.0</ele><time>2026-04-15T14:28:16.051Z</time></trkpt><trkpt lat="44.1413148" lon="11.1710551"><ele>742.0</ele><time>2026-04-15T14:28:17.027Z</time></trkpt><trkpt lat="44.141154" lon="11.1711853"><ele>742.0</ele><time>2026-04-15T14:28:18.063Z</time></trkpt><trkpt lat="44.1409768" lon="11.1712995"><ele>742.0</ele><time>2026-04-15T14:28:19.044Z</time></trkpt><trkpt lat="44.1408021" lon="11.1713903"><ele>741.6666666666667</ele><time>2026-04-15T14:28:20.058Z</time></trkpt><trkpt lat="44.1406373" lon="11.1714786"><ele>741.3333333333334</ele><time>2026-04-15T14:28:21.062Z</time></trkpt><trkpt lat="44.1404941" lon="11.1716026"><ele>741.0</ele><time>2026-04-15T14:28:22.077Z</time></trkpt><trkpt lat="44.1403758" lon="11.1717493"><ele>741.0</ele><time>2026-04-15T14:28:23.065Z</time></trkpt><trkpt lat="44.14029" lon="11.1719304"><ele>741.0</ele><time>2026-04-15T14:28:24.058Z</time></trkpt><trkpt lat="44.1402188" lon="11.1721147"><ele>741.0</ele><time>2026-04-15T14:28:25.083Z</time></trkpt><trkpt lat="44.1401178" lon="11.1722853"><ele>738.0</ele><time>2026-04-15T14:28:26.034Z</time></trkpt><trkpt lat="44.1399948" lon="11.1724513"><ele>735.0</ele><time>2026-04-15T14:28:27.069Z</time></trkpt><trkpt lat="44.1398579" lon="11.1725907"><ele>732.0</ele><time>2026-04-15T14:28:28.048Z</time></trkpt><trkpt lat="44.1397229" lon="11.1727013"><ele>732.0</ele><time>2026-04-15T14:28:29.031Z</time></trkpt><trkpt lat="44.1395979" lon="11.1727767"><ele>732.0</ele><time>2026-04-15T14:28:30.039Z</time></trkpt><trkpt lat="44.1394911" lon="11.1728101"><ele>732.0</ele><time>2026-04-15T14:28:31.066Z</time></trkpt><trkpt lat="44.1393905" lon="11.1727955"><ele>732.0</ele><time>2026-04-15T14:28:32.052Z</time></trkpt><trkpt lat="44.139294" lon="11.1727295"><ele>732.0</ele><time>2026-04-15T14:28:33.07Z</time></trkpt><trkpt lat="44.1391894" lon="11.1726061"><ele>732.0</ele><time>2026-04-15T14:28:34.038Z</time></trkpt><trkpt lat="44.1390783" lon="11.1724516"><ele>732.0</ele><time>2026-04-15T14:28:35.043Z</time></trkpt><trkpt lat="44.1389663" lon="11.172271"><ele>733.6666666666666</ele><time>2026-04-15T14:28:36.07Z</time></trkpt><trkpt lat="44.1388593" lon="11.1720763"><ele>735.3333333333333</ele><time>2026-04-15T14:28:37.036Z</time></trkpt><trkpt lat="44.1387576" lon="11.1718787"><ele>737.0</ele><time>2026-04-15T14:28:38.054Z</time></trkpt><trkpt lat="44.1386518" lon="11.1716994"><ele>737.0</ele><time>2026-04-15T14:28:39.038Z</time></trkpt><trkpt lat="44.1385255" lon="11.1715689"><ele>737.0</ele><time>2026-04-15T14:28:40.069Z</time></trkpt><trkpt lat="44.1383816" lon="11.1714736"><ele>737.0</ele><time>2026-04-15T14:28:41.063Z</time></trkpt><trkpt lat="44.1382338" lon="11.1714162"><ele>738.75</ele><time>2026-04-15T14:28:42.075Z</time></trkpt><trkpt lat="44.1381071" lon="11.1713808"><ele>740.5</ele><time>2026-04-15T14:28:43.047Z</time></trkpt><trkpt lat="44.1380179" lon="11.171326"><ele>742.25</ele><time>2026-04-15T14:28:44.058Z</time></trkpt><trkpt lat="44.1379323" lon="11.1712306"><ele>744.0</ele><time>2026-04-15T14:28:45.042Z</time></trkpt><trkpt lat="44.1378617" lon="11.171097"><ele>744.0</ele><time>2026-04-15T14:28:46.065Z</time></trkpt><trkpt lat="44.1378063" lon="11.1709371"><ele>744.0</ele><time>2026-04-15T14:28:47.05Z</time></trkpt><trkpt lat="44.1377229" lon="11.1707986"><ele>744.0</ele><time>2026-04-15T14:28:48.029Z</time></trkpt><trkpt lat="44.1376053" lon="11.1706905"><ele>744.0</ele><time>2026-04-15T14:28:49.059Z</time></trkpt><trkpt lat="44.1374738" lon="11.170621"><ele>749.0</ele><time>2026-04-15T14:28:50.029Z</time></trkpt><trkpt lat="44.1373378" lon="11.1705893"><ele>754.0</ele><time>2026-04-15T14:28:51.048Z</time></trkpt><trkpt lat="44.1371714" lon="11.17058"><ele>759.0</ele><time>2026-04-15T14:28:52.08Z</time></trkpt><trkpt lat="44.1370127" lon="11.1705786"><ele>759.0</ele><time>2026-04-15T14:28:53.043Z</time></trkpt><trkpt lat="44.1368686" lon="11.1705665"><ele>759.0</ele><time>2026-04-15T14:28:54.057Z</time></trkpt><trkpt lat="44.1367322" lon="11.1705156"><ele>759.0</ele><time>2026-04-15T14:28:55.035Z</time></trkpt><trkpt lat="44.1365895" lon="11.1704101"><ele>759.0</ele><time>2026-04-15T14:28:56.071Z</time></trkpt><trkpt lat="44.1364577" lon="11.1702855"><ele>760.0</ele><time>2026-04-15T14:28:57.064Z</time></trkpt><trkpt lat="44.1363194" lon="11.1701677"><ele>761.0</ele><time>2026-04-15T14:28:58.048Z</time></trkpt><trkpt lat="44.1361697" lon="11.1700907"><ele>762.0</ele><time>2026-04-15T14:28:59.04Z</time></trkpt><trkpt lat="44.1360082" lon="11.1700496"><ele>762.0</ele><time>2026-04-15T14:29:00.032Z</time></trkpt><trkpt lat="44.1358539" lon="11.1700319"><ele>762.0</ele><time>2026-04-15T14:29:01.036Z</time></trkpt><trkpt lat="44.1357021" lon="11.1700416"><ele>762.0</ele><time>2026-04-15T14:29:02.074Z</time></trkpt><trkpt lat="44.1355554" lon="11.170094"><ele>771.3333333333333</ele><time>2026-04-15T14:29:03.03Z</time></trkpt><trkpt lat="44.1354143" lon="11.1701982"><ele>780.6666666666666</ele><time>2026-04-15T14:29:04.058Z</time></trkpt><trkpt lat="44.1352706" lon="11.1703347"><ele>790.0</ele><time>2026-04-15T14:29:05.047Z</time></trkpt><trkpt lat="44.1351345" lon="11.170469"><ele>790.0</ele><time>2026-04-15T14:29:06.062Z</time></trkpt><trkpt lat="44.1350128" lon="11.1705924"><ele>790.0</ele><time>2026-04-15T14:29:07.054Z</time></trkpt><trkpt lat="44.1349044" lon="11.1706771"><ele>790.0</ele><time>2026-04-15T14:29:08.067Z</time></trkpt><trkpt lat="44.1347995" lon="11.1707149"><ele>790.0</ele><time>2026-04-15T14:29:09.042Z</time></trkpt><trkpt lat="44.134689" lon="11.1706973"><ele>790.25</ele><time>2026-04-15T14:29:10.044Z</time></trkpt><trkpt lat="44.1345774" lon="11.1706319"><ele>790.5</ele><time>2026-04-15T14:29:11.03Z</time></trkpt><trkpt lat="44.1344746" lon="11.1705328"><ele>790.75</ele><time>2026-04-15T14:29:12.052Z</time></trkpt><trkpt lat="44.1343665" lon="11.1704135"><ele>791.0</ele><time>2026-04-15T14:29:13.059Z</time></trkpt><trkpt lat="44.1342487" lon="11.1702853"><ele>791.0</ele><time>2026-04-15T14:29:14.068Z</time></trkpt><trkpt lat="44.1341329" lon="11.1701855"><ele>791.0</ele><time>2026-04-15T14:29:15.058Z</time></trkpt><trkpt lat="44.1340132" lon="11.170104"><ele>791.0</ele><time>2026-04-15T14:29:16.066Z</time></trkpt><trkpt lat="44.1338875" lon="11.170077"><ele>791.0</ele><time>2026-04-15T14:29:17.042Z</time></trkpt><trkpt lat="44.1337582" lon="11.170123"><ele>790.5</ele><time>2026-04-15T14:29:18.044Z</time></trkpt><trkpt lat="44.1336309" lon="11.1702122"><ele>790.0</ele><time>2026-04-15T14:29:19.044Z</time></trkpt><trkpt lat="44.1335024" lon="11.1703189"><ele>789.5</ele><time>2026-04-15T14:29:20.071Z</time></trkpt><trkpt lat="44.1333856" lon="11.1703607"><ele>789.0</ele><time>2026-04-15T14:29:21.053Z</time></trkpt><trkpt lat="44.1332803" lon="11.1703376"><ele>787.75</ele><time>2026-04-15T14:29:22.053Z</time></trkpt><trkpt lat="44.1331758" lon="11.1702666"><ele>786.5</ele><time>2026-04-15T14:29:23.031Z</time></trkpt><trkpt lat="44.1330746" lon="11.1701644"><ele>785.25</ele><time>2026-04-15T14:29:24.059Z</time></trkpt><trkpt lat="44.1329731" lon="11.1700696"><ele>784.0</ele><time>2026-04-15T14:29:25.028Z</time></trkpt><trkpt lat="44.1328776" lon="11.1699999"><ele>784.0</ele><time>2026-04-15T14:29:26.039Z</time></trkpt><trkpt lat="44.1327831" lon="11.1699855"><ele>784.0</ele><time>2026-04-15T14:29:27.046Z</time></trkpt><trkpt lat="44.1326808" lon="11.170029"><ele>784.0</ele><time>2026-04-15T14:29:28.058Z</time></trkpt><trkpt lat="44.1325775" lon="11.1701164"><ele>784.0</ele><time>2026-04-15T14:29:29.052Z</time></trkpt><trkpt lat="44.1324694" lon="11.1702009"><ele>784.0</ele><time>2026-04-15T14:29:30.055Z</time></trkpt><trkpt lat="44.1323587" lon="11.1702474"><ele>784.5</ele><time>2026-04-15T14:29:31.026Z</time></trkpt><trkpt lat="44.1322464" lon="11.1702246"><ele>785.0</ele><time>2026-04-15T14:29:32.064Z</time></trkpt><trkpt lat="44.1321299" lon="11.1701702"><ele>785.5</ele><time>2026-04-15T14:29:33.041Z</time></trkpt><trkpt lat="44.1320117" lon="11.1701094"><ele>786.0</ele><time>2026-04-15T14:29:34.065Z</time></trkpt><trkpt lat="44.1318766" lon="11.1700595"><ele>786.0</ele><time>2026-04-15T14:29:35.028Z</time></trkpt><trkpt lat="44.1317201" lon="11.1700465"><ele>786.0</ele><time>2026-04-15T14:29:36.062Z</time></trkpt><trkpt lat="44.1315533" lon="11.1700692"><ele>786.0</ele><time>2026-04-15T14:29:37.046Z</time></trkpt><trkpt lat="44.1313923" lon="11.1701309"><ele>791.5</ele><time>2026-04-15T14:29:38.039Z</time></trkpt><trkpt lat="44.1312214" lon="11.1702327"><ele>797.0</ele><time>2026-04-15T14:29:39.039Z</time></trkpt><trkpt lat="44.1308935" lon="11.1704672"><ele>796.3333333333334</ele><time>2026-04-15T14:29:41.065Z</time></trkpt><trkpt lat="44.1306249" lon="11.1706767"><ele>795.6666666666667</ele><time>2026-04-15T14:29:43.049Z</time></trkpt><trkpt lat="44.1305127" lon="11.1707686"><ele>795.0</ele><time>2026-04-15T14:29:44.067Z</time></trkpt><trkpt lat="44.130418" lon="11.1708614"><ele>795.0</ele><time>2026-04-15T14:29:45.031Z</time></trkpt><trkpt lat="44.1303337" lon="11.1709401"><ele>795.0</ele><time>2026-04-15T14:29:46.044Z</time></trkpt><trkpt lat="44.1302638" lon="11.1710027"><ele>795.0</ele><time>2026-04-15T14:29:47.027Z</time></trkpt><trkpt lat="44.1302069" lon="11.1710635"><ele>795.0</ele><time>2026-04-15T14:29:48.047Z</time></trkpt><trkpt lat="44.1301576" lon="11.1711182"><ele>795.0</ele><time>2026-04-15T14:29:49.059Z</time></trkpt><trkpt lat="44.1301263" lon="11.1711958"><ele>795.0</ele><time>2026-04-15T14:29:53.037Z</time></trkpt><trkpt lat="44.1300993" lon="11.1713732"><ele>795.0</ele><time>2026-04-15T14:31:04.048Z</time></trkpt><trkpt lat="44.1300569" lon="11.1714839"><ele>795.0</ele><time>2026-04-15T14:31:05.046Z</time></trkpt><trkpt lat="44.1299836" lon="11.1718045"><ele>795.0</ele><time>2026-04-15T14:31:07.045Z</time></trkpt><trkpt lat="44.1299217" lon="11.1723096"><ele>790.5</ele><time>2026-04-15T14:31:10.045Z</time></trkpt><trkpt lat="44.1299623" lon="11.1726293"><ele>786.0</ele><time>2026-04-15T14:31:12.06Z</time></trkpt><trkpt lat="44.1299684" lon="11.1727832"><ele>781.5</ele><time>2026-04-15T14:31:13.039Z</time></trkpt><trkpt lat="44.1299613" lon="11.1729134"><ele>777.0</ele><time>2026-04-15T14:31:14.064Z</time></trkpt><trkpt lat="44.1299298" lon="11.1730519"><ele>776.25</ele><time>2026-04-15T14:31:15.021Z</time></trkpt><trkpt lat="44.1298738" lon="11.1732081"><ele>775.5</ele><time>2026-04-15T14:31:16.047Z</time></trkpt><trkpt lat="44.1298069" lon="11.1733546"><ele>774.75</ele><time>2026-04-15T14:31:17.035Z</time></trkpt><trkpt lat="44.1297496" lon="11.1735047"><ele>774.0</ele><time>2026-04-15T14:31:18.068Z</time></trkpt><trkpt lat="44.1296406" lon="11.1737269"><ele>774.0</ele><time>2026-04-15T14:31:20.049Z</time></trkpt><trkpt lat="44.1295697" lon="11.1737728"><ele>774.0</ele><time>2026-04-15T14:31:21.05Z</time></trkpt><trkpt lat="44.1294806" lon="11.1737761"><ele>774.0</ele><time>2026-04-15T14:31:22.057Z</time></trkpt><trkpt lat="44.1293943" lon="11.1736973"><ele>774.0</ele><time>2026-04-15T14:31:23.047Z</time></trkpt><trkpt lat="44.1293363" lon="11.1735719"><ele>774.0</ele><time>2026-04-15T14:31:24.05Z</time></trkpt><trkpt lat="44.1292882" lon="11.1734243"><ele>774.0</ele><time>2026-04-15T14:31:25.045Z</time></trkpt><trkpt lat="44.12923" lon="11.1732739"><ele>774.0</ele><time>2026-04-15T14:31:26.054Z</time></trkpt><trkpt lat="44.1291655" lon="11.1731167"><ele>774.0</ele><time>2026-04-15T14:31:27.046Z</time></trkpt><trkpt lat="44.1290728" lon="11.1729759"><ele>774.0</ele><time>2026-04-15T14:31:28.05Z</time></trkpt><trkpt lat="44.1289379" lon="11.1728979"><ele>777.0</ele><time>2026-04-15T14:31:29.04Z</time></trkpt><trkpt lat="44.1287849" lon="11.1728727"><ele>780.0</ele><time>2026-04-15T14:31:30.029Z</time></trkpt><trkpt lat="44.1286202" lon="11.1728428"><ele>783.0</ele><time>2026-04-15T14:31:31.047Z</time></trkpt><trkpt lat="44.1284539" lon="11.1728048"><ele>783.0</ele><time>2026-04-15T14:31:32.043Z</time></trkpt><trkpt lat="44.1282964" lon="11.1727512"><ele>783.0</ele><time>2026-04-15T14:31:33.049Z</time></trkpt><trkpt lat="44.1281417" lon="11.1726928"><ele>783.0</ele><time>2026-04-15T14:31:34.055Z</time></trkpt><trkpt lat="44.127996" lon="11.1726043"><ele>785.25</ele><time>2026-04-15T14:31:35.065Z</time></trkpt><trkpt lat="44.1278757" lon="11.1724931"><ele>787.5</ele><time>2026-04-15T14:31:36.046Z</time></trkpt><trkpt lat="44.1277795" lon="11.1723456"><ele>789.75</ele><time>2026-04-15T14:31:37.036Z</time></trkpt><trkpt lat="44.1276829" lon="11.1721767"><ele>792.0</ele><time>2026-04-15T14:31:38.059Z</time></trkpt><trkpt lat="44.1275859" lon="11.1720147"><ele>792.0</ele><time>2026-04-15T14:31:39.046Z</time></trkpt><trkpt lat="44.1274807" lon="11.1718728"><ele>792.0</ele><time>2026-04-15T14:31:40.059Z</time></trkpt><trkpt lat="44.1272217" lon="11.1717408"><ele>792.0</ele><time>2026-04-15T14:31:42.032Z</time></trkpt><trkpt lat="44.1270821" lon="11.1717129"><ele>785.6666666666667</ele><time>2026-04-15T14:31:43.037Z</time></trkpt><trkpt lat="44.1269398" lon="11.1717431"><ele>779.3333333333334</ele><time>2026-04-15T14:31:44.041Z</time></trkpt><trkpt lat="44.1267805" lon="11.1717858"><ele>773.0</ele><time>2026-04-15T14:31:45.042Z</time></trkpt><trkpt lat="44.126606" lon="11.1718287"><ele>778.0</ele><time>2026-04-15T14:31:46.047Z</time></trkpt><trkpt lat="44.1260631" lon="11.1719781"><ele>778.0</ele><time>2026-04-15T14:31:49.047Z</time></trkpt><trkpt lat="44.1257434" lon="11.1720566"><ele>778.0</ele><time>2026-04-15T14:31:51.047Z</time></trkpt><trkpt lat="44.125588" lon="11.1720791"><ele>776.5</ele><time>2026-04-15T14:31:52.047Z</time></trkpt><trkpt lat="44.1252519" lon="11.1720149"><ele>775.0</ele><time>2026-04-15T14:31:54.068Z</time></trkpt><trkpt lat="44.1248864" lon="11.1718596"><ele>778.6666666666666</ele><time>2026-04-15T14:31:56.05Z</time></trkpt><trkpt lat="44.1247216" lon="11.1717481"><ele>782.3333333333333</ele><time>2026-04-15T14:31:57.041Z</time></trkpt><trkpt lat="44.1245413" lon="11.171624"><ele>786.0</ele><time>2026-04-15T14:31:58.047Z</time></trkpt><trkpt lat="44.1243781" lon="11.1715044"><ele>786.0</ele><time>2026-04-15T14:31:59.055Z</time></trkpt><trkpt lat="44.1242142" lon="11.1713938"><ele>786.0</ele><time>2026-04-15T14:32:00.07Z</time></trkpt><trkpt lat="44.12405" lon="11.1713083"><ele>786.0</ele><time>2026-04-15T14:32:01.014Z</time></trkpt><trkpt lat="44.1233546" lon="11.1712013"><ele>771.5</ele><time>2026-04-15T14:32:05.039Z</time></trkpt><trkpt lat="44.1230224" lon="11.1710939"><ele>757.0</ele><time>2026-04-15T14:32:07.046Z</time></trkpt><trkpt lat="44.1228533" lon="11.1710594"><ele>757.0</ele><time>2026-04-15T14:32:08.046Z</time></trkpt><trkpt lat="44.1224181" lon="11.1710122"><ele>757.0</ele><time>2026-04-15T14:32:11.017Z</time></trkpt><trkpt lat="44.1222878" lon="11.1709532"><ele>753.5</ele><time>2026-04-15T14:32:12.044Z</time></trkpt><trkpt lat="44.1221574" lon="11.1708341"><ele>750.0</ele><time>2026-04-15T14:32:13.045Z</time></trkpt><trkpt lat="44.1220427" lon="11.1706856"><ele>746.5</ele><time>2026-04-15T14:32:14.062Z</time></trkpt><trkpt lat="44.1219441" lon="11.1705674"><ele>743.0</ele><time>2026-04-15T14:32:15.042Z</time></trkpt><trkpt lat="44.1218838" lon="11.1704632"><ele>743.0</ele><time>2026-04-15T14:32:16.051Z</time></trkpt><trkpt lat="44.1218444" lon="11.1703324"><ele>743.0</ele><time>2026-04-15T14:32:17.049Z</time></trkpt><trkpt lat="44.1218389" lon="11.1701439"><ele>743.0</ele><time>2026-04-15T14:32:18.031Z</time></trkpt><trkpt lat="44.1218393" lon="11.1699637"><ele>743.0</ele><time>2026-04-15T14:32:19.042Z</time></trkpt><trkpt lat="44.121823" lon="11.1697778"><ele>749.0</ele><time>2026-04-15T14:32:20.041Z</time></trkpt><trkpt lat="44.1215818" lon="11.1689713"><ele>742.6666666666666</ele><time>2026-04-15T14:32:24.038Z</time></trkpt><trkpt lat="44.121514" lon="11.1687687"><ele>736.3333333333334</ele><time>2026-04-15T14:32:25.045Z</time></trkpt><trkpt lat="44.1214785" lon="11.1685514"><ele>730.0</ele><time>2026-04-15T14:32:26.057Z</time></trkpt><trkpt lat="44.1214803" lon="11.1681366"><ele>730.0</ele><time>2026-04-15T14:32:28.043Z</time></trkpt><trkpt lat="44.1214901" lon="11.1679365"><ele>730.0</ele><time>2026-04-15T14:32:29.03Z</time></trkpt><trkpt lat="44.1214752" lon="11.1677612"><ele>730.0</ele><time>2026-04-15T14:32:30.039Z</time></trkpt><trkpt lat="44.1214239" lon="11.1676082"><ele>730.0</ele><time>2026-04-15T14:32:31.056Z</time></trkpt><trkpt lat="44.1213363" lon="11.1674718"><ele>731.5</ele><time>2026-04-15T14:32:32.082Z</time></trkpt><trkpt lat="44.1212359" lon="11.1673366"><ele>733.0</ele><time>2026-04-15T14:32:33.039Z</time></trkpt><trkpt lat="44.1211373" lon="11.1672061"><ele>734.5</ele><time>2026-04-15T14:32:34.045Z</time></trkpt><trkpt lat="44.1210715" lon="11.1670688"><ele>736.0</ele><time>2026-04-15T14:32:35.027Z</time></trkpt><trkpt lat="44.1210559" lon="11.1669208"><ele>736.0</ele><time>2026-04-15T14:32:36.017Z</time></trkpt><trkpt lat="44.1210496" lon="11.1667466"><ele>736.0</ele><time>2026-04-15T14:32:37.046Z</time></trkpt><trkpt lat="44.1210499" lon="11.1665564"><ele>736.0</ele><time>2026-04-15T14:32:38.058Z</time></trkpt><trkpt lat="44.1210443" lon="11.1663327"><ele>736.0</ele><time>2026-04-15T14:32:39.027Z</time></trkpt><trkpt lat="44.1210216" lon="11.1661023"><ele>737.6666666666667</ele><time>2026-04-15T14:32:40.04Z</time></trkpt><trkpt lat="44.120993" lon="11.1658654"><ele>739.3333333333334</ele><time>2026-04-15T14:32:41.042Z</time></trkpt><trkpt lat="44.1209838" lon="11.1656201"><ele>741.0</ele><time>2026-04-15T14:32:42.046Z</time></trkpt><trkpt lat="44.1209822" lon="11.1653852"><ele>742.75</ele><time>2026-04-15T14:32:43.038Z</time></trkpt><trkpt lat="44.1209936" lon="11.1651849"><ele>744.5</ele><time>2026-04-15T14:32:44.024Z</time></trkpt><trkpt lat="44.1210002" lon="11.1650247"><ele>746.25</ele><time>2026-04-15T14:32:45.034Z</time></trkpt><trkpt lat="44.1209961" lon="11.1648784"><ele>748.0</ele><time>2026-04-15T14:32:46.034Z</time></trkpt><trkpt lat="44.1209602" lon="11.164755"><ele>752.3333333333334</ele><time>2026-04-15T14:32:47.025Z</time></trkpt><trkpt lat="44.1208881" lon="11.1646501"><ele>756.6666666666667</ele><time>2026-04-15T14:32:48.027Z</time></trkpt><trkpt lat="44.1208143" lon="11.1645904"><ele>761.0</ele><time>2026-04-15T14:32:49.045Z</time></trkpt><trkpt lat="44.120745" lon="11.1645655"><ele>765.3333333333334</ele><time>2026-04-15T14:32:50.02Z</time></trkpt><trkpt lat="44.1206733" lon="11.1645872"><ele>769.6666666666666</ele><time>2026-04-15T14:32:51.035Z</time></trkpt><trkpt lat="44.1206045" lon="11.1646723"><ele>774.0</ele><time>2026-04-15T14:32:52.029Z</time></trkpt><trkpt lat="44.1205497" lon="11.1648449"><ele>777.3333333333333</ele><time>2026-04-15T14:32:53.138Z</time></trkpt><trkpt lat="44.1205084" lon="11.1650874"><ele>780.6666666666666</ele><time>2026-04-15T14:32:54.039Z</time></trkpt><trkpt lat="44.120459" lon="11.1653417"><ele>784.0</ele><time>2026-04-15T14:32:55.021Z</time></trkpt><trkpt lat="44.1200753" lon="11.1665236"><ele>774.75</ele><time>2026-04-15T14:33:01.042Z</time></trkpt><trkpt lat="44.1199802" lon="11.1666071"><ele>765.5</ele><time>2026-04-15T14:33:02.034Z</time></trkpt><trkpt lat="44.119857" lon="11.1666405"><ele>756.25</ele><time>2026-04-15T14:33:03.038Z</time></trkpt><trkpt lat="44.1197034" lon="11.1666686"><ele>747.0</ele><time>2026-04-15T14:33:04.039Z</time></trkpt><trkpt lat="44.1195615" lon="11.166667"><ele>747.0</ele><time>2026-04-15T14:33:05.034Z</time></trkpt><trkpt lat="44.1194361" lon="11.1666343"><ele>747.0</ele><time>2026-04-15T14:33:06.049Z</time></trkpt><trkpt lat="44.1193215" lon="11.1665979"><ele>747.0</ele><time>2026-04-15T14:33:07.023Z</time></trkpt><trkpt lat="44.1192215" lon="11.1666007"><ele>747.0</ele><time>2026-04-15T14:33:08.038Z</time></trkpt><trkpt lat="44.1191263" lon="11.1666637"><ele>751.0</ele><time>2026-04-15T14:33:09.026Z</time></trkpt><trkpt lat="44.1190351" lon="11.1667712"><ele>755.0</ele><time>2026-04-15T14:33:10.045Z</time></trkpt><trkpt lat="44.1189319" lon="11.1668993"><ele>759.0</ele><time>2026-04-15T14:33:11.034Z</time></trkpt><trkpt lat="44.1188003" lon="11.1670202"><ele>763.0</ele><time>2026-04-15T14:33:12.038Z</time></trkpt><trkpt lat="44.1186479" lon="11.1671204"><ele>763.0</ele><time>2026-04-15T14:33:13.042Z</time></trkpt><trkpt lat="44.1184757" lon="11.1671859"><ele>763.0</ele><time>2026-04-15T14:33:14.058Z</time></trkpt><trkpt lat="44.1183137" lon="11.1672354"><ele>763.0</ele><time>2026-04-15T14:33:15.042Z</time></trkpt><trkpt lat="44.118171" lon="11.1672737"><ele>762.75</ele><time>2026-04-15T14:33:16.053Z</time></trkpt><trkpt lat="44.1180411" lon="11.1672895"><ele>762.5</ele><time>2026-04-15T14:33:17.051Z</time></trkpt><trkpt lat="44.1179067" lon="11.1672632"><ele>762.25</ele><time>2026-04-15T14:33:18.031Z</time></trkpt><trkpt lat="44.11776" lon="11.1672054"><ele>762.0</ele><time>2026-04-15T14:33:19.03Z</time></trkpt><trkpt lat="44.117621" lon="11.1671319"><ele>762.0</ele><time>2026-04-15T14:33:20.004Z</time></trkpt><trkpt lat="44.1175162" lon="11.1670755"><ele>762.0</ele><time>2026-04-15T14:33:21.026Z</time></trkpt><trkpt lat="44.1174436" lon="11.1670409"><ele>762.0</ele><time>2026-04-15T14:33:22.039Z</time></trkpt><trkpt lat="44.1173725" lon="11.1670094"><ele>762.0</ele><time>2026-04-15T14:33:24.035Z</time></trkpt><trkpt lat="44.1173024" lon="11.1669888"><ele>762.0</ele><time>2026-04-15T14:33:53.034Z</time></trkpt><trkpt lat="44.1172361" lon="11.1669659"><ele>762.0</ele><time>2026-04-15T14:33:54.04Z</time></trkpt><trkpt lat="44.1171476" lon="11.1669685"><ele>757.0</ele><time>2026-04-15T14:33:55.026Z</time></trkpt><trkpt lat="44.1170515" lon="11.1669883"><ele>752.0</ele><time>2026-04-15T14:33:56.043Z</time></trkpt><trkpt lat="44.116956" lon="11.1669776"><ele>747.0</ele><time>2026-04-15T14:33:57.031Z</time></trkpt><trkpt lat="44.1168609" lon="11.1669343"><ele>742.0</ele><time>2026-04-15T14:33:58.042Z</time></trkpt><trkpt lat="44.1167754" lon="11.1668648"><ele>737.0</ele><time>2026-04-15T14:33:59.015Z</time></trkpt><trkpt lat="44.1166909" lon="11.1667703"><ele>737.0</ele><time>2026-04-15T14:34:00.044Z</time></trkpt><trkpt lat="44.1166116" lon="11.1666553"><ele>737.0</ele><time>2026-04-15T14:34:01.015Z</time></trkpt><trkpt lat="44.1165317" lon="11.1665338"><ele>737.0</ele><time>2026-04-15T14:34:02.03Z</time></trkpt><trkpt lat="44.1164457" lon="11.1664048"><ele>737.0</ele><time>2026-04-15T14:34:03.035Z</time></trkpt><trkpt lat="44.1160797" lon="11.1660643"><ele>740.6666666666666</ele><time>2026-04-15T14:34:06.021Z</time></trkpt><trkpt lat="44.1159377" lon="11.1659668"><ele>744.3333333333334</ele><time>2026-04-15T14:34:07.04Z</time></trkpt><trkpt lat="44.1157966" lon="11.1658601"><ele>748.0</ele><time>2026-04-15T14:34:08.034Z</time></trkpt><trkpt lat="44.1156702" lon="11.1657397"><ele>751.25</ele><time>2026-04-15T14:34:09.028Z</time></trkpt><trkpt lat="44.1155427" lon="11.1656121"><ele>754.5</ele><time>2026-04-15T14:34:10.018Z</time></trkpt><trkpt lat="44.1154152" lon="11.1655238"><ele>757.75</ele><time>2026-04-15T14:34:11.022Z</time></trkpt><trkpt lat="44.1152754" lon="11.1655114"><ele>761.0</ele><time>2026-04-15T14:34:12.031Z</time></trkpt><trkpt lat="44.1151199" lon="11.1655204"><ele>761.0</ele><time>2026-04-15T14:34:13.008Z</time></trkpt><trkpt lat="44.1149618" lon="11.1654857"><ele>761.0</ele><time>2026-04-15T14:34:14.032Z</time></trkpt><trkpt lat="44.1148014" lon="11.1654362"><ele>761.0</ele><time>2026-04-15T14:34:15.026Z</time></trkpt><trkpt lat="44.1146443" lon="11.1653722"><ele>750.0</ele><time>2026-04-15T14:34:16.031Z</time></trkpt><trkpt lat="44.1143985" lon="11.1652341"><ele>739.0</ele><time>2026-04-15T14:34:18.023Z</time></trkpt><trkpt lat="44.1142868" lon="11.165135"><ele>728.0</ele><time>2026-04-15T14:34:19.034Z</time></trkpt><trkpt lat="44.1141944" lon="11.1649866"><ele>722.0</ele><time>2026-04-15T14:34:20.037Z</time></trkpt><trkpt lat="44.1141037" lon="11.1648026"><ele>716.0</ele><time>2026-04-15T14:34:21.028Z</time></trkpt><trkpt lat="44.1139931" lon="11.1646201"><ele>710.0</ele><time>2026-04-15T14:34:22.027Z</time></trkpt><trkpt lat="44.1138717" lon="11.1644192"><ele>724.0</ele><time>2026-04-15T14:34:23.052Z</time></trkpt><trkpt lat="44.1135113" lon="11.1637432"><ele>724.0</ele><time>2026-04-15T14:34:26.009Z</time></trkpt><trkpt lat="44.1134066" lon="11.1635147"><ele>724.0</ele><time>2026-04-15T14:34:27.001Z</time></trkpt><trkpt lat="44.1133204" lon="11.1632911"><ele>724.0</ele><time>2026-04-15T14:34:28.042Z</time></trkpt><trkpt lat="44.1132145" lon="11.1629004"><ele>722.0</ele><time>2026-04-15T14:34:30.012Z</time></trkpt><trkpt lat="44.1131805" lon="11.1625772"><ele>720.0</ele><time>2026-04-15T14:34:32.035Z</time></trkpt><trkpt lat="44.1132107" lon="11.1624227"><ele>718.0</ele><time>2026-04-15T14:34:33.045Z</time></trkpt><trkpt lat="44.1132766" lon="11.1622538"><ele>718.0</ele><time>2026-04-15T14:34:34.042Z</time></trkpt><trkpt lat="44.1133441" lon="11.1620674"><ele>718.0</ele><time>2026-04-15T14:34:35.032Z</time></trkpt><trkpt lat="44.1133932" lon="11.1618433"><ele>718.0</ele><time>2026-04-15T14:34:36.014Z</time></trkpt><trkpt lat="44.1134361" lon="11.1616192"><ele>716.5</ele><time>2026-04-15T14:34:37.034Z</time></trkpt><trkpt lat="44.1134629" lon="11.1614175"><ele>715.0</ele><time>2026-04-15T14:34:38.029Z</time></trkpt><trkpt lat="44.1133635" lon="11.1608751"><ele>715.0</ele><time>2026-04-15T14:34:41.043Z</time></trkpt><trkpt lat="44.1132773" lon="11.1607334"><ele>715.0</ele><time>2026-04-15T14:34:42.034Z</time></trkpt><trkpt lat="44.1131843" lon="11.1606176"><ele>715.0</ele><time>2026-04-15T14:34:43.02Z</time></trkpt><trkpt lat="44.1130948" lon="11.1605382"><ele>715.0</ele><time>2026-04-15T14:34:44.019Z</time></trkpt><trkpt lat="44.1130061" lon="11.1604595"><ele>710.4</ele><time>2026-04-15T14:34:45.021Z</time></trkpt><trkpt lat="44.112934" lon="11.1603706"><ele>705.8</ele><time>2026-04-15T14:34:46.044Z</time></trkpt><trkpt lat="44.1128942" lon="11.1602583"><ele>701.2</ele><time>2026-04-15T14:34:47.052Z</time></trkpt><trkpt lat="44.1128916" lon="11.160115"><ele>696.6</ele><time>2026-04-15T14:34:48.017Z</time></trkpt><trkpt lat="44.1129317" lon="11.1599731"><ele>692.0</ele><time>2026-04-15T14:34:49.034Z</time></trkpt><trkpt lat="44.1129699" lon="11.1598056"><ele>692.0</ele><time>2026-04-15T14:34:50.03Z</time></trkpt><trkpt lat="44.1130145" lon="11.1596023"><ele>692.0</ele><time>2026-04-15T14:34:51.032Z</time></trkpt><trkpt lat="44.1130594" lon="11.159378"><ele>692.0</ele><time>2026-04-15T14:34:52.026Z</time></trkpt><trkpt lat="44.113095" lon="11.1591141"><ele>692.5</ele><time>2026-04-15T14:34:53.039Z</time></trkpt><trkpt lat="44.1131145" lon="11.1588444"><ele>693.0</ele><time>2026-04-15T14:34:54.044Z</time></trkpt><trkpt lat="44.11313" lon="11.1584017"><ele>693.0</ele><time>2026-04-15T14:34:56.038Z</time></trkpt><trkpt lat="44.1131314" lon="11.1582063"><ele>693.0</ele><time>2026-04-15T14:34:57.033Z</time></trkpt><trkpt lat="44.1131086" lon="11.1580313"><ele>693.0</ele><time>2026-04-15T14:34:58.025Z</time></trkpt><trkpt lat="44.1130309" lon="11.1578499"><ele>693.0</ele><time>2026-04-15T14:34:59.032Z</time></trkpt><trkpt lat="44.112939" lon="11.1576952"><ele>693.6666666666666</ele><time>2026-04-15T14:35:00.048Z</time></trkpt><trkpt lat="44.1128442" lon="11.1575434"><ele>694.3333333333333</ele><time>2026-04-15T14:35:01.044Z</time></trkpt><trkpt lat="44.1127717" lon="11.1573552"><ele>695.0</ele><time>2026-04-15T14:35:02.017Z</time></trkpt><trkpt lat="44.1127239" lon="11.1571339"><ele>697.0</ele><time>2026-04-15T14:35:03.033Z</time></trkpt><trkpt lat="44.1126566" lon="11.156917"><ele>699.0</ele><time>2026-04-15T14:35:04.021Z</time></trkpt><trkpt lat="44.1125152" lon="11.156552"><ele>699.0</ele><time>2026-04-15T14:35:06.027Z</time></trkpt><trkpt lat="44.1124447" lon="11.1563695"><ele>699.0</ele><time>2026-04-15T14:35:07.029Z</time></trkpt><trkpt lat="44.1123854" lon="11.1560802"><ele>699.0</ele><time>2026-04-15T14:35:09.03Z</time></trkpt><trkpt lat="44.1123241" lon="11.1559545"><ele>701.2</ele><time>2026-04-15T14:35:10.042Z</time></trkpt><trkpt lat="44.1122673" lon="11.1558937"><ele>703.4000000000001</ele><time>2026-04-15T14:35:11.013Z</time></trkpt><trkpt lat="44.11216" lon="11.1559496"><ele>705.6</ele><time>2026-04-15T14:35:13.012Z</time></trkpt><trkpt lat="44.1121252" lon="11.1560377"><ele>707.8</ele><time>2026-04-15T14:35:14.006Z</time></trkpt><trkpt lat="44.1121224" lon="11.156184"><ele>710.0</ele><time>2026-04-15T14:35:15.017Z</time></trkpt><trkpt lat="44.1121579" lon="11.1563492"><ele>710.0</ele><time>2026-04-15T14:35:16.017Z</time></trkpt><trkpt lat="44.1122187" lon="11.1564938"><ele>710.0</ele><time>2026-04-15T14:35:17.034Z</time></trkpt><trkpt lat="44.1122827" lon="11.1566461"><ele>710.0</ele><time>2026-04-15T14:35:18.022Z</time></trkpt><trkpt lat="44.1123225" lon="11.1567932"><ele>710.0</ele><time>2026-04-15T14:35:19.042Z</time></trkpt><trkpt lat="44.1123138" lon="11.1569526"><ele>709.0</ele><time>2026-04-15T14:35:20.015Z</time></trkpt><trkpt lat="44.1122571" lon="11.1571203"><ele>708.0</ele><time>2026-04-15T14:35:21.035Z</time></trkpt><trkpt lat="44.1121925" lon="11.1573019"><ele>707.0</ele><time>2026-04-15T14:35:22.032Z</time></trkpt><trkpt lat="44.112134" lon="11.1575132"><ele>706.0</ele><time>2026-04-15T14:35:23.036Z</time></trkpt><trkpt lat="44.1120809" lon="11.1577613"><ele>706.0</ele><time>2026-04-15T14:35:24.036Z</time></trkpt><trkpt lat="44.1120288" lon="11.1580263"><ele>706.0</ele><time>2026-04-15T14:35:25.001Z</time></trkpt><trkpt lat="44.1119714" lon="11.1582771"><ele>706.0</ele><time>2026-04-15T14:35:26.043Z</time></trkpt><trkpt lat="44.1119207" lon="11.1585136"><ele>703.5</ele><time>2026-04-15T14:35:27.029Z</time></trkpt><trkpt lat="44.1118945" lon="11.1587629"><ele>701.0</ele><time>2026-04-15T14:35:28.034Z</time></trkpt><trkpt lat="44.1118889" lon="11.1593086"><ele>699.6666666666666</ele><time>2026-04-15T14:35:30.006Z</time></trkpt><trkpt lat="44.111887" lon="11.1595852"><ele>698.3333333333334</ele><time>2026-04-15T14:35:31.015Z</time></trkpt><trkpt lat="44.1118916" lon="11.1598568"><ele>697.0</ele><time>2026-04-15T14:35:32.007Z</time></trkpt><trkpt lat="44.1118949" lon="11.1601161"><ele>697.0</ele><time>2026-04-15T14:35:33Z</time></trkpt><trkpt lat="44.1119099" lon="11.1605499"><ele>697.0</ele><time>2026-04-15T14:35:35.002Z</time></trkpt><trkpt lat="44.111905" lon="11.1607418"><ele>696.5</ele><time>2026-04-15T14:35:35.997Z</time></trkpt><trkpt lat="44.111871" lon="11.1609156"><ele>696.0</ele><time>2026-04-15T14:35:37Z</time></trkpt><trkpt lat="44.1118067" lon="11.1610932"><ele>695.5</ele><time>2026-04-15T14:35:38.013Z</time></trkpt><trkpt lat="44.1117155" lon="11.161246"><ele>695.0</ele><time>2026-04-15T14:35:39.001Z</time></trkpt><trkpt lat="44.1115929" lon="11.1613768"><ele>695.3333333333333</ele><time>2026-04-15T14:35:40.008Z</time></trkpt><trkpt lat="44.1114589" lon="11.1614841"><ele>695.6666666666666</ele><time>2026-04-15T14:35:41.002Z</time></trkpt><trkpt lat="44.1113037" lon="11.1615835"><ele>696.0</ele><time>2026-04-15T14:35:42.01Z</time></trkpt><trkpt lat="44.1111212" lon="11.1616875"><ele>696.0</ele><time>2026-04-15T14:35:43.023Z</time></trkpt><trkpt lat="44.1109349" lon="11.1617993"><ele>696.0</ele><time>2026-04-15T14:35:44.025Z</time></trkpt><trkpt lat="44.1107379" lon="11.1619196"><ele>696.0</ele><time>2026-04-15T14:35:45.009Z</time></trkpt><trkpt lat="44.110545" lon="11.1620349"><ele>700.0</ele><time>2026-04-15T14:35:46.017Z</time></trkpt><trkpt lat="44.1103626" lon="11.1621394"><ele>704.0</ele><time>2026-04-15T14:35:47.025Z</time></trkpt><trkpt lat="44.1102004" lon="11.1622254"><ele>708.0</ele><time>2026-04-15T14:35:48.024Z</time></trkpt><trkpt lat="44.1100909" lon="11.1622934"><ele>709.0</ele><time>2026-04-15T14:35:49.031Z</time></trkpt><trkpt lat="44.1099814" lon="11.1623863"><ele>710.0</ele><time>2026-04-15T14:35:50.022Z</time></trkpt><trkpt lat="44.109902" lon="11.1625079"><ele>711.0</ele><time>2026-04-15T14:35:50.998Z</time></trkpt><trkpt lat="44.1098574" lon="11.1626643"><ele>712.0</ele><time>2026-04-15T14:35:52.036Z</time></trkpt><trkpt lat="44.1098496" lon="11.1628508"><ele>712.0</ele><time>2026-04-15T14:35:53.001Z</time></trkpt><trkpt lat="44.1098444" lon="11.1630694"><ele>712.0</ele><time>2026-04-15T14:35:54.039Z</time></trkpt><trkpt lat="44.1098251" lon="11.1632957"><ele>712.0</ele><time>2026-04-15T14:35:55.039Z</time></trkpt><trkpt lat="44.1097921" lon="11.1635146"><ele>710.25</ele><time>2026-04-15T14:35:56.003Z</time></trkpt><trkpt lat="44.1097509" lon="11.1636978"><ele>708.5</ele><time>2026-04-15T14:35:57.006Z</time></trkpt><trkpt lat="44.1096986" lon="11.163849"><ele>706.75</ele><time>2026-04-15T14:35:58.034Z</time></trkpt><trkpt lat="44.1096113" lon="11.1639739"><ele>705.0</ele><time>2026-04-15T14:35:59.035Z</time></trkpt><trkpt lat="44.1095051" lon="11.1640919"><ele>701.5</ele><time>2026-04-15T14:36:00.045Z</time></trkpt><trkpt lat="44.1093874" lon="11.1641876"><ele>698.0</ele><time>2026-04-15T14:36:01.032Z</time></trkpt><trkpt lat="44.1092666" lon="11.1642455"><ele>694.5</ele><time>2026-04-15T14:36:02.012Z</time></trkpt><trkpt lat="44.1091501" lon="11.1642757"><ele>691.0</ele><time>2026-04-15T14:36:03.011Z</time></trkpt><trkpt lat="44.1090356" lon="11.1642924"><ele>690.0</ele><time>2026-04-15T14:36:04.03Z</time></trkpt><trkpt lat="44.1089228" lon="11.1642401"><ele>689.0</ele><time>2026-04-15T14:36:05.055Z</time></trkpt><trkpt lat="44.1088472" lon="11.1640863"><ele>688.0</ele><time>2026-04-15T14:36:06.046Z</time></trkpt><trkpt lat="44.1087828" lon="11.1639073"><ele>687.0</ele><time>2026-04-15T14:36:07.021Z</time></trkpt><trkpt lat="44.108729" lon="11.1637287"><ele>690.25</ele><time>2026-04-15T14:36:08.019Z</time></trkpt><trkpt lat="44.1086589" lon="11.163568"><ele>693.5</ele><time>2026-04-15T14:36:09.038Z</time></trkpt><trkpt lat="44.1085698" lon="11.1634555"><ele>696.75</ele><time>2026-04-15T14:36:10.003Z</time></trkpt><trkpt lat="44.1084761" lon="11.1633866"><ele>700.0</ele><time>2026-04-15T14:36:11.015Z</time></trkpt><trkpt lat="44.1083733" lon="11.1633772"><ele>700.0</ele><time>2026-04-15T14:36:12.005Z</time></trkpt><trkpt lat="44.1082738" lon="11.1634335"><ele>700.0</ele><time>2026-04-15T14:36:13.044Z</time></trkpt><trkpt lat="44.1081834" lon="11.1635582"><ele>700.0</ele><time>2026-04-15T14:36:14.037Z</time></trkpt><trkpt lat="44.1081027" lon="11.1637367"><ele>700.0</ele><time>2026-04-15T14:36:15.037Z</time></trkpt><trkpt lat="44.1080327" lon="11.1639279"><ele>700.0</ele><time>2026-04-15T14:36:16.023Z</time></trkpt><trkpt lat="44.1079554" lon="11.1641228"><ele>700.0</ele><time>2026-04-15T14:36:17.039Z</time></trkpt><trkpt lat="44.1078656" lon="11.1642839"><ele>700.0</ele><time>2026-04-15T14:36:17.998Z</time></trkpt><trkpt lat="44.1076561" lon="11.1644683"><ele>700.0</ele><time>2026-04-15T14:36:20.004Z</time></trkpt><trkpt lat="44.1075444" lon="11.1645251"><ele>700.0</ele><time>2026-04-15T14:36:21.017Z</time></trkpt><trkpt lat="44.1074211" lon="11.1645494"><ele>700.0</ele><time>2026-04-15T14:36:22.01Z</time></trkpt><trkpt lat="44.1072822" lon="11.1645369"><ele>700.0</ele><time>2026-04-15T14:36:23.018Z</time></trkpt><trkpt lat="44.1071393" lon="11.1644867"><ele>699.25</ele><time>2026-04-15T14:36:24.019Z</time></trkpt><trkpt lat="44.1070166" lon="11.1643976"><ele>698.5</ele><time>2026-04-15T14:36:25.006Z</time></trkpt><trkpt lat="44.1069089" lon="11.1642929"><ele>697.75</ele><time>2026-04-15T14:36:26.039Z</time></trkpt><trkpt lat="44.1068178" lon="11.1641694"><ele>697.0</ele><time>2026-04-15T14:36:27.014Z</time></trkpt><trkpt lat="44.1067617" lon="11.1640152"><ele>697.0</ele><time>2026-04-15T14:36:28.029Z</time></trkpt><trkpt lat="44.1067295" lon="11.1638225"><ele>697.0</ele><time>2026-04-15T14:36:29.026Z</time></trkpt><trkpt lat="44.1067051" lon="11.1636195"><ele>697.0</ele><time>2026-04-15T14:36:30.043Z</time></trkpt><trkpt lat="44.1066522" lon="11.1634159"><ele>697.0</ele><time>2026-04-15T14:36:30.994Z</time></trkpt><trkpt lat="44.1065646" lon="11.1632311"><ele>699.3333333333334</ele><time>2026-04-15T14:36:32.104Z</time></trkpt><trkpt lat="44.1064651" lon="11.1630464"><ele>701.6666666666666</ele><time>2026-04-15T14:36:33.024Z</time></trkpt><trkpt lat="44.106346" lon="11.1628968"><ele>704.0</ele><time>2026-04-15T14:36:34.033Z</time></trkpt><trkpt lat="44.1062067" lon="11.162803"><ele>704.0</ele><time>2026-04-15T14:36:35.028Z</time></trkpt><trkpt lat="44.1060413" lon="11.162747"><ele>704.0</ele><time>2026-04-15T14:36:36.019Z</time></trkpt><trkpt lat="44.1058737" lon="11.1627169"><ele>704.0</ele><time>2026-04-15T14:36:37.029Z</time></trkpt><trkpt lat="44.1055187" lon="11.1626656"><ele>700.0</ele><time>2026-04-15T14:36:39.016Z</time></trkpt><trkpt lat="44.1051939" lon="11.1626186"><ele>696.0</ele><time>2026-04-15T14:36:41.023Z</time></trkpt><trkpt lat="44.1050556" lon="11.1625481"><ele>696.0</ele><time>2026-04-15T14:36:42.03Z</time></trkpt><trkpt lat="44.104736" lon="11.1621181"><ele>696.0</ele><time>2026-04-15T14:36:44.991Z</time></trkpt><trkpt lat="44.1046408" lon="11.1619414"><ele>696.0</ele><time>2026-04-15T14:36:46.032Z</time></trkpt><trkpt lat="44.1045306" lon="11.1617904"><ele>696.0</ele><time>2026-04-15T14:36:47.025Z</time></trkpt><trkpt lat="44.1044113" lon="11.1616704"><ele>696.0</ele><time>2026-04-15T14:36:48.03Z</time></trkpt><trkpt lat="44.1042924" lon="11.1615912"><ele>696.0</ele><time>2026-04-15T14:36:49.023Z</time></trkpt><trkpt lat="44.1041641" lon="11.1615533"><ele>695.5</ele><time>2026-04-15T14:36:50.008Z</time></trkpt><trkpt lat="44.1040211" lon="11.1615722"><ele>695.0</ele><time>2026-04-15T14:36:51.008Z</time></trkpt><trkpt lat="44.1038753" lon="11.1615998"><ele>694.5</ele><time>2026-04-15T14:36:52.033Z</time></trkpt><trkpt lat="44.1037193" lon="11.161621"><ele>694.0</ele><time>2026-04-15T14:36:53.007Z</time></trkpt><trkpt lat="44.1035567" lon="11.1615947"><ele>702.5</ele><time>2026-04-15T14:36:54.017Z</time></trkpt><trkpt lat="44.1032128" lon="11.161556"><ele>711.0</ele><time>2026-04-15T14:36:56.018Z</time></trkpt><trkpt lat="44.1030383" lon="11.1615682"><ele>711.0</ele><time>2026-04-15T14:36:57.015Z</time></trkpt><trkpt lat="44.1025361" lon="11.1618308"><ele>729.5</ele><time>2026-04-15T14:37:00.019Z</time></trkpt><trkpt lat="44.1023653" lon="11.1619513"><ele>748.0</ele><time>2026-04-15T14:37:01.006Z</time></trkpt><trkpt lat="44.1020649" lon="11.1621748"><ele>733.5</ele><time>2026-04-15T14:37:03.022Z</time></trkpt><trkpt lat="44.1017955" lon="11.1625018"><ele>719.0</ele><time>2026-04-15T14:37:05.024Z</time></trkpt><trkpt lat="44.1016678" lon="11.1627075"><ele>719.0</ele><time>2026-04-15T14:37:06.019Z</time></trkpt><trkpt lat="44.1015422" lon="11.1629124"><ele>719.0</ele><time>2026-04-15T14:37:07.025Z</time></trkpt><trkpt lat="44.1014196" lon="11.1630921"><ele>719.0</ele><time>2026-04-15T14:37:08.021Z</time></trkpt><trkpt lat="44.1012948" lon="11.163262"><ele>719.0</ele><time>2026-04-15T14:37:08.995Z</time></trkpt><trkpt lat="44.1010453" lon="11.1635829"><ele>719.0</ele><time>2026-04-15T14:37:11.012Z</time></trkpt><trkpt lat="44.1009128" lon="11.1637019"><ele>719.0</ele><time>2026-04-15T14:37:12.027Z</time></trkpt><trkpt lat="44.1007803" lon="11.1637817"><ele>719.0</ele><time>2026-04-15T14:37:13.023Z</time></trkpt><trkpt lat="44.1006207" lon="11.1638266"><ele>719.0</ele><time>2026-04-15T14:37:14.025Z</time></trkpt><trkpt lat="44.1004477" lon="11.163865"><ele>720.3333333333333</ele><time>2026-04-15T14:37:15.023Z</time></trkpt><trkpt lat="44.1002778" lon="11.163889"><ele>721.6666666666666</ele><time>2026-04-15T14:37:16.019Z</time></trkpt><trkpt lat="44.1000989" lon="11.1638795"><ele>723.0</ele><time>2026-04-15T14:37:17.018Z</time></trkpt><trkpt lat="44.099919" lon="11.1638562"><ele>724.6666666666666</ele><time>2026-04-15T14:37:18.016Z</time></trkpt><trkpt lat="44.0997175" lon="11.1638476"><ele>726.3333333333333</ele><time>2026-04-15T14:37:19.012Z</time></trkpt><trkpt lat="44.0995161" lon="11.1638873"><ele>728.0</ele><time>2026-04-15T14:37:19.996Z</time></trkpt><trkpt lat="44.099332" lon="11.1639199"><ele>728.0</ele><time>2026-04-15T14:37:21.019Z</time></trkpt><trkpt lat="44.0991583" lon="11.163957"><ele>728.0</ele><time>2026-04-15T14:37:22.027Z</time></trkpt><trkpt lat="44.0989938" lon="11.1639674"><ele>728.0</ele><time>2026-04-15T14:37:23.021Z</time></trkpt><trkpt lat="44.0986469" lon="11.1638904"><ele>726.5</ele><time>2026-04-15T14:37:24.986Z</time></trkpt><trkpt lat="44.0984839" lon="11.1638667"><ele>725.0</ele><time>2026-04-15T14:37:26.026Z</time></trkpt><trkpt lat="44.09814" lon="11.1639297"><ele>725.0</ele><time>2026-04-15T14:37:28.019Z</time></trkpt><trkpt lat="44.097975" lon="11.1639645"><ele>725.0</ele><time>2026-04-15T14:37:29.019Z</time></trkpt><trkpt lat="44.0978078" lon="11.1639624"><ele>725.0</ele><time>2026-04-15T14:37:30.035Z</time></trkpt><trkpt lat="44.0974776" lon="11.1638724"><ele>724.3333333333333</ele><time>2026-04-15T14:37:32.017Z</time></trkpt><trkpt lat="44.0973104" lon="11.1638332"><ele>723.6666666666666</ele><time>2026-04-15T14:37:33.023Z</time></trkpt><trkpt lat="44.0971469" lon="11.1638438"><ele>723.0</ele><time>2026-04-15T14:37:34.022Z</time></trkpt><trkpt lat="44.0969672" lon="11.1639264"><ele>723.0</ele><time>2026-04-15T14:37:35.012Z</time></trkpt><trkpt lat="44.0967952" lon="11.1640054"><ele>723.0</ele><time>2026-04-15T14:37:36.001Z</time></trkpt><trkpt lat="44.0966363" lon="11.1640527"><ele>723.0</ele><time>2026-04-15T14:37:37.029Z</time></trkpt><trkpt lat="44.0964743" lon="11.1640663"><ele>720.3333333333334</ele><time>2026-04-15T14:37:38.028Z</time></trkpt><trkpt lat="44.0962781" lon="11.1640247"><ele>717.6666666666667</ele><time>2026-04-15T14:37:39.021Z</time></trkpt><trkpt lat="44.0960786" lon="11.1639677"><ele>715.0</ele><time>2026-04-15T14:37:40.018Z</time></trkpt><trkpt lat="44.0959001" lon="11.1639044"><ele>710.3333333333334</ele><time>2026-04-15T14:37:41.036Z</time></trkpt><trkpt lat="44.0957275" lon="11.1638219"><ele>705.6666666666666</ele><time>2026-04-15T14:37:42.014Z</time></trkpt><trkpt lat="44.0955547" lon="11.1637052"><ele>701.0</ele><time>2026-04-15T14:37:43.014Z</time></trkpt><trkpt lat="44.095391" lon="11.1635697"><ele>701.0</ele><time>2026-04-15T14:37:44.009Z</time></trkpt><trkpt lat="44.0952324" lon="11.1634112"><ele>701.0</ele><time>2026-04-15T14:37:45.023Z</time></trkpt><trkpt lat="44.095061" lon="11.1632478"><ele>701.0</ele><time>2026-04-15T14:37:46.01Z</time></trkpt><trkpt lat="44.0948892" lon="11.1630852"><ele>702.0</ele><time>2026-04-15T14:37:47.012Z</time></trkpt><trkpt lat="44.0945726" lon="11.1627936"><ele>703.0</ele><time>2026-04-15T14:37:49.009Z</time></trkpt><trkpt lat="44.0944225" lon="11.1626576"><ele>703.0</ele><time>2026-04-15T14:37:50.009Z</time></trkpt><trkpt lat="44.0942933" lon="11.1625331"><ele>703.0</ele><time>2026-04-15T14:37:51.027Z</time></trkpt><trkpt lat="44.0941814" lon="11.162435"><ele>703.0</ele><time>2026-04-15T14:37:52.002Z</time></trkpt><trkpt lat="44.0940783" lon="11.1623676"><ele>703.0</ele><time>2026-04-15T14:37:53.026Z</time></trkpt><trkpt lat="44.0939767" lon="11.1623491"><ele>701.25</ele><time>2026-04-15T14:37:54.019Z</time></trkpt><trkpt lat="44.0938613" lon="11.1623949"><ele>699.5</ele><time>2026-04-15T14:37:55.111Z</time></trkpt><trkpt lat="44.0937576" lon="11.1624902"><ele>697.75</ele><time>2026-04-15T14:37:56.018Z</time></trkpt><trkpt lat="44.0936695" lon="11.162613"><ele>696.0</ele><time>2026-04-15T14:37:57.021Z</time></trkpt><trkpt lat="44.0935802" lon="11.1627118"><ele>696.0</ele><time>2026-04-15T14:37:58.026Z</time></trkpt><trkpt lat="44.0934836" lon="11.162777"><ele>696.0</ele><time>2026-04-15T14:37:59.115Z</time></trkpt><trkpt lat="44.0933804" lon="11.162796"><ele>696.0</ele><time>2026-04-15T14:38:00.1Z</time></trkpt><trkpt lat="44.0932665" lon="11.1627643"><ele>696.0</ele><time>2026-04-15T14:38:01.087Z</time></trkpt><trkpt lat="44.093152" lon="11.1627269"><ele>696.0</ele><time>2026-04-15T14:38:02.093Z</time></trkpt><trkpt lat="44.09304" lon="11.1626923"><ele>697.4</ele><time>2026-04-15T14:38:03.014Z</time></trkpt><trkpt lat="44.0929358" lon="11.1626651"><ele>698.8</ele><time>2026-04-15T14:38:04.03Z</time></trkpt><trkpt lat="44.0928382" lon="11.1626368"><ele>700.1999999999999</ele><time>2026-04-15T14:38:05.017Z</time></trkpt><trkpt lat="44.0927428" lon="11.1625894"><ele>701.5999999999999</ele><time>2026-04-15T14:38:06.11Z</time></trkpt><trkpt lat="44.0926645" lon="11.1625004"><ele>703.0</ele><time>2026-04-15T14:38:07.122Z</time></trkpt><trkpt lat="44.0925994" lon="11.1623685"><ele>703.5</ele><time>2026-04-15T14:38:08.114Z</time></trkpt><trkpt lat="44.0925369" lon="11.162225"><ele>704.0</ele><time>2026-04-15T14:38:09.026Z</time></trkpt><trkpt lat="44.0924855" lon="11.1620689"><ele>704.5</ele><time>2026-04-15T14:38:10.021Z</time></trkpt><trkpt lat="44.0924321" lon="11.1619332"><ele>705.0</ele><time>2026-04-15T14:38:11.015Z</time></trkpt><trkpt lat="44.0923673" lon="11.1617997"><ele>705.0</ele><time>2026-04-15T14:38:12.017Z</time></trkpt><trkpt lat="44.0922999" lon="11.1616743"><ele>705.0</ele><time>2026-04-15T14:38:13.101Z</time></trkpt><trkpt lat="44.0922229" lon="11.1615571"><ele>705.0</ele><time>2026-04-15T14:38:14.126Z</time></trkpt><trkpt lat="44.0921123" lon="11.1614442"><ele>705.0</ele><time>2026-04-15T14:38:15.123Z</time></trkpt><trkpt lat="44.0919852" lon="11.1613218"><ele>704.0</ele><time>2026-04-15T14:38:16.116Z</time></trkpt><trkpt lat="44.0917025" lon="11.1610406"><ele>703.0</ele><time>2026-04-15T14:38:18.023Z</time></trkpt><trkpt lat="44.0915539" lon="11.1609063"><ele>703.3333333333334</ele><time>2026-04-15T14:38:19.119Z</time></trkpt><trkpt lat="44.0914044" lon="11.1607729"><ele>703.6666666666666</ele><time>2026-04-15T14:38:20.117Z</time></trkpt><trkpt lat="44.0912587" lon="11.1606466"><ele>704.0</ele><time>2026-04-15T14:38:21.109Z</time></trkpt><trkpt lat="44.0911207" lon="11.1605296"><ele>704.0</ele><time>2026-04-15T14:38:22.106Z</time></trkpt><trkpt lat="44.0909758" lon="11.1604047"><ele>704.0</ele><time>2026-04-15T14:38:23.124Z</time></trkpt><trkpt lat="44.0906639" lon="11.1601292"><ele>705.0</ele><time>2026-04-15T14:38:25.113Z</time></trkpt><trkpt lat="44.0905094" lon="11.1599745"><ele>706.0</ele><time>2026-04-15T14:38:26.12Z</time></trkpt><trkpt lat="44.0903514" lon="11.1598234"><ele>707.0</ele><time>2026-04-15T14:38:27.088Z</time></trkpt><trkpt lat="44.0901886" lon="11.1596795"><ele>708.0</ele><time>2026-04-15T14:38:28.104Z</time></trkpt><trkpt lat="44.0900203" lon="11.1595249"><ele>709.0</ele><time>2026-04-15T14:38:29.093Z</time></trkpt><trkpt lat="44.0898497" lon="11.1593618"><ele>710.0</ele><time>2026-04-15T14:38:30.106Z</time></trkpt><trkpt lat="44.0896815" lon="11.1592038"><ele>710.0</ele><time>2026-04-15T14:38:31.014Z</time></trkpt><trkpt lat="44.0895143" lon="11.159054"><ele>710.0</ele><time>2026-04-15T14:38:32.134Z</time></trkpt><trkpt lat="44.0893646" lon="11.1589303"><ele>710.0</ele><time>2026-04-15T14:38:33.115Z</time></trkpt><trkpt lat="44.0890822" lon="11.1588621"><ele>707.0</ele><time>2026-04-15T14:38:35.123Z</time></trkpt><trkpt lat="44.0889395" lon="11.1588896"><ele>704.0</ele><time>2026-04-15T14:38:36.143Z</time></trkpt><trkpt lat="44.0888117" lon="11.1589652"><ele>701.0</ele><time>2026-04-15T14:38:37.103Z</time></trkpt><trkpt lat="44.0886203" lon="11.1592382"><ele>700.3333333333333</ele><time>2026-04-15T14:38:39.095Z</time></trkpt><trkpt lat="44.0885713" lon="11.159435"><ele>699.6666666666666</ele><time>2026-04-15T14:38:40.094Z</time></trkpt><trkpt lat="44.0885466" lon="11.1596551"><ele>699.0</ele><time>2026-04-15T14:38:41.102Z</time></trkpt><trkpt lat="44.0885546" lon="11.1598814"><ele>699.0</ele><time>2026-04-15T14:38:42.112Z</time></trkpt><trkpt lat="44.0886002" lon="11.1600899"><ele>699.0</ele><time>2026-04-15T14:38:43.109Z</time></trkpt><trkpt lat="44.0886924" lon="11.1602871"><ele>699.0</ele><time>2026-04-15T14:38:44.107Z</time></trkpt><trkpt lat="44.0888062" lon="11.1604507"><ele>699.0</ele><time>2026-04-15T14:38:45.112Z</time></trkpt><trkpt lat="44.088945" lon="11.1605752"><ele>699.0</ele><time>2026-04-15T14:38:46.104Z</time></trkpt><trkpt lat="44.0890919" lon="11.1606816"><ele>699.0</ele><time>2026-04-15T14:38:47.11Z</time></trkpt><trkpt lat="44.0893411" lon="11.1608885"><ele>698.5</ele><time>2026-04-15T14:38:49.086Z</time></trkpt><trkpt lat="44.089406" lon="11.161017"><ele>698.0</ele><time>2026-04-15T14:38:50.081Z</time></trkpt><trkpt lat="44.0894689" lon="11.1611753"><ele>697.5</ele><time>2026-04-15T14:38:51.138Z</time></trkpt><trkpt lat="44.0894769" lon="11.1613619"><ele>697.0</ele><time>2026-04-15T14:38:52.106Z</time></trkpt><trkpt lat="44.0894518" lon="11.1615449"><ele>697.0</ele><time>2026-04-15T14:38:53.128Z</time></trkpt><trkpt lat="44.0893715" lon="11.1617053"><ele>697.0</ele><time>2026-04-15T14:38:54.114Z</time></trkpt><trkpt lat="44.089265" lon="11.1617956"><ele>697.0</ele><time>2026-04-15T14:38:55.126Z</time></trkpt><trkpt lat="44.089133" lon="11.1618279"><ele>697.0</ele><time>2026-04-15T14:38:56.108Z</time></trkpt><trkpt lat="44.0889866" lon="11.1618033"><ele>695.0</ele><time>2026-04-15T14:38:57.114Z</time></trkpt><trkpt lat="44.0888243" lon="11.1617453"><ele>693.0</ele><time>2026-04-15T14:38:58.112Z</time></trkpt><trkpt lat="44.0886671" lon="11.161715"><ele>691.0</ele><time>2026-04-15T14:38:59.11Z</time></trkpt><trkpt lat="44.0885249" lon="11.1617092"><ele>691.0</ele><time>2026-04-15T14:39:00.086Z</time></trkpt><trkpt lat="44.0884037" lon="11.1617685"><ele>691.0</ele><time>2026-04-15T14:39:01.107Z</time></trkpt><trkpt lat="44.0882846" lon="11.1618868"><ele>691.0</ele><time>2026-04-15T14:39:02.105Z</time></trkpt><trkpt lat="44.0881589" lon="11.1620238"><ele>691.0</ele><time>2026-04-15T14:39:03.123Z</time></trkpt><trkpt lat="44.0880554" lon="11.1621618"><ele>688.25</ele><time>2026-04-15T14:39:04.117Z</time></trkpt><trkpt lat="44.0879818" lon="11.1623101"><ele>685.5</ele><time>2026-04-15T14:39:05.101Z</time></trkpt><trkpt lat="44.0879625" lon="11.162489"><ele>682.75</ele><time>2026-04-15T14:39:06.121Z</time></trkpt><trkpt lat="44.0879857" lon="11.1626683"><ele>680.0</ele><time>2026-04-15T14:39:07.109Z</time></trkpt><trkpt lat="44.0880139" lon="11.1628479"><ele>680.0</ele><time>2026-04-15T14:39:08.114Z</time></trkpt><trkpt lat="44.0880157" lon="11.1630134"><ele>680.0</ele><time>2026-04-15T14:39:09.115Z</time></trkpt><trkpt lat="44.0879616" lon="11.1631573"><ele>680.0</ele><time>2026-04-15T14:39:10.118Z</time></trkpt><trkpt lat="44.0878716" lon="11.1632704"><ele>680.0</ele><time>2026-04-15T14:39:11.1Z</time></trkpt><trkpt lat="44.0877551" lon="11.1633119"><ele>680.0</ele><time>2026-04-15T14:39:12.132Z</time></trkpt><trkpt lat="44.0876399" lon="11.1632722"><ele>680.0</ele><time>2026-04-15T14:39:13.092Z</time></trkpt><trkpt lat="44.0875425" lon="11.1631932"><ele>680.0</ele><time>2026-04-15T14:39:14.085Z</time></trkpt><trkpt lat="44.0874408" lon="11.1630399"><ele>680.0</ele><time>2026-04-15T14:39:15.121Z</time></trkpt><trkpt lat="44.0873407" lon="11.1628654"><ele>680.3333333333333</ele><time>2026-04-15T14:39:16.099Z</time></trkpt><trkpt lat="44.087219" lon="11.1626577"><ele>680.6666666666666</ele><time>2026-04-15T14:39:17.103Z</time></trkpt><trkpt lat="44.0870847" lon="11.162425"><ele>681.0</ele><time>2026-04-15T14:39:18.095Z</time></trkpt><trkpt lat="44.0869416" lon="11.1621812"><ele>677.0</ele><time>2026-04-15T14:39:19.107Z</time></trkpt><trkpt lat="44.0864788" lon="11.1613868"><ele>677.0</ele><time>2026-04-15T14:39:22.09Z</time></trkpt><trkpt lat="44.0863379" lon="11.1611325"><ele>677.0</ele><time>2026-04-15T14:39:23.102Z</time></trkpt><trkpt lat="44.086206" lon="11.1609158"><ele>677.0</ele><time>2026-04-15T14:39:24.091Z</time></trkpt><trkpt lat="44.0860924" lon="11.160718"><ele>671.3333333333333</ele><time>2026-04-15T14:39:25.086Z</time></trkpt><trkpt lat="44.085876" lon="11.1604684"><ele>665.6666666666666</ele><time>2026-04-15T14:39:27.095Z</time></trkpt><trkpt lat="44.0857509" lon="11.160385"><ele>660.0</ele><time>2026-04-15T14:39:28.118Z</time></trkpt><trkpt lat="44.0856001" lon="11.1603562"><ele>659.6666666666666</ele><time>2026-04-15T14:39:29.11Z</time></trkpt><trkpt lat="44.0854435" lon="11.160382"><ele>659.3333333333333</ele><time>2026-04-15T14:39:30.1Z</time></trkpt><trkpt lat="44.0852884" lon="11.1604555"><ele>659.0</ele><time>2026-04-15T14:39:31.109Z</time></trkpt><trkpt lat="44.085151" lon="11.1605214"><ele>664.6666666666666</ele><time>2026-04-15T14:39:32.098Z</time></trkpt><trkpt lat="44.0849001" lon="11.1604977"><ele>670.3333333333334</ele><time>2026-04-15T14:39:34.095Z</time></trkpt><trkpt lat="44.0847765" lon="11.1604359"><ele>676.0</ele><time>2026-04-15T14:39:35.081Z</time></trkpt><trkpt lat="44.0846629" lon="11.1603018"><ele>676.0</ele><time>2026-04-15T14:39:36.105Z</time></trkpt><trkpt lat="44.0845629" lon="11.1601167"><ele>676.0</ele><time>2026-04-15T14:39:37.112Z</time></trkpt><trkpt lat="44.084456" lon="11.1599005"><ele>676.0</ele><time>2026-04-15T14:39:38.109Z</time></trkpt><trkpt lat="44.0843354" lon="11.159661"><ele>669.6666666666667</ele><time>2026-04-15T14:39:39.094Z</time></trkpt><trkpt lat="44.0842143" lon="11.1594205"><ele>663.3333333333334</ele><time>2026-04-15T14:39:40.11Z</time></trkpt><trkpt lat="44.0840998" lon="11.1591921"><ele>657.0</ele><time>2026-04-15T14:39:41.117Z</time></trkpt><trkpt lat="44.0839895" lon="11.1589792"><ele>652.0</ele><time>2026-04-15T14:39:42.11Z</time></trkpt><trkpt lat="44.0838907" lon="11.158789"><ele>647.0</ele><time>2026-04-15T14:39:43.115Z</time></trkpt><trkpt lat="44.0837877" lon="11.1586347"><ele>642.0</ele><time>2026-04-15T14:39:44.121Z</time></trkpt><trkpt lat="44.0836756" lon="11.1585218"><ele>642.0</ele><time>2026-04-15T14:39:45.106Z</time></trkpt><trkpt lat="44.0835518" lon="11.1584635"><ele>642.0</ele><time>2026-04-15T14:39:46.07Z</time></trkpt><trkpt lat="44.0834103" lon="11.1584784"><ele>642.0</ele><time>2026-04-15T14:39:47.093Z</time></trkpt><trkpt lat="44.0832724" lon="11.1585476"><ele>642.0</ele><time>2026-04-15T14:39:48.083Z</time></trkpt><trkpt lat="44.0831283" lon="11.1586557"><ele>642.3333333333334</ele><time>2026-04-15T14:39:49.096Z</time></trkpt><trkpt lat="44.0829779" lon="11.1587994"><ele>642.6666666666667</ele><time>2026-04-15T14:39:50.101Z</time></trkpt><trkpt lat="44.082821" lon="11.1589617"><ele>643.0</ele><time>2026-04-15T14:39:51.104Z</time></trkpt><trkpt lat="44.082665" lon="11.1591412"><ele>643.0</ele><time>2026-04-15T14:39:52.102Z</time></trkpt><trkpt lat="44.0825295" lon="11.1593262"><ele>643.0</ele><time>2026-04-15T14:39:53.112Z</time></trkpt><trkpt lat="44.082387" lon="11.1594936"><ele>643.0</ele><time>2026-04-15T14:39:54.113Z</time></trkpt><trkpt lat="44.0822387" lon="11.1596191"><ele>637.6666666666667</ele><time>2026-04-15T14:39:55.095Z</time></trkpt><trkpt lat="44.0820664" lon="11.159689"><ele>632.3333333333334</ele><time>2026-04-15T14:39:56.112Z</time></trkpt><trkpt lat="44.0818766" lon="11.1597332"><ele>627.0</ele><time>2026-04-15T14:39:57.099Z</time></trkpt><trkpt lat="44.0816789" lon="11.1597563"><ele>625.6666666666666</ele><time>2026-04-15T14:39:58.109Z</time></trkpt><trkpt lat="44.081504" lon="11.1598044"><ele>624.3333333333333</ele><time>2026-04-15T14:39:59.109Z</time></trkpt><trkpt lat="44.0813368" lon="11.1598885"><ele>623.0</ele><time>2026-04-15T14:40:00.107Z</time></trkpt><trkpt lat="44.0811735" lon="11.1600113"><ele>623.0</ele><time>2026-04-15T14:40:01.088Z</time></trkpt><trkpt lat="44.0810115" lon="11.1601623"><ele>623.0</ele><time>2026-04-15T14:40:02.107Z</time></trkpt><trkpt lat="44.0808555" lon="11.1603022"><ele>623.0</ele><time>2026-04-15T14:40:03.086Z</time></trkpt><trkpt lat="44.0807169" lon="11.1604336"><ele>621.0</ele><time>2026-04-15T14:40:04.083Z</time></trkpt><trkpt lat="44.0805945" lon="11.1605457"><ele>619.0</ele><time>2026-04-15T14:40:05.108Z</time></trkpt><trkpt lat="44.0804893" lon="11.1606902"><ele>617.0</ele><time>2026-04-15T14:40:06.1Z</time></trkpt><trkpt lat="44.0804023" lon="11.1608864"><ele>617.0</ele><time>2026-04-15T14:40:07.101Z</time></trkpt><trkpt lat="44.0803236" lon="11.1611066"><ele>617.0</ele><time>2026-04-15T14:40:08.116Z</time></trkpt><trkpt lat="44.0802589" lon="11.1613201"><ele>617.0</ele><time>2026-04-15T14:40:09.099Z</time></trkpt><trkpt lat="44.0802004" lon="11.1615107"><ele>619.25</ele><time>2026-04-15T14:40:10.09Z</time></trkpt><trkpt lat="44.080167" lon="11.1616801"><ele>621.5</ele><time>2026-04-15T14:40:11.095Z</time></trkpt><trkpt lat="44.0801573" lon="11.16186"><ele>623.75</ele><time>2026-04-15T14:40:12.107Z</time></trkpt><trkpt lat="44.0802072" lon="11.1620394"><ele>626.0</ele><time>2026-04-15T14:40:13.116Z</time></trkpt><trkpt lat="44.0802863" lon="11.1622062"><ele>627.0</ele><time>2026-04-15T14:40:14.103Z</time></trkpt><trkpt lat="44.0803694" lon="11.1623834"><ele>628.0</ele><time>2026-04-15T14:40:15.083Z</time></trkpt><trkpt lat="44.0804454" lon="11.1625403"><ele>629.0</ele><time>2026-04-15T14:40:16.098Z</time></trkpt><trkpt lat="44.0805032" lon="11.162666"><ele>630.0</ele><time>2026-04-15T14:40:17.123Z</time></trkpt><trkpt lat="44.080519" lon="11.1627647"><ele>630.0</ele><time>2026-04-15T14:40:18.12Z</time></trkpt><trkpt lat="44.0804936" lon="11.1628616"><ele>630.0</ele><time>2026-04-15T14:40:19.107Z</time></trkpt><trkpt lat="44.0804134" lon="11.1629725"><ele>630.0</ele><time>2026-04-15T14:40:20.111Z</time></trkpt><trkpt lat="44.080351" lon="11.1630259"><ele>630.0</ele><time>2026-04-15T14:40:21.126Z</time></trkpt><trkpt lat="44.0802649" lon="11.1630145"><ele>630.0</ele><time>2026-04-15T14:40:22.096Z</time></trkpt><trkpt lat="44.0802027" lon="11.1629378"><ele>630.0</ele><time>2026-04-15T14:40:23.101Z</time></trkpt><trkpt lat="44.0801247" lon="11.1628214"><ele>630.0</ele><time>2026-04-15T14:40:24.11Z</time></trkpt><trkpt lat="44.0800181" lon="11.1626968"><ele>630.0</ele><time>2026-04-15T14:40:25.084Z</time></trkpt><trkpt lat="44.0798754" lon="11.1626001"><ele>630.0</ele><time>2026-04-15T14:40:26.09Z</time></trkpt><trkpt lat="44.0797267" lon="11.1625142"><ele>631.75</ele><time>2026-04-15T14:40:27.088Z</time></trkpt><trkpt lat="44.0795861" lon="11.1624369"><ele>633.5</ele><time>2026-04-15T14:40:28.077Z</time></trkpt><trkpt lat="44.079455" lon="11.1623568"><ele>635.25</ele><time>2026-04-15T14:40:29.085Z</time></trkpt><trkpt lat="44.079355" lon="11.1622668"><ele>637.0</ele><time>2026-04-15T14:40:30.097Z</time></trkpt><trkpt lat="44.0792878" lon="11.1621436"><ele>637.0</ele><time>2026-04-15T14:40:31.103Z</time></trkpt><trkpt lat="44.079269" lon="11.1620186"><ele>637.0</ele><time>2026-04-15T14:40:32.106Z</time></trkpt><trkpt lat="44.0792855" lon="11.1618318"><ele>637.0</ele><time>2026-04-15T14:40:33.131Z</time></trkpt><trkpt lat="44.0792966" lon="11.1616114"><ele>637.0</ele><time>2026-04-15T14:40:34.09Z</time></trkpt><trkpt lat="44.0793058" lon="11.1613638"><ele>637.3333333333334</ele><time>2026-04-15T14:40:35.103Z</time></trkpt><trkpt lat="44.0793074" lon="11.1611082"><ele>637.6666666666666</ele><time>2026-04-15T14:40:36.084Z</time></trkpt><trkpt lat="44.0793021" lon="11.1608533"><ele>638.0</ele><time>2026-04-15T14:40:37.107Z</time></trkpt><trkpt lat="44.0792985" lon="11.1606191"><ele>635.75</ele><time>2026-04-15T14:40:38.094Z</time></trkpt><trkpt lat="44.0793126" lon="11.1604085"><ele>633.5</ele><time>2026-04-15T14:40:39.091Z</time></trkpt><trkpt lat="44.0793745" lon="11.1602355"><ele>631.25</ele><time>2026-04-15T14:40:40.104Z</time></trkpt><trkpt lat="44.0794437" lon="11.1600895"><ele>629.0</ele><time>2026-04-15T14:40:41.085Z</time></trkpt><trkpt lat="44.0794682" lon="11.1598518"><ele>629.0</ele><time>2026-04-15T14:40:43.103Z</time></trkpt><trkpt lat="44.079402" lon="11.1597089"><ele>629.0</ele><time>2026-04-15T14:40:44.096Z</time></trkpt><trkpt lat="44.0793134" lon="11.1596222"><ele>629.0</ele><time>2026-04-15T14:40:45.106Z</time></trkpt><trkpt lat="44.0791907" lon="11.1595483"><ele>629.0</ele><time>2026-04-15T14:40:46.117Z</time></trkpt><trkpt lat="44.0790855" lon="11.1595066"><ele>633.6</ele><time>2026-04-15T14:40:47.08Z</time></trkpt><trkpt lat="44.0789888" lon="11.1594829"><ele>638.2</ele><time>2026-04-15T14:40:48.085Z</time></trkpt><trkpt lat="44.0789176" lon="11.1594337"><ele>642.8000000000001</ele><time>2026-04-15T14:40:49.121Z</time></trkpt><trkpt lat="44.0788779" lon="11.1592602"><ele>647.4</ele><time>2026-04-15T14:40:51.094Z</time></trkpt><trkpt lat="44.0789233" lon="11.1591514"><ele>652.0</ele><time>2026-04-15T14:40:52.1Z</time></trkpt><trkpt lat="44.0790048" lon="11.1590919"><ele>653.5</ele><time>2026-04-15T14:40:53.109Z</time></trkpt><trkpt lat="44.0791083" lon="11.1590713"><ele>655.0</ele><time>2026-04-15T14:40:54.101Z</time></trkpt><trkpt lat="44.0792136" lon="11.1590605"><ele>656.5</ele><time>2026-04-15T14:40:55.092Z</time></trkpt><trkpt lat="44.079336" lon="11.1590083"><ele>658.0</ele><time>2026-04-15T14:40:56.123Z</time></trkpt><trkpt lat="44.0794736" lon="11.158934"><ele>658.0</ele><time>2026-04-15T14:40:57.091Z</time></trkpt><trkpt lat="44.0796338" lon="11.1589088"><ele>658.0</ele><time>2026-04-15T14:40:58.078Z</time></trkpt><trkpt lat="44.0797914" lon="11.1589172"><ele>658.0</ele><time>2026-04-15T14:40:59.095Z</time></trkpt><trkpt lat="44.0799335" lon="11.1589315"><ele>647.0</ele><time>2026-04-15T14:41:00.089Z</time></trkpt><trkpt lat="44.0800526" lon="11.1588967"><ele>636.0</ele><time>2026-04-15T14:41:01.107Z</time></trkpt><trkpt lat="44.0801969" lon="11.158636"><ele>625.0</ele><time>2026-04-15T14:41:03.122Z</time></trkpt><trkpt lat="44.0802372" lon="11.1584539"><ele>625.0</ele><time>2026-04-15T14:41:04.096Z</time></trkpt><trkpt lat="44.0802606" lon="11.1582453"><ele>625.0</ele><time>2026-04-15T14:41:05.121Z</time></trkpt><trkpt lat="44.0802812" lon="11.1580033"><ele>625.0</ele><time>2026-04-15T14:41:06.106Z</time></trkpt><trkpt lat="44.0803003" lon="11.1577522"><ele>627.0</ele><time>2026-04-15T14:41:07.107Z</time></trkpt><trkpt lat="44.0803137" lon="11.1575092"><ele>629.0</ele><time>2026-04-15T14:41:08.105Z</time></trkpt><trkpt lat="44.0802862" lon="11.1572857"><ele>631.0</ele><time>2026-04-15T14:41:09.102Z</time></trkpt><trkpt lat="44.0802366" lon="11.1570858"><ele>631.6666666666667</ele><time>2026-04-15T14:41:10.113Z</time></trkpt><trkpt lat="44.0802069" lon="11.1566973"><ele>632.3333333333334</ele><time>2026-04-15T14:41:12.085Z</time></trkpt><trkpt lat="44.0802392" lon="11.1565132"><ele>633.0</ele><time>2026-04-15T14:41:13.091Z</time></trkpt><trkpt lat="44.0803077" lon="11.1563276"><ele>634.6666666666666</ele><time>2026-04-15T14:41:14.087Z</time></trkpt><trkpt lat="44.0803861" lon="11.1561392"><ele>636.3333333333333</ele><time>2026-04-15T14:41:15.107Z</time></trkpt><trkpt lat="44.0804726" lon="11.1559373"><ele>638.0</ele><time>2026-04-15T14:41:16.095Z</time></trkpt><trkpt lat="44.0805321" lon="11.1555601"><ele>633.6666666666666</ele><time>2026-04-15T14:41:18.101Z</time></trkpt><trkpt lat="44.0805123" lon="11.1553408"><ele>629.3333333333334</ele><time>2026-04-15T14:41:19.075Z</time></trkpt><trkpt lat="44.0804902" lon="11.1551529"><ele>625.0</ele><time>2026-04-15T14:41:20.079Z</time></trkpt><trkpt lat="44.0804146" lon="11.1549558"><ele>613.6666666666667</ele><time>2026-04-15T14:41:21.089Z</time></trkpt><trkpt lat="44.0803177" lon="11.1547754"><ele>602.3333333333334</ele><time>2026-04-15T14:41:22.097Z</time></trkpt><trkpt lat="44.0802128" lon="11.1545725"><ele>591.0</ele><time>2026-04-15T14:41:23.122Z</time></trkpt><trkpt lat="44.0801033" lon="11.154376"><ele>591.0</ele><time>2026-04-15T14:41:24.099Z</time></trkpt><trkpt lat="44.0799837" lon="11.154223"><ele>591.0</ele><time>2026-04-15T14:41:25.121Z</time></trkpt><trkpt lat="44.0798747" lon="11.1541135"><ele>591.0</ele><time>2026-04-15T14:41:26.099Z</time></trkpt><trkpt lat="44.0797924" lon="11.1539721"><ele>591.0</ele><time>2026-04-15T14:41:27.085Z</time></trkpt><trkpt lat="44.0797398" lon="11.1538167"><ele>588.0</ele><time>2026-04-15T14:41:28.095Z</time></trkpt><trkpt lat="44.0796701" lon="11.1536759"><ele>585.0</ele><time>2026-04-15T14:41:29.104Z</time></trkpt><trkpt lat="44.0795626" lon="11.153591"><ele>582.0</ele><time>2026-04-15T14:41:30.088Z</time></trkpt><trkpt lat="44.0794325" lon="11.1535744"><ele>579.0</ele><time>2026-04-15T14:41:31.106Z</time></trkpt><trkpt lat="44.0792798" lon="11.1536078"><ele>579.0</ele><time>2026-04-15T14:41:32.085Z</time></trkpt><trkpt lat="44.0791407" lon="11.1536275"><ele>579.0</ele><time>2026-04-15T14:41:33.071Z</time></trkpt><trkpt lat="44.0790067" lon="11.1536224"><ele>579.0</ele><time>2026-04-15T14:41:34.095Z</time></trkpt><trkpt lat="44.0788927" lon="11.1536236"><ele>579.0</ele><time>2026-04-15T14:41:35.098Z</time></trkpt><trkpt lat="44.0788077" lon="11.1536509"><ele>578.4</ele><time>2026-04-15T14:41:36.098Z</time></trkpt><trkpt lat="44.0787389" lon="11.1536633"><ele>577.8</ele><time>2026-04-15T14:41:37.076Z</time></trkpt><trkpt lat="44.0786529" lon="11.1535205"><ele>577.2</ele><time>2026-04-15T14:41:39.101Z</time></trkpt><trkpt lat="44.0786545" lon="11.1533731"><ele>576.6</ele><time>2026-04-15T14:41:40.098Z</time></trkpt><trkpt lat="44.078676" lon="11.1532316"><ele>576.0</ele><time>2026-04-15T14:41:41.105Z</time></trkpt><trkpt lat="44.0786898" lon="11.1530782"><ele>576.0</ele><time>2026-04-15T14:41:42.098Z</time></trkpt><trkpt lat="44.0786616" lon="11.1529258"><ele>576.0</ele><time>2026-04-15T14:41:43.085Z</time></trkpt><trkpt lat="44.0785646" lon="11.1527711"><ele>576.0</ele><time>2026-04-15T14:41:44.07Z</time></trkpt><trkpt lat="44.0784576" lon="11.1526405"><ele>576.0</ele><time>2026-04-15T14:41:45.092Z</time></trkpt><trkpt lat="44.0783584" lon="11.1525817"><ele>575.6</ele><time>2026-04-15T14:41:46.095Z</time></trkpt><trkpt lat="44.0782643" lon="11.1525603"><ele>575.2</ele><time>2026-04-15T14:41:47.097Z</time></trkpt><trkpt lat="44.078171" lon="11.1525548"><ele>574.8</ele><time>2026-04-15T14:41:48.091Z</time></trkpt><trkpt lat="44.0781087" lon="11.152482"><ele>574.4</ele><time>2026-04-15T14:41:49.098Z</time></trkpt><trkpt lat="44.0780896" lon="11.1523338"><ele>574.0</ele><time>2026-04-15T14:41:50.102Z</time></trkpt><trkpt lat="44.0780733" lon="11.1521899"><ele>574.0</ele><time>2026-04-15T14:41:51.098Z</time></trkpt><trkpt lat="44.0780098" lon="11.1520613"><ele>574.0</ele><time>2026-04-15T14:41:52.08Z</time></trkpt><trkpt lat="44.0778985" lon="11.1519674"><ele>574.0</ele><time>2026-04-15T14:41:53.088Z</time></trkpt><trkpt lat="44.0777853" lon="11.151872"><ele>574.0</ele><time>2026-04-15T14:41:54.1Z</time></trkpt><trkpt lat="44.0777019" lon="11.1517418"><ele>574.0</ele><time>2026-04-15T14:41:55.081Z</time></trkpt><trkpt lat="44.0776329" lon="11.1516066"><ele>574.0</ele><time>2026-04-15T14:41:56.091Z</time></trkpt><trkpt lat="44.0775557" lon="11.1515021"><ele>574.0</ele><time>2026-04-15T14:41:57.102Z</time></trkpt><trkpt lat="44.0774696" lon="11.1514181"><ele>574.0</ele><time>2026-04-15T14:41:58.067Z</time></trkpt><trkpt lat="44.0773492" lon="11.1514194"><ele>567.75</ele><time>2026-04-15T14:41:59.086Z</time></trkpt><trkpt lat="44.0772035" lon="11.1514641"><ele>561.5</ele><time>2026-04-15T14:42:00.087Z</time></trkpt><trkpt lat="44.0770929" lon="11.1514792"><ele>555.25</ele><time>2026-04-15T14:42:01.11Z</time></trkpt><trkpt lat="44.0770014" lon="11.1514384"><ele>549.0</ele><time>2026-04-15T14:42:02.087Z</time></trkpt><trkpt lat="44.0769557" lon="11.1513205"><ele>549.0</ele><time>2026-04-15T14:42:03.094Z</time></trkpt><trkpt lat="44.0769359" lon="11.151189"><ele>549.0</ele><time>2026-04-15T14:42:04.066Z</time></trkpt><trkpt lat="44.0768702" lon="11.1510619"><ele>549.0</ele><time>2026-04-15T14:42:05.091Z</time></trkpt><trkpt lat="44.0767615" lon="11.1509911"><ele>549.0</ele><time>2026-04-15T14:42:06.08Z</time></trkpt><trkpt lat="44.07661" lon="11.1509909"><ele>555.3333333333334</ele><time>2026-04-15T14:42:07.087Z</time></trkpt><trkpt lat="44.0764366" lon="11.1510103"><ele>561.6666666666667</ele><time>2026-04-15T14:42:08.085Z</time></trkpt><trkpt lat="44.0762784" lon="11.1510323"><ele>568.0</ele><time>2026-04-15T14:42:09.107Z</time></trkpt><trkpt lat="44.0761383" lon="11.1510644"><ele>568.0</ele><time>2026-04-15T14:42:10.082Z</time></trkpt><trkpt lat="44.0760223" lon="11.1510697"><ele>568.0</ele><time>2026-04-15T14:42:11.073Z</time></trkpt><trkpt lat="44.0759365" lon="11.1510164"><ele>568.0</ele><time>2026-04-15T14:42:12.07Z</time></trkpt><trkpt lat="44.0758827" lon="11.1508912"><ele>568.0</ele><time>2026-04-15T14:42:13.063Z</time></trkpt><trkpt lat="44.0758285" lon="11.150733"><ele>568.0</ele><time>2026-04-15T14:42:14.097Z</time></trkpt><trkpt lat="44.0757808" lon="11.150561"><ele>563.8</ele><time>2026-04-15T14:42:15.071Z</time></trkpt><trkpt lat="44.0757246" lon="11.1504163"><ele>559.5999999999999</ele><time>2026-04-15T14:42:16.085Z</time></trkpt><trkpt lat="44.0756483" lon="11.1503295"><ele>555.4000000000001</ele><time>2026-04-15T14:42:17.08Z</time></trkpt><trkpt lat="44.075547" lon="11.1503025"><ele>551.2</ele><time>2026-04-15T14:42:18.076Z</time></trkpt><trkpt lat="44.0754313" lon="11.1503456"><ele>547.0</ele><time>2026-04-15T14:42:19.062Z</time></trkpt><trkpt lat="44.0753142" lon="11.1503704"><ele>547.0</ele><time>2026-04-15T14:42:20.075Z</time></trkpt><trkpt lat="44.0752013" lon="11.15032"><ele>547.0</ele><time>2026-04-15T14:42:21.08Z</time></trkpt><trkpt lat="44.0750927" lon="11.1502229"><ele>547.0</ele><time>2026-04-15T14:42:22.081Z</time></trkpt><trkpt lat="44.0749764" lon="11.1501427"><ele>547.0</ele><time>2026-04-15T14:42:23.087Z</time></trkpt><trkpt lat="44.0748618" lon="11.1501251"><ele>545.5</ele><time>2026-04-15T14:42:24.078Z</time></trkpt><trkpt lat="44.0747365" lon="11.1501897"><ele>544.0</ele><time>2026-04-15T14:42:25.081Z</time></trkpt><trkpt lat="44.0746382" lon="11.1503304"><ele>542.5</ele><time>2026-04-15T14:42:26.082Z</time></trkpt><trkpt lat="44.0745449" lon="11.1504875"><ele>541.0</ele><time>2026-04-15T14:42:27.081Z</time></trkpt><trkpt lat="44.0744655" lon="11.1506119"><ele>541.0</ele><time>2026-04-15T14:42:28.093Z</time></trkpt><trkpt lat="44.0743627" lon="11.1506613"><ele>541.0</ele><time>2026-04-15T14:42:29.089Z</time></trkpt><trkpt lat="44.074263" lon="11.150622"><ele>541.0</ele><time>2026-04-15T14:42:30.068Z</time></trkpt><trkpt lat="44.0741649" lon="11.1505522"><ele>541.0</ele><time>2026-04-15T14:42:31.071Z</time></trkpt><trkpt lat="44.0740718" lon="11.1504025"><ele>551.0</ele><time>2026-04-15T14:42:32.064Z</time></trkpt><trkpt lat="44.073975" lon="11.150235"><ele>561.0</ele><time>2026-04-15T14:42:33.078Z</time></trkpt><trkpt lat="44.0737272" lon="11.1499613"><ele>551.6666666666666</ele><time>2026-04-15T14:42:35.088Z</time></trkpt><trkpt lat="44.0735726" lon="11.1498501"><ele>542.3333333333333</ele><time>2026-04-15T14:42:36.1Z</time></trkpt><trkpt lat="44.073385" lon="11.1497878"><ele>533.0</ele><time>2026-04-15T14:42:37.084Z</time></trkpt><trkpt lat="44.0731637" lon="11.1497383"><ele>533.0</ele><time>2026-04-15T14:42:38.098Z</time></trkpt><trkpt lat="44.0729371" lon="11.1496758"><ele>533.0</ele><time>2026-04-15T14:42:39.074Z</time></trkpt><trkpt lat="44.0727356" lon="11.149603"><ele>533.0</ele><time>2026-04-15T14:42:40.077Z</time></trkpt><trkpt lat="44.0725104" lon="11.1495342"><ele>529.5</ele><time>2026-04-15T14:42:41.105Z</time></trkpt><trkpt lat="44.0722783" lon="11.1495022"><ele>526.0</ele><time>2026-04-15T14:42:42.102Z</time></trkpt><trkpt lat="44.0720317" lon="11.1495133"><ele>526.0</ele><time>2026-04-15T14:42:43.079Z</time></trkpt><trkpt lat="44.0717698" lon="11.1495587"><ele>526.0</ele><time>2026-04-15T14:42:44.067Z</time></trkpt><trkpt lat="44.0713121" lon="11.1496811"><ele>522.0</ele><time>2026-04-15T14:42:46.094Z</time></trkpt><trkpt lat="44.0710892" lon="11.1497324"><ele>518.0</ele><time>2026-04-15T14:42:47.085Z</time></trkpt><trkpt lat="44.0708804" lon="11.1497503"><ele>514.0</ele><time>2026-04-15T14:42:48.082Z</time></trkpt><trkpt lat="44.0706963" lon="11.1497815"><ele>510.0</ele><time>2026-04-15T14:42:49.107Z</time></trkpt><trkpt lat="44.0705305" lon="11.1497835"><ele>506.0</ele><time>2026-04-15T14:42:50.1Z</time></trkpt><trkpt lat="44.0702731" lon="11.1496797"><ele>502.0</ele><time>2026-04-15T14:42:52.099Z</time></trkpt><trkpt lat="44.0701477" lon="11.1496453"><ele>502.0</ele><time>2026-04-15T14:42:53.106Z</time></trkpt><trkpt lat="44.0700168" lon="11.1496825"><ele>502.0</ele><time>2026-04-15T14:42:54.086Z</time></trkpt><trkpt lat="44.0699" lon="11.1498054"><ele>502.0</ele><time>2026-04-15T14:42:55.098Z</time></trkpt><trkpt lat="44.0698058" lon="11.1499797"><ele>502.0</ele><time>2026-04-15T14:42:56.084Z</time></trkpt><trkpt lat="44.0697145" lon="11.150129"><ele>510.0</ele><time>2026-04-15T14:42:57.096Z</time></trkpt><trkpt lat="44.0694388" lon="11.1502077"><ele>518.0</ele><time>2026-04-15T14:42:59.087Z</time></trkpt><trkpt lat="44.0692561" lon="11.150209"><ele>511.66666666666663</ele><time>2026-04-15T14:43:00.091Z</time></trkpt><trkpt lat="44.0690717" lon="11.1502306"><ele>505.33333333333337</ele><time>2026-04-15T14:43:01.092Z</time></trkpt><trkpt lat="44.0688867" lon="11.1502515"><ele>499.0</ele><time>2026-04-15T14:43:02.088Z</time></trkpt><trkpt lat="44.0687055" lon="11.1502621"><ele>499.0</ele><time>2026-04-15T14:43:03.092Z</time></trkpt><trkpt lat="44.0685556" lon="11.150273"><ele>499.0</ele><time>2026-04-15T14:43:04.088Z</time></trkpt><trkpt lat="44.0684261" lon="11.1503134"><ele>499.0</ele><time>2026-04-15T14:43:05.085Z</time></trkpt><trkpt lat="44.0683225" lon="11.1504112"><ele>499.0</ele><time>2026-04-15T14:43:06.089Z</time></trkpt><trkpt lat="44.0682417" lon="11.1505967"><ele>500.25</ele><time>2026-04-15T14:43:07.092Z</time></trkpt><trkpt lat="44.0681586" lon="11.1507708"><ele>501.5</ele><time>2026-04-15T14:43:08.1Z</time></trkpt><trkpt lat="44.0680677" lon="11.1508838"><ele>502.75</ele><time>2026-04-15T14:43:09.086Z</time></trkpt><trkpt lat="44.0679629" lon="11.15092"><ele>504.0</ele><time>2026-04-15T14:43:10.103Z</time></trkpt><trkpt lat="44.0678289" lon="11.150874"><ele>504.0</ele><time>2026-04-15T14:43:11.063Z</time></trkpt><trkpt lat="44.0677195" lon="11.1508164"><ele>504.0</ele><time>2026-04-15T14:43:12.087Z</time></trkpt><trkpt lat="44.067599" lon="11.1507559"><ele>504.0</ele><time>2026-04-15T14:43:13.089Z</time></trkpt><trkpt lat="44.0674681" lon="11.1507944"><ele>504.0</ele><time>2026-04-15T14:43:14.087Z</time></trkpt><trkpt lat="44.0673096" lon="11.1509268"><ele>495.5</ele><time>2026-04-15T14:43:15.082Z</time></trkpt><trkpt lat="44.0671293" lon="11.1510768"><ele>487.0</ele><time>2026-04-15T14:43:16.079Z</time></trkpt><trkpt lat="44.066768" lon="11.1513724"><ele>486.6666666666667</ele><time>2026-04-15T14:43:18.089Z</time></trkpt><trkpt lat="44.0665984" lon="11.1515277"><ele>486.33333333333337</ele><time>2026-04-15T14:43:19.087Z</time></trkpt><trkpt lat="44.0664437" lon="11.1516868"><ele>486.0</ele><time>2026-04-15T14:43:20.063Z</time></trkpt><trkpt lat="44.0663078" lon="11.1518244"><ele>486.0</ele><time>2026-04-15T14:43:21.06Z</time></trkpt><trkpt lat="44.0661764" lon="11.1519436"><ele>486.0</ele><time>2026-04-15T14:43:22.062Z</time></trkpt><trkpt lat="44.0660326" lon="11.1520368"><ele>486.0</ele><time>2026-04-15T14:43:23.088Z</time></trkpt><trkpt lat="44.0658923" lon="11.1521043"><ele>483.0</ele><time>2026-04-15T14:43:24.092Z</time></trkpt><trkpt lat="44.0657515" lon="11.1521316"><ele>480.0</ele><time>2026-04-15T14:43:25.097Z</time></trkpt><trkpt lat="44.0655926" lon="11.1521176"><ele>477.0</ele><time>2026-04-15T14:43:26.084Z</time></trkpt><trkpt lat="44.0654326" lon="11.1521036"><ele>477.0</ele><time>2026-04-15T14:43:27.082Z</time></trkpt><trkpt lat="44.0652644" lon="11.1521394"><ele>477.0</ele><time>2026-04-15T14:43:28.084Z</time></trkpt><trkpt lat="44.0651024" lon="11.1522276"><ele>477.0</ele><time>2026-04-15T14:43:29.089Z</time></trkpt><trkpt lat="44.0649482" lon="11.1523208"><ele>482.5</ele><time>2026-04-15T14:43:30.112Z</time></trkpt><trkpt lat="44.0646839" lon="11.1524478"><ele>488.0</ele><time>2026-04-15T14:43:32.08Z</time></trkpt><trkpt lat="44.0643403" lon="11.1522177"><ele>480.66666666666663</ele><time>2026-04-15T14:43:35.088Z</time></trkpt><trkpt lat="44.064222" lon="11.1520647"><ele>473.33333333333337</ele><time>2026-04-15T14:43:36.116Z</time></trkpt><trkpt lat="44.064082" lon="11.1519487"><ele>466.0</ele><time>2026-04-15T14:43:37.087Z</time></trkpt><trkpt lat="44.0639464" lon="11.1518897"><ele>463.75</ele><time>2026-04-15T14:43:38.087Z</time></trkpt><trkpt lat="44.0638036" lon="11.1519063"><ele>461.5</ele><time>2026-04-15T14:43:39.078Z</time></trkpt><trkpt lat="44.063668" lon="11.1519458"><ele>459.25</ele><time>2026-04-15T14:43:40.094Z</time></trkpt><trkpt lat="44.0635437" lon="11.1519903"><ele>457.0</ele><time>2026-04-15T14:43:41.095Z</time></trkpt><trkpt lat="44.0634362" lon="11.1520368"><ele>457.00000000000006</ele><time>2026-04-15T14:43:42.071Z</time></trkpt><trkpt lat="44.0633395" lon="11.1520764"><ele>457.0</ele><time>2026-04-15T14:43:43.087Z</time></trkpt><trkpt lat="44.063252" lon="11.1521202"><ele>457.0</ele><time>2026-04-15T14:43:44.099Z</time></trkpt><trkpt lat="44.0631722" lon="11.1521505"><ele>457.0</ele><time>2026-04-15T14:43:45.077Z</time></trkpt><trkpt lat="44.0630947" lon="11.1521974"><ele>457.00000000000006</ele><time>2026-04-15T14:43:46.101Z</time></trkpt><trkpt lat="44.063034" lon="11.1522759"><ele>457.0</ele><time>2026-04-15T14:43:47.099Z</time></trkpt><trkpt lat="44.0629972" lon="11.1524269"><ele>452.33333333333337</ele><time>2026-04-15T14:43:48.089Z</time></trkpt><trkpt lat="44.062951" lon="11.1526356"><ele>447.66666666666663</ele><time>2026-04-15T14:43:49.08Z</time></trkpt><trkpt lat="44.0628902" lon="11.1528702"><ele>443.0</ele><time>2026-04-15T14:43:50.08Z</time></trkpt><trkpt lat="44.0628228" lon="11.1531488"><ele>445.66666666666663</ele><time>2026-04-15T14:43:51.085Z</time></trkpt><trkpt lat="44.0627541" lon="11.1534335"><ele>448.33333333333337</ele><time>2026-04-15T14:43:52.095Z</time></trkpt><trkpt lat="44.0626872" lon="11.1537048"><ele>451.0</ele><time>2026-04-15T14:43:53.097Z</time></trkpt><trkpt lat="44.0626306" lon="11.1539339"><ele>452.5</ele><time>2026-04-15T14:43:54.094Z</time></trkpt><trkpt lat="44.0625874" lon="11.1541389"><ele>454.0</ele><time>2026-04-15T14:43:55.07Z</time></trkpt><trkpt lat="44.062544" lon="11.1543344"><ele>455.5</ele><time>2026-04-15T14:43:56.065Z</time></trkpt><trkpt lat="44.0625048" lon="11.1544977"><ele>457.0</ele><time>2026-04-15T14:43:57.088Z</time></trkpt><trkpt lat="44.0624302" lon="11.1546287"><ele>451.5</ele><time>2026-04-15T14:43:58.074Z</time></trkpt><trkpt lat="44.0623205" lon="11.1547063"><ele>446.0</ele><time>2026-04-15T14:43:59.087Z</time></trkpt><trkpt lat="44.0621724" lon="11.1546983"><ele>440.5</ele><time>2026-04-15T14:44:00.077Z</time></trkpt><trkpt lat="44.0620189" lon="11.1546328"><ele>435.0</ele><time>2026-04-15T14:44:01.09Z</time></trkpt><trkpt lat="44.0618686" lon="11.1545689"><ele>435.0</ele><time>2026-04-15T14:44:02.104Z</time></trkpt><trkpt lat="44.0617383" lon="11.1545028"><ele>435.0</ele><time>2026-04-15T14:44:03.095Z</time></trkpt><trkpt lat="44.0616433" lon="11.1545083"><ele>435.0</ele><time>2026-04-15T14:44:04.099Z</time></trkpt><trkpt lat="44.0615371" lon="11.1544839"><ele>435.0</ele><time>2026-04-15T14:44:05.067Z</time></trkpt><trkpt lat="44.0614633" lon="11.1545097"><ele>435.0</ele><time>2026-04-15T14:44:06.064Z</time></trkpt><trkpt lat="44.0614126" lon="11.1546593"><ele>436.66666666666663</ele><time>2026-04-15T14:44:07.07Z</time></trkpt><trkpt lat="44.0613407" lon="11.1548656"><ele>438.3333333333333</ele><time>2026-04-15T14:44:08.099Z</time></trkpt><trkpt lat="44.0612442" lon="11.155061"><ele>440.0</ele><time>2026-04-15T14:44:09.079Z</time></trkpt><trkpt lat="44.0611538" lon="11.1552631"><ele>440.0</ele><time>2026-04-15T14:44:10.092Z</time></trkpt><trkpt lat="44.0610888" lon="11.1554839"><ele>440.0</ele><time>2026-04-15T14:44:11.078Z</time></trkpt><trkpt lat="44.0610449" lon="11.155733"><ele>440.0</ele><time>2026-04-15T14:44:12.1Z</time></trkpt><trkpt lat="44.0610059" lon="11.1559645"><ele>440.4</ele><time>2026-04-15T14:44:13.098Z</time></trkpt><trkpt lat="44.0609755" lon="11.1561508"><ele>440.8</ele><time>2026-04-15T14:44:14.081Z</time></trkpt><trkpt lat="44.0609436" lon="11.1562979"><ele>441.20000000000005</ele><time>2026-04-15T14:44:15.077Z</time></trkpt><trkpt lat="44.0608968" lon="11.1564147"><ele>441.6</ele><time>2026-04-15T14:44:16.09Z</time></trkpt><trkpt lat="44.0608175" lon="11.15649"><ele>442.0</ele><time>2026-04-15T14:44:17.09Z</time></trkpt><trkpt lat="44.0607337" lon="11.1564756"><ele>438.25</ele><time>2026-04-15T14:44:18.056Z</time></trkpt><trkpt lat="44.0606533" lon="11.1563951"><ele>434.5</ele><time>2026-04-15T14:44:19.079Z</time></trkpt><trkpt lat="44.0605661" lon="11.1562419"><ele>430.75</ele><time>2026-04-15T14:44:20.085Z</time></trkpt><trkpt lat="44.0604512" lon="11.1560396"><ele>427.0</ele><time>2026-04-15T14:44:21.067Z</time></trkpt><trkpt lat="44.0603325" lon="11.155842"><ele>426.6666666666667</ele><time>2026-04-15T14:44:22.08Z</time></trkpt><trkpt lat="44.0602413" lon="11.1556639"><ele>426.33333333333337</ele><time>2026-04-15T14:44:23.062Z</time></trkpt><trkpt lat="44.0601583" lon="11.1554975"><ele>426.0</ele><time>2026-04-15T14:44:24.082Z</time></trkpt><trkpt lat="44.0601259" lon="11.1552029"><ele>426.0</ele><time>2026-04-15T14:44:26.093Z</time></trkpt><trkpt lat="44.0601551" lon="11.1550376"><ele>426.0</ele><time>2026-04-15T14:44:27.061Z</time></trkpt><trkpt lat="44.0602288" lon="11.1548522"><ele>426.0</ele><time>2026-04-15T14:44:28.066Z</time></trkpt><trkpt lat="44.0603077" lon="11.1546535"><ele>426.0</ele><time>2026-04-15T14:44:29.072Z</time></trkpt><trkpt lat="44.06039" lon="11.154463"><ele>423.0</ele><time>2026-04-15T14:44:30.076Z</time></trkpt><trkpt lat="44.0604581" lon="11.1543022"><ele>420.0</ele><time>2026-04-15T14:44:31.086Z</time></trkpt><trkpt lat="44.0605317" lon="11.154189"><ele>417.0</ele><time>2026-04-15T14:44:32.067Z</time></trkpt><trkpt lat="44.0606295" lon="11.1541237"><ele>414.0</ele><time>2026-04-15T14:44:33.086Z</time></trkpt><trkpt lat="44.0607583" lon="11.1541146"><ele>417.66666666666663</ele><time>2026-04-15T14:44:34.067Z</time></trkpt><trkpt lat="44.0609166" lon="11.1541114"><ele>421.3333333333333</ele><time>2026-04-15T14:44:35.067Z</time></trkpt><trkpt lat="44.0610887" lon="11.154041"><ele>425.0</ele><time>2026-04-15T14:44:36.071Z</time></trkpt><trkpt lat="44.0612683" lon="11.1539547"><ele>422.0</ele><time>2026-04-15T14:44:37.074Z</time></trkpt><trkpt lat="44.0614225" lon="11.1538844"><ele>419.0</ele><time>2026-04-15T14:44:38.087Z</time></trkpt><trkpt lat="44.0615476" lon="11.1538375"><ele>416.0</ele><time>2026-04-15T14:44:39.084Z</time></trkpt><trkpt lat="44.0616509" lon="11.1537819"><ele>413.0</ele><time>2026-04-15T14:44:40.07Z</time></trkpt><trkpt lat="44.0617306" lon="11.1536612"><ele>413.0</ele><time>2026-04-15T14:44:41.091Z</time></trkpt><trkpt lat="44.0617557" lon="11.1534915"><ele>413.0</ele><time>2026-04-15T14:44:42.117Z</time></trkpt><trkpt lat="44.0617529" lon="11.1532688"><ele>413.0</ele><time>2026-04-15T14:44:43.081Z</time></trkpt><trkpt lat="44.0617545" lon="11.1530372"><ele>411.25</ele><time>2026-04-15T14:44:44.084Z</time></trkpt><trkpt lat="44.0617505" lon="11.1528309"><ele>409.5</ele><time>2026-04-15T14:44:45.086Z</time></trkpt><trkpt lat="44.061747" lon="11.152659"><ele>407.75</ele><time>2026-04-15T14:44:46.069Z</time></trkpt><trkpt lat="44.0617675" lon="11.1525159"><ele>406.0</ele><time>2026-04-15T14:44:47.091Z</time></trkpt><trkpt lat="44.061847" lon="11.1523921"><ele>400.75</ele><time>2026-04-15T14:44:48.091Z</time></trkpt><trkpt lat="44.0619398" lon="11.1522719"><ele>395.5</ele><time>2026-04-15T14:44:49.057Z</time></trkpt><trkpt lat="44.0620029" lon="11.152099"><ele>390.25</ele><time>2026-04-15T14:44:50.085Z</time></trkpt><trkpt lat="44.0620481" lon="11.1518686"><ele>385.0</ele><time>2026-04-15T14:44:51.093Z</time></trkpt><trkpt lat="44.0621181" lon="11.151635"><ele>379.0</ele><time>2026-04-15T14:44:52.097Z</time></trkpt><trkpt lat="44.0621955" lon="11.1513869"><ele>373.0</ele><time>2026-04-15T14:44:53.073Z</time></trkpt><trkpt lat="44.0622533" lon="11.1511406"><ele>367.0</ele><time>2026-04-15T14:44:54.068Z</time></trkpt><trkpt lat="44.0622894" lon="11.1508819"><ele>363.0</ele><time>2026-04-15T14:44:55.07Z</time></trkpt><trkpt lat="44.062304" lon="11.1504467"><ele>359.0</ele><time>2026-04-15T14:44:57.09Z</time></trkpt><trkpt lat="44.0623123" lon="11.1502562"><ele>359.0</ele><time>2026-04-15T14:44:58.089Z</time></trkpt><trkpt lat="44.0623709" lon="11.1501108"><ele>359.0</ele><time>2026-04-15T14:44:59.088Z</time></trkpt><trkpt lat="44.0624782" lon="11.1500301"><ele>359.0</ele><time>2026-04-15T14:45:00.08Z</time></trkpt><trkpt lat="44.0626188" lon="11.1499921"><ele>359.0</ele><time>2026-04-15T14:45:01.078Z</time></trkpt><trkpt lat="44.0627491" lon="11.1499739"><ele>360.6666666666667</ele><time>2026-04-15T14:45:02.077Z</time></trkpt><trkpt lat="44.0628539" lon="11.1499952"><ele>362.33333333333337</ele><time>2026-04-15T14:45:03.074Z</time></trkpt><trkpt lat="44.062925" lon="11.1500642"><ele>364.0</ele><time>2026-04-15T14:45:04.086Z</time></trkpt><trkpt lat="44.0630114" lon="11.1501046"><ele>365.6666666666667</ele><time>2026-04-15T14:45:05.095Z</time></trkpt><trkpt lat="44.0630858" lon="11.1500801"><ele>367.3333333333333</ele><time>2026-04-15T14:45:06.064Z</time></trkpt><trkpt lat="44.0631459" lon="11.1499904"><ele>369.0</ele><time>2026-04-15T14:45:07.082Z</time></trkpt><trkpt lat="44.0631546" lon="11.1498434"><ele>369.0</ele><time>2026-04-15T14:45:08.103Z</time></trkpt><trkpt lat="44.0631122" lon="11.1496832"><ele>369.0</ele><time>2026-04-15T14:45:09.095Z</time></trkpt><trkpt lat="44.0630277" lon="11.149497"><ele>369.0</ele><time>2026-04-15T14:45:10.085Z</time></trkpt><trkpt lat="44.0629681" lon="11.1493227"><ele>369.0</ele><time>2026-04-15T14:45:11.087Z</time></trkpt><trkpt lat="44.06293" lon="11.1491595"><ele>364.0</ele><time>2026-04-15T14:45:12.079Z</time></trkpt><trkpt lat="44.0629349" lon="11.1490033"><ele>359.0</ele><time>2026-04-15T14:45:13.059Z</time></trkpt><trkpt lat="44.0629976" lon="11.1488613"><ele>354.0</ele><time>2026-04-15T14:45:14.121Z</time></trkpt><trkpt lat="44.0631001" lon="11.1487179"><ele>349.0</ele><time>2026-04-15T14:45:15.096Z</time></trkpt><trkpt lat="44.063205" lon="11.1485515"><ele>353.3333333333333</ele><time>2026-04-15T14:45:16.089Z</time></trkpt><trkpt lat="44.063295" lon="11.1483521"><ele>357.6666666666667</ele><time>2026-04-15T14:45:17.083Z</time></trkpt><trkpt lat="44.0633436" lon="11.1481319"><ele>362.0</ele><time>2026-04-15T14:45:18.098Z</time></trkpt><trkpt lat="44.0633957" lon="11.1479062"><ele>362.0</ele><time>2026-04-15T14:45:19.065Z</time></trkpt><trkpt lat="44.0634626" lon="11.1477208"><ele>362.0</ele><time>2026-04-15T14:45:20.092Z</time></trkpt><trkpt lat="44.0635383" lon="11.1475801"><ele>362.0</ele><time>2026-04-15T14:45:21.077Z</time></trkpt><trkpt lat="44.0636345" lon="11.1474632"><ele>362.0</ele><time>2026-04-15T14:45:22.067Z</time></trkpt><trkpt lat="44.0637668" lon="11.1473793"><ele>362.5</ele><time>2026-04-15T14:45:23.074Z</time></trkpt><trkpt lat="44.0639039" lon="11.1473063"><ele>363.0</ele><time>2026-04-15T14:45:24.06Z</time></trkpt><trkpt lat="44.064027" lon="11.1472939"><ele>363.5</ele><time>2026-04-15T14:45:25.082Z</time></trkpt><trkpt lat="44.0641412" lon="11.1472812"><ele>364.0</ele><time>2026-04-15T14:45:26.09Z</time></trkpt><trkpt lat="44.0642356" lon="11.1472115"><ele>364.0</ele><time>2026-04-15T14:45:27.07Z</time></trkpt><trkpt lat="44.0642983" lon="11.1470777"><ele>364.0</ele><time>2026-04-15T14:45:28.099Z</time></trkpt><trkpt lat="44.0643537" lon="11.1469504"><ele>364.0</ele><time>2026-04-15T14:45:29.069Z</time></trkpt><trkpt lat="44.0644351" lon="11.1468804"><ele>364.0</ele><time>2026-04-15T14:45:30.063Z</time></trkpt><trkpt lat="44.0645514" lon="11.1469052"><ele>364.0</ele><time>2026-04-15T14:45:31.052Z</time></trkpt><trkpt lat="44.0646686" lon="11.1469855"><ele>364.0</ele><time>2026-04-15T14:45:32.087Z</time></trkpt><trkpt lat="44.0647881" lon="11.1470732"><ele>364.0</ele><time>2026-04-15T14:45:33.073Z</time></trkpt><trkpt lat="44.0649036" lon="11.1471144"><ele>364.0</ele><time>2026-04-15T14:45:34.075Z</time></trkpt><trkpt lat="44.0650191" lon="11.1471018"><ele>364.0</ele><time>2026-04-15T14:45:35.07Z</time></trkpt><trkpt lat="44.065116" lon="11.1470387"><ele>366.0</ele><time>2026-04-15T14:45:36.069Z</time></trkpt><trkpt lat="44.065175" lon="11.1469365"><ele>368.0</ele><time>2026-04-15T14:45:37.088Z</time></trkpt><trkpt lat="44.0651885" lon="11.1467904"><ele>370.0</ele><time>2026-04-15T14:45:38.085Z</time></trkpt><trkpt lat="44.065177" lon="11.1466494"><ele>372.0</ele><time>2026-04-15T14:45:39.068Z</time></trkpt><trkpt lat="44.0651015" lon="11.1465726"><ele>374.0</ele><time>2026-04-15T14:45:40.064Z</time></trkpt><trkpt lat="44.0649818" lon="11.1465053"><ele>372.6666666666667</ele><time>2026-04-15T14:45:41.058Z</time></trkpt><trkpt lat="44.0648328" lon="11.1464263"><ele>371.3333333333333</ele><time>2026-04-15T14:45:42.054Z</time></trkpt><trkpt lat="44.0646906" lon="11.1462939"><ele>370.0</ele><time>2026-04-15T14:45:43.062Z</time></trkpt><trkpt lat="44.0645566" lon="11.1461579"><ele>370.0</ele><time>2026-04-15T14:45:44.057Z</time></trkpt><trkpt lat="44.0644048" lon="11.1460484"><ele>370.0</ele><time>2026-04-15T14:45:45.058Z</time></trkpt><trkpt lat="44.0642363" lon="11.1459559"><ele>370.0</ele><time>2026-04-15T14:45:46.074Z</time></trkpt><trkpt lat="44.0639463" lon="11.1458771"><ele>366.75</ele><time>2026-04-15T14:45:48.081Z</time></trkpt><trkpt lat="44.0638435" lon="11.1458049"><ele>363.5</ele><time>2026-04-15T14:45:49.062Z</time></trkpt><trkpt lat="44.0637368" lon="11.1457015"><ele>360.25</ele><time>2026-04-15T14:45:50.084Z</time></trkpt><trkpt lat="44.0636658" lon="11.1455665"><ele>357.0</ele><time>2026-04-15T14:45:51.054Z</time></trkpt><trkpt lat="44.0636093" lon="11.1454329"><ele>363.20000000000005</ele><time>2026-04-15T14:45:52.049Z</time></trkpt><trkpt lat="44.0635415" lon="11.1453395"><ele>369.4</ele><time>2026-04-15T14:45:53.066Z</time></trkpt><trkpt lat="44.0634689" lon="11.1452791"><ele>375.6</ele><time>2026-04-15T14:45:54.069Z</time></trkpt><trkpt lat="44.0633756" lon="11.1452903"><ele>381.79999999999995</ele><time>2026-04-15T14:45:55.063Z</time></trkpt><trkpt lat="44.0632892" lon="11.1453963"><ele>388.0</ele><time>2026-04-15T14:45:56.062Z</time></trkpt><trkpt lat="44.0632021" lon="11.1455534"><ele>392.33333333333337</ele><time>2026-04-15T14:45:57.058Z</time></trkpt><trkpt lat="44.0631023" lon="11.1457246"><ele>396.66666666666663</ele><time>2026-04-15T14:45:58.085Z</time></trkpt><trkpt lat="44.0630156" lon="11.1459181"><ele>401.0</ele><time>2026-04-15T14:45:59.083Z</time></trkpt><trkpt lat="44.0629639" lon="11.146124"><ele>401.0</ele><time>2026-04-15T14:46:00.071Z</time></trkpt><trkpt lat="44.0629168" lon="11.1463165"><ele>401.0</ele><time>2026-04-15T14:46:01.083Z</time></trkpt><trkpt lat="44.0628626" lon="11.1465073"><ele>401.0</ele><time>2026-04-15T14:46:02.078Z</time></trkpt><trkpt lat="44.0627882" lon="11.1466831"><ele>401.0</ele><time>2026-04-15T14:46:03.076Z</time></trkpt><trkpt lat="44.0627035" lon="11.1468553"><ele>407.0</ele><time>2026-04-15T14:46:04.087Z</time></trkpt><trkpt lat="44.0626005" lon="11.1470271"><ele>413.0</ele><time>2026-04-15T14:46:05.082Z</time></trkpt><trkpt lat="44.0624643" lon="11.1471917"><ele>419.0</ele><time>2026-04-15T14:46:06.094Z</time></trkpt><trkpt lat="44.0623009" lon="11.1473697"><ele>401.3333333333333</ele><time>2026-04-15T14:46:07.073Z</time></trkpt><trkpt lat="44.0621258" lon="11.1475412"><ele>383.66666666666663</ele><time>2026-04-15T14:46:08.081Z</time></trkpt><trkpt lat="44.0619361" lon="11.1476996"><ele>366.0</ele><time>2026-04-15T14:46:09.075Z</time></trkpt><trkpt lat="44.0617611" lon="11.1478551"><ele>370.0</ele><time>2026-04-15T14:46:10.086Z</time></trkpt><trkpt lat="44.0616037" lon="11.1479815"><ele>374.0</ele><time>2026-04-15T14:46:11.072Z</time></trkpt><trkpt lat="44.0614566" lon="11.1481217"><ele>378.0</ele><time>2026-04-15T14:46:12.063Z</time></trkpt><trkpt lat="44.0612374" lon="11.1485312"><ele>378.0</ele><time>2026-04-15T14:46:14.05Z</time></trkpt><trkpt lat="44.0611324" lon="11.1487314"><ele>378.0</ele><time>2026-04-15T14:46:15.071Z</time></trkpt><trkpt lat="44.0607386" lon="11.1493014"><ele>382.66666666666663</ele><time>2026-04-15T14:46:18.083Z</time></trkpt><trkpt lat="44.0605985" lon="11.1495053"><ele>387.3333333333333</ele><time>2026-04-15T14:46:19.057Z</time></trkpt><trkpt lat="44.060491" lon="11.1497298"><ele>392.0</ele><time>2026-04-15T14:46:20.08Z</time></trkpt><trkpt lat="44.0604109" lon="11.1499503"><ele>378.75</ele><time>2026-04-15T14:46:21.066Z</time></trkpt><trkpt lat="44.0603381" lon="11.1501413"><ele>365.5</ele><time>2026-04-15T14:46:22.085Z</time></trkpt><trkpt lat="44.0602704" lon="11.1502876"><ele>352.25</ele><time>2026-04-15T14:46:23.085Z</time></trkpt><trkpt lat="44.0601902" lon="11.1503716"><ele>339.0</ele><time>2026-04-15T14:46:24.058Z</time></trkpt><trkpt lat="44.0600752" lon="11.1503728"><ele>347.0</ele><time>2026-04-15T14:46:25.062Z</time></trkpt><trkpt lat="44.0599222" lon="11.150374"><ele>355.0</ele><time>2026-04-15T14:46:26.078Z</time></trkpt><trkpt lat="44.059751" lon="11.1504037"><ele>363.0</ele><time>2026-04-15T14:46:27.074Z</time></trkpt><trkpt lat="44.0595704" lon="11.1505022"><ele>363.0</ele><time>2026-04-15T14:46:28.085Z</time></trkpt><trkpt lat="44.0593736" lon="11.1506262"><ele>363.0</ele><time>2026-04-15T14:46:29.066Z</time></trkpt><trkpt lat="44.0591637" lon="11.1507528"><ele>363.0</ele><time>2026-04-15T14:46:30.056Z</time></trkpt><trkpt lat="44.0589377" lon="11.1508952"><ele>358.5</ele><time>2026-04-15T14:46:31.078Z</time></trkpt><trkpt lat="44.0587051" lon="11.1510975"><ele>354.0</ele><time>2026-04-15T14:46:32.082Z</time></trkpt><trkpt lat="44.0584592" lon="11.1513283"><ele>362.5</ele><time>2026-04-15T14:46:33.057Z</time></trkpt><trkpt lat="44.0582238" lon="11.1515291"><ele>371.0</ele><time>2026-04-15T14:46:34.075Z</time></trkpt><trkpt lat="44.0579996" lon="11.1517119"><ele>357.6666666666667</ele><time>2026-04-15T14:46:35.089Z</time></trkpt><trkpt lat="44.0577952" lon="11.1518767"><ele>344.3333333333333</ele><time>2026-04-15T14:46:36.071Z</time></trkpt><trkpt lat="44.0576161" lon="11.1520198"><ele>331.0</ele><time>2026-04-15T14:46:37.059Z</time></trkpt><trkpt lat="44.0574686" lon="11.1521458"><ele>331.75</ele><time>2026-04-15T14:46:38.086Z</time></trkpt><trkpt lat="44.0573381" lon="11.1522445"><ele>332.5</ele><time>2026-04-15T14:46:39.064Z</time></trkpt><trkpt lat="44.0572045" lon="11.1522983"><ele>333.25</ele><time>2026-04-15T14:46:40.083Z</time></trkpt><trkpt lat="44.0570651" lon="11.1523064"><ele>334.0</ele><time>2026-04-15T14:46:41.052Z</time></trkpt><trkpt lat="44.056919" lon="11.1522679"><ele>334.0</ele><time>2026-04-15T14:46:42.08Z</time></trkpt><trkpt lat="44.0567742" lon="11.1521969"><ele>334.0</ele><time>2026-04-15T14:46:43.079Z</time></trkpt><trkpt lat="44.056616" lon="11.152155"><ele>334.0</ele><time>2026-04-15T14:46:44.083Z</time></trkpt><trkpt lat="44.056453" lon="11.1521853"><ele>339.66666666666663</ele><time>2026-04-15T14:46:45.084Z</time></trkpt><trkpt lat="44.0562809" lon="11.1522425"><ele>345.3333333333333</ele><time>2026-04-15T14:46:46.08Z</time></trkpt><trkpt lat="44.0561197" lon="11.152285"><ele>351.0</ele><time>2026-04-15T14:46:47.076Z</time></trkpt><trkpt lat="44.0559629" lon="11.1523152"><ele>351.0</ele><time>2026-04-15T14:46:48.075Z</time></trkpt><trkpt lat="44.0558194" lon="11.1523508"><ele>351.0</ele><time>2026-04-15T14:46:49.055Z</time></trkpt><trkpt lat="44.0556807" lon="11.1523994"><ele>351.0</ele><time>2026-04-15T14:46:50.088Z</time></trkpt><trkpt lat="44.0555548" lon="11.1524698"><ele>351.0</ele><time>2026-04-15T14:46:51.068Z</time></trkpt><trkpt lat="44.0554308" lon="11.1525785"><ele>346.20000000000005</ele><time>2026-04-15T14:46:52.078Z</time></trkpt><trkpt lat="44.0553156" lon="11.1526792"><ele>341.40000000000003</ele><time>2026-04-15T14:46:53.067Z</time></trkpt><trkpt lat="44.0552154" lon="11.152774"><ele>336.6</ele><time>2026-04-15T14:46:54.066Z</time></trkpt><trkpt lat="44.0551448" lon="11.1528242"><ele>331.8</ele><time>2026-04-15T14:46:55.068Z</time></trkpt><trkpt lat="44.055063" lon="11.1528817"><ele>327.0</ele><time>2026-04-15T14:46:56.074Z</time></trkpt><trkpt lat="44.0549889" lon="11.1529309"><ele>325.8</ele><time>2026-04-15T14:46:57.068Z</time></trkpt><trkpt lat="44.0549224" lon="11.1529894"><ele>324.6</ele><time>2026-04-15T14:46:58.084Z</time></trkpt><trkpt lat="44.0548612" lon="11.1530724"><ele>323.40000000000003</ele><time>2026-04-15T14:46:59.076Z</time></trkpt><trkpt lat="44.0547918" lon="11.1531899"><ele>322.20000000000005</ele><time>2026-04-15T14:47:00.092Z</time></trkpt><trkpt lat="44.0547113" lon="11.1533217"><ele>321.0</ele><time>2026-04-15T14:47:01.05Z</time></trkpt><trkpt lat="44.0546253" lon="11.1534713"><ele>321.0</ele><time>2026-04-15T14:47:02.076Z</time></trkpt><trkpt lat="44.0544433" lon="11.153773"><ele>321.0</ele><time>2026-04-15T14:47:04.059Z</time></trkpt><trkpt lat="44.0543536" lon="11.153916"><ele>321.0</ele><time>2026-04-15T14:47:05.063Z</time></trkpt><trkpt lat="44.05426" lon="11.1540441"><ele>315.5</ele><time>2026-04-15T14:47:06.079Z</time></trkpt><trkpt lat="44.054174" lon="11.1541705"><ele>310.0</ele><time>2026-04-15T14:47:07.086Z</time></trkpt><trkpt lat="44.0540713" lon="11.1542933"><ele>304.5</ele><time>2026-04-15T14:47:08.075Z</time></trkpt><trkpt lat="44.053997" lon="11.1544349"><ele>299.0</ele><time>2026-04-15T14:47:09.06Z</time></trkpt><trkpt lat="44.0539336" lon="11.1545645"><ele>299.0</ele><time>2026-04-15T14:47:10.08Z</time></trkpt><trkpt lat="44.053865" lon="11.1546817"><ele>299.0</ele><time>2026-04-15T14:47:11.061Z</time></trkpt><trkpt lat="44.0538078" lon="11.1548103"><ele>299.0</ele><time>2026-04-15T14:47:12.062Z</time></trkpt><trkpt lat="44.0537336" lon="11.1549135"><ele>299.0</ele><time>2026-04-15T14:47:13.057Z</time></trkpt><trkpt lat="44.0536608" lon="11.1550125"><ele>299.0</ele><time>2026-04-15T14:47:14.06Z</time></trkpt><trkpt lat="44.0535901" lon="11.155105"><ele>297.25</ele><time>2026-04-15T14:47:15.072Z</time></trkpt><trkpt lat="44.0535135" lon="11.1551958"><ele>295.5</ele><time>2026-04-15T14:47:16.063Z</time></trkpt><trkpt lat="44.0534314" lon="11.1553005"><ele>293.75</ele><time>2026-04-15T14:47:17.066Z</time></trkpt><trkpt lat="44.0533179" lon="11.1554017"><ele>292.0</ele><time>2026-04-15T14:47:18.084Z</time></trkpt><trkpt lat="44.0531828" lon="11.1554854"><ele>292.0</ele><time>2026-04-15T14:47:19.069Z</time></trkpt><trkpt lat="44.0530386" lon="11.155577"><ele>292.0</ele><time>2026-04-15T14:47:20.05Z</time></trkpt><trkpt lat="44.0528878" lon="11.1556757"><ele>292.0</ele><time>2026-04-15T14:47:21.081Z</time></trkpt><trkpt lat="44.0527384" lon="11.1557768"><ele>289.66666666666663</ele><time>2026-04-15T14:47:22.064Z</time></trkpt><trkpt lat="44.0525908" lon="11.1558815"><ele>287.3333333333333</ele><time>2026-04-15T14:47:23.085Z</time></trkpt><trkpt lat="44.0524451" lon="11.1559774"><ele>285.0</ele><time>2026-04-15T14:47:24.072Z</time></trkpt><trkpt lat="44.0523009" lon="11.1560621"><ele>285.0</ele><time>2026-04-15T14:47:25.074Z</time></trkpt><trkpt lat="44.0521574" lon="11.1561462"><ele>285.0</ele><time>2026-04-15T14:47:26.067Z</time></trkpt><trkpt lat="44.0520099" lon="11.1562282"><ele>285.0</ele><time>2026-04-15T14:47:27.075Z</time></trkpt><trkpt lat="44.0518664" lon="11.1562953"><ele>285.0</ele><time>2026-04-15T14:47:28.072Z</time></trkpt><trkpt lat="44.0517185" lon="11.1563368"><ele>285.0</ele><time>2026-04-15T14:47:29.079Z</time></trkpt><trkpt lat="44.0515602" lon="11.1563614"><ele>285.0</ele><time>2026-04-15T14:47:30.062Z</time></trkpt><trkpt lat="44.0514007" lon="11.1563751"><ele>284.0</ele><time>2026-04-15T14:47:31.038Z</time></trkpt><trkpt lat="44.0512449" lon="11.1563903"><ele>283.0</ele><time>2026-04-15T14:47:32.057Z</time></trkpt><trkpt lat="44.0511078" lon="11.1563979"><ele>282.0</ele><time>2026-04-15T14:47:33.077Z</time></trkpt><trkpt lat="44.0509583" lon="11.1564259"><ele>281.0</ele><time>2026-04-15T14:47:34.081Z</time></trkpt><trkpt lat="44.0508261" lon="11.1564261"><ele>283.5</ele><time>2026-04-15T14:47:35.051Z</time></trkpt><trkpt lat="44.0507003" lon="11.1564208"><ele>286.0</ele><time>2026-04-15T14:47:36.083Z</time></trkpt><trkpt lat="44.0505688" lon="11.156429"><ele>288.5</ele><time>2026-04-15T14:47:37.079Z</time></trkpt><trkpt lat="44.0504211" lon="11.1564435"><ele>291.0</ele><time>2026-04-15T14:47:38.083Z</time></trkpt><trkpt lat="44.0501137" lon="11.156488"><ele>291.0</ele><time>2026-04-15T14:47:40.088Z</time></trkpt><trkpt lat="44.0499554" lon="11.1565078"><ele>291.0</ele><time>2026-04-15T14:47:41.077Z</time></trkpt><trkpt lat="44.0497985" lon="11.1565236"><ele>291.0</ele><time>2026-04-15T14:47:42.077Z</time></trkpt><trkpt lat="44.0496473" lon="11.1565425"><ele>291.0</ele><time>2026-04-15T14:47:43.076Z</time></trkpt><trkpt lat="44.0495052" lon="11.1565373"><ele>291.0</ele><time>2026-04-15T14:47:44.08Z</time></trkpt><trkpt lat="44.0493565" lon="11.1565086"><ele>291.0</ele><time>2026-04-15T14:47:45.101Z</time></trkpt><trkpt lat="44.0491936" lon="11.1564574"><ele>284.3333333333333</ele><time>2026-04-15T14:47:46.062Z</time></trkpt><trkpt lat="44.0490192" lon="11.1563966"><ele>277.66666666666663</ele><time>2026-04-15T14:47:47.046Z</time></trkpt><trkpt lat="44.0488446" lon="11.1563339"><ele>271.0</ele><time>2026-04-15T14:47:48.052Z</time></trkpt><trkpt lat="44.0485465" lon="11.1562083"><ele>271.0</ele><time>2026-04-15T14:47:50.065Z</time></trkpt><trkpt lat="44.0483995" lon="11.1561347"><ele>271.0</ele><time>2026-04-15T14:47:51.037Z</time></trkpt><trkpt lat="44.0482665" lon="11.1560361"><ele>271.0</ele><time>2026-04-15T14:47:52.055Z</time></trkpt><trkpt lat="44.0481591" lon="11.1559037"><ele>269.3333333333333</ele><time>2026-04-15T14:47:53.061Z</time></trkpt><trkpt lat="44.0480837" lon="11.1557318"><ele>267.6666666666667</ele><time>2026-04-15T14:47:54.056Z</time></trkpt><trkpt lat="44.0480291" lon="11.1555379"><ele>266.0</ele><time>2026-04-15T14:47:55.06Z</time></trkpt><trkpt lat="44.0480006" lon="11.1553153"><ele>265.6666666666667</ele><time>2026-04-15T14:47:56.088Z</time></trkpt><trkpt lat="44.0480087" lon="11.1550921"><ele>265.3333333333333</ele><time>2026-04-15T14:47:57.074Z</time></trkpt><trkpt lat="44.0480409" lon="11.1548743"><ele>265.0</ele><time>2026-04-15T14:47:58.078Z</time></trkpt><trkpt lat="44.0480872" lon="11.1546528"><ele>265.0</ele><time>2026-04-15T14:47:59.046Z</time></trkpt><trkpt lat="44.0480993" lon="11.1544116"><ele>265.0</ele><time>2026-04-15T14:48:00.06Z</time></trkpt><trkpt lat="44.0480591" lon="11.1541563"><ele>265.0</ele><time>2026-04-15T14:48:01.035Z</time></trkpt><trkpt lat="44.0480044" lon="11.1539303"><ele>266.2</ele><time>2026-04-15T14:48:02.082Z</time></trkpt><trkpt lat="44.0479432" lon="11.1537769"><ele>267.4</ele><time>2026-04-15T14:48:03.057Z</time></trkpt><trkpt lat="44.0478662" lon="11.1536796"><ele>268.6</ele><time>2026-04-15T14:48:04.062Z</time></trkpt><trkpt lat="44.047787" lon="11.1535984"><ele>269.8</ele><time>2026-04-15T14:48:05.06Z</time></trkpt><trkpt lat="44.0477182" lon="11.1535207"><ele>271.0</ele><time>2026-04-15T14:48:06.067Z</time></trkpt><trkpt lat="44.0476454" lon="11.1534295"><ele>271.0</ele><time>2026-04-15T14:48:07.057Z</time></trkpt><trkpt lat="44.0475611" lon="11.1533152"><ele>271.0</ele><time>2026-04-15T14:48:08.05Z</time></trkpt><trkpt lat="44.0474662" lon="11.1531839"><ele>271.0</ele><time>2026-04-15T14:48:09.059Z</time></trkpt><trkpt lat="44.0473785" lon="11.1530126"><ele>271.0</ele><time>2026-04-15T14:48:10.067Z</time></trkpt><trkpt lat="44.0472829" lon="11.1528356"><ele>271.3333333333333</ele><time>2026-04-15T14:48:11.062Z</time></trkpt><trkpt lat="44.0471984" lon="11.1526548"><ele>271.6666666666667</ele><time>2026-04-15T14:48:12.075Z</time></trkpt><trkpt lat="44.0471173" lon="11.1524605"><ele>272.0</ele><time>2026-04-15T14:48:13.075Z</time></trkpt><trkpt lat="44.0470342" lon="11.1522569"><ele>272.0</ele><time>2026-04-15T14:48:14.082Z</time></trkpt><trkpt lat="44.046954" lon="11.1520613"><ele>272.0</ele><time>2026-04-15T14:48:15.077Z</time></trkpt><trkpt lat="44.0468691" lon="11.1518935"><ele>272.0</ele><time>2026-04-15T14:48:16.072Z</time></trkpt><trkpt lat="44.0467727" lon="11.1517405"><ele>272.0</ele><time>2026-04-15T14:48:17.059Z</time></trkpt><trkpt lat="44.0466709" lon="11.151615"><ele>272.0</ele><time>2026-04-15T14:48:18.056Z</time></trkpt><trkpt lat="44.0465664" lon="11.15152"><ele>272.0</ele><time>2026-04-15T14:48:19.045Z</time></trkpt><trkpt lat="44.0464798" lon="11.1514344"><ele>272.0</ele><time>2026-04-15T14:48:20.055Z</time></trkpt><trkpt lat="44.0463992" lon="11.1513525"><ele>271.0</ele><time>2026-04-15T14:48:21.07Z</time></trkpt><trkpt lat="44.0463321" lon="11.1512914"><ele>270.0</ele><time>2026-04-15T14:48:22.041Z</time></trkpt><trkpt lat="44.0462595" lon="11.1512408"><ele>269.0</ele><time>2026-04-15T14:48:23.07Z</time></trkpt><trkpt lat="44.0461814" lon="11.1512051"><ele>268.0</ele><time>2026-04-15T14:48:24.067Z</time></trkpt><trkpt lat="44.0461053" lon="11.1511914"><ele>267.0</ele><time>2026-04-15T14:48:25.061Z</time></trkpt><trkpt lat="44.0460431" lon="11.151175"><ele>266.0</ele><time>2026-04-15T14:48:26.037Z</time></trkpt><trkpt lat="44.0459178" lon="11.1511875"><ele>266.0</ele><time>2026-04-15T14:48:28.047Z</time></trkpt><trkpt lat="44.0458399" lon="11.1511832"><ele>266.0</ele><time>2026-04-15T14:48:29.031Z</time></trkpt><trkpt lat="44.0457592" lon="11.1511856"><ele>266.0</ele><time>2026-04-15T14:48:30.04Z</time></trkpt><trkpt lat="44.0456854" lon="11.1511607"><ele>266.0</ele><time>2026-04-15T14:48:31.043Z</time></trkpt><trkpt lat="44.0456054" lon="11.1511416"><ele>266.0</ele><time>2026-04-15T14:48:32.052Z</time></trkpt><trkpt lat="44.0455358" lon="11.1511156"><ele>266.0</ele><time>2026-04-15T14:48:33.083Z</time></trkpt><trkpt lat="44.0453932" lon="11.1510376"><ele>264.1666666666667</ele><time>2026-04-15T14:48:35.032Z</time></trkpt><trkpt lat="44.045321" lon="11.1509794"><ele>262.33333333333337</ele><time>2026-04-15T14:48:36.062Z</time></trkpt><trkpt lat="44.0452497" lon="11.1508966"><ele>260.5</ele><time>2026-04-15T14:48:37.071Z</time></trkpt><trkpt lat="44.0451641" lon="11.1508309"><ele>258.6666666666667</ele><time>2026-04-15T14:48:38.067Z</time></trkpt><trkpt lat="44.0450825" lon="11.1507717"><ele>256.8333333333333</ele><time>2026-04-15T14:48:39.072Z</time></trkpt><trkpt lat="44.0450166" lon="11.1507105"><ele>255.0</ele><time>2026-04-15T14:48:40.077Z</time></trkpt><trkpt lat="44.0449563" lon="11.1506537"><ele>254.2857142857143</ele><time>2026-04-15T14:48:41.068Z</time></trkpt><trkpt lat="44.0448925" lon="11.150605"><ele>253.5714285714286</ele><time>2026-04-15T14:48:42.081Z</time></trkpt><trkpt lat="44.0448302" lon="11.1505616"><ele>252.85714285714286</ele><time>2026-04-15T14:48:43.064Z</time></trkpt><trkpt lat="44.0447632" lon="11.1505092"><ele>252.14285714285717</ele><time>2026-04-15T14:48:44.076Z</time></trkpt><trkpt lat="44.0447007" lon="11.1504519"><ele>251.42857142857144</ele><time>2026-04-15T14:48:45.069Z</time></trkpt><trkpt lat="44.0446459" lon="11.1503944"><ele>250.71428571428572</ele><time>2026-04-15T14:48:46.089Z</time></trkpt><trkpt lat="44.0446021" lon="11.1503297"><ele>250.0</ele><time>2026-04-15T14:48:47.035Z</time></trkpt><trkpt lat="44.0445144" lon="11.1502146"><ele>250.0</ele><time>2026-04-15T14:48:49.034Z</time></trkpt><trkpt lat="44.0444388" lon="11.1501144"><ele>250.0</ele><time>2026-04-15T14:48:51.062Z</time></trkpt><trkpt lat="44.0443579" lon="11.150012"><ele>250.0</ele><time>2026-04-15T14:48:53.073Z</time></trkpt><trkpt lat="44.044289" lon="11.1499162"><ele>250.0</ele><time>2026-04-15T14:48:55.073Z</time></trkpt><trkpt lat="44.0442244" lon="11.1498217"><ele>250.0</ele><time>2026-04-15T14:48:57.051Z</time></trkpt><trkpt lat="44.0441076" lon="11.149726"><ele>250.25</ele><time>2026-04-15T14:48:59.045Z</time></trkpt><trkpt lat="44.0440169" lon="11.1496891"><ele>250.5</ele><time>2026-04-15T14:49:00.063Z</time></trkpt><trkpt lat="44.0439098" lon="11.1496483"><ele>250.75</ele><time>2026-04-15T14:49:01.064Z</time></trkpt><trkpt lat="44.043789" lon="11.14959"><ele>251.0</ele><time>2026-04-15T14:49:02.058Z</time></trkpt><trkpt lat="44.0436565" lon="11.1495188"><ele>251.0</ele><time>2026-04-15T14:49:03.081Z</time></trkpt><trkpt lat="44.043521" lon="11.1494599"><ele>251.0</ele><time>2026-04-15T14:49:04.071Z</time></trkpt><trkpt lat="44.0433755" lon="11.1494029"><ele>251.0</ele><time>2026-04-15T14:49:05.031Z</time></trkpt><trkpt lat="44.0432362" lon="11.149345"><ele>251.0</ele><time>2026-04-15T14:49:06.039Z</time></trkpt><trkpt lat="44.0431102" lon="11.1492803"><ele>253.8</ele><time>2026-04-15T14:49:07.039Z</time></trkpt><trkpt lat="44.0429949" lon="11.1492385"><ele>256.6</ele><time>2026-04-15T14:49:08.076Z</time></trkpt><trkpt lat="44.0428815" lon="11.1492203"><ele>259.4</ele><time>2026-04-15T14:49:09.054Z</time></trkpt><trkpt lat="44.0427799" lon="11.1492372"><ele>262.2</ele><time>2026-04-15T14:49:10.047Z</time></trkpt><trkpt lat="44.0426867" lon="11.1493209"><ele>265.0</ele><time>2026-04-15T14:49:11.063Z</time></trkpt><trkpt lat="44.0426115" lon="11.1494686"><ele>265.0</ele><time>2026-04-15T14:49:12.078Z</time></trkpt><trkpt lat="44.0425754" lon="11.149639"><ele>265.0</ele><time>2026-04-15T14:49:13.07Z</time></trkpt><trkpt lat="44.0425583" lon="11.1497964"><ele>265.0</ele><time>2026-04-15T14:49:14.058Z</time></trkpt><trkpt lat="44.0425436" lon="11.1499244"><ele>265.0</ele><time>2026-04-15T14:49:15.064Z</time></trkpt><trkpt lat="44.0425321" lon="11.1500287"><ele>265.0</ele><time>2026-04-15T14:49:16.077Z</time></trkpt><trkpt lat="44.0425063" lon="11.1501393"><ele>265.8</ele><time>2026-04-15T14:49:17.068Z</time></trkpt><trkpt lat="44.0424596" lon="11.1502366"><ele>266.6</ele><time>2026-04-15T14:49:18.033Z</time></trkpt><trkpt lat="44.0423703" lon="11.150293"><ele>267.4</ele><time>2026-04-15T14:49:19.045Z</time></trkpt><trkpt lat="44.0422626" lon="11.1503709"><ele>268.2</ele><time>2026-04-15T14:49:20.089Z</time></trkpt><trkpt lat="44.0421402" lon="11.1504445"><ele>269.0</ele><time>2026-04-15T14:49:21.046Z</time></trkpt><trkpt lat="44.0420153" lon="11.1505128"><ele>269.0</ele><time>2026-04-15T14:49:22.074Z</time></trkpt><trkpt lat="44.0418921" lon="11.1505615"><ele>269.0</ele><time>2026-04-15T14:49:23.039Z</time></trkpt><trkpt lat="44.0417647" lon="11.1506123"><ele>269.0</ele><time>2026-04-15T14:49:24.041Z</time></trkpt><trkpt lat="44.0416344" lon="11.1506415"><ele>269.0</ele><time>2026-04-15T14:49:25.072Z</time></trkpt><trkpt lat="44.0415168" lon="11.1506795"><ele>270.5</ele><time>2026-04-15T14:49:26.055Z</time></trkpt><trkpt lat="44.0414" lon="11.150719"><ele>272.0</ele><time>2026-04-15T14:49:27.031Z</time></trkpt><trkpt lat="44.0412865" lon="11.1507749"><ele>273.5</ele><time>2026-04-15T14:49:28.024Z</time></trkpt><trkpt lat="44.0411818" lon="11.1508611"><ele>275.0</ele><time>2026-04-15T14:49:29.031Z</time></trkpt><trkpt lat="44.041084" lon="11.150961"><ele>275.0</ele><time>2026-04-15T14:49:30.051Z</time></trkpt><trkpt lat="44.0409725" lon="11.1510728"><ele>275.0</ele><time>2026-04-15T14:49:31.056Z</time></trkpt><trkpt lat="44.0408759" lon="11.1511741"><ele>275.0</ele><time>2026-04-15T14:49:32.03Z</time></trkpt><trkpt lat="44.0407774" lon="11.1513029"><ele>275.0</ele><time>2026-04-15T14:49:33.029Z</time></trkpt><trkpt lat="44.0406757" lon="11.1514029"><ele>274.0</ele><time>2026-04-15T14:49:34.048Z</time></trkpt><trkpt lat="44.0405594" lon="11.1514897"><ele>273.0</ele><time>2026-04-15T14:49:35.036Z</time></trkpt><trkpt lat="44.0404246" lon="11.1515539"><ele>272.0</ele><time>2026-04-15T14:49:36.043Z</time></trkpt><trkpt lat="44.0402819" lon="11.1516019"><ele>271.0</ele><time>2026-04-15T14:49:37.038Z</time></trkpt><trkpt lat="44.040131" lon="11.1516635"><ele>271.0</ele><time>2026-04-15T14:49:38.044Z</time></trkpt><trkpt lat="44.0399889" lon="11.1517509"><ele>271.0</ele><time>2026-04-15T14:49:39.07Z</time></trkpt><trkpt lat="44.0398507" lon="11.1518606"><ele>271.0</ele><time>2026-04-15T14:49:40.046Z</time></trkpt><trkpt lat="44.0397346" lon="11.1519792"><ele>273.66666666666663</ele><time>2026-04-15T14:49:41.023Z</time></trkpt><trkpt lat="44.0396082" lon="11.1520917"><ele>276.3333333333333</ele><time>2026-04-15T14:49:42.033Z</time></trkpt><trkpt lat="44.0394899" lon="11.1522134"><ele>279.0</ele><time>2026-04-15T14:49:43.035Z</time></trkpt><trkpt lat="44.0393669" lon="11.1523464"><ele>278.6666666666667</ele><time>2026-04-15T14:49:44.049Z</time></trkpt><trkpt lat="44.0392394" lon="11.1524791"><ele>278.33333333333337</ele><time>2026-04-15T14:49:45.047Z</time></trkpt><trkpt lat="44.0390879" lon="11.1526131"><ele>278.0</ele><time>2026-04-15T14:49:46.039Z</time></trkpt><trkpt lat="44.0389414" lon="11.1527519"><ele>278.0</ele><time>2026-04-15T14:49:47.051Z</time></trkpt><trkpt lat="44.0388045" lon="11.1528938"><ele>278.0</ele><time>2026-04-15T14:49:48.045Z</time></trkpt><trkpt lat="44.038681" lon="11.153021"><ele>278.0</ele><time>2026-04-15T14:49:49.05Z</time></trkpt><trkpt lat="44.0385594" lon="11.1531412"><ele>276.0</ele><time>2026-04-15T14:49:50.042Z</time></trkpt><trkpt lat="44.03844" lon="11.1532633"><ele>274.0</ele><time>2026-04-15T14:49:51.05Z</time></trkpt><trkpt lat="44.038325" lon="11.1533827"><ele>272.0</ele><time>2026-04-15T14:49:52.063Z</time></trkpt><trkpt lat="44.0382004" lon="11.1534972"><ele>270.0</ele><time>2026-04-15T14:49:53.068Z</time></trkpt><trkpt lat="44.0380736" lon="11.1536217"><ele>270.0</ele><time>2026-04-15T14:49:54.03Z</time></trkpt><trkpt lat="44.0379444" lon="11.1537442"><ele>270.0</ele><time>2026-04-15T14:49:55.039Z</time></trkpt><trkpt lat="44.0378168" lon="11.1538649"><ele>270.0</ele><time>2026-04-15T14:49:56.036Z</time></trkpt><trkpt lat="44.0376895" lon="11.1539804"><ele>267.6666666666667</ele><time>2026-04-15T14:49:57.067Z</time></trkpt><trkpt lat="44.0375605" lon="11.1541039"><ele>265.33333333333337</ele><time>2026-04-15T14:49:58.066Z</time></trkpt><trkpt lat="44.0374346" lon="11.1542328"><ele>263.0</ele><time>2026-04-15T14:49:59.056Z</time></trkpt><trkpt lat="44.0373034" lon="11.1543613"><ele>263.0</ele><time>2026-04-15T14:50:00.09Z</time></trkpt><trkpt lat="44.0371775" lon="11.1544762"><ele>263.0</ele><time>2026-04-15T14:50:01.04Z</time></trkpt><trkpt lat="44.0370539" lon="11.1545711"><ele>263.0</ele><time>2026-04-15T14:50:02.024Z</time></trkpt><trkpt lat="44.0369253" lon="11.1546272"><ele>263.0</ele><time>2026-04-15T14:50:03.018Z</time></trkpt><trkpt lat="44.0367824" lon="11.15465"><ele>261.0</ele><time>2026-04-15T14:50:04.048Z</time></trkpt><trkpt lat="44.0366323" lon="11.1546199"><ele>259.0</ele><time>2026-04-15T14:50:05.057Z</time></trkpt><trkpt lat="44.0364854" lon="11.1545402"><ele>257.0</ele><time>2026-04-15T14:50:06.028Z</time></trkpt><trkpt lat="44.0363511" lon="11.1544185"><ele>257.0</ele><time>2026-04-15T14:50:07.051Z</time></trkpt><trkpt lat="44.0362291" lon="11.1542585"><ele>257.0</ele><time>2026-04-15T14:50:08.048Z</time></trkpt><trkpt lat="44.0360937" lon="11.1540923"><ele>257.0</ele><time>2026-04-15T14:50:09.064Z</time></trkpt><trkpt lat="44.0357606" lon="11.1538171"><ele>262.33333333333337</ele><time>2026-04-15T14:50:11.031Z</time></trkpt><trkpt lat="44.0355651" lon="11.1537507"><ele>267.6666666666667</ele><time>2026-04-15T14:50:12.041Z</time></trkpt><trkpt lat="44.0353616" lon="11.1537224"><ele>273.0</ele><time>2026-04-15T14:50:13.049Z</time></trkpt><trkpt lat="44.0351577" lon="11.1537456"><ele>273.0</ele><time>2026-04-15T14:50:14.033Z</time></trkpt><trkpt lat="44.0349824" lon="11.1538048"><ele>273.0</ele><time>2026-04-15T14:50:15.052Z</time></trkpt><trkpt lat="44.0348187" lon="11.1538674"><ele>273.0</ele><time>2026-04-15T14:50:16.047Z</time></trkpt><trkpt lat="44.03467" lon="11.1539182"><ele>272.6666666666667</ele><time>2026-04-15T14:50:17.033Z</time></trkpt><trkpt lat="44.034523" lon="11.1539437"><ele>272.33333333333337</ele><time>2026-04-15T14:50:18.032Z</time></trkpt><trkpt lat="44.0343723" lon="11.1539645"><ele>272.0</ele><time>2026-04-15T14:50:19.033Z</time></trkpt><trkpt lat="44.0341981" lon="11.1539805"><ele>275.33333333333337</ele><time>2026-04-15T14:50:20.057Z</time></trkpt><trkpt lat="44.0339976" lon="11.1539866"><ele>278.6666666666667</ele><time>2026-04-15T14:50:21.05Z</time></trkpt><trkpt lat="44.0337843" lon="11.1539865"><ele>282.0</ele><time>2026-04-15T14:50:22.021Z</time></trkpt><trkpt lat="44.0335524" lon="11.1539757"><ele>283.0</ele><time>2026-04-15T14:50:23.042Z</time></trkpt><trkpt lat="44.033305" lon="11.15397"><ele>284.0</ele><time>2026-04-15T14:50:24.036Z</time></trkpt><trkpt lat="44.0330536" lon="11.1539654"><ele>284.0</ele><time>2026-04-15T14:50:25.036Z</time></trkpt><trkpt lat="44.0328138" lon="11.1539716"><ele>284.0</ele><time>2026-04-15T14:50:26.043Z</time></trkpt><trkpt lat="44.0325773" lon="11.1539779"><ele>278.6666666666667</ele><time>2026-04-15T14:50:27.062Z</time></trkpt><trkpt lat="44.0323553" lon="11.1539725"><ele>273.3333333333333</ele><time>2026-04-15T14:50:28.035Z</time></trkpt><trkpt lat="44.0321599" lon="11.1539296"><ele>268.0</ele><time>2026-04-15T14:50:29.021Z</time></trkpt><trkpt lat="44.0319487" lon="11.1538821"><ele>268.0</ele><time>2026-04-15T14:50:30.071Z</time></trkpt><trkpt lat="44.0317393" lon="11.1538443"><ele>268.0</ele><time>2026-04-15T14:50:31.032Z</time></trkpt><trkpt lat="44.0315371" lon="11.1538322"><ele>268.0</ele><time>2026-04-15T14:50:32.059Z</time></trkpt><trkpt lat="44.0313473" lon="11.1538574"><ele>263.0</ele><time>2026-04-15T14:50:33.037Z</time></trkpt><trkpt lat="44.0311873" lon="11.153896"><ele>258.0</ele><time>2026-04-15T14:50:34.044Z</time></trkpt><trkpt lat="44.0310361" lon="11.1539437"><ele>253.0</ele><time>2026-04-15T14:50:35.029Z</time></trkpt><trkpt lat="44.0308803" lon="11.1539524"><ele>247.33333333333331</ele><time>2026-04-15T14:50:36.042Z</time></trkpt><trkpt lat="44.0307178" lon="11.1539174"><ele>241.66666666666669</ele><time>2026-04-15T14:50:37.037Z</time></trkpt><trkpt lat="44.0305536" lon="11.1538728"><ele>236.0</ele><time>2026-04-15T14:50:38.041Z</time></trkpt><trkpt lat="44.030397" lon="11.1538449"><ele>236.0</ele><time>2026-04-15T14:50:39.022Z</time></trkpt><trkpt lat="44.030249" lon="11.1538111"><ele>236.0</ele><time>2026-04-15T14:50:40.048Z</time></trkpt><trkpt lat="44.0301074" lon="11.1537369"><ele>236.0</ele><time>2026-04-15T14:50:41.057Z</time></trkpt><trkpt lat="44.0299704" lon="11.1536305"><ele>234.75</ele><time>2026-04-15T14:50:42.064Z</time></trkpt><trkpt lat="44.0298497" lon="11.1535106"><ele>233.5</ele><time>2026-04-15T14:50:43.057Z</time></trkpt><trkpt lat="44.0297453" lon="11.1533593"><ele>232.25</ele><time>2026-04-15T14:50:44.037Z</time></trkpt><trkpt lat="44.0296595" lon="11.1531982"><ele>231.0</ele><time>2026-04-15T14:50:45.069Z</time></trkpt><trkpt lat="44.0295947" lon="11.1530397"><ele>230.4</ele><time>2026-04-15T14:50:46.064Z</time></trkpt><trkpt lat="44.0295389" lon="11.1528974"><ele>229.8</ele><time>2026-04-15T14:50:47.023Z</time></trkpt><trkpt lat="44.0294831" lon="11.1527671"><ele>229.20000000000002</ele><time>2026-04-15T14:50:48.072Z</time></trkpt><trkpt lat="44.0294362" lon="11.1526468"><ele>228.60000000000002</ele><time>2026-04-15T14:50:49.06Z</time></trkpt><trkpt lat="44.0293894" lon="11.1525354"><ele>228.0</ele><time>2026-04-15T14:50:50.058Z</time></trkpt><trkpt lat="44.0293345" lon="11.1524226"><ele>228.2</ele><time>2026-04-15T14:50:51.052Z</time></trkpt><trkpt lat="44.0292645" lon="11.1523117"><ele>228.4</ele><time>2026-04-15T14:50:52.021Z</time></trkpt><trkpt lat="44.0291896" lon="11.1522145"><ele>228.59999999999997</ele><time>2026-04-15T14:50:53.053Z</time></trkpt><trkpt lat="44.0291089" lon="11.1521261"><ele>228.79999999999998</ele><time>2026-04-15T14:50:54.061Z</time></trkpt><trkpt lat="44.0290214" lon="11.1520359"><ele>229.0</ele><time>2026-04-15T14:50:55.04Z</time></trkpt><trkpt lat="44.0289342" lon="11.1519386"><ele>229.0</ele><time>2026-04-15T14:50:56.023Z</time></trkpt><trkpt lat="44.0288481" lon="11.1518374"><ele>228.99999999999997</ele><time>2026-04-15T14:50:57.053Z</time></trkpt><trkpt lat="44.0287685" lon="11.1517268"><ele>228.99999999999997</ele><time>2026-04-15T14:50:58.048Z</time></trkpt><trkpt lat="44.0287042" lon="11.151601"><ele>229.0</ele><time>2026-04-15T14:50:59.023Z</time></trkpt><trkpt lat="44.0286414" lon="11.1514836"><ele>229.0</ele><time>2026-04-15T14:51:00.041Z</time></trkpt><trkpt lat="44.0285859" lon="11.1513624"><ele>229.0</ele><time>2026-04-15T14:51:01.059Z</time></trkpt><trkpt lat="44.0285398" lon="11.1512382"><ele>228.99999999999997</ele><time>2026-04-15T14:51:02.063Z</time></trkpt><trkpt lat="44.0285018" lon="11.1511093"><ele>228.99999999999997</ele><time>2026-04-15T14:51:03.062Z</time></trkpt><trkpt lat="44.0284668" lon="11.150977"><ele>229.0</ele><time>2026-04-15T14:51:04.055Z</time></trkpt><trkpt lat="44.0284311" lon="11.1508428"><ele>229.0</ele><time>2026-04-15T14:51:05.047Z</time></trkpt><trkpt lat="44.0284029" lon="11.1507116"><ele>228.5</ele><time>2026-04-15T14:51:06.045Z</time></trkpt><trkpt lat="44.0283893" lon="11.1505744"><ele>228.0</ele><time>2026-04-15T14:51:07.045Z</time></trkpt><trkpt lat="44.028372" lon="11.150424"><ele>227.5</ele><time>2026-04-15T14:51:08.018Z</time></trkpt><trkpt lat="44.0283549" lon="11.1502507"><ele>227.0</ele><time>2026-04-15T14:51:09.046Z</time></trkpt><trkpt lat="44.0283399" lon="11.1500636"><ele>227.0</ele><time>2026-04-15T14:51:10.036Z</time></trkpt><trkpt lat="44.0283267" lon="11.1498899"><ele>227.0</ele><time>2026-04-15T14:51:11.047Z</time></trkpt><trkpt lat="44.0283146" lon="11.1497302"><ele>227.0</ele><time>2026-04-15T14:51:12.045Z</time></trkpt><trkpt lat="44.0283048" lon="11.1495742"><ele>227.0</ele><time>2026-04-15T14:51:13.017Z</time></trkpt><trkpt lat="44.0282956" lon="11.1494203"><ele>226.6</ele><time>2026-04-15T14:51:14.049Z</time></trkpt><trkpt lat="44.0282799" lon="11.1492669"><ele>226.2</ele><time>2026-04-15T14:51:15.05Z</time></trkpt><trkpt lat="44.0282583" lon="11.1491199"><ele>225.8</ele><time>2026-04-15T14:51:16.039Z</time></trkpt><trkpt lat="44.0282414" lon="11.1489767"><ele>225.4</ele><time>2026-04-15T14:51:17.051Z</time></trkpt><trkpt lat="44.0282251" lon="11.1488354"><ele>225.0</ele><time>2026-04-15T14:51:18.045Z</time></trkpt><trkpt lat="44.0282086" lon="11.1486885"><ele>225.0</ele><time>2026-04-15T14:51:19.051Z</time></trkpt><trkpt lat="44.0281894" lon="11.1485228"><ele>225.0</ele><time>2026-04-15T14:51:20.051Z</time></trkpt><trkpt lat="44.0281677" lon="11.1483519"><ele>225.0</ele><time>2026-04-15T14:51:21.047Z</time></trkpt><trkpt lat="44.0281367" lon="11.1481857"><ele>225.0</ele><time>2026-04-15T14:51:22.052Z</time></trkpt><trkpt lat="44.028096" lon="11.1480217"><ele>225.0</ele><time>2026-04-15T14:51:23.036Z</time></trkpt><trkpt lat="44.0280496" lon="11.1478523"><ele>225.0</ele><time>2026-04-15T14:51:24.054Z</time></trkpt><trkpt lat="44.0280021" lon="11.1476917"><ele>225.0</ele><time>2026-04-15T14:51:25.021Z</time></trkpt><trkpt lat="44.0279533" lon="11.1475384"><ele>225.0</ele><time>2026-04-15T14:51:26.051Z</time></trkpt><trkpt lat="44.0279009" lon="11.147389"><ele>225.6</ele><time>2026-04-15T14:51:27.044Z</time></trkpt><trkpt lat="44.0278496" lon="11.1472488"><ele>226.2</ele><time>2026-04-15T14:51:28.051Z</time></trkpt><trkpt lat="44.0278013" lon="11.1471079"><ele>226.8</ele><time>2026-04-15T14:51:29.043Z</time></trkpt><trkpt lat="44.0277455" lon="11.146974"><ele>227.4</ele><time>2026-04-15T14:51:30.051Z</time></trkpt><trkpt lat="44.0276888" lon="11.1468463"><ele>228.0</ele><time>2026-04-15T14:51:31.038Z</time></trkpt><trkpt lat="44.0276202" lon="11.1467289"><ele>228.0</ele><time>2026-04-15T14:51:32.042Z</time></trkpt><trkpt lat="44.0275375" lon="11.1466252"><ele>228.0</ele><time>2026-04-15T14:51:33.036Z</time></trkpt><trkpt lat="44.0274433" lon="11.1465461"><ele>228.0</ele><time>2026-04-15T14:51:34.022Z</time></trkpt><trkpt lat="44.0273314" lon="11.1464699"><ele>228.0</ele><time>2026-04-15T14:51:35.02Z</time></trkpt><trkpt lat="44.0272259" lon="11.1463951"><ele>227.4</ele><time>2026-04-15T14:51:36.052Z</time></trkpt><trkpt lat="44.0271153" lon="11.1463173"><ele>226.8</ele><time>2026-04-15T14:51:37.019Z</time></trkpt><trkpt lat="44.0270182" lon="11.1462522"><ele>226.2</ele><time>2026-04-15T14:51:38.035Z</time></trkpt><trkpt lat="44.0269271" lon="11.1461905"><ele>225.6</ele><time>2026-04-15T14:51:39.051Z</time></trkpt><trkpt lat="44.026851" lon="11.1461099"><ele>225.0</ele><time>2026-04-15T14:51:40.05Z</time></trkpt><trkpt lat="44.0267827" lon="11.1460202"><ele>225.0</ele><time>2026-04-15T14:51:41.042Z</time></trkpt><trkpt lat="44.0267276" lon="11.145917"><ele>225.0</ele><time>2026-04-15T14:51:42.063Z</time></trkpt><trkpt lat="44.0266896" lon="11.1457847"><ele>225.0</ele><time>2026-04-15T14:51:43.045Z</time></trkpt><trkpt lat="44.0266548" lon="11.1456315"><ele>225.0</ele><time>2026-04-15T14:51:44.049Z</time></trkpt><trkpt lat="44.02662" lon="11.1454684"><ele>225.0</ele><time>2026-04-15T14:51:45.015Z</time></trkpt><trkpt lat="44.0265665" lon="11.1453151"><ele>226.5</ele><time>2026-04-15T14:51:46.039Z</time></trkpt><trkpt lat="44.0264979" lon="11.1451773"><ele>228.0</ele><time>2026-04-15T14:51:47.063Z</time></trkpt><trkpt lat="44.0264266" lon="11.145048"><ele>229.5</ele><time>2026-04-15T14:51:48.057Z</time></trkpt><trkpt lat="44.0263518" lon="11.1449294"><ele>231.0</ele><time>2026-04-15T14:51:49.014Z</time></trkpt><trkpt lat="44.0262697" lon="11.1448117"><ele>231.0</ele><time>2026-04-15T14:51:50.017Z</time></trkpt><trkpt lat="44.0261853" lon="11.1447158"><ele>231.00000000000003</ele><time>2026-04-15T14:51:51.054Z</time></trkpt><trkpt lat="44.0260901" lon="11.1446339"><ele>231.00000000000003</ele><time>2026-04-15T14:51:52.042Z</time></trkpt><trkpt lat="44.025999" lon="11.1445692"><ele>231.0</ele><time>2026-04-15T14:51:53.037Z</time></trkpt><trkpt lat="44.0259105" lon="11.1444982"><ele>231.0</ele><time>2026-04-15T14:51:54.046Z</time></trkpt><trkpt lat="44.0258218" lon="11.1444329"><ele>230.0</ele><time>2026-04-15T14:51:55.024Z</time></trkpt><trkpt lat="44.0257376" lon="11.1443604"><ele>229.00000000000003</ele><time>2026-04-15T14:51:56.038Z</time></trkpt><trkpt lat="44.0256522" lon="11.1442881"><ele>228.00000000000003</ele><time>2026-04-15T14:51:57.025Z</time></trkpt><trkpt lat="44.025567" lon="11.1442063"><ele>227.0</ele><time>2026-04-15T14:51:58.026Z</time></trkpt><trkpt lat="44.0254802" lon="11.1441211"><ele>226.0</ele><time>2026-04-15T14:51:59.048Z</time></trkpt><trkpt lat="44.0254021" lon="11.1440142"><ele>226.0</ele><time>2026-04-15T14:52:00.079Z</time></trkpt><trkpt lat="44.025334" lon="11.1438888"><ele>226.0</ele><time>2026-04-15T14:52:01.015Z</time></trkpt><trkpt lat="44.0252698" lon="11.1437612"><ele>226.0</ele><time>2026-04-15T14:52:02.066Z</time></trkpt><trkpt lat="44.0252041" lon="11.1436341"><ele>226.0</ele><time>2026-04-15T14:52:03.049Z</time></trkpt><trkpt lat="44.025138" lon="11.1435064"><ele>226.0</ele><time>2026-04-15T14:52:04.055Z</time></trkpt><trkpt lat="44.0250694" lon="11.1433752"><ele>226.0</ele><time>2026-04-15T14:52:05.047Z</time></trkpt><trkpt lat="44.0250093" lon="11.1432347"><ele>226.0</ele><time>2026-04-15T14:52:06.039Z</time></trkpt><trkpt lat="44.0249507" lon="11.143076"><ele>226.0</ele><time>2026-04-15T14:52:07.046Z</time></trkpt><trkpt lat="44.0249006" lon="11.1429193"><ele>225.5</ele><time>2026-04-15T14:52:08.052Z</time></trkpt><trkpt lat="44.0248509" lon="11.1427649"><ele>225.0</ele><time>2026-04-15T14:52:09.044Z</time></trkpt><trkpt lat="44.0247948" lon="11.1426145"><ele>224.5</ele><time>2026-04-15T14:52:10.052Z</time></trkpt><trkpt lat="44.0247359" lon="11.1424741"><ele>224.0</ele><time>2026-04-15T14:52:11.046Z</time></trkpt><trkpt lat="44.0246674" lon="11.1423362"><ele>224.0</ele><time>2026-04-15T14:52:12.032Z</time></trkpt><trkpt lat="44.0245945" lon="11.1421995"><ele>224.0</ele><time>2026-04-15T14:52:13.015Z</time></trkpt><trkpt lat="44.0244862" lon="11.1420462"><ele>224.0</ele><time>2026-04-15T14:52:14.038Z</time></trkpt><trkpt lat="44.0243625" lon="11.1418635"><ele>224.0</ele><time>2026-04-15T14:52:15.035Z</time></trkpt><trkpt lat="44.0242359" lon="11.1416783"><ele>224.0</ele><time>2026-04-15T14:52:16.028Z</time></trkpt><trkpt lat="44.0241067" lon="11.1415112"><ele>224.0</ele><time>2026-04-15T14:52:17.052Z</time></trkpt><trkpt lat="44.0239796" lon="11.1413736"><ele>223.66666666666669</ele><time>2026-04-15T14:52:18.047Z</time></trkpt><trkpt lat="44.0238545" lon="11.1412567"><ele>223.33333333333331</ele><time>2026-04-15T14:52:19.039Z</time></trkpt><trkpt lat="44.0237164" lon="11.1411342"><ele>223.0</ele><time>2026-04-15T14:52:20.047Z</time></trkpt><trkpt lat="44.0235763" lon="11.1410132"><ele>223.0</ele><time>2026-04-15T14:52:21.044Z</time></trkpt><trkpt lat="44.0234324" lon="11.1408954"><ele>223.0</ele><time>2026-04-15T14:52:22.038Z</time></trkpt><trkpt lat="44.0232774" lon="11.1407773"><ele>223.0</ele><time>2026-04-15T14:52:23.038Z</time></trkpt><trkpt lat="44.0231101" lon="11.1406506"><ele>223.33333333333331</ele><time>2026-04-15T14:52:24.036Z</time></trkpt><trkpt lat="44.022928" lon="11.1405271"><ele>223.66666666666669</ele><time>2026-04-15T14:52:25.014Z</time></trkpt><trkpt lat="44.0227481" lon="11.1404023"><ele>224.0</ele><time>2026-04-15T14:52:26.048Z</time></trkpt><trkpt lat="44.0225747" lon="11.1402796"><ele>220.66666666666669</ele><time>2026-04-15T14:52:27.032Z</time></trkpt><trkpt lat="44.0224083" lon="11.140157"><ele>217.33333333333331</ele><time>2026-04-15T14:52:28.046Z</time></trkpt><trkpt lat="44.022245" lon="11.14005"><ele>214.0</ele><time>2026-04-15T14:52:29.061Z</time></trkpt><trkpt lat="44.0220862" lon="11.139948"><ele>217.33333333333331</ele><time>2026-04-15T14:52:30.046Z</time></trkpt><trkpt lat="44.0219346" lon="11.1398609"><ele>220.66666666666669</ele><time>2026-04-15T14:52:31.048Z</time></trkpt><trkpt lat="44.0217829" lon="11.1397917"><ele>224.0</ele><time>2026-04-15T14:52:32.021Z</time></trkpt><trkpt lat="44.0216269" lon="11.1397478"><ele>226.33333333333334</ele><time>2026-04-15T14:52:33.027Z</time></trkpt><trkpt lat="44.0214527" lon="11.1397328"><ele>228.66666666666669</ele><time>2026-04-15T14:52:34.007Z</time></trkpt><trkpt lat="44.0212693" lon="11.1397467"><ele>231.0</ele><time>2026-04-15T14:52:35.016Z</time></trkpt><trkpt lat="44.0210694" lon="11.1397785"><ele>231.0</ele><time>2026-04-15T14:52:36.015Z</time></trkpt><trkpt lat="44.0208604" lon="11.139816"><ele>231.0</ele><time>2026-04-15T14:52:37.012Z</time></trkpt><trkpt lat="44.0206557" lon="11.1398461"><ele>231.0</ele><time>2026-04-15T14:52:38.024Z</time></trkpt><trkpt lat="44.0204583" lon="11.1398702"><ele>227.33333333333331</ele><time>2026-04-15T14:52:39.021Z</time></trkpt><trkpt lat="44.0202685" lon="11.1398975"><ele>223.66666666666666</ele><time>2026-04-15T14:52:40.032Z</time></trkpt><trkpt lat="44.0200839" lon="11.1399424"><ele>220.0</ele><time>2026-04-15T14:52:41.038Z</time></trkpt><trkpt lat="44.0198886" lon="11.1400304"><ele>229.0</ele><time>2026-04-15T14:52:42.015Z</time></trkpt><trkpt lat="44.0197001" lon="11.1401563"><ele>238.0</ele><time>2026-04-15T14:52:43.021Z</time></trkpt><trkpt lat="44.0195189" lon="11.1403085"><ele>247.0</ele><time>2026-04-15T14:52:44.013Z</time></trkpt><trkpt lat="44.0193374" lon="11.1404811"><ele>242.5</ele><time>2026-04-15T14:52:45.037Z</time></trkpt><trkpt lat="44.0191484" lon="11.1406592"><ele>238.0</ele><time>2026-04-15T14:52:46.041Z</time></trkpt><trkpt lat="44.0189541" lon="11.140832"><ele>238.0</ele><time>2026-04-15T14:52:47.028Z</time></trkpt><trkpt lat="44.0187714" lon="11.1409913"><ele>238.0</ele><time>2026-04-15T14:52:48.039Z</time></trkpt><trkpt lat="44.0185857" lon="11.1411393"><ele>238.0</ele><time>2026-04-15T14:52:49.006Z</time></trkpt><trkpt lat="44.0184035" lon="11.1412487"><ele>239.66666666666666</ele><time>2026-04-15T14:52:50.044Z</time></trkpt><trkpt lat="44.0182271" lon="11.1413403"><ele>241.33333333333331</ele><time>2026-04-15T14:52:51.017Z</time></trkpt><trkpt lat="44.0180684" lon="11.1414337"><ele>243.0</ele><time>2026-04-15T14:52:52.046Z</time></trkpt><trkpt lat="44.0179257" lon="11.1415426"><ele>245.75</ele><time>2026-04-15T14:52:53.026Z</time></trkpt><trkpt lat="44.0177958" lon="11.1416538"><ele>248.5</ele><time>2026-04-15T14:52:54.024Z</time></trkpt><trkpt lat="44.0176739" lon="11.1417732"><ele>251.25</ele><time>2026-04-15T14:52:54.999Z</time></trkpt><trkpt lat="44.0175569" lon="11.1418854"><ele>254.0</ele><time>2026-04-15T14:52:56.018Z</time></trkpt><trkpt lat="44.0174427" lon="11.1419983"><ele>254.0</ele><time>2026-04-15T14:52:57.036Z</time></trkpt><trkpt lat="44.0173173" lon="11.1421128"><ele>254.0</ele><time>2026-04-15T14:52:58.041Z</time></trkpt><trkpt lat="44.017182" lon="11.1422315"><ele>254.0</ele><time>2026-04-15T14:52:59.039Z</time></trkpt><trkpt lat="44.0170469" lon="11.1423533"><ele>245.66666666666669</ele><time>2026-04-15T14:53:00.041Z</time></trkpt><trkpt lat="44.0169181" lon="11.1424787"><ele>237.33333333333331</ele><time>2026-04-15T14:53:01.022Z</time></trkpt><trkpt lat="44.0167863" lon="11.1425997"><ele>229.0</ele><time>2026-04-15T14:53:02.031Z</time></trkpt><trkpt lat="44.0166536" lon="11.142726"><ele>234.33333333333331</ele><time>2026-04-15T14:53:03.033Z</time></trkpt><trkpt lat="44.0165189" lon="11.1428466"><ele>239.66666666666669</ele><time>2026-04-15T14:53:04.013Z</time></trkpt><trkpt lat="44.0163735" lon="11.1429589"><ele>245.0</ele><time>2026-04-15T14:53:05.012Z</time></trkpt><trkpt lat="44.016203" lon="11.1430653"><ele>245.0</ele><time>2026-04-15T14:53:06.035Z</time></trkpt><trkpt lat="44.0160254" lon="11.1431768"><ele>245.0</ele><time>2026-04-15T14:53:07.011Z</time></trkpt><trkpt lat="44.0158455" lon="11.1432866"><ele>245.0</ele><time>2026-04-15T14:53:08.037Z</time></trkpt><trkpt lat="44.0156738" lon="11.1433976"><ele>236.66666666666669</ele><time>2026-04-15T14:53:09.043Z</time></trkpt><trkpt lat="44.0155172" lon="11.1434994"><ele>228.33333333333331</ele><time>2026-04-15T14:53:10.04Z</time></trkpt><trkpt lat="44.01535" lon="11.1435802"><ele>220.0</ele><time>2026-04-15T14:53:11.015Z</time></trkpt><trkpt lat="44.0151757" lon="11.1436419"><ele>220.0</ele><time>2026-04-15T14:53:12.042Z</time></trkpt><trkpt lat="44.0149906" lon="11.1436915"><ele>220.0</ele><time>2026-04-15T14:53:13.027Z</time></trkpt><trkpt lat="44.0147736" lon="11.1437347"><ele>220.0</ele><time>2026-04-15T14:53:14.038Z</time></trkpt><trkpt lat="44.0145425" lon="11.1437693"><ele>222.66666666666666</ele><time>2026-04-15T14:53:15.027Z</time></trkpt><trkpt lat="44.014317" lon="11.1438061"><ele>225.33333333333331</ele><time>2026-04-15T14:53:16.013Z</time></trkpt><trkpt lat="44.0141027" lon="11.1438332"><ele>228.0</ele><time>2026-04-15T14:53:17.034Z</time></trkpt><trkpt lat="44.0138936" lon="11.1438459"><ele>234.33333333333331</ele><time>2026-04-15T14:53:18.011Z</time></trkpt><trkpt lat="44.0137027" lon="11.1438662"><ele>240.66666666666666</ele><time>2026-04-15T14:53:19.042Z</time></trkpt><trkpt lat="44.0135287" lon="11.1438984"><ele>247.0</ele><time>2026-04-15T14:53:20.037Z</time></trkpt><trkpt lat="44.0133622" lon="11.1439549"><ele>245.0</ele><time>2026-04-15T14:53:21.046Z</time></trkpt><trkpt lat="44.0132088" lon="11.1440709"><ele>243.0</ele><time>2026-04-15T14:53:22.03Z</time></trkpt><trkpt lat="44.0130573" lon="11.1442791"><ele>241.0</ele><time>2026-04-15T14:53:22.999Z</time></trkpt><trkpt lat="44.0129043" lon="11.1445082"><ele>241.0</ele><time>2026-04-15T14:53:24.01Z</time></trkpt><trkpt lat="44.0127476" lon="11.144735"><ele>241.0</ele><time>2026-04-15T14:53:25.031Z</time></trkpt><trkpt lat="44.012604" lon="11.1449427"><ele>241.0</ele><time>2026-04-15T14:53:26.037Z</time></trkpt><trkpt lat="44.0124753" lon="11.1451197"><ele>235.75</ele><time>2026-04-15T14:53:27.024Z</time></trkpt><trkpt lat="44.0123523" lon="11.1452619"><ele>230.5</ele><time>2026-04-15T14:53:28.017Z</time></trkpt><trkpt lat="44.0122257" lon="11.1453565"><ele>225.25</ele><time>2026-04-15T14:53:29.01Z</time></trkpt><trkpt lat="44.0120883" lon="11.1453824"><ele>220.0</ele><time>2026-04-15T14:53:30.019Z</time></trkpt><trkpt lat="44.0119304" lon="11.1453514"><ele>220.0</ele><time>2026-04-15T14:53:31.037Z</time></trkpt><trkpt lat="44.011773" lon="11.1452681"><ele>220.0</ele><time>2026-04-15T14:53:32.005Z</time></trkpt><trkpt lat="44.0116133" lon="11.1451906"><ele>220.0</ele><time>2026-04-15T14:53:33.006Z</time></trkpt><trkpt lat="44.0114583" lon="11.1451152"><ele>219.5</ele><time>2026-04-15T14:53:34.034Z</time></trkpt><trkpt lat="44.0113185" lon="11.145047"><ele>219.0</ele><time>2026-04-15T14:53:35.042Z</time></trkpt><trkpt lat="44.0111866" lon="11.1449759"><ele>218.5</ele><time>2026-04-15T14:53:36.035Z</time></trkpt><trkpt lat="44.0110601" lon="11.1448918"><ele>218.0</ele><time>2026-04-15T14:53:37.029Z</time></trkpt><trkpt lat="44.0109371" lon="11.1448009"><ele>213.0</ele><time>2026-04-15T14:53:38.035Z</time></trkpt><trkpt lat="44.0108237" lon="11.1446721"><ele>208.0</ele><time>2026-04-15T14:53:38.994Z</time></trkpt><trkpt lat="44.0107156" lon="11.144517"><ele>203.0</ele><time>2026-04-15T14:53:40.037Z</time></trkpt><trkpt lat="44.0106058" lon="11.1443512"><ele>203.0</ele><time>2026-04-15T14:53:41.011Z</time></trkpt><trkpt lat="44.0104914" lon="11.1441908"><ele>203.0</ele><time>2026-04-15T14:53:42.01Z</time></trkpt><trkpt lat="44.0103766" lon="11.144029"><ele>203.0</ele><time>2026-04-15T14:53:43.04Z</time></trkpt><trkpt lat="44.0102587" lon="11.1438671"><ele>203.0</ele><time>2026-04-15T14:53:44.032Z</time></trkpt><trkpt lat="44.0101366" lon="11.1437096"><ele>203.0</ele><time>2026-04-15T14:53:45.031Z</time></trkpt><trkpt lat="44.0100186" lon="11.1435656"><ele>203.0</ele><time>2026-04-15T14:53:46.034Z</time></trkpt><trkpt lat="44.0099115" lon="11.143427"><ele>203.0</ele><time>2026-04-15T14:53:47.027Z</time></trkpt><trkpt lat="44.0098052" lon="11.1432847"><ele>203.0</ele><time>2026-04-15T14:53:48.014Z</time></trkpt><trkpt lat="44.0096954" lon="11.1431424"><ele>203.0</ele><time>2026-04-15T14:53:49.05Z</time></trkpt><trkpt lat="44.0095744" lon="11.143006"><ele>204.0</ele><time>2026-04-15T14:53:50.038Z</time></trkpt><trkpt lat="44.009438" lon="11.1428867"><ele>205.0</ele><time>2026-04-15T14:53:51.001Z</time></trkpt><trkpt lat="44.0092996" lon="11.1427729"><ele>206.0</ele><time>2026-04-15T14:53:52.035Z</time></trkpt><trkpt lat="44.0091551" lon="11.1426648"><ele>206.0</ele><time>2026-04-15T14:53:53.029Z</time></trkpt><trkpt lat="44.0090132" lon="11.1425701"><ele>206.0</ele><time>2026-04-15T14:53:54.009Z</time></trkpt><trkpt lat="44.0088677" lon="11.1424728"><ele>206.0</ele><time>2026-04-15T14:53:55.045Z</time></trkpt><trkpt lat="44.0087179" lon="11.1423966"><ele>208.0</ele><time>2026-04-15T14:53:56.034Z</time></trkpt><trkpt lat="44.0085747" lon="11.1423482"><ele>210.0</ele><time>2026-04-15T14:53:57.033Z</time></trkpt><trkpt lat="44.0084326" lon="11.1423263"><ele>212.0</ele><time>2026-04-15T14:53:58.025Z</time></trkpt><trkpt lat="44.0082915" lon="11.1423186"><ele>214.0</ele><time>2026-04-15T14:53:59.03Z</time></trkpt><trkpt lat="44.0081532" lon="11.1423176"><ele>214.0</ele><time>2026-04-15T14:54:00.043Z</time></trkpt><trkpt lat="44.0080241" lon="11.1423161"><ele>214.0</ele><time>2026-04-15T14:54:01.025Z</time></trkpt><trkpt lat="44.0079011" lon="11.1423046"><ele>214.0</ele><time>2026-04-15T14:54:02.016Z</time></trkpt><trkpt lat="44.0077904" lon="11.1422557"><ele>214.0</ele><time>2026-04-15T14:54:03.032Z</time></trkpt><trkpt lat="44.0076855" lon="11.1421868"><ele>214.0</ele><time>2026-04-15T14:54:04.01Z</time></trkpt><trkpt lat="44.0075908" lon="11.1420812"><ele>214.0</ele><time>2026-04-15T14:54:05.009Z</time></trkpt><trkpt lat="44.0075218" lon="11.1419025"><ele>214.0</ele><time>2026-04-15T14:54:06.025Z</time></trkpt><trkpt lat="44.0074512" lon="11.1417194"><ele>214.0</ele><time>2026-04-15T14:54:07.031Z</time></trkpt><trkpt lat="44.0073619" lon="11.1415579"><ele>211.0</ele><time>2026-04-15T14:54:08.028Z</time></trkpt><trkpt lat="44.0072302" lon="11.1413983"><ele>208.0</ele><time>2026-04-15T14:54:09.042Z</time></trkpt><trkpt lat="44.0070639" lon="11.1412462"><ele>205.0</ele><time>2026-04-15T14:54:10.021Z</time></trkpt><trkpt lat="44.0068793" lon="11.1410857"><ele>205.0</ele><time>2026-04-15T14:54:11.027Z</time></trkpt><trkpt lat="44.0067177" lon="11.140924"><ele>205.0</ele><time>2026-04-15T14:54:12.015Z</time></trkpt><trkpt lat="44.0065803" lon="11.1407555"><ele>205.0</ele><time>2026-04-15T14:54:13.02Z</time></trkpt><trkpt lat="44.0064657" lon="11.1405578"><ele>203.0</ele><time>2026-04-15T14:54:14.008Z</time></trkpt><trkpt lat="44.0063682" lon="11.1403387"><ele>201.0</ele><time>2026-04-15T14:54:15.015Z</time></trkpt><trkpt lat="44.0062679" lon="11.1401168"><ele>199.0</ele><time>2026-04-15T14:54:16.019Z</time></trkpt><trkpt lat="44.0061545" lon="11.139917"><ele>202.33333333333331</ele><time>2026-04-15T14:54:16.998Z</time></trkpt><trkpt lat="44.0060191" lon="11.1397514"><ele>205.66666666666669</ele><time>2026-04-15T14:54:18.002Z</time></trkpt><trkpt lat="44.0058747" lon="11.13961"><ele>209.0</ele><time>2026-04-15T14:54:19.01Z</time></trkpt><trkpt lat="44.0057198" lon="11.1395093"><ele>209.0</ele><time>2026-04-15T14:54:19.994Z</time></trkpt><trkpt lat="44.0055554" lon="11.1394357"><ele>209.0</ele><time>2026-04-15T14:54:21.032Z</time></trkpt><trkpt lat="44.0053874" lon="11.1393803"><ele>209.0</ele><time>2026-04-15T14:54:22.016Z</time></trkpt><trkpt lat="44.0052196" lon="11.1393399"><ele>209.0</ele><time>2026-04-15T14:54:23.039Z</time></trkpt><trkpt lat="44.0050525" lon="11.1393138"><ele>209.0</ele><time>2026-04-15T14:54:24.025Z</time></trkpt><trkpt lat="44.0048886" lon="11.1393329"><ele>209.0</ele><time>2026-04-15T14:54:25.027Z</time></trkpt><trkpt lat="44.0047308" lon="11.1393907"><ele>213.66666666666669</ele><time>2026-04-15T14:54:25.993Z</time></trkpt><trkpt lat="44.0045734" lon="11.1394591"><ele>218.33333333333331</ele><time>2026-04-15T14:54:27.008Z</time></trkpt><trkpt lat="44.0044155" lon="11.1395313"><ele>223.0</ele><time>2026-04-15T14:54:28.02Z</time></trkpt><trkpt lat="44.0042663" lon="11.1396207"><ele>223.25</ele><time>2026-04-15T14:54:29.035Z</time></trkpt><trkpt lat="44.0041294" lon="11.1396997"><ele>223.5</ele><time>2026-04-15T14:54:30.033Z</time></trkpt><trkpt lat="44.0039937" lon="11.1397833"><ele>223.75</ele><time>2026-04-15T14:54:30.995Z</time></trkpt><trkpt lat="44.0038616" lon="11.139863"><ele>224.0</ele><time>2026-04-15T14:54:32.027Z</time></trkpt><trkpt lat="44.0037321" lon="11.1399411"><ele>218.25</ele><time>2026-04-15T14:54:33.02Z</time></trkpt><trkpt lat="44.0036061" lon="11.1400112"><ele>212.5</ele><time>2026-04-15T14:54:34.034Z</time></trkpt><trkpt lat="44.0034813" lon="11.1400716"><ele>206.75</ele><time>2026-04-15T14:54:35.019Z</time></trkpt><trkpt lat="44.0033543" lon="11.1401272"><ele>201.0</ele><time>2026-04-15T14:54:36.022Z</time></trkpt><trkpt lat="44.0032247" lon="11.1401718"><ele>199.0</ele><time>2026-04-15T14:54:36.998Z</time></trkpt><trkpt lat="44.003092" lon="11.1401976"><ele>197.0</ele><time>2026-04-15T14:54:38.025Z</time></trkpt><trkpt lat="44.0029662" lon="11.1402098"><ele>195.0</ele><time>2026-04-15T14:54:39.028Z</time></trkpt><trkpt lat="44.0028404" lon="11.1402098"><ele>193.0</ele><time>2026-04-15T14:54:39.995Z</time></trkpt><trkpt lat="44.0027173" lon="11.1401978"><ele>193.0</ele><time>2026-04-15T14:54:40.99Z</time></trkpt><trkpt lat="44.0025989" lon="11.140186"><ele>193.0</ele><time>2026-04-15T14:54:41.995Z</time></trkpt><trkpt lat="44.0024876" lon="11.1401811"><ele>193.0</ele><time>2026-04-15T14:54:43.004Z</time></trkpt><trkpt lat="44.0023885" lon="11.1401776"><ele>193.0</ele><time>2026-04-15T14:54:44.014Z</time></trkpt><trkpt lat="44.002294" lon="11.1401737"><ele>193.0</ele><time>2026-04-15T14:54:45.004Z</time></trkpt><trkpt lat="44.0021995" lon="11.1401711"><ele>193.25</ele><time>2026-04-15T14:54:46.026Z</time></trkpt><trkpt lat="44.0020892" lon="11.1401647"><ele>193.5</ele><time>2026-04-15T14:54:47.018Z</time></trkpt><trkpt lat="44.0019726" lon="11.1401595"><ele>193.75</ele><time>2026-04-15T14:54:48.024Z</time></trkpt><trkpt lat="44.001846" lon="11.1401568"><ele>194.0</ele><time>2026-04-15T14:54:49.017Z</time></trkpt><trkpt lat="44.001705" lon="11.1401597"><ele>196.5</ele><time>2026-04-15T14:54:50.029Z</time></trkpt><trkpt lat="44.0015541" lon="11.1401918"><ele>199.0</ele><time>2026-04-15T14:54:51.027Z</time></trkpt><trkpt lat="44.0014086" lon="11.1402525"><ele>201.5</ele><time>2026-04-15T14:54:51.997Z</time></trkpt><trkpt lat="44.0012732" lon="11.1403166"><ele>204.0</ele><time>2026-04-15T14:54:53.017Z</time></trkpt><trkpt lat="44.0011429" lon="11.1403811"><ele>204.0</ele><time>2026-04-15T14:54:54.011Z</time></trkpt><trkpt lat="44.0010187" lon="11.1404448"><ele>204.0</ele><time>2026-04-15T14:54:55.03Z</time></trkpt><trkpt lat="44.0008992" lon="11.1405059"><ele>204.0</ele><time>2026-04-15T14:54:56.007Z</time></trkpt><trkpt lat="44.0007876" lon="11.1405582"><ele>204.0</ele><time>2026-04-15T14:54:57.016Z</time></trkpt><trkpt lat="44.0006743" lon="11.1406157"><ele>206.0</ele><time>2026-04-15T14:54:58.033Z</time></trkpt><trkpt lat="44.0005525" lon="11.1406722"><ele>208.0</ele><time>2026-04-15T14:54:58.997Z</time></trkpt><trkpt lat="44.0004244" lon="11.1407278"><ele>210.0</ele><time>2026-04-15T14:55:00.013Z</time></trkpt><trkpt lat="44.0002881" lon="11.1407818"><ele>212.0</ele><time>2026-04-15T14:55:01.034Z</time></trkpt><trkpt lat="44.0001472" lon="11.1408249"><ele>207.25</ele><time>2026-04-15T14:55:02.026Z</time></trkpt><trkpt lat="44.000009" lon="11.140866"><ele>202.5</ele><time>2026-04-15T14:55:03.019Z</time></trkpt><trkpt lat="43.999881" lon="11.1408944"><ele>197.75</ele><time>2026-04-15T14:55:04.019Z</time></trkpt><trkpt lat="43.9997687" lon="11.1409177"><ele>193.0</ele><time>2026-04-15T14:55:05.008Z</time></trkpt><trkpt lat="43.9996625" lon="11.1409393"><ele>193.0</ele><time>2026-04-15T14:55:05.987Z</time></trkpt><trkpt lat="43.9995598" lon="11.1409576"><ele>193.0</ele><time>2026-04-15T14:55:07.021Z</time></trkpt><trkpt lat="43.9994647" lon="11.1409726"><ele>193.0</ele><time>2026-04-15T14:55:08.005Z</time></trkpt><trkpt lat="43.999371" lon="11.1409854"><ele>193.0</ele><time>2026-04-15T14:55:09.023Z</time></trkpt><trkpt lat="43.9992751" lon="11.1409962"><ele>193.0</ele><time>2026-04-15T14:55:10.019Z</time></trkpt><trkpt lat="43.9991782" lon="11.1410097"><ele>193.5</ele><time>2026-04-15T14:55:11.019Z</time></trkpt><trkpt lat="43.9990788" lon="11.1410106"><ele>194.0</ele><time>2026-04-15T14:55:12.008Z</time></trkpt><trkpt lat="43.9989684" lon="11.1409757"><ele>194.5</ele><time>2026-04-15T14:55:13.006Z</time></trkpt><trkpt lat="43.9988619" lon="11.1409105"><ele>195.0</ele><time>2026-04-15T14:55:14.015Z</time></trkpt><trkpt lat="43.9987566" lon="11.1408026"><ele>196.0</ele><time>2026-04-15T14:55:15Z</time></trkpt><trkpt lat="43.9986551" lon="11.1406779"><ele>197.0</ele><time>2026-04-15T14:55:16.01Z</time></trkpt><trkpt lat="43.9985452" lon="11.1405472"><ele>198.0</ele><time>2026-04-15T14:55:17.019Z</time></trkpt><trkpt lat="43.9984277" lon="11.1404177"><ele>199.0</ele><time>2026-04-15T14:55:18.021Z</time></trkpt><trkpt lat="43.9983008" lon="11.1402934"><ele>199.0</ele><time>2026-04-15T14:55:19.017Z</time></trkpt><trkpt lat="43.9981586" lon="11.1401886"><ele>199.0</ele><time>2026-04-15T14:55:19.981Z</time></trkpt><trkpt lat="43.9980172" lon="11.1401044"><ele>199.0</ele><time>2026-04-15T14:55:21.03Z</time></trkpt><trkpt lat="43.997876" lon="11.1400296"><ele>199.0</ele><time>2026-04-15T14:55:21.989Z</time></trkpt><trkpt lat="43.9977332" lon="11.1399593"><ele>199.0</ele><time>2026-04-15T14:55:23.011Z</time></trkpt><trkpt lat="43.9975976" lon="11.1398886"><ele>199.0</ele><time>2026-04-15T14:55:24.018Z</time></trkpt><trkpt lat="43.9974624" lon="11.139819"><ele>199.0</ele><time>2026-04-15T14:55:25.013Z</time></trkpt><trkpt lat="43.9973351" lon="11.1397539"><ele>198.75</ele><time>2026-04-15T14:55:25.987Z</time></trkpt><trkpt lat="43.9972128" lon="11.1396864"><ele>198.5</ele><time>2026-04-15T14:55:27.008Z</time></trkpt><trkpt lat="43.9970915" lon="11.1396174"><ele>198.25</ele><time>2026-04-15T14:55:28.015Z</time></trkpt><trkpt lat="43.9969739" lon="11.1395473"><ele>198.0</ele><time>2026-04-15T14:55:28.981Z</time></trkpt><trkpt lat="43.9968637" lon="11.1394852"><ele>198.0</ele><time>2026-04-15T14:55:29.99Z</time></trkpt><trkpt lat="43.9967594" lon="11.1394322"><ele>198.0</ele><time>2026-04-15T14:55:31.008Z</time></trkpt><trkpt lat="43.996652" lon="11.1393822"><ele>198.0</ele><time>2026-04-15T14:55:31.989Z</time></trkpt><trkpt lat="43.9965368" lon="11.139336"><ele>198.0</ele><time>2026-04-15T14:55:33Z</time></trkpt><trkpt lat="43.9964196" lon="11.1392885"><ele>196.0</ele><time>2026-04-15T14:55:34.012Z</time></trkpt><trkpt lat="43.9963044" lon="11.1392416"><ele>194.0</ele><time>2026-04-15T14:55:35.006Z</time></trkpt><trkpt lat="43.9961804" lon="11.1391928"><ele>192.0</ele><time>2026-04-15T14:55:36Z</time></trkpt><trkpt lat="43.9960377" lon="11.1391368"><ele>190.0</ele><time>2026-04-15T14:55:36.984Z</time></trkpt><trkpt lat="43.9958715" lon="11.1390696"><ele>193.66666666666669</ele><time>2026-04-15T14:55:38.002Z</time></trkpt><trkpt lat="43.9956887" lon="11.1389843"><ele>197.33333333333334</ele><time>2026-04-15T14:55:39.022Z</time></trkpt><trkpt lat="43.9954966" lon="11.1388859"><ele>201.0</ele><time>2026-04-15T14:55:40.011Z</time></trkpt><trkpt lat="43.9952983" lon="11.1387768"><ele>201.0</ele><time>2026-04-15T14:55:41.022Z</time></trkpt><trkpt lat="43.9951085" lon="11.1386666"><ele>201.0</ele><time>2026-04-15T14:55:42.018Z</time></trkpt><trkpt lat="43.9949285" lon="11.1385436"><ele>201.0</ele><time>2026-04-15T14:55:42.997Z</time></trkpt><trkpt lat="43.9947554" lon="11.1384197"><ele>198.33333333333331</ele><time>2026-04-15T14:55:43.99Z</time></trkpt><trkpt lat="43.994588" lon="11.1382971"><ele>195.66666666666666</ele><time>2026-04-15T14:55:44.998Z</time></trkpt><trkpt lat="43.9944201" lon="11.1381983"><ele>193.0</ele><time>2026-04-15T14:55:45.985Z</time></trkpt><trkpt lat="43.9942547" lon="11.1381193"><ele>202.66666666666666</ele><time>2026-04-15T14:55:46.987Z</time></trkpt><trkpt lat="43.9940868" lon="11.1380456"><ele>212.33333333333331</ele><time>2026-04-15T14:55:47.985Z</time></trkpt><trkpt lat="43.9939178" lon="11.1379565"><ele>222.0</ele><time>2026-04-15T14:55:49.019Z</time></trkpt><trkpt lat="43.9937524" lon="11.1378625"><ele>222.0</ele><time>2026-04-15T14:55:49.975Z</time></trkpt><trkpt lat="43.9935933" lon="11.1377786"><ele>222.0</ele><time>2026-04-15T14:55:50.976Z</time></trkpt><trkpt lat="43.9934375" lon="11.1377102"><ele>222.0</ele><time>2026-04-15T14:55:51.994Z</time></trkpt><trkpt lat="43.9932867" lon="11.1376388"><ele>217.0</ele><time>2026-04-15T14:55:52.991Z</time></trkpt><trkpt lat="43.9931355" lon="11.1375801"><ele>212.0</ele><time>2026-04-15T14:55:53.984Z</time></trkpt><trkpt lat="43.9929852" lon="11.1375346"><ele>207.0</ele><time>2026-04-15T14:55:54.981Z</time></trkpt><trkpt lat="43.9928338" lon="11.137492"><ele>207.0</ele><time>2026-04-15T14:55:55.975Z</time></trkpt><trkpt lat="43.9926858" lon="11.1374559"><ele>207.0</ele><time>2026-04-15T14:55:56.992Z</time></trkpt><trkpt lat="43.9925395" lon="11.1374323"><ele>207.0</ele><time>2026-04-15T14:55:57.983Z</time></trkpt><trkpt lat="43.9923961" lon="11.1374135"><ele>207.0</ele><time>2026-04-15T14:55:58.993Z</time></trkpt><trkpt lat="43.9922489" lon="11.1373951"><ele>201.33333333333334</ele><time>2026-04-15T14:55:59.988Z</time></trkpt><trkpt lat="43.992095" lon="11.137386"><ele>195.66666666666669</ele><time>2026-04-15T14:56:00.987Z</time></trkpt><trkpt lat="43.9919467" lon="11.1373753"><ele>190.0</ele><time>2026-04-15T14:56:01.998Z</time></trkpt><trkpt lat="43.9917964" lon="11.1373576"><ele>198.66666666666669</ele><time>2026-04-15T14:56:02.983Z</time></trkpt><trkpt lat="43.9916432" lon="11.137325"><ele>207.33333333333334</ele><time>2026-04-15T14:56:04.005Z</time></trkpt><trkpt lat="43.991481" lon="11.1372769"><ele>216.0</ele><time>2026-04-15T14:56:05.012Z</time></trkpt><trkpt lat="43.9913179" lon="11.1372108"><ele>216.0</ele><time>2026-04-15T14:56:06.017Z</time></trkpt><trkpt lat="43.9911521" lon="11.1371471"><ele>216.0</ele><time>2026-04-15T14:56:07.004Z</time></trkpt><trkpt lat="43.9909901" lon="11.1370798"><ele>216.0</ele><time>2026-04-15T14:56:08.006Z</time></trkpt><trkpt lat="43.9908396" lon="11.1370141"><ele>208.33333333333331</ele><time>2026-04-15T14:56:08.979Z</time></trkpt><trkpt lat="43.9906891" lon="11.1369519"><ele>200.66666666666666</ele><time>2026-04-15T14:56:10.005Z</time></trkpt><trkpt lat="43.9905353" lon="11.13689"><ele>193.0</ele><time>2026-04-15T14:56:10.997Z</time></trkpt><trkpt lat="43.9903759" lon="11.1368301"><ele>193.0</ele><time>2026-04-15T14:56:11.994Z</time></trkpt><trkpt lat="43.990215" lon="11.136784"><ele>193.0</ele><time>2026-04-15T14:56:13.008Z</time></trkpt><trkpt lat="43.9900592" lon="11.1367407"><ele>193.0</ele><time>2026-04-15T14:56:14.006Z</time></trkpt><trkpt lat="43.9899079" lon="11.1367026"><ele>190.66666666666666</ele><time>2026-04-15T14:56:14.978Z</time></trkpt><trkpt lat="43.9897549" lon="11.136668"><ele>188.33333333333331</ele><time>2026-04-15T14:56:16.006Z</time></trkpt><trkpt lat="43.989599" lon="11.1366359"><ele>186.0</ele><time>2026-04-15T14:56:16.997Z</time></trkpt><trkpt lat="43.9894461" lon="11.1366063"><ele>186.0</ele><time>2026-04-15T14:56:17.992Z</time></trkpt><trkpt lat="43.989305" lon="11.1365716"><ele>186.0</ele><time>2026-04-15T14:56:19.018Z</time></trkpt><trkpt lat="43.9891713" lon="11.1365264"><ele>186.0</ele><time>2026-04-15T14:56:20.007Z</time></trkpt><trkpt lat="43.9890396" lon="11.1364527"><ele>186.0</ele><time>2026-04-15T14:56:20.992Z</time></trkpt><trkpt lat="43.9889141" lon="11.136348"><ele>187.25</ele><time>2026-04-15T14:56:21.995Z</time></trkpt><trkpt lat="43.9888025" lon="11.1362172"><ele>188.5</ele><time>2026-04-15T14:56:22.971Z</time></trkpt><trkpt lat="43.9887054" lon="11.1360676"><ele>189.75</ele><time>2026-04-15T14:56:23.973Z</time></trkpt><trkpt lat="43.9886314" lon="11.1359085"><ele>191.0</ele><time>2026-04-15T14:56:24.996Z</time></trkpt><trkpt lat="43.9885726" lon="11.1357557"><ele>192.60000000000002</ele><time>2026-04-15T14:56:26.009Z</time></trkpt><trkpt lat="43.9885356" lon="11.135606"><ele>194.2</ele><time>2026-04-15T14:56:26.996Z</time></trkpt><trkpt lat="43.9885026" lon="11.1354772"><ele>195.8</ele><time>2026-04-15T14:56:27.993Z</time></trkpt><trkpt lat="43.9884734" lon="11.1353535"><ele>197.39999999999998</ele><time>2026-04-15T14:56:29.004Z</time></trkpt><trkpt lat="43.9884576" lon="11.1352375"><ele>199.0</ele><time>2026-04-15T14:56:29.974Z</time></trkpt><trkpt lat="43.9884546" lon="11.1351267"><ele>198.99999999999997</ele><time>2026-04-15T14:56:30.989Z</time></trkpt><trkpt lat="43.9884697" lon="11.1350119"><ele>199.0</ele><time>2026-04-15T14:56:32.002Z</time></trkpt><trkpt lat="43.9884858" lon="11.1349035"><ele>199.0</ele><time>2026-04-15T14:56:32.992Z</time></trkpt><trkpt lat="43.9884772" lon="11.1347999"><ele>199.0</ele><time>2026-04-15T14:56:33.978Z</time></trkpt><trkpt lat="43.9884558" lon="11.1346878"><ele>198.99999999999997</ele><time>2026-04-15T14:56:34.988Z</time></trkpt><trkpt lat="43.9884353" lon="11.134564"><ele>199.0</ele><time>2026-04-15T14:56:35.984Z</time></trkpt><trkpt lat="43.9884164" lon="11.13441"><ele>196.0</ele><time>2026-04-15T14:56:36.982Z</time></trkpt><trkpt lat="43.9883854" lon="11.1342487"><ele>193.0</ele><time>2026-04-15T14:56:38.014Z</time></trkpt><trkpt lat="43.9883511" lon="11.1340822"><ele>190.0</ele><time>2026-04-15T14:56:39.002Z</time></trkpt><trkpt lat="43.988321" lon="11.1338966"><ele>187.0</ele><time>2026-04-15T14:56:40.009Z</time></trkpt><trkpt lat="43.9882875" lon="11.1336879"><ele>187.0</ele><time>2026-04-15T14:56:41.013Z</time></trkpt><trkpt lat="43.9882452" lon="11.1334775"><ele>187.0</ele><time>2026-04-15T14:56:41.988Z</time></trkpt><trkpt lat="43.9882035" lon="11.1332483"><ele>187.0</ele><time>2026-04-15T14:56:42.977Z</time></trkpt><trkpt lat="43.988147" lon="11.1330238"><ele>194.0</ele><time>2026-04-15T14:56:44.016Z</time></trkpt><trkpt lat="43.9880866" lon="11.1328131"><ele>201.0</ele><time>2026-04-15T14:56:45.107Z</time></trkpt><trkpt lat="43.9879299" lon="11.1324191"><ele>203.66666666666669</ele><time>2026-04-15T14:56:47.085Z</time></trkpt><trkpt lat="43.9878414" lon="11.1322437"><ele>206.33333333333334</ele><time>2026-04-15T14:56:47.985Z</time></trkpt><trkpt lat="43.9877479" lon="11.1320808"><ele>209.0</ele><time>2026-04-15T14:56:49.007Z</time></trkpt><trkpt lat="43.9876491" lon="11.1319303"><ele>209.0</ele><time>2026-04-15T14:56:50.11Z</time></trkpt><trkpt lat="43.9875437" lon="11.1318011"><ele>209.0</ele><time>2026-04-15T14:56:51.093Z</time></trkpt><trkpt lat="43.9874369" lon="11.1316816"><ele>209.0</ele><time>2026-04-15T14:56:52.088Z</time></trkpt><trkpt lat="43.9873246" lon="11.1315686"><ele>209.0</ele><time>2026-04-15T14:56:53.093Z</time></trkpt><trkpt lat="43.987215" lon="11.1314546"><ele>206.25</ele><time>2026-04-15T14:56:54.072Z</time></trkpt><trkpt lat="43.9871002" lon="11.1313376"><ele>203.5</ele><time>2026-04-15T14:56:54.988Z</time></trkpt><trkpt lat="43.9869861" lon="11.1312255"><ele>200.75</ele><time>2026-04-15T14:56:55.995Z</time></trkpt><trkpt lat="43.9868746" lon="11.1311062"><ele>198.0</ele><time>2026-04-15T14:56:57.108Z</time></trkpt><trkpt lat="43.9867652" lon="11.1309901"><ele>195.5</ele><time>2026-04-15T14:56:58.069Z</time></trkpt><trkpt lat="43.9866615" lon="11.1308726"><ele>193.0</ele><time>2026-04-15T14:56:59.08Z</time></trkpt><trkpt lat="43.9865761" lon="11.1307564"><ele>190.5</ele><time>2026-04-15T14:57:00.085Z</time></trkpt><trkpt lat="43.9865079" lon="11.1306371"><ele>188.0</ele><time>2026-04-15T14:57:00.997Z</time></trkpt><trkpt lat="43.9864539" lon="11.1305311"><ele>188.0</ele><time>2026-04-15T14:57:01.991Z</time></trkpt><trkpt lat="43.986402" lon="11.1304322"><ele>188.0</ele><time>2026-04-15T14:57:03.081Z</time></trkpt><trkpt lat="43.9863505" lon="11.130341"><ele>188.0</ele><time>2026-04-15T14:57:04.086Z</time></trkpt><trkpt lat="43.9862966" lon="11.1302664"><ele>188.0</ele><time>2026-04-15T14:57:05.108Z</time></trkpt><trkpt lat="43.98622" lon="11.1302145"><ele>188.0</ele><time>2026-04-15T14:57:06.1Z</time></trkpt><trkpt lat="43.9861228" lon="11.1301737"><ele>188.0</ele><time>2026-04-15T14:57:07.09Z</time></trkpt><trkpt lat="43.9860092" lon="11.130175"><ele>188.0</ele><time>2026-04-15T14:57:08.08Z</time></trkpt><trkpt lat="43.9858844" lon="11.1302255"><ele>188.0</ele><time>2026-04-15T14:57:09.076Z</time></trkpt><trkpt lat="43.9857558" lon="11.1302918"><ele>188.0</ele><time>2026-04-15T14:57:10.072Z</time></trkpt><trkpt lat="43.9856152" lon="11.1303618"><ele>188.0</ele><time>2026-04-15T14:57:11.112Z</time></trkpt><trkpt lat="43.9854493" lon="11.1304539"><ele>187.33333333333331</ele><time>2026-04-15T14:57:12.085Z</time></trkpt><trkpt lat="43.9852772" lon="11.1305424"><ele>186.66666666666666</ele><time>2026-04-15T14:57:13.079Z</time></trkpt><trkpt lat="43.9851293" lon="11.130613"><ele>186.0</ele><time>2026-04-15T14:57:14.077Z</time></trkpt><trkpt lat="43.9849817" lon="11.1306746"><ele>181.0</ele><time>2026-04-15T14:57:15.104Z</time></trkpt><trkpt lat="43.984826" lon="11.1307366"><ele>176.0</ele><time>2026-04-15T14:57:16.071Z</time></trkpt><trkpt lat="43.9846685" lon="11.1307849"><ele>171.0</ele><time>2026-04-15T14:57:17.097Z</time></trkpt><trkpt lat="43.9844946" lon="11.1307922"><ele>171.0</ele><time>2026-04-15T14:57:18.084Z</time></trkpt><trkpt lat="43.9843099" lon="11.1307652"><ele>171.0</ele><time>2026-04-15T14:57:19.077Z</time></trkpt><trkpt lat="43.98412" lon="11.1306884"><ele>171.0</ele><time>2026-04-15T14:57:20.069Z</time></trkpt><trkpt lat="43.9839302" lon="11.1305567"><ele>169.0</ele><time>2026-04-15T14:57:21.072Z</time></trkpt><trkpt lat="43.983741" lon="11.1304048"><ele>167.0</ele><time>2026-04-15T14:57:22.103Z</time></trkpt><trkpt lat="43.9835582" lon="11.1302261"><ele>165.0</ele><time>2026-04-15T14:57:23.072Z</time></trkpt><trkpt lat="43.9833626" lon="11.1300274"><ele>164.5</ele><time>2026-04-15T14:57:24.102Z</time></trkpt><trkpt lat="43.9831612" lon="11.1298171"><ele>164.0</ele><time>2026-04-15T14:57:25.07Z</time></trkpt><trkpt lat="43.9829602" lon="11.1295976"><ele>164.0</ele><time>2026-04-15T14:57:26.088Z</time></trkpt><trkpt lat="43.9827657" lon="11.1293938"><ele>164.0</ele><time>2026-04-15T14:57:27.095Z</time></trkpt><trkpt lat="43.9825722" lon="11.1291979"><ele>163.0</ele><time>2026-04-15T14:57:28.097Z</time></trkpt><trkpt lat="43.9823834" lon="11.1290032"><ele>162.0</ele><time>2026-04-15T14:57:29.064Z</time></trkpt><trkpt lat="43.9822115" lon="11.1288146"><ele>162.0</ele><time>2026-04-15T14:57:30.083Z</time></trkpt><trkpt lat="43.9820566" lon="11.1286319"><ele>162.0</ele><time>2026-04-15T14:57:31.071Z</time></trkpt><trkpt lat="43.9819142" lon="11.1284561"><ele>162.0</ele><time>2026-04-15T14:57:32.067Z</time></trkpt><trkpt lat="43.9817928" lon="11.1282889"><ele>162.25</ele><time>2026-04-15T14:57:33.081Z</time></trkpt><trkpt lat="43.9816934" lon="11.1281322"><ele>162.5</ele><time>2026-04-15T14:57:34.09Z</time></trkpt><trkpt lat="43.9816201" lon="11.1279851"><ele>162.75</ele><time>2026-04-15T14:57:35.078Z</time></trkpt><trkpt lat="43.9815718" lon="11.1278615"><ele>163.0</ele><time>2026-04-15T14:57:36.076Z</time></trkpt><trkpt lat="43.9815448" lon="11.1277498"><ele>163.0</ele><time>2026-04-15T14:57:37.082Z</time></trkpt><trkpt lat="43.9815462" lon="11.1276131"><ele>163.0</ele><time>2026-04-15T14:57:38.069Z</time></trkpt><trkpt lat="43.9815636" lon="11.1274767"><ele>163.0</ele><time>2026-04-15T14:57:39.094Z</time></trkpt><trkpt lat="43.9815392" lon="11.1273571"><ele>163.0</ele><time>2026-04-15T14:57:40.069Z</time></trkpt><trkpt lat="43.981473" lon="11.127263"><ele>163.0</ele><time>2026-04-15T14:57:41.078Z</time></trkpt><trkpt lat="43.9813795" lon="11.1272157"><ele>163.4</ele><time>2026-04-15T14:57:42.075Z</time></trkpt><trkpt lat="43.981281" lon="11.1272282"><ele>163.8</ele><time>2026-04-15T14:57:43.066Z</time></trkpt><trkpt lat="43.9811871" lon="11.1272703"><ele>164.2</ele><time>2026-04-15T14:57:44.097Z</time></trkpt><trkpt lat="43.9810769" lon="11.1272728"><ele>164.6</ele><time>2026-04-15T14:57:45.093Z</time></trkpt><trkpt lat="43.9809656" lon="11.1272222"><ele>165.0</ele><time>2026-04-15T14:57:46.065Z</time></trkpt><trkpt lat="43.9808526" lon="11.127139"><ele>165.25</ele><time>2026-04-15T14:57:47.095Z</time></trkpt><trkpt lat="43.9807499" lon="11.1270305"><ele>165.5</ele><time>2026-04-15T14:57:48.075Z</time></trkpt><trkpt lat="43.9806577" lon="11.1268977"><ele>165.75</ele><time>2026-04-15T14:57:49.088Z</time></trkpt><trkpt lat="43.9805605" lon="11.1267568"><ele>166.0</ele><time>2026-04-15T14:57:50.079Z</time></trkpt><trkpt lat="43.9804697" lon="11.1266145"><ele>166.5</ele><time>2026-04-15T14:57:51.109Z</time></trkpt><trkpt lat="43.9803963" lon="11.1264629"><ele>167.0</ele><time>2026-04-15T14:57:52.091Z</time></trkpt><trkpt lat="43.980331" lon="11.1263082"><ele>167.5</ele><time>2026-04-15T14:57:53.096Z</time></trkpt><trkpt lat="43.9802589" lon="11.1261718"><ele>168.0</ele><time>2026-04-15T14:57:54.088Z</time></trkpt><trkpt lat="43.9801867" lon="11.1260332"><ele>168.0</ele><time>2026-04-15T14:57:55.077Z</time></trkpt><trkpt lat="43.9801045" lon="11.1258747"><ele>168.0</ele><time>2026-04-15T14:57:56.101Z</time></trkpt><trkpt lat="43.9799863" lon="11.1256564"><ele>168.0</ele><time>2026-04-15T14:57:57.065Z</time></trkpt><trkpt lat="43.9798654" lon="11.1254136"><ele>168.0</ele><time>2026-04-15T14:57:58.083Z</time></trkpt><trkpt lat="43.979765" lon="11.1251979"><ele>168.0</ele><time>2026-04-15T14:57:59.087Z</time></trkpt><trkpt lat="43.9796725" lon="11.1250119"><ele>168.0</ele><time>2026-04-15T14:58:00.105Z</time></trkpt><trkpt lat="43.9795781" lon="11.1248497"><ele>168.0</ele><time>2026-04-15T14:58:01.098Z</time></trkpt><trkpt lat="43.9794599" lon="11.1247337"><ele>168.0</ele><time>2026-04-15T14:58:02.091Z</time></trkpt><trkpt lat="43.9793355" lon="11.1246481"><ele>168.0</ele><time>2026-04-15T14:58:03.082Z</time></trkpt><trkpt lat="43.979204" lon="11.1246031"><ele>168.0</ele><time>2026-04-15T14:58:04.073Z</time></trkpt><trkpt lat="43.9790809" lon="11.1246102"><ele>167.0</ele><time>2026-04-15T14:58:05.088Z</time></trkpt><trkpt lat="43.9789712" lon="11.1246606"><ele>166.0</ele><time>2026-04-15T14:58:06.096Z</time></trkpt><trkpt lat="43.97887" lon="11.124739"><ele>165.0</ele><time>2026-04-15T14:58:07.092Z</time></trkpt><trkpt lat="43.9787778" lon="11.1248212"><ele>164.0</ele><time>2026-04-15T14:58:08.068Z</time></trkpt><trkpt lat="43.9786832" lon="11.1249046"><ele>164.0</ele><time>2026-04-15T14:58:09.08Z</time></trkpt><trkpt lat="43.9785861" lon="11.1249918"><ele>164.0</ele><time>2026-04-15T14:58:10.094Z</time></trkpt><trkpt lat="43.9784977" lon="11.1250708"><ele>164.0</ele><time>2026-04-15T14:58:11.101Z</time></trkpt><trkpt lat="43.9784132" lon="11.125122"><ele>164.0</ele><time>2026-04-15T14:58:12.085Z</time></trkpt><trkpt lat="43.9783245" lon="11.1251728"><ele>164.0</ele><time>2026-04-15T14:58:13.065Z</time></trkpt><trkpt lat="43.9782213" lon="11.1252071"><ele>165.6</ele><time>2026-04-15T14:58:14.06Z</time></trkpt><trkpt lat="43.9781204" lon="11.1252179"><ele>167.2</ele><time>2026-04-15T14:58:15.077Z</time></trkpt><trkpt lat="43.9780218" lon="11.1251917"><ele>168.79999999999998</ele><time>2026-04-15T14:58:16.074Z</time></trkpt><trkpt lat="43.9779272" lon="11.125134"><ele>170.39999999999998</ele><time>2026-04-15T14:58:17.061Z</time></trkpt><trkpt lat="43.9778298" lon="11.1250563"><ele>172.0</ele><time>2026-04-15T14:58:18.074Z</time></trkpt><trkpt lat="43.9777107" lon="11.1249159"><ele>172.0</ele><time>2026-04-15T14:58:19.092Z</time></trkpt><trkpt lat="43.9775685" lon="11.124733"><ele>172.0</ele><time>2026-04-15T14:58:20.08Z</time></trkpt><trkpt lat="43.9774279" lon="11.1245357"><ele>172.0</ele><time>2026-04-15T14:58:21.084Z</time></trkpt><trkpt lat="43.977287" lon="11.1243168"><ele>172.0</ele><time>2026-04-15T14:58:22.074Z</time></trkpt><trkpt lat="43.9771391" lon="11.1241086"><ele>172.0</ele><time>2026-04-15T14:58:23.082Z</time></trkpt><trkpt lat="43.9769983" lon="11.1239198"><ele>172.0</ele><time>2026-04-15T14:58:24.081Z</time></trkpt><trkpt lat="43.9768582" lon="11.1237266"><ele>171.0</ele><time>2026-04-15T14:58:25.088Z</time></trkpt><trkpt lat="43.9767239" lon="11.1235202"><ele>170.0</ele><time>2026-04-15T14:58:26.075Z</time></trkpt><trkpt lat="43.9765958" lon="11.1232953"><ele>169.0</ele><time>2026-04-15T14:58:27.072Z</time></trkpt><trkpt lat="43.9764698" lon="11.1230828"><ele>172.66666666666669</ele><time>2026-04-15T14:58:28.073Z</time></trkpt><trkpt lat="43.9763498" lon="11.1228857"><ele>176.33333333333334</ele><time>2026-04-15T14:58:29.086Z</time></trkpt><trkpt lat="43.9762279" lon="11.1227084"><ele>180.0</ele><time>2026-04-15T14:58:30.078Z</time></trkpt><trkpt lat="43.9760867" lon="11.122565"><ele>180.0</ele><time>2026-04-15T14:58:31.081Z</time></trkpt><trkpt lat="43.9759196" lon="11.1224845"><ele>180.0</ele><time>2026-04-15T14:58:32.071Z</time></trkpt><trkpt lat="43.9757167" lon="11.1224438"><ele>180.0</ele><time>2026-04-15T14:58:33.104Z</time></trkpt><trkpt lat="43.9754967" lon="11.1224087"><ele>186.33333333333331</ele><time>2026-04-15T14:58:34.068Z</time></trkpt><trkpt lat="43.9752891" lon="11.122365"><ele>192.66666666666666</ele><time>2026-04-15T14:58:35.064Z</time></trkpt><trkpt lat="43.9750978" lon="11.1223316"><ele>199.0</ele><time>2026-04-15T14:58:36.08Z</time></trkpt><trkpt lat="43.9749262" lon="11.122305"><ele>199.0</ele><time>2026-04-15T14:58:37.077Z</time></trkpt><trkpt lat="43.97477" lon="11.1223025"><ele>199.0</ele><time>2026-04-15T14:58:38.086Z</time></trkpt><trkpt lat="43.9746234" lon="11.1223653"><ele>199.0</ele><time>2026-04-15T14:58:39.095Z</time></trkpt><trkpt lat="43.9744771" lon="11.1224931"><ele>192.66666666666666</ele><time>2026-04-15T14:58:40.058Z</time></trkpt><trkpt lat="43.9743392" lon="11.1226599"><ele>186.33333333333331</ele><time>2026-04-15T14:58:41.091Z</time></trkpt><trkpt lat="43.9742099" lon="11.122853"><ele>180.0</ele><time>2026-04-15T14:58:42.072Z</time></trkpt><trkpt lat="43.9740836" lon="11.1230572"><ele>172.66666666666666</ele><time>2026-04-15T14:58:43.084Z</time></trkpt><trkpt lat="43.9739564" lon="11.1232655"><ele>165.33333333333331</ele><time>2026-04-15T14:58:44.073Z</time></trkpt><trkpt lat="43.9738177" lon="11.1234685"><ele>158.0</ele><time>2026-04-15T14:58:45.083Z</time></trkpt><trkpt lat="43.9736746" lon="11.1236524"><ele>158.0</ele><time>2026-04-15T14:58:46.059Z</time></trkpt><trkpt lat="43.9735303" lon="11.1238151"><ele>158.0</ele><time>2026-04-15T14:58:47.081Z</time></trkpt><trkpt lat="43.9733713" lon="11.1239537"><ele>158.0</ele><time>2026-04-15T14:58:48.07Z</time></trkpt><trkpt lat="43.9731982" lon="11.1240751"><ele>158.33333333333331</ele><time>2026-04-15T14:58:49.061Z</time></trkpt><trkpt lat="43.9730136" lon="11.1241877"><ele>158.66666666666666</ele><time>2026-04-15T14:58:50.067Z</time></trkpt><trkpt lat="43.972815" lon="11.1243025"><ele>159.0</ele><time>2026-04-15T14:58:51.07Z</time></trkpt><trkpt lat="43.9726208" lon="11.1244125"><ele>164.66666666666666</ele><time>2026-04-15T14:58:52.064Z</time></trkpt><trkpt lat="43.9724435" lon="11.124517"><ele>170.33333333333331</ele><time>2026-04-15T14:58:53.098Z</time></trkpt><trkpt lat="43.9722761" lon="11.1246147"><ele>176.0</ele><time>2026-04-15T14:58:54.069Z</time></trkpt><trkpt lat="43.9721203" lon="11.1246732"><ele>176.0</ele><time>2026-04-15T14:58:55.054Z</time></trkpt><trkpt lat="43.9719811" lon="11.1246803"><ele>176.0</ele><time>2026-04-15T14:58:56.054Z</time></trkpt><trkpt lat="43.9718482" lon="11.1246205"><ele>176.0</ele><time>2026-04-15T14:58:57.058Z</time></trkpt><trkpt lat="43.9717385" lon="11.1244929"><ele>176.0</ele><time>2026-04-15T14:58:58.056Z</time></trkpt><trkpt lat="43.9716229" lon="11.1243598"><ele>175.25</ele><time>2026-04-15T14:58:59.059Z</time></trkpt><trkpt lat="43.9714995" lon="11.124241"><ele>174.5</ele><time>2026-04-15T14:59:00.074Z</time></trkpt><trkpt lat="43.9713793" lon="11.1241282"><ele>173.75</ele><time>2026-04-15T14:59:01.084Z</time></trkpt><trkpt lat="43.971269" lon="11.124024"><ele>173.0</ele><time>2026-04-15T14:59:02.089Z</time></trkpt><trkpt lat="43.9711608" lon="11.1239353"><ele>173.25</ele><time>2026-04-15T14:59:03.082Z</time></trkpt><trkpt lat="43.9710539" lon="11.1238441"><ele>173.5</ele><time>2026-04-15T14:59:04.057Z</time></trkpt><trkpt lat="43.9709459" lon="11.1237567"><ele>173.75</ele><time>2026-04-15T14:59:05.057Z</time></trkpt><trkpt lat="43.9708376" lon="11.1236639"><ele>174.0</ele><time>2026-04-15T14:59:06.077Z</time></trkpt><trkpt lat="43.9707275" lon="11.123568"><ele>174.0</ele><time>2026-04-15T14:59:07.054Z</time></trkpt><trkpt lat="43.9706152" lon="11.1234709"><ele>174.0</ele><time>2026-04-15T14:59:08.065Z</time></trkpt><trkpt lat="43.9704984" lon="11.1233742"><ele>174.0</ele><time>2026-04-15T14:59:09.077Z</time></trkpt><trkpt lat="43.9703803" lon="11.12328"><ele>174.0</ele><time>2026-04-15T14:59:10.066Z</time></trkpt><trkpt lat="43.9702553" lon="11.1231931"><ele>175.25</ele><time>2026-04-15T14:59:11.078Z</time></trkpt><trkpt lat="43.9701164" lon="11.1231235"><ele>176.5</ele><time>2026-04-15T14:59:12.072Z</time></trkpt><trkpt lat="43.9699713" lon="11.123059"><ele>177.75</ele><time>2026-04-15T14:59:13.073Z</time></trkpt><trkpt lat="43.9698286" lon="11.1230019"><ele>179.0</ele><time>2026-04-15T14:59:14.068Z</time></trkpt><trkpt lat="43.969693" lon="11.1229481"><ele>179.0</ele><time>2026-04-15T14:59:15.066Z</time></trkpt><trkpt lat="43.9695639" lon="11.1229032"><ele>179.0</ele><time>2026-04-15T14:59:16.065Z</time></trkpt><trkpt lat="43.9694406" lon="11.1228587"><ele>179.0</ele><time>2026-04-15T14:59:17.072Z</time></trkpt><trkpt lat="43.9693229" lon="11.1228213"><ele>179.0</ele><time>2026-04-15T14:59:18.059Z</time></trkpt><trkpt lat="43.9692118" lon="11.1227984"><ele>178.0</ele><time>2026-04-15T14:59:19.092Z</time></trkpt><trkpt lat="43.9690998" lon="11.1227827"><ele>177.0</ele><time>2026-04-15T14:59:20.081Z</time></trkpt><trkpt lat="43.9689888" lon="11.122789"><ele>176.0</ele><time>2026-04-15T14:59:21.082Z</time></trkpt><trkpt lat="43.9688814" lon="11.1228164"><ele>175.0</ele><time>2026-04-15T14:59:22.084Z</time></trkpt><trkpt lat="43.9687779" lon="11.1228605"><ele>174.0</ele><time>2026-04-15T14:59:23.074Z</time></trkpt><trkpt lat="43.9686791" lon="11.1229244"><ele>174.0</ele><time>2026-04-15T14:59:24.056Z</time></trkpt><trkpt lat="43.9685825" lon="11.1229923"><ele>174.0</ele><time>2026-04-15T14:59:25.073Z</time></trkpt><trkpt lat="43.9684839" lon="11.1230554"><ele>174.0</ele><time>2026-04-15T14:59:26.077Z</time></trkpt><trkpt lat="43.9683869" lon="11.1231251"><ele>174.0</ele><time>2026-04-15T14:59:27.063Z</time></trkpt><trkpt lat="43.9682961" lon="11.1232068"><ele>174.0</ele><time>2026-04-15T14:59:28.069Z</time></trkpt><trkpt lat="43.9682122" lon="11.1232781"><ele>173.16666666666666</ele><time>2026-04-15T14:59:29.08Z</time></trkpt><trkpt lat="43.9681432" lon="11.1233425"><ele>172.33333333333334</ele><time>2026-04-15T14:59:30.052Z</time></trkpt><trkpt lat="43.9680768" lon="11.123389"><ele>171.5</ele><time>2026-04-15T14:59:31.083Z</time></trkpt><trkpt lat="43.9679876" lon="11.1234556"><ele>170.66666666666669</ele><time>2026-04-15T14:59:33.091Z</time></trkpt><trkpt lat="43.9679283" lon="11.1234986"><ele>169.83333333333334</ele><time>2026-04-15T14:59:35.094Z</time></trkpt><trkpt lat="43.9678837" lon="11.1235623"><ele>169.0</ele><time>2026-04-15T15:00:21.063Z</time></trkpt><trkpt lat="43.9677674" lon="11.1236466"><ele>169.0</ele><time>2026-04-15T15:00:23.057Z</time></trkpt><trkpt lat="43.9676859" lon="11.1237157"><ele>169.0</ele><time>2026-04-15T15:00:24.078Z</time></trkpt><trkpt lat="43.9675794" lon="11.1237985"><ele>169.0</ele><time>2026-04-15T15:00:25.071Z</time></trkpt><trkpt lat="43.9674542" lon="11.1238879"><ele>169.0</ele><time>2026-04-15T15:00:26.063Z</time></trkpt><trkpt lat="43.967331" lon="11.1239771"><ele>170.0</ele><time>2026-04-15T15:00:27.07Z</time></trkpt><trkpt lat="43.9672203" lon="11.1240565"><ele>171.0</ele><time>2026-04-15T15:00:28.055Z</time></trkpt><trkpt lat="43.9671157" lon="11.1241133"><ele>172.0</ele><time>2026-04-15T15:00:29.044Z</time></trkpt><trkpt lat="43.9670187" lon="11.1241618"><ele>173.0</ele><time>2026-04-15T15:00:30.067Z</time></trkpt><trkpt lat="43.9668972" lon="11.124208"><ele>173.0</ele><time>2026-04-15T15:00:31.057Z</time></trkpt><trkpt lat="43.9667508" lon="11.1242686"><ele>173.0</ele><time>2026-04-15T15:00:32.088Z</time></trkpt><trkpt lat="43.9665929" lon="11.1243456"><ele>173.0</ele><time>2026-04-15T15:00:33.07Z</time></trkpt><trkpt lat="43.9664189" lon="11.1244155"><ele>173.66666666666666</ele><time>2026-04-15T15:00:34.049Z</time></trkpt><trkpt lat="43.9662403" lon="11.1244803"><ele>174.33333333333334</ele><time>2026-04-15T15:00:35.057Z</time></trkpt><trkpt lat="43.9660635" lon="11.1245412"><ele>175.0</ele><time>2026-04-15T15:00:36.061Z</time></trkpt><trkpt lat="43.9658951" lon="11.124614"><ele>175.0</ele><time>2026-04-15T15:00:37.054Z</time></trkpt><trkpt lat="43.9657262" lon="11.124687"><ele>175.0</ele><time>2026-04-15T15:00:38.055Z</time></trkpt><trkpt lat="43.9655583" lon="11.1247575"><ele>175.0</ele><time>2026-04-15T15:00:39.074Z</time></trkpt><trkpt lat="43.965388" lon="11.1248283"><ele>175.0</ele><time>2026-04-15T15:00:40.064Z</time></trkpt><trkpt lat="43.9652194" lon="11.1248896"><ele>175.0</ele><time>2026-04-15T15:00:41.057Z</time></trkpt><trkpt lat="43.9650479" lon="11.124935"><ele>175.0</ele><time>2026-04-15T15:00:42.069Z</time></trkpt><trkpt lat="43.9648662" lon="11.1249444"><ele>175.0</ele><time>2026-04-15T15:00:43.066Z</time></trkpt><trkpt lat="43.9646832" lon="11.1249243"><ele>175.0</ele><time>2026-04-15T15:00:44.078Z</time></trkpt><trkpt lat="43.9645002" lon="11.124899"><ele>175.0</ele><time>2026-04-15T15:00:45.046Z</time></trkpt><trkpt lat="43.9643239" lon="11.1248768"><ele>170.0</ele><time>2026-04-15T15:00:46.042Z</time></trkpt><trkpt lat="43.9641509" lon="11.1248532"><ele>165.0</ele><time>2026-04-15T15:00:47.081Z</time></trkpt><trkpt lat="43.9640011" lon="11.1248366"><ele>160.0</ele><time>2026-04-15T15:00:48.069Z</time></trkpt><trkpt lat="43.9638658" lon="11.1248233"><ele>160.0</ele><time>2026-04-15T15:00:49.053Z</time></trkpt><trkpt lat="43.9637455" lon="11.1248203"><ele>160.0</ele><time>2026-04-15T15:00:50.067Z</time></trkpt><trkpt lat="43.9636324" lon="11.1248243"><ele>160.0</ele><time>2026-04-15T15:00:51.073Z</time></trkpt><trkpt lat="43.9635279" lon="11.1248278"><ele>160.0</ele><time>2026-04-15T15:00:52.064Z</time></trkpt><trkpt lat="43.9634267" lon="11.1248161"><ele>160.0</ele><time>2026-04-15T15:00:53.075Z</time></trkpt><trkpt lat="43.9633241" lon="11.1247866"><ele>158.83333333333334</ele><time>2026-04-15T15:00:54.065Z</time></trkpt><trkpt lat="43.9632124" lon="11.1247538"><ele>157.66666666666669</ele><time>2026-04-15T15:00:55.042Z</time></trkpt><trkpt lat="43.9631115" lon="11.1247303"><ele>156.5</ele><time>2026-04-15T15:00:56.046Z</time></trkpt><trkpt lat="43.9630357" lon="11.1247229"><ele>155.33333333333334</ele><time>2026-04-15T15:00:57.058Z</time></trkpt><trkpt lat="43.9629656" lon="11.1247258"><ele>154.16666666666666</ele><time>2026-04-15T15:00:58.069Z</time></trkpt><trkpt lat="43.9628897" lon="11.124724"><ele>153.0</ele><time>2026-04-15T15:00:59.047Z</time></trkpt><trkpt lat="43.9628021" lon="11.1247087"><ele>153.0</ele><time>2026-04-15T15:01:00.058Z</time></trkpt><trkpt lat="43.9626925" lon="11.1246817"><ele>153.0</ele><time>2026-04-15T15:01:01.069Z</time></trkpt><trkpt lat="43.962572" lon="11.1246713"><ele>153.0</ele><time>2026-04-15T15:01:02.074Z</time></trkpt><trkpt lat="43.9624387" lon="11.1246513"><ele>153.0</ele><time>2026-04-15T15:01:03.055Z</time></trkpt><trkpt lat="43.9622968" lon="11.1246315"><ele>152.75</ele><time>2026-04-15T15:01:04.093Z</time></trkpt><trkpt lat="43.9621504" lon="11.1246099"><ele>152.5</ele><time>2026-04-15T15:01:05.049Z</time></trkpt><trkpt lat="43.9620004" lon="11.124596"><ele>152.25</ele><time>2026-04-15T15:01:06.04Z</time></trkpt><trkpt lat="43.9618496" lon="11.1245773"><ele>152.0</ele><time>2026-04-15T15:01:07.056Z</time></trkpt><trkpt lat="43.9616976" lon="11.124558"><ele>151.0</ele><time>2026-04-15T15:01:08.054Z</time></trkpt><trkpt lat="43.9615529" lon="11.1245441"><ele>150.0</ele><time>2026-04-15T15:01:09.058Z</time></trkpt><trkpt lat="43.9614196" lon="11.1245229"><ele>149.0</ele><time>2026-04-15T15:01:10.072Z</time></trkpt><trkpt lat="43.9612929" lon="11.1244984"><ele>148.0</ele><time>2026-04-15T15:01:11.041Z</time></trkpt><trkpt lat="43.9611706" lon="11.1244838"><ele>148.0</ele><time>2026-04-15T15:01:12.064Z</time></trkpt><trkpt lat="43.9610538" lon="11.1244777"><ele>148.0</ele><time>2026-04-15T15:01:13.062Z</time></trkpt><trkpt lat="43.9609346" lon="11.124474"><ele>148.0</ele><time>2026-04-15T15:01:14.075Z</time></trkpt><trkpt lat="43.9608107" lon="11.1244832"><ele>148.0</ele><time>2026-04-15T15:01:15.076Z</time></trkpt><trkpt lat="43.9606885" lon="11.1245108"><ele>148.5</ele><time>2026-04-15T15:01:16.076Z</time></trkpt><trkpt lat="43.9605608" lon="11.1245678"><ele>149.0</ele><time>2026-04-15T15:01:17.042Z</time></trkpt><trkpt lat="43.9604334" lon="11.1246533"><ele>149.5</ele><time>2026-04-15T15:01:18.078Z</time></trkpt><trkpt lat="43.9603112" lon="11.1247419"><ele>150.0</ele><time>2026-04-15T15:01:19.059Z</time></trkpt><trkpt lat="43.9601863" lon="11.1248297"><ele>148.5</ele><time>2026-04-15T15:01:20.085Z</time></trkpt><trkpt lat="43.9600573" lon="11.1249092"><ele>147.0</ele><time>2026-04-15T15:01:21.071Z</time></trkpt><trkpt lat="43.9599286" lon="11.1249733"><ele>145.5</ele><time>2026-04-15T15:01:22.075Z</time></trkpt><trkpt lat="43.9598028" lon="11.1250221"><ele>144.0</ele><time>2026-04-15T15:01:23.067Z</time></trkpt><trkpt lat="43.9596806" lon="11.1250644"><ele>144.0</ele><time>2026-04-15T15:01:24.058Z</time></trkpt><trkpt lat="43.9595682" lon="11.1251061"><ele>144.0</ele><time>2026-04-15T15:01:25.08Z</time></trkpt><trkpt lat="43.9594683" lon="11.1251342"><ele>144.0</ele><time>2026-04-15T15:01:26.045Z</time></trkpt><trkpt lat="43.9593639" lon="11.1251424"><ele>144.0</ele><time>2026-04-15T15:01:27.075Z</time></trkpt><trkpt lat="43.9592589" lon="11.1251551"><ele>144.0</ele><time>2026-04-15T15:01:28.077Z</time></trkpt><trkpt lat="43.9591482" lon="11.1251747"><ele>144.5</ele><time>2026-04-15T15:01:29.065Z</time></trkpt><trkpt lat="43.9590085" lon="11.1251705"><ele>145.0</ele><time>2026-04-15T15:01:30.081Z</time></trkpt><trkpt lat="43.9588569" lon="11.1251652"><ele>145.5</ele><time>2026-04-15T15:01:31.081Z</time></trkpt><trkpt lat="43.9587071" lon="11.1251717"><ele>146.0</ele><time>2026-04-15T15:01:32.051Z</time></trkpt><trkpt lat="43.9585425" lon="11.1252018"><ele>146.0</ele><time>2026-04-15T15:01:33.033Z</time></trkpt><trkpt lat="43.9583664" lon="11.1252565"><ele>146.0</ele><time>2026-04-15T15:01:34.056Z</time></trkpt><trkpt lat="43.9581899" lon="11.1253272"><ele>146.0</ele><time>2026-04-15T15:01:35.062Z</time></trkpt><trkpt lat="43.9580096" lon="11.1254012"><ele>146.0</ele><time>2026-04-15T15:01:36.065Z</time></trkpt><trkpt lat="43.9578248" lon="11.1254858"><ele>146.0</ele><time>2026-04-15T15:01:37.065Z</time></trkpt><trkpt lat="43.9576255" lon="11.1255726"><ele>146.0</ele><time>2026-04-15T15:01:38.038Z</time></trkpt><trkpt lat="43.9574263" lon="11.1256536"><ele>144.0</ele><time>2026-04-15T15:01:39.056Z</time></trkpt><trkpt lat="43.9572262" lon="11.1257379"><ele>142.0</ele><time>2026-04-15T15:01:40.074Z</time></trkpt><trkpt lat="43.9570204" lon="11.1258205"><ele>140.0</ele><time>2026-04-15T15:01:41.051Z</time></trkpt><trkpt lat="43.9568139" lon="11.125896"><ele>140.0</ele><time>2026-04-15T15:01:42.045Z</time></trkpt><trkpt lat="43.9566074" lon="11.1259628"><ele>140.0</ele><time>2026-04-15T15:01:43.038Z</time></trkpt><trkpt lat="43.9563986" lon="11.1260232"><ele>140.0</ele><time>2026-04-15T15:01:44.061Z</time></trkpt><trkpt lat="43.9561946" lon="11.1260829"><ele>140.0</ele><time>2026-04-15T15:01:45.061Z</time></trkpt><trkpt lat="43.9559941" lon="11.1261472"><ele>140.0</ele><time>2026-04-15T15:01:46.066Z</time></trkpt><trkpt lat="43.9558066" lon="11.1262054"><ele>140.0</ele><time>2026-04-15T15:01:47.076Z</time></trkpt><trkpt lat="43.9556325" lon="11.1262503"><ele>140.75</ele><time>2026-04-15T15:01:48.054Z</time></trkpt><trkpt lat="43.9554672" lon="11.1262836"><ele>141.5</ele><time>2026-04-15T15:01:49.045Z</time></trkpt><trkpt lat="43.9553258" lon="11.1263015"><ele>142.25</ele><time>2026-04-15T15:01:50.051Z</time></trkpt><trkpt lat="43.955211" lon="11.1263166"><ele>143.0</ele><time>2026-04-15T15:01:51.066Z</time></trkpt><trkpt lat="43.9551223" lon="11.1263303"><ele>143.0</ele><time>2026-04-15T15:01:52.076Z</time></trkpt><trkpt lat="43.9550545" lon="11.1263346"><ele>143.0</ele><time>2026-04-15T15:01:53.061Z</time></trkpt><trkpt lat="43.9549858" lon="11.1263217"><ele>143.0</ele><time>2026-04-15T15:01:55.049Z</time></trkpt><trkpt lat="43.9548994" lon="11.1262797"><ele>143.0</ele><time>2026-04-15T15:01:59.042Z</time></trkpt><trkpt lat="43.9548332" lon="11.1262606"><ele>143.0</ele><time>2026-04-15T15:02:00.064Z</time></trkpt><trkpt lat="43.9547546" lon="11.1262638"><ele>143.0</ele><time>2026-04-15T15:02:01.072Z</time></trkpt><trkpt lat="43.9546696" lon="11.1263067"><ele>141.6</ele><time>2026-04-15T15:02:02.079Z</time></trkpt><trkpt lat="43.9545771" lon="11.1263568"><ele>140.20000000000002</ele><time>2026-04-15T15:02:03.058Z</time></trkpt><trkpt lat="43.9544937" lon="11.1264176"><ele>138.8</ele><time>2026-04-15T15:02:04.053Z</time></trkpt><trkpt lat="43.9544152" lon="11.1264861"><ele>137.4</ele><time>2026-04-15T15:02:05.043Z</time></trkpt><trkpt lat="43.9543377" lon="11.1265496"><ele>136.0</ele><time>2026-04-15T15:02:06.049Z</time></trkpt><trkpt lat="43.954264" lon="11.1266071"><ele>136.8</ele><time>2026-04-15T15:02:07.055Z</time></trkpt><trkpt lat="43.954187" lon="11.126653"><ele>137.6</ele><time>2026-04-15T15:02:08.044Z</time></trkpt><trkpt lat="43.9541071" lon="11.1267014"><ele>138.4</ele><time>2026-04-15T15:02:09.047Z</time></trkpt><trkpt lat="43.9540127" lon="11.1267486"><ele>139.2</ele><time>2026-04-15T15:02:10.062Z</time></trkpt><trkpt lat="43.9539197" lon="11.1267883"><ele>140.0</ele><time>2026-04-15T15:02:11.055Z</time></trkpt><trkpt lat="43.9538179" lon="11.1268303"><ele>140.0</ele><time>2026-04-15T15:02:12.065Z</time></trkpt><trkpt lat="43.9537083" lon="11.1268695"><ele>140.0</ele><time>2026-04-15T15:02:13.049Z</time></trkpt><trkpt lat="43.9535936" lon="11.1269052"><ele>140.0</ele><time>2026-04-15T15:02:14.056Z</time></trkpt><trkpt lat="43.953478" lon="11.1269472"><ele>140.0</ele><time>2026-04-15T15:02:15.062Z</time></trkpt><trkpt lat="43.9533695" lon="11.1269795"><ele>141.25</ele><time>2026-04-15T15:02:16.068Z</time></trkpt><trkpt lat="43.9532625" lon="11.1270106"><ele>142.5</ele><time>2026-04-15T15:02:17.033Z</time></trkpt><trkpt lat="43.9531496" lon="11.1270485"><ele>143.75</ele><time>2026-04-15T15:02:18.028Z</time></trkpt><trkpt lat="43.9530328" lon="11.1270889"><ele>145.0</ele><time>2026-04-15T15:02:19.044Z</time></trkpt><trkpt lat="43.9529097" lon="11.1271366"><ele>145.0</ele><time>2026-04-15T15:02:20.067Z</time></trkpt><trkpt lat="43.9527564" lon="11.1271945"><ele>145.0</ele><time>2026-04-15T15:02:21.05Z</time></trkpt><trkpt lat="43.952576" lon="11.1272554"><ele>145.0</ele><time>2026-04-15T15:02:22.077Z</time></trkpt><trkpt lat="43.9524085" lon="11.1273002"><ele>145.5</ele><time>2026-04-15T15:02:23.063Z</time></trkpt><trkpt lat="43.9522621" lon="11.1273357"><ele>146.0</ele><time>2026-04-15T15:02:24.031Z</time></trkpt><trkpt lat="43.9521306" lon="11.1273839"><ele>146.5</ele><time>2026-04-15T15:02:25.057Z</time></trkpt><trkpt lat="43.9520056" lon="11.1274272"><ele>147.0</ele><time>2026-04-15T15:02:26.082Z</time></trkpt><trkpt lat="43.951887" lon="11.127463"><ele>145.0</ele><time>2026-04-15T15:02:27.047Z</time></trkpt><trkpt lat="43.9517799" lon="11.1274935"><ele>143.0</ele><time>2026-04-15T15:02:28.075Z</time></trkpt><trkpt lat="43.9516688" lon="11.1275164"><ele>141.0</ele><time>2026-04-15T15:02:29.054Z</time></trkpt><trkpt lat="43.9515514" lon="11.1275215"><ele>139.0</ele><time>2026-04-15T15:02:30.074Z</time></trkpt><trkpt lat="43.9514233" lon="11.1274958"><ele>139.0</ele><time>2026-04-15T15:02:31.025Z</time></trkpt><trkpt lat="43.9512893" lon="11.1274347"><ele>139.0</ele><time>2026-04-15T15:02:32.065Z</time></trkpt><trkpt lat="43.9511543" lon="11.1273647"><ele>139.0</ele><time>2026-04-15T15:02:33.055Z</time></trkpt><trkpt lat="43.9510244" lon="11.1272979"><ele>139.0</ele><time>2026-04-15T15:02:34.062Z</time></trkpt><trkpt lat="43.9508954" lon="11.1272303"><ele>141.75</ele><time>2026-04-15T15:02:35.055Z</time></trkpt><trkpt lat="43.9507681" lon="11.127167"><ele>144.5</ele><time>2026-04-15T15:02:36.079Z</time></trkpt><trkpt lat="43.9506398" lon="11.1270977"><ele>147.25</ele><time>2026-04-15T15:02:37.066Z</time></trkpt><trkpt lat="43.9505162" lon="11.1270323"><ele>150.0</ele><time>2026-04-15T15:02:38.037Z</time></trkpt><trkpt lat="43.9503906" lon="11.1269589"><ele>150.0</ele><time>2026-04-15T15:02:39.044Z</time></trkpt><trkpt lat="43.9502646" lon="11.1268808"><ele>150.0</ele><time>2026-04-15T15:02:40.062Z</time></trkpt><trkpt lat="43.9501329" lon="11.1268082"><ele>150.0</ele><time>2026-04-15T15:02:41.059Z</time></trkpt><trkpt lat="43.9500034" lon="11.1267345"><ele>150.0</ele><time>2026-04-15T15:02:42.059Z</time></trkpt><trkpt lat="43.9498792" lon="11.1266589"><ele>147.25</ele><time>2026-04-15T15:02:43.061Z</time></trkpt><trkpt lat="43.9497604" lon="11.1265899"><ele>144.5</ele><time>2026-04-15T15:02:44.068Z</time></trkpt><trkpt lat="43.9496457" lon="11.1265214"><ele>141.75</ele><time>2026-04-15T15:02:45.025Z</time></trkpt><trkpt lat="43.9495309" lon="11.1264429"><ele>139.0</ele><time>2026-04-15T15:02:46.043Z</time></trkpt><trkpt lat="43.9494085" lon="11.1263741"><ele>140.25</ele><time>2026-04-15T15:02:47.078Z</time></trkpt><trkpt lat="43.9492846" lon="11.126287"><ele>141.5</ele><time>2026-04-15T15:02:48.052Z</time></trkpt><trkpt lat="43.9491682" lon="11.1261764"><ele>142.75</ele><time>2026-04-15T15:02:49.057Z</time></trkpt><trkpt lat="43.9490541" lon="11.1260445"><ele>144.0</ele><time>2026-04-15T15:02:50.06Z</time></trkpt><trkpt lat="43.9489513" lon="11.1259047"><ele>144.0</ele><time>2026-04-15T15:02:51.05Z</time></trkpt><trkpt lat="43.9488477" lon="11.1257641"><ele>144.0</ele><time>2026-04-15T15:02:52.068Z</time></trkpt><trkpt lat="43.9487382" lon="11.1256271"><ele>144.0</ele><time>2026-04-15T15:02:53.042Z</time></trkpt><trkpt lat="43.9486303" lon="11.1255008"><ele>144.0</ele><time>2026-04-15T15:02:54.064Z</time></trkpt><trkpt lat="43.9485074" lon="11.1253982"><ele>143.0</ele><time>2026-04-15T15:02:55.032Z</time></trkpt><trkpt lat="43.9483764" lon="11.1253038"><ele>142.0</ele><time>2026-04-15T15:02:56.033Z</time></trkpt><trkpt lat="43.948241" lon="11.1252321"><ele>141.0</ele><time>2026-04-15T15:02:57.041Z</time></trkpt><trkpt lat="43.9481212" lon="11.1252006"><ele>140.0</ele><time>2026-04-15T15:02:58.051Z</time></trkpt><trkpt lat="43.9479976" lon="11.1252021"><ele>140.0</ele><time>2026-04-15T15:02:59.041Z</time></trkpt><trkpt lat="43.9478716" lon="11.1252067"><ele>140.0</ele><time>2026-04-15T15:03:00.024Z</time></trkpt><trkpt lat="43.9477581" lon="11.1251998"><ele>140.0</ele><time>2026-04-15T15:03:01.029Z</time></trkpt><trkpt lat="43.9476587" lon="11.1252037"><ele>140.0</ele><time>2026-04-15T15:03:02.052Z</time></trkpt><trkpt lat="43.9475781" lon="11.1252065"><ele>140.0</ele><time>2026-04-15T15:03:03.044Z</time></trkpt><trkpt lat="43.9474953" lon="11.1252023"><ele>139.0</ele><time>2026-04-15T15:03:04.071Z</time></trkpt><trkpt lat="43.9474097" lon="11.1251953"><ele>138.0</ele><time>2026-04-15T15:03:05.064Z</time></trkpt><trkpt lat="43.9473231" lon="11.125189"><ele>137.0</ele><time>2026-04-15T15:03:06.068Z</time></trkpt><trkpt lat="43.9472388" lon="11.1251884"><ele>136.0</ele><time>2026-04-15T15:03:07.058Z</time></trkpt><trkpt lat="43.9471485" lon="11.1251873"><ele>135.0</ele><time>2026-04-15T15:03:08.071Z</time></trkpt><trkpt lat="43.9470583" lon="11.1251826"><ele>134.0</ele><time>2026-04-15T15:03:09.052Z</time></trkpt><trkpt lat="43.946958" lon="11.1251722"><ele>134.0</ele><time>2026-04-15T15:03:10.044Z</time></trkpt><trkpt lat="43.9468527" lon="11.1251514"><ele>134.0</ele><time>2026-04-15T15:03:11.053Z</time></trkpt><trkpt lat="43.9467457" lon="11.125125"><ele>134.0</ele><time>2026-04-15T15:03:12.054Z</time></trkpt><trkpt lat="43.946632" lon="11.1251022"><ele>134.0</ele><time>2026-04-15T15:03:13.053Z</time></trkpt><trkpt lat="43.9464933" lon="11.1250542"><ele>132.33333333333331</ele><time>2026-04-15T15:03:14.055Z</time></trkpt><trkpt lat="43.9463316" lon="11.1249958"><ele>130.66666666666666</ele><time>2026-04-15T15:03:15.051Z</time></trkpt><trkpt lat="43.9461719" lon="11.1249166"><ele>129.0</ele><time>2026-04-15T15:03:16.07Z</time></trkpt><trkpt lat="43.9460087" lon="11.124849"><ele>131.0</ele><time>2026-04-15T15:03:17.026Z</time></trkpt><trkpt lat="43.9458547" lon="11.1248045"><ele>133.0</ele><time>2026-04-15T15:03:18.05Z</time></trkpt><trkpt lat="43.9457063" lon="11.1247558"><ele>135.0</ele><time>2026-04-15T15:03:19.052Z</time></trkpt><trkpt lat="43.9455545" lon="11.1247102"><ele>135.0</ele><time>2026-04-15T15:03:20.065Z</time></trkpt><trkpt lat="43.945399" lon="11.1246547"><ele>135.0</ele><time>2026-04-15T15:03:21.056Z</time></trkpt><trkpt lat="43.945241" lon="11.1245922"><ele>135.0</ele><time>2026-04-15T15:03:22.068Z</time></trkpt><trkpt lat="43.9450817" lon="11.1245367"><ele>132.66666666666666</ele><time>2026-04-15T15:03:23.042Z</time></trkpt><trkpt lat="43.9449139" lon="11.1245144"><ele>130.33333333333331</ele><time>2026-04-15T15:03:24.037Z</time></trkpt><trkpt lat="43.94475" lon="11.1245315"><ele>128.0</ele><time>2026-04-15T15:03:25.024Z</time></trkpt><trkpt lat="43.9445812" lon="11.1245897"><ele>128.0</ele><time>2026-04-15T15:03:26.053Z</time></trkpt><trkpt lat="43.9444253" lon="11.1246988"><ele>128.0</ele><time>2026-04-15T15:03:27.044Z</time></trkpt><trkpt lat="43.9442731" lon="11.1248306"><ele>128.0</ele><time>2026-04-15T15:03:28.054Z</time></trkpt><trkpt lat="43.9441161" lon="11.1249564"><ele>127.33333333333333</ele><time>2026-04-15T15:03:29.057Z</time></trkpt><trkpt lat="43.9439569" lon="11.1250756"><ele>126.66666666666666</ele><time>2026-04-15T15:03:30.035Z</time></trkpt><trkpt lat="43.9438028" lon="11.1251899"><ele>126.0</ele><time>2026-04-15T15:03:31.046Z</time></trkpt><trkpt lat="43.9436644" lon="11.125301"><ele>126.0</ele><time>2026-04-15T15:03:32.055Z</time></trkpt><trkpt lat="43.9435311" lon="11.1253862"><ele>126.0</ele><time>2026-04-15T15:03:33.025Z</time></trkpt><trkpt lat="43.9434104" lon="11.1254658"><ele>126.0</ele><time>2026-04-15T15:03:34.026Z</time></trkpt><trkpt lat="43.9432965" lon="11.1255268"><ele>126.0</ele><time>2026-04-15T15:03:35.063Z</time></trkpt><trkpt lat="43.9431897" lon="11.1255635"><ele>129.4</ele><time>2026-04-15T15:03:36.054Z</time></trkpt><trkpt lat="43.9431056" lon="11.1255933"><ele>132.8</ele><time>2026-04-15T15:03:37.051Z</time></trkpt><trkpt lat="43.9430307" lon="11.1256169"><ele>136.20000000000002</ele><time>2026-04-15T15:03:38.02Z</time></trkpt><trkpt lat="43.9429418" lon="11.1256365"><ele>139.6</ele><time>2026-04-15T15:03:40.048Z</time></trkpt><trkpt lat="43.9428429" lon="11.1256729"><ele>143.0</ele><time>2026-04-15T15:03:42.049Z</time></trkpt><trkpt lat="43.9427245" lon="11.125707"><ele>140.5</ele><time>2026-04-15T15:03:44.043Z</time></trkpt><trkpt lat="43.9426511" lon="11.1257325"><ele>138.0</ele><time>2026-04-15T15:03:45.034Z</time></trkpt><trkpt lat="43.9425745" lon="11.1257577"><ele>135.5</ele><time>2026-04-15T15:03:46.053Z</time></trkpt><trkpt lat="43.9425006" lon="11.12579"><ele>133.0</ele><time>2026-04-15T15:03:47.039Z</time></trkpt><trkpt lat="43.9424266" lon="11.1258173"><ele>130.5</ele><time>2026-04-15T15:03:48.052Z</time></trkpt><trkpt lat="43.9423547" lon="11.1258485"><ele>128.0</ele><time>2026-04-15T15:03:49.039Z</time></trkpt><trkpt lat="43.9422889" lon="11.1258835"><ele>127.99999999999999</ele><time>2026-04-15T15:03:50.02Z</time></trkpt><trkpt lat="43.9422272" lon="11.1259386"><ele>128.0</ele><time>2026-04-15T15:03:51.051Z</time></trkpt><trkpt lat="43.9421649" lon="11.1259952"><ele>128.0</ele><time>2026-04-15T15:03:52.036Z</time></trkpt><trkpt lat="43.9421041" lon="11.1260485"><ele>128.0</ele><time>2026-04-15T15:03:53.032Z</time></trkpt><trkpt lat="43.942049" lon="11.1261021"><ele>127.99999999999999</ele><time>2026-04-15T15:03:54.026Z</time></trkpt><trkpt lat="43.9419531" lon="11.1261501"><ele>128.0</ele><time>2026-04-15T15:03:56.052Z</time></trkpt><trkpt lat="43.9418465" lon="11.1261644"><ele>128.0</ele><time>2026-04-15T15:03:58.025Z</time></trkpt><trkpt lat="43.9417289" lon="11.1262474"><ele>128.0</ele><time>2026-04-15T15:04:00.031Z</time></trkpt><trkpt lat="43.9416808" lon="11.1263237"><ele>128.0</ele><time>2026-04-15T15:04:01.039Z</time></trkpt><trkpt lat="43.9416538" lon="11.126427"><ele>128.0</ele><time>2026-04-15T15:04:02.025Z</time></trkpt><trkpt lat="43.9416368" lon="11.1265423"><ele>128.0</ele><time>2026-04-15T15:04:03.04Z</time></trkpt><trkpt lat="43.9415991" lon="11.1266718"><ele>128.75</ele><time>2026-04-15T15:04:04.081Z</time></trkpt><trkpt lat="43.941541" lon="11.1267965"><ele>129.5</ele><time>2026-04-15T15:04:05.033Z</time></trkpt><trkpt lat="43.9414715" lon="11.1269206"><ele>130.25</ele><time>2026-04-15T15:04:06.038Z</time></trkpt><trkpt lat="43.9413947" lon="11.1270548"><ele>131.0</ele><time>2026-04-15T15:04:07.034Z</time></trkpt><trkpt lat="43.9413124" lon="11.1271889"><ele>131.0</ele><time>2026-04-15T15:04:08.073Z</time></trkpt><trkpt lat="43.9412258" lon="11.1273267"><ele>131.0</ele><time>2026-04-15T15:04:09.043Z</time></trkpt><trkpt lat="43.9411282" lon="11.1274654"><ele>131.0</ele><time>2026-04-15T15:04:10.029Z</time></trkpt><trkpt lat="43.9410229" lon="11.1275895"><ele>131.0</ele><time>2026-04-15T15:04:11.06Z</time></trkpt><trkpt lat="43.9409132" lon="11.1276787"><ele>132.25</ele><time>2026-04-15T15:04:12.064Z</time></trkpt><trkpt lat="43.9407914" lon="11.1277693"><ele>133.5</ele><time>2026-04-15T15:04:13.062Z</time></trkpt><trkpt lat="43.9406618" lon="11.1278639"><ele>134.75</ele><time>2026-04-15T15:04:14.059Z</time></trkpt><trkpt lat="43.9405307" lon="11.1279678"><ele>136.0</ele><time>2026-04-15T15:04:15.044Z</time></trkpt><trkpt lat="43.9403979" lon="11.128072"><ele>136.0</ele><time>2026-04-15T15:04:16.052Z</time></trkpt><trkpt lat="43.940268" lon="11.1281802"><ele>136.0</ele><time>2026-04-15T15:04:17.02Z</time></trkpt><trkpt lat="43.9401351" lon="11.128267"><ele>136.0</ele><time>2026-04-15T15:04:18.033Z</time></trkpt><trkpt lat="43.9399976" lon="11.1283319"><ele>136.0</ele><time>2026-04-15T15:04:19.031Z</time></trkpt><trkpt lat="43.939863" lon="11.1283855"><ele>135.75</ele><time>2026-04-15T15:04:20.057Z</time></trkpt><trkpt lat="43.9397315" lon="11.1284155"><ele>135.5</ele><time>2026-04-15T15:04:21.026Z</time></trkpt><trkpt lat="43.9396003" lon="11.1284244"><ele>135.25</ele><time>2026-04-15T15:04:22.059Z</time></trkpt><trkpt lat="43.9394777" lon="11.1284078"><ele>135.0</ele><time>2026-04-15T15:04:23.018Z</time></trkpt><trkpt lat="43.9393569" lon="11.1283746"><ele>135.0</ele><time>2026-04-15T15:04:24.052Z</time></trkpt><trkpt lat="43.9392484" lon="11.1283254"><ele>135.0</ele><time>2026-04-15T15:04:25.054Z</time></trkpt><trkpt lat="43.9391585" lon="11.1282619"><ele>135.0</ele><time>2026-04-15T15:04:26.032Z</time></trkpt><trkpt lat="43.9390694" lon="11.128181"><ele>135.0</ele><time>2026-04-15T15:04:27.046Z</time></trkpt><trkpt lat="43.9389751" lon="11.1280992"><ele>135.0</ele><time>2026-04-15T15:04:28.057Z</time></trkpt><trkpt lat="43.93887" lon="11.1280253"><ele>136.6</ele><time>2026-04-15T15:04:29.048Z</time></trkpt><trkpt lat="43.9387715" lon="11.1279444"><ele>138.2</ele><time>2026-04-15T15:04:30.048Z</time></trkpt><trkpt lat="43.9386866" lon="11.1278607"><ele>139.8</ele><time>2026-04-15T15:04:31.049Z</time></trkpt><trkpt lat="43.9385952" lon="11.1277783"><ele>141.4</ele><time>2026-04-15T15:04:32.043Z</time></trkpt><trkpt lat="43.9385055" lon="11.1276984"><ele>143.0</ele><time>2026-04-15T15:04:33.034Z</time></trkpt><trkpt lat="43.9384087" lon="11.1276146"><ele>140.66666666666666</ele><time>2026-04-15T15:04:34.012Z</time></trkpt><trkpt lat="43.9382892" lon="11.1275054"><ele>138.33333333333334</ele><time>2026-04-15T15:04:35.036Z</time></trkpt><trkpt lat="43.9381473" lon="11.1273902"><ele>136.0</ele><time>2026-04-15T15:04:36.045Z</time></trkpt><trkpt lat="43.9380115" lon="11.1272651"><ele>140.25</ele><time>2026-04-15T15:04:37.046Z</time></trkpt><trkpt lat="43.9378954" lon="11.1271448"><ele>144.5</ele><time>2026-04-15T15:04:38.041Z</time></trkpt><trkpt lat="43.9377918" lon="11.1270431"><ele>148.75</ele><time>2026-04-15T15:04:39.014Z</time></trkpt><trkpt lat="43.9377005" lon="11.1269584"><ele>153.0</ele><time>2026-04-15T15:04:40.056Z</time></trkpt><trkpt lat="43.9376195" lon="11.1268897"><ele>152.8</ele><time>2026-04-15T15:04:41.01Z</time></trkpt><trkpt lat="43.9375399" lon="11.1268208"><ele>152.60000000000002</ele><time>2026-04-15T15:04:42.044Z</time></trkpt><trkpt lat="43.9374551" lon="11.1267635"><ele>152.39999999999998</ele><time>2026-04-15T15:04:43.042Z</time></trkpt><trkpt lat="43.9373757" lon="11.1266917"><ele>152.2</ele><time>2026-04-15T15:04:44.056Z</time></trkpt><trkpt lat="43.9372938" lon="11.1265999"><ele>152.0</ele><time>2026-04-15T15:04:45.058Z</time></trkpt><trkpt lat="43.9372148" lon="11.1264957"><ele>152.0</ele><time>2026-04-15T15:04:46.065Z</time></trkpt><trkpt lat="43.9371409" lon="11.1263814"><ele>152.0</ele><time>2026-04-15T15:04:47.025Z</time></trkpt><trkpt lat="43.9370697" lon="11.126263"><ele>152.0</ele><time>2026-04-15T15:04:48.018Z</time></trkpt><trkpt lat="43.9369971" lon="11.1261373"><ele>152.0</ele><time>2026-04-15T15:04:49.018Z</time></trkpt><trkpt lat="43.9369365" lon="11.1260221"><ele>152.0</ele><time>2026-04-15T15:04:50.059Z</time></trkpt><trkpt lat="43.9368752" lon="11.1259165"><ele>152.0</ele><time>2026-04-15T15:04:51.044Z</time></trkpt><trkpt lat="43.9368179" lon="11.1258144"><ele>152.0</ele><time>2026-04-15T15:04:52.048Z</time></trkpt><trkpt lat="43.9367533" lon="11.1257284"><ele>152.0</ele><time>2026-04-15T15:04:53.051Z</time></trkpt><trkpt lat="43.9366786" lon="11.1256628"><ele>152.0</ele><time>2026-04-15T15:04:54.036Z</time></trkpt><trkpt lat="43.9365944" lon="11.1256147"><ele>152.0</ele><time>2026-04-15T15:04:55.012Z</time></trkpt><trkpt lat="43.9365031" lon="11.12558"><ele>152.4</ele><time>2026-04-15T15:04:56.024Z</time></trkpt><trkpt lat="43.9364082" lon="11.1255696"><ele>152.79999999999998</ele><time>2026-04-15T15:04:57.052Z</time></trkpt><trkpt lat="43.9363151" lon="11.1255902"><ele>153.2</ele><time>2026-04-15T15:04:58.043Z</time></trkpt><trkpt lat="43.936222" lon="11.1256278"><ele>153.6</ele><time>2026-04-15T15:04:59.051Z</time></trkpt><trkpt lat="43.9361278" lon="11.1256658"><ele>154.0</ele><time>2026-04-15T15:05:00.052Z</time></trkpt><trkpt lat="43.9360257" lon="11.1256898"><ele>154.0</ele><time>2026-04-15T15:05:01.016Z</time></trkpt><trkpt lat="43.9359283" lon="11.1256958"><ele>154.0</ele><time>2026-04-15T15:05:02.03Z</time></trkpt><trkpt lat="43.9358258" lon="11.1256862"><ele>154.0</ele><time>2026-04-15T15:05:03.02Z</time></trkpt><trkpt lat="43.9357248" lon="11.1256609"><ele>154.0</ele><time>2026-04-15T15:05:04.004Z</time></trkpt><trkpt lat="43.9356299" lon="11.1256349"><ele>154.0</ele><time>2026-04-15T15:05:05.016Z</time></trkpt><trkpt lat="43.9355348" lon="11.1256048"><ele>153.8</ele><time>2026-04-15T15:05:06.028Z</time></trkpt><trkpt lat="43.9354378" lon="11.1255757"><ele>153.60000000000002</ele><time>2026-04-15T15:05:07.032Z</time></trkpt><trkpt lat="43.9353408" lon="11.1255458"><ele>153.4</ele><time>2026-04-15T15:05:08.039Z</time></trkpt><trkpt lat="43.9352411" lon="11.1255202"><ele>153.20000000000002</ele><time>2026-04-15T15:05:09.032Z</time></trkpt><trkpt lat="43.9351414" lon="11.1254924"><ele>153.0</ele><time>2026-04-15T15:05:10.04Z</time></trkpt><trkpt lat="43.9350464" lon="11.1254567"><ele>152.4</ele><time>2026-04-15T15:05:11.017Z</time></trkpt><trkpt lat="43.9349491" lon="11.1254363"><ele>151.8</ele><time>2026-04-15T15:05:12.014Z</time></trkpt><trkpt lat="43.9348549" lon="11.1254378"><ele>151.2</ele><time>2026-04-15T15:05:13.028Z</time></trkpt><trkpt lat="43.9347629" lon="11.1254785"><ele>150.6</ele><time>2026-04-15T15:05:14.048Z</time></trkpt><trkpt lat="43.9346812" lon="11.1255746"><ele>150.0</ele><time>2026-04-15T15:05:15.017Z</time></trkpt><trkpt lat="43.9346189" lon="11.1256901"><ele>146.6</ele><time>2026-04-15T15:05:16.051Z</time></trkpt><trkpt lat="43.9345582" lon="11.1258042"><ele>143.2</ele><time>2026-04-15T15:05:17.024Z</time></trkpt><trkpt lat="43.9345036" lon="11.1259216"><ele>139.8</ele><time>2026-04-15T15:05:18.049Z</time></trkpt><trkpt lat="43.9344507" lon="11.1260358"><ele>136.4</ele><time>2026-04-15T15:05:19.039Z</time></trkpt><trkpt lat="43.9343909" lon="11.1261394"><ele>133.0</ele><time>2026-04-15T15:05:20.034Z</time></trkpt><trkpt lat="43.9343225" lon="11.1262321"><ele>133.0</ele><time>2026-04-15T15:05:21.046Z</time></trkpt><trkpt lat="43.9342334" lon="11.1263098"><ele>133.0</ele><time>2026-04-15T15:05:22.021Z</time></trkpt><trkpt lat="43.9341308" lon="11.126364"><ele>133.0</ele><time>2026-04-15T15:05:23.006Z</time></trkpt><trkpt lat="43.934023" lon="11.1263842"><ele>133.0</ele><time>2026-04-15T15:05:24.02Z</time></trkpt><trkpt lat="43.9339155" lon="11.1263974"><ele>133.0</ele><time>2026-04-15T15:05:25.018Z</time></trkpt><trkpt lat="43.933811" lon="11.1264103"><ele>135.6</ele><time>2026-04-15T15:05:26.038Z</time></trkpt><trkpt lat="43.9337117" lon="11.1264232"><ele>138.20000000000002</ele><time>2026-04-15T15:05:27.014Z</time></trkpt><trkpt lat="43.9336197" lon="11.1264379"><ele>140.8</ele><time>2026-04-15T15:05:28.031Z</time></trkpt><trkpt lat="43.9335262" lon="11.1264481"><ele>143.4</ele><time>2026-04-15T15:05:29.027Z</time></trkpt><trkpt lat="43.9334301" lon="11.1264512"><ele>146.0</ele><time>2026-04-15T15:05:30.035Z</time></trkpt><trkpt lat="43.9333362" lon="11.126449"><ele>146.0</ele><time>2026-04-15T15:05:31.018Z</time></trkpt><trkpt lat="43.9332442" lon="11.1264526"><ele>146.0</ele><time>2026-04-15T15:05:32.046Z</time></trkpt><trkpt lat="43.9331536" lon="11.1264549"><ele>146.0</ele><time>2026-04-15T15:05:33.022Z</time></trkpt><trkpt lat="43.9330642" lon="11.1264572"><ele>146.0</ele><time>2026-04-15T15:05:34.018Z</time></trkpt><trkpt lat="43.9329798" lon="11.1264592"><ele>146.0</ele><time>2026-04-15T15:05:35.037Z</time></trkpt><trkpt lat="43.9328963" lon="11.126455"><ele>146.0</ele><time>2026-04-15T15:05:36.031Z</time></trkpt><trkpt lat="43.9328041" lon="11.1264406"><ele>146.0</ele><time>2026-04-15T15:05:37.024Z</time></trkpt><trkpt lat="43.9327114" lon="11.1264164"><ele>146.0</ele><time>2026-04-15T15:05:38.05Z</time></trkpt><trkpt lat="43.9326147" lon="11.1263805"><ele>146.0</ele><time>2026-04-15T15:05:39.015Z</time></trkpt><trkpt lat="43.9325151" lon="11.1263327"><ele>146.0</ele><time>2026-04-15T15:05:40.007Z</time></trkpt><trkpt lat="43.9324173" lon="11.1262912"><ele>146.0</ele><time>2026-04-15T15:05:41.037Z</time></trkpt><trkpt lat="43.9323185" lon="11.1262405"><ele>144.8</ele><time>2026-04-15T15:05:42.035Z</time></trkpt><trkpt lat="43.9322216" lon="11.1261892"><ele>143.6</ele><time>2026-04-15T15:05:43.034Z</time></trkpt><trkpt lat="43.9321248" lon="11.1261345"><ele>142.4</ele><time>2026-04-15T15:05:44.02Z</time></trkpt><trkpt lat="43.93203" lon="11.1260819"><ele>141.2</ele><time>2026-04-15T15:05:45.034Z</time></trkpt><trkpt lat="43.9319338" lon="11.1260237"><ele>140.0</ele><time>2026-04-15T15:05:46.037Z</time></trkpt><trkpt lat="43.9318455" lon="11.1259522"><ele>140.0</ele><time>2026-04-15T15:05:47.022Z</time></trkpt><trkpt lat="43.9317631" lon="11.1258675"><ele>140.0</ele><time>2026-04-15T15:05:48.008Z</time></trkpt><trkpt lat="43.9316816" lon="11.1257708"><ele>140.0</ele><time>2026-04-15T15:05:49.032Z</time></trkpt><trkpt lat="43.9316136" lon="11.125667"><ele>140.0</ele><time>2026-04-15T15:05:50.012Z</time></trkpt><trkpt lat="43.9315459" lon="11.1255494"><ele>140.0</ele><time>2026-04-15T15:05:51.023Z</time></trkpt><trkpt lat="43.931482" lon="11.1254253"><ele>142.75</ele><time>2026-04-15T15:05:52.066Z</time></trkpt><trkpt lat="43.931414" lon="11.1252907"><ele>145.5</ele><time>2026-04-15T15:05:53.013Z</time></trkpt><trkpt lat="43.931345" lon="11.1251577"><ele>148.25</ele><time>2026-04-15T15:05:54.028Z</time></trkpt><trkpt lat="43.9312686" lon="11.1250221"><ele>151.0</ele><time>2026-04-15T15:05:55.004Z</time></trkpt><trkpt lat="43.931182" lon="11.1248864"><ele>159.25</ele><time>2026-04-15T15:05:56.055Z</time></trkpt><trkpt lat="43.9310791" lon="11.1247574"><ele>167.5</ele><time>2026-04-15T15:05:57.043Z</time></trkpt><trkpt lat="43.9309639" lon="11.124664"><ele>175.75</ele><time>2026-04-15T15:05:58.023Z</time></trkpt><trkpt lat="43.9308496" lon="11.1246067"><ele>184.0</ele><time>2026-04-15T15:05:59.012Z</time></trkpt><trkpt lat="43.9307375" lon="11.1245652"><ele>184.0</ele><time>2026-04-15T15:05:59.998Z</time></trkpt><trkpt lat="43.9306235" lon="11.1245339"><ele>184.0</ele><time>2026-04-15T15:06:01.007Z</time></trkpt><trkpt lat="43.9305049" lon="11.1245094"><ele>184.0</ele><time>2026-04-15T15:06:02.021Z</time></trkpt><trkpt lat="43.930388" lon="11.1244841"><ele>184.0</ele><time>2026-04-15T15:06:03.002Z</time></trkpt><trkpt lat="43.9302693" lon="11.1244811"><ele>184.0</ele><time>2026-04-15T15:06:04.004Z</time></trkpt><trkpt lat="43.9301516" lon="11.124518"><ele>184.0</ele><time>2026-04-15T15:06:05.028Z</time></trkpt><trkpt lat="43.93004" lon="11.1245856"><ele>184.0</ele><time>2026-04-15T15:06:05.994Z</time></trkpt><trkpt lat="43.92993" lon="11.124662"><ele>184.0</ele><time>2026-04-15T15:06:07.023Z</time></trkpt><trkpt lat="43.92982" lon="11.1247344"><ele>183.5</ele><time>2026-04-15T15:06:08.026Z</time></trkpt><trkpt lat="43.9297038" lon="11.1247797"><ele>183.0</ele><time>2026-04-15T15:06:09.018Z</time></trkpt><trkpt lat="43.9295812" lon="11.1247955"><ele>182.5</ele><time>2026-04-15T15:06:10.018Z</time></trkpt><trkpt lat="43.9294571" lon="11.1247946"><ele>182.0</ele><time>2026-04-15T15:06:11.022Z</time></trkpt><trkpt lat="43.9293337" lon="11.1247862"><ele>181.5</ele><time>2026-04-15T15:06:12.024Z</time></trkpt><trkpt lat="43.9292139" lon="11.1247828"><ele>181.0</ele><time>2026-04-15T15:06:13.01Z</time></trkpt><trkpt lat="43.9290988" lon="11.1247936"><ele>180.5</ele><time>2026-04-15T15:06:14.007Z</time></trkpt><trkpt lat="43.9289848" lon="11.1248178"><ele>180.0</ele><time>2026-04-15T15:06:15.01Z</time></trkpt><trkpt lat="43.9288618" lon="11.1248498"><ele>180.0</ele><time>2026-04-15T15:06:16.021Z</time></trkpt><trkpt lat="43.9287107" lon="11.1248957"><ele>180.0</ele><time>2026-04-15T15:06:17.009Z</time></trkpt><trkpt lat="43.9285321" lon="11.1249385"><ele>180.0</ele><time>2026-04-15T15:06:18.005Z</time></trkpt><trkpt lat="43.9283691" lon="11.1249757"><ele>170.0</ele><time>2026-04-15T15:06:19.025Z</time></trkpt><trkpt lat="43.9282388" lon="11.1250142"><ele>160.0</ele><time>2026-04-15T15:06:20.035Z</time></trkpt><trkpt lat="43.9280332" lon="11.125078"><ele>150.0</ele><time>2026-04-15T15:06:22.024Z</time></trkpt><trkpt lat="43.9279402" lon="11.1250972"><ele>140.0</ele><time>2026-04-15T15:06:23.028Z</time></trkpt><trkpt lat="43.9278411" lon="11.1251189"><ele>140.0</ele><time>2026-04-15T15:06:24.027Z</time></trkpt><trkpt lat="43.927744" lon="11.125133"><ele>140.0</ele><time>2026-04-15T15:06:25.036Z</time></trkpt><trkpt lat="43.9276437" lon="11.1251431"><ele>140.0</ele><time>2026-04-15T15:06:26.02Z</time></trkpt><trkpt lat="43.9275461" lon="11.1251564"><ele>140.0</ele><time>2026-04-15T15:06:27.024Z</time></trkpt><trkpt lat="43.9274491" lon="11.1251774"><ele>140.0</ele><time>2026-04-15T15:06:28.032Z</time></trkpt><trkpt lat="43.9273489" lon="11.125215"><ele>142.2</ele><time>2026-04-15T15:06:29.014Z</time></trkpt><trkpt lat="43.927246" lon="11.1252688"><ele>144.4</ele><time>2026-04-15T15:06:30.005Z</time></trkpt><trkpt lat="43.9271506" lon="11.1253301"><ele>146.6</ele><time>2026-04-15T15:06:31.011Z</time></trkpt><trkpt lat="43.9270614" lon="11.125389"><ele>148.8</ele><time>2026-04-15T15:06:32.042Z</time></trkpt><trkpt lat="43.9269848" lon="11.1254456"><ele>151.0</ele><time>2026-04-15T15:06:33.028Z</time></trkpt><trkpt lat="43.9269116" lon="11.125509"><ele>151.0</ele><time>2026-04-15T15:06:34.031Z</time></trkpt><trkpt lat="43.926842" lon="11.1255824"><ele>151.0</ele><time>2026-04-15T15:06:34.996Z</time></trkpt><trkpt lat="43.9267747" lon="11.1256683"><ele>151.0</ele><time>2026-04-15T15:06:36.002Z</time></trkpt><trkpt lat="43.9267053" lon="11.1257616"><ele>151.0</ele><time>2026-04-15T15:06:37Z</time></trkpt><trkpt lat="43.9266341" lon="11.1258704"><ele>151.0</ele><time>2026-04-15T15:06:38.031Z</time></trkpt><trkpt lat="43.9265522" lon="11.1260027"><ele>146.6</ele><time>2026-04-15T15:06:39.025Z</time></trkpt><trkpt lat="43.9264597" lon="11.1261269"><ele>142.2</ele><time>2026-04-15T15:06:40.103Z</time></trkpt><trkpt lat="43.9263799" lon="11.1262278"><ele>137.8</ele><time>2026-04-15T15:06:41.011Z</time></trkpt><trkpt lat="43.926305" lon="11.1263204"><ele>133.4</ele><time>2026-04-15T15:06:42.014Z</time></trkpt><trkpt lat="43.9262307" lon="11.1264077"><ele>129.0</ele><time>2026-04-15T15:06:43.011Z</time></trkpt><trkpt lat="43.9261627" lon="11.126492"><ele>130.0</ele><time>2026-04-15T15:06:44.014Z</time></trkpt><trkpt lat="43.9260948" lon="11.1265788"><ele>131.0</ele><time>2026-04-15T15:06:45.008Z</time></trkpt><trkpt lat="43.9260254" lon="11.1266573"><ele>132.0</ele><time>2026-04-15T15:06:46.011Z</time></trkpt><trkpt lat="43.9259569" lon="11.1267248"><ele>133.0</ele><time>2026-04-15T15:06:46.995Z</time></trkpt><trkpt lat="43.9258948" lon="11.126783"><ele>134.0</ele><time>2026-04-15T15:06:48Z</time></trkpt><trkpt lat="43.9258286" lon="11.1268403"><ele>135.0</ele><time>2026-04-15T15:06:49.024Z</time></trkpt><trkpt lat="43.9257576" lon="11.1268873"><ele>135.0</ele><time>2026-04-15T15:06:50.025Z</time></trkpt><trkpt lat="43.9256814" lon="11.1269437"><ele>135.0</ele><time>2026-04-15T15:06:51.007Z</time></trkpt><trkpt lat="43.9255934" lon="11.1269931"><ele>135.0</ele><time>2026-04-15T15:06:51.993Z</time></trkpt><trkpt lat="43.9254938" lon="11.1270226"><ele>135.0</ele><time>2026-04-15T15:06:52.993Z</time></trkpt><trkpt lat="43.925387" lon="11.1270411"><ele>135.0</ele><time>2026-04-15T15:06:53.99Z</time></trkpt><trkpt lat="43.9252758" lon="11.1270527"><ele>135.0</ele><time>2026-04-15T15:06:55.003Z</time></trkpt><trkpt lat="43.9251611" lon="11.127045"><ele>135.0</ele><time>2026-04-15T15:06:56.001Z</time></trkpt><trkpt lat="43.925043" lon="11.12702"><ele>135.0</ele><time>2026-04-15T15:06:56.991Z</time></trkpt><trkpt lat="43.9249209" lon="11.1269874"><ele>135.0</ele><time>2026-04-15T15:06:58.018Z</time></trkpt><trkpt lat="43.9247902" lon="11.1269473"><ele>133.66666666666666</ele><time>2026-04-15T15:06:59.019Z</time></trkpt><trkpt lat="43.9246366" lon="11.1268955"><ele>132.33333333333331</ele><time>2026-04-15T15:07:00.028Z</time></trkpt><trkpt lat="43.9244755" lon="11.1268401"><ele>131.0</ele><time>2026-04-15T15:07:01.031Z</time></trkpt><trkpt lat="43.9243365" lon="11.1267854"><ele>130.4</ele><time>2026-04-15T15:07:01.994Z</time></trkpt><trkpt lat="43.9242241" lon="11.1267558"><ele>129.8</ele><time>2026-04-15T15:07:03.026Z</time></trkpt><trkpt lat="43.9241178" lon="11.1267341"><ele>129.20000000000002</ele><time>2026-04-15T15:07:04.032Z</time></trkpt><trkpt lat="43.9240083" lon="11.1267261"><ele>128.6</ele><time>2026-04-15T15:07:05.031Z</time></trkpt><trkpt lat="43.9238996" lon="11.1267255"><ele>128.0</ele><time>2026-04-15T15:07:06.029Z</time></trkpt><trkpt lat="43.9237919" lon="11.126717"><ele>128.0</ele><time>2026-04-15T15:07:07.008Z</time></trkpt><trkpt lat="43.923685" lon="11.1267035"><ele>128.0</ele><time>2026-04-15T15:07:08.005Z</time></trkpt><trkpt lat="43.923587" lon="11.1266746"><ele>128.0</ele><time>2026-04-15T15:07:09.029Z</time></trkpt><trkpt lat="43.9234908" lon="11.1266397"><ele>128.0</ele><time>2026-04-15T15:07:10.022Z</time></trkpt><trkpt lat="43.9233904" lon="11.1266016"><ele>128.0</ele><time>2026-04-15T15:07:11.016Z</time></trkpt><trkpt lat="43.9232913" lon="11.1265554"><ele>132.6</ele><time>2026-04-15T15:07:12.015Z</time></trkpt><trkpt lat="43.9231903" lon="11.1265021"><ele>137.20000000000002</ele><time>2026-04-15T15:07:13.026Z</time></trkpt><trkpt lat="43.9230882" lon="11.1264485"><ele>141.8</ele><time>2026-04-15T15:07:14.027Z</time></trkpt><trkpt lat="43.9229907" lon="11.1263985"><ele>146.4</ele><time>2026-04-15T15:07:15.02Z</time></trkpt><trkpt lat="43.9228941" lon="11.1263497"><ele>151.0</ele><time>2026-04-15T15:07:16.039Z</time></trkpt><trkpt lat="43.9228073" lon="11.1263135"><ele>151.0</ele><time>2026-04-15T15:07:17.009Z</time></trkpt><trkpt lat="43.9227243" lon="11.1262846"><ele>151.0</ele><time>2026-04-15T15:07:18.025Z</time></trkpt><trkpt lat="43.9226368" lon="11.1262727"><ele>151.0</ele><time>2026-04-15T15:07:19.019Z</time></trkpt><trkpt lat="43.9225491" lon="11.1262648"><ele>151.0</ele><time>2026-04-15T15:07:20.004Z</time></trkpt><trkpt lat="43.9224638" lon="11.1262673"><ele>151.0</ele><time>2026-04-15T15:07:21.026Z</time></trkpt><trkpt lat="43.922377" lon="11.126268"><ele>151.0</ele><time>2026-04-15T15:07:22.03Z</time></trkpt><trkpt lat="43.9222972" lon="11.126258"><ele>149.5</ele><time>2026-04-15T15:07:23.022Z</time></trkpt><trkpt lat="43.9222175" lon="11.1262504"><ele>148.0</ele><time>2026-04-15T15:07:24.015Z</time></trkpt><trkpt lat="43.9221397" lon="11.1262356"><ele>146.5</ele><time>2026-04-15T15:07:25.021Z</time></trkpt><trkpt lat="43.9220603" lon="11.126223"><ele>145.0</ele><time>2026-04-15T15:07:26.015Z</time></trkpt><trkpt lat="43.9219784" lon="11.1262076"><ele>143.5</ele><time>2026-04-15T15:07:27.02Z</time></trkpt><trkpt lat="43.9218928" lon="11.126181"><ele>142.0</ele><time>2026-04-15T15:07:28.002Z</time></trkpt><trkpt lat="43.9218065" lon="11.1261611"><ele>138.6</ele><time>2026-04-15T15:07:29.018Z</time></trkpt><trkpt lat="43.9217181" lon="11.126139"><ele>135.2</ele><time>2026-04-15T15:07:30.041Z</time></trkpt><trkpt lat="43.9216229" lon="11.12611"><ele>131.8</ele><time>2026-04-15T15:07:31.016Z</time></trkpt><trkpt lat="43.9215257" lon="11.126082"><ele>128.4</ele><time>2026-04-15T15:07:32.022Z</time></trkpt><trkpt lat="43.9214329" lon="11.1260548"><ele>125.0</ele><time>2026-04-15T15:07:33.011Z</time></trkpt><trkpt lat="43.9213366" lon="11.1260242"><ele>125.0</ele><time>2026-04-15T15:07:34.015Z</time></trkpt><trkpt lat="43.921241" lon="11.1260001"><ele>125.0</ele><time>2026-04-15T15:07:35.012Z</time></trkpt><trkpt lat="43.9211412" lon="11.125978"><ele>125.0</ele><time>2026-04-15T15:07:36.032Z</time></trkpt><trkpt lat="43.9210417" lon="11.1259564"><ele>125.0</ele><time>2026-04-15T15:07:37.025Z</time></trkpt><trkpt lat="43.9209367" lon="11.1259452"><ele>125.0</ele><time>2026-04-15T15:07:38.004Z</time></trkpt><trkpt lat="43.9208265" lon="11.1259553"><ele>123.25</ele><time>2026-04-15T15:07:39.026Z</time></trkpt><trkpt lat="43.9207104" lon="11.125998"><ele>121.5</ele><time>2026-04-15T15:07:40.001Z</time></trkpt><trkpt lat="43.920599" lon="11.1260515"><ele>119.75</ele><time>2026-04-15T15:07:41.017Z</time></trkpt><trkpt lat="43.9204995" lon="11.1261084"><ele>118.0</ele><time>2026-04-15T15:07:42.027Z</time></trkpt><trkpt lat="43.9204068" lon="11.1261749"><ele>118.0</ele><time>2026-04-15T15:07:43.02Z</time></trkpt><trkpt lat="43.9203165" lon="11.1262328"><ele>118.00000000000001</ele><time>2026-04-15T15:07:44.012Z</time></trkpt><trkpt lat="43.9202379" lon="11.126287"><ele>118.00000000000001</ele><time>2026-04-15T15:07:45.012Z</time></trkpt><trkpt lat="43.920165" lon="11.1263582"><ele>118.0</ele><time>2026-04-15T15:07:45.981Z</time></trkpt><trkpt lat="43.9200849" lon="11.1264116"><ele>118.0</ele><time>2026-04-15T15:07:46.989Z</time></trkpt><trkpt lat="43.9199883" lon="11.1264545"><ele>120.0</ele><time>2026-04-15T15:07:48.018Z</time></trkpt><trkpt lat="43.9198792" lon="11.1264892"><ele>122.0</ele><time>2026-04-15T15:07:49.014Z</time></trkpt><trkpt lat="43.9197647" lon="11.1265027"><ele>124.0</ele><time>2026-04-15T15:07:50.029Z</time></trkpt><trkpt lat="43.9196515" lon="11.1264993"><ele>126.0</ele><time>2026-04-15T15:07:51.024Z</time></trkpt><trkpt lat="43.9195352" lon="11.1264896"><ele>126.0</ele><time>2026-04-15T15:07:51.984Z</time></trkpt><trkpt lat="43.9194186" lon="11.1264685"><ele>126.0</ele><time>2026-04-15T15:07:52.99Z</time></trkpt><trkpt lat="43.9193074" lon="11.1264426"><ele>126.0</ele><time>2026-04-15T15:07:54.018Z</time></trkpt><trkpt lat="43.9191961" lon="11.1264115"><ele>126.0</ele><time>2026-04-15T15:07:55.004Z</time></trkpt><trkpt lat="43.9190883" lon="11.1263833"><ele>127.8</ele><time>2026-04-15T15:07:55.993Z</time></trkpt><trkpt lat="43.9189935" lon="11.1263417"><ele>129.6</ele><time>2026-04-15T15:07:57.009Z</time></trkpt><trkpt lat="43.9188974" lon="11.1263047"><ele>131.4</ele><time>2026-04-15T15:07:58.016Z</time></trkpt><trkpt lat="43.9187978" lon="11.1262694"><ele>133.2</ele><time>2026-04-15T15:07:59.017Z</time></trkpt><trkpt lat="43.9186933" lon="11.1262276"><ele>135.0</ele><time>2026-04-15T15:08:00.038Z</time></trkpt><trkpt lat="43.9185837" lon="11.1261889"><ele>135.0</ele><time>2026-04-15T15:08:01.014Z</time></trkpt><trkpt lat="43.9184741" lon="11.1261468"><ele>135.0</ele><time>2026-04-15T15:08:01.987Z</time></trkpt><trkpt lat="43.918371" lon="11.1260998"><ele>135.0</ele><time>2026-04-15T15:08:03.017Z</time></trkpt><trkpt lat="43.9182621" lon="11.126054"><ele>135.0</ele><time>2026-04-15T15:08:04.021Z</time></trkpt><trkpt lat="43.9181517" lon="11.1260073"><ele>131.75</ele><time>2026-04-15T15:08:04.978Z</time></trkpt><trkpt lat="43.9180385" lon="11.1259575"><ele>128.5</ele><time>2026-04-15T15:08:06.014Z</time></trkpt><trkpt lat="43.9179252" lon="11.1259045"><ele>125.25</ele><time>2026-04-15T15:08:07.008Z</time></trkpt><trkpt lat="43.9178066" lon="11.1258512"><ele>122.0</ele><time>2026-04-15T15:08:08.015Z</time></trkpt><trkpt lat="43.9176905" lon="11.1257856"><ele>124.0</ele><time>2026-04-15T15:08:08.987Z</time></trkpt><trkpt lat="43.9175654" lon="11.1257197"><ele>126.0</ele><time>2026-04-15T15:08:09.996Z</time></trkpt><trkpt lat="43.9174374" lon="11.1256444"><ele>128.0</ele><time>2026-04-15T15:08:10.973Z</time></trkpt><trkpt lat="43.9173157" lon="11.1255712"><ele>130.0</ele><time>2026-04-15T15:08:11.977Z</time></trkpt><trkpt lat="43.9172021" lon="11.125503"><ele>130.0</ele><time>2026-04-15T15:08:12.996Z</time></trkpt><trkpt lat="43.9170791" lon="11.1254424"><ele>130.0</ele><time>2026-04-15T15:08:14.016Z</time></trkpt><trkpt lat="43.9169393" lon="11.125373"><ele>130.0</ele><time>2026-04-15T15:08:14.997Z</time></trkpt><trkpt lat="43.9167961" lon="11.1252987"><ele>130.0</ele><time>2026-04-15T15:08:15.981Z</time></trkpt><trkpt lat="43.9166578" lon="11.1252423"><ele>127.0</ele><time>2026-04-15T15:08:16.975Z</time></trkpt><trkpt lat="43.9165349" lon="11.125206"><ele>124.0</ele><time>2026-04-15T15:08:18.008Z</time></trkpt><trkpt lat="43.916409" lon="11.1251742"><ele>121.0</ele><time>2026-04-15T15:08:18.997Z</time></trkpt><trkpt lat="43.9162607" lon="11.1251396"><ele>118.0</ele><time>2026-04-15T15:08:19.991Z</time></trkpt><trkpt lat="43.9160958" lon="11.1251101"><ele>118.0</ele><time>2026-04-15T15:08:21.009Z</time></trkpt><trkpt lat="43.915944" lon="11.1250884"><ele>118.0</ele><time>2026-04-15T15:08:21.994Z</time></trkpt><trkpt lat="43.9158152" lon="11.1250751"><ele>118.0</ele><time>2026-04-15T15:08:22.985Z</time></trkpt><trkpt lat="43.915703" lon="11.1250616"><ele>118.0</ele><time>2026-04-15T15:08:23.987Z</time></trkpt><trkpt lat="43.9156033" lon="11.1250464"><ele>117.4</ele><time>2026-04-15T15:08:24.982Z</time></trkpt><trkpt lat="43.9155086" lon="11.1250357"><ele>116.80000000000001</ele><time>2026-04-15T15:08:26.016Z</time></trkpt><trkpt lat="43.9154135" lon="11.1250252"><ele>116.2</ele><time>2026-04-15T15:08:26.975Z</time></trkpt><trkpt lat="43.9153125" lon="11.1250102"><ele>115.6</ele><time>2026-04-15T15:08:27.972Z</time></trkpt><trkpt lat="43.9152086" lon="11.1249954"><ele>115.0</ele><time>2026-04-15T15:08:28.983Z</time></trkpt><trkpt lat="43.9151066" lon="11.1249889"><ele>114.6</ele><time>2026-04-15T15:08:29.976Z</time></trkpt><trkpt lat="43.9149962" lon="11.1249791"><ele>114.2</ele><time>2026-04-15T15:08:31.001Z</time></trkpt><trkpt lat="43.9148866" lon="11.1249692"><ele>113.80000000000001</ele><time>2026-04-15T15:08:32.002Z</time></trkpt><trkpt lat="43.914777" lon="11.1249565"><ele>113.4</ele><time>2026-04-15T15:08:33.017Z</time></trkpt><trkpt lat="43.9146625" lon="11.1249404"><ele>113.0</ele><time>2026-04-15T15:08:33.984Z</time></trkpt><trkpt lat="43.9131507" lon="11.1238155"><ele>114.60000000000001</ele><time>2026-04-15T15:08:47.999Z</time></trkpt><trkpt lat="43.9130897" lon="11.1237097"><ele>116.20000000000002</ele><time>2026-04-15T15:08:48.982Z</time></trkpt><trkpt lat="43.9130389" lon="11.1235922"><ele>117.8</ele><time>2026-04-15T15:08:49.992Z</time></trkpt><trkpt lat="43.9129832" lon="11.123472"><ele>119.4</ele><time>2026-04-15T15:08:51.012Z</time></trkpt><trkpt lat="43.9129311" lon="11.1233579"><ele>121.0</ele><time>2026-04-15T15:08:52.016Z</time></trkpt><trkpt lat="43.9128717" lon="11.1232515"><ele>122.4</ele><time>2026-04-15T15:08:53.013Z</time></trkpt><trkpt lat="43.912821" lon="11.1231432"><ele>123.8</ele><time>2026-04-15T15:08:54.015Z</time></trkpt><trkpt lat="43.9127665" lon="11.1230386"><ele>125.20000000000002</ele><time>2026-04-15T15:08:55.007Z</time></trkpt><trkpt lat="43.9127062" lon="11.1229267"><ele>126.60000000000001</ele><time>2026-04-15T15:08:55.969Z</time></trkpt><trkpt lat="43.9126491" lon="11.1228105"><ele>128.0</ele><time>2026-04-15T15:08:57.001Z</time></trkpt><trkpt lat="43.9125958" lon="11.1227113"><ele>125.2</ele><time>2026-04-15T15:08:57.973Z</time></trkpt><trkpt lat="43.9125445" lon="11.122603"><ele>122.4</ele><time>2026-04-15T15:08:58.983Z</time></trkpt><trkpt lat="43.9124954" lon="11.1225053"><ele>119.60000000000001</ele><time>2026-04-15T15:08:59.995Z</time></trkpt><trkpt lat="43.912443" lon="11.1224086"><ele>116.80000000000001</ele><time>2026-04-15T15:09:01.002Z</time></trkpt><trkpt lat="43.9123936" lon="11.1223058"><ele>114.0</ele><time>2026-04-15T15:09:02.017Z</time></trkpt><trkpt lat="43.9123389" lon="11.1221983"><ele>114.0</ele><time>2026-04-15T15:09:03.004Z</time></trkpt><trkpt lat="43.9122798" lon="11.1220904"><ele>114.0</ele><time>2026-04-15T15:09:04.013Z</time></trkpt><trkpt lat="43.9122214" lon="11.1219768"><ele>114.0</ele><time>2026-04-15T15:09:05.007Z</time></trkpt><trkpt lat="43.9121585" lon="11.1218633"><ele>114.0</ele><time>2026-04-15T15:09:05.997Z</time></trkpt><trkpt lat="43.9120908" lon="11.12174"><ele>114.0</ele><time>2026-04-15T15:09:07.012Z</time></trkpt><trkpt lat="43.9120219" lon="11.1216218"><ele>115.6</ele><time>2026-04-15T15:09:08.008Z</time></trkpt><trkpt lat="43.9119585" lon="11.1215072"><ele>117.2</ele><time>2026-04-15T15:09:09.014Z</time></trkpt><trkpt lat="43.9118918" lon="11.1214012"><ele>118.79999999999998</ele><time>2026-04-15T15:09:10.006Z</time></trkpt><trkpt lat="43.9118271" lon="11.1212991"><ele>120.39999999999999</ele><time>2026-04-15T15:09:10.977Z</time></trkpt><trkpt lat="43.9117536" lon="11.1212067"><ele>122.0</ele><time>2026-04-15T15:09:11.975Z</time></trkpt><trkpt lat="43.9116524" lon="11.121112"><ele>116.75</ele><time>2026-04-15T15:09:12.986Z</time></trkpt><trkpt lat="43.9115201" lon="11.1210073"><ele>111.5</ele><time>2026-04-15T15:09:14.011Z</time></trkpt><trkpt lat="43.9113929" lon="11.1208923"><ele>106.25</ele><time>2026-04-15T15:09:14.984Z</time></trkpt><trkpt lat="43.9112792" lon="11.1207862"><ele>101.0</ele><time>2026-04-15T15:09:16.015Z</time></trkpt><trkpt lat="43.9111806" lon="11.1206811"><ele>101.0</ele><time>2026-04-15T15:09:16.977Z</time></trkpt><trkpt lat="43.9110965" lon="11.1205596"><ele>101.0</ele><time>2026-04-15T15:09:17.975Z</time></trkpt><trkpt lat="43.9110303" lon="11.1204263"><ele>101.0</ele><time>2026-04-15T15:09:18.978Z</time></trkpt><trkpt lat="43.9109676" lon="11.1202792"><ele>101.0</ele><time>2026-04-15T15:09:20.003Z</time></trkpt><trkpt lat="43.9109052" lon="11.1201232"><ele>98.25</ele><time>2026-04-15T15:09:21.007Z</time></trkpt><trkpt lat="43.9108441" lon="11.119972"><ele>95.5</ele><time>2026-04-15T15:09:22.006Z</time></trkpt><trkpt lat="43.9107907" lon="11.1198273"><ele>92.75</ele><time>2026-04-15T15:09:22.983Z</time></trkpt><trkpt lat="43.9107398" lon="11.119696"><ele>90.0</ele><time>2026-04-15T15:09:23.999Z</time></trkpt><trkpt lat="43.910693" lon="11.1195667"><ele>90.0</ele><time>2026-04-15T15:09:25.011Z</time></trkpt><trkpt lat="43.9106485" lon="11.1194397"><ele>90.0</ele><time>2026-04-15T15:09:26.003Z</time></trkpt><trkpt lat="43.9106099" lon="11.1193119"><ele>90.0</ele><time>2026-04-15T15:09:26.982Z</time></trkpt><trkpt lat="43.9105709" lon="11.1191832"><ele>90.0</ele><time>2026-04-15T15:09:28Z</time></trkpt><trkpt lat="43.9105287" lon="11.1190513"><ele>90.0</ele><time>2026-04-15T15:09:28.986Z</time></trkpt><trkpt lat="43.9104913" lon="11.1189185"><ele>91.4</ele><time>2026-04-15T15:09:29.998Z</time></trkpt><trkpt lat="43.910461" lon="11.1187899"><ele>92.8</ele><time>2026-04-15T15:09:30.999Z</time></trkpt><trkpt lat="43.9104314" lon="11.1186687"><ele>94.19999999999999</ele><time>2026-04-15T15:09:32.004Z</time></trkpt><trkpt lat="43.9104016" lon="11.1185542"><ele>95.6</ele><time>2026-04-15T15:09:32.994Z</time></trkpt><trkpt lat="43.9103683" lon="11.1184392"><ele>97.0</ele><time>2026-04-15T15:09:33.997Z</time></trkpt><trkpt lat="43.9103313" lon="11.1183176"><ele>96.25</ele><time>2026-04-15T15:09:34.996Z</time></trkpt><trkpt lat="43.9102763" lon="11.1181698"><ele>95.5</ele><time>2026-04-15T15:09:35.972Z</time></trkpt><trkpt lat="43.9102126" lon="11.1179946"><ele>94.75</ele><time>2026-04-15T15:09:37.014Z</time></trkpt><trkpt lat="43.9101355" lon="11.1177932"><ele>94.0</ele><time>2026-04-15T15:09:37.978Z</time></trkpt><trkpt lat="43.9100429" lon="11.1176238"><ele>94.0</ele><time>2026-04-15T15:09:38.981Z</time></trkpt><trkpt lat="43.9099444" lon="11.1174906"><ele>94.0</ele><time>2026-04-15T15:09:39.998Z</time></trkpt><trkpt lat="43.9098457" lon="11.1173733"><ele>94.0</ele><time>2026-04-15T15:09:40.998Z</time></trkpt><trkpt lat="43.909746" lon="11.11727"><ele>94.0</ele><time>2026-04-15T15:09:41.98Z</time></trkpt><trkpt lat="43.9096545" lon="11.1171773"><ele>93.4</ele><time>2026-04-15T15:09:42.988Z</time></trkpt><trkpt lat="43.9095779" lon="11.1170979"><ele>92.80000000000001</ele><time>2026-04-15T15:09:44.011Z</time></trkpt><trkpt lat="43.9094942" lon="11.1170214"><ele>92.19999999999999</ele><time>2026-04-15T15:09:44.999Z</time></trkpt><trkpt lat="43.9094125" lon="11.1169472"><ele>91.6</ele><time>2026-04-15T15:09:45.975Z</time></trkpt><trkpt lat="43.9093275" lon="11.1168732"><ele>91.0</ele><time>2026-04-15T15:09:46.985Z</time></trkpt><trkpt lat="43.9092378" lon="11.1167911"><ele>91.0</ele><time>2026-04-15T15:09:48.022Z</time></trkpt><trkpt lat="43.9091544" lon="11.1167013"><ele>91.0</ele><time>2026-04-15T15:09:48.99Z</time></trkpt><trkpt lat="43.9090712" lon="11.1166199"><ele>91.0</ele><time>2026-04-15T15:09:50.013Z</time></trkpt><trkpt lat="43.9089992" lon="11.1165475"><ele>91.0</ele><time>2026-04-15T15:09:50.998Z</time></trkpt><trkpt lat="43.9089375" lon="11.1164843"><ele>91.0</ele><time>2026-04-15T15:09:52.01Z</time></trkpt><trkpt lat="43.9088801" lon="11.116418"><ele>91.0</ele><time>2026-04-15T15:09:53.006Z</time></trkpt><trkpt lat="43.9088211" lon="11.1163522"><ele>92.33333333333333</ele><time>2026-04-15T15:09:53.994Z</time></trkpt><trkpt lat="43.908754" lon="11.1162855"><ele>93.66666666666666</ele><time>2026-04-15T15:09:54.997Z</time></trkpt><trkpt lat="43.9086844" lon="11.1162211"><ele>95.0</ele><time>2026-04-15T15:09:55.968Z</time></trkpt><trkpt lat="43.908619" lon="11.1161564"><ele>96.33333333333333</ele><time>2026-04-15T15:09:56.97Z</time></trkpt><trkpt lat="43.9085563" lon="11.1160977"><ele>97.66666666666667</ele><time>2026-04-15T15:09:57.978Z</time></trkpt><trkpt lat="43.9084923" lon="11.1160439"><ele>99.0</ele><time>2026-04-15T15:09:59.007Z</time></trkpt><trkpt lat="43.9084286" lon="11.1159876"><ele>96.80000000000001</ele><time>2026-04-15T15:10:00.004Z</time></trkpt><trkpt lat="43.9083581" lon="11.1159203"><ele>94.60000000000001</ele><time>2026-04-15T15:10:00.981Z</time></trkpt><trkpt lat="43.9082839" lon="11.1158478"><ele>92.4</ele><time>2026-04-15T15:10:01.985Z</time></trkpt><trkpt lat="43.9082094" lon="11.1157604"><ele>90.2</ele><time>2026-04-15T15:10:02.972Z</time></trkpt><trkpt lat="43.908151" lon="11.1156564"><ele>88.0</ele><time>2026-04-15T15:10:03.964Z</time></trkpt><trkpt lat="43.9081116" lon="11.1155431"><ele>88.0</ele><time>2026-04-15T15:10:04.985Z</time></trkpt><trkpt lat="43.908089" lon="11.115414"><ele>88.0</ele><time>2026-04-15T15:10:05.968Z</time></trkpt><trkpt lat="43.9080831" lon="11.1152731"><ele>88.0</ele><time>2026-04-15T15:10:06.985Z</time></trkpt><trkpt lat="43.9080855" lon="11.1151273"><ele>88.0</ele><time>2026-04-15T15:10:07.981Z</time></trkpt><trkpt lat="43.9080941" lon="11.1149822"><ele>88.0</ele><time>2026-04-15T15:10:08.968Z</time></trkpt><trkpt lat="43.908107" lon="11.1148363"><ele>88.2</ele><time>2026-04-15T15:10:09.988Z</time></trkpt><trkpt lat="43.908122" lon="11.1147086"><ele>88.4</ele><time>2026-04-15T15:10:10.971Z</time></trkpt><trkpt lat="43.9081341" lon="11.1145768"><ele>88.60000000000001</ele><time>2026-04-15T15:10:11.977Z</time></trkpt><trkpt lat="43.9081355" lon="11.1144448"><ele>88.80000000000001</ele><time>2026-04-15T15:10:12.974Z</time></trkpt><trkpt lat="43.9081324" lon="11.1143093"><ele>89.0</ele><time>2026-04-15T15:10:13.99Z</time></trkpt><trkpt lat="43.9081203" lon="11.1141811"><ele>89.6</ele><time>2026-04-15T15:10:14.996Z</time></trkpt><trkpt lat="43.9081072" lon="11.1140511"><ele>90.2</ele><time>2026-04-15T15:10:15.994Z</time></trkpt><trkpt lat="43.9080904" lon="11.1139211"><ele>90.8</ele><time>2026-04-15T15:10:16.972Z</time></trkpt><trkpt lat="43.9080623" lon="11.1137932"><ele>91.39999999999999</ele><time>2026-04-15T15:10:17.974Z</time></trkpt><trkpt lat="43.9080321" lon="11.1136774"><ele>92.0</ele><time>2026-04-15T15:10:18.976Z</time></trkpt><trkpt lat="43.9079879" lon="11.1135603"><ele>92.0</ele><time>2026-04-15T15:10:20.013Z</time></trkpt><trkpt lat="43.9079391" lon="11.1134327"><ele>92.0</ele><time>2026-04-15T15:10:21.006Z</time></trkpt><trkpt lat="43.9078851" lon="11.1133081"><ele>92.0</ele><time>2026-04-15T15:10:21.968Z</time></trkpt><trkpt lat="43.9078272" lon="11.1131897"><ele>92.0</ele><time>2026-04-15T15:10:23.07Z</time></trkpt><trkpt lat="43.9077557" lon="11.1130629"><ele>92.0</ele><time>2026-04-15T15:10:24.063Z</time></trkpt><trkpt lat="43.9076787" lon="11.1129431"><ele>92.0</ele><time>2026-04-15T15:10:24.99Z</time></trkpt><trkpt lat="43.9075873" lon="11.1127916"><ele>92.0</ele><time>2026-04-15T15:10:26.022Z</time></trkpt><trkpt lat="43.907496" lon="11.1126339"><ele>92.0</ele><time>2026-04-15T15:10:27.006Z</time></trkpt><trkpt lat="43.9074185" lon="11.1124894"><ele>92.0</ele><time>2026-04-15T15:10:27.988Z</time></trkpt><trkpt lat="43.9073509" lon="11.1123655"><ele>91.25</ele><time>2026-04-15T15:10:29.096Z</time></trkpt><trkpt lat="43.9072725" lon="11.1122353"><ele>90.5</ele><time>2026-04-15T15:10:30.087Z</time></trkpt><trkpt lat="43.9071768" lon="11.1120817"><ele>89.75</ele><time>2026-04-15T15:10:31.086Z</time></trkpt><trkpt lat="43.9070885" lon="11.1119312"><ele>89.0</ele><time>2026-04-15T15:10:32.008Z</time></trkpt><trkpt lat="43.9070089" lon="11.1117879"><ele>89.0</ele><time>2026-04-15T15:10:32.976Z</time></trkpt><trkpt lat="43.9069368" lon="11.1116568"><ele>89.0</ele><time>2026-04-15T15:10:33.976Z</time></trkpt><trkpt lat="43.9068726" lon="11.1115367"><ele>89.0</ele><time>2026-04-15T15:10:35.083Z</time></trkpt><trkpt lat="43.9068175" lon="11.111428"><ele>89.0</ele><time>2026-04-15T15:10:36.073Z</time></trkpt><trkpt lat="43.9067767" lon="11.1113212"><ele>89.0</ele><time>2026-04-15T15:10:37.087Z</time></trkpt><trkpt lat="43.9067433" lon="11.111214"><ele>89.0</ele><time>2026-04-15T15:10:38.071Z</time></trkpt><trkpt lat="43.9066633" lon="11.1110044"><ele>89.0</ele><time>2026-04-15T15:10:39.981Z</time></trkpt><trkpt lat="43.9066174" lon="11.1108877"><ele>89.0</ele><time>2026-04-15T15:10:41.067Z</time></trkpt><trkpt lat="43.9065803" lon="11.1107639"><ele>89.0</ele><time>2026-04-15T15:10:42.075Z</time></trkpt><trkpt lat="43.9065481" lon="11.110643"><ele>89.0</ele><time>2026-04-15T15:10:43.092Z</time></trkpt><trkpt lat="43.9065141" lon="11.1105185"><ele>89.0</ele><time>2026-04-15T15:10:44.094Z</time></trkpt><trkpt lat="43.9064816" lon="11.1103856"><ele>89.0</ele><time>2026-04-15T15:10:45.08Z</time></trkpt><trkpt lat="43.9064188" lon="11.1100921"><ele>89.0</ele><time>2026-04-15T15:10:47.064Z</time></trkpt><trkpt lat="43.9063879" lon="11.1099407"><ele>88.5</ele><time>2026-04-15T15:10:48.068Z</time></trkpt><trkpt lat="43.90635" lon="11.1097781"><ele>88.0</ele><time>2026-04-15T15:10:49.1Z</time></trkpt><trkpt lat="43.9062927" lon="11.1095908"><ele>87.5</ele><time>2026-04-15T15:10:50.074Z</time></trkpt><trkpt lat="43.9062305" lon="11.1093678"><ele>87.0</ele><time>2026-04-15T15:10:51.098Z</time></trkpt><trkpt lat="43.9061719" lon="11.1091297"><ele>88.0</ele><time>2026-04-15T15:10:52.076Z</time></trkpt><trkpt lat="43.906115" lon="11.1088848"><ele>89.0</ele><time>2026-04-15T15:10:53.078Z</time></trkpt><trkpt lat="43.9060598" lon="11.1086524"><ele>90.0</ele><time>2026-04-15T15:10:54.065Z</time></trkpt><trkpt lat="43.9060128" lon="11.1084374"><ele>89.25</ele><time>2026-04-15T15:10:55.066Z</time></trkpt><trkpt lat="43.9059688" lon="11.108238"><ele>88.5</ele><time>2026-04-15T15:10:56.065Z</time></trkpt><trkpt lat="43.9059208" lon="11.1080531"><ele>87.75</ele><time>2026-04-15T15:10:57.069Z</time></trkpt><trkpt lat="43.9058619" lon="11.1078827"><ele>87.0</ele><time>2026-04-15T15:10:58.077Z</time></trkpt><trkpt lat="43.9058079" lon="11.1077465"><ele>87.0</ele><time>2026-04-15T15:10:59.094Z</time></trkpt><trkpt lat="43.9057754" lon="11.1076361"><ele>87.0</ele><time>2026-04-15T15:11:00.089Z</time></trkpt><trkpt lat="43.9057576" lon="11.1074818"><ele>87.0</ele><time>2026-04-15T15:11:02.073Z</time></trkpt><trkpt lat="43.9057634" lon="11.1073807"><ele>87.0</ele><time>2026-04-15T15:11:03.061Z</time></trkpt><trkpt lat="43.9057709" lon="11.1072662"><ele>87.0</ele><time>2026-04-15T15:11:04.068Z</time></trkpt><trkpt lat="43.9057508" lon="11.1071477"><ele>87.0</ele><time>2026-04-15T15:11:05.092Z</time></trkpt><trkpt lat="43.9057127" lon="11.1070342"><ele>86.75</ele><time>2026-04-15T15:11:06.069Z</time></trkpt><trkpt lat="43.9056697" lon="11.1069228"><ele>86.5</ele><time>2026-04-15T15:11:07.083Z</time></trkpt><trkpt lat="43.9056048" lon="11.1067997"><ele>86.25</ele><time>2026-04-15T15:11:08.097Z</time></trkpt><trkpt lat="43.9055401" lon="11.106661"><ele>86.0</ele><time>2026-04-15T15:11:09.107Z</time></trkpt><trkpt lat="43.9054464" lon="11.1064778"><ele>86.0</ele><time>2026-04-15T15:11:10.067Z</time></trkpt><trkpt lat="43.9053297" lon="11.1062824"><ele>86.0</ele><time>2026-04-15T15:11:11.083Z</time></trkpt><trkpt lat="43.9052003" lon="11.1061011"><ele>86.0</ele><time>2026-04-15T15:11:12.092Z</time></trkpt><trkpt lat="43.9050647" lon="11.1059437"><ele>86.0</ele><time>2026-04-15T15:11:13.091Z</time></trkpt><trkpt lat="43.9049281" lon="11.105799"><ele>86.0</ele><time>2026-04-15T15:11:14.094Z</time></trkpt><trkpt lat="43.9047862" lon="11.1056586"><ele>86.0</ele><time>2026-04-15T15:11:15.08Z</time></trkpt><trkpt lat="43.9046419" lon="11.1055157"><ele>86.0</ele><time>2026-04-15T15:11:16.096Z</time></trkpt><trkpt lat="43.9045012" lon="11.1053759"><ele>86.0</ele><time>2026-04-15T15:11:17.092Z</time></trkpt><trkpt lat="43.9043607" lon="11.1052363"><ele>86.0</ele><time>2026-04-15T15:11:18.077Z</time></trkpt><trkpt lat="43.9042151" lon="11.1050849"><ele>86.0</ele><time>2026-04-15T15:11:19.097Z</time></trkpt><trkpt lat="43.9040679" lon="11.1049341"><ele>86.0</ele><time>2026-04-15T15:11:20.054Z</time></trkpt><trkpt lat="43.9039214" lon="11.1047863"><ele>86.0</ele><time>2026-04-15T15:11:21.094Z</time></trkpt><trkpt lat="43.9037732" lon="11.1046371"><ele>84.66666666666667</ele><time>2026-04-15T15:11:22.095Z</time></trkpt><trkpt lat="43.9036106" lon="11.1044889"><ele>83.33333333333333</ele><time>2026-04-15T15:11:23.094Z</time></trkpt><trkpt lat="43.9034531" lon="11.1043305"><ele>82.0</ele><time>2026-04-15T15:11:24.077Z</time></trkpt><trkpt lat="43.9032992" lon="11.1041572"><ele>83.33333333333333</ele><time>2026-04-15T15:11:25.057Z</time></trkpt><trkpt lat="43.9031389" lon="11.1039717"><ele>84.66666666666667</ele><time>2026-04-15T15:11:26.063Z</time></trkpt><trkpt lat="43.9029908" lon="11.1037752"><ele>86.0</ele><time>2026-04-15T15:11:27.079Z</time></trkpt><trkpt lat="43.9028489" lon="11.1035765"><ele>86.0</ele><time>2026-04-15T15:11:28.052Z</time></trkpt><trkpt lat="43.9027176" lon="11.1033769"><ele>86.0</ele><time>2026-04-15T15:11:29.055Z</time></trkpt><trkpt lat="43.9025937" lon="11.1031553"><ele>86.0</ele><time>2026-04-15T15:11:30.051Z</time></trkpt><trkpt lat="43.9024861" lon="11.1029134"><ele>82.0</ele><time>2026-04-15T15:11:31.079Z</time></trkpt><trkpt lat="43.9023881" lon="11.1026786"><ele>78.0</ele><time>2026-04-15T15:11:32.083Z</time></trkpt><trkpt lat="43.9023044" lon="11.1024355"><ele>74.0</ele><time>2026-04-15T15:11:33.084Z</time></trkpt><trkpt lat="43.9022349" lon="11.1022001"><ele>74.0</ele><time>2026-04-15T15:11:34.068Z</time></trkpt><trkpt lat="43.9021768" lon="11.1019706"><ele>74.0</ele><time>2026-04-15T15:11:35.068Z</time></trkpt><trkpt lat="43.9021273" lon="11.1017494"><ele>74.0</ele><time>2026-04-15T15:11:36.054Z</time></trkpt><trkpt lat="43.9020897" lon="11.1015365"><ele>74.0</ele><time>2026-04-15T15:11:37.058Z</time></trkpt><trkpt lat="43.9020646" lon="11.1013344"><ele>74.0</ele><time>2026-04-15T15:11:38.075Z</time></trkpt><trkpt lat="43.9020442" lon="11.1011429"><ele>74.0</ele><time>2026-04-15T15:11:39.08Z</time></trkpt><trkpt lat="43.9020279" lon="11.1009757"><ele>74.0</ele><time>2026-04-15T15:11:40.088Z</time></trkpt><trkpt lat="43.9020072" lon="11.1008201"><ele>74.0</ele><time>2026-04-15T15:11:41.069Z</time></trkpt><trkpt lat="43.9019893" lon="11.1006917"><ele>74.0</ele><time>2026-04-15T15:11:42.072Z</time></trkpt><trkpt lat="43.9019763" lon="11.1006017"><ele>74.0</ele><time>2026-04-15T15:11:43.077Z</time></trkpt><trkpt lat="43.9019737" lon="11.1005066"><ele>74.0</ele><time>2026-04-15T15:11:46.058Z</time></trkpt><trkpt lat="43.9019993" lon="11.1003739"><ele>74.0</ele><time>2026-04-15T15:11:48.086Z</time></trkpt><trkpt lat="43.9020027" lon="11.1002707"><ele>74.0</ele><time>2026-04-15T15:11:49.076Z</time></trkpt><trkpt lat="43.9019896" lon="11.1001628"><ele>74.0</ele><time>2026-04-15T15:11:50.056Z</time></trkpt><trkpt lat="43.9019746" lon="11.1000566"><ele>74.0</ele><time>2026-04-15T15:11:51.075Z</time></trkpt><trkpt lat="43.9019702" lon="11.0999386"><ele>74.0</ele><time>2026-04-15T15:11:52.066Z</time></trkpt><trkpt lat="43.9019787" lon="11.0998125"><ele>74.0</ele><time>2026-04-15T15:11:53.061Z</time></trkpt><trkpt lat="43.9020017" lon="11.0996807"><ele>74.0</ele><time>2026-04-15T15:11:54.07Z</time></trkpt><trkpt lat="43.902039" lon="11.0995391"><ele>74.2</ele><time>2026-04-15T15:11:55.085Z</time></trkpt><trkpt lat="43.9020836" lon="11.0993978"><ele>74.4</ele><time>2026-04-15T15:11:56.088Z</time></trkpt><trkpt lat="43.9021279" lon="11.0992751"><ele>74.6</ele><time>2026-04-15T15:11:57.061Z</time></trkpt><trkpt lat="43.902152" lon="11.0991614"><ele>74.8</ele><time>2026-04-15T15:11:58.052Z</time></trkpt><trkpt lat="43.9021392" lon="11.0990424"><ele>75.0</ele><time>2026-04-15T15:11:59.051Z</time></trkpt><trkpt lat="43.9021005" lon="11.0989324"><ele>75.0</ele><time>2026-04-15T15:12:00.077Z</time></trkpt><trkpt lat="43.9020287" lon="11.0988169"><ele>75.0</ele><time>2026-04-15T15:12:01.056Z</time></trkpt><trkpt lat="43.901951" lon="11.0986852"><ele>75.0</ele><time>2026-04-15T15:12:02.066Z</time></trkpt><trkpt lat="43.9018955" lon="11.0985063"><ele>75.0</ele><time>2026-04-15T15:12:03.059Z</time></trkpt><trkpt lat="43.9018693" lon="11.0982912"><ele>75.0</ele><time>2026-04-15T15:12:04.056Z</time></trkpt><trkpt lat="43.9018512" lon="11.0980556"><ele>75.0</ele><time>2026-04-15T15:12:05.063Z</time></trkpt><trkpt lat="43.9018366" lon="11.0978259"><ele>75.0</ele><time>2026-04-15T15:12:06.061Z</time></trkpt><trkpt lat="43.9018254" lon="11.0975945"><ele>74.0</ele><time>2026-04-15T15:12:07.064Z</time></trkpt><trkpt lat="43.9018124" lon="11.0973759"><ele>73.0</ele><time>2026-04-15T15:12:08.064Z</time></trkpt><trkpt lat="43.9017971" lon="11.0971547"><ele>72.0</ele><time>2026-04-15T15:12:09.074Z</time></trkpt><trkpt lat="43.9017803" lon="11.0969322"><ele>72.0</ele><time>2026-04-15T15:12:10.074Z</time></trkpt><trkpt lat="43.9017633" lon="11.0967143"><ele>72.0</ele><time>2026-04-15T15:12:11.098Z</time></trkpt><trkpt lat="43.9017502" lon="11.0965048"><ele>72.0</ele><time>2026-04-15T15:12:12.102Z</time></trkpt><trkpt lat="43.9017375" lon="11.0962864"><ele>71.66666666666667</ele><time>2026-04-15T15:12:13.093Z</time></trkpt><trkpt lat="43.901731" lon="11.0960565"><ele>71.33333333333334</ele><time>2026-04-15T15:12:14.072Z</time></trkpt><trkpt lat="43.9017353" lon="11.0958298"><ele>71.0</ele><time>2026-04-15T15:12:15.051Z</time></trkpt><trkpt lat="43.9017452" lon="11.0955935"><ele>71.0</ele><time>2026-04-15T15:12:16.057Z</time></trkpt><trkpt lat="43.9017604" lon="11.095357"><ele>71.0</ele><time>2026-04-15T15:12:17.057Z</time></trkpt><trkpt lat="43.9017831" lon="11.0951194"><ele>71.0</ele><time>2026-04-15T15:12:18.107Z</time></trkpt><trkpt lat="43.9018108" lon="11.0948768"><ele>71.0</ele><time>2026-04-15T15:12:19.049Z</time></trkpt><trkpt lat="43.9018454" lon="11.0946345"><ele>71.0</ele><time>2026-04-15T15:12:20.054Z</time></trkpt><trkpt lat="43.9018804" lon="11.094393"><ele>71.0</ele><time>2026-04-15T15:12:21.063Z</time></trkpt><trkpt lat="43.9019175" lon="11.0941576"><ele>71.0</ele><time>2026-04-15T15:12:22.064Z</time></trkpt><trkpt lat="43.9019568" lon="11.0939311"><ele>71.0</ele><time>2026-04-15T15:12:23.088Z</time></trkpt><trkpt lat="43.9020032" lon="11.0937134"><ele>71.0</ele><time>2026-04-15T15:12:24.07Z</time></trkpt><trkpt lat="43.9020522" lon="11.0935032"><ele>71.0</ele><time>2026-04-15T15:12:25.049Z</time></trkpt><trkpt lat="43.9021107" lon="11.0933096"><ele>71.0</ele><time>2026-04-15T15:12:26.069Z</time></trkpt><trkpt lat="43.9021817" lon="11.0931419"><ele>71.0</ele><time>2026-04-15T15:12:27.06Z</time></trkpt><trkpt lat="43.9022565" lon="11.093006"><ele>71.0</ele><time>2026-04-15T15:12:28.068Z</time></trkpt><trkpt lat="43.9023292" lon="11.0929035"><ele>70.83333333333334</ele><time>2026-04-15T15:12:29.057Z</time></trkpt><trkpt lat="43.9023961" lon="11.0928267"><ele>70.66666666666667</ele><time>2026-04-15T15:12:30.046Z</time></trkpt><trkpt lat="43.9024552" lon="11.0927705"><ele>70.5</ele><time>2026-04-15T15:12:31.056Z</time></trkpt><trkpt lat="43.9025119" lon="11.0927301"><ele>70.33333333333333</ele><time>2026-04-15T15:12:32.072Z</time></trkpt><trkpt lat="43.9026139" lon="11.0926473"><ele>70.16666666666666</ele><time>2026-04-15T15:12:34.057Z</time></trkpt><trkpt lat="43.9026722" lon="11.0926037"><ele>70.0</ele><time>2026-04-15T15:12:35.091Z</time></trkpt><trkpt lat="43.9027332" lon="11.0925362"><ele>70.33333333333333</ele><time>2026-04-15T15:12:36.074Z</time></trkpt><trkpt lat="43.9027876" lon="11.0924427"><ele>70.66666666666666</ele><time>2026-04-15T15:12:37.084Z</time></trkpt><trkpt lat="43.9028304" lon="11.0923276"><ele>71.0</ele><time>2026-04-15T15:12:38.078Z</time></trkpt><trkpt lat="43.9028628" lon="11.0922168"><ele>71.33333333333333</ele><time>2026-04-15T15:12:39.079Z</time></trkpt><trkpt lat="43.902878" lon="11.0921032"><ele>71.66666666666667</ele><time>2026-04-15T15:12:40.067Z</time></trkpt><trkpt lat="43.9028783" lon="11.091988"><ele>72.0</ele><time>2026-04-15T15:12:41.055Z</time></trkpt><trkpt lat="43.9028712" lon="11.0918714"><ele>72.0</ele><time>2026-04-15T15:12:42.067Z</time></trkpt><trkpt lat="43.9028446" lon="11.0917572"><ele>72.0</ele><time>2026-04-15T15:12:43.052Z</time></trkpt><trkpt lat="43.9027948" lon="11.0916548"><ele>72.0</ele><time>2026-04-15T15:12:44.079Z</time></trkpt><trkpt lat="43.9027209" lon="11.091566"><ele>72.0</ele><time>2026-04-15T15:12:45.047Z</time></trkpt><trkpt lat="43.9026438" lon="11.091484"><ele>72.0</ele><time>2026-04-15T15:12:46.051Z</time></trkpt><trkpt lat="43.9025773" lon="11.0913773"><ele>71.6</ele><time>2026-04-15T15:12:47.047Z</time></trkpt><trkpt lat="43.9025392" lon="11.0912553"><ele>71.2</ele><time>2026-04-15T15:12:48.057Z</time></trkpt><trkpt lat="43.9025231" lon="11.0911042"><ele>70.8</ele><time>2026-04-15T15:12:49.07Z</time></trkpt><trkpt lat="43.9025101" lon="11.0909385"><ele>70.4</ele><time>2026-04-15T15:12:50.063Z</time></trkpt><trkpt lat="43.9024962" lon="11.0907737"><ele>70.0</ele><time>2026-04-15T15:12:51.064Z</time></trkpt><trkpt lat="43.9024791" lon="11.0906252"><ele>69.25</ele><time>2026-04-15T15:12:52.052Z</time></trkpt><trkpt lat="43.9024469" lon="11.0904789"><ele>68.5</ele><time>2026-04-15T15:12:53.064Z</time></trkpt><trkpt lat="43.9024101" lon="11.0903212"><ele>67.75</ele><time>2026-04-15T15:12:54.102Z</time></trkpt><trkpt lat="43.9023566" lon="11.0901744"><ele>67.0</ele><time>2026-04-15T15:12:55.057Z</time></trkpt><trkpt lat="43.9022954" lon="11.0900301"><ele>67.25</ele><time>2026-04-15T15:12:56.042Z</time></trkpt><trkpt lat="43.902234" lon="11.0898872"><ele>67.5</ele><time>2026-04-15T15:12:57.065Z</time></trkpt><trkpt lat="43.9021625" lon="11.0897507"><ele>67.75</ele><time>2026-04-15T15:12:58.075Z</time></trkpt><trkpt lat="43.9020846" lon="11.0896343"><ele>68.0</ele><time>2026-04-15T15:12:59.093Z</time></trkpt><trkpt lat="43.9020056" lon="11.0895156"><ele>68.0</ele><time>2026-04-15T15:13:00.081Z</time></trkpt><trkpt lat="43.9019277" lon="11.0893913"><ele>68.0</ele><time>2026-04-15T15:13:01.086Z</time></trkpt><trkpt lat="43.9018554" lon="11.0892672"><ele>68.0</ele><time>2026-04-15T15:13:02.066Z</time></trkpt><trkpt lat="43.9017753" lon="11.0891352"><ele>68.0</ele><time>2026-04-15T15:13:03.053Z</time></trkpt><trkpt lat="43.9016974" lon="11.0890098"><ele>68.0</ele><time>2026-04-15T15:13:04.074Z</time></trkpt><trkpt lat="43.901618" lon="11.0888805"><ele>68.0</ele><time>2026-04-15T15:13:05.069Z</time></trkpt><trkpt lat="43.9015347" lon="11.0887541"><ele>68.0</ele><time>2026-04-15T15:13:06.059Z</time></trkpt><trkpt lat="43.901438" lon="11.0886197"><ele>68.0</ele><time>2026-04-15T15:13:07.058Z</time></trkpt><trkpt lat="43.9013265" lon="11.0884613"><ele>68.0</ele><time>2026-04-15T15:13:08.072Z</time></trkpt><trkpt lat="43.9012151" lon="11.0882849"><ele>68.0</ele><time>2026-04-15T15:13:09.084Z</time></trkpt><trkpt lat="43.9011006" lon="11.0881019"><ele>68.0</ele><time>2026-04-15T15:13:10.057Z</time></trkpt><trkpt lat="43.9009805" lon="11.0879073"><ele>68.0</ele><time>2026-04-15T15:13:11.063Z</time></trkpt><trkpt lat="43.9008612" lon="11.0877155"><ele>68.0</ele><time>2026-04-15T15:13:12.05Z</time></trkpt><trkpt lat="43.9007424" lon="11.0875215"><ele>68.0</ele><time>2026-04-15T15:13:13.055Z</time></trkpt><trkpt lat="43.9006263" lon="11.0873248"><ele>67.66666666666667</ele><time>2026-04-15T15:13:14.076Z</time></trkpt><trkpt lat="43.9005096" lon="11.0871255"><ele>67.33333333333333</ele><time>2026-04-15T15:13:15.063Z</time></trkpt><trkpt lat="43.9003987" lon="11.0869338"><ele>67.0</ele><time>2026-04-15T15:13:16.047Z</time></trkpt><trkpt lat="43.9002853" lon="11.0867422"><ele>66.66666666666666</ele><time>2026-04-15T15:13:17.048Z</time></trkpt><trkpt lat="43.9001719" lon="11.0865505"><ele>66.33333333333333</ele><time>2026-04-15T15:13:18.041Z</time></trkpt><trkpt lat="43.9000579" lon="11.0863619"><ele>66.0</ele><time>2026-04-15T15:13:19.078Z</time></trkpt><trkpt lat="43.8999414" lon="11.0861783"><ele>65.66666666666667</ele><time>2026-04-15T15:13:20.086Z</time></trkpt><trkpt lat="43.899833" lon="11.0859972"><ele>65.33333333333334</ele><time>2026-04-15T15:13:21.08Z</time></trkpt><trkpt lat="43.8997279" lon="11.0858206"><ele>65.0</ele><time>2026-04-15T15:13:22.054Z</time></trkpt><trkpt lat="43.899622" lon="11.085643"><ele>65.0</ele><time>2026-04-15T15:13:23.043Z</time></trkpt><trkpt lat="43.8995137" lon="11.0854668"><ele>65.0</ele><time>2026-04-15T15:13:24.055Z</time></trkpt><trkpt lat="43.8994084" lon="11.0852885"><ele>65.0</ele><time>2026-04-15T15:13:25.058Z</time></trkpt><trkpt lat="43.8993034" lon="11.0851125"><ele>65.0</ele><time>2026-04-15T15:13:26.08Z</time></trkpt><trkpt lat="43.8991975" lon="11.0849384"><ele>65.0</ele><time>2026-04-15T15:13:27.077Z</time></trkpt><trkpt lat="43.8990929" lon="11.0847628"><ele>65.0</ele><time>2026-04-15T15:13:28.069Z</time></trkpt><trkpt lat="43.8989944" lon="11.0845919"><ele>65.0</ele><time>2026-04-15T15:13:29.052Z</time></trkpt><trkpt lat="43.8989049" lon="11.0844311"><ele>65.0</ele><time>2026-04-15T15:13:30.073Z</time></trkpt><trkpt lat="43.8988243" lon="11.0842738"><ele>65.0</ele><time>2026-04-15T15:13:31.064Z</time></trkpt><trkpt lat="43.8987495" lon="11.0841292"><ele>65.0</ele><time>2026-04-15T15:13:32.047Z</time></trkpt><trkpt lat="43.8986908" lon="11.0840185"><ele>64.8</ele><time>2026-04-15T15:13:33.043Z</time></trkpt><trkpt lat="43.8986423" lon="11.0839323"><ele>64.6</ele><time>2026-04-15T15:13:34.095Z</time></trkpt><trkpt lat="43.8985687" lon="11.0838027"><ele>64.4</ele><time>2026-04-15T15:13:36.049Z</time></trkpt><trkpt lat="43.8985039" lon="11.0836759"><ele>64.2</ele><time>2026-04-15T15:13:38.065Z</time></trkpt><trkpt lat="43.8984594" lon="11.0835994"><ele>64.0</ele><time>2026-04-15T15:13:40.073Z</time></trkpt><trkpt lat="43.8984096" lon="11.0835157"><ele>64.0</ele><time>2026-04-15T15:13:44.061Z</time></trkpt><trkpt lat="43.898359" lon="11.0834279"><ele>64.0</ele><time>2026-04-15T15:13:46.055Z</time></trkpt><trkpt lat="43.898312" lon="11.0833278"><ele>64.0</ele><time>2026-04-15T15:13:48.043Z</time></trkpt><trkpt lat="43.8982667" lon="11.0831735"><ele>64.0</ele><time>2026-04-15T15:13:50.048Z</time></trkpt><trkpt lat="43.8982695" lon="11.0830527"><ele>64.0</ele><time>2026-04-15T15:13:51.083Z</time></trkpt><trkpt lat="43.898281" lon="11.0829208"><ele>63.666666666666664</ele><time>2026-04-15T15:13:52.048Z</time></trkpt><trkpt lat="43.8982764" lon="11.082805"><ele>63.33333333333333</ele><time>2026-04-15T15:13:53.06Z</time></trkpt><trkpt lat="43.8982365" lon="11.0827043"><ele>63.0</ele><time>2026-04-15T15:13:54.05Z</time></trkpt><trkpt lat="43.898176" lon="11.0826126"><ele>62.66666666666667</ele><time>2026-04-15T15:13:55.039Z</time></trkpt><trkpt lat="43.8981144" lon="11.0825594"><ele>62.333333333333336</ele><time>2026-04-15T15:13:56.043Z</time></trkpt><trkpt lat="43.8980421" lon="11.0825249"><ele>62.0</ele><time>2026-04-15T15:13:57.05Z</time></trkpt><trkpt lat="43.8979606" lon="11.0824945"><ele>62.0</ele><time>2026-04-15T15:13:58.07Z</time></trkpt><trkpt lat="43.8978768" lon="11.0824427"><ele>62.0</ele><time>2026-04-15T15:13:59.059Z</time></trkpt><trkpt lat="43.8977919" lon="11.0823547"><ele>62.0</ele><time>2026-04-15T15:14:00.053Z</time></trkpt><trkpt lat="43.8977058" lon="11.0822172"><ele>62.0</ele><time>2026-04-15T15:14:01.035Z</time></trkpt><trkpt lat="43.8976136" lon="11.0820569"><ele>62.333333333333336</ele><time>2026-04-15T15:14:02.065Z</time></trkpt><trkpt lat="43.8975308" lon="11.0819023"><ele>62.66666666666667</ele><time>2026-04-15T15:14:03.061Z</time></trkpt><trkpt lat="43.8974307" lon="11.0817247"><ele>63.0</ele><time>2026-04-15T15:14:04.06Z</time></trkpt><trkpt lat="43.8973311" lon="11.0815398"><ele>63.0</ele><time>2026-04-15T15:14:05.064Z</time></trkpt><trkpt lat="43.8972324" lon="11.0813539"><ele>63.0</ele><time>2026-04-15T15:14:06.054Z</time></trkpt><trkpt lat="43.8971253" lon="11.0811704"><ele>63.0</ele><time>2026-04-15T15:14:07.036Z</time></trkpt><trkpt lat="43.8970229" lon="11.0809862"><ele>63.0</ele><time>2026-04-15T15:14:08.037Z</time></trkpt><trkpt lat="43.8969249" lon="11.0808016"><ele>63.0</ele><time>2026-04-15T15:14:09.079Z</time></trkpt><trkpt lat="43.8968288" lon="11.0806265"><ele>63.0</ele><time>2026-04-15T15:14:10.042Z</time></trkpt><trkpt lat="43.8967313" lon="11.0804484"><ele>62.66666666666667</ele><time>2026-04-15T15:14:11.049Z</time></trkpt><trkpt lat="43.8966395" lon="11.0802733"><ele>62.333333333333336</ele><time>2026-04-15T15:14:12.056Z</time></trkpt><trkpt lat="43.8965448" lon="11.0800925"><ele>62.0</ele><time>2026-04-15T15:14:13.074Z</time></trkpt><trkpt lat="43.8964481" lon="11.0799148"><ele>62.0</ele><time>2026-04-15T15:14:14.075Z</time></trkpt><trkpt lat="43.8963476" lon="11.0797436"><ele>62.0</ele><time>2026-04-15T15:14:15.043Z</time></trkpt><trkpt lat="43.8962463" lon="11.0795737"><ele>62.0</ele><time>2026-04-15T15:14:16.065Z</time></trkpt><trkpt lat="43.896146" lon="11.0794011"><ele>62.0</ele><time>2026-04-15T15:14:17.04Z</time></trkpt><trkpt lat="43.8960511" lon="11.0792248"><ele>62.0</ele><time>2026-04-15T15:14:18.06Z</time></trkpt><trkpt lat="43.8959607" lon="11.0790544"><ele>62.0</ele><time>2026-04-15T15:14:19.076Z</time></trkpt><trkpt lat="43.895871" lon="11.0788907"><ele>61.5</ele><time>2026-04-15T15:14:20.079Z</time></trkpt><trkpt lat="43.8957836" lon="11.0787297"><ele>61.0</ele><time>2026-04-15T15:14:21.073Z</time></trkpt><trkpt lat="43.8957033" lon="11.0785721"><ele>60.5</ele><time>2026-04-15T15:14:22.053Z</time></trkpt><trkpt lat="43.8956273" lon="11.0784329"><ele>60.0</ele><time>2026-04-15T15:14:23.033Z</time></trkpt><trkpt lat="43.8955574" lon="11.078312"><ele>60.0</ele><time>2026-04-15T15:14:24.049Z</time></trkpt><trkpt lat="43.8954922" lon="11.0781924"><ele>60.0</ele><time>2026-04-15T15:14:25.051Z</time></trkpt><trkpt lat="43.8954197" lon="11.0780746"><ele>60.0</ele><time>2026-04-15T15:14:26.071Z</time></trkpt><trkpt lat="43.8953514" lon="11.0779528"><ele>60.0</ele><time>2026-04-15T15:14:27.05Z</time></trkpt><trkpt lat="43.8952812" lon="11.0778274"><ele>60.0</ele><time>2026-04-15T15:14:28.069Z</time></trkpt><trkpt lat="43.895217" lon="11.0776938"><ele>60.0</ele><time>2026-04-15T15:14:29.06Z</time></trkpt><trkpt lat="43.8951518" lon="11.0775685"><ele>60.0</ele><time>2026-04-15T15:14:30.074Z</time></trkpt><trkpt lat="43.8950918" lon="11.0774518"><ele>60.0</ele><time>2026-04-15T15:14:31.069Z</time></trkpt><trkpt lat="43.8950295" lon="11.0773329"><ele>60.0</ele><time>2026-04-15T15:14:32.047Z</time></trkpt><trkpt lat="43.8949638" lon="11.0772183"><ele>60.0</ele><time>2026-04-15T15:14:33.037Z</time></trkpt><trkpt lat="43.8949007" lon="11.0771067"><ele>59.6</ele><time>2026-04-15T15:14:34.057Z</time></trkpt><trkpt lat="43.8948371" lon="11.0769931"><ele>59.2</ele><time>2026-04-15T15:14:35.071Z</time></trkpt><trkpt lat="43.894779" lon="11.0768886"><ele>58.8</ele><time>2026-04-15T15:14:36.07Z</time></trkpt><trkpt lat="43.8947182" lon="11.0767796"><ele>58.4</ele><time>2026-04-15T15:14:37.066Z</time></trkpt><trkpt lat="43.8946514" lon="11.0766576"><ele>58.0</ele><time>2026-04-15T15:14:38.032Z</time></trkpt><trkpt lat="43.8945862" lon="11.0765293"><ele>58.0</ele><time>2026-04-15T15:14:39.056Z</time></trkpt><trkpt lat="43.8945271" lon="11.0764107"><ele>58.0</ele><time>2026-04-15T15:14:40.041Z</time></trkpt><trkpt lat="43.8944711" lon="11.0763"><ele>58.0</ele><time>2026-04-15T15:14:41.033Z</time></trkpt><trkpt lat="43.8944116" lon="11.0761911"><ele>58.0</ele><time>2026-04-15T15:14:42.054Z</time></trkpt><trkpt lat="43.8943573" lon="11.0760867"><ele>58.0</ele><time>2026-04-15T15:14:43.047Z</time></trkpt><trkpt lat="43.8943094" lon="11.0759992"><ele>58.00000000000001</ele><time>2026-04-15T15:14:44.073Z</time></trkpt><trkpt lat="43.894265" lon="11.0759136"><ele>58.0</ele><time>2026-04-15T15:14:45.053Z</time></trkpt><trkpt lat="43.894227" lon="11.0758395"><ele>58.00000000000001</ele><time>2026-04-15T15:14:46.061Z</time></trkpt><trkpt lat="43.8941931" lon="11.0757638"><ele>58.00000000000001</ele><time>2026-04-15T15:14:47.063Z</time></trkpt><trkpt lat="43.894163" lon="11.0756848"><ele>58.0</ele><time>2026-04-15T15:14:48.044Z</time></trkpt><trkpt lat="43.8941194" lon="11.0755588"><ele>58.00000000000001</ele><time>2026-04-15T15:14:50.071Z</time></trkpt><trkpt lat="43.8941015" lon="11.0754579"><ele>58.00000000000001</ele><time>2026-04-15T15:14:52.035Z</time></trkpt><trkpt lat="43.894108" lon="11.0752648"><ele>58.166666666666664</ele><time>2026-04-15T15:14:54.042Z</time></trkpt><trkpt lat="43.894093" lon="11.0751592"><ele>58.33333333333333</ele><time>2026-04-15T15:14:55.055Z</time></trkpt><trkpt lat="43.8940526" lon="11.0750707"><ele>58.5</ele><time>2026-04-15T15:14:56.057Z</time></trkpt><trkpt lat="43.894002" lon="11.0749936"><ele>58.66666666666667</ele><time>2026-04-15T15:14:57.043Z</time></trkpt><trkpt lat="43.8939402" lon="11.0749462"><ele>58.833333333333336</ele><time>2026-04-15T15:14:58.045Z</time></trkpt><trkpt lat="43.8938679" lon="11.0749273"><ele>59.0</ele><time>2026-04-15T15:14:59.076Z</time></trkpt><trkpt lat="43.893786" lon="11.0749113"><ele>58.25</ele><time>2026-04-15T15:15:00.094Z</time></trkpt><trkpt lat="43.8936983" lon="11.0748809"><ele>57.5</ele><time>2026-04-15T15:15:01.081Z</time></trkpt><trkpt lat="43.8935973" lon="11.0748242"><ele>56.75</ele><time>2026-04-15T15:15:02.057Z</time></trkpt><trkpt lat="43.8934861" lon="11.0747207"><ele>56.0</ele><time>2026-04-15T15:15:03.081Z</time></trkpt><trkpt lat="43.8933809" lon="11.0746045"><ele>56.0</ele><time>2026-04-15T15:15:04.048Z</time></trkpt><trkpt lat="43.8932711" lon="11.0744964"><ele>56.0</ele><time>2026-04-15T15:15:05.046Z</time></trkpt><trkpt lat="43.8931532" lon="11.0743855"><ele>56.0</ele><time>2026-04-15T15:15:06.077Z</time></trkpt><trkpt lat="43.8930111" lon="11.074254"><ele>56.0</ele><time>2026-04-15T15:15:07.069Z</time></trkpt><trkpt lat="43.8928553" lon="11.0740843"><ele>56.66666666666667</ele><time>2026-04-15T15:15:08.043Z</time></trkpt><trkpt lat="43.8927004" lon="11.0738944"><ele>57.33333333333333</ele><time>2026-04-15T15:15:09.064Z</time></trkpt><trkpt lat="43.892541" lon="11.073709"><ele>58.0</ele><time>2026-04-15T15:15:10.038Z</time></trkpt><trkpt lat="43.8923713" lon="11.073529"><ele>58.0</ele><time>2026-04-15T15:15:11.047Z</time></trkpt><trkpt lat="43.8921978" lon="11.0733506"><ele>58.0</ele><time>2026-04-15T15:15:12.065Z</time></trkpt><trkpt lat="43.8920329" lon="11.0731726"><ele>58.0</ele><time>2026-04-15T15:15:13.055Z</time></trkpt><trkpt lat="43.8918697" lon="11.0730068"><ele>58.0</ele><time>2026-04-15T15:15:14.045Z</time></trkpt><trkpt lat="43.8917067" lon="11.072846"><ele>58.0</ele><time>2026-04-15T15:15:15.038Z</time></trkpt><trkpt lat="43.8915509" lon="11.0726911"><ele>58.0</ele><time>2026-04-15T15:15:16.044Z</time></trkpt><trkpt lat="43.8914043" lon="11.0725404"><ele>57.666666666666664</ele><time>2026-04-15T15:15:17.05Z</time></trkpt><trkpt lat="43.8912603" lon="11.0723948"><ele>57.33333333333333</ele><time>2026-04-15T15:15:18.059Z</time></trkpt><trkpt lat="43.891118" lon="11.0722524"><ele>57.0</ele><time>2026-04-15T15:15:19.033Z</time></trkpt><trkpt lat="43.8909748" lon="11.0721086"><ele>56.66666666666667</ele><time>2026-04-15T15:15:20.051Z</time></trkpt><trkpt lat="43.8908315" lon="11.0719649"><ele>56.333333333333336</ele><time>2026-04-15T15:15:21.041Z</time></trkpt><trkpt lat="43.8906847" lon="11.0718131"><ele>56.0</ele><time>2026-04-15T15:15:22.044Z</time></trkpt><trkpt lat="43.8905353" lon="11.0716604"><ele>55.0</ele><time>2026-04-15T15:15:23.051Z</time></trkpt><trkpt lat="43.8903879" lon="11.0715096"><ele>54.0</ele><time>2026-04-15T15:15:24.071Z</time></trkpt><trkpt lat="43.8902399" lon="11.0713607"><ele>53.0</ele><time>2026-04-15T15:15:25.069Z</time></trkpt><trkpt lat="43.8900969" lon="11.0712123"><ele>54.0</ele><time>2026-04-15T15:15:26.045Z</time></trkpt><trkpt lat="43.8899603" lon="11.0710684"><ele>55.0</ele><time>2026-04-15T15:15:27.038Z</time></trkpt><trkpt lat="43.8898307" lon="11.0709348"><ele>56.0</ele><time>2026-04-15T15:15:28.041Z</time></trkpt><trkpt lat="43.889706" lon="11.0708027"><ele>55.0</ele><time>2026-04-15T15:15:29.039Z</time></trkpt><trkpt lat="43.8895825" lon="11.0706754"><ele>54.0</ele><time>2026-04-15T15:15:30.062Z</time></trkpt><trkpt lat="43.8894584" lon="11.0705486"><ele>53.0</ele><time>2026-04-15T15:15:31.062Z</time></trkpt><trkpt lat="43.8893398" lon="11.0704169"><ele>53.75</ele><time>2026-04-15T15:15:32.068Z</time></trkpt><trkpt lat="43.8892211" lon="11.0702941"><ele>54.5</ele><time>2026-04-15T15:15:33.043Z</time></trkpt><trkpt lat="43.8891024" lon="11.0701731"><ele>55.25</ele><time>2026-04-15T15:15:34.07Z</time></trkpt><trkpt lat="43.8889819" lon="11.0700569"><ele>56.0</ele><time>2026-04-15T15:15:35.055Z</time></trkpt><trkpt lat="43.8888663" lon="11.0699443"><ele>55.5</ele><time>2026-04-15T15:15:36.059Z</time></trkpt><trkpt lat="43.8887535" lon="11.0698312"><ele>55.0</ele><time>2026-04-15T15:15:37.034Z</time></trkpt><trkpt lat="43.8886369" lon="11.0697235"><ele>54.5</ele><time>2026-04-15T15:15:38.038Z</time></trkpt><trkpt lat="43.888525" lon="11.0696049"><ele>54.0</ele><time>2026-04-15T15:15:39.042Z</time></trkpt><trkpt lat="43.8884126" lon="11.0694865"><ele>54.0</ele><time>2026-04-15T15:15:40.04Z</time></trkpt><trkpt lat="43.888302" lon="11.069367"><ele>54.0</ele><time>2026-04-15T15:15:41.049Z</time></trkpt><trkpt lat="43.8881923" lon="11.0692568"><ele>54.0</ele><time>2026-04-15T15:15:42.048Z</time></trkpt><trkpt lat="43.8880776" lon="11.0691466"><ele>54.0</ele><time>2026-04-15T15:15:43.062Z</time></trkpt><trkpt lat="43.8879598" lon="11.0690353"><ele>53.75</ele><time>2026-04-15T15:15:44.068Z</time></trkpt><trkpt lat="43.8878374" lon="11.0689231"><ele>53.5</ele><time>2026-04-15T15:15:45.042Z</time></trkpt><trkpt lat="43.8877126" lon="11.0688118"><ele>53.25</ele><time>2026-04-15T15:15:46.028Z</time></trkpt><trkpt lat="43.8875891" lon="11.0686992"><ele>53.0</ele><time>2026-04-15T15:15:47.067Z</time></trkpt><trkpt lat="43.8874562" lon="11.0685923"><ele>53.0</ele><time>2026-04-15T15:15:48.07Z</time></trkpt><trkpt lat="43.8873198" lon="11.0684944"><ele>53.0</ele><time>2026-04-15T15:15:49.064Z</time></trkpt><trkpt lat="43.8871794" lon="11.0683953"><ele>53.0</ele><time>2026-04-15T15:15:50.058Z</time></trkpt><trkpt lat="43.8870328" lon="11.0683052"><ele>53.0</ele><time>2026-04-15T15:15:51.044Z</time></trkpt><trkpt lat="43.8868818" lon="11.0682042"><ele>53.0</ele><time>2026-04-15T15:15:52.07Z</time></trkpt><trkpt lat="43.8867325" lon="11.0680997"><ele>53.0</ele><time>2026-04-15T15:15:53.027Z</time></trkpt><trkpt lat="43.8865758" lon="11.0679926"><ele>52.66666666666667</ele><time>2026-04-15T15:15:54.024Z</time></trkpt><trkpt lat="43.8864212" lon="11.067878"><ele>52.33333333333333</ele><time>2026-04-15T15:15:55.06Z</time></trkpt><trkpt lat="43.8862702" lon="11.0677661"><ele>52.0</ele><time>2026-04-15T15:15:56.061Z</time></trkpt><trkpt lat="43.8861271" lon="11.0676675"><ele>52.0</ele><time>2026-04-15T15:15:57.057Z</time></trkpt><trkpt lat="43.8859899" lon="11.0675794"><ele>52.0</ele><time>2026-04-15T15:15:58.072Z</time></trkpt><trkpt lat="43.8858521" lon="11.067496"><ele>52.0</ele><time>2026-04-15T15:15:59.054Z</time></trkpt><trkpt lat="43.8857174" lon="11.0674139"><ele>52.0</ele><time>2026-04-15T15:16:00.043Z</time></trkpt><trkpt lat="43.8855814" lon="11.0673317"><ele>51.75</ele><time>2026-04-15T15:16:01.047Z</time></trkpt><trkpt lat="43.8854492" lon="11.0672554"><ele>51.5</ele><time>2026-04-15T15:16:02.036Z</time></trkpt><trkpt lat="43.8853212" lon="11.0671804"><ele>51.25</ele><time>2026-04-15T15:16:03.026Z</time></trkpt><trkpt lat="43.8851871" lon="11.0670981"><ele>51.0</ele><time>2026-04-15T15:16:04.057Z</time></trkpt><trkpt lat="43.885044" lon="11.0670125"><ele>51.0</ele><time>2026-04-15T15:16:05.039Z</time></trkpt><trkpt lat="43.8848958" lon="11.066923"><ele>51.0</ele><time>2026-04-15T15:16:06.033Z</time></trkpt><trkpt lat="43.8845965" lon="11.066744"><ele>51.0</ele><time>2026-04-15T15:16:08.055Z</time></trkpt><trkpt lat="43.8844475" lon="11.0666652"><ele>51.0</ele><time>2026-04-15T15:16:09.055Z</time></trkpt><trkpt lat="43.88429" lon="11.0665987"><ele>51.0</ele><time>2026-04-15T15:16:10.022Z</time></trkpt><trkpt lat="43.8841466" lon="11.0665128"><ele>50.66666666666667</ele><time>2026-04-15T15:16:11.045Z</time></trkpt><trkpt lat="43.883999" lon="11.0664318"><ele>50.333333333333336</ele><time>2026-04-15T15:16:12.045Z</time></trkpt><trkpt lat="43.883853" lon="11.0663427"><ele>50.0</ele><time>2026-04-15T15:16:13.024Z</time></trkpt><trkpt lat="43.8837167" lon="11.0662524"><ele>50.0</ele><time>2026-04-15T15:16:14.042Z</time></trkpt><trkpt lat="43.8835837" lon="11.0661653"><ele>50.0</ele><time>2026-04-15T15:16:15.014Z</time></trkpt><trkpt lat="43.8834625" lon="11.0660847"><ele>50.0</ele><time>2026-04-15T15:16:16.017Z</time></trkpt><trkpt lat="43.8833456" lon="11.066019"><ele>50.0</ele><time>2026-04-15T15:16:17.018Z</time></trkpt><trkpt lat="43.8832329" lon="11.0659562"><ele>50.25</ele><time>2026-04-15T15:16:18.02Z</time></trkpt><trkpt lat="43.8831182" lon="11.0658959"><ele>50.5</ele><time>2026-04-15T15:16:19.024Z</time></trkpt><trkpt lat="43.8830088" lon="11.0658357"><ele>50.75</ele><time>2026-04-15T15:16:20.052Z</time></trkpt><trkpt lat="43.8829055" lon="11.0657706"><ele>51.0</ele><time>2026-04-15T15:16:21.037Z</time></trkpt><trkpt lat="43.8828059" lon="11.0657099"><ele>51.0</ele><time>2026-04-15T15:16:22.043Z</time></trkpt><trkpt lat="43.8827199" lon="11.0656669"><ele>51.0</ele><time>2026-04-15T15:16:23.045Z</time></trkpt><trkpt lat="43.8826471" lon="11.0656298"><ele>51.0</ele><time>2026-04-15T15:16:24.052Z</time></trkpt><trkpt lat="43.8825884" lon="11.0655892"><ele>51.0</ele><time>2026-04-15T15:16:25.024Z</time></trkpt><trkpt lat="43.8824987" lon="11.0655258"><ele>51.0</ele><time>2026-04-15T15:16:27.061Z</time></trkpt><trkpt lat="43.8824287" lon="11.0654773"><ele>51.0</ele><time>2026-04-15T15:16:29.055Z</time></trkpt><trkpt lat="43.8823151" lon="11.0654043"><ele>50.833333333333336</ele><time>2026-04-15T15:16:31.027Z</time></trkpt><trkpt lat="43.8822096" lon="11.0653471"><ele>50.66666666666667</ele><time>2026-04-15T15:16:33.021Z</time></trkpt><trkpt lat="43.8821166" lon="11.0653085"><ele>50.5</ele><time>2026-04-15T15:16:35.056Z</time></trkpt><trkpt lat="43.8820539" lon="11.065266"><ele>50.333333333333336</ele><time>2026-04-15T15:16:36.057Z</time></trkpt><trkpt lat="43.8819913" lon="11.0652146"><ele>50.16666666666667</ele><time>2026-04-15T15:16:37.048Z</time></trkpt><trkpt lat="43.8819249" lon="11.0651802"><ele>50.0</ele><time>2026-04-15T15:16:38.051Z</time></trkpt><trkpt lat="43.8818601" lon="11.0651401"><ele>50.00000000000001</ele><time>2026-04-15T15:16:39.029Z</time></trkpt><trkpt lat="43.8817934" lon="11.0650976"><ele>50.0</ele><time>2026-04-15T15:16:40.039Z</time></trkpt><trkpt lat="43.8817338" lon="11.0650638"><ele>50.0</ele><time>2026-04-15T15:16:41.051Z</time></trkpt><trkpt lat="43.8816505" lon="11.0650031"><ele>50.0</ele><time>2026-04-15T15:16:43.05Z</time></trkpt><trkpt lat="43.8815709" lon="11.0649661"><ele>50.00000000000001</ele><time>2026-04-15T15:16:48.02Z</time></trkpt><trkpt lat="43.8815084" lon="11.0649194"><ele>50.0</ele><time>2026-04-15T15:16:50.056Z</time></trkpt><trkpt lat="43.8814452" lon="11.0648672"><ele>49.833333333333336</ele><time>2026-04-15T15:16:51.057Z</time></trkpt><trkpt lat="43.8813812" lon="11.0648165"><ele>49.66666666666667</ele><time>2026-04-15T15:16:52.029Z</time></trkpt><trkpt lat="43.881279" lon="11.0647597"><ele>49.5</ele><time>2026-04-15T15:16:54.057Z</time></trkpt><trkpt lat="43.8812172" lon="11.06473"><ele>49.33333333333333</ele><time>2026-04-15T15:16:55.015Z</time></trkpt><trkpt lat="43.8811411" lon="11.0646792"><ele>49.166666666666664</ele><time>2026-04-15T15:16:57.014Z</time></trkpt><trkpt lat="43.8810643" lon="11.0646395"><ele>49.0</ele><time>2026-04-15T15:17:00.072Z</time></trkpt><trkpt lat="43.8809914" lon="11.0646053"><ele>48.83333333333333</ele><time>2026-04-15T15:17:02.037Z</time></trkpt><trkpt lat="43.8809088" lon="11.0645691"><ele>48.666666666666664</ele><time>2026-04-15T15:17:03.043Z</time></trkpt><trkpt lat="43.8808208" lon="11.0645146"><ele>48.5</ele><time>2026-04-15T15:17:04.071Z</time></trkpt><trkpt lat="43.8807247" lon="11.0644632"><ele>48.33333333333333</ele><time>2026-04-15T15:17:05.024Z</time></trkpt><trkpt lat="43.8806413" lon="11.0644161"><ele>48.166666666666664</ele><time>2026-04-15T15:17:06.011Z</time></trkpt><trkpt lat="43.8805744" lon="11.0643869"><ele>48.0</ele><time>2026-04-15T15:17:07.047Z</time></trkpt><trkpt lat="43.8804968" lon="11.0643266"><ele>48.0</ele><time>2026-04-15T15:17:09.027Z</time></trkpt><trkpt lat="43.8804171" lon="11.064282"><ele>48.0</ele><time>2026-04-15T15:17:12.053Z</time></trkpt><trkpt lat="43.880353" lon="11.0642529"><ele>48.0</ele><time>2026-04-15T15:17:15.064Z</time></trkpt><trkpt lat="43.8802807" lon="11.0642085"><ele>48.0</ele><time>2026-04-15T15:17:19.022Z</time></trkpt><trkpt lat="43.8801917" lon="11.0641494"><ele>48.0</ele><time>2026-04-15T15:17:21.018Z</time></trkpt><trkpt lat="43.8801232" lon="11.0641056"><ele>48.0</ele><time>2026-04-15T15:17:22.033Z</time></trkpt><trkpt lat="43.8800336" lon="11.0640514"><ele>48.8</ele><time>2026-04-15T15:17:24.04Z</time></trkpt><trkpt lat="43.8799532" lon="11.0640173"><ele>49.599999999999994</ele><time>2026-04-15T15:17:26.037Z</time></trkpt><trkpt lat="43.8798695" lon="11.0639773"><ele>50.400000000000006</ele><time>2026-04-15T15:17:28.041Z</time></trkpt><trkpt lat="43.8797506" lon="11.0639061"><ele>51.2</ele><time>2026-04-15T15:17:30.029Z</time></trkpt><trkpt lat="43.8796741" lon="11.0638565"><ele>52.0</ele><time>2026-04-15T15:17:31.048Z</time></trkpt><trkpt lat="43.8796088" lon="11.0638207"><ele>51.99999999999999</ele><time>2026-04-15T15:17:32.043Z</time></trkpt><trkpt lat="43.8795475" lon="11.0638006"><ele>52.0</ele><time>2026-04-15T15:17:33.023Z</time></trkpt><trkpt lat="43.8794761" lon="11.0637628"><ele>52.0</ele><time>2026-04-15T15:17:34.031Z</time></trkpt><trkpt lat="43.879404" lon="11.0637311"><ele>52.0</ele><time>2026-04-15T15:17:35.03Z</time></trkpt><trkpt lat="43.8793359" lon="11.0636987"><ele>51.99999999999999</ele><time>2026-04-15T15:17:38.041Z</time></trkpt><trkpt lat="43.8792504" lon="11.0636458"><ele>52.0</ele><time>2026-04-15T15:17:41.043Z</time></trkpt><trkpt lat="43.8791683" lon="11.0635942"><ele>51.6</ele><time>2026-04-15T15:17:43.042Z</time></trkpt><trkpt lat="43.8790802" lon="11.0634435"><ele>51.2</ele><time>2026-04-15T15:17:45.045Z</time></trkpt><trkpt lat="43.8790352" lon="11.0633516"><ele>50.8</ele><time>2026-04-15T15:17:46.036Z</time></trkpt><trkpt lat="43.878974" lon="11.0632994"><ele>50.4</ele><time>2026-04-15T15:17:47.015Z</time></trkpt><trkpt lat="43.8789023" lon="11.0632735"><ele>50.0</ele><time>2026-04-15T15:17:49.026Z</time></trkpt><trkpt lat="43.8788153" lon="11.0632717"><ele>50.0</ele><time>2026-04-15T15:17:51.025Z</time></trkpt><trkpt lat="43.8786749" lon="11.063282"><ele>50.0</ele><time>2026-04-15T15:17:53.044Z</time></trkpt><trkpt lat="43.8785642" lon="11.0632582"><ele>50.0</ele><time>2026-04-15T15:17:54.04Z</time></trkpt><trkpt lat="43.8784366" lon="11.0632059"><ele>50.0</ele><time>2026-04-15T15:17:55.021Z</time></trkpt><trkpt lat="43.8783107" lon="11.0631459"><ele>50.0</ele><time>2026-04-15T15:17:56.026Z</time></trkpt><trkpt lat="43.8782021" lon="11.0630859"><ele>50.0</ele><time>2026-04-15T15:17:57.017Z</time></trkpt><trkpt lat="43.8780878" lon="11.063023"><ele>50.0</ele><time>2026-04-15T15:17:58.051Z</time></trkpt><trkpt lat="43.8779687" lon="11.0629502"><ele>50.0</ele><time>2026-04-15T15:17:59.04Z</time></trkpt><trkpt lat="43.877842" lon="11.0628777"><ele>50.0</ele><time>2026-04-15T15:18:00.057Z</time></trkpt><trkpt lat="43.8777095" lon="11.0627998"><ele>50.0</ele><time>2026-04-15T15:18:01.044Z</time></trkpt><trkpt lat="43.8775752" lon="11.0627135"><ele>50.0</ele><time>2026-04-15T15:18:02.01Z</time></trkpt><trkpt lat="43.8774354" lon="11.062626"><ele>50.0</ele><time>2026-04-15T15:18:03.035Z</time></trkpt><trkpt lat="43.8772919" lon="11.0625434"><ele>50.25</ele><time>2026-04-15T15:18:04.045Z</time></trkpt><trkpt lat="43.8771536" lon="11.0624636"><ele>50.5</ele><time>2026-04-15T15:18:05.038Z</time></trkpt><trkpt lat="43.8770209" lon="11.0623931"><ele>50.75</ele><time>2026-04-15T15:18:06.049Z</time></trkpt><trkpt lat="43.8768929" lon="11.0623264"><ele>51.0</ele><time>2026-04-15T15:18:07.025Z</time></trkpt><trkpt lat="43.8767645" lon="11.0622693"><ele>50.33333333333333</ele><time>2026-04-15T15:18:08.048Z</time></trkpt><trkpt lat="43.8766206" lon="11.0622102"><ele>49.666666666666664</ele><time>2026-04-15T15:18:09.013Z</time></trkpt><trkpt lat="43.876457" lon="11.0621578"><ele>49.0</ele><time>2026-04-15T15:18:10.056Z</time></trkpt><trkpt lat="43.8762881" lon="11.0621054"><ele>49.0</ele><time>2026-04-15T15:18:11.035Z</time></trkpt><trkpt lat="43.8761146" lon="11.0620462"><ele>49.0</ele><time>2026-04-15T15:18:12.047Z</time></trkpt><trkpt lat="43.8759413" lon="11.0619906"><ele>49.0</ele><time>2026-04-15T15:18:13.046Z</time></trkpt><trkpt lat="43.8757676" lon="11.0619445"><ele>49.0</ele><time>2026-04-15T15:18:14.017Z</time></trkpt><trkpt lat="43.8756065" lon="11.0619063"><ele>49.0</ele><time>2026-04-15T15:18:15.033Z</time></trkpt><trkpt lat="43.8754565" lon="11.0618654"><ele>49.0</ele><time>2026-04-15T15:18:16.051Z</time></trkpt><trkpt lat="43.8753007" lon="11.0618323"><ele>49.0</ele><time>2026-04-15T15:18:17.027Z</time></trkpt><trkpt lat="43.8751486" lon="11.0617945"><ele>49.0</ele><time>2026-04-15T15:18:18.046Z</time></trkpt><trkpt lat="43.8749993" lon="11.0617601"><ele>49.0</ele><time>2026-04-15T15:18:19.031Z</time></trkpt><trkpt lat="43.874856" lon="11.0617241"><ele>49.0</ele><time>2026-04-15T15:18:20.04Z</time></trkpt><trkpt lat="43.8747108" lon="11.0616938"><ele>49.0</ele><time>2026-04-15T15:18:21.036Z</time></trkpt><trkpt lat="43.8745773" lon="11.0616637"><ele>49.0</ele><time>2026-04-15T15:18:22.037Z</time></trkpt><trkpt lat="43.8744472" lon="11.0616345"><ele>49.0</ele><time>2026-04-15T15:18:23.041Z</time></trkpt><trkpt lat="43.8743176" lon="11.0616046"><ele>49.0</ele><time>2026-04-15T15:18:24.043Z</time></trkpt><trkpt lat="43.8741853" lon="11.0615752"><ele>49.0</ele><time>2026-04-15T15:18:25.007Z</time></trkpt><trkpt lat="43.8740594" lon="11.0615487"><ele>49.0</ele><time>2026-04-15T15:18:26.041Z</time></trkpt><trkpt lat="43.873941" lon="11.0615254"><ele>49.0</ele><time>2026-04-15T15:18:27.037Z</time></trkpt><trkpt lat="43.8738261" lon="11.0614972"><ele>49.0</ele><time>2026-04-15T15:18:28.033Z</time></trkpt><trkpt lat="43.8737122" lon="11.0614673"><ele>49.0</ele><time>2026-04-15T15:18:29.027Z</time></trkpt><trkpt lat="43.8736004" lon="11.0614413"><ele>49.0</ele><time>2026-04-15T15:18:30.023Z</time></trkpt><trkpt lat="43.8734946" lon="11.061411"><ele>49.0</ele><time>2026-04-15T15:18:31.009Z</time></trkpt><trkpt lat="43.8733879" lon="11.0613799"><ele>49.0</ele><time>2026-04-15T15:18:32.054Z</time></trkpt><trkpt lat="43.8732803" lon="11.0613559"><ele>48.6</ele><time>2026-04-15T15:18:33.04Z</time></trkpt><trkpt lat="43.8731908" lon="11.0613245"><ele>48.2</ele><time>2026-04-15T15:18:34.034Z</time></trkpt><trkpt lat="43.8731109" lon="11.0613006"><ele>47.800000000000004</ele><time>2026-04-15T15:18:35.031Z</time></trkpt><trkpt lat="43.8730416" lon="11.0612748"><ele>47.400000000000006</ele><time>2026-04-15T15:18:36.044Z</time></trkpt><trkpt lat="43.8729528" lon="11.0612534"><ele>47.0</ele><time>2026-04-15T15:18:38.057Z</time></trkpt><trkpt lat="43.8728307" lon="11.0612263"><ele>47.0</ele><time>2026-04-15T15:18:41.034Z</time></trkpt><trkpt lat="43.8727611" lon="11.061204"><ele>47.0</ele><time>2026-04-15T15:18:42.018Z</time></trkpt><trkpt lat="43.8726967" lon="11.0611787"><ele>47.0</ele><time>2026-04-15T15:18:43.036Z</time></trkpt><trkpt lat="43.8726449" lon="11.0611269"><ele>47.0</ele><time>2026-04-15T15:18:47.027Z</time></trkpt><trkpt lat="43.8725922" lon="11.0610403"><ele>47.0</ele><time>2026-04-15T15:18:54.018Z</time></trkpt><trkpt lat="43.872562" lon="11.0609624"><ele>47.0</ele><time>2026-04-15T15:18:55.043Z</time></trkpt><trkpt lat="43.8725207" lon="11.0608944"><ele>47.0</ele><time>2026-04-15T15:18:56.003Z</time></trkpt><trkpt lat="43.8724667" lon="11.060839"><ele>47.0</ele><time>2026-04-15T15:18:57.014Z</time></trkpt><trkpt lat="43.8723531" lon="11.0608085"><ele>47.0</ele><time>2026-04-15T15:18:59.022Z</time></trkpt><trkpt lat="43.8722889" lon="11.0608342"><ele>47.0</ele><time>2026-04-15T15:19:00.042Z</time></trkpt><trkpt lat="43.8722367" lon="11.0608925"><ele>47.0</ele><time>2026-04-15T15:19:01.006Z</time></trkpt><trkpt lat="43.8721747" lon="11.0609601"><ele>47.0</ele><time>2026-04-15T15:19:02.02Z</time></trkpt><trkpt lat="43.8720905" lon="11.0610033"><ele>47.0</ele><time>2026-04-15T15:19:03.024Z</time></trkpt><trkpt lat="43.8719618" lon="11.060988"><ele>47.0</ele><time>2026-04-15T15:19:04.006Z</time></trkpt><trkpt lat="43.871824" lon="11.0609576"><ele>47.0</ele><time>2026-04-15T15:19:05.008Z</time></trkpt><trkpt lat="43.8716782" lon="11.0609284"><ele>47.0</ele><time>2026-04-15T15:19:06.05Z</time></trkpt><trkpt lat="43.8715243" lon="11.0608844"><ele>47.0</ele><time>2026-04-15T15:19:07.038Z</time></trkpt><trkpt lat="43.8713639" lon="11.0608476"><ele>46.666666666666664</ele><time>2026-04-15T15:19:08.044Z</time></trkpt><trkpt lat="43.8712029" lon="11.060813"><ele>46.333333333333336</ele><time>2026-04-15T15:19:09.045Z</time></trkpt><trkpt lat="43.8710398" lon="11.0607787"><ele>46.0</ele><time>2026-04-15T15:19:10.002Z</time></trkpt><trkpt lat="43.8708801" lon="11.0607419"><ele>46.66666666666667</ele><time>2026-04-15T15:19:11.01Z</time></trkpt><trkpt lat="43.8707249" lon="11.0606955"><ele>47.333333333333336</ele><time>2026-04-15T15:19:12.016Z</time></trkpt><trkpt lat="43.8705689" lon="11.0606609"><ele>48.0</ele><time>2026-04-15T15:19:13.017Z</time></trkpt><trkpt lat="43.8704109" lon="11.0606225"><ele>48.0</ele><time>2026-04-15T15:19:14.009Z</time></trkpt><trkpt lat="43.87025" lon="11.0605811"><ele>48.0</ele><time>2026-04-15T15:19:15.006Z</time></trkpt><trkpt lat="43.870091" lon="11.0605412"><ele>48.0</ele><time>2026-04-15T15:19:16.024Z</time></trkpt><trkpt lat="43.8699317" lon="11.0605011"><ele>47.333333333333336</ele><time>2026-04-15T15:19:17.008Z</time></trkpt><trkpt lat="43.8697727" lon="11.060456"><ele>46.66666666666667</ele><time>2026-04-15T15:19:18.04Z</time></trkpt><trkpt lat="43.8696135" lon="11.0604091"><ele>46.0</ele><time>2026-04-15T15:19:19.031Z</time></trkpt><trkpt lat="43.8694475" lon="11.0603687"><ele>46.0</ele><time>2026-04-15T15:19:20.003Z</time></trkpt><trkpt lat="43.8692877" lon="11.0603235"><ele>46.0</ele><time>2026-04-15T15:19:20.998Z</time></trkpt><trkpt lat="43.8691213" lon="11.0602646"><ele>46.0</ele><time>2026-04-15T15:19:22.044Z</time></trkpt><trkpt lat="43.868945" lon="11.0602149"><ele>44.66666666666667</ele><time>2026-04-15T15:19:23.021Z</time></trkpt><trkpt lat="43.8687843" lon="11.0601751"><ele>43.333333333333336</ele><time>2026-04-15T15:19:24.036Z</time></trkpt><trkpt lat="43.868632" lon="11.0601377"><ele>42.0</ele><time>2026-04-15T15:19:25.003Z</time></trkpt><trkpt lat="43.8684846" lon="11.0600992"><ele>42.75</ele><time>2026-04-15T15:19:26.004Z</time></trkpt><trkpt lat="43.8683474" lon="11.0600653"><ele>43.5</ele><time>2026-04-15T15:19:27.014Z</time></trkpt><trkpt lat="43.8682266" lon="11.0600399"><ele>44.25</ele><time>2026-04-15T15:19:28.003Z</time></trkpt><trkpt lat="43.8681171" lon="11.0600134"><ele>45.0</ele><time>2026-04-15T15:19:29.012Z</time></trkpt><trkpt lat="43.8680267" lon="11.0599932"><ele>45.0</ele><time>2026-04-15T15:19:30.016Z</time></trkpt><trkpt lat="43.8679632" lon="11.0599676"><ele>45.0</ele><time>2026-04-15T15:19:31.032Z</time></trkpt><trkpt lat="43.8678668" lon="11.0599343"><ele>45.0</ele><time>2026-04-15T15:19:33.029Z</time></trkpt><trkpt lat="43.8677987" lon="11.0599182"><ele>45.0</ele><time>2026-04-15T15:19:39.012Z</time></trkpt><trkpt lat="43.867762" lon="11.0598461"><ele>45.0</ele><time>2026-04-15T15:19:40.031Z</time></trkpt><trkpt lat="43.8677169" lon="11.0597254"><ele>45.0</ele><time>2026-04-15T15:19:41.036Z</time></trkpt><trkpt lat="43.8676658" lon="11.0596398"><ele>44.833333333333336</ele><time>2026-04-15T15:19:42.024Z</time></trkpt><trkpt lat="43.8675534" lon="11.0596161"><ele>44.666666666666664</ele><time>2026-04-15T15:19:44.032Z</time></trkpt><trkpt lat="43.8674905" lon="11.0596362"><ele>44.5</ele><time>2026-04-15T15:19:45.037Z</time></trkpt><trkpt lat="43.8674182" lon="11.0596511"><ele>44.33333333333333</ele><time>2026-04-15T15:19:46.036Z</time></trkpt><trkpt lat="43.8673321" lon="11.0596688"><ele>44.166666666666664</ele><time>2026-04-15T15:19:47.006Z</time></trkpt><trkpt lat="43.867228" lon="11.0596782"><ele>44.0</ele><time>2026-04-15T15:19:48.042Z</time></trkpt><trkpt lat="43.8671131" lon="11.059675"><ele>44.0</ele><time>2026-04-15T15:19:49.032Z</time></trkpt><trkpt lat="43.8669756" lon="11.0596606"><ele>44.0</ele><time>2026-04-15T15:19:50.002Z</time></trkpt><trkpt lat="43.8668189" lon="11.0596334"><ele>44.0</ele><time>2026-04-15T15:19:50.996Z</time></trkpt><trkpt lat="43.866659" lon="11.0595891"><ele>43.666666666666664</ele><time>2026-04-15T15:19:52.004Z</time></trkpt><trkpt lat="43.8664924" lon="11.059524"><ele>43.333333333333336</ele><time>2026-04-15T15:19:52.996Z</time></trkpt><trkpt lat="43.8663259" lon="11.0594427"><ele>43.0</ele><time>2026-04-15T15:19:54.037Z</time></trkpt><trkpt lat="43.866144" lon="11.0593551"><ele>43.0</ele><time>2026-04-15T15:19:55.034Z</time></trkpt><trkpt lat="43.865954" lon="11.0592509"><ele>43.0</ele><time>2026-04-15T15:19:56.03Z</time></trkpt><trkpt lat="43.8657584" lon="11.0591438"><ele>43.0</ele><time>2026-04-15T15:19:57.035Z</time></trkpt><trkpt lat="43.8655556" lon="11.059017"><ele>43.0</ele><time>2026-04-15T15:19:58.033Z</time></trkpt><trkpt lat="43.8653396" lon="11.0588841"><ele>43.0</ele><time>2026-04-15T15:19:59.038Z</time></trkpt><trkpt lat="43.8651264" lon="11.0587477"><ele>44.0</ele><time>2026-04-15T15:20:00.029Z</time></trkpt><trkpt lat="43.8649167" lon="11.0586096"><ele>45.0</ele><time>2026-04-15T15:20:01.019Z</time></trkpt><trkpt lat="43.8647066" lon="11.0584615"><ele>45.0</ele><time>2026-04-15T15:20:02.024Z</time></trkpt><trkpt lat="43.8644923" lon="11.0583162"><ele>45.0</ele><time>2026-04-15T15:20:02.999Z</time></trkpt><trkpt lat="43.8642814" lon="11.05817"><ele>43.5</ele><time>2026-04-15T15:20:03.998Z</time></trkpt><trkpt lat="43.8640714" lon="11.058026"><ele>42.0</ele><time>2026-04-15T15:20:04.994Z</time></trkpt><trkpt lat="43.8638643" lon="11.0578782"><ele>42.0</ele><time>2026-04-15T15:20:06.042Z</time></trkpt><trkpt lat="43.8636662" lon="11.0577404"><ele>42.0</ele><time>2026-04-15T15:20:07.037Z</time></trkpt><trkpt lat="43.8634765" lon="11.0575968"><ele>42.0</ele><time>2026-04-15T15:20:08.03Z</time></trkpt><trkpt lat="43.8632934" lon="11.0574621"><ele>42.333333333333336</ele><time>2026-04-15T15:20:09.029Z</time></trkpt><trkpt lat="43.8631191" lon="11.0573335"><ele>42.66666666666667</ele><time>2026-04-15T15:20:10.011Z</time></trkpt><trkpt lat="43.8629457" lon="11.0572176"><ele>43.0</ele><time>2026-04-15T15:20:11.022Z</time></trkpt><trkpt lat="43.8627795" lon="11.057107"><ele>43.0</ele><time>2026-04-15T15:20:12.017Z</time></trkpt><trkpt lat="43.862627" lon="11.0570008"><ele>43.0</ele><time>2026-04-15T15:20:13.014Z</time></trkpt><trkpt lat="43.8624895" lon="11.0569049"><ele>43.0</ele><time>2026-04-15T15:20:14.011Z</time></trkpt><trkpt lat="43.862373" lon="11.0568187"><ele>43.16666666666667</ele><time>2026-04-15T15:20:14.999Z</time></trkpt><trkpt lat="43.8622861" lon="11.0567241"><ele>43.333333333333336</ele><time>2026-04-15T15:20:16.003Z</time></trkpt><trkpt lat="43.8622241" lon="11.0566089"><ele>43.5</ele><time>2026-04-15T15:20:17.007Z</time></trkpt><trkpt lat="43.8621817" lon="11.0564995"><ele>43.666666666666664</ele><time>2026-04-15T15:20:18.019Z</time></trkpt><trkpt lat="43.8621602" lon="11.0564065"><ele>43.83333333333333</ele><time>2026-04-15T15:20:19.031Z</time></trkpt><trkpt lat="43.8621438" lon="11.0563082"><ele>44.0</ele><time>2026-04-15T15:20:19.998Z</time></trkpt><trkpt lat="43.8621305" lon="11.056193"><ele>44.0</ele><time>2026-04-15T15:20:21.017Z</time></trkpt><trkpt lat="43.862108" lon="11.0560475"><ele>44.0</ele><time>2026-04-15T15:20:22.017Z</time></trkpt><trkpt lat="43.8620642" lon="11.0558969"><ele>44.0</ele><time>2026-04-15T15:20:23.008Z</time></trkpt><trkpt lat="43.8619779" lon="11.0557652"><ele>44.0</ele><time>2026-04-15T15:20:24.023Z</time></trkpt><trkpt lat="43.8618691" lon="11.0557001"><ele>43.75</ele><time>2026-04-15T15:20:25.013Z</time></trkpt><trkpt lat="43.8617347" lon="11.0556938"><ele>43.5</ele><time>2026-04-15T15:20:26.027Z</time></trkpt><trkpt lat="43.861617" lon="11.0557419"><ele>43.25</ele><time>2026-04-15T15:20:27.002Z</time></trkpt><trkpt lat="43.8615065" lon="11.0558152"><ele>43.0</ele><time>2026-04-15T15:20:28.017Z</time></trkpt><trkpt lat="43.8613933" lon="11.0558882"><ele>43.0</ele><time>2026-04-15T15:20:29.017Z</time></trkpt><trkpt lat="43.8612664" lon="11.0559148"><ele>43.0</ele><time>2026-04-15T15:20:30.003Z</time></trkpt><trkpt lat="43.8611301" lon="11.0559085"><ele>43.0</ele><time>2026-04-15T15:20:31.014Z</time></trkpt><trkpt lat="43.8609802" lon="11.0558505"><ele>43.0</ele><time>2026-04-15T15:20:31.994Z</time></trkpt><trkpt lat="43.8608224" lon="11.0557673"><ele>42.333333333333336</ele><time>2026-04-15T15:20:33.013Z</time></trkpt><trkpt lat="43.860664" lon="11.0556616"><ele>41.666666666666664</ele><time>2026-04-15T15:20:34.031Z</time></trkpt><trkpt lat="43.8605007" lon="11.0555435"><ele>41.0</ele><time>2026-04-15T15:20:35.026Z</time></trkpt><trkpt lat="43.8603398" lon="11.0554278"><ele>41.0</ele><time>2026-04-15T15:20:36.034Z</time></trkpt><trkpt lat="43.8601737" lon="11.0553145"><ele>41.0</ele><time>2026-04-15T15:20:37.021Z</time></trkpt><trkpt lat="43.860004" lon="11.0551962"><ele>41.0</ele><time>2026-04-15T15:20:38.037Z</time></trkpt><trkpt lat="43.8598359" lon="11.0550795"><ele>41.33333333333333</ele><time>2026-04-15T15:20:39.031Z</time></trkpt><trkpt lat="43.859669" lon="11.0549604"><ele>41.666666666666664</ele><time>2026-04-15T15:20:40.02Z</time></trkpt><trkpt lat="43.859502" lon="11.054837"><ele>42.0</ele><time>2026-04-15T15:20:41.021Z</time></trkpt><trkpt lat="43.8593329" lon="11.0547105"><ele>43.666666666666664</ele><time>2026-04-15T15:20:42.028Z</time></trkpt><trkpt lat="43.8591648" lon="11.0545878"><ele>45.33333333333333</ele><time>2026-04-15T15:20:42.999Z</time></trkpt><trkpt lat="43.8589975" lon="11.0544607"><ele>47.0</ele><time>2026-04-15T15:20:44.016Z</time></trkpt><trkpt lat="43.8588292" lon="11.0543297"><ele>47.0</ele><time>2026-04-15T15:20:45.027Z</time></trkpt><trkpt lat="43.8586613" lon="11.0541998"><ele>47.0</ele><time>2026-04-15T15:20:46.039Z</time></trkpt><trkpt lat="43.8584932" lon="11.0540686"><ele>47.0</ele><time>2026-04-15T15:20:47.028Z</time></trkpt><trkpt lat="43.8583254" lon="11.0539347"><ele>44.666666666666664</ele><time>2026-04-15T15:20:48.036Z</time></trkpt><trkpt lat="43.8581624" lon="11.0537975"><ele>42.333333333333336</ele><time>2026-04-15T15:20:49.022Z</time></trkpt><trkpt lat="43.8579973" lon="11.0536609"><ele>40.0</ele><time>2026-04-15T15:20:50.039Z</time></trkpt><trkpt lat="43.8578336" lon="11.0535286"><ele>40.0</ele><time>2026-04-15T15:20:51.023Z</time></trkpt><trkpt lat="43.8576726" lon="11.0533937"><ele>40.0</ele><time>2026-04-15T15:20:52.017Z</time></trkpt><trkpt lat="43.8575106" lon="11.0532688"><ele>40.0</ele><time>2026-04-15T15:20:52.997Z</time></trkpt><trkpt lat="43.8573486" lon="11.0531437"><ele>39.66666666666667</ele><time>2026-04-15T15:20:54.002Z</time></trkpt><trkpt lat="43.8571999" lon="11.0530236"><ele>39.333333333333336</ele><time>2026-04-15T15:20:55.015Z</time></trkpt><trkpt lat="43.8570691" lon="11.0529104"><ele>39.0</ele><time>2026-04-15T15:20:56.017Z</time></trkpt><trkpt lat="43.8569478" lon="11.0528066"><ele>39.0</ele><time>2026-04-15T15:20:56.997Z</time></trkpt><trkpt lat="43.8568449" lon="11.0526984"><ele>39.0</ele><time>2026-04-15T15:20:58.033Z</time></trkpt><trkpt lat="43.8567652" lon="11.0525711"><ele>39.0</ele><time>2026-04-15T15:20:59.033Z</time></trkpt><trkpt lat="43.8566973" lon="11.0524362"><ele>39.0</ele><time>2026-04-15T15:21:00.004Z</time></trkpt><trkpt lat="43.8566393" lon="11.052298"><ele>40.25</ele><time>2026-04-15T15:21:01.006Z</time></trkpt><trkpt lat="43.8565646" lon="11.0522068"><ele>41.5</ele><time>2026-04-15T15:21:02.013Z</time></trkpt><trkpt lat="43.8564612" lon="11.0521729"><ele>42.75</ele><time>2026-04-15T15:21:03.002Z</time></trkpt><trkpt lat="43.8563421" lon="11.0521761"><ele>44.0</ele><time>2026-04-15T15:21:04.002Z</time></trkpt><trkpt lat="43.8562008" lon="11.0521635"><ele>44.0</ele><time>2026-04-15T15:21:05.024Z</time></trkpt><trkpt lat="43.8560542" lon="11.0520894"><ele>44.0</ele><time>2026-04-15T15:21:06.004Z</time></trkpt><trkpt lat="43.8559118" lon="11.0519649"><ele>44.0</ele><time>2026-04-15T15:21:07.028Z</time></trkpt><trkpt lat="43.8557618" lon="11.0518467"><ele>43.33333333333333</ele><time>2026-04-15T15:21:08.028Z</time></trkpt><trkpt lat="43.8556031" lon="11.0517107"><ele>42.666666666666664</ele><time>2026-04-15T15:21:09.024Z</time></trkpt><trkpt lat="43.8554373" lon="11.0515749"><ele>42.0</ele><time>2026-04-15T15:21:10.025Z</time></trkpt><trkpt lat="43.855266" lon="11.0514417"><ele>41.333333333333336</ele><time>2026-04-15T15:21:11.015Z</time></trkpt><trkpt lat="43.8550969" lon="11.0512968"><ele>40.66666666666667</ele><time>2026-04-15T15:21:12.028Z</time></trkpt><trkpt lat="43.8549223" lon="11.0511557"><ele>40.0</ele><time>2026-04-15T15:21:13.023Z</time></trkpt><trkpt lat="43.8547448" lon="11.0510057"><ele>40.0</ele><time>2026-04-15T15:21:13.992Z</time></trkpt><trkpt lat="43.85456" lon="11.0508578"><ele>40.0</ele><time>2026-04-15T15:21:15.028Z</time></trkpt><trkpt lat="43.8543797" lon="11.0507083"><ele>40.0</ele><time>2026-04-15T15:21:16.032Z</time></trkpt><trkpt lat="43.854206" lon="11.0505588"><ele>40.66666666666667</ele><time>2026-04-15T15:21:17.022Z</time></trkpt><trkpt lat="43.8540446" lon="11.05041"><ele>41.333333333333336</ele><time>2026-04-15T15:21:17.987Z</time></trkpt><trkpt lat="43.853891" lon="11.0502643"><ele>42.0</ele><time>2026-04-15T15:21:19.008Z</time></trkpt><trkpt lat="43.8537402" lon="11.0501318"><ele>42.0</ele><time>2026-04-15T15:21:20.002Z</time></trkpt><trkpt lat="43.8535938" lon="11.0500136"><ele>42.0</ele><time>2026-04-15T15:21:21.033Z</time></trkpt><trkpt lat="43.8534608" lon="11.0499067"><ele>42.0</ele><time>2026-04-15T15:21:22.03Z</time></trkpt><trkpt lat="43.8533405" lon="11.0498107"><ele>41.5</ele><time>2026-04-15T15:21:23.013Z</time></trkpt><trkpt lat="43.8532397" lon="11.0497199"><ele>41.0</ele><time>2026-04-15T15:21:24.014Z</time></trkpt><trkpt lat="43.8531565" lon="11.0496183"><ele>40.5</ele><time>2026-04-15T15:21:25.005Z</time></trkpt><trkpt lat="43.8530904" lon="11.0494964"><ele>40.0</ele><time>2026-04-15T15:21:26.034Z</time></trkpt><trkpt lat="43.8530378" lon="11.0493625"><ele>40.0</ele><time>2026-04-15T15:21:27.003Z</time></trkpt><trkpt lat="43.8529593" lon="11.0492494"><ele>40.0</ele><time>2026-04-15T15:21:27.998Z</time></trkpt><trkpt lat="43.8528592" lon="11.0492061"><ele>40.0</ele><time>2026-04-15T15:21:29.013Z</time></trkpt><trkpt lat="43.8527376" lon="11.0491975"><ele>40.0</ele><time>2026-04-15T15:21:30.025Z</time></trkpt><trkpt lat="43.8526205" lon="11.0491915"><ele>40.0</ele><time>2026-04-15T15:21:30.99Z</time></trkpt><trkpt lat="43.8525031" lon="11.0491311"><ele>40.0</ele><time>2026-04-15T15:21:32.011Z</time></trkpt><trkpt lat="43.8523821" lon="11.0490316"><ele>40.0</ele><time>2026-04-15T15:21:33.024Z</time></trkpt><trkpt lat="43.8522499" lon="11.0489248"><ele>40.0</ele><time>2026-04-15T15:21:33.987Z</time></trkpt><trkpt lat="43.8521077" lon="11.0488135"><ele>39.66666666666667</ele><time>2026-04-15T15:21:35.018Z</time></trkpt><trkpt lat="43.8519378" lon="11.0486621"><ele>39.333333333333336</ele><time>2026-04-15T15:21:36.01Z</time></trkpt><trkpt lat="43.8517728" lon="11.0485084"><ele>39.0</ele><time>2026-04-15T15:21:37.014Z</time></trkpt><trkpt lat="43.8516289" lon="11.0483671"><ele>39.0</ele><time>2026-04-15T15:21:37.989Z</time></trkpt><trkpt lat="43.8514907" lon="11.0482432"><ele>39.0</ele><time>2026-04-15T15:21:39.018Z</time></trkpt><trkpt lat="43.8513513" lon="11.0481271"><ele>39.0</ele><time>2026-04-15T15:21:40.037Z</time></trkpt><trkpt lat="43.8512159" lon="11.0480017"><ele>39.0</ele><time>2026-04-15T15:21:41.015Z</time></trkpt><trkpt lat="43.8510774" lon="11.0478826"><ele>39.0</ele><time>2026-04-15T15:21:42.026Z</time></trkpt><trkpt lat="43.8509438" lon="11.047765"><ele>39.0</ele><time>2026-04-15T15:21:43.009Z</time></trkpt><trkpt lat="43.8508116" lon="11.0476491"><ele>38.666666666666664</ele><time>2026-04-15T15:21:44.021Z</time></trkpt><trkpt lat="43.8506773" lon="11.047535"><ele>38.33333333333333</ele><time>2026-04-15T15:21:45.015Z</time></trkpt><trkpt lat="43.850546" lon="11.0474179"><ele>38.0</ele><time>2026-04-15T15:21:46.019Z</time></trkpt><trkpt lat="43.8504121" lon="11.0472978"><ele>38.0</ele><time>2026-04-15T15:21:46.987Z</time></trkpt><trkpt lat="43.8502719" lon="11.0471734"><ele>38.0</ele><time>2026-04-15T15:21:48.033Z</time></trkpt><trkpt lat="43.8501341" lon="11.0470484"><ele>38.0</ele><time>2026-04-15T15:21:49.027Z</time></trkpt><trkpt lat="43.8500003" lon="11.0469231"><ele>37.666666666666664</ele><time>2026-04-15T15:21:50.02Z</time></trkpt><trkpt lat="43.8498597" lon="11.0467948"><ele>37.333333333333336</ele><time>2026-04-15T15:21:51.021Z</time></trkpt><trkpt lat="43.8496964" lon="11.0466497"><ele>37.0</ele><time>2026-04-15T15:21:52.021Z</time></trkpt><trkpt lat="43.8495234" lon="11.0464948"><ele>37.0</ele><time>2026-04-15T15:21:53.016Z</time></trkpt><trkpt lat="43.8493577" lon="11.0463341"><ele>37.0</ele><time>2026-04-15T15:21:54.021Z</time></trkpt><trkpt lat="43.8492017" lon="11.0461861"><ele>37.0</ele><time>2026-04-15T15:21:55.014Z</time></trkpt><trkpt lat="43.8490495" lon="11.0460473"><ele>36.66666666666667</ele><time>2026-04-15T15:21:55.997Z</time></trkpt><trkpt lat="43.8489014" lon="11.0459072"><ele>36.333333333333336</ele><time>2026-04-15T15:21:56.997Z</time></trkpt><trkpt lat="43.848749" lon="11.0457607"><ele>36.0</ele><time>2026-04-15T15:21:58.016Z</time></trkpt><trkpt lat="43.8485977" lon="11.0456137"><ele>36.0</ele><time>2026-04-15T15:21:58.988Z</time></trkpt><trkpt lat="43.8484502" lon="11.0454731"><ele>36.0</ele><time>2026-04-15T15:22:00.022Z</time></trkpt><trkpt lat="43.8483063" lon="11.0453371"><ele>36.0</ele><time>2026-04-15T15:22:01.003Z</time></trkpt><trkpt lat="43.8481555" lon="11.0451935"><ele>36.0</ele><time>2026-04-15T15:22:02.025Z</time></trkpt><trkpt lat="43.8480007" lon="11.0450367"><ele>36.0</ele><time>2026-04-15T15:22:03.015Z</time></trkpt><trkpt lat="43.8478452" lon="11.0448737"><ele>36.0</ele><time>2026-04-15T15:22:04.026Z</time></trkpt><trkpt lat="43.8476956" lon="11.0447148"><ele>36.333333333333336</ele><time>2026-04-15T15:22:05.014Z</time></trkpt><trkpt lat="43.8475456" lon="11.0445673"><ele>36.66666666666667</ele><time>2026-04-15T15:22:06.028Z</time></trkpt><trkpt lat="43.8473939" lon="11.0444143"><ele>37.0</ele><time>2026-04-15T15:22:07.018Z</time></trkpt><trkpt lat="43.8472396" lon="11.0442631"><ele>36.333333333333336</ele><time>2026-04-15T15:22:08.026Z</time></trkpt><trkpt lat="43.847093" lon="11.0441153"><ele>35.666666666666664</ele><time>2026-04-15T15:22:09.017Z</time></trkpt><trkpt lat="43.8469481" lon="11.0439721"><ele>35.0</ele><time>2026-04-15T15:22:10.018Z</time></trkpt><trkpt lat="43.8468062" lon="11.0438311"><ele>35.33333333333333</ele><time>2026-04-15T15:22:10.99Z</time></trkpt><trkpt lat="43.8466697" lon="11.0436986"><ele>35.666666666666664</ele><time>2026-04-15T15:22:12.013Z</time></trkpt><trkpt lat="43.8465332" lon="11.0435671"><ele>36.0</ele><time>2026-04-15T15:22:13.001Z</time></trkpt><trkpt lat="43.8464003" lon="11.0434427"><ele>36.0</ele><time>2026-04-15T15:22:14.011Z</time></trkpt><trkpt lat="43.8462701" lon="11.0433226"><ele>36.0</ele><time>2026-04-15T15:22:15.015Z</time></trkpt><trkpt lat="43.8461434" lon="11.043203"><ele>36.0</ele><time>2026-04-15T15:22:16.021Z</time></trkpt><trkpt lat="43.8460165" lon="11.0430812"><ele>35.666666666666664</ele><time>2026-04-15T15:22:17.008Z</time></trkpt><trkpt lat="43.8458901" lon="11.0429646"><ele>35.33333333333333</ele><time>2026-04-15T15:22:18.017Z</time></trkpt><trkpt lat="43.845762" lon="11.042851"><ele>35.0</ele><time>2026-04-15T15:22:19.007Z</time></trkpt><trkpt lat="43.8456313" lon="11.0427316"><ele>35.0</ele><time>2026-04-15T15:22:20.02Z</time></trkpt><trkpt lat="43.8455012" lon="11.0426185"><ele>35.0</ele><time>2026-04-15T15:22:21.016Z</time></trkpt><trkpt lat="43.8453684" lon="11.0425037"><ele>35.0</ele><time>2026-04-15T15:22:21.999Z</time></trkpt><trkpt lat="43.8452347" lon="11.0423917"><ele>35.25</ele><time>2026-04-15T15:22:22.997Z</time></trkpt><trkpt lat="43.8451118" lon="11.0422812"><ele>35.5</ele><time>2026-04-15T15:22:24.016Z</time></trkpt><trkpt lat="43.8450015" lon="11.0421756"><ele>35.75</ele><time>2026-04-15T15:22:25.013Z</time></trkpt><trkpt lat="43.8448974" lon="11.0420757"><ele>36.0</ele><time>2026-04-15T15:22:26.009Z</time></trkpt><trkpt lat="43.8447857" lon="11.0419886"><ele>36.0</ele><time>2026-04-15T15:22:27.009Z</time></trkpt><trkpt lat="43.8446849" lon="11.0419038"><ele>36.0</ele><time>2026-04-15T15:22:28.009Z</time></trkpt><trkpt lat="43.8445868" lon="11.0418137"><ele>36.0</ele><time>2026-04-15T15:22:28.977Z</time></trkpt><trkpt lat="43.8444856" lon="11.041735"><ele>36.0</ele><time>2026-04-15T15:22:29.988Z</time></trkpt><trkpt lat="43.8443816" lon="11.041659"><ele>36.0</ele><time>2026-04-15T15:22:31.026Z</time></trkpt><trkpt lat="43.8442821" lon="11.0415841"><ele>36.0</ele><time>2026-04-15T15:22:32.011Z</time></trkpt><trkpt lat="43.8441879" lon="11.0415135"><ele>36.0</ele><time>2026-04-15T15:22:33.001Z</time></trkpt><trkpt lat="43.8440962" lon="11.0414421"><ele>36.0</ele><time>2026-04-15T15:22:33.995Z</time></trkpt><trkpt lat="43.8440131" lon="11.0413805"><ele>36.0</ele><time>2026-04-15T15:22:35.004Z</time></trkpt><trkpt lat="43.8439159" lon="11.0413056"><ele>36.0</ele><time>2026-04-15T15:22:37.021Z</time></trkpt><trkpt lat="43.8438716" lon="11.0411786"><ele>36.0</ele><time>2026-04-15T15:22:38.989Z</time></trkpt><trkpt lat="43.8438445" lon="11.0410622"><ele>36.0</ele><time>2026-04-15T15:22:39.983Z</time></trkpt><trkpt lat="43.8437769" lon="11.0409621"><ele>36.0</ele><time>2026-04-15T15:22:40.992Z</time></trkpt><trkpt lat="43.8436832" lon="11.040916"><ele>36.0</ele><time>2026-04-15T15:22:41.987Z</time></trkpt><trkpt lat="43.8435813" lon="11.0409131"><ele>36.0</ele><time>2026-04-15T15:22:42.996Z</time></trkpt><trkpt lat="43.8434801" lon="11.0409102"><ele>36.0</ele><time>2026-04-15T15:22:44Z</time></trkpt><trkpt lat="43.8433861" lon="11.0408611"><ele>36.0</ele><time>2026-04-15T15:22:44.995Z</time></trkpt><trkpt lat="43.8432889" lon="11.0407857"><ele>36.0</ele><time>2026-04-15T15:22:45.999Z</time></trkpt><trkpt lat="43.843193" lon="11.0406991"><ele>36.0</ele><time>2026-04-15T15:22:46.989Z</time></trkpt><trkpt lat="43.843081" lon="11.0406061"><ele>36.25</ele><time>2026-04-15T15:22:48.02Z</time></trkpt><trkpt lat="43.8429537" lon="11.0405103"><ele>36.5</ele><time>2026-04-15T15:22:48.989Z</time></trkpt><trkpt lat="43.8428301" lon="11.0404219"><ele>36.75</ele><time>2026-04-15T15:22:50.018Z</time></trkpt><trkpt lat="43.8426917" lon="11.04032"><ele>37.0</ele><time>2026-04-15T15:22:51.01Z</time></trkpt><trkpt lat="43.8425215" lon="11.0402005"><ele>36.0</ele><time>2026-04-15T15:22:52.018Z</time></trkpt><trkpt lat="43.8423472" lon="11.040052"><ele>35.0</ele><time>2026-04-15T15:22:53.018Z</time></trkpt><trkpt lat="43.8421857" lon="11.0399166"><ele>34.0</ele><time>2026-04-15T15:22:54.013Z</time></trkpt><trkpt lat="43.842033" lon="11.039786"><ele>34.0</ele><time>2026-04-15T15:22:55.015Z</time></trkpt><trkpt lat="43.8418882" lon="11.0396708"><ele>34.0</ele><time>2026-04-15T15:22:55.996Z</time></trkpt><trkpt lat="43.8417512" lon="11.0395592"><ele>34.0</ele><time>2026-04-15T15:22:57.013Z</time></trkpt><trkpt lat="43.8416072" lon="11.039451"><ele>34.333333333333336</ele><time>2026-04-15T15:22:57.996Z</time></trkpt><trkpt lat="43.8414627" lon="11.0393378"><ele>34.666666666666664</ele><time>2026-04-15T15:22:58.991Z</time></trkpt><trkpt lat="43.8413222" lon="11.0392259"><ele>35.0</ele><time>2026-04-15T15:23:00.026Z</time></trkpt><trkpt lat="43.8411833" lon="11.0391159"><ele>35.0</ele><time>2026-04-15T15:23:00.975Z</time></trkpt><trkpt lat="43.8410415" lon="11.0390063"><ele>35.0</ele><time>2026-04-15T15:23:02Z</time></trkpt><trkpt lat="43.840904" lon="11.0388998"><ele>35.0</ele><time>2026-04-15T15:23:03.011Z</time></trkpt><trkpt lat="43.8407681" lon="11.0387949"><ele>35.0</ele><time>2026-04-15T15:23:04.009Z</time></trkpt><trkpt lat="43.8406312" lon="11.0386891"><ele>35.0</ele><time>2026-04-15T15:23:04.998Z</time></trkpt><trkpt lat="43.8404927" lon="11.0385842"><ele>35.0</ele><time>2026-04-15T15:23:06.007Z</time></trkpt><trkpt lat="43.8403536" lon="11.0384741"><ele>35.0</ele><time>2026-04-15T15:23:06.993Z</time></trkpt><trkpt lat="43.8402117" lon="11.0383656"><ele>35.0</ele><time>2026-04-15T15:23:08.008Z</time></trkpt><trkpt lat="43.8400663" lon="11.0382584"><ele>35.0</ele><time>2026-04-15T15:23:08.98Z</time></trkpt><trkpt lat="43.8399235" lon="11.0381518"><ele>34.666666666666664</ele><time>2026-04-15T15:23:09.98Z</time></trkpt><trkpt lat="43.8397835" lon="11.0380405"><ele>34.333333333333336</ele><time>2026-04-15T15:23:11.009Z</time></trkpt><trkpt lat="43.8396477" lon="11.0379378"><ele>34.0</ele><time>2026-04-15T15:23:11.984Z</time></trkpt><trkpt lat="43.8395147" lon="11.037832"><ele>34.0</ele><time>2026-04-15T15:23:12.997Z</time></trkpt><trkpt lat="43.8393828" lon="11.0377312"><ele>34.0</ele><time>2026-04-15T15:23:14.005Z</time></trkpt><trkpt lat="43.8392468" lon="11.0376281"><ele>34.0</ele><time>2026-04-15T15:23:15.012Z</time></trkpt><trkpt lat="43.8391141" lon="11.0375224"><ele>35.0</ele><time>2026-04-15T15:23:15.997Z</time></trkpt><trkpt lat="43.8389813" lon="11.0374185"><ele>36.0</ele><time>2026-04-15T15:23:16.998Z</time></trkpt><trkpt lat="43.8388511" lon="11.0373187"><ele>37.0</ele><time>2026-04-15T15:23:17.988Z</time></trkpt><trkpt lat="43.838719" lon="11.0372178"><ele>37.0</ele><time>2026-04-15T15:23:19.004Z</time></trkpt><trkpt lat="43.8385856" lon="11.0371141"><ele>37.0</ele><time>2026-04-15T15:23:19.995Z</time></trkpt><trkpt lat="43.8384505" lon="11.0370123"><ele>37.0</ele><time>2026-04-15T15:23:21.009Z</time></trkpt><trkpt lat="43.8383182" lon="11.0369126"><ele>37.0</ele><time>2026-04-15T15:23:21.972Z</time></trkpt><trkpt lat="43.838191" lon="11.0368122"><ele>37.0</ele><time>2026-04-15T15:23:23.005Z</time></trkpt><trkpt lat="43.8380697" lon="11.0367116"><ele>37.0</ele><time>2026-04-15T15:23:24.007Z</time></trkpt><trkpt lat="43.8379491" lon="11.0366127"><ele>37.0</ele><time>2026-04-15T15:23:25.005Z</time></trkpt><trkpt lat="43.8378251" lon="11.0365156"><ele>37.0</ele><time>2026-04-15T15:23:26.002Z</time></trkpt><trkpt lat="43.8376997" lon="11.0364195"><ele>37.0</ele><time>2026-04-15T15:23:27.009Z</time></trkpt><trkpt lat="43.8375686" lon="11.0363169"><ele>37.0</ele><time>2026-04-15T15:23:28.014Z</time></trkpt><trkpt lat="43.8374373" lon="11.0362125"><ele>37.0</ele><time>2026-04-15T15:23:28.974Z</time></trkpt><trkpt lat="43.8373051" lon="11.0361093"><ele>36.66666666666667</ele><time>2026-04-15T15:23:29.967Z</time></trkpt><trkpt lat="43.83717" lon="11.036002"><ele>36.333333333333336</ele><time>2026-04-15T15:23:31.008Z</time></trkpt><trkpt lat="43.8370353" lon="11.0358884"><ele>36.0</ele><time>2026-04-15T15:23:32.015Z</time></trkpt><trkpt lat="43.8368946" lon="11.0357819"><ele>35.75</ele><time>2026-04-15T15:23:33.007Z</time></trkpt><trkpt lat="43.8367609" lon="11.0356757"><ele>35.5</ele><time>2026-04-15T15:23:33.999Z</time></trkpt><trkpt lat="43.8366324" lon="11.0355643"><ele>35.25</ele><time>2026-04-15T15:23:34.998Z</time></trkpt><trkpt lat="43.8365096" lon="11.0354713"><ele>35.0</ele><time>2026-04-15T15:23:36.011Z</time></trkpt><trkpt lat="43.8363968" lon="11.0353892"><ele>35.0</ele><time>2026-04-15T15:23:37Z</time></trkpt><trkpt lat="43.8362867" lon="11.0353006"><ele>35.0</ele><time>2026-04-15T15:23:37.998Z</time></trkpt><trkpt lat="43.836177" lon="11.0352241"><ele>35.0</ele><time>2026-04-15T15:23:39.004Z</time></trkpt><trkpt lat="43.8360702" lon="11.0351427"><ele>35.0</ele><time>2026-04-15T15:23:39.998Z</time></trkpt><trkpt lat="43.8359588" lon="11.0350645"><ele>35.5</ele><time>2026-04-15T15:23:40.993Z</time></trkpt><trkpt lat="43.8358553" lon="11.0349865"><ele>36.0</ele><time>2026-04-15T15:23:41.969Z</time></trkpt><trkpt lat="43.8357534" lon="11.0349083"><ele>36.5</ele><time>2026-04-15T15:23:42.971Z</time></trkpt><trkpt lat="43.8356556" lon="11.034831"><ele>37.0</ele><time>2026-04-15T15:23:43.997Z</time></trkpt><trkpt lat="43.835558" lon="11.0347648"><ele>37.0</ele><time>2026-04-15T15:23:44.99Z</time></trkpt><trkpt lat="43.8354628" lon="11.034692"><ele>37.0</ele><time>2026-04-15T15:23:45.981Z</time></trkpt><trkpt lat="43.8353725" lon="11.0346211"><ele>37.0</ele><time>2026-04-15T15:23:46.982Z</time></trkpt><trkpt lat="43.8352878" lon="11.0345502"><ele>37.0</ele><time>2026-04-15T15:23:47.994Z</time></trkpt><trkpt lat="43.8352009" lon="11.0344798"><ele>37.0</ele><time>2026-04-15T15:23:49.011Z</time></trkpt><trkpt lat="43.8351144" lon="11.0344194"><ele>37.16666666666667</ele><time>2026-04-15T15:23:49.987Z</time></trkpt><trkpt lat="43.8350346" lon="11.0343646"><ele>37.333333333333336</ele><time>2026-04-15T15:23:50.997Z</time></trkpt><trkpt lat="43.8349727" lon="11.0342946"><ele>37.5</ele><time>2026-04-15T15:23:51.978Z</time></trkpt><trkpt lat="43.8349387" lon="11.0342066"><ele>37.666666666666664</ele><time>2026-04-15T15:23:52.977Z</time></trkpt><trkpt lat="43.8349079" lon="11.0341032"><ele>37.83333333333333</ele><time>2026-04-15T15:23:53.996Z</time></trkpt><trkpt lat="43.8348472" lon="11.0340182"><ele>38.0</ele><time>2026-04-15T15:23:54.979Z</time></trkpt><trkpt lat="43.8347489" lon="11.0339877"><ele>38.0</ele><time>2026-04-15T15:23:56.001Z</time></trkpt><trkpt lat="43.8346303" lon="11.0339834"><ele>38.0</ele><time>2026-04-15T15:23:56.991Z</time></trkpt><trkpt lat="43.8345045" lon="11.0339553"><ele>38.0</ele><time>2026-04-15T15:23:57.99Z</time></trkpt><trkpt lat="43.8343729" lon="11.0338631"><ele>38.0</ele><time>2026-04-15T15:23:58.997Z</time></trkpt><trkpt lat="43.8342576" lon="11.0337397"><ele>38.25</ele><time>2026-04-15T15:24:00.026Z</time></trkpt><trkpt lat="43.8341512" lon="11.0336197"><ele>38.5</ele><time>2026-04-15T15:24:00.975Z</time></trkpt><trkpt lat="43.8340522" lon="11.0335135"><ele>38.75</ele><time>2026-04-15T15:24:01.989Z</time></trkpt><trkpt lat="43.8339603" lon="11.0334125"><ele>39.0</ele><time>2026-04-15T15:24:03.006Z</time></trkpt><trkpt lat="43.833876" lon="11.0333165"><ele>39.0</ele><time>2026-04-15T15:24:03.972Z</time></trkpt><trkpt lat="43.8337903" lon="11.0332145"><ele>39.0</ele><time>2026-04-15T15:24:05.007Z</time></trkpt><trkpt lat="43.8336878" lon="11.033118"><ele>39.0</ele><time>2026-04-15T15:24:06.011Z</time></trkpt><trkpt lat="43.8335708" lon="11.0329982"><ele>39.0</ele><time>2026-04-15T15:24:07.019Z</time></trkpt><trkpt lat="43.8334619" lon="11.0328651"><ele>38.75</ele><time>2026-04-15T15:24:07.978Z</time></trkpt><trkpt lat="43.8333623" lon="11.0327489"><ele>38.5</ele><time>2026-04-15T15:24:08.969Z</time></trkpt><trkpt lat="43.8332492" lon="11.0326288"><ele>38.25</ele><time>2026-04-15T15:24:10.001Z</time></trkpt><trkpt lat="43.8331374" lon="11.0325017"><ele>38.0</ele><time>2026-04-15T15:24:10.978Z</time></trkpt><trkpt lat="43.833046" lon="11.0323955"><ele>38.0</ele><time>2026-04-15T15:24:11.984Z</time></trkpt><trkpt lat="43.8329812" lon="11.0323076"><ele>38.0</ele><time>2026-04-15T15:24:13Z</time></trkpt><trkpt lat="43.8329367" lon="11.0322005"><ele>38.0</ele><time>2026-04-15T15:24:13.987Z</time></trkpt><trkpt lat="43.8328982" lon="11.0320628"><ele>38.0</ele><time>2026-04-15T15:24:14.977Z</time></trkpt><trkpt lat="43.8328541" lon="11.0319885"><ele>38.0</ele><time>2026-04-15T15:24:16.009Z</time></trkpt><trkpt lat="43.8327893" lon="11.0319738"><ele>38.0</ele><time>2026-04-15T15:24:16.977Z</time></trkpt><trkpt lat="43.8327081" lon="11.0319975"><ele>38.0</ele><time>2026-04-15T15:24:17.988Z</time></trkpt><trkpt lat="43.832645" lon="11.0320621"><ele>38.0</ele><time>2026-04-15T15:24:19.005Z</time></trkpt><trkpt lat="43.8326131" lon="11.0321584"><ele>38.0</ele><time>2026-04-15T15:24:19.988Z</time></trkpt><trkpt lat="43.8325948" lon="11.0322428"><ele>38.0</ele><time>2026-04-15T15:24:20.996Z</time></trkpt><trkpt lat="43.8325487" lon="11.032305"><ele>38.0</ele><time>2026-04-15T15:24:21.989Z</time></trkpt><trkpt lat="43.8324895" lon="11.032358"><ele>38.0</ele><time>2026-04-15T15:24:22.989Z</time></trkpt><trkpt lat="43.8324309" lon="11.0324157"><ele>38.0</ele><time>2026-04-15T15:24:23.992Z</time></trkpt><trkpt lat="43.8323695" lon="11.0324825"><ele>38.0</ele><time>2026-04-15T15:24:24.97Z</time></trkpt><trkpt lat="43.8323086" lon="11.0325573"><ele>38.0</ele><time>2026-04-15T15:24:25.96Z</time></trkpt><trkpt lat="43.8322486" lon="11.0326416"><ele>38.0</ele><time>2026-04-15T15:24:27.003Z</time></trkpt><trkpt lat="43.8321842" lon="11.0327341"><ele>38.0</ele><time>2026-04-15T15:24:28.003Z</time></trkpt><trkpt lat="43.8321197" lon="11.0328318"><ele>38.0</ele><time>2026-04-15T15:24:28.997Z</time></trkpt><trkpt lat="43.8320563" lon="11.0329309"><ele>38.0</ele><time>2026-04-15T15:24:30.011Z</time></trkpt><trkpt lat="43.8319881" lon="11.0330262"><ele>38.0</ele><time>2026-04-15T15:24:31.007Z</time></trkpt><trkpt lat="43.8319204" lon="11.033119"><ele>38.0</ele><time>2026-04-15T15:24:31.993Z</time></trkpt><trkpt lat="43.8318534" lon="11.0332199"><ele>38.0</ele><time>2026-04-15T15:24:33.005Z</time></trkpt><trkpt lat="43.8317846" lon="11.0333196"><ele>38.0</ele><time>2026-04-15T15:24:33.989Z</time></trkpt><trkpt lat="43.8317177" lon="11.0334197"><ele>38.0</ele><time>2026-04-15T15:24:34.963Z</time></trkpt><trkpt lat="43.8316482" lon="11.0335254"><ele>38.0</ele><time>2026-04-15T15:24:35.994Z</time></trkpt><trkpt lat="43.8315806" lon="11.0336341"><ele>38.0</ele><time>2026-04-15T15:24:36.999Z</time></trkpt><trkpt lat="43.8315119" lon="11.0337513"><ele>38.0</ele><time>2026-04-15T15:24:38.002Z</time></trkpt><trkpt lat="43.8314422" lon="11.0338694"><ele>38.0</ele><time>2026-04-15T15:24:38.995Z</time></trkpt><trkpt lat="43.8313662" lon="11.0339857"><ele>38.0</ele><time>2026-04-15T15:24:39.994Z</time></trkpt><trkpt lat="43.8312971" lon="11.0341003"><ele>38.0</ele><time>2026-04-15T15:24:40.999Z</time></trkpt><trkpt lat="43.8312315" lon="11.0342191"><ele>38.0</ele><time>2026-04-15T15:24:42.001Z</time></trkpt><trkpt lat="43.8311632" lon="11.034328"><ele>38.0</ele><time>2026-04-15T15:24:42.995Z</time></trkpt><trkpt lat="43.8310962" lon="11.0344402"><ele>38.0</ele><time>2026-04-15T15:24:43.987Z</time></trkpt><trkpt lat="43.83103" lon="11.0345506"><ele>38.0</ele><time>2026-04-15T15:24:44.991Z</time></trkpt><trkpt lat="43.8309644" lon="11.0346509"><ele>38.0</ele><time>2026-04-15T15:24:46Z</time></trkpt><trkpt lat="43.8309039" lon="11.0347508"><ele>38.0</ele><time>2026-04-15T15:24:46.996Z</time></trkpt><trkpt lat="43.8308422" lon="11.0348542"><ele>38.0</ele><time>2026-04-15T15:24:47.967Z</time></trkpt><trkpt lat="43.8307784" lon="11.03496"><ele>38.0</ele><time>2026-04-15T15:24:48.989Z</time></trkpt><trkpt lat="43.8307123" lon="11.0350584"><ele>38.0</ele><time>2026-04-15T15:24:49.994Z</time></trkpt><trkpt lat="43.8306494" lon="11.035164"><ele>38.0</ele><time>2026-04-15T15:24:51.008Z</time></trkpt><trkpt lat="43.8305844" lon="11.0352701"><ele>38.0</ele><time>2026-04-15T15:24:52.012Z</time></trkpt><trkpt lat="43.8305182" lon="11.0353719"><ele>38.0</ele><time>2026-04-15T15:24:53.006Z</time></trkpt><trkpt lat="43.8304492" lon="11.0354759"><ele>38.0</ele><time>2026-04-15T15:24:53.986Z</time></trkpt><trkpt lat="43.8303783" lon="11.0355799"><ele>38.0</ele><time>2026-04-15T15:24:55.016Z</time></trkpt><trkpt lat="43.830317" lon="11.0356753"><ele>38.0</ele><time>2026-04-15T15:24:55.994Z</time></trkpt><trkpt lat="43.8302529" lon="11.0357743"><ele>38.0</ele><time>2026-04-15T15:24:56.991Z</time></trkpt><trkpt lat="43.8301908" lon="11.0358722"><ele>38.0</ele><time>2026-04-15T15:24:57.987Z</time></trkpt><trkpt lat="43.8301299" lon="11.0359712"><ele>38.0</ele><time>2026-04-15T15:24:58.984Z</time></trkpt><trkpt lat="43.8300777" lon="11.0360586"><ele>38.199999999999996</ele><time>2026-04-15T15:24:59.991Z</time></trkpt><trkpt lat="43.8300257" lon="11.0361406"><ele>38.4</ele><time>2026-04-15T15:25:00.968Z</time></trkpt><trkpt lat="43.8299763" lon="11.0362213"><ele>38.599999999999994</ele><time>2026-04-15T15:25:01.986Z</time></trkpt><trkpt lat="43.8299253" lon="11.0363045"><ele>38.8</ele><time>2026-04-15T15:25:03.091Z</time></trkpt><trkpt lat="43.8297951" lon="11.0365184"><ele>39.0</ele><time>2026-04-15T15:25:04.979Z</time></trkpt><trkpt lat="43.8297231" lon="11.0366402"><ele>39.0</ele><time>2026-04-15T15:25:05.994Z</time></trkpt><trkpt lat="43.8296442" lon="11.0367678"><ele>39.0</ele><time>2026-04-15T15:25:06.969Z</time></trkpt><trkpt lat="43.8295581" lon="11.0369"><ele>39.0</ele><time>2026-04-15T15:25:07.968Z</time></trkpt><trkpt lat="43.8294792" lon="11.0370299"><ele>39.0</ele><time>2026-04-15T15:25:08.964Z</time></trkpt><trkpt lat="43.8293999" lon="11.0371524"><ele>39.0</ele><time>2026-04-15T15:25:10.076Z</time></trkpt><trkpt lat="43.8293239" lon="11.0372484"><ele>39.0</ele><time>2026-04-15T15:25:10.989Z</time></trkpt><trkpt lat="43.82926" lon="11.0373494"><ele>39.0</ele><time>2026-04-15T15:25:11.994Z</time></trkpt><trkpt lat="43.8292012" lon="11.0374558"><ele>39.0</ele><time>2026-04-15T15:25:12.994Z</time></trkpt><trkpt lat="43.8291444" lon="11.0375407"><ele>39.0</ele><time>2026-04-15T15:25:13.968Z</time></trkpt><trkpt lat="43.8290911" lon="11.0376115"><ele>38.8</ele><time>2026-04-15T15:25:15.101Z</time></trkpt><trkpt lat="43.8290029" lon="11.0376979"><ele>38.599999999999994</ele><time>2026-04-15T15:25:17.094Z</time></trkpt><trkpt lat="43.8289366" lon="11.0377157"><ele>38.4</ele><time>2026-04-15T15:25:18.128Z</time></trkpt><trkpt lat="43.8287893" lon="11.0377272"><ele>38.199999999999996</ele><time>2026-04-15T15:25:19.967Z</time></trkpt><trkpt lat="43.8287215" lon="11.0377671"><ele>38.0</ele><time>2026-04-15T15:25:20.963Z</time></trkpt><trkpt lat="43.8286783" lon="11.0378383"><ele>38.0</ele><time>2026-04-15T15:25:22.064Z</time></trkpt><trkpt lat="43.8286626" lon="11.0379333"><ele>38.0</ele><time>2026-04-15T15:25:23.089Z</time></trkpt><trkpt lat="43.828668" lon="11.0380334"><ele>38.0</ele><time>2026-04-15T15:25:24.082Z</time></trkpt><trkpt lat="43.828673" lon="11.0381299"><ele>38.0</ele><time>2026-04-15T15:25:25.092Z</time></trkpt><trkpt lat="43.8286636" lon="11.0382317"><ele>38.0</ele><time>2026-04-15T15:25:25.996Z</time></trkpt><trkpt lat="43.8286315" lon="11.0383264"><ele>38.0</ele><time>2026-04-15T15:25:26.986Z</time></trkpt><trkpt lat="43.8285897" lon="11.0384031"><ele>38.0</ele><time>2026-04-15T15:25:28.099Z</time></trkpt><trkpt lat="43.8285374" lon="11.0384794"><ele>38.0</ele><time>2026-04-15T15:25:29.067Z</time></trkpt><trkpt lat="43.828482" lon="11.0385598"><ele>38.0</ele><time>2026-04-15T15:25:30.071Z</time></trkpt><trkpt lat="43.8284247" lon="11.038653"><ele>38.0</ele><time>2026-04-15T15:25:31.075Z</time></trkpt><trkpt lat="43.8283673" lon="11.0387399"><ele>38.0</ele><time>2026-04-15T15:25:32.102Z</time></trkpt><trkpt lat="43.8282704" lon="11.038906"><ele>38.0</ele><time>2026-04-15T15:25:34.078Z</time></trkpt><trkpt lat="43.828223" lon="11.0389861"><ele>38.0</ele><time>2026-04-15T15:25:35.104Z</time></trkpt><trkpt lat="43.8281742" lon="11.0390645"><ele>38.0</ele><time>2026-04-15T15:25:36.089Z</time></trkpt><trkpt lat="43.8281283" lon="11.0391433"><ele>38.0</ele><time>2026-04-15T15:25:37.075Z</time></trkpt><trkpt lat="43.8280799" lon="11.0392207"><ele>38.0</ele><time>2026-04-15T15:25:38.076Z</time></trkpt><trkpt lat="43.828033" lon="11.0392958"><ele>38.0</ele><time>2026-04-15T15:25:39.087Z</time></trkpt><trkpt lat="43.827936" lon="11.0394653"><ele>38.0</ele><time>2026-04-15T15:25:41.078Z</time></trkpt><trkpt lat="43.827875" lon="11.0395641"><ele>38.199999999999996</ele><time>2026-04-15T15:25:42.079Z</time></trkpt><trkpt lat="43.8278118" lon="11.0396644"><ele>38.4</ele><time>2026-04-15T15:25:43.077Z</time></trkpt><trkpt lat="43.8277506" lon="11.0397592"><ele>38.599999999999994</ele><time>2026-04-15T15:25:44.09Z</time></trkpt><trkpt lat="43.8276827" lon="11.0398535"><ele>38.8</ele><time>2026-04-15T15:25:45.082Z</time></trkpt><trkpt lat="43.8276197" lon="11.0399539"><ele>39.0</ele><time>2026-04-15T15:25:46.104Z</time></trkpt><trkpt lat="43.8275519" lon="11.0400548"><ele>39.0</ele><time>2026-04-15T15:25:47.096Z</time></trkpt><trkpt lat="43.827477" lon="11.0401453"><ele>39.0</ele><time>2026-04-15T15:25:48.081Z</time></trkpt><trkpt lat="43.8274065" lon="11.0402415"><ele>39.0</ele><time>2026-04-15T15:25:49.068Z</time></trkpt><trkpt lat="43.8273379" lon="11.0403528"><ele>39.0</ele><time>2026-04-15T15:25:50.083Z</time></trkpt><trkpt lat="43.8272549" lon="11.0404588"><ele>39.0</ele><time>2026-04-15T15:25:51.087Z</time></trkpt><trkpt lat="43.827172" lon="11.0405589"><ele>39.0</ele><time>2026-04-15T15:25:52.088Z</time></trkpt><trkpt lat="43.8270972" lon="11.0406719"><ele>39.0</ele><time>2026-04-15T15:25:53.081Z</time></trkpt><trkpt lat="43.8270312" lon="11.0407857"><ele>39.0</ele><time>2026-04-15T15:25:54.095Z</time></trkpt><trkpt lat="43.8269607" lon="11.0408989"><ele>39.0</ele><time>2026-04-15T15:25:55.085Z</time></trkpt><trkpt lat="43.826879" lon="11.0410133"><ele>39.0</ele><time>2026-04-15T15:25:56.088Z</time></trkpt><trkpt lat="43.8268048" lon="11.0411258"><ele>38.8</ele><time>2026-04-15T15:25:57.087Z</time></trkpt><trkpt lat="43.8267361" lon="11.041245"><ele>38.599999999999994</ele><time>2026-04-15T15:25:58.073Z</time></trkpt><trkpt lat="43.8266626" lon="11.0413464"><ele>38.4</ele><time>2026-04-15T15:25:59.092Z</time></trkpt><trkpt lat="43.8265912" lon="11.041448"><ele>38.199999999999996</ele><time>2026-04-15T15:26:00.1Z</time></trkpt><trkpt lat="43.826529" lon="11.0415597"><ele>38.0</ele><time>2026-04-15T15:26:01.083Z</time></trkpt><trkpt lat="43.8264621" lon="11.0416669"><ele>37.8</ele><time>2026-04-15T15:26:02.079Z</time></trkpt><trkpt lat="43.8263907" lon="11.0417626"><ele>37.599999999999994</ele><time>2026-04-15T15:26:03.095Z</time></trkpt><trkpt lat="43.8263245" lon="11.0418651"><ele>37.400000000000006</ele><time>2026-04-15T15:26:04.065Z</time></trkpt><trkpt lat="43.8262597" lon="11.0419707"><ele>37.2</ele><time>2026-04-15T15:26:05.089Z</time></trkpt><trkpt lat="43.8261881" lon="11.04207"><ele>37.0</ele><time>2026-04-15T15:26:06.068Z</time></trkpt><trkpt lat="43.8261177" lon="11.042167"><ele>37.0</ele><time>2026-04-15T15:26:07.059Z</time></trkpt><trkpt lat="43.8260538" lon="11.0422667"><ele>37.0</ele><time>2026-04-15T15:26:08.079Z</time></trkpt><trkpt lat="43.8259849" lon="11.0423622"><ele>37.0</ele><time>2026-04-15T15:26:09.054Z</time></trkpt><trkpt lat="43.825915" lon="11.0424513"><ele>37.0</ele><time>2026-04-15T15:26:10.067Z</time></trkpt><trkpt lat="43.8258539" lon="11.0425482"><ele>37.0</ele><time>2026-04-15T15:26:11.075Z</time></trkpt><trkpt lat="43.825797" lon="11.0426292"><ele>37.333333333333336</ele><time>2026-04-15T15:26:12.087Z</time></trkpt><trkpt lat="43.8257408" lon="11.0426986"><ele>37.66666666666667</ele><time>2026-04-15T15:26:13.091Z</time></trkpt><trkpt lat="43.8256868" lon="11.0427759"><ele>38.0</ele><time>2026-04-15T15:26:14.074Z</time></trkpt><trkpt lat="43.8256457" lon="11.0428488"><ele>38.333333333333336</ele><time>2026-04-15T15:26:15.085Z</time></trkpt><trkpt lat="43.8255815" lon="11.0429615"><ele>38.666666666666664</ele><time>2026-04-15T15:26:17.079Z</time></trkpt><trkpt lat="43.8255282" lon="11.0430488"><ele>39.0</ele><time>2026-04-15T15:26:19.071Z</time></trkpt><trkpt lat="43.8254761" lon="11.0431271"><ele>39.0</ele><time>2026-04-15T15:26:21.053Z</time></trkpt><trkpt lat="43.8254118" lon="11.0431921"><ele>39.0</ele><time>2026-04-15T15:26:23.055Z</time></trkpt><trkpt lat="43.825341" lon="11.043209"><ele>39.0</ele><time>2026-04-15T15:26:25.071Z</time></trkpt><trkpt lat="43.8252411" lon="11.0431619"><ele>39.0</ele><time>2026-04-15T15:26:27.082Z</time></trkpt><trkpt lat="43.8251656" lon="11.0431385"><ele>39.0</ele><time>2026-04-15T15:26:28.046Z</time></trkpt><trkpt lat="43.8250877" lon="11.0431843"><ele>39.0</ele><time>2026-04-15T15:26:29.059Z</time></trkpt><trkpt lat="43.8250298" lon="11.0432713"><ele>39.0</ele><time>2026-04-15T15:26:30.047Z</time></trkpt><trkpt lat="43.8250038" lon="11.043392"><ele>39.0</ele><time>2026-04-15T15:26:31.096Z</time></trkpt><trkpt lat="43.8249943" lon="11.0435486"><ele>39.0</ele><time>2026-04-15T15:26:32.086Z</time></trkpt><trkpt lat="43.8249641" lon="11.0437083"><ele>39.0</ele><time>2026-04-15T15:26:33.072Z</time></trkpt><trkpt lat="43.8248988" lon="11.0438861"><ele>39.0</ele><time>2026-04-15T15:26:34.08Z</time></trkpt><trkpt lat="43.8248114" lon="11.0440694"><ele>39.0</ele><time>2026-04-15T15:26:35.075Z</time></trkpt><trkpt lat="43.8247163" lon="11.0442433"><ele>39.0</ele><time>2026-04-15T15:26:36.092Z</time></trkpt><trkpt lat="43.8246162" lon="11.0443806"><ele>38.8</ele><time>2026-04-15T15:26:37.08Z</time></trkpt><trkpt lat="43.8245358" lon="11.0445101"><ele>38.599999999999994</ele><time>2026-04-15T15:26:38.073Z</time></trkpt><trkpt lat="43.8244678" lon="11.0446197"><ele>38.4</ele><time>2026-04-15T15:26:39.08Z</time></trkpt><trkpt lat="43.8244019" lon="11.0447186"><ele>38.199999999999996</ele><time>2026-04-15T15:26:40.073Z</time></trkpt><trkpt lat="43.8243409" lon="11.0448072"><ele>38.0</ele><time>2026-04-15T15:26:41.093Z</time></trkpt><trkpt lat="43.8242799" lon="11.044905"><ele>37.8</ele><time>2026-04-15T15:26:42.08Z</time></trkpt><trkpt lat="43.8242082" lon="11.0450149"><ele>37.599999999999994</ele><time>2026-04-15T15:26:43.079Z</time></trkpt><trkpt lat="43.8241348" lon="11.0451299"><ele>37.400000000000006</ele><time>2026-04-15T15:26:44.063Z</time></trkpt><trkpt lat="43.8240628" lon="11.0452436"><ele>37.2</ele><time>2026-04-15T15:26:45.081Z</time></trkpt><trkpt lat="43.8239909" lon="11.0453527"><ele>37.0</ele><time>2026-04-15T15:26:46.07Z</time></trkpt><trkpt lat="43.8239203" lon="11.045464"><ele>37.0</ele><time>2026-04-15T15:26:47.058Z</time></trkpt><trkpt lat="43.8238531" lon="11.0455695"><ele>37.0</ele><time>2026-04-15T15:26:48.074Z</time></trkpt><trkpt lat="43.8237904" lon="11.0456731"><ele>37.0</ele><time>2026-04-15T15:26:49.084Z</time></trkpt><trkpt lat="43.8237267" lon="11.0457756"><ele>37.0</ele><time>2026-04-15T15:26:50.068Z</time></trkpt><trkpt lat="43.8236615" lon="11.0458771"><ele>37.0</ele><time>2026-04-15T15:26:51.081Z</time></trkpt><trkpt lat="43.8235979" lon="11.0459727"><ele>37.2</ele><time>2026-04-15T15:26:52.05Z</time></trkpt><trkpt lat="43.8235317" lon="11.0460685"><ele>37.400000000000006</ele><time>2026-04-15T15:26:53.089Z</time></trkpt><trkpt lat="43.8234683" lon="11.0461631"><ele>37.599999999999994</ele><time>2026-04-15T15:26:54.084Z</time></trkpt><trkpt lat="43.8234043" lon="11.0462622"><ele>37.8</ele><time>2026-04-15T15:26:55.072Z</time></trkpt><trkpt lat="43.8233409" lon="11.0463599"><ele>38.0</ele><time>2026-04-15T15:26:56.09Z</time></trkpt><trkpt lat="43.8232761" lon="11.0464569"><ele>38.199999999999996</ele><time>2026-04-15T15:26:57.083Z</time></trkpt><trkpt lat="43.8232121" lon="11.046552"><ele>38.4</ele><time>2026-04-15T15:26:58.073Z</time></trkpt><trkpt lat="43.8231506" lon="11.0466461"><ele>38.599999999999994</ele><time>2026-04-15T15:26:59.088Z</time></trkpt><trkpt lat="43.823089" lon="11.0467414"><ele>38.8</ele><time>2026-04-15T15:27:00.098Z</time></trkpt><trkpt lat="43.8230262" lon="11.0468387"><ele>39.0</ele><time>2026-04-15T15:27:01.057Z</time></trkpt><trkpt lat="43.8229611" lon="11.0469347"><ele>39.6</ele><time>2026-04-15T15:27:02.062Z</time></trkpt><trkpt lat="43.8228946" lon="11.0470377"><ele>40.2</ele><time>2026-04-15T15:27:03.084Z</time></trkpt><trkpt lat="43.8228244" lon="11.0471503"><ele>40.800000000000004</ele><time>2026-04-15T15:27:04.061Z</time></trkpt><trkpt lat="43.8227493" lon="11.0472611"><ele>41.4</ele><time>2026-04-15T15:27:05.068Z</time></trkpt><trkpt lat="43.8226695" lon="11.0473731"><ele>42.0</ele><time>2026-04-15T15:27:06.079Z</time></trkpt><trkpt lat="43.8225814" lon="11.0475034"><ele>42.0</ele><time>2026-04-15T15:27:07.079Z</time></trkpt><trkpt lat="43.8224884" lon="11.0476505"><ele>42.0</ele><time>2026-04-15T15:27:08.076Z</time></trkpt><trkpt lat="43.8224004" lon="11.0477949"><ele>42.0</ele><time>2026-04-15T15:27:09.083Z</time></trkpt><trkpt lat="43.8223147" lon="11.0479246"><ele>42.0</ele><time>2026-04-15T15:27:10.05Z</time></trkpt><trkpt lat="43.8222319" lon="11.0480545"><ele>42.0</ele><time>2026-04-15T15:27:11.053Z</time></trkpt><trkpt lat="43.8221476" lon="11.0481904"><ele>42.0</ele><time>2026-04-15T15:27:12.072Z</time></trkpt><trkpt lat="43.8220615" lon="11.0483371"><ele>42.0</ele><time>2026-04-15T15:27:13.084Z</time></trkpt><trkpt lat="43.8219764" lon="11.0484839"><ele>42.0</ele><time>2026-04-15T15:27:14.075Z</time></trkpt><trkpt lat="43.821899" lon="11.0486273"><ele>40.75</ele><time>2026-04-15T15:27:15.076Z</time></trkpt><trkpt lat="43.8218192" lon="11.0487588"><ele>39.5</ele><time>2026-04-15T15:27:16.075Z</time></trkpt><trkpt lat="43.8217343" lon="11.0488844"><ele>38.25</ele><time>2026-04-15T15:27:17.081Z</time></trkpt><trkpt lat="43.8216449" lon="11.0490053"><ele>37.0</ele><time>2026-04-15T15:27:18.054Z</time></trkpt><trkpt lat="43.8215509" lon="11.0491128"><ele>38.0</ele><time>2026-04-15T15:27:19.072Z</time></trkpt><trkpt lat="43.821447" lon="11.0492165"><ele>39.0</ele><time>2026-04-15T15:27:20.081Z</time></trkpt><trkpt lat="43.8213329" lon="11.0493097"><ele>40.0</ele><time>2026-04-15T15:27:21.049Z</time></trkpt><trkpt lat="43.821212" lon="11.0493866"><ele>41.0</ele><time>2026-04-15T15:27:22.079Z</time></trkpt><trkpt lat="43.8210902" lon="11.0494671"><ele>43.25</ele><time>2026-04-15T15:27:23.069Z</time></trkpt><trkpt lat="43.8209663" lon="11.0495409"><ele>45.5</ele><time>2026-04-15T15:27:24.087Z</time></trkpt><trkpt lat="43.8208479" lon="11.0496164"><ele>47.75</ele><time>2026-04-15T15:27:25.077Z</time></trkpt><trkpt lat="43.8207369" lon="11.0496894"><ele>50.0</ele><time>2026-04-15T15:27:26.044Z</time></trkpt><trkpt lat="43.8206239" lon="11.049754"><ele>50.0</ele><time>2026-04-15T15:27:27.053Z</time></trkpt><trkpt lat="43.8205208" lon="11.0498336"><ele>50.0</ele><time>2026-04-15T15:27:28.065Z</time></trkpt><trkpt lat="43.8204279" lon="11.0499435"><ele>50.0</ele><time>2026-04-15T15:27:29.082Z</time></trkpt><trkpt lat="43.8203432" lon="11.0500579"><ele>50.0</ele><time>2026-04-15T15:27:30.055Z</time></trkpt><trkpt lat="43.8202618" lon="11.0501684"><ele>46.75</ele><time>2026-04-15T15:27:31.06Z</time></trkpt><trkpt lat="43.8201807" lon="11.0502789"><ele>43.5</ele><time>2026-04-15T15:27:32.048Z</time></trkpt><trkpt lat="43.8200979" lon="11.0503933"><ele>40.25</ele><time>2026-04-15T15:27:33.042Z</time></trkpt><trkpt lat="43.8200195" lon="11.050513"><ele>37.0</ele><time>2026-04-15T15:27:34.05Z</time></trkpt><trkpt lat="43.8199322" lon="11.0506255"><ele>37.0</ele><time>2026-04-15T15:27:35.055Z</time></trkpt><trkpt lat="43.8198469" lon="11.0507316"><ele>37.0</ele><time>2026-04-15T15:27:36.042Z</time></trkpt><trkpt lat="43.8197648" lon="11.0508419"><ele>37.0</ele><time>2026-04-15T15:27:37.042Z</time></trkpt><trkpt lat="43.8196908" lon="11.0509359"><ele>37.0</ele><time>2026-04-15T15:27:38.044Z</time></trkpt><trkpt lat="43.8196291" lon="11.0510118"><ele>37.0</ele><time>2026-04-15T15:27:39.077Z</time></trkpt><trkpt lat="43.8195709" lon="11.051086"><ele>37.0</ele><time>2026-04-15T15:27:40.071Z</time></trkpt><trkpt lat="43.8195162" lon="11.0511576"><ele>37.0</ele><time>2026-04-15T15:27:41.068Z</time></trkpt><trkpt lat="43.8194703" lon="11.0512258"><ele>37.0</ele><time>2026-04-15T15:27:42.075Z</time></trkpt><trkpt lat="43.8193781" lon="11.0513346"><ele>37.0</ele><time>2026-04-15T15:27:44.051Z</time></trkpt><trkpt lat="43.8192883" lon="11.0513559"><ele>37.0</ele><time>2026-04-15T15:27:46.06Z</time></trkpt><trkpt lat="43.8192116" lon="11.0513331"><ele>37.0</ele><time>2026-04-15T15:27:49.069Z</time></trkpt><trkpt lat="43.8190905" lon="11.0512414"><ele>37.0</ele><time>2026-04-15T15:27:51.047Z</time></trkpt><trkpt lat="43.8190125" lon="11.051201"><ele>37.0</ele><time>2026-04-15T15:27:52.051Z</time></trkpt><trkpt lat="43.8189313" lon="11.0511707"><ele>37.0</ele><time>2026-04-15T15:27:53.06Z</time></trkpt><trkpt lat="43.8188397" lon="11.0511419"><ele>37.0</ele><time>2026-04-15T15:27:54.075Z</time></trkpt><trkpt lat="43.818737" lon="11.0510999"><ele>37.0</ele><time>2026-04-15T15:27:55.045Z</time></trkpt><trkpt lat="43.818633" lon="11.0510441"><ele>37.0</ele><time>2026-04-15T15:27:56.052Z</time></trkpt><trkpt lat="43.8185277" lon="11.0509922"><ele>37.0</ele><time>2026-04-15T15:27:57.081Z</time></trkpt><trkpt lat="43.8184287" lon="11.0509472"><ele>37.0</ele><time>2026-04-15T15:27:58.063Z</time></trkpt><trkpt lat="43.8183297" lon="11.0509013"><ele>37.0</ele><time>2026-04-15T15:27:59.052Z</time></trkpt><trkpt lat="43.818215" lon="11.0508531"><ele>37.0</ele><time>2026-04-15T15:28:00.083Z</time></trkpt><trkpt lat="43.8180837" lon="11.0508079"><ele>37.25</ele><time>2026-04-15T15:28:01.067Z</time></trkpt><trkpt lat="43.8179482" lon="11.0507599"><ele>37.5</ele><time>2026-04-15T15:28:02.071Z</time></trkpt><trkpt lat="43.8178266" lon="11.0506946"><ele>37.75</ele><time>2026-04-15T15:28:03.048Z</time></trkpt><trkpt lat="43.8177129" lon="11.0506381"><ele>38.0</ele><time>2026-04-15T15:28:04.046Z</time></trkpt><trkpt lat="43.8176074" lon="11.0505873"><ele>38.0</ele><time>2026-04-15T15:28:05.028Z</time></trkpt><trkpt lat="43.8175105" lon="11.050541"><ele>38.0</ele><time>2026-04-15T15:28:06.053Z</time></trkpt><trkpt lat="43.817429" lon="11.0504948"><ele>38.0</ele><time>2026-04-15T15:28:07.056Z</time></trkpt><trkpt lat="43.8173669" lon="11.0504586"><ele>38.0</ele><time>2026-04-15T15:28:08.055Z</time></trkpt><trkpt lat="43.8172807" lon="11.0503962"><ele>38.0</ele><time>2026-04-15T15:28:10.058Z</time></trkpt><trkpt lat="43.8172195" lon="11.0503589"><ele>38.0</ele><time>2026-04-15T15:28:12.075Z</time></trkpt><trkpt lat="43.8171615" lon="11.0503101"><ele>38.0</ele><time>2026-04-15T15:28:14.062Z</time></trkpt><trkpt lat="43.8171073" lon="11.0502125"><ele>38.0</ele><time>2026-04-15T15:28:16.058Z</time></trkpt><trkpt lat="43.8170685" lon="11.0500932"><ele>38.0</ele><time>2026-04-15T15:28:18.069Z</time></trkpt><trkpt lat="43.8169885" lon="11.0499956"><ele>38.0</ele><time>2026-04-15T15:28:20.052Z</time></trkpt><trkpt lat="43.8168913" lon="11.0499997"><ele>38.0</ele><time>2026-04-15T15:28:22.075Z</time></trkpt><trkpt lat="43.8167703" lon="11.0499817"><ele>38.0</ele><time>2026-04-15T15:28:24.05Z</time></trkpt><trkpt lat="43.8167042" lon="11.0499635"><ele>38.0</ele><time>2026-04-15T15:28:25.045Z</time></trkpt><trkpt lat="43.8166263" lon="11.0499344"><ele>38.0</ele><time>2026-04-15T15:28:26.064Z</time></trkpt><trkpt lat="43.8165184" lon="11.0499004"><ele>38.0</ele><time>2026-04-15T15:28:27.041Z</time></trkpt><trkpt lat="43.8163917" lon="11.0498561"><ele>38.0</ele><time>2026-04-15T15:28:28.054Z</time></trkpt><trkpt lat="43.8162657" lon="11.0498123"><ele>38.0</ele><time>2026-04-15T15:28:29.072Z</time></trkpt><trkpt lat="43.8161449" lon="11.0497742"><ele>38.0</ele><time>2026-04-15T15:28:30.074Z</time></trkpt><trkpt lat="43.8160454" lon="11.049737"><ele>38.0</ele><time>2026-04-15T15:28:31.064Z</time></trkpt><trkpt lat="43.815968" lon="11.049701"><ele>38.0</ele><time>2026-04-15T15:28:32.067Z</time></trkpt><trkpt lat="43.8158992" lon="11.0496711"><ele>38.0</ele><time>2026-04-15T15:28:33.071Z</time></trkpt><trkpt lat="43.8157893" lon="11.0496245"><ele>38.4</ele><time>2026-04-15T15:28:35.056Z</time></trkpt><trkpt lat="43.8156709" lon="11.0495871"><ele>38.8</ele><time>2026-04-15T15:28:37.056Z</time></trkpt><trkpt lat="43.815558" lon="11.0495525"><ele>39.2</ele><time>2026-04-15T15:28:39.079Z</time></trkpt><trkpt lat="43.8154432" lon="11.0495116"><ele>39.6</ele><time>2026-04-15T15:28:41.074Z</time></trkpt><trkpt lat="43.8153795" lon="11.0494934"><ele>40.0</ele><time>2026-04-15T15:28:42.062Z</time></trkpt><trkpt lat="43.8152625" lon="11.0494848"><ele>40.0</ele><time>2026-04-15T15:28:44.074Z</time></trkpt><trkpt lat="43.8151663" lon="11.0494934"><ele>40.0</ele><time>2026-04-15T15:28:46.06Z</time></trkpt><trkpt lat="43.8150877" lon="11.0495147"><ele>40.0</ele><time>2026-04-15T15:28:48.057Z</time></trkpt><trkpt lat="43.8150128" lon="11.0495775"><ele>40.0</ele><time>2026-04-15T15:28:50.059Z</time></trkpt><trkpt lat="43.814984" lon="11.0497214"><ele>40.0</ele><time>2026-04-15T15:28:52.055Z</time></trkpt><trkpt lat="43.8149785" lon="11.0498138"><ele>40.0</ele><time>2026-04-15T15:28:53.054Z</time></trkpt><trkpt lat="43.8149634" lon="11.0499158"><ele>39.833333333333336</ele><time>2026-04-15T15:28:54.061Z</time></trkpt><trkpt lat="43.814949" lon="11.0500242"><ele>39.66666666666667</ele><time>2026-04-15T15:28:55.052Z</time></trkpt><trkpt lat="43.8149405" lon="11.0501325"><ele>39.5</ele><time>2026-04-15T15:28:56.038Z</time></trkpt><trkpt lat="43.814933" lon="11.0502401"><ele>39.333333333333336</ele><time>2026-04-15T15:28:57.04Z</time></trkpt><trkpt lat="43.8149284" lon="11.0503481"><ele>39.166666666666664</ele><time>2026-04-15T15:28:58.074Z</time></trkpt><trkpt lat="43.8149255" lon="11.0504661"><ele>39.0</ele><time>2026-04-15T15:28:59.073Z</time></trkpt><trkpt lat="43.814918" lon="11.0505771"><ele>39.0</ele><time>2026-04-15T15:29:00.063Z</time></trkpt><trkpt lat="43.8148998" lon="11.050686"><ele>39.0</ele><time>2026-04-15T15:29:01.046Z</time></trkpt><trkpt lat="43.8148659" lon="11.0507779"><ele>39.0</ele><time>2026-04-15T15:29:02.066Z</time></trkpt><trkpt lat="43.8148209" lon="11.0508641"><ele>39.0</ele><time>2026-04-15T15:29:03.051Z</time></trkpt><trkpt lat="43.8147771" lon="11.0509457"><ele>39.0</ele><time>2026-04-15T15:29:04.051Z</time></trkpt><trkpt lat="43.8147354" lon="11.0510343"><ele>39.0</ele><time>2026-04-15T15:29:05.038Z</time></trkpt><trkpt lat="43.814691" lon="11.0511316"><ele>39.166666666666664</ele><time>2026-04-15T15:29:06.053Z</time></trkpt><trkpt lat="43.8146444" lon="11.0512383"><ele>39.333333333333336</ele><time>2026-04-15T15:29:07.058Z</time></trkpt><trkpt lat="43.8145908" lon="11.0513372"><ele>39.5</ele><time>2026-04-15T15:29:08.069Z</time></trkpt><trkpt lat="43.8145355" lon="11.051442"><ele>39.66666666666667</ele><time>2026-04-15T15:29:09.054Z</time></trkpt><trkpt lat="43.814482" lon="11.0515362"><ele>39.833333333333336</ele><time>2026-04-15T15:29:10.059Z</time></trkpt><trkpt lat="43.8144363" lon="11.0516118"><ele>40.0</ele><time>2026-04-15T15:29:11.056Z</time></trkpt><trkpt lat="43.8143932" lon="11.0516795"><ele>40.333333333333336</ele><time>2026-04-15T15:29:12.036Z</time></trkpt><trkpt lat="43.8143158" lon="11.0518167"><ele>40.66666666666667</ele><time>2026-04-15T15:29:14.053Z</time></trkpt><trkpt lat="43.8142702" lon="11.0518988"><ele>41.0</ele><time>2026-04-15T15:29:15.069Z</time></trkpt><trkpt lat="43.8142249" lon="11.0519953"><ele>41.333333333333336</ele><time>2026-04-15T15:29:16.051Z</time></trkpt><trkpt lat="43.8141779" lon="11.0520899"><ele>41.666666666666664</ele><time>2026-04-15T15:29:17.061Z</time></trkpt><trkpt lat="43.814129" lon="11.0521764"><ele>42.0</ele><time>2026-04-15T15:29:18.072Z</time></trkpt><trkpt lat="43.8140764" lon="11.0522689"><ele>42.0</ele><time>2026-04-15T15:29:19.065Z</time></trkpt><trkpt lat="43.8140257" lon="11.0523675"><ele>42.0</ele><time>2026-04-15T15:29:20.045Z</time></trkpt><trkpt lat="43.813977" lon="11.0524633"><ele>42.0</ele><time>2026-04-15T15:29:21.023Z</time></trkpt><trkpt lat="43.8139299" lon="11.0525574"><ele>42.0</ele><time>2026-04-15T15:29:22.067Z</time></trkpt><trkpt lat="43.8138848" lon="11.0526539"><ele>42.0</ele><time>2026-04-15T15:29:23.077Z</time></trkpt><trkpt lat="43.8138319" lon="11.0527455"><ele>42.0</ele><time>2026-04-15T15:29:24.044Z</time></trkpt><trkpt lat="43.8137849" lon="11.0528343"><ele>42.142857142857146</ele><time>2026-04-15T15:29:25.068Z</time></trkpt><trkpt lat="43.8137393" lon="11.0529321"><ele>42.285714285714285</ele><time>2026-04-15T15:29:26.07Z</time></trkpt><trkpt lat="43.8137053" lon="11.0530295"><ele>42.42857142857143</ele><time>2026-04-15T15:29:27.036Z</time></trkpt><trkpt lat="43.8136657" lon="11.0531154"><ele>42.57142857142857</ele><time>2026-04-15T15:29:28.038Z</time></trkpt><trkpt lat="43.8136232" lon="11.0531917"><ele>42.714285714285715</ele><time>2026-04-15T15:29:29.076Z</time></trkpt><trkpt lat="43.8135884" lon="11.0532648"><ele>42.85714285714286</ele><time>2026-04-15T15:29:30.054Z</time></trkpt><trkpt lat="43.8135626" lon="11.0533557"><ele>43.0</ele><time>2026-04-15T15:29:31.059Z</time></trkpt><trkpt lat="43.8135604" lon="11.053455"><ele>43.0</ele><time>2026-04-15T15:29:32.063Z</time></trkpt><trkpt lat="43.8135796" lon="11.0535576"><ele>43.0</ele><time>2026-04-15T15:29:33.041Z</time></trkpt><trkpt lat="43.8135965" lon="11.053645"><ele>43.0</ele><time>2026-04-15T15:29:34.057Z</time></trkpt><trkpt lat="43.8135931" lon="11.0537885"><ele>43.0</ele><time>2026-04-15T15:29:36.036Z</time></trkpt><trkpt lat="43.8135575" lon="11.0539362"><ele>43.0</ele><time>2026-04-15T15:29:38.058Z</time></trkpt><trkpt lat="43.8135145" lon="11.0540485"><ele>43.0</ele><time>2026-04-15T15:29:40.046Z</time></trkpt><trkpt lat="43.8134485" lon="11.0541314"><ele>42.333333333333336</ele><time>2026-04-15T15:29:42.056Z</time></trkpt><trkpt lat="43.8133473" lon="11.0541561"><ele>41.66666666666667</ele><time>2026-04-15T15:29:44.023Z</time></trkpt><trkpt lat="43.8132839" lon="11.0541515"><ele>41.0</ele><time>2026-04-15T15:29:45.039Z</time></trkpt><trkpt lat="43.8132134" lon="11.0541232"><ele>40.333333333333336</ele><time>2026-04-15T15:29:46.048Z</time></trkpt><trkpt lat="43.813142" lon="11.0540563"><ele>39.666666666666664</ele><time>2026-04-15T15:29:47.034Z</time></trkpt><trkpt lat="43.8130679" lon="11.0539708"><ele>39.0</ele><time>2026-04-15T15:29:48.031Z</time></trkpt><trkpt lat="43.8129913" lon="11.0538851"><ele>39.0</ele><time>2026-04-15T15:29:49.056Z</time></trkpt><trkpt lat="43.8129154" lon="11.0537833"><ele>39.0</ele><time>2026-04-15T15:29:50.057Z</time></trkpt><trkpt lat="43.8128406" lon="11.0536731"><ele>39.0</ele><time>2026-04-15T15:29:51.053Z</time></trkpt><trkpt lat="43.8127513" lon="11.0535695"><ele>39.0</ele><time>2026-04-15T15:29:52.067Z</time></trkpt><trkpt lat="43.8126654" lon="11.0534809"><ele>39.0</ele><time>2026-04-15T15:29:53.052Z</time></trkpt><trkpt lat="43.8125847" lon="11.0533877"><ele>39.0</ele><time>2026-04-15T15:29:54.061Z</time></trkpt><trkpt lat="43.8125019" lon="11.0532975"><ele>39.0</ele><time>2026-04-15T15:29:55.052Z</time></trkpt><trkpt lat="43.8124338" lon="11.0532058"><ele>39.0</ele><time>2026-04-15T15:29:56.063Z</time></trkpt><trkpt lat="43.8123605" lon="11.0531141"><ele>39.0</ele><time>2026-04-15T15:29:57.062Z</time></trkpt><trkpt lat="43.8122906" lon="11.0530309"><ele>39.0</ele><time>2026-04-15T15:29:58.062Z</time></trkpt><trkpt lat="43.8122185" lon="11.0529586"><ele>39.333333333333336</ele><time>2026-04-15T15:29:59.034Z</time></trkpt><trkpt lat="43.8121468" lon="11.0528915"><ele>39.666666666666664</ele><time>2026-04-15T15:30:00.058Z</time></trkpt><trkpt lat="43.8120726" lon="11.0528369"><ele>40.0</ele><time>2026-04-15T15:30:01.02Z</time></trkpt><trkpt lat="43.8120008" lon="11.0527842"><ele>40.33333333333333</ele><time>2026-04-15T15:30:02.044Z</time></trkpt><trkpt lat="43.8119272" lon="11.0527286"><ele>40.666666666666664</ele><time>2026-04-15T15:30:03.048Z</time></trkpt><trkpt lat="43.8118454" lon="11.0526949"><ele>41.0</ele><time>2026-04-15T15:30:04.059Z</time></trkpt><trkpt lat="43.8117509" lon="11.052682"><ele>41.599999999999994</ele><time>2026-04-15T15:30:05.06Z</time></trkpt><trkpt lat="43.8116615" lon="11.0526635"><ele>42.2</ele><time>2026-04-15T15:30:06.065Z</time></trkpt><trkpt lat="43.8115739" lon="11.0526397"><ele>42.8</ele><time>2026-04-15T15:30:07.068Z</time></trkpt><trkpt lat="43.8114765" lon="11.0526175"><ele>43.400000000000006</ele><time>2026-04-15T15:30:08.033Z</time></trkpt><trkpt lat="43.8113867" lon="11.052596"><ele>44.0</ele><time>2026-04-15T15:30:09.032Z</time></trkpt><trkpt lat="43.8112924" lon="11.0525658"><ele>44.0</ele><time>2026-04-15T15:30:10.065Z</time></trkpt><trkpt lat="43.811201" lon="11.0525462"><ele>44.0</ele><time>2026-04-15T15:30:11.055Z</time></trkpt><trkpt lat="43.8111111" lon="11.0525313"><ele>44.0</ele><time>2026-04-15T15:30:12.043Z</time></trkpt><trkpt lat="43.8110226" lon="11.0525079"><ele>44.0</ele><time>2026-04-15T15:30:13.033Z</time></trkpt><trkpt lat="43.8109408" lon="11.0524843"><ele>44.0</ele><time>2026-04-15T15:30:14.055Z</time></trkpt><trkpt lat="43.8108604" lon="11.052465"><ele>44.0</ele><time>2026-04-15T15:30:15.047Z</time></trkpt><trkpt lat="43.8107798" lon="11.0524483"><ele>45.800000000000004</ele><time>2026-04-15T15:30:16.052Z</time></trkpt><trkpt lat="43.8107009" lon="11.0524232"><ele>47.6</ele><time>2026-04-15T15:30:17.067Z</time></trkpt><trkpt lat="43.8106044" lon="11.0523993"><ele>49.4</ele><time>2026-04-15T15:30:18.056Z</time></trkpt><trkpt lat="43.8104992" lon="11.0523669"><ele>51.2</ele><time>2026-04-15T15:30:19.047Z</time></trkpt><trkpt lat="43.8103787" lon="11.0523277"><ele>53.0</ele><time>2026-04-15T15:30:20.025Z</time></trkpt><trkpt lat="43.8102522" lon="11.052277"><ele>53.5</ele><time>2026-04-15T15:30:21.041Z</time></trkpt><trkpt lat="43.8101159" lon="11.0522024"><ele>54.0</ele><time>2026-04-15T15:30:22.069Z</time></trkpt><trkpt lat="43.8099791" lon="11.0521277"><ele>54.5</ele><time>2026-04-15T15:30:23.03Z</time></trkpt><trkpt lat="43.8098402" lon="11.0520604"><ele>55.0</ele><time>2026-04-15T15:30:24.066Z</time></trkpt><trkpt lat="43.8096864" lon="11.0520085"><ele>55.0</ele><time>2026-04-15T15:30:25.031Z</time></trkpt><trkpt lat="43.809531" lon="11.0519979"><ele>55.0</ele><time>2026-04-15T15:30:26.076Z</time></trkpt><trkpt lat="43.8093977" lon="11.0519941"><ele>55.0</ele><time>2026-04-15T15:30:27.04Z</time></trkpt><trkpt lat="43.8092688" lon="11.0519849"><ele>55.0</ele><time>2026-04-15T15:30:28.028Z</time></trkpt><trkpt lat="43.8091527" lon="11.0519825"><ele>54.6</ele><time>2026-04-15T15:30:29.057Z</time></trkpt><trkpt lat="43.8090489" lon="11.0519834"><ele>54.2</ele><time>2026-04-15T15:30:30.041Z</time></trkpt><trkpt lat="43.8089615" lon="11.0519612"><ele>53.8</ele><time>2026-04-15T15:30:31.034Z</time></trkpt><trkpt lat="43.8088896" lon="11.0518977"><ele>53.4</ele><time>2026-04-15T15:30:32.058Z</time></trkpt><trkpt lat="43.8088581" lon="11.0517748"><ele>53.0</ele><time>2026-04-15T15:30:33.048Z</time></trkpt><trkpt lat="43.8088617" lon="11.0516492"><ele>54.50000000000001</ele><time>2026-04-15T15:30:34.045Z</time></trkpt><trkpt lat="43.8088981" lon="11.0515478"><ele>56.0</ele><time>2026-04-15T15:30:35.055Z</time></trkpt><trkpt lat="43.8089558" lon="11.0514611"><ele>57.5</ele><time>2026-04-15T15:30:36.047Z</time></trkpt><trkpt lat="43.8090153" lon="11.0513753"><ele>59.0</ele><time>2026-04-15T15:30:37.03Z</time></trkpt><trkpt lat="43.809083" lon="11.0513101"><ele>60.50000000000001</ele><time>2026-04-15T15:30:38.07Z</time></trkpt><trkpt lat="43.8091495" lon="11.0512388"><ele>62.0</ele><time>2026-04-15T15:30:39.048Z</time></trkpt><trkpt lat="43.8092175" lon="11.0511661"><ele>62.0</ele><time>2026-04-15T15:30:40.046Z</time></trkpt><trkpt lat="43.8092825" lon="11.0510875"><ele>62.0</ele><time>2026-04-15T15:30:41.059Z</time></trkpt><trkpt lat="43.8093507" lon="11.0510148"><ele>62.0</ele><time>2026-04-15T15:30:42.036Z</time></trkpt><trkpt lat="43.8094233" lon="11.0509407"><ele>62.0</ele><time>2026-04-15T15:30:43.068Z</time></trkpt><trkpt lat="43.8094961" lon="11.050868"><ele>62.0</ele><time>2026-04-15T15:30:44.039Z</time></trkpt><trkpt lat="43.8095659" lon="11.0507715"><ele>61.6</ele><time>2026-04-15T15:30:45.036Z</time></trkpt><trkpt lat="43.8096304" lon="11.050661"><ele>61.2</ele><time>2026-04-15T15:30:46.034Z</time></trkpt><trkpt lat="43.8096875" lon="11.0505484"><ele>60.8</ele><time>2026-04-15T15:30:47.034Z</time></trkpt><trkpt lat="43.809724" lon="11.0504173"><ele>60.4</ele><time>2026-04-15T15:30:48.04Z</time></trkpt><trkpt lat="43.8097454" lon="11.0502824"><ele>60.0</ele><time>2026-04-15T15:30:49.035Z</time></trkpt><trkpt lat="43.809744" lon="11.050143"><ele>60.0</ele><time>2026-04-15T15:30:50.043Z</time></trkpt><trkpt lat="43.8097034" lon="11.0500063"><ele>60.0</ele><time>2026-04-15T15:30:51.031Z</time></trkpt><trkpt lat="43.8096271" lon="11.049851"><ele>60.0</ele><time>2026-04-15T15:30:52.052Z</time></trkpt><trkpt lat="43.8095454" lon="11.0496751"><ele>60.0</ele><time>2026-04-15T15:30:53.054Z</time></trkpt><trkpt lat="43.8094685" lon="11.0494497"><ele>58.33333333333333</ele><time>2026-04-15T15:30:54.065Z</time></trkpt><trkpt lat="43.8093932" lon="11.0491999"><ele>56.666666666666664</ele><time>2026-04-15T15:30:55.052Z</time></trkpt><trkpt lat="43.8093241" lon="11.0489503"><ele>55.0</ele><time>2026-04-15T15:30:56.061Z</time></trkpt><trkpt lat="43.8092549" lon="11.0487231"><ele>59.25</ele><time>2026-04-15T15:30:57.042Z</time></trkpt><trkpt lat="43.8092038" lon="11.0485229"><ele>63.5</ele><time>2026-04-15T15:30:58.03Z</time></trkpt><trkpt lat="43.80914" lon="11.0483435"><ele>67.75</ele><time>2026-04-15T15:30:59.023Z</time></trkpt><trkpt lat="43.809042" lon="11.048219"><ele>72.0</ele><time>2026-04-15T15:31:00.04Z</time></trkpt><trkpt lat="43.8089086" lon="11.0481293"><ele>73.0</ele><time>2026-04-15T15:31:01.062Z</time></trkpt><trkpt lat="43.8087814" lon="11.0480504"><ele>74.0</ele><time>2026-04-15T15:31:02.033Z</time></trkpt><trkpt lat="43.8086622" lon="11.0479661"><ele>75.0</ele><time>2026-04-15T15:31:03.043Z</time></trkpt><trkpt lat="43.8085636" lon="11.047882"><ele>76.0</ele><time>2026-04-15T15:31:04.039Z</time></trkpt><trkpt lat="43.8084819" lon="11.0477708"><ele>76.0</ele><time>2026-04-15T15:31:05.046Z</time></trkpt><trkpt lat="43.808433" lon="11.0476218"><ele>76.0</ele><time>2026-04-15T15:31:06.059Z</time></trkpt><trkpt lat="43.8084295" lon="11.0474367"><ele>76.0</ele><time>2026-04-15T15:31:07.034Z</time></trkpt><trkpt lat="43.8084126" lon="11.0472786"><ele>76.0</ele><time>2026-04-15T15:31:08.038Z</time></trkpt><trkpt lat="43.8083875" lon="11.0471249"><ele>76.16666666666666</ele><time>2026-04-15T15:31:09.027Z</time></trkpt><trkpt lat="43.8083718" lon="11.0469958"><ele>76.33333333333333</ele><time>2026-04-15T15:31:10.063Z</time></trkpt><trkpt lat="43.8083703" lon="11.0468879"><ele>76.5</ele><time>2026-04-15T15:31:11.047Z</time></trkpt><trkpt lat="43.8083859" lon="11.0468031"><ele>76.66666666666667</ele><time>2026-04-15T15:31:12.049Z</time></trkpt><trkpt lat="43.808417" lon="11.0467101"><ele>76.83333333333334</ele><time>2026-04-15T15:31:13.052Z</time></trkpt><trkpt lat="43.8084476" lon="11.0466054"><ele>77.0</ele><time>2026-04-15T15:31:14.059Z</time></trkpt><trkpt lat="43.8084822" lon="11.0465013"><ele>75.8</ele><time>2026-04-15T15:31:15.048Z</time></trkpt><trkpt lat="43.8085295" lon="11.0463914"><ele>74.6</ele><time>2026-04-15T15:31:16.055Z</time></trkpt><trkpt lat="43.8085717" lon="11.0462772"><ele>73.39999999999999</ele><time>2026-04-15T15:31:17.063Z</time></trkpt><trkpt lat="43.8086096" lon="11.0461643"><ele>72.2</ele><time>2026-04-15T15:31:18.055Z</time></trkpt><trkpt lat="43.8086416" lon="11.0460369"><ele>71.0</ele><time>2026-04-15T15:31:19.029Z</time></trkpt><trkpt lat="43.8086645" lon="11.0458995"><ele>70.75</ele><time>2026-04-15T15:31:20.041Z</time></trkpt><trkpt lat="43.8086721" lon="11.0457473"><ele>70.5</ele><time>2026-04-15T15:31:21.019Z</time></trkpt><trkpt lat="43.8086562" lon="11.0455646"><ele>70.25</ele><time>2026-04-15T15:31:22.031Z</time></trkpt><trkpt lat="43.8086228" lon="11.0453476"><ele>70.0</ele><time>2026-04-15T15:31:23.042Z</time></trkpt><trkpt lat="43.8085766" lon="11.045078"><ele>70.0</ele><time>2026-04-15T15:31:24.056Z</time></trkpt><trkpt lat="43.8085506" lon="11.0448071"><ele>70.0</ele><time>2026-04-15T15:31:25.035Z</time></trkpt><trkpt lat="43.8085184" lon="11.0445635"><ele>70.0</ele><time>2026-04-15T15:31:26.048Z</time></trkpt><trkpt lat="43.8084907" lon="11.0443427"><ele>72.66666666666666</ele><time>2026-04-15T15:31:27.056Z</time></trkpt><trkpt lat="43.808455" lon="11.0441283"><ele>75.33333333333333</ele><time>2026-04-15T15:31:28.078Z</time></trkpt><trkpt lat="43.8084236" lon="11.0439172"><ele>78.0</ele><time>2026-04-15T15:31:29.065Z</time></trkpt><trkpt lat="43.8083902" lon="11.0437164"><ele>78.0</ele><time>2026-04-15T15:31:30.06Z</time></trkpt><trkpt lat="43.8083573" lon="11.0435292"><ele>78.0</ele><time>2026-04-15T15:31:31.048Z</time></trkpt><trkpt lat="43.8083263" lon="11.0433439"><ele>78.0</ele><time>2026-04-15T15:31:32.046Z</time></trkpt><trkpt lat="43.8083017" lon="11.0431576"><ele>78.0</ele><time>2026-04-15T15:31:33.053Z</time></trkpt><trkpt lat="43.808275" lon="11.0429581"><ele>78.5</ele><time>2026-04-15T15:31:34.045Z</time></trkpt><trkpt lat="43.8082414" lon="11.0427712"><ele>79.0</ele><time>2026-04-15T15:31:35.052Z</time></trkpt><trkpt lat="43.8081819" lon="11.0425961"><ele>79.5</ele><time>2026-04-15T15:31:36.045Z</time></trkpt><trkpt lat="43.8081024" lon="11.0424378"><ele>80.0</ele><time>2026-04-15T15:31:37.048Z</time></trkpt><trkpt lat="43.8080178" lon="11.0423024"><ele>80.75</ele><time>2026-04-15T15:31:38.047Z</time></trkpt><trkpt lat="43.8079347" lon="11.0421738"><ele>81.5</ele><time>2026-04-15T15:31:39.049Z</time></trkpt><trkpt lat="43.8078563" lon="11.0420428"><ele>82.25</ele><time>2026-04-15T15:31:40.056Z</time></trkpt><trkpt lat="43.8077708" lon="11.0419238"><ele>83.0</ele><time>2026-04-15T15:31:41.037Z</time></trkpt><trkpt lat="43.8076747" lon="11.0418229"><ele>84.75</ele><time>2026-04-15T15:31:42.048Z</time></trkpt><trkpt lat="43.8075679" lon="11.0417468"><ele>86.5</ele><time>2026-04-15T15:31:43.028Z</time></trkpt><trkpt lat="43.8074567" lon="11.0416866"><ele>88.25</ele><time>2026-04-15T15:31:44.019Z</time></trkpt><trkpt lat="43.8073418" lon="11.0416406"><ele>90.0</ele><time>2026-04-15T15:31:45.06Z</time></trkpt><trkpt lat="43.8072215" lon="11.0416015"><ele>92.66666666666666</ele><time>2026-04-15T15:31:46.066Z</time></trkpt><trkpt lat="43.8070935" lon="11.0415622"><ele>95.33333333333333</ele><time>2026-04-15T15:31:47.06Z</time></trkpt><trkpt lat="43.8069504" lon="11.0415276"><ele>98.0</ele><time>2026-04-15T15:31:48.053Z</time></trkpt><trkpt lat="43.8067788" lon="11.0414844"><ele>99.33333333333333</ele><time>2026-04-15T15:31:49.061Z</time></trkpt><trkpt lat="43.8065788" lon="11.0414109"><ele>100.66666666666666</ele><time>2026-04-15T15:31:50.052Z</time></trkpt><trkpt lat="43.8063666" lon="11.0413293"><ele>102.0</ele><time>2026-04-15T15:31:51.055Z</time></trkpt><trkpt lat="43.8061566" lon="11.0412589"><ele>102.0</ele><time>2026-04-15T15:31:52.061Z</time></trkpt><trkpt lat="43.8059608" lon="11.0411815"><ele>102.0</ele><time>2026-04-15T15:31:53.051Z</time></trkpt><trkpt lat="43.8057546" lon="11.0410718"><ele>102.0</ele><time>2026-04-15T15:31:54.048Z</time></trkpt><trkpt lat="43.8055293" lon="11.0409521"><ele>102.0</ele><time>2026-04-15T15:31:55.055Z</time></trkpt><trkpt lat="43.8052948" lon="11.0408273"><ele>102.0</ele><time>2026-04-15T15:31:56.07Z</time></trkpt><trkpt lat="43.8050791" lon="11.0407175"><ele>106.0</ele><time>2026-04-15T15:31:57.055Z</time></trkpt><trkpt lat="43.8048773" lon="11.040611"><ele>110.0</ele><time>2026-04-15T15:31:58.032Z</time></trkpt><trkpt lat="43.804691" lon="11.0405111"><ele>114.0</ele><time>2026-04-15T15:31:59.039Z</time></trkpt><trkpt lat="43.804521" lon="11.040423"><ele>114.0</ele><time>2026-04-15T15:32:00.064Z</time></trkpt><trkpt lat="43.8043734" lon="11.040332"><ele>114.0</ele><time>2026-04-15T15:32:01.058Z</time></trkpt><trkpt lat="43.8042481" lon="11.0402335"><ele>114.0</ele><time>2026-04-15T15:32:02.084Z</time></trkpt><trkpt lat="43.8041443" lon="11.0401331"><ele>114.0</ele><time>2026-04-15T15:32:03.059Z</time></trkpt><trkpt lat="43.8040734" lon="11.0399866"><ele>111.75</ele><time>2026-04-15T15:32:04.061Z</time></trkpt><trkpt lat="43.8040532" lon="11.0398193"><ele>109.5</ele><time>2026-04-15T15:32:05.045Z</time></trkpt><trkpt lat="43.8040843" lon="11.0396439"><ele>107.25</ele><time>2026-04-15T15:32:06.051Z</time></trkpt><trkpt lat="43.8041167" lon="11.0394842"><ele>105.0</ele><time>2026-04-15T15:32:07.053Z</time></trkpt><trkpt lat="43.8041157" lon="11.0393022"><ele>107.0</ele><time>2026-04-15T15:32:08.054Z</time></trkpt><trkpt lat="43.8040558" lon="11.0391074"><ele>109.0</ele><time>2026-04-15T15:32:09.025Z</time></trkpt><trkpt lat="43.803958" lon="11.0389336"><ele>111.0</ele><time>2026-04-15T15:32:10.036Z</time></trkpt><trkpt lat="43.8038704" lon="11.0387512"><ele>111.0</ele><time>2026-04-15T15:32:11.061Z</time></trkpt><trkpt lat="43.803822" lon="11.0385412"><ele>111.0</ele><time>2026-04-15T15:32:12.056Z</time></trkpt><trkpt lat="43.8037894" lon="11.0382887"><ele>111.0</ele><time>2026-04-15T15:32:13.038Z</time></trkpt><trkpt lat="43.8037454" lon="11.0380113"><ele>114.0</ele><time>2026-04-15T15:32:14.043Z</time></trkpt><trkpt lat="43.8036947" lon="11.0377394"><ele>117.0</ele><time>2026-04-15T15:32:15.05Z</time></trkpt><trkpt lat="43.8036489" lon="11.0374954"><ele>120.0</ele><time>2026-04-15T15:32:16.057Z</time></trkpt><trkpt lat="43.803622" lon="11.0372955"><ele>120.33333333333334</ele><time>2026-04-15T15:32:17.051Z</time></trkpt><trkpt lat="43.8036052" lon="11.0371102"><ele>120.66666666666667</ele><time>2026-04-15T15:32:18.061Z</time></trkpt><trkpt lat="43.8036189" lon="11.0368896"><ele>121.0</ele><time>2026-04-15T15:32:19.036Z</time></trkpt><trkpt lat="43.8036738" lon="11.036643"><ele>120.66666666666667</ele><time>2026-04-15T15:32:20.055Z</time></trkpt><trkpt lat="43.8037406" lon="11.0363707"><ele>120.33333333333334</ele><time>2026-04-15T15:32:21.031Z</time></trkpt><trkpt lat="43.80381" lon="11.0360804"><ele>120.0</ele><time>2026-04-15T15:32:22.058Z</time></trkpt><trkpt lat="43.8038764" lon="11.0358113"><ele>118.66666666666666</ele><time>2026-04-15T15:32:23.044Z</time></trkpt><trkpt lat="43.8039415" lon="11.0355525"><ele>117.33333333333333</ele><time>2026-04-15T15:32:24.014Z</time></trkpt><trkpt lat="43.8040151" lon="11.035272"><ele>116.0</ele><time>2026-04-15T15:32:25.05Z</time></trkpt><trkpt lat="43.8040879" lon="11.0349578"><ele>116.0</ele><time>2026-04-15T15:32:26.044Z</time></trkpt><trkpt lat="43.8041763" lon="11.0346218"><ele>116.0</ele><time>2026-04-15T15:32:27.019Z</time></trkpt><trkpt lat="43.804271" lon="11.0342796"><ele>125.0</ele><time>2026-04-15T15:32:28.063Z</time></trkpt><trkpt lat="43.8043589" lon="11.033949"><ele>134.0</ele><time>2026-04-15T15:32:29.054Z</time></trkpt><trkpt lat="43.8044361" lon="11.0336342"><ele>134.0</ele><time>2026-04-15T15:32:30.062Z</time></trkpt><trkpt lat="43.8045052" lon="11.033346"><ele>134.0</ele><time>2026-04-15T15:32:31.049Z</time></trkpt><trkpt lat="43.8045749" lon="11.0330795"><ele>134.0</ele><time>2026-04-15T15:32:32.039Z</time></trkpt><trkpt lat="43.804637" lon="11.0328301"><ele>132.66666666666666</ele><time>2026-04-15T15:32:33.048Z</time></trkpt><trkpt lat="43.8046841" lon="11.0325954"><ele>131.33333333333334</ele><time>2026-04-15T15:32:34.051Z</time></trkpt><trkpt lat="43.804721" lon="11.0323677"><ele>130.0</ele><time>2026-04-15T15:32:35.025Z</time></trkpt><trkpt lat="43.8047335" lon="11.0321412"><ele>129.66666666666669</ele><time>2026-04-15T15:32:36.041Z</time></trkpt><trkpt lat="43.8047254" lon="11.0319114"><ele>129.33333333333334</ele><time>2026-04-15T15:32:37.037Z</time></trkpt><trkpt lat="43.8046952" lon="11.0316972"><ele>129.0</ele><time>2026-04-15T15:32:38.05Z</time></trkpt><trkpt lat="43.8046694" lon="11.0315053"><ele>129.0</ele><time>2026-04-15T15:32:39.019Z</time></trkpt><trkpt lat="43.8046549" lon="11.0313342"><ele>129.0</ele><time>2026-04-15T15:32:40.068Z</time></trkpt><trkpt lat="43.804656" lon="11.0311785"><ele>129.0</ele><time>2026-04-15T15:32:41.025Z</time></trkpt><trkpt lat="43.8046631" lon="11.031024"><ele>129.0</ele><time>2026-04-15T15:32:42.053Z</time></trkpt><trkpt lat="43.8046757" lon="11.0308608"><ele>129.16666666666666</ele><time>2026-04-15T15:32:43.023Z</time></trkpt><trkpt lat="43.8047057" lon="11.0307093"><ele>129.33333333333334</ele><time>2026-04-15T15:32:44.026Z</time></trkpt><trkpt lat="43.8047349" lon="11.0305955"><ele>129.5</ele><time>2026-04-15T15:32:45.036Z</time></trkpt><trkpt lat="43.8047461" lon="11.0304903"><ele>129.66666666666669</ele><time>2026-04-15T15:32:46.038Z</time></trkpt><trkpt lat="43.804708" lon="11.0304163"><ele>129.83333333333334</ele><time>2026-04-15T15:32:47.015Z</time></trkpt><trkpt lat="43.804634" lon="11.0304008"><ele>130.0</ele><time>2026-04-15T15:32:48.012Z</time></trkpt><trkpt lat="43.8045593" lon="11.0304558"><ele>130.0</ele><time>2026-04-15T15:32:49.03Z</time></trkpt><trkpt lat="43.8044849" lon="11.0305817"><ele>130.0</ele><time>2026-04-15T15:32:50.047Z</time></trkpt><trkpt lat="43.8044114" lon="11.0307217"><ele>130.0</ele><time>2026-04-15T15:32:51.045Z</time></trkpt><trkpt lat="43.8043194" lon="11.030858"><ele>130.0</ele><time>2026-04-15T15:32:52.039Z</time></trkpt><trkpt lat="43.8042178" lon="11.0309741"><ele>130.75</ele><time>2026-04-15T15:32:53.047Z</time></trkpt><trkpt lat="43.8041025" lon="11.0310739"><ele>131.5</ele><time>2026-04-15T15:32:54.046Z</time></trkpt><trkpt lat="43.8039791" lon="11.0311746"><ele>132.25</ele><time>2026-04-15T15:32:55.019Z</time></trkpt><trkpt lat="43.8038484" lon="11.0312719"><ele>133.0</ele><time>2026-04-15T15:32:56.054Z</time></trkpt><trkpt lat="43.803727" lon="11.0313609"><ele>133.0</ele><time>2026-04-15T15:32:57.057Z</time></trkpt><trkpt lat="43.8036111" lon="11.031445"><ele>133.0</ele><time>2026-04-15T15:32:58.06Z</time></trkpt><trkpt lat="43.8034945" lon="11.0315316"><ele>133.0</ele><time>2026-04-15T15:32:59.039Z</time></trkpt><trkpt lat="43.8033752" lon="11.0316199"><ele>133.0</ele><time>2026-04-15T15:33:00.026Z</time></trkpt><trkpt lat="43.8032501" lon="11.0316957"><ele>132.75</ele><time>2026-04-15T15:33:01.043Z</time></trkpt><trkpt lat="43.8031144" lon="11.0317541"><ele>132.5</ele><time>2026-04-15T15:33:02.051Z</time></trkpt><trkpt lat="43.8029693" lon="11.0317986"><ele>132.25</ele><time>2026-04-15T15:33:03.019Z</time></trkpt><trkpt lat="43.8028197" lon="11.0318373"><ele>132.0</ele><time>2026-04-15T15:33:04.046Z</time></trkpt><trkpt lat="43.8026649" lon="11.0318643"><ele>131.5</ele><time>2026-04-15T15:33:05.058Z</time></trkpt><trkpt lat="43.8025193" lon="11.0319028"><ele>131.0</ele><time>2026-04-15T15:33:06.044Z</time></trkpt><trkpt lat="43.8023761" lon="11.0319414"><ele>130.5</ele><time>2026-04-15T15:33:07.033Z</time></trkpt><trkpt lat="43.8022534" lon="11.0319776"><ele>130.0</ele><time>2026-04-15T15:33:08.042Z</time></trkpt><trkpt lat="43.8021334" lon="11.0320174"><ele>130.0</ele><time>2026-04-15T15:33:09.053Z</time></trkpt><trkpt lat="43.8020166" lon="11.0320496"><ele>130.0</ele><time>2026-04-15T15:33:10.057Z</time></trkpt><trkpt lat="43.8018955" lon="11.0320666"><ele>130.0</ele><time>2026-04-15T15:33:11.044Z</time></trkpt><trkpt lat="43.8017676" lon="11.0320631"><ele>130.0</ele><time>2026-04-15T15:33:12.019Z</time></trkpt><trkpt lat="43.8016273" lon="11.032043"><ele>129.75</ele><time>2026-04-15T15:33:13.032Z</time></trkpt><trkpt lat="43.8014837" lon="11.0320145"><ele>129.5</ele><time>2026-04-15T15:33:14.033Z</time></trkpt><trkpt lat="43.8013496" lon="11.0319895"><ele>129.25</ele><time>2026-04-15T15:33:15.051Z</time></trkpt><trkpt lat="43.801214" lon="11.0319465"><ele>129.0</ele><time>2026-04-15T15:33:16.044Z</time></trkpt><trkpt lat="43.8010599" lon="11.0318675"><ele>129.0</ele><time>2026-04-15T15:33:17.023Z</time></trkpt><trkpt lat="43.8009028" lon="11.031764"><ele>129.0</ele><time>2026-04-15T15:33:18.043Z</time></trkpt><trkpt lat="43.8007501" lon="11.0316717"><ele>129.0</ele><time>2026-04-15T15:33:19.055Z</time></trkpt><trkpt lat="43.8006092" lon="11.0315754"><ele>128.66666666666666</ele><time>2026-04-15T15:33:20.052Z</time></trkpt><trkpt lat="43.8004637" lon="11.0315071"><ele>128.33333333333331</ele><time>2026-04-15T15:33:21.063Z</time></trkpt><trkpt lat="43.8003118" lon="11.0314636"><ele>128.0</ele><time>2026-04-15T15:33:22.047Z</time></trkpt><trkpt lat="43.8001659" lon="11.0314378"><ele>128.0</ele><time>2026-04-15T15:33:23.053Z</time></trkpt><trkpt lat="43.8000222" lon="11.0314226"><ele>128.0</ele><time>2026-04-15T15:33:24.018Z</time></trkpt><trkpt lat="43.7998763" lon="11.0314217"><ele>128.0</ele><time>2026-04-15T15:33:25.022Z</time></trkpt><trkpt lat="43.7997156" lon="11.0314519"><ele>128.0</ele><time>2026-04-15T15:33:26.048Z</time></trkpt><trkpt lat="43.7995444" lon="11.0315005"><ele>128.0</ele><time>2026-04-15T15:33:27.052Z</time></trkpt><trkpt lat="43.7993808" lon="11.0315247"><ele>128.0</ele><time>2026-04-15T15:33:28.054Z</time></trkpt><trkpt lat="43.799229" lon="11.031528"><ele>129.75</ele><time>2026-04-15T15:33:29.039Z</time></trkpt><trkpt lat="43.7990897" lon="11.0315382"><ele>131.5</ele><time>2026-04-15T15:33:30.041Z</time></trkpt><trkpt lat="43.7989582" lon="11.0315459"><ele>133.25</ele><time>2026-04-15T15:33:31.03Z</time></trkpt><trkpt lat="43.7988251" lon="11.031572"><ele>135.0</ele><time>2026-04-15T15:33:32.036Z</time></trkpt><trkpt lat="43.798696" lon="11.0316236"><ele>133.25</ele><time>2026-04-15T15:33:33.028Z</time></trkpt><trkpt lat="43.7985665" lon="11.0316969"><ele>131.5</ele><time>2026-04-15T15:33:34.016Z</time></trkpt><trkpt lat="43.7984485" lon="11.0317905"><ele>129.75</ele><time>2026-04-15T15:33:35.05Z</time></trkpt><trkpt lat="43.7983338" lon="11.0319061"><ele>128.0</ele><time>2026-04-15T15:33:36.036Z</time></trkpt><trkpt lat="43.79822" lon="11.0320472"><ele>128.0</ele><time>2026-04-15T15:33:37.045Z</time></trkpt><trkpt lat="43.7981134" lon="11.0321939"><ele>128.0</ele><time>2026-04-15T15:33:38.042Z</time></trkpt><trkpt lat="43.7980107" lon="11.0323535"><ele>128.0</ele><time>2026-04-15T15:33:39.048Z</time></trkpt><trkpt lat="43.7979091" lon="11.0325157"><ele>128.0</ele><time>2026-04-15T15:33:40.035Z</time></trkpt><trkpt lat="43.7978129" lon="11.0326627"><ele>128.0</ele><time>2026-04-15T15:33:41.038Z</time></trkpt><trkpt lat="43.797718" lon="11.0328184"><ele>128.0</ele><time>2026-04-15T15:33:42.048Z</time></trkpt><trkpt lat="43.7976308" lon="11.0329685"><ele>128.0</ele><time>2026-04-15T15:33:43.047Z</time></trkpt><trkpt lat="43.7975568" lon="11.0331033"><ele>127.99999999999999</ele><time>2026-04-15T15:33:44.048Z</time></trkpt><trkpt lat="43.7974998" lon="11.0332105"><ele>128.0</ele><time>2026-04-15T15:33:45.027Z</time></trkpt><trkpt lat="43.7974511" lon="11.0332963"><ele>128.0</ele><time>2026-04-15T15:33:46.034Z</time></trkpt><trkpt lat="43.7974048" lon="11.0333731"><ele>128.0</ele><time>2026-04-15T15:33:47.033Z</time></trkpt><trkpt lat="43.7973662" lon="11.0334476"><ele>127.99999999999999</ele><time>2026-04-15T15:33:48.026Z</time></trkpt><trkpt lat="43.7972622" lon="11.0335225"><ele>128.0</ele><time>2026-04-15T15:33:50.037Z</time></trkpt><trkpt lat="43.7971837" lon="11.0335129"><ele>126.4</ele><time>2026-04-15T15:33:51.034Z</time></trkpt><trkpt lat="43.7970933" lon="11.033485"><ele>124.80000000000001</ele><time>2026-04-15T15:33:52.086Z</time></trkpt><trkpt lat="43.7969906" lon="11.0334589"><ele>123.2</ele><time>2026-04-15T15:33:53.012Z</time></trkpt><trkpt lat="43.7968723" lon="11.0334649"><ele>121.6</ele><time>2026-04-15T15:33:54.041Z</time></trkpt><trkpt lat="43.7967493" lon="11.0334892"><ele>120.0</ele><time>2026-04-15T15:33:55.03Z</time></trkpt><trkpt lat="43.7966164" lon="11.033526"><ele>120.0</ele><time>2026-04-15T15:33:56.026Z</time></trkpt><trkpt lat="43.7964395" lon="11.0335714"><ele>120.0</ele><time>2026-04-15T15:33:57.028Z</time></trkpt><trkpt lat="43.796238" lon="11.0336044"><ele>120.0</ele><time>2026-04-15T15:33:58.041Z</time></trkpt><trkpt lat="43.7960374" lon="11.033646"><ele>115.33333333333334</ele><time>2026-04-15T15:33:59.031Z</time></trkpt><trkpt lat="43.7958527" lon="11.0336854"><ele>110.66666666666667</ele><time>2026-04-15T15:34:00.063Z</time></trkpt><trkpt lat="43.7956931" lon="11.033733"><ele>106.0</ele><time>2026-04-15T15:34:01.033Z</time></trkpt><trkpt lat="43.7955569" lon="11.0337576"><ele>106.0</ele><time>2026-04-15T15:34:02.034Z</time></trkpt><trkpt lat="43.7954152" lon="11.033729"><ele>106.0</ele><time>2026-04-15T15:34:03.037Z</time></trkpt><trkpt lat="43.7952857" lon="11.0336304"><ele>106.0</ele><time>2026-04-15T15:34:04.036Z</time></trkpt><trkpt lat="43.7951495" lon="11.0334964"><ele>105.75</ele><time>2026-04-15T15:34:05.013Z</time></trkpt><trkpt lat="43.7950046" lon="11.0333776"><ele>105.5</ele><time>2026-04-15T15:34:06.049Z</time></trkpt><trkpt lat="43.7948709" lon="11.0332965"><ele>105.25</ele><time>2026-04-15T15:34:07.018Z</time></trkpt><trkpt lat="43.7947786" lon="11.0332174"><ele>105.0</ele><time>2026-04-15T15:34:08.037Z</time></trkpt><trkpt lat="43.7947294" lon="11.0330638"><ele>102.0</ele><time>2026-04-15T15:34:09.009Z</time></trkpt><trkpt lat="43.7946921" lon="11.032895"><ele>99.0</ele><time>2026-04-15T15:34:10.016Z</time></trkpt><trkpt lat="43.7946512" lon="11.0327201"><ele>96.0</ele><time>2026-04-15T15:34:11.037Z</time></trkpt><trkpt lat="43.7945858" lon="11.0325812"><ele>93.0</ele><time>2026-04-15T15:34:12.034Z</time></trkpt><trkpt lat="43.7944745" lon="11.0324806"><ele>89.0</ele><time>2026-04-15T15:34:13.007Z</time></trkpt><trkpt lat="43.7943276" lon="11.0324187"><ele>85.0</ele><time>2026-04-15T15:34:13.995Z</time></trkpt><trkpt lat="43.7941621" lon="11.0324175"><ele>81.0</ele><time>2026-04-15T15:34:15.04Z</time></trkpt><trkpt lat="43.7939847" lon="11.0324184"><ele>81.0</ele><time>2026-04-15T15:34:16.043Z</time></trkpt><trkpt lat="43.7938342" lon="11.0323954"><ele>81.0</ele><time>2026-04-15T15:34:17.037Z</time></trkpt><trkpt lat="43.7937117" lon="11.0323755"><ele>81.0</ele><time>2026-04-15T15:34:18.028Z</time></trkpt><trkpt lat="43.7935814" lon="11.032365"><ele>81.0</ele><time>2026-04-15T15:34:19.027Z</time></trkpt><trkpt lat="43.7934271" lon="11.0324362"><ele>81.0</ele><time>2026-04-15T15:34:20.036Z</time></trkpt><trkpt lat="43.7932509" lon="11.0325048"><ele>81.0</ele><time>2026-04-15T15:34:21.045Z</time></trkpt><trkpt lat="43.793072" lon="11.0325086"><ele>81.0</ele><time>2026-04-15T15:34:22.04Z</time></trkpt><trkpt lat="43.7929065" lon="11.0325195"><ele>81.0</ele><time>2026-04-15T15:34:23.034Z</time></trkpt><trkpt lat="43.7927492" lon="11.0325658"><ele>81.0</ele><time>2026-04-15T15:34:23.994Z</time></trkpt><trkpt lat="43.7925596" lon="11.0326492"><ele>81.0</ele><time>2026-04-15T15:34:25.018Z</time></trkpt><trkpt lat="43.7923594" lon="11.0327697"><ele>76.5</ele><time>2026-04-15T15:34:26.046Z</time></trkpt><trkpt lat="43.7921716" lon="11.0329619"><ele>72.0</ele><time>2026-04-15T15:34:27.022Z</time></trkpt><trkpt lat="43.7919868" lon="11.0331411"><ele>73.0</ele><time>2026-04-15T15:34:28.022Z</time></trkpt><trkpt lat="43.7918181" lon="11.033321"><ele>74.0</ele><time>2026-04-15T15:34:29.026Z</time></trkpt><trkpt lat="43.7916736" lon="11.0334707"><ele>75.0</ele><time>2026-04-15T15:34:30.024Z</time></trkpt><trkpt lat="43.7915392" lon="11.0335855"><ele>75.0</ele><time>2026-04-15T15:34:31.016Z</time></trkpt><trkpt lat="43.791396" lon="11.0336355"><ele>75.0</ele><time>2026-04-15T15:34:32.027Z</time></trkpt><trkpt lat="43.791265" lon="11.0336256"><ele>75.0</ele><time>2026-04-15T15:34:33.017Z</time></trkpt><trkpt lat="43.7911393" lon="11.0335904"><ele>75.0</ele><time>2026-04-15T15:34:34.033Z</time></trkpt><trkpt lat="43.7910199" lon="11.0335365"><ele>74.0</ele><time>2026-04-15T15:34:35.027Z</time></trkpt><trkpt lat="43.7908917" lon="11.0334888"><ele>73.0</ele><time>2026-04-15T15:34:36.014Z</time></trkpt><trkpt lat="43.7907665" lon="11.033454"><ele>72.0</ele><time>2026-04-15T15:34:37.012Z</time></trkpt><trkpt lat="43.7906284" lon="11.0334264"><ele>71.0</ele><time>2026-04-15T15:34:38.044Z</time></trkpt><trkpt lat="43.7904775" lon="11.0334095"><ele>71.0</ele><time>2026-04-15T15:34:39.027Z</time></trkpt><trkpt lat="43.7903217" lon="11.0333882"><ele>71.0</ele><time>2026-04-15T15:34:40.035Z</time></trkpt><trkpt lat="43.7901728" lon="11.0333473"><ele>71.0</ele><time>2026-04-15T15:34:41.024Z</time></trkpt><trkpt lat="43.7900201" lon="11.0332527"><ele>72.33333333333334</ele><time>2026-04-15T15:34:42.027Z</time></trkpt><trkpt lat="43.7898744" lon="11.0331013"><ele>73.66666666666667</ele><time>2026-04-15T15:34:43.042Z</time></trkpt><trkpt lat="43.7897241" lon="11.0329254"><ele>75.0</ele><time>2026-04-15T15:34:44.023Z</time></trkpt><trkpt lat="43.7895632" lon="11.0327698"><ele>75.0</ele><time>2026-04-15T15:34:45.022Z</time></trkpt><trkpt lat="43.7894057" lon="11.0326364"><ele>75.0</ele><time>2026-04-15T15:34:46.003Z</time></trkpt><trkpt lat="43.7892577" lon="11.0324848"><ele>75.0</ele><time>2026-04-15T15:34:47.022Z</time></trkpt><trkpt lat="43.7891249" lon="11.0322803"><ele>71.0</ele><time>2026-04-15T15:34:48.024Z</time></trkpt><trkpt lat="43.7890007" lon="11.0320353"><ele>67.0</ele><time>2026-04-15T15:34:49.03Z</time></trkpt><trkpt lat="43.7888756" lon="11.0317566"><ele>67.33333333333333</ele><time>2026-04-15T15:34:50.019Z</time></trkpt><trkpt lat="43.7887626" lon="11.0314855"><ele>67.66666666666667</ele><time>2026-04-15T15:34:51.024Z</time></trkpt><trkpt lat="43.7886711" lon="11.0312089"><ele>68.0</ele><time>2026-04-15T15:34:52.015Z</time></trkpt><trkpt lat="43.7886028" lon="11.0309628"><ele>69.0</ele><time>2026-04-15T15:34:53.038Z</time></trkpt><trkpt lat="43.7885377" lon="11.0307422"><ele>70.0</ele><time>2026-04-15T15:34:54.025Z</time></trkpt><trkpt lat="43.7884448" lon="11.0305428"><ele>71.0</ele><time>2026-04-15T15:34:55.029Z</time></trkpt><trkpt lat="43.7883258" lon="11.0303361"><ele>71.33333333333334</ele><time>2026-04-15T15:34:56.035Z</time></trkpt><trkpt lat="43.7882244" lon="11.0301209"><ele>71.66666666666667</ele><time>2026-04-15T15:34:57.028Z</time></trkpt><trkpt lat="43.7881588" lon="11.0299026"><ele>72.0</ele><time>2026-04-15T15:34:58.035Z</time></trkpt><trkpt lat="43.7881196" lon="11.0296669"><ele>73.0</ele><time>2026-04-15T15:34:59.002Z</time></trkpt><trkpt lat="43.7880961" lon="11.0294317"><ele>74.0</ele><time>2026-04-15T15:35:00.052Z</time></trkpt><trkpt lat="43.7880542" lon="11.0292247"><ele>75.0</ele><time>2026-04-15T15:35:01.032Z</time></trkpt><trkpt lat="43.7879796" lon="11.0290309"><ele>76.0</ele><time>2026-04-15T15:35:02.035Z</time></trkpt><trkpt lat="43.7878755" lon="11.0288359"><ele>77.0</ele><time>2026-04-15T15:35:03.009Z</time></trkpt><trkpt lat="43.7877562" lon="11.0286539"><ele>78.0</ele><time>2026-04-15T15:35:04.003Z</time></trkpt><trkpt lat="43.7876345" lon="11.0285087"><ele>78.0</ele><time>2026-04-15T15:35:05.029Z</time></trkpt><trkpt lat="43.7875228" lon="11.0284026"><ele>78.0</ele><time>2026-04-15T15:35:06.024Z</time></trkpt><trkpt lat="43.7874167" lon="11.0283227"><ele>78.0</ele><time>2026-04-15T15:35:07.021Z</time></trkpt><trkpt lat="43.7873015" lon="11.0282625"><ele>78.0</ele><time>2026-04-15T15:35:08.026Z</time></trkpt><trkpt lat="43.7871853" lon="11.0282171"><ele>79.5</ele><time>2026-04-15T15:35:09.017Z</time></trkpt><trkpt lat="43.7870599" lon="11.0281827"><ele>81.0</ele><time>2026-04-15T15:35:10.027Z</time></trkpt><trkpt lat="43.7869418" lon="11.0281445"><ele>82.5</ele><time>2026-04-15T15:35:10.993Z</time></trkpt><trkpt lat="43.7868296" lon="11.0280939"><ele>84.0</ele><time>2026-04-15T15:35:12.037Z</time></trkpt><trkpt lat="43.7867253" lon="11.0280134"><ele>84.0</ele><time>2026-04-15T15:35:13.015Z</time></trkpt><trkpt lat="43.786627" lon="11.0279105"><ele>84.0</ele><time>2026-04-15T15:35:14.029Z</time></trkpt><trkpt lat="43.7865329" lon="11.0277941"><ele>84.0</ele><time>2026-04-15T15:35:15.003Z</time></trkpt><trkpt lat="43.7864339" lon="11.0276793"><ele>84.0</ele><time>2026-04-15T15:35:16.019Z</time></trkpt><trkpt lat="43.7863363" lon="11.0275678"><ele>83.75</ele><time>2026-04-15T15:35:17.018Z</time></trkpt><trkpt lat="43.7862322" lon="11.0274641"><ele>83.5</ele><time>2026-04-15T15:35:18.019Z</time></trkpt><trkpt lat="43.7861164" lon="11.0273839"><ele>83.25</ele><time>2026-04-15T15:35:19.002Z</time></trkpt><trkpt lat="43.7860039" lon="11.0273165"><ele>83.0</ele><time>2026-04-15T15:35:20.027Z</time></trkpt><trkpt lat="43.785908" lon="11.0272726"><ele>83.0</ele><time>2026-04-15T15:35:21.021Z</time></trkpt><trkpt lat="43.7858216" lon="11.0272597"><ele>83.0</ele><time>2026-04-15T15:35:22.005Z</time></trkpt><trkpt lat="43.7857455" lon="11.0272713"><ele>83.0</ele><time>2026-04-15T15:35:22.995Z</time></trkpt><trkpt lat="43.7856626" lon="11.0273215"><ele>83.0</ele><time>2026-04-15T15:35:24.028Z</time></trkpt><trkpt lat="43.7855606" lon="11.0273942"><ele>83.0</ele><time>2026-04-15T15:35:25.001Z</time></trkpt><trkpt lat="43.7854419" lon="11.0274528"><ele>82.5</ele><time>2026-04-15T15:35:26.017Z</time></trkpt><trkpt lat="43.7853164" lon="11.0274906"><ele>82.0</ele><time>2026-04-15T15:35:27.034Z</time></trkpt><trkpt lat="43.785196" lon="11.0275184"><ele>81.5</ele><time>2026-04-15T15:35:28.007Z</time></trkpt><trkpt lat="43.7850731" lon="11.0275429"><ele>81.0</ele><time>2026-04-15T15:35:29.031Z</time></trkpt><trkpt lat="43.7849427" lon="11.0275822"><ele>83.75</ele><time>2026-04-15T15:35:30.029Z</time></trkpt><trkpt lat="43.7848134" lon="11.0276266"><ele>86.5</ele><time>2026-04-15T15:35:30.994Z</time></trkpt><trkpt lat="43.784695" lon="11.027709"><ele>89.25</ele><time>2026-04-15T15:35:32.031Z</time></trkpt><trkpt lat="43.7845837" lon="11.0278073"><ele>92.0</ele><time>2026-04-15T15:35:33.011Z</time></trkpt><trkpt lat="43.7844806" lon="11.0279144"><ele>92.0</ele><time>2026-04-15T15:35:34.029Z</time></trkpt><trkpt lat="43.7843763" lon="11.028018"><ele>92.0</ele><time>2026-04-15T15:35:35.025Z</time></trkpt><trkpt lat="43.7842573" lon="11.0281119"><ele>92.0</ele><time>2026-04-15T15:35:36.013Z</time></trkpt><trkpt lat="43.7841132" lon="11.0281966"><ele>92.0</ele><time>2026-04-15T15:35:36.999Z</time></trkpt><trkpt lat="43.7839493" lon="11.0282569"><ele>95.33333333333334</ele><time>2026-04-15T15:35:38.036Z</time></trkpt><trkpt lat="43.7837522" lon="11.0283131"><ele>98.66666666666667</ele><time>2026-04-15T15:35:39.022Z</time></trkpt><trkpt lat="43.7835577" lon="11.0283576"><ele>102.0</ele><time>2026-04-15T15:35:40.026Z</time></trkpt><trkpt lat="43.783384" lon="11.0283872"><ele>106.0</ele><time>2026-04-15T15:35:41.016Z</time></trkpt><trkpt lat="43.7832314" lon="11.0284078"><ele>110.0</ele><time>2026-04-15T15:35:42.01Z</time></trkpt><trkpt lat="43.7830636" lon="11.0284474"><ele>114.0</ele><time>2026-04-15T15:35:43.013Z</time></trkpt><trkpt lat="43.7828754" lon="11.0285025"><ele>119.0</ele><time>2026-04-15T15:35:44.025Z</time></trkpt><trkpt lat="43.7826726" lon="11.0285707"><ele>124.0</ele><time>2026-04-15T15:35:45.024Z</time></trkpt><trkpt lat="43.7824714" lon="11.0286361"><ele>129.0</ele><time>2026-04-15T15:35:46.021Z</time></trkpt><trkpt lat="43.7822754" lon="11.0286779"><ele>129.0</ele><time>2026-04-15T15:35:47.014Z</time></trkpt><trkpt lat="43.7820649" lon="11.0287106"><ele>129.0</ele><time>2026-04-15T15:35:48.015Z</time></trkpt><trkpt lat="43.781845" lon="11.0287355"><ele>129.0</ele><time>2026-04-15T15:35:49.016Z</time></trkpt><trkpt lat="43.781606" lon="11.0287566"><ele>138.0</ele><time>2026-04-15T15:35:49.99Z</time></trkpt><trkpt lat="43.7813618" lon="11.0287766"><ele>147.0</ele><time>2026-04-15T15:35:51.03Z</time></trkpt><trkpt lat="43.7811318" lon="11.0288002"><ele>151.0</ele><time>2026-04-15T15:35:51.982Z</time></trkpt><trkpt lat="43.7809179" lon="11.0288269"><ele>155.0</ele><time>2026-04-15T15:35:53.015Z</time></trkpt><trkpt lat="43.7807231" lon="11.028831"><ele>159.0</ele><time>2026-04-15T15:35:54.015Z</time></trkpt><trkpt lat="43.7805475" lon="11.0288224"><ele>159.0</ele><time>2026-04-15T15:35:55.011Z</time></trkpt><trkpt lat="43.7803857" lon="11.0288162"><ele>159.0</ele><time>2026-04-15T15:35:56.017Z</time></trkpt><trkpt lat="43.7802395" lon="11.0288081"><ele>159.0</ele><time>2026-04-15T15:35:57.023Z</time></trkpt><trkpt lat="43.7801236" lon="11.0288051"><ele>159.0</ele><time>2026-04-15T15:35:58.034Z</time></trkpt><trkpt lat="43.7800344" lon="11.0288317"><ele>159.0</ele><time>2026-04-15T15:35:59.028Z</time></trkpt><trkpt lat="43.7799507" lon="11.0288861"><ele>159.0</ele><time>2026-04-15T15:36:00.052Z</time></trkpt><trkpt lat="43.7798773" lon="11.0289885"><ele>159.0</ele><time>2026-04-15T15:36:01.002Z</time></trkpt><trkpt lat="43.7798335" lon="11.0291039"><ele>159.0</ele><time>2026-04-15T15:36:01.992Z</time></trkpt><trkpt lat="43.7798345" lon="11.0292364"><ele>159.0</ele><time>2026-04-15T15:36:03.012Z</time></trkpt><trkpt lat="43.7798822" lon="11.0293498"><ele>159.5</ele><time>2026-04-15T15:36:04.009Z</time></trkpt><trkpt lat="43.7799677" lon="11.0294379"><ele>160.0</ele><time>2026-04-15T15:36:04.995Z</time></trkpt><trkpt lat="43.7800952" lon="11.0295041"><ele>160.5</ele><time>2026-04-15T15:36:06.014Z</time></trkpt><trkpt lat="43.7802337" lon="11.029574"><ele>161.0</ele><time>2026-04-15T15:36:07.011Z</time></trkpt><trkpt lat="43.780372" lon="11.0296546"><ele>161.0</ele><time>2026-04-15T15:36:08.002Z</time></trkpt><trkpt lat="43.7804812" lon="11.0297442"><ele>161.0</ele><time>2026-04-15T15:36:08.99Z</time></trkpt><trkpt lat="43.7805139" lon="11.0298439"><ele>161.0</ele><time>2026-04-15T15:36:10.004Z</time></trkpt><trkpt lat="43.7804989" lon="11.0299501"><ele>161.0</ele><time>2026-04-15T15:36:11.029Z</time></trkpt><trkpt lat="43.7804373" lon="11.0300127"><ele>161.0</ele><time>2026-04-15T15:36:12.011Z</time></trkpt><trkpt lat="43.7803561" lon="11.0300306"><ele>161.0</ele><time>2026-04-15T15:36:13Z</time></trkpt><trkpt lat="43.780269" lon="11.0300255"><ele>164.33333333333331</ele><time>2026-04-15T15:36:14.036Z</time></trkpt><trkpt lat="43.7801354" lon="11.0300478"><ele>167.66666666666666</ele><time>2026-04-15T15:36:15.018Z</time></trkpt><trkpt lat="43.7799663" lon="11.030105"><ele>171.0</ele><time>2026-04-15T15:36:16.029Z</time></trkpt><trkpt lat="43.7798058" lon="11.0302014"><ele>171.0</ele><time>2026-04-15T15:36:17.019Z</time></trkpt><trkpt lat="43.7796667" lon="11.0303314"><ele>171.0</ele><time>2026-04-15T15:36:18.003Z</time></trkpt><trkpt lat="43.7795669" lon="11.0305036"><ele>171.0</ele><time>2026-04-15T15:36:19.018Z</time></trkpt><trkpt lat="43.7794874" lon="11.0307523"><ele>171.0</ele><time>2026-04-15T15:36:20.024Z</time></trkpt><trkpt lat="43.7794185" lon="11.0310281"><ele>171.0</ele><time>2026-04-15T15:36:21.014Z</time></trkpt><trkpt lat="43.7793493" lon="11.0312691"><ele>171.0</ele><time>2026-04-15T15:36:22.021Z</time></trkpt><trkpt lat="43.7792597" lon="11.0314194"><ele>172.5</ele><time>2026-04-15T15:36:23.016Z</time></trkpt><trkpt lat="43.7791414" lon="11.0314957"><ele>174.0</ele><time>2026-04-15T15:36:24.026Z</time></trkpt><trkpt lat="43.7789993" lon="11.0315368"><ele>175.5</ele><time>2026-04-15T15:36:25.005Z</time></trkpt><trkpt lat="43.7788778" lon="11.0315873"><ele>177.0</ele><time>2026-04-15T15:36:26.023Z</time></trkpt><trkpt lat="43.7787696" lon="11.0316474"><ele>179.2</ele><time>2026-04-15T15:36:27.015Z</time></trkpt><trkpt lat="43.7786716" lon="11.0316957"><ele>181.39999999999998</ele><time>2026-04-15T15:36:28.022Z</time></trkpt><trkpt lat="43.7785976" lon="11.0317197"><ele>183.60000000000002</ele><time>2026-04-15T15:36:29.994Z</time></trkpt><trkpt lat="43.7785004" lon="11.0317564"><ele>185.8</ele><time>2026-04-15T15:36:31.984Z</time></trkpt><trkpt lat="43.7783562" lon="11.0317447"><ele>188.0</ele><time>2026-04-15T15:36:34.004Z</time></trkpt><trkpt lat="43.7782679" lon="11.0317393"><ele>188.2</ele><time>2026-04-15T15:36:34.986Z</time></trkpt><trkpt lat="43.778174" lon="11.0317506"><ele>188.4</ele><time>2026-04-15T15:36:35.992Z</time></trkpt><trkpt lat="43.7780824" lon="11.0317724"><ele>188.6</ele><time>2026-04-15T15:36:36.991Z</time></trkpt><trkpt lat="43.777976" lon="11.0317818"><ele>188.79999999999998</ele><time>2026-04-15T15:36:37.991Z</time></trkpt><trkpt lat="43.7778447" lon="11.0318062"><ele>189.0</ele><time>2026-04-15T15:36:38.99Z</time></trkpt><trkpt lat="43.7777005" lon="11.0318352"><ele>185.75</ele><time>2026-04-15T15:36:39.983Z</time></trkpt><trkpt lat="43.7775573" lon="11.031865"><ele>182.5</ele><time>2026-04-15T15:36:40.992Z</time></trkpt><trkpt lat="43.7774089" lon="11.0318949"><ele>179.25</ele><time>2026-04-15T15:36:41.986Z</time></trkpt><trkpt lat="43.7772559" lon="11.0319171"><ele>176.0</ele><time>2026-04-15T15:36:42.989Z</time></trkpt><trkpt lat="43.7771077" lon="11.0319331"><ele>176.0</ele><time>2026-04-15T15:36:43.993Z</time></trkpt><trkpt lat="43.7769585" lon="11.0319427"><ele>176.0</ele><time>2026-04-15T15:36:44.992Z</time></trkpt><trkpt lat="43.7768124" lon="11.0319533"><ele>176.0</ele><time>2026-04-15T15:36:45.994Z</time></trkpt><trkpt lat="43.7766618" lon="11.0319511"><ele>176.0</ele><time>2026-04-15T15:36:47.02Z</time></trkpt><trkpt lat="43.7765087" lon="11.0319458"><ele>171.75</ele><time>2026-04-15T15:36:48.029Z</time></trkpt><trkpt lat="43.7763561" lon="11.0319395"><ele>167.5</ele><time>2026-04-15T15:36:49.019Z</time></trkpt><trkpt lat="43.7762074" lon="11.0319404"><ele>163.25</ele><time>2026-04-15T15:36:50.014Z</time></trkpt><trkpt lat="43.7760667" lon="11.0319393"><ele>159.0</ele><time>2026-04-15T15:36:51.024Z</time></trkpt><trkpt lat="43.7759357" lon="11.0319431"><ele>157.6</ele><time>2026-04-15T15:36:52.023Z</time></trkpt><trkpt lat="43.7758138" lon="11.0319481"><ele>156.2</ele><time>2026-04-15T15:36:53.018Z</time></trkpt><trkpt lat="43.775704" lon="11.0319561"><ele>154.79999999999998</ele><time>2026-04-15T15:36:54.025Z</time></trkpt><trkpt lat="43.7756038" lon="11.0319828"><ele>153.4</ele><time>2026-04-15T15:36:55.017Z</time></trkpt><trkpt lat="43.7755215" lon="11.0320359"><ele>152.0</ele><time>2026-04-15T15:36:56.021Z</time></trkpt><trkpt lat="43.775443" lon="11.0321087"><ele>152.0</ele><time>2026-04-15T15:36:57.005Z</time></trkpt><trkpt lat="43.7753465" lon="11.032201"><ele>152.0</ele><time>2026-04-15T15:36:58.014Z</time></trkpt><trkpt lat="43.7752165" lon="11.0323068"><ele>152.0</ele><time>2026-04-15T15:36:59.021Z</time></trkpt><trkpt lat="43.7750437" lon="11.0324435"><ele>149.5</ele><time>2026-04-15T15:37:00.01Z</time></trkpt><trkpt lat="43.7748416" lon="11.0326035"><ele>147.0</ele><time>2026-04-15T15:37:00.984Z</time></trkpt><trkpt lat="43.7746328" lon="11.0327634"><ele>147.0</ele><time>2026-04-15T15:37:02.013Z</time></trkpt><trkpt lat="43.774418" lon="11.0329345"><ele>147.0</ele><time>2026-04-15T15:37:03.017Z</time></trkpt><trkpt lat="43.7742055" lon="11.0331017"><ele>146.5</ele><time>2026-04-15T15:37:04.018Z</time></trkpt><trkpt lat="43.7740014" lon="11.0332651"><ele>146.0</ele><time>2026-04-15T15:37:05.031Z</time></trkpt><trkpt lat="43.7738069" lon="11.0334246"><ele>141.33333333333331</ele><time>2026-04-15T15:37:06.016Z</time></trkpt><trkpt lat="43.7736238" lon="11.0335736"><ele>136.66666666666666</ele><time>2026-04-15T15:37:06.991Z</time></trkpt><trkpt lat="43.7734473" lon="11.0337069"><ele>132.0</ele><time>2026-04-15T15:37:08.012Z</time></trkpt><trkpt lat="43.7732894" lon="11.0338284"><ele>132.0</ele><time>2026-04-15T15:37:09.013Z</time></trkpt><trkpt lat="43.7731577" lon="11.0339376"><ele>132.0</ele><time>2026-04-15T15:37:10.031Z</time></trkpt><trkpt lat="43.7730434" lon="11.0340259"><ele>132.0</ele><time>2026-04-15T15:37:11.002Z</time></trkpt><trkpt lat="43.7729103" lon="11.0340689"><ele>132.0</ele><time>2026-04-15T15:37:12.011Z</time></trkpt><trkpt lat="43.7727538" lon="11.0340746"><ele>127.0</ele><time>2026-04-15T15:37:12.979Z</time></trkpt><trkpt lat="43.7725672" lon="11.0340814"><ele>122.0</ele><time>2026-04-15T15:37:13.998Z</time></trkpt><trkpt lat="43.7723887" lon="11.0340978"><ele>117.0</ele><time>2026-04-15T15:37:14.976Z</time></trkpt><trkpt lat="43.7722367" lon="11.0341122"><ele>117.0</ele><time>2026-04-15T15:37:16.011Z</time></trkpt><trkpt lat="43.7720964" lon="11.03412"><ele>117.0</ele><time>2026-04-15T15:37:17.016Z</time></trkpt><trkpt lat="43.7719548" lon="11.0340957"><ele>117.0</ele><time>2026-04-15T15:37:18.006Z</time></trkpt><trkpt lat="43.7718181" lon="11.034024"><ele>117.0</ele><time>2026-04-15T15:37:19.007Z</time></trkpt><trkpt lat="43.7716922" lon="11.033911"><ele>113.5</ele><time>2026-04-15T15:37:20.001Z</time></trkpt><trkpt lat="43.7715883" lon="11.0337633"><ele>110.0</ele><time>2026-04-15T15:37:21.002Z</time></trkpt><trkpt lat="43.7715022" lon="11.0336211"><ele>106.5</ele><time>2026-04-15T15:37:22.007Z</time></trkpt><trkpt lat="43.7714143" lon="11.0335011"><ele>103.0</ele><time>2026-04-15T15:37:23.005Z</time></trkpt><trkpt lat="43.7712913" lon="11.0334024"><ele>103.0</ele><time>2026-04-15T15:37:24.017Z</time></trkpt><trkpt lat="43.7711402" lon="11.0333198"><ele>103.0</ele><time>2026-04-15T15:37:24.985Z</time></trkpt><trkpt lat="43.7709792" lon="11.0332593"><ele>103.0</ele><time>2026-04-15T15:37:25.981Z</time></trkpt><trkpt lat="43.770824" lon="11.0331927"><ele>100.66666666666667</ele><time>2026-04-15T15:37:26.976Z</time></trkpt><trkpt lat="43.77067" lon="11.0331282"><ele>98.33333333333334</ele><time>2026-04-15T15:37:27.995Z</time></trkpt><trkpt lat="43.7705015" lon="11.0331013"><ele>96.0</ele><time>2026-04-15T15:37:29.007Z</time></trkpt><trkpt lat="43.770301" lon="11.0331075"><ele>92.33333333333333</ele><time>2026-04-15T15:37:30.013Z</time></trkpt><trkpt lat="43.7700789" lon="11.0331177"><ele>88.66666666666666</ele><time>2026-04-15T15:37:30.998Z</time></trkpt><trkpt lat="43.769854" lon="11.0330911"><ele>85.0</ele><time>2026-04-15T15:37:32.007Z</time></trkpt><trkpt lat="43.769655" lon="11.0330653"><ele>85.0</ele><time>2026-04-15T15:37:33.017Z</time></trkpt><trkpt lat="43.7694847" lon="11.0330176"><ele>85.0</ele><time>2026-04-15T15:37:33.971Z</time></trkpt><trkpt lat="43.7693381" lon="11.0329622"><ele>85.0</ele><time>2026-04-15T15:37:34.987Z</time></trkpt><trkpt lat="43.7692028" lon="11.0329142"><ele>82.0</ele><time>2026-04-15T15:37:35.999Z</time></trkpt><trkpt lat="43.7690663" lon="11.0328717"><ele>79.0</ele><time>2026-04-15T15:37:37.009Z</time></trkpt><trkpt lat="43.7689371" lon="11.0328496"><ele>76.0</ele><time>2026-04-15T15:37:38.008Z</time></trkpt><trkpt lat="43.7688092" lon="11.0328623"><ele>73.0</ele><time>2026-04-15T15:37:38.988Z</time></trkpt><trkpt lat="43.7686844" lon="11.0329104"><ele>73.0</ele><time>2026-04-15T15:37:39.994Z</time></trkpt><trkpt lat="43.7685699" lon="11.0329951"><ele>73.0</ele><time>2026-04-15T15:37:41.007Z</time></trkpt><trkpt lat="43.7684753" lon="11.033114"><ele>73.0</ele><time>2026-04-15T15:37:42.007Z</time></trkpt><trkpt lat="43.7683853" lon="11.0332638"><ele>73.0</ele><time>2026-04-15T15:37:43.017Z</time></trkpt><trkpt lat="43.7683025" lon="11.0334251"><ele>70.5</ele><time>2026-04-15T15:37:44.014Z</time></trkpt><trkpt lat="43.7682237" lon="11.0335598"><ele>68.0</ele><time>2026-04-15T15:37:44.999Z</time></trkpt><trkpt lat="43.7681595" lon="11.0336616"><ele>65.5</ele><time>2026-04-15T15:37:46.011Z</time></trkpt><trkpt lat="43.7681076" lon="11.0337414"><ele>63.0</ele><time>2026-04-15T15:37:47.006Z</time></trkpt><trkpt lat="43.7680677" lon="11.0338135"><ele>60.49999999999999</ele><time>2026-04-15T15:37:48.009Z</time></trkpt><trkpt lat="43.7680212" lon="11.0338844"><ele>58.0</ele><time>2026-04-15T15:37:49.004Z</time></trkpt><trkpt lat="43.7679646" lon="11.0339315"><ele>57.99999999999999</ele><time>2026-04-15T15:37:49.981Z</time></trkpt><trkpt lat="43.7678972" lon="11.0339453"><ele>58.0</ele><time>2026-04-15T15:37:51.003Z</time></trkpt><trkpt lat="43.7677796" lon="11.0339088"><ele>58.0</ele><time>2026-04-15T15:37:53.003Z</time></trkpt><trkpt lat="43.7677071" lon="11.0338894"><ele>58.0</ele><time>2026-04-15T15:37:53.999Z</time></trkpt><trkpt lat="43.7676341" lon="11.0338908"><ele>57.99999999999999</ele><time>2026-04-15T15:37:55.007Z</time></trkpt><trkpt lat="43.7675529" lon="11.0339067"><ele>58.0</ele><time>2026-04-15T15:37:55.997Z</time></trkpt><trkpt lat="43.7674832" lon="11.033944"><ele>54.599999999999994</ele><time>2026-04-15T15:37:56.986Z</time></trkpt><trkpt lat="43.7674237" lon="11.0339862"><ele>51.199999999999996</ele><time>2026-04-15T15:37:58.022Z</time></trkpt><trkpt lat="43.7673154" lon="11.0340485"><ele>47.8</ele><time>2026-04-15T15:38:00.016Z</time></trkpt><trkpt lat="43.7672015" lon="11.0341191"><ele>44.4</ele><time>2026-04-15T15:38:02.002Z</time></trkpt><trkpt lat="43.767082" lon="11.0341985"><ele>41.0</ele><time>2026-04-15T15:38:04.009Z</time></trkpt><trkpt lat="43.7670174" lon="11.0342365"><ele>40.166666666666664</ele><time>2026-04-15T15:38:04.988Z</time></trkpt><trkpt lat="43.7669477" lon="11.0342768"><ele>39.33333333333333</ele><time>2026-04-15T15:38:05.972Z</time></trkpt><trkpt lat="43.7668713" lon="11.0343228"><ele>38.5</ele><time>2026-04-15T15:38:06.996Z</time></trkpt><trkpt lat="43.7667917" lon="11.0343733"><ele>37.666666666666664</ele><time>2026-04-15T15:38:08.008Z</time></trkpt><trkpt lat="43.7667077" lon="11.0344299"><ele>36.833333333333336</ele><time>2026-04-15T15:38:09.008Z</time></trkpt><trkpt lat="43.7666208" lon="11.034484"><ele>36.0</ele><time>2026-04-15T15:38:10.002Z</time></trkpt><trkpt lat="43.7665305" lon="11.0345386"><ele>34.833333333333336</ele><time>2026-04-15T15:38:11.002Z</time></trkpt><trkpt lat="43.7664476" lon="11.0345916"><ele>33.666666666666664</ele><time>2026-04-15T15:38:11.997Z</time></trkpt><trkpt lat="43.7663765" lon="11.0346366"><ele>32.5</ele><time>2026-04-15T15:38:13.017Z</time></trkpt><trkpt lat="43.7663133" lon="11.0346645"><ele>31.333333333333332</ele><time>2026-04-15T15:38:13.998Z</time></trkpt><trkpt lat="43.7662507" lon="11.0346552"><ele>30.166666666666664</ele><time>2026-04-15T15:38:14.991Z</time></trkpt><trkpt lat="43.7661947" lon="11.0345822"><ele>29.0</ele><time>2026-04-15T15:38:16.012Z</time></trkpt><trkpt lat="43.7661567" lon="11.0344778"><ele>28.999999999999996</ele><time>2026-04-15T15:38:17.017Z</time></trkpt><trkpt lat="43.7661328" lon="11.0343692"><ele>29.0</ele><time>2026-04-15T15:38:17.992Z</time></trkpt><trkpt lat="43.7661042" lon="11.0342681"><ele>29.0</ele><time>2026-04-15T15:38:18.999Z</time></trkpt><trkpt lat="43.7660676" lon="11.0341616"><ele>29.0</ele><time>2026-04-15T15:38:20.014Z</time></trkpt><trkpt lat="43.7660276" lon="11.0340372"><ele>28.999999999999996</ele><time>2026-04-15T15:38:21.014Z</time></trkpt><trkpt lat="43.7659865" lon="11.0339062"><ele>29.0</ele><time>2026-04-15T15:38:21.977Z</time></trkpt><trkpt lat="43.7659563" lon="11.033789"><ele>29.4</ele><time>2026-04-15T15:38:23.007Z</time></trkpt><trkpt lat="43.7659218" lon="11.0336855"><ele>29.799999999999997</ele><time>2026-04-15T15:38:24Z</time></trkpt><trkpt lat="43.7658845" lon="11.0335726"><ele>30.200000000000003</ele><time>2026-04-15T15:38:24.998Z</time></trkpt><trkpt lat="43.7658398" lon="11.0334435"><ele>30.6</ele><time>2026-04-15T15:38:26.004Z</time></trkpt><trkpt lat="43.7657912" lon="11.0333108"><ele>31.0</ele><time>2026-04-15T15:38:27.002Z</time></trkpt><trkpt lat="43.765741" lon="11.0331715"><ele>31.0</ele><time>2026-04-15T15:38:28.005Z</time></trkpt><trkpt lat="43.7656984" lon="11.0330445"><ele>31.0</ele><time>2026-04-15T15:38:28.976Z</time></trkpt><trkpt lat="43.7656567" lon="11.0329224"><ele>31.0</ele><time>2026-04-15T15:38:29.997Z</time></trkpt><trkpt lat="43.7656179" lon="11.0328111"><ele>31.0</ele><time>2026-04-15T15:38:31.01Z</time></trkpt><trkpt lat="43.765574" lon="11.0327245"><ele>31.0</ele><time>2026-04-15T15:38:31.984Z</time></trkpt><trkpt lat="43.7654681" lon="11.0326991"><ele>31.0</ele><time>2026-04-15T15:38:33.979Z</time></trkpt><trkpt lat="43.7653759" lon="11.0327538"><ele>31.0</ele><time>2026-04-15T15:38:35.981Z</time></trkpt><trkpt lat="43.7652667" lon="11.0328774"><ele>31.0</ele><time>2026-04-15T15:38:37.981Z</time></trkpt><trkpt lat="43.7651864" lon="11.0329369"><ele>31.0</ele><time>2026-04-15T15:38:38.985Z</time></trkpt><trkpt lat="43.7650998" lon="11.0330112"><ele>31.0</ele><time>2026-04-15T15:38:40.005Z</time></trkpt><trkpt lat="43.7650322" lon="11.0330661"><ele>31.8</ele><time>2026-04-15T15:38:41.001Z</time></trkpt><trkpt lat="43.7649674" lon="11.0331272"><ele>32.6</ele><time>2026-04-15T15:38:41.978Z</time></trkpt><trkpt lat="43.764909" lon="11.0331768"><ele>33.4</ele><time>2026-04-15T15:38:42.979Z</time></trkpt><trkpt lat="43.7648475" lon="11.0332187"><ele>34.2</ele><time>2026-04-15T15:38:43.984Z</time></trkpt><trkpt lat="43.7647343" lon="11.0332551"><ele>35.0</ele><time>2026-04-15T15:38:45.981Z</time></trkpt><trkpt lat="43.7646063" lon="11.0331476"><ele>35.0</ele><time>2026-04-15T15:38:48.008Z</time></trkpt><trkpt lat="43.7645406" lon="11.0330302"><ele>35.0</ele><time>2026-04-15T15:38:48.983Z</time></trkpt><trkpt lat="43.7644749" lon="11.0328847"><ele>35.0</ele><time>2026-04-15T15:38:49.989Z</time></trkpt><trkpt lat="43.7643965" lon="11.0327255"><ele>35.0</ele><time>2026-04-15T15:38:50.997Z</time></trkpt><trkpt lat="43.7643069" lon="11.0325754"><ele>35.0</ele><time>2026-04-15T15:38:52.004Z</time></trkpt><trkpt lat="43.7642193" lon="11.0324273"><ele>35.0</ele><time>2026-04-15T15:38:53.006Z</time></trkpt><trkpt lat="43.7641318" lon="11.032274"><ele>35.0</ele><time>2026-04-15T15:38:54.006Z</time></trkpt><trkpt lat="43.7640492" lon="11.0321234"><ele>35.0</ele><time>2026-04-15T15:38:54.992Z</time></trkpt><trkpt lat="43.7639522" lon="11.0319755"><ele>35.0</ele><time>2026-04-15T15:38:55.997Z</time></trkpt><trkpt lat="43.7638385" lon="11.0318335"><ele>35.0</ele><time>2026-04-15T15:38:56.998Z</time></trkpt><trkpt lat="43.7637115" lon="11.0316569"><ele>35.0</ele><time>2026-04-15T15:38:57.991Z</time></trkpt><trkpt lat="43.7635907" lon="11.0314721"><ele>36.0</ele><time>2026-04-15T15:38:58.994Z</time></trkpt><trkpt lat="43.7634817" lon="11.0313046"><ele>37.0</ele><time>2026-04-15T15:38:59.995Z</time></trkpt><trkpt lat="43.7633605" lon="11.0311466"><ele>38.0</ele><time>2026-04-15T15:39:00.994Z</time></trkpt><trkpt lat="43.7632408" lon="11.0309981"><ele>38.0</ele><time>2026-04-15T15:39:01.988Z</time></trkpt><trkpt lat="43.763123" lon="11.0308425"><ele>38.0</ele><time>2026-04-15T15:39:02.982Z</time></trkpt><trkpt lat="43.7630113" lon="11.0306955"><ele>38.0</ele><time>2026-04-15T15:39:03.96Z</time></trkpt><trkpt lat="43.7628837" lon="11.0305748"><ele>37.0</ele><time>2026-04-15T15:39:04.987Z</time></trkpt><trkpt lat="43.7627519" lon="11.0304627"><ele>36.0</ele><time>2026-04-15T15:39:05.983Z</time></trkpt><trkpt lat="43.7626218" lon="11.0303552"><ele>35.0</ele><time>2026-04-15T15:39:06.988Z</time></trkpt><trkpt lat="43.7624913" lon="11.0302436"><ele>35.0</ele><time>2026-04-15T15:39:07.97Z</time></trkpt><trkpt lat="43.7623382" lon="11.0301754"><ele>35.0</ele><time>2026-04-15T15:39:08.982Z</time></trkpt><trkpt lat="43.7621788" lon="11.030132"><ele>35.0</ele><time>2026-04-15T15:39:09.993Z</time></trkpt><trkpt lat="43.7620206" lon="11.0300859"><ele>36.0</ele><time>2026-04-15T15:39:10.988Z</time></trkpt><trkpt lat="43.761854" lon="11.0300486"><ele>37.0</ele><time>2026-04-15T15:39:11.999Z</time></trkpt><trkpt lat="43.7616933" lon="11.0300025"><ele>38.0</ele><time>2026-04-15T15:39:12.974Z</time></trkpt><trkpt lat="43.7615193" lon="11.0299372"><ele>36.0</ele><time>2026-04-15T15:39:13.988Z</time></trkpt><trkpt lat="43.7613601" lon="11.0298808"><ele>34.0</ele><time>2026-04-15T15:39:14.982Z</time></trkpt><trkpt lat="43.7611996" lon="11.0298303"><ele>32.0</ele><time>2026-04-15T15:39:15.98Z</time></trkpt><trkpt lat="43.7610373" lon="11.0297679"><ele>32.33333333333333</ele><time>2026-04-15T15:39:16.986Z</time></trkpt><trkpt lat="43.7608793" lon="11.0297167"><ele>32.666666666666664</ele><time>2026-04-15T15:39:17.969Z</time></trkpt><trkpt lat="43.7607157" lon="11.0296671"><ele>33.0</ele><time>2026-04-15T15:39:18.99Z</time></trkpt><trkpt lat="43.7605412" lon="11.0296233"><ele>33.0</ele><time>2026-04-15T15:39:19.979Z</time></trkpt><trkpt lat="43.7603718" lon="11.0295908"><ele>33.0</ele><time>2026-04-15T15:39:20.971Z</time></trkpt><trkpt lat="43.7602077" lon="11.0295681"><ele>33.0</ele><time>2026-04-15T15:39:21.948Z</time></trkpt><trkpt lat="43.7600351" lon="11.0295544"><ele>33.0</ele><time>2026-04-15T15:39:22.982Z</time></trkpt><trkpt lat="43.7598579" lon="11.0295422"><ele>33.0</ele><time>2026-04-15T15:39:24.007Z</time></trkpt><trkpt lat="43.7596857" lon="11.0295361"><ele>33.0</ele><time>2026-04-15T15:39:24.974Z</time></trkpt><trkpt lat="43.7595127" lon="11.029536"><ele>33.333333333333336</ele><time>2026-04-15T15:39:25.995Z</time></trkpt><trkpt lat="43.7593422" lon="11.029547"><ele>33.66666666666667</ele><time>2026-04-15T15:39:26.99Z</time></trkpt><trkpt lat="43.7591697" lon="11.0295589"><ele>34.0</ele><time>2026-04-15T15:39:27.987Z</time></trkpt><trkpt lat="43.7590012" lon="11.0295695"><ele>34.0</ele><time>2026-04-15T15:39:28.991Z</time></trkpt><trkpt lat="43.7588275" lon="11.0295859"><ele>34.0</ele><time>2026-04-15T15:39:29.985Z</time></trkpt><trkpt lat="43.7586471" lon="11.0295984"><ele>34.0</ele><time>2026-04-15T15:39:30.983Z</time></trkpt><trkpt lat="43.7584716" lon="11.029624"><ele>33.0</ele><time>2026-04-15T15:39:31.981Z</time></trkpt><trkpt lat="43.7582977" lon="11.029657"><ele>32.0</ele><time>2026-04-15T15:39:32.981Z</time></trkpt><trkpt lat="43.7581209" lon="11.0296894"><ele>31.0</ele><time>2026-04-15T15:39:33.989Z</time></trkpt><trkpt lat="43.7579427" lon="11.029738"><ele>31.0</ele><time>2026-04-15T15:39:34.978Z</time></trkpt><trkpt lat="43.7577667" lon="11.0297826"><ele>31.0</ele><time>2026-04-15T15:39:35.951Z</time></trkpt><trkpt lat="43.7575973" lon="11.0298275"><ele>31.0</ele><time>2026-04-15T15:39:36.968Z</time></trkpt><trkpt lat="43.7574244" lon="11.02987"><ele>31.333333333333336</ele><time>2026-04-15T15:39:37.977Z</time></trkpt><trkpt lat="43.7572445" lon="11.0299145"><ele>31.666666666666664</ele><time>2026-04-15T15:39:38.981Z</time></trkpt><trkpt lat="43.7570526" lon="11.0299656"><ele>32.0</ele><time>2026-04-15T15:39:39.983Z</time></trkpt><trkpt lat="43.7568557" lon="11.0300156"><ele>32.666666666666664</ele><time>2026-04-15T15:39:40.963Z</time></trkpt><trkpt lat="43.7566585" lon="11.0300637"><ele>33.333333333333336</ele><time>2026-04-15T15:39:41.98Z</time></trkpt><trkpt lat="43.7564556" lon="11.030118"><ele>34.0</ele><time>2026-04-15T15:39:42.98Z</time></trkpt><trkpt lat="43.7562474" lon="11.0301753"><ele>34.0</ele><time>2026-04-15T15:39:43.98Z</time></trkpt><trkpt lat="43.7560395" lon="11.0302246"><ele>34.0</ele><time>2026-04-15T15:39:44.967Z</time></trkpt><trkpt lat="43.7558301" lon="11.0302674"><ele>34.0</ele><time>2026-04-15T15:39:45.982Z</time></trkpt><trkpt lat="43.7556184" lon="11.0303072"><ele>33.333333333333336</ele><time>2026-04-15T15:39:46.965Z</time></trkpt><trkpt lat="43.7554106" lon="11.030343"><ele>32.666666666666664</ele><time>2026-04-15T15:39:47.977Z</time></trkpt><trkpt lat="43.7552015" lon="11.0303834"><ele>32.0</ele><time>2026-04-15T15:39:48.968Z</time></trkpt><trkpt lat="43.7549949" lon="11.030426"><ele>32.0</ele><time>2026-04-15T15:39:49.958Z</time></trkpt><trkpt lat="43.7547954" lon="11.0304843"><ele>32.0</ele><time>2026-04-15T15:39:50.955Z</time></trkpt><trkpt lat="43.7546135" lon="11.0305808"><ele>32.0</ele><time>2026-04-15T15:39:51.991Z</time></trkpt><trkpt lat="43.7544376" lon="11.0307142"><ele>32.666666666666664</ele><time>2026-04-15T15:39:52.979Z</time></trkpt><trkpt lat="43.7542687" lon="11.0308726"><ele>33.333333333333336</ele><time>2026-04-15T15:39:53.971Z</time></trkpt><trkpt lat="43.7541026" lon="11.0310258"><ele>34.0</ele><time>2026-04-15T15:39:54.971Z</time></trkpt><trkpt lat="43.7539344" lon="11.0311701"><ele>34.0</ele><time>2026-04-15T15:39:55.978Z</time></trkpt><trkpt lat="43.7537637" lon="11.031313"><ele>34.0</ele><time>2026-04-15T15:39:56.978Z</time></trkpt><trkpt lat="43.7535954" lon="11.0314581"><ele>34.0</ele><time>2026-04-15T15:39:58.078Z</time></trkpt><trkpt lat="43.7534205" lon="11.0316039"><ele>35.333333333333336</ele><time>2026-04-15T15:39:58.987Z</time></trkpt><trkpt lat="43.7532502" lon="11.0317483"><ele>36.666666666666664</ele><time>2026-04-15T15:39:59.983Z</time></trkpt><trkpt lat="43.7530691" lon="11.0318968"><ele>38.0</ele><time>2026-04-15T15:40:00.977Z</time></trkpt><trkpt lat="43.7528904" lon="11.0320245"><ele>36.0</ele><time>2026-04-15T15:40:01.977Z</time></trkpt><trkpt lat="43.752704" lon="11.0321393"><ele>34.0</ele><time>2026-04-15T15:40:02.986Z</time></trkpt><trkpt lat="43.7525143" lon="11.0322395"><ele>32.0</ele><time>2026-04-15T15:40:04.079Z</time></trkpt><trkpt lat="43.7523195" lon="11.0323294"><ele>33.5</ele><time>2026-04-15T15:40:05.08Z</time></trkpt><trkpt lat="43.7519257" lon="11.0324832"><ele>35.0</ele><time>2026-04-15T15:40:06.98Z</time></trkpt><trkpt lat="43.7517391" lon="11.0325759"><ele>35.0</ele><time>2026-04-15T15:40:07.978Z</time></trkpt><trkpt lat="43.7515503" lon="11.0326641"><ele>35.0</ele><time>2026-04-15T15:40:08.978Z</time></trkpt><trkpt lat="43.7513619" lon="11.0327543"><ele>35.0</ele><time>2026-04-15T15:40:10.074Z</time></trkpt><trkpt lat="43.7511764" lon="11.0328493"><ele>33.33333333333333</ele><time>2026-04-15T15:40:11.09Z</time></trkpt><trkpt lat="43.750993" lon="11.0329499"><ele>31.666666666666664</ele><time>2026-04-15T15:40:12.072Z</time></trkpt><trkpt lat="43.7508154" lon="11.0330517"><ele>30.0</ele><time>2026-04-15T15:40:12.985Z</time></trkpt><trkpt lat="43.7506341" lon="11.033154"><ele>30.0</ele><time>2026-04-15T15:40:13.963Z</time></trkpt><trkpt lat="43.7504529" lon="11.0332407"><ele>30.0</ele><time>2026-04-15T15:40:14.979Z</time></trkpt><trkpt lat="43.7502748" lon="11.0333284"><ele>30.0</ele><time>2026-04-15T15:40:16.076Z</time></trkpt><trkpt lat="43.7500953" lon="11.0334076"><ele>30.0</ele><time>2026-04-15T15:40:17.074Z</time></trkpt><trkpt lat="43.7499123" lon="11.0334781"><ele>30.0</ele><time>2026-04-15T15:40:18.081Z</time></trkpt><trkpt lat="43.7497275" lon="11.0335265"><ele>30.0</ele><time>2026-04-15T15:40:19.073Z</time></trkpt><trkpt lat="43.7493698" lon="11.0336205"><ele>30.0</ele><time>2026-04-15T15:40:21.075Z</time></trkpt><trkpt lat="43.7491921" lon="11.0336758"><ele>30.0</ele><time>2026-04-15T15:40:22.073Z</time></trkpt><trkpt lat="43.749019" lon="11.0337299"><ele>30.0</ele><time>2026-04-15T15:40:23.071Z</time></trkpt><trkpt lat="43.7488468" lon="11.033775"><ele>30.0</ele><time>2026-04-15T15:40:24.058Z</time></trkpt><trkpt lat="43.7486752" lon="11.033821"><ele>30.0</ele><time>2026-04-15T15:40:25.071Z</time></trkpt><trkpt lat="43.7485029" lon="11.0338588"><ele>30.0</ele><time>2026-04-15T15:40:26.078Z</time></trkpt><trkpt lat="43.7481617" lon="11.0339002"><ele>30.0</ele><time>2026-04-15T15:40:28.055Z</time></trkpt><trkpt lat="43.747986" lon="11.0339001"><ele>30.0</ele><time>2026-04-15T15:40:29.078Z</time></trkpt><trkpt lat="43.7478053" lon="11.0338815"><ele>30.0</ele><time>2026-04-15T15:40:30.069Z</time></trkpt><trkpt lat="43.7476305" lon="11.0338615"><ele>30.0</ele><time>2026-04-15T15:40:31.048Z</time></trkpt><trkpt lat="43.7474537" lon="11.0338341"><ele>30.0</ele><time>2026-04-15T15:40:32.056Z</time></trkpt><trkpt lat="43.7472783" lon="11.0338166"><ele>30.0</ele><time>2026-04-15T15:40:33.079Z</time></trkpt><trkpt lat="43.7471106" lon="11.0337878"><ele>30.0</ele><time>2026-04-15T15:40:34.069Z</time></trkpt><trkpt lat="43.7469442" lon="11.0337424"><ele>30.0</ele><time>2026-04-15T15:40:35.069Z</time></trkpt><trkpt lat="43.7467762" lon="11.0336922"><ele>30.0</ele><time>2026-04-15T15:40:36.054Z</time></trkpt><trkpt lat="43.7466105" lon="11.0336075"><ele>29.0</ele><time>2026-04-15T15:40:37.072Z</time></trkpt><trkpt lat="43.7464528" lon="11.0334867"><ele>28.0</ele><time>2026-04-15T15:40:38.081Z</time></trkpt><trkpt lat="43.7463047" lon="11.0333464"><ele>27.0</ele><time>2026-04-15T15:40:39.074Z</time></trkpt><trkpt lat="43.7461623" lon="11.0331854"><ele>31.666666666666664</ele><time>2026-04-15T15:40:40.072Z</time></trkpt><trkpt lat="43.7460171" lon="11.0330299"><ele>36.33333333333333</ele><time>2026-04-15T15:40:41.047Z</time></trkpt><trkpt lat="43.7458667" lon="11.0328766"><ele>41.0</ele><time>2026-04-15T15:40:42.047Z</time></trkpt><trkpt lat="43.7457235" lon="11.0327291"><ele>41.0</ele><time>2026-04-15T15:40:43.068Z</time></trkpt><trkpt lat="43.7455818" lon="11.032583"><ele>41.0</ele><time>2026-04-15T15:40:44.078Z</time></trkpt><trkpt lat="43.7454369" lon="11.0324533"><ele>41.0</ele><time>2026-04-15T15:40:45.059Z</time></trkpt><trkpt lat="43.7452897" lon="11.0323318"><ele>39.33333333333333</ele><time>2026-04-15T15:40:46.062Z</time></trkpt><trkpt lat="43.7451279" lon="11.0322148"><ele>37.666666666666664</ele><time>2026-04-15T15:40:47.059Z</time></trkpt><trkpt lat="43.7449576" lon="11.0321098"><ele>36.0</ele><time>2026-04-15T15:40:48.04Z</time></trkpt><trkpt lat="43.7447883" lon="11.0320118"><ele>36.0</ele><time>2026-04-15T15:40:49.071Z</time></trkpt><trkpt lat="43.7446168" lon="11.0319281"><ele>36.0</ele><time>2026-04-15T15:40:50.064Z</time></trkpt><trkpt lat="43.7444351" lon="11.0318466"><ele>36.0</ele><time>2026-04-15T15:40:51.044Z</time></trkpt><trkpt lat="43.744255" lon="11.0317741"><ele>34.0</ele><time>2026-04-15T15:40:52.051Z</time></trkpt><trkpt lat="43.7440616" lon="11.0317087"><ele>32.0</ele><time>2026-04-15T15:40:53.072Z</time></trkpt><trkpt lat="43.7438703" lon="11.0316455"><ele>30.0</ele><time>2026-04-15T15:40:54.067Z</time></trkpt><trkpt lat="43.7436829" lon="11.03158"><ele>31.0</ele><time>2026-04-15T15:40:55.073Z</time></trkpt><trkpt lat="43.743498" lon="11.0315166"><ele>32.0</ele><time>2026-04-15T15:40:56.075Z</time></trkpt><trkpt lat="43.7433155" lon="11.0314565"><ele>33.0</ele><time>2026-04-15T15:40:57.069Z</time></trkpt><trkpt lat="43.743126" lon="11.0314086"><ele>33.0</ele><time>2026-04-15T15:40:58.06Z</time></trkpt><trkpt lat="43.7429326" lon="11.0313809"><ele>33.0</ele><time>2026-04-15T15:40:59.068Z</time></trkpt><trkpt lat="43.7427399" lon="11.0313613"><ele>33.0</ele><time>2026-04-15T15:41:00.075Z</time></trkpt><trkpt lat="43.7425468" lon="11.031342"><ele>33.666666666666664</ele><time>2026-04-15T15:41:01.052Z</time></trkpt><trkpt lat="43.7423546" lon="11.0313261"><ele>34.33333333333333</ele><time>2026-04-15T15:41:02.061Z</time></trkpt><trkpt lat="43.7421607" lon="11.0313081"><ele>35.0</ele><time>2026-04-15T15:41:03.064Z</time></trkpt><trkpt lat="43.7419644" lon="11.031287"><ele>35.0</ele><time>2026-04-15T15:41:04.045Z</time></trkpt><trkpt lat="43.741766" lon="11.031264"><ele>35.0</ele><time>2026-04-15T15:41:05.061Z</time></trkpt><trkpt lat="43.741569" lon="11.0312281"><ele>35.0</ele><time>2026-04-15T15:41:06.076Z</time></trkpt><trkpt lat="43.7413772" lon="11.0311774"><ele>35.0</ele><time>2026-04-15T15:41:07.068Z</time></trkpt><trkpt lat="43.7411831" lon="11.0311141"><ele>35.0</ele><time>2026-04-15T15:41:08.051Z</time></trkpt><trkpt lat="43.7409827" lon="11.031024"><ele>35.0</ele><time>2026-04-15T15:41:09.059Z</time></trkpt><trkpt lat="43.7407818" lon="11.0309219"><ele>35.0</ele><time>2026-04-15T15:41:10.048Z</time></trkpt><trkpt lat="43.7405946" lon="11.0308117"><ele>35.0</ele><time>2026-04-15T15:41:11.042Z</time></trkpt><trkpt lat="43.7404079" lon="11.0307043"><ele>35.0</ele><time>2026-04-15T15:41:12.045Z</time></trkpt><trkpt lat="43.7402201" lon="11.0305929"><ele>37.33333333333333</ele><time>2026-04-15T15:41:13.05Z</time></trkpt><trkpt lat="43.7400341" lon="11.0304828"><ele>39.666666666666664</ele><time>2026-04-15T15:41:14.031Z</time></trkpt><trkpt lat="43.739855" lon="11.0303673"><ele>42.0</ele><time>2026-04-15T15:41:15.071Z</time></trkpt><trkpt lat="43.7396756" lon="11.0302508"><ele>42.0</ele><time>2026-04-15T15:41:16.067Z</time></trkpt><trkpt lat="43.739506" lon="11.0301371"><ele>42.0</ele><time>2026-04-15T15:41:17.062Z</time></trkpt><trkpt lat="43.7393388" lon="11.0300312"><ele>42.0</ele><time>2026-04-15T15:41:18.051Z</time></trkpt><trkpt lat="43.7391799" lon="11.029923"><ele>42.0</ele><time>2026-04-15T15:41:19.072Z</time></trkpt><trkpt lat="43.7390299" lon="11.0298255"><ele>42.0</ele><time>2026-04-15T15:41:20.055Z</time></trkpt><trkpt lat="43.7388897" lon="11.0297278"><ele>42.0</ele><time>2026-04-15T15:41:21.072Z</time></trkpt><trkpt lat="43.7387511" lon="11.0296335"><ele>42.0</ele><time>2026-04-15T15:41:22.071Z</time></trkpt><trkpt lat="43.7386143" lon="11.0295444"><ele>42.0</ele><time>2026-04-15T15:41:23.042Z</time></trkpt><trkpt lat="43.7384786" lon="11.0294499"><ele>42.0</ele><time>2026-04-15T15:41:24.069Z</time></trkpt><trkpt lat="43.7383462" lon="11.0293441"><ele>42.333333333333336</ele><time>2026-04-15T15:41:25.065Z</time></trkpt><trkpt lat="43.7382164" lon="11.0292268"><ele>42.66666666666667</ele><time>2026-04-15T15:41:26.067Z</time></trkpt><trkpt lat="43.7380904" lon="11.0290923"><ele>43.0</ele><time>2026-04-15T15:41:27.062Z</time></trkpt><trkpt lat="43.7379686" lon="11.0289545"><ele>43.25</ele><time>2026-04-15T15:41:28.058Z</time></trkpt><trkpt lat="43.7378496" lon="11.0288168"><ele>43.5</ele><time>2026-04-15T15:41:29.057Z</time></trkpt><trkpt lat="43.7377459" lon="11.0286755"><ele>43.75</ele><time>2026-04-15T15:41:30.049Z</time></trkpt><trkpt lat="43.7376583" lon="11.0285448"><ele>44.0</ele><time>2026-04-15T15:41:31.056Z</time></trkpt><trkpt lat="43.7375791" lon="11.028423"><ele>44.5</ele><time>2026-04-15T15:41:32.053Z</time></trkpt><trkpt lat="43.7375004" lon="11.0283086"><ele>45.0</ele><time>2026-04-15T15:41:33.043Z</time></trkpt><trkpt lat="43.7374201" lon="11.028196"><ele>45.5</ele><time>2026-04-15T15:41:34.066Z</time></trkpt><trkpt lat="43.7373416" lon="11.0280777"><ele>46.0</ele><time>2026-04-15T15:41:35.075Z</time></trkpt><trkpt lat="43.7372599" lon="11.0279539"><ele>46.0</ele><time>2026-04-15T15:41:36.051Z</time></trkpt><trkpt lat="43.7371734" lon="11.0278291"><ele>46.0</ele><time>2026-04-15T15:41:37.072Z</time></trkpt><trkpt lat="43.7370878" lon="11.0276968"><ele>46.0</ele><time>2026-04-15T15:41:38.069Z</time></trkpt><trkpt lat="43.7370002" lon="11.0275643"><ele>46.0</ele><time>2026-04-15T15:41:39.061Z</time></trkpt><trkpt lat="43.7369139" lon="11.0274336"><ele>46.5</ele><time>2026-04-15T15:41:40.05Z</time></trkpt><trkpt lat="43.7368326" lon="11.0273042"><ele>47.0</ele><time>2026-04-15T15:41:41.05Z</time></trkpt><trkpt lat="43.736752" lon="11.0271719"><ele>47.5</ele><time>2026-04-15T15:41:42.037Z</time></trkpt><trkpt lat="43.7366634" lon="11.0270418"><ele>48.0</ele><time>2026-04-15T15:41:43.035Z</time></trkpt><trkpt lat="43.7365759" lon="11.0269109"><ele>48.0</ele><time>2026-04-15T15:41:44.058Z</time></trkpt><trkpt lat="43.7364836" lon="11.0267794"><ele>48.0</ele><time>2026-04-15T15:41:45.06Z</time></trkpt><trkpt lat="43.7363857" lon="11.0266512"><ele>48.0</ele><time>2026-04-15T15:41:46.065Z</time></trkpt><trkpt lat="43.7362868" lon="11.0265261"><ele>48.0</ele><time>2026-04-15T15:41:47.039Z</time></trkpt><trkpt lat="43.7361733" lon="11.0264076"><ele>48.25</ele><time>2026-04-15T15:41:48.041Z</time></trkpt><trkpt lat="43.7360555" lon="11.0262852"><ele>48.5</ele><time>2026-04-15T15:41:49.033Z</time></trkpt><trkpt lat="43.7359438" lon="11.0261699"><ele>48.75</ele><time>2026-04-15T15:41:50.065Z</time></trkpt><trkpt lat="43.7358222" lon="11.0260661"><ele>49.0</ele><time>2026-04-15T15:41:51.067Z</time></trkpt><trkpt lat="43.7356927" lon="11.0259754"><ele>49.0</ele><time>2026-04-15T15:41:52.043Z</time></trkpt><trkpt lat="43.7355626" lon="11.0258931"><ele>49.0</ele><time>2026-04-15T15:41:53.043Z</time></trkpt><trkpt lat="43.7354318" lon="11.0258173"><ele>49.0</ele><time>2026-04-15T15:41:54.038Z</time></trkpt><trkpt lat="43.7352831" lon="11.0257502"><ele>49.0</ele><time>2026-04-15T15:41:55.034Z</time></trkpt><trkpt lat="43.7351286" lon="11.0256963"><ele>49.0</ele><time>2026-04-15T15:41:56.044Z</time></trkpt><trkpt lat="43.7349745" lon="11.0256446"><ele>49.0</ele><time>2026-04-15T15:41:57.065Z</time></trkpt><trkpt lat="43.7348246" lon="11.0255823"><ele>49.0</ele><time>2026-04-15T15:41:58.062Z</time></trkpt><trkpt lat="43.7346711" lon="11.0255111"><ele>49.0</ele><time>2026-04-15T15:41:59.061Z</time></trkpt><trkpt lat="43.734514" lon="11.0254478"><ele>49.0</ele><time>2026-04-15T15:42:00.073Z</time></trkpt><trkpt lat="43.7337865" lon="11.0252286"><ele>50.666666666666664</ele><time>2026-04-15T15:42:04.072Z</time></trkpt><trkpt lat="43.7336562" lon="11.0251536"><ele>52.33333333333333</ele><time>2026-04-15T15:42:05.034Z</time></trkpt><trkpt lat="43.7334648" lon="11.025085"><ele>54.0</ele><time>2026-04-15T15:42:06.033Z</time></trkpt><trkpt lat="43.7333013" lon="11.0249869"><ele>38.0</ele><time>2026-04-15T15:42:07.027Z</time></trkpt><trkpt lat="43.7317073" lon="11.0244162"><ele>38.0</ele><time>2026-04-15T15:42:16.047Z</time></trkpt><trkpt lat="43.7315611" lon="11.0243328"><ele>38.0</ele><time>2026-04-15T15:42:17.035Z</time></trkpt><trkpt lat="43.7313843" lon="11.0242118"><ele>38.0</ele><time>2026-04-15T15:42:18.035Z</time></trkpt><trkpt lat="43.7312156" lon="11.0241425"><ele>35.666666666666664</ele><time>2026-04-15T15:42:19.046Z</time></trkpt><trkpt lat="43.731055" lon="11.024075"><ele>33.333333333333336</ele><time>2026-04-15T15:42:20.036Z</time></trkpt><trkpt lat="43.7308901" lon="11.024015"><ele>31.0</ele><time>2026-04-15T15:42:21.058Z</time></trkpt><trkpt lat="43.730717" lon="11.0239545"><ele>31.0</ele><time>2026-04-15T15:42:22.069Z</time></trkpt><trkpt lat="43.7305427" lon="11.0238821"><ele>31.0</ele><time>2026-04-15T15:42:23.06Z</time></trkpt><trkpt lat="43.7303724" lon="11.0238134"><ele>31.0</ele><time>2026-04-15T15:42:24.065Z</time></trkpt><trkpt lat="43.7302018" lon="11.0237473"><ele>30.666666666666668</ele><time>2026-04-15T15:42:25.025Z</time></trkpt><trkpt lat="43.7300337" lon="11.0236793"><ele>30.333333333333336</ele><time>2026-04-15T15:42:26.036Z</time></trkpt><trkpt lat="43.7298726" lon="11.0236049"><ele>30.0</ele><time>2026-04-15T15:42:27.04Z</time></trkpt><trkpt lat="43.7297202" lon="11.0235084"><ele>30.0</ele><time>2026-04-15T15:42:28.037Z</time></trkpt><trkpt lat="43.729577" lon="11.0233939"><ele>30.0</ele><time>2026-04-15T15:42:29.044Z</time></trkpt><trkpt lat="43.7294401" lon="11.0232734"><ele>30.0</ele><time>2026-04-15T15:42:30.043Z</time></trkpt><trkpt lat="43.7293148" lon="11.0231499"><ele>30.0</ele><time>2026-04-15T15:42:31.023Z</time></trkpt><trkpt lat="43.7292011" lon="11.0230327"><ele>30.0</ele><time>2026-04-15T15:42:32.027Z</time></trkpt><trkpt lat="43.7291037" lon="11.0229192"><ele>30.0</ele><time>2026-04-15T15:42:33.017Z</time></trkpt><trkpt lat="43.7290241" lon="11.0228021"><ele>30.0</ele><time>2026-04-15T15:42:34.039Z</time></trkpt><trkpt lat="43.7289561" lon="11.0226959"><ele>30.0</ele><time>2026-04-15T15:42:35.032Z</time></trkpt><trkpt lat="43.7289062" lon="11.0226139"><ele>30.0</ele><time>2026-04-15T15:42:36.047Z</time></trkpt><trkpt lat="43.7288673" lon="11.0225392"><ele>30.0</ele><time>2026-04-15T15:42:37.038Z</time></trkpt><trkpt lat="43.7288214" lon="11.0223997"><ele>30.0</ele><time>2026-04-15T15:42:39.065Z</time></trkpt><trkpt lat="43.7288121" lon="11.0222991"><ele>30.0</ele><time>2026-04-15T15:42:41.053Z</time></trkpt><trkpt lat="43.7288259" lon="11.0221912"><ele>30.0</ele><time>2026-04-15T15:42:55.025Z</time></trkpt><trkpt lat="43.7288357" lon="11.0220341"><ele>30.0</ele><time>2026-04-15T15:42:57.031Z</time></trkpt><trkpt lat="43.7288444" lon="11.0218417"><ele>30.0</ele><time>2026-04-15T15:42:59.057Z</time></trkpt><trkpt lat="43.7288614" lon="11.0217238"><ele>30.0</ele><time>2026-04-15T15:43:00.036Z</time></trkpt><trkpt lat="43.7288939" lon="11.0216166"><ele>30.0</ele><time>2026-04-15T15:43:01.022Z</time></trkpt><trkpt lat="43.7289376" lon="11.0215438"><ele>30.0</ele><time>2026-04-15T15:43:02.036Z</time></trkpt><trkpt lat="43.729008" lon="11.0214758"><ele>30.0</ele><time>2026-04-15T15:43:04.026Z</time></trkpt><trkpt lat="43.7290615" lon="11.0214103"><ele>30.0</ele><time>2026-04-15T15:43:06.039Z</time></trkpt><trkpt lat="43.7291197" lon="11.0213336"><ele>30.0</ele><time>2026-04-15T15:43:08.037Z</time></trkpt><trkpt lat="43.7291759" lon="11.0212648"><ele>30.0</ele><time>2026-04-15T15:43:11.036Z</time></trkpt><trkpt lat="43.7292212" lon="11.0211771"><ele>30.0</ele><time>2026-04-15T15:43:15.054Z</time></trkpt><trkpt lat="43.7293182" lon="11.0210687"><ele>30.0</ele><time>2026-04-15T15:43:22.04Z</time></trkpt><trkpt lat="43.7293629" lon="11.0210045"><ele>29.833333333333332</ele><time>2026-04-15T15:43:23.051Z</time></trkpt><trkpt lat="43.7294143" lon="11.0209515"><ele>29.666666666666664</ele><time>2026-04-15T15:43:24.034Z</time></trkpt><trkpt lat="43.7294902" lon="11.0208878"><ele>29.5</ele><time>2026-04-15T15:43:26.048Z</time></trkpt><trkpt lat="43.7295566" lon="11.0208622"><ele>29.333333333333332</ele><time>2026-04-15T15:43:30.045Z</time></trkpt><trkpt lat="43.7296251" lon="11.0208352"><ele>29.166666666666664</ele><time>2026-04-15T15:56:33.026Z</time></trkpt><trkpt lat="43.7296502" lon="11.0207428"><ele>29.0</ele><time>2026-04-15T15:56:46.018Z</time></trkpt><trkpt lat="43.7296859" lon="11.0206281"><ele>29.0</ele><time>2026-04-15T15:56:48.016Z</time></trkpt><trkpt lat="43.7297602" lon="11.0205149"><ele>29.0</ele><time>2026-04-15T15:56:50.014Z</time></trkpt><trkpt lat="43.7298099" lon="11.0204008"><ele>29.0</ele><time>2026-04-15T15:56:51.99Z</time></trkpt><trkpt lat="43.7297405" lon="11.0203724"><ele>29.0</ele><time>2026-04-15T15:56:53.999Z</time></trkpt><trkpt lat="43.7296659" lon="11.0204719"><ele>29.0</ele><time>2026-04-15T15:56:56.022Z</time></trkpt><trkpt lat="43.7296118" lon="11.0205578"><ele>28.999999999999996</ele><time>2026-04-15T15:56:56.998Z</time></trkpt><trkpt lat="43.7295566" lon="11.0206446"><ele>29.0</ele><time>2026-04-15T15:56:58.009Z</time></trkpt><trkpt lat="43.7294975" lon="11.0207385"><ele>29.0</ele><time>2026-04-15T15:56:59.001Z</time></trkpt><trkpt lat="43.72945" lon="11.0208174"><ele>29.0</ele><time>2026-04-15T15:57:00.01Z</time></trkpt><trkpt lat="43.7293886" lon="11.0209034"><ele>28.999999999999996</ele><time>2026-04-15T15:57:01.007Z</time></trkpt><trkpt lat="43.7293218" lon="11.0209891"><ele>29.0</ele><time>2026-04-15T15:57:01.996Z</time></trkpt><trkpt lat="43.7292534" lon="11.0210655"><ele>29.166666666666664</ele><time>2026-04-15T15:57:02.996Z</time></trkpt><trkpt lat="43.729189" lon="11.0211554"><ele>29.333333333333332</ele><time>2026-04-15T15:57:04.027Z</time></trkpt><trkpt lat="43.7291241" lon="11.0212465"><ele>29.5</ele><time>2026-04-15T15:57:05.016Z</time></trkpt><trkpt lat="43.7290602" lon="11.0213341"><ele>29.666666666666664</ele><time>2026-04-15T15:57:06.018Z</time></trkpt><trkpt lat="43.7289987" lon="11.0214181"><ele>29.833333333333332</ele><time>2026-04-15T15:57:07.024Z</time></trkpt><trkpt lat="43.7289414" lon="11.02149"><ele>30.0</ele><time>2026-04-15T15:57:08.014Z</time></trkpt><trkpt lat="43.7288569" lon="11.0216034"><ele>30.0</ele><time>2026-04-15T15:57:10.052Z</time></trkpt><trkpt lat="43.7287964" lon="11.0216342"><ele>30.0</ele><time>2026-04-15T15:57:11.025Z</time></trkpt><trkpt lat="43.7287112" lon="11.0216624"><ele>30.0</ele><time>2026-04-15T15:57:12.035Z</time></trkpt><trkpt lat="43.7286193" lon="11.0216603"><ele>30.0</ele><time>2026-04-15T15:57:12.998Z</time></trkpt><trkpt lat="43.7285297" lon="11.0216314"><ele>30.0</ele><time>2026-04-15T15:57:14.004Z</time></trkpt><trkpt lat="43.7284466" lon="11.0215616"><ele>30.0</ele><time>2026-04-15T15:57:14.996Z</time></trkpt><trkpt lat="43.7283749" lon="11.0214713"><ele>30.0</ele><time>2026-04-15T15:57:16.026Z</time></trkpt><trkpt lat="43.7283084" lon="11.0213636"><ele>30.0</ele><time>2026-04-15T15:57:17.032Z</time></trkpt><trkpt lat="43.7282477" lon="11.0212461"><ele>30.0</ele><time>2026-04-15T15:57:18.05Z</time></trkpt><trkpt lat="43.7281876" lon="11.0211152"><ele>30.0</ele><time>2026-04-15T15:57:19.032Z</time></trkpt><trkpt lat="43.7281299" lon="11.0209794"><ele>30.0</ele><time>2026-04-15T15:57:20.032Z</time></trkpt><trkpt lat="43.7280688" lon="11.0208378"><ele>30.0</ele><time>2026-04-15T15:57:21.04Z</time></trkpt><trkpt lat="43.7280052" lon="11.020693"><ele>30.0</ele><time>2026-04-15T15:57:22.026Z</time></trkpt><trkpt lat="43.7279436" lon="11.0205498"><ele>30.0</ele><time>2026-04-15T15:57:23.047Z</time></trkpt><trkpt lat="43.72789" lon="11.0204209"><ele>30.0</ele><time>2026-04-15T15:57:24.018Z</time></trkpt><trkpt lat="43.7278456" lon="11.0203136"><ele>30.0</ele><time>2026-04-15T15:57:25.031Z</time></trkpt><trkpt lat="43.727811" lon="11.0202248"><ele>30.0</ele><time>2026-04-15T15:57:26.005Z</time></trkpt><trkpt lat="43.7277534" lon="11.0200905"><ele>30.0</ele><time>2026-04-15T15:57:28.001Z</time></trkpt><trkpt lat="43.7277216" lon="11.0200003"><ele>30.0</ele><time>2026-04-15T15:57:29.04Z</time></trkpt><trkpt lat="43.7276696" lon="11.0198794"><ele>30.0</ele><time>2026-04-15T15:57:30.026Z</time></trkpt><trkpt lat="43.7276027" lon="11.0197257"><ele>30.0</ele><time>2026-04-15T15:57:31.023Z</time></trkpt><trkpt lat="43.7275283" lon="11.0195524"><ele>30.666666666666664</ele><time>2026-04-15T15:57:32.037Z</time></trkpt><trkpt lat="43.7274453" lon="11.0193583"><ele>31.333333333333332</ele><time>2026-04-15T15:57:33.027Z</time></trkpt><trkpt lat="43.7273641" lon="11.0191621"><ele>32.0</ele><time>2026-04-15T15:57:34.008Z</time></trkpt><trkpt lat="43.7272881" lon="11.0189828"><ele>33.5</ele><time>2026-04-15T15:57:35.011Z</time></trkpt><trkpt lat="43.7272171" lon="11.0188206"><ele>35.0</ele><time>2026-04-15T15:57:36.013Z</time></trkpt><trkpt lat="43.7271526" lon="11.0186628"><ele>36.5</ele><time>2026-04-15T15:57:37.016Z</time></trkpt><trkpt lat="43.7271071" lon="11.0185313"><ele>38.0</ele><time>2026-04-15T15:57:38.007Z</time></trkpt><trkpt lat="43.7270889" lon="11.0184256"><ele>38.8</ele><time>2026-04-15T15:57:39.018Z</time></trkpt><trkpt lat="43.7270936" lon="11.0182646"><ele>39.599999999999994</ele><time>2026-04-15T15:57:41.018Z</time></trkpt><trkpt lat="43.727085" lon="11.0181034"><ele>40.400000000000006</ele><time>2026-04-15T15:57:43.027Z</time></trkpt><trkpt lat="43.7270568" lon="11.0180222"><ele>41.2</ele><time>2026-04-15T15:57:44.008Z</time></trkpt><trkpt lat="43.7270187" lon="11.0179473"><ele>42.0</ele><time>2026-04-15T15:57:45.011Z</time></trkpt><trkpt lat="43.7269286" lon="11.0178696"><ele>44.0</ele><time>2026-04-15T15:57:46.041Z</time></trkpt><trkpt lat="43.7268261" lon="11.0177579"><ele>46.0</ele><time>2026-04-15T15:57:47.006Z</time></trkpt><trkpt lat="43.7267264" lon="11.0175863"><ele>48.0</ele><time>2026-04-15T15:57:48.032Z</time></trkpt><trkpt lat="43.7266367" lon="11.0173836"><ele>48.0</ele><time>2026-04-15T15:57:49.033Z</time></trkpt><trkpt lat="43.7265426" lon="11.0171655"><ele>48.0</ele><time>2026-04-15T15:57:49.997Z</time></trkpt><trkpt lat="43.7264395" lon="11.0169384"><ele>48.0</ele><time>2026-04-15T15:57:51.003Z</time></trkpt><trkpt lat="43.7263411" lon="11.0167101"><ele>48.0</ele><time>2026-04-15T15:57:52.019Z</time></trkpt><trkpt lat="43.7262494" lon="11.0164753"><ele>48.0</ele><time>2026-04-15T15:57:53.001Z</time></trkpt><trkpt lat="43.7261695" lon="11.0162446"><ele>48.0</ele><time>2026-04-15T15:57:54.022Z</time></trkpt><trkpt lat="43.7260973" lon="11.0160069"><ele>49.33333333333333</ele><time>2026-04-15T15:57:55.035Z</time></trkpt><trkpt lat="43.7260423" lon="11.0157529"><ele>50.666666666666664</ele><time>2026-04-15T15:57:56.009Z</time></trkpt><trkpt lat="43.7259992" lon="11.0155124"><ele>52.0</ele><time>2026-04-15T15:57:57.001Z</time></trkpt><trkpt lat="43.7259773" lon="11.0152785"><ele>52.0</ele><time>2026-04-15T15:57:58.002Z</time></trkpt><trkpt lat="43.7259645" lon="11.0150508"><ele>52.0</ele><time>2026-04-15T15:57:59.002Z</time></trkpt><trkpt lat="43.7259549" lon="11.0148393"><ele>52.0</ele><time>2026-04-15T15:58:00.008Z</time></trkpt><trkpt lat="43.7259474" lon="11.0146533"><ele>51.8</ele><time>2026-04-15T15:58:01.03Z</time></trkpt><trkpt lat="43.725942" lon="11.014493"><ele>51.6</ele><time>2026-04-15T15:58:02.003Z</time></trkpt><trkpt lat="43.7259455" lon="11.0143547"><ele>51.4</ele><time>2026-04-15T15:58:03.02Z</time></trkpt><trkpt lat="43.7259691" lon="11.014234"><ele>51.199999999999996</ele><time>2026-04-15T15:58:04.006Z</time></trkpt><trkpt lat="43.7259933" lon="11.0141161"><ele>51.0</ele><time>2026-04-15T15:58:05.005Z</time></trkpt><trkpt lat="43.7260049" lon="11.014"><ele>50.8</ele><time>2026-04-15T15:58:06.02Z</time></trkpt><trkpt lat="43.7259778" lon="11.0138877"><ele>50.599999999999994</ele><time>2026-04-15T15:58:07.009Z</time></trkpt><trkpt lat="43.7259146" lon="11.0138011"><ele>50.4</ele><time>2026-04-15T15:58:07.995Z</time></trkpt><trkpt lat="43.7258316" lon="11.0137668"><ele>50.2</ele><time>2026-04-15T15:58:09.009Z</time></trkpt><trkpt lat="43.7257268" lon="11.0137858"><ele>50.0</ele><time>2026-04-15T15:58:10.015Z</time></trkpt><trkpt lat="43.7256138" lon="11.0138001"><ele>50.0</ele><time>2026-04-15T15:58:11.006Z</time></trkpt><trkpt lat="43.725493" lon="11.0137606"><ele>50.0</ele><time>2026-04-15T15:58:12.023Z</time></trkpt><trkpt lat="43.7253976" lon="11.013705"><ele>50.0</ele><time>2026-04-15T15:58:13.019Z</time></trkpt><trkpt lat="43.7253098" lon="11.0136292"><ele>50.0</ele><time>2026-04-15T15:58:14.014Z</time></trkpt><trkpt lat="43.7252346" lon="11.0135328"><ele>50.0</ele><time>2026-04-15T15:58:15.03Z</time></trkpt><trkpt lat="43.725178" lon="11.0134311"><ele>50.2</ele><time>2026-04-15T15:58:16Z</time></trkpt><trkpt lat="43.7251408" lon="11.0133294"><ele>50.4</ele><time>2026-04-15T15:58:17.027Z</time></trkpt><trkpt lat="43.7250924" lon="11.0132474"><ele>50.599999999999994</ele><time>2026-04-15T15:58:18.004Z</time></trkpt><trkpt lat="43.7250092" lon="11.013207"><ele>50.8</ele><time>2026-04-15T15:58:18.989Z</time></trkpt><trkpt lat="43.7249054" lon="11.0132186"><ele>51.0</ele><time>2026-04-15T15:58:20.006Z</time></trkpt><trkpt lat="43.7248004" lon="11.0132099"><ele>50.5</ele><time>2026-04-15T15:58:21.001Z</time></trkpt><trkpt lat="43.7246993" lon="11.0131381"><ele>50.0</ele><time>2026-04-15T15:58:21.991Z</time></trkpt><trkpt lat="43.7246176" lon="11.0130493"><ele>49.5</ele><time>2026-04-15T15:58:23.026Z</time></trkpt><trkpt lat="43.7245622" lon="11.0129118"><ele>49.0</ele><time>2026-04-15T15:58:24.023Z</time></trkpt><trkpt lat="43.7245139" lon="11.0127527"><ele>49.0</ele><time>2026-04-15T15:58:25.029Z</time></trkpt><trkpt lat="43.7244381" lon="11.0126039"><ele>49.0</ele><time>2026-04-15T15:58:26.023Z</time></trkpt><trkpt lat="43.7243307" lon="11.0124649"><ele>49.0</ele><time>2026-04-15T15:58:27.026Z</time></trkpt><trkpt lat="43.7242072" lon="11.0123378"><ele>49.0</ele><time>2026-04-15T15:58:28.033Z</time></trkpt><trkpt lat="43.7240792" lon="11.0122038"><ele>48.5</ele><time>2026-04-15T15:58:28.998Z</time></trkpt><trkpt lat="43.723951" lon="11.0120725"><ele>48.0</ele><time>2026-04-15T15:58:30.037Z</time></trkpt><trkpt lat="43.7238271" lon="11.011955"><ele>47.5</ele><time>2026-04-15T15:58:31.017Z</time></trkpt><trkpt lat="43.7237135" lon="11.0118522"><ele>47.0</ele><time>2026-04-15T15:58:32.029Z</time></trkpt><trkpt lat="43.7236045" lon="11.0117628"><ele>46.2</ele><time>2026-04-15T15:58:33.028Z</time></trkpt><trkpt lat="43.7235038" lon="11.0116776"><ele>45.400000000000006</ele><time>2026-04-15T15:58:34.037Z</time></trkpt><trkpt lat="43.7234122" lon="11.0115999"><ele>44.599999999999994</ele><time>2026-04-15T15:58:35.018Z</time></trkpt><trkpt lat="43.723326" lon="11.0115239"><ele>43.8</ele><time>2026-04-15T15:58:36.027Z</time></trkpt><trkpt lat="43.7232473" lon="11.0114435"><ele>43.0</ele><time>2026-04-15T15:58:37.023Z</time></trkpt><trkpt lat="43.7231723" lon="11.0113641"><ele>43.0</ele><time>2026-04-15T15:58:38.049Z</time></trkpt><trkpt lat="43.723105" lon="11.0112698"><ele>43.0</ele><time>2026-04-15T15:58:39.002Z</time></trkpt><trkpt lat="43.7230431" lon="11.0111526"><ele>43.0</ele><time>2026-04-15T15:58:40.021Z</time></trkpt><trkpt lat="43.7229777" lon="11.0110257"><ele>43.0</ele><time>2026-04-15T15:58:41.039Z</time></trkpt><trkpt lat="43.7229121" lon="11.0108811"><ele>43.0</ele><time>2026-04-15T15:58:42.037Z</time></trkpt><trkpt lat="43.722841" lon="11.0107376"><ele>40.333333333333336</ele><time>2026-04-15T15:58:42.988Z</time></trkpt><trkpt lat="43.72276" lon="11.0105751"><ele>37.666666666666664</ele><time>2026-04-15T15:58:44.029Z</time></trkpt><trkpt lat="43.7226763" lon="11.0103859"><ele>35.0</ele><time>2026-04-15T15:58:45.021Z</time></trkpt><trkpt lat="43.722593" lon="11.0101771"><ele>33.666666666666664</ele><time>2026-04-15T15:58:46.032Z</time></trkpt><trkpt lat="43.7225093" lon="11.0099455"><ele>32.333333333333336</ele><time>2026-04-15T15:58:47.024Z</time></trkpt><trkpt lat="43.7224327" lon="11.0096842"><ele>31.0</ele><time>2026-04-15T15:58:48.027Z</time></trkpt><trkpt lat="43.7223578" lon="11.0094032"><ele>30.0</ele><time>2026-04-15T15:58:49.026Z</time></trkpt><trkpt lat="43.7222854" lon="11.0091049"><ele>29.0</ele><time>2026-04-15T15:58:50.027Z</time></trkpt><trkpt lat="43.7222225" lon="11.0087884"><ele>29.0</ele><time>2026-04-15T15:58:51.02Z</time></trkpt><trkpt lat="43.7221631" lon="11.008466"><ele>29.0</ele><time>2026-04-15T15:58:52.033Z</time></trkpt><trkpt lat="43.7221183" lon="11.0081328"><ele>28.5</ele><time>2026-04-15T15:58:53.029Z</time></trkpt><trkpt lat="43.7220809" lon="11.0077974"><ele>28.0</ele><time>2026-04-15T15:58:53.996Z</time></trkpt><trkpt lat="43.722044" lon="11.007467"><ele>28.0</ele><time>2026-04-15T15:58:55.017Z</time></trkpt><trkpt lat="43.7220066" lon="11.0071351"><ele>28.0</ele><time>2026-04-15T15:58:56.023Z</time></trkpt><trkpt lat="43.7219667" lon="11.0068057"><ele>28.0</ele><time>2026-04-15T15:58:57.02Z</time></trkpt><trkpt lat="43.7219325" lon="11.0064936"><ele>28.0</ele><time>2026-04-15T15:58:58.011Z</time></trkpt><trkpt lat="43.7218969" lon="11.006179"><ele>28.0</ele><time>2026-04-15T15:58:59.007Z</time></trkpt><trkpt lat="43.721862" lon="11.0058709"><ele>28.0</ele><time>2026-04-15T15:59:00.007Z</time></trkpt><trkpt lat="43.72183" lon="11.0055681"><ele>28.0</ele><time>2026-04-15T15:59:01.016Z</time></trkpt><trkpt lat="43.7217969" lon="11.0052662"><ele>28.333333333333336</ele><time>2026-04-15T15:59:02.022Z</time></trkpt><trkpt lat="43.7217649" lon="11.0049648"><ele>28.666666666666664</ele><time>2026-04-15T15:59:03.031Z</time></trkpt><trkpt lat="43.7217317" lon="11.0046684"><ele>29.0</ele><time>2026-04-15T15:59:04.027Z</time></trkpt><trkpt lat="43.7217031" lon="11.0043776"><ele>29.666666666666664</ele><time>2026-04-15T15:59:05.018Z</time></trkpt><trkpt lat="43.7216718" lon="11.0040867"><ele>30.333333333333336</ele><time>2026-04-15T15:59:06.008Z</time></trkpt><trkpt lat="43.7216394" lon="11.0037931"><ele>31.0</ele><time>2026-04-15T15:59:06.988Z</time></trkpt><trkpt lat="43.7216053" lon="11.0035068"><ele>31.0</ele><time>2026-04-15T15:59:08.021Z</time></trkpt><trkpt lat="43.7215738" lon="11.0032125"><ele>31.0</ele><time>2026-04-15T15:59:09.039Z</time></trkpt><trkpt lat="43.7215418" lon="11.0029252"><ele>31.0</ele><time>2026-04-15T15:59:10.036Z</time></trkpt><trkpt lat="43.7215115" lon="11.0026406"><ele>31.0</ele><time>2026-04-15T15:59:11.014Z</time></trkpt><trkpt lat="43.721483" lon="11.0023507"><ele>31.0</ele><time>2026-04-15T15:59:12.023Z</time></trkpt><trkpt lat="43.721454" lon="11.0020655"><ele>31.0</ele><time>2026-04-15T15:59:12.994Z</time></trkpt><trkpt lat="43.7214222" lon="11.0017808"><ele>30.666666666666668</ele><time>2026-04-15T15:59:13.998Z</time></trkpt><trkpt lat="43.721391" lon="11.0014985"><ele>30.333333333333336</ele><time>2026-04-15T15:59:14.993Z</time></trkpt><trkpt lat="43.7213595" lon="11.0012149"><ele>30.0</ele><time>2026-04-15T15:59:16.016Z</time></trkpt><trkpt lat="43.721331" lon="11.000932"><ele>29.666666666666664</ele><time>2026-04-15T15:59:16.99Z</time></trkpt><trkpt lat="43.7212984" lon="11.0006471"><ele>29.333333333333332</ele><time>2026-04-15T15:59:17.994Z</time></trkpt><trkpt lat="43.7212626" lon="11.0003613"><ele>29.0</ele><time>2026-04-15T15:59:18.989Z</time></trkpt><trkpt lat="43.7212284" lon="11.000077"><ele>29.0</ele><time>2026-04-15T15:59:20.004Z</time></trkpt><trkpt lat="43.7211955" lon="10.9997903"><ele>29.0</ele><time>2026-04-15T15:59:20.996Z</time></trkpt><trkpt lat="43.7211625" lon="10.999507"><ele>29.0</ele><time>2026-04-15T15:59:22.021Z</time></trkpt><trkpt lat="43.721136" lon="10.9992225"><ele>29.0</ele><time>2026-04-15T15:59:23.021Z</time></trkpt><trkpt lat="43.7211046" lon="10.9989446"><ele>29.0</ele><time>2026-04-15T15:59:24.017Z</time></trkpt><trkpt lat="43.721073" lon="10.9986714"><ele>29.0</ele><time>2026-04-15T15:59:25.008Z</time></trkpt><trkpt lat="43.721045" lon="10.9984014"><ele>29.333333333333332</ele><time>2026-04-15T15:59:26.031Z</time></trkpt><trkpt lat="43.7210209" lon="10.9981382"><ele>29.666666666666664</ele><time>2026-04-15T15:59:27.029Z</time></trkpt><trkpt lat="43.7209935" lon="10.9978833"><ele>30.0</ele><time>2026-04-15T15:59:28.016Z</time></trkpt><trkpt lat="43.7209682" lon="10.9976357"><ele>29.333333333333336</ele><time>2026-04-15T15:59:28.994Z</time></trkpt><trkpt lat="43.720938" lon="10.9973818"><ele>28.666666666666668</ele><time>2026-04-15T15:59:30.027Z</time></trkpt><trkpt lat="43.7209037" lon="10.9971295"><ele>28.0</ele><time>2026-04-15T15:59:31.024Z</time></trkpt><trkpt lat="43.7208674" lon="10.9968752"><ele>28.333333333333336</ele><time>2026-04-15T15:59:32.02Z</time></trkpt><trkpt lat="43.72083" lon="10.9966058"><ele>28.666666666666664</ele><time>2026-04-15T15:59:33.001Z</time></trkpt><trkpt lat="43.7207958" lon="10.9963188"><ele>29.0</ele><time>2026-04-15T15:59:34.02Z</time></trkpt><trkpt lat="43.7207602" lon="10.9960324"><ele>29.0</ele><time>2026-04-15T15:59:35.015Z</time></trkpt><trkpt lat="43.7207279" lon="10.9957387"><ele>29.0</ele><time>2026-04-15T15:59:36.025Z</time></trkpt><trkpt lat="43.7206904" lon="10.9954412"><ele>29.0</ele><time>2026-04-15T15:59:37.011Z</time></trkpt><trkpt lat="43.7206532" lon="10.9951393"><ele>28.666666666666664</ele><time>2026-04-15T15:59:38.022Z</time></trkpt><trkpt lat="43.7206194" lon="10.994836"><ele>28.333333333333336</ele><time>2026-04-15T15:59:38.984Z</time></trkpt><trkpt lat="43.7205868" lon="10.994525"><ele>28.0</ele><time>2026-04-15T15:59:39.98Z</time></trkpt><trkpt lat="43.7205534" lon="10.9942131"><ele>28.0</ele><time>2026-04-15T15:59:40.995Z</time></trkpt><trkpt lat="43.7205219" lon="10.9939095"><ele>28.0</ele><time>2026-04-15T15:59:42.031Z</time></trkpt><trkpt lat="43.7204944" lon="10.9936065"><ele>28.0</ele><time>2026-04-15T15:59:42.995Z</time></trkpt><trkpt lat="43.7204609" lon="10.9933011"><ele>28.666666666666668</ele><time>2026-04-15T15:59:43.988Z</time></trkpt><trkpt lat="43.7204262" lon="10.9929951"><ele>29.333333333333336</ele><time>2026-04-15T15:59:45.029Z</time></trkpt><trkpt lat="43.7203897" lon="10.9926947"><ele>30.0</ele><time>2026-04-15T15:59:46.031Z</time></trkpt><trkpt lat="43.7203556" lon="10.9923959"><ele>30.0</ele><time>2026-04-15T15:59:47.007Z</time></trkpt><trkpt lat="43.7203221" lon="10.9921026"><ele>30.0</ele><time>2026-04-15T15:59:48.008Z</time></trkpt><trkpt lat="43.720287" lon="10.9918099"><ele>30.0</ele><time>2026-04-15T15:59:49.014Z</time></trkpt><trkpt lat="43.7202504" lon="10.9915183"><ele>29.333333333333336</ele><time>2026-04-15T15:59:50.02Z</time></trkpt><trkpt lat="43.7202174" lon="10.9912243"><ele>28.666666666666668</ele><time>2026-04-15T15:59:51.011Z</time></trkpt><trkpt lat="43.7201843" lon="10.9909267"><ele>28.0</ele><time>2026-04-15T15:59:51.997Z</time></trkpt><trkpt lat="43.7201455" lon="10.9906284"><ele>28.0</ele><time>2026-04-15T15:59:52.98Z</time></trkpt><trkpt lat="43.7201068" lon="10.9903292"><ele>28.0</ele><time>2026-04-15T15:59:54.037Z</time></trkpt><trkpt lat="43.7200669" lon="10.9900328"><ele>28.0</ele><time>2026-04-15T15:59:55.022Z</time></trkpt><trkpt lat="43.7200235" lon="10.9897367"><ele>27.666666666666668</ele><time>2026-04-15T15:59:56.01Z</time></trkpt><trkpt lat="43.7199788" lon="10.9894418"><ele>27.333333333333336</ele><time>2026-04-15T15:59:57.011Z</time></trkpt><trkpt lat="43.7199316" lon="10.9891413"><ele>27.0</ele><time>2026-04-15T15:59:58.022Z</time></trkpt><trkpt lat="43.7198724" lon="10.9888215"><ele>27.0</ele><time>2026-04-15T15:59:59.017Z</time></trkpt><trkpt lat="43.7198139" lon="10.9885002"><ele>27.0</ele><time>2026-04-15T16:00:00.013Z</time></trkpt><trkpt lat="43.7197529" lon="10.9881831"><ele>27.5</ele><time>2026-04-15T16:00:00.995Z</time></trkpt><trkpt lat="43.7196918" lon="10.9878748"><ele>28.0</ele><time>2026-04-15T16:00:01.992Z</time></trkpt><trkpt lat="43.7196277" lon="10.9875742"><ele>28.0</ele><time>2026-04-15T16:00:03.007Z</time></trkpt><trkpt lat="43.719564" lon="10.9872705"><ele>28.0</ele><time>2026-04-15T16:00:03.993Z</time></trkpt><trkpt lat="43.7195013" lon="10.9869772"><ele>28.0</ele><time>2026-04-15T16:00:04.995Z</time></trkpt><trkpt lat="43.7194413" lon="10.9866783"><ele>28.0</ele><time>2026-04-15T16:00:06.017Z</time></trkpt><trkpt lat="43.7193781" lon="10.986377"><ele>27.5</ele><time>2026-04-15T16:00:07.016Z</time></trkpt><trkpt lat="43.719317" lon="10.986075"><ele>27.0</ele><time>2026-04-15T16:00:08.008Z</time></trkpt><trkpt lat="43.7192544" lon="10.9857683"><ele>27.0</ele><time>2026-04-15T16:00:09.012Z</time></trkpt><trkpt lat="43.7191966" lon="10.9854578"><ele>27.0</ele><time>2026-04-15T16:00:09.987Z</time></trkpt><trkpt lat="43.7191374" lon="10.9851355"><ele>26.5</ele><time>2026-04-15T16:00:11.013Z</time></trkpt><trkpt lat="43.7190727" lon="10.9848042"><ele>26.0</ele><time>2026-04-15T16:00:12.019Z</time></trkpt><trkpt lat="43.7190036" lon="10.9844569"><ele>26.5</ele><time>2026-04-15T16:00:13.028Z</time></trkpt><trkpt lat="43.718932" lon="10.984103"><ele>27.0</ele><time>2026-04-15T16:00:14.004Z</time></trkpt><trkpt lat="43.7188586" lon="10.9837421"><ele>27.0</ele><time>2026-04-15T16:00:15.016Z</time></trkpt><trkpt lat="43.7187854" lon="10.9833794"><ele>27.0</ele><time>2026-04-15T16:00:16.024Z</time></trkpt><trkpt lat="43.7187112" lon="10.9830127"><ele>27.0</ele><time>2026-04-15T16:00:17.014Z</time></trkpt><trkpt lat="43.718637" lon="10.9826374"><ele>27.0</ele><time>2026-04-15T16:00:17.985Z</time></trkpt><trkpt lat="43.7185586" lon="10.9822551"><ele>26.5</ele><time>2026-04-15T16:00:19.003Z</time></trkpt><trkpt lat="43.7184808" lon="10.9818865"><ele>26.0</ele><time>2026-04-15T16:00:20.007Z</time></trkpt><trkpt lat="43.7184083" lon="10.9815293"><ele>26.0</ele><time>2026-04-15T16:00:21.012Z</time></trkpt><trkpt lat="43.7183407" lon="10.981184"><ele>26.0</ele><time>2026-04-15T16:00:22.007Z</time></trkpt><trkpt lat="43.7182722" lon="10.9808322"><ele>26.0</ele><time>2026-04-15T16:00:23.011Z</time></trkpt><trkpt lat="43.7182016" lon="10.9804792"><ele>26.0</ele><time>2026-04-15T16:00:24.008Z</time></trkpt><trkpt lat="43.718135" lon="10.9801288"><ele>25.5</ele><time>2026-04-15T16:00:24.986Z</time></trkpt><trkpt lat="43.7180648" lon="10.9797835"><ele>25.0</ele><time>2026-04-15T16:00:26.003Z</time></trkpt><trkpt lat="43.7179944" lon="10.9794345"><ele>25.0</ele><time>2026-04-15T16:00:26.998Z</time></trkpt><trkpt lat="43.7179255" lon="10.9790821"><ele>25.0</ele><time>2026-04-15T16:00:28.011Z</time></trkpt><trkpt lat="43.7178538" lon="10.9787288"><ele>25.0</ele><time>2026-04-15T16:00:29.009Z</time></trkpt><trkpt lat="43.7177815" lon="10.9783719"><ele>25.0</ele><time>2026-04-15T16:00:30.013Z</time></trkpt><trkpt lat="43.7177069" lon="10.9780089"><ele>25.0</ele><time>2026-04-15T16:00:31.007Z</time></trkpt><trkpt lat="43.7176287" lon="10.9776444"><ele>25.0</ele><time>2026-04-15T16:00:31.999Z</time></trkpt><trkpt lat="43.7175335" lon="10.9772731"><ele>25.0</ele><time>2026-04-15T16:00:33.01Z</time></trkpt><trkpt lat="43.7174221" lon="10.9769105"><ele>25.0</ele><time>2026-04-15T16:00:33.996Z</time></trkpt><trkpt lat="43.7173008" lon="10.9765539"><ele>25.0</ele><time>2026-04-15T16:00:35.027Z</time></trkpt><trkpt lat="43.717159" lon="10.9762095"><ele>25.0</ele><time>2026-04-15T16:00:36.031Z</time></trkpt><trkpt lat="43.7170136" lon="10.9758694"><ele>26.0</ele><time>2026-04-15T16:00:37.007Z</time></trkpt><trkpt lat="43.7168605" lon="10.9755363"><ele>27.0</ele><time>2026-04-15T16:00:38.026Z</time></trkpt><trkpt lat="43.7166982" lon="10.9752094"><ele>26.5</ele><time>2026-04-15T16:00:39.015Z</time></trkpt><trkpt lat="43.7165244" lon="10.9748969"><ele>26.0</ele><time>2026-04-15T16:00:40.023Z</time></trkpt><trkpt lat="43.7163416" lon="10.9745881"><ele>26.0</ele><time>2026-04-15T16:00:41.012Z</time></trkpt><trkpt lat="43.7161466" lon="10.9743006"><ele>26.0</ele><time>2026-04-15T16:00:42.019Z</time></trkpt><trkpt lat="43.7159498" lon="10.9740198"><ele>26.5</ele><time>2026-04-15T16:00:43.002Z</time></trkpt><trkpt lat="43.7157584" lon="10.9737579"><ele>27.0</ele><time>2026-04-15T16:00:43.998Z</time></trkpt><trkpt lat="43.7155732" lon="10.9734959"><ele>27.0</ele><time>2026-04-15T16:00:45.007Z</time></trkpt><trkpt lat="43.7153873" lon="10.973233"><ele>27.0</ele><time>2026-04-15T16:00:46.034Z</time></trkpt><trkpt lat="43.7152016" lon="10.9729728"><ele>27.0</ele><time>2026-04-15T16:00:47.016Z</time></trkpt><trkpt lat="43.7150164" lon="10.9727098"><ele>27.0</ele><time>2026-04-15T16:00:47.985Z</time></trkpt><trkpt lat="43.7148324" lon="10.9724464"><ele>27.0</ele><time>2026-04-15T16:00:48.998Z</time></trkpt><trkpt lat="43.7146475" lon="10.9721852"><ele>27.0</ele><time>2026-04-15T16:00:50.03Z</time></trkpt><trkpt lat="43.7144675" lon="10.971943"><ele>27.0</ele><time>2026-04-15T16:00:51.022Z</time></trkpt><trkpt lat="43.7143028" lon="10.9717275"><ele>27.0</ele><time>2026-04-15T16:00:52.004Z</time></trkpt><trkpt lat="43.7141505" lon="10.9715183"><ele>27.0</ele><time>2026-04-15T16:00:53.001Z</time></trkpt><trkpt lat="43.7139965" lon="10.9713008"><ele>26.5</ele><time>2026-04-15T16:00:54.022Z</time></trkpt><trkpt lat="43.7138374" lon="10.9710725"><ele>26.0</ele><time>2026-04-15T16:00:55.022Z</time></trkpt><trkpt lat="43.7136743" lon="10.9708405"><ele>27.0</ele><time>2026-04-15T16:00:56.012Z</time></trkpt><trkpt lat="43.7135127" lon="10.9706106"><ele>28.0</ele><time>2026-04-15T16:00:57.003Z</time></trkpt><trkpt lat="43.7133515" lon="10.9703803"><ele>28.0</ele><time>2026-04-15T16:00:58.013Z</time></trkpt><trkpt lat="43.7131925" lon="10.9701515"><ele>28.0</ele><time>2026-04-15T16:00:59Z</time></trkpt><trkpt lat="43.7130287" lon="10.9699244"><ele>28.5</ele><time>2026-04-15T16:01:00Z</time></trkpt><trkpt lat="43.7128691" lon="10.9696978"><ele>29.0</ele><time>2026-04-15T16:01:00.998Z</time></trkpt><trkpt lat="43.7127058" lon="10.9694659"><ele>29.5</ele><time>2026-04-15T16:01:02.007Z</time></trkpt><trkpt lat="43.7125421" lon="10.9692338"><ele>30.0</ele><time>2026-04-15T16:01:02.989Z</time></trkpt><trkpt lat="43.7123753" lon="10.9690021"><ele>30.0</ele><time>2026-04-15T16:01:04.017Z</time></trkpt><trkpt lat="43.7122066" lon="10.9687679"><ele>30.0</ele><time>2026-04-15T16:01:05.017Z</time></trkpt><trkpt lat="43.7120404" lon="10.9685348"><ele>29.0</ele><time>2026-04-15T16:01:06.026Z</time></trkpt><trkpt lat="43.7118739" lon="10.9683019"><ele>28.0</ele><time>2026-04-15T16:01:07.022Z</time></trkpt><trkpt lat="43.7117105" lon="10.9680724"><ele>28.0</ele><time>2026-04-15T16:01:08.003Z</time></trkpt><trkpt lat="43.7115458" lon="10.9678463"><ele>28.0</ele><time>2026-04-15T16:01:09.009Z</time></trkpt><trkpt lat="43.7113877" lon="10.9676279"><ele>27.666666666666668</ele><time>2026-04-15T16:01:10.021Z</time></trkpt><trkpt lat="43.7112296" lon="10.9674128"><ele>27.333333333333336</ele><time>2026-04-15T16:01:11.014Z</time></trkpt><trkpt lat="43.7110743" lon="10.9671997"><ele>27.0</ele><time>2026-04-15T16:01:12.015Z</time></trkpt><trkpt lat="43.7109212" lon="10.9669867"><ele>27.666666666666664</ele><time>2026-04-15T16:01:12.998Z</time></trkpt><trkpt lat="43.7107685" lon="10.9667767"><ele>28.333333333333332</ele><time>2026-04-15T16:01:13.997Z</time></trkpt><trkpt lat="43.7106102" lon="10.9665559"><ele>29.0</ele><time>2026-04-15T16:01:15.014Z</time></trkpt><trkpt lat="43.7104399" lon="10.9663219"><ele>29.0</ele><time>2026-04-15T16:01:15.999Z</time></trkpt><trkpt lat="43.7102564" lon="10.9660694"><ele>29.0</ele><time>2026-04-15T16:01:17.006Z</time></trkpt><trkpt lat="43.7100695" lon="10.9658061"><ele>28.5</ele><time>2026-04-15T16:01:18.002Z</time></trkpt><trkpt lat="43.7098929" lon="10.9655209"><ele>28.0</ele><time>2026-04-15T16:01:18.991Z</time></trkpt><trkpt lat="43.7097234" lon="10.9652107"><ele>27.5</ele><time>2026-04-15T16:01:19.998Z</time></trkpt><trkpt lat="43.709575" lon="10.9648877"><ele>27.0</ele><time>2026-04-15T16:01:21Z</time></trkpt><trkpt lat="43.7094426" lon="10.9645589"><ele>27.0</ele><time>2026-04-15T16:01:22.012Z</time></trkpt><trkpt lat="43.7093317" lon="10.9642208"><ele>27.0</ele><time>2026-04-15T16:01:23.034Z</time></trkpt><trkpt lat="43.7092325" lon="10.9638701"><ele>27.0</ele><time>2026-04-15T16:01:23.976Z</time></trkpt><trkpt lat="43.7091464" lon="10.9635128"><ele>27.0</ele><time>2026-04-15T16:01:24.973Z</time></trkpt><trkpt lat="43.7090799" lon="10.9631542"><ele>27.5</ele><time>2026-04-15T16:01:25.987Z</time></trkpt><trkpt lat="43.7090268" lon="10.9628035"><ele>28.0</ele><time>2026-04-15T16:01:27.012Z</time></trkpt><trkpt lat="43.7089992" lon="10.9624578"><ele>28.5</ele><time>2026-04-15T16:01:28.003Z</time></trkpt><trkpt lat="43.7089816" lon="10.9621062"><ele>29.0</ele><time>2026-04-15T16:01:29.003Z</time></trkpt><trkpt lat="43.7089752" lon="10.9617483"><ele>29.0</ele><time>2026-04-15T16:01:30.002Z</time></trkpt><trkpt lat="43.7089858" lon="10.9613786"><ele>29.0</ele><time>2026-04-15T16:01:30.996Z</time></trkpt><trkpt lat="43.7090127" lon="10.9610103"><ele>29.0</ele><time>2026-04-15T16:01:32.004Z</time></trkpt><trkpt lat="43.7090408" lon="10.9606535"><ele>29.0</ele><time>2026-04-15T16:01:32.996Z</time></trkpt><trkpt lat="43.7090747" lon="10.9602997"><ele>29.5</ele><time>2026-04-15T16:01:34.003Z</time></trkpt><trkpt lat="43.7091109" lon="10.959945"><ele>30.0</ele><time>2026-04-15T16:01:34.985Z</time></trkpt><trkpt lat="43.7091426" lon="10.9595934"><ele>30.0</ele><time>2026-04-15T16:01:35.98Z</time></trkpt><trkpt lat="43.7091767" lon="10.9592381"><ele>30.0</ele><time>2026-04-15T16:01:37.011Z</time></trkpt><trkpt lat="43.709209" lon="10.9588755"><ele>30.5</ele><time>2026-04-15T16:01:38.004Z</time></trkpt><trkpt lat="43.7092429" lon="10.9584989"><ele>31.0</ele><time>2026-04-15T16:01:39.004Z</time></trkpt><trkpt lat="43.7092776" lon="10.9581092"><ele>31.0</ele><time>2026-04-15T16:01:39.999Z</time></trkpt><trkpt lat="43.7093118" lon="10.9577199"><ele>31.0</ele><time>2026-04-15T16:01:40.998Z</time></trkpt><trkpt lat="43.7093431" lon="10.9573222"><ele>30.0</ele><time>2026-04-15T16:01:42.016Z</time></trkpt><trkpt lat="43.7093721" lon="10.9569316"><ele>29.0</ele><time>2026-04-15T16:01:43.013Z</time></trkpt><trkpt lat="43.7094014" lon="10.9565425"><ele>28.5</ele><time>2026-04-15T16:01:43.973Z</time></trkpt><trkpt lat="43.7094313" lon="10.9561498"><ele>28.0</ele><time>2026-04-15T16:01:44.991Z</time></trkpt><trkpt lat="43.7094662" lon="10.9557464"><ele>28.0</ele><time>2026-04-15T16:01:45.964Z</time></trkpt><trkpt lat="43.7095026" lon="10.9553278"><ele>28.0</ele><time>2026-04-15T16:01:46.979Z</time></trkpt><trkpt lat="43.7095373" lon="10.954917"><ele>28.0</ele><time>2026-04-15T16:01:47.979Z</time></trkpt><trkpt lat="43.7095706" lon="10.9545136"><ele>28.0</ele><time>2026-04-15T16:01:48.973Z</time></trkpt><trkpt lat="43.7095993" lon="10.9541238"><ele>27.5</ele><time>2026-04-15T16:01:49.984Z</time></trkpt><trkpt lat="43.7096265" lon="10.9537391"><ele>27.0</ele><time>2026-04-15T16:01:50.988Z</time></trkpt><trkpt lat="43.7096443" lon="10.953354"><ele>27.0</ele><time>2026-04-15T16:01:51.967Z</time></trkpt><trkpt lat="43.7096492" lon="10.9529501"><ele>27.0</ele><time>2026-04-15T16:01:52.966Z</time></trkpt><trkpt lat="43.7096421" lon="10.9525423"><ele>26.5</ele><time>2026-04-15T16:01:53.994Z</time></trkpt><trkpt lat="43.7096169" lon="10.9521333"><ele>26.0</ele><time>2026-04-15T16:01:54.966Z</time></trkpt><trkpt lat="43.7095895" lon="10.9517282"><ele>26.5</ele><time>2026-04-15T16:01:55.968Z</time></trkpt><trkpt lat="43.7095646" lon="10.9513219"><ele>27.0</ele><time>2026-04-15T16:01:56.97Z</time></trkpt><trkpt lat="43.7095404" lon="10.9509276"><ele>27.0</ele><time>2026-04-15T16:01:58.003Z</time></trkpt><trkpt lat="43.7095198" lon="10.9505387"><ele>27.0</ele><time>2026-04-15T16:01:59.005Z</time></trkpt><trkpt lat="43.7094945" lon="10.9501439"><ele>27.0</ele><time>2026-04-15T16:01:59.973Z</time></trkpt><trkpt lat="43.7094685" lon="10.9497526"><ele>27.0</ele><time>2026-04-15T16:02:00.983Z</time></trkpt><trkpt lat="43.7094453" lon="10.9493815"><ele>27.0</ele><time>2026-04-15T16:02:01.98Z</time></trkpt><trkpt lat="43.7094278" lon="10.9490246"><ele>27.0</ele><time>2026-04-15T16:02:02.984Z</time></trkpt><trkpt lat="43.7094086" lon="10.9486631"><ele>27.0</ele><time>2026-04-15T16:02:03.973Z</time></trkpt><trkpt lat="43.7093872" lon="10.9483137"><ele>27.0</ele><time>2026-04-15T16:02:04.967Z</time></trkpt><trkpt lat="43.7093641" lon="10.9479621"><ele>27.0</ele><time>2026-04-15T16:02:06.011Z</time></trkpt><trkpt lat="43.7093405" lon="10.947609"><ele>27.0</ele><time>2026-04-15T16:02:07Z</time></trkpt><trkpt lat="43.7093209" lon="10.9472571"><ele>27.5</ele><time>2026-04-15T16:02:07.969Z</time></trkpt><trkpt lat="43.7093011" lon="10.9469111"><ele>28.0</ele><time>2026-04-15T16:02:09.011Z</time></trkpt><trkpt lat="43.7092834" lon="10.9465621"><ele>28.0</ele><time>2026-04-15T16:02:10.011Z</time></trkpt><trkpt lat="43.7092656" lon="10.9462151"><ele>28.0</ele><time>2026-04-15T16:02:10.996Z</time></trkpt><trkpt lat="43.7092455" lon="10.945875"><ele>27.5</ele><time>2026-04-15T16:02:12.003Z</time></trkpt><trkpt lat="43.7092258" lon="10.9455429"><ele>27.0</ele><time>2026-04-15T16:02:13.002Z</time></trkpt><trkpt lat="43.7092051" lon="10.9452134"><ele>27.0</ele><time>2026-04-15T16:02:13.981Z</time></trkpt><trkpt lat="43.7091842" lon="10.9448828"><ele>27.0</ele><time>2026-04-15T16:02:14.972Z</time></trkpt><trkpt lat="43.7091639" lon="10.9445533"><ele>27.0</ele><time>2026-04-15T16:02:15.972Z</time></trkpt><trkpt lat="43.7091489" lon="10.944219"><ele>27.0</ele><time>2026-04-15T16:02:16.983Z</time></trkpt><trkpt lat="43.7091362" lon="10.94389"><ele>27.0</ele><time>2026-04-15T16:02:17.969Z</time></trkpt><trkpt lat="43.7091262" lon="10.9435586"><ele>27.0</ele><time>2026-04-15T16:02:18.997Z</time></trkpt><trkpt lat="43.7091203" lon="10.9432192"><ele>26.0</ele><time>2026-04-15T16:02:19.984Z</time></trkpt><trkpt lat="43.7091114" lon="10.9428733"><ele>25.0</ele><time>2026-04-15T16:02:21.004Z</time></trkpt><trkpt lat="43.7091002" lon="10.9425243"><ele>24.5</ele><time>2026-04-15T16:02:21.962Z</time></trkpt><trkpt lat="43.7090866" lon="10.9421652"><ele>24.0</ele><time>2026-04-15T16:02:22.98Z</time></trkpt><trkpt lat="43.7090749" lon="10.9418056"><ele>24.0</ele><time>2026-04-15T16:02:23.977Z</time></trkpt><trkpt lat="43.7090624" lon="10.9414481"><ele>24.0</ele><time>2026-04-15T16:02:24.996Z</time></trkpt><trkpt lat="43.7090541" lon="10.9410862"><ele>23.5</ele><time>2026-04-15T16:02:25.968Z</time></trkpt><trkpt lat="43.7090402" lon="10.9407201"><ele>23.0</ele><time>2026-04-15T16:02:26.973Z</time></trkpt><trkpt lat="43.7090278" lon="10.9403494"><ele>24.0</ele><time>2026-04-15T16:02:27.983Z</time></trkpt><trkpt lat="43.7090145" lon="10.9399651"><ele>25.0</ele><time>2026-04-15T16:02:28.963Z</time></trkpt><trkpt lat="43.7090007" lon="10.9395553"><ele>25.0</ele><time>2026-04-15T16:02:29.975Z</time></trkpt><trkpt lat="43.708986" lon="10.9391211"><ele>25.0</ele><time>2026-04-15T16:02:30.97Z</time></trkpt><trkpt lat="43.7089754" lon="10.9386495"><ele>25.0</ele><time>2026-04-15T16:02:31.992Z</time></trkpt><trkpt lat="43.7089604" lon="10.9381722"><ele>25.0</ele><time>2026-04-15T16:02:33.015Z</time></trkpt><trkpt lat="43.7089428" lon="10.93769"><ele>25.0</ele><time>2026-04-15T16:02:34.002Z</time></trkpt><trkpt lat="43.70893" lon="10.9372188"><ele>25.0</ele><time>2026-04-15T16:02:34.983Z</time></trkpt><trkpt lat="43.7089124" lon="10.9367726"><ele>25.0</ele><time>2026-04-15T16:02:35.976Z</time></trkpt><trkpt lat="43.708896" lon="10.936335"><ele>25.0</ele><time>2026-04-15T16:02:36.969Z</time></trkpt><trkpt lat="43.7088789" lon="10.9359016"><ele>25.0</ele><time>2026-04-15T16:02:37.965Z</time></trkpt><trkpt lat="43.7088614" lon="10.9354672"><ele>25.0</ele><time>2026-04-15T16:02:39.001Z</time></trkpt><trkpt lat="43.7088453" lon="10.9350386"><ele>24.5</ele><time>2026-04-15T16:02:39.983Z</time></trkpt><trkpt lat="43.7088284" lon="10.9346187"><ele>24.0</ele><time>2026-04-15T16:02:40.964Z</time></trkpt><trkpt lat="43.7088135" lon="10.9341994"><ele>24.0</ele><time>2026-04-15T16:02:41.977Z</time></trkpt><trkpt lat="43.7088008" lon="10.9337587"><ele>24.0</ele><time>2026-04-15T16:02:42.982Z</time></trkpt><trkpt lat="43.7087868" lon="10.9333188"><ele>24.5</ele><time>2026-04-15T16:02:43.981Z</time></trkpt><trkpt lat="43.7087765" lon="10.932891"><ele>25.0</ele><time>2026-04-15T16:02:44.972Z</time></trkpt><trkpt lat="43.7087619" lon="10.9324866"><ele>25.0</ele><time>2026-04-15T16:02:46.015Z</time></trkpt><trkpt lat="43.7087518" lon="10.9320882"><ele>25.0</ele><time>2026-04-15T16:02:47.004Z</time></trkpt><trkpt lat="43.7087405" lon="10.9316976"><ele>24.5</ele><time>2026-04-15T16:02:47.984Z</time></trkpt><trkpt lat="43.7087298" lon="10.9313019"><ele>24.0</ele><time>2026-04-15T16:02:48.971Z</time></trkpt><trkpt lat="43.7087143" lon="10.930894"><ele>24.0</ele><time>2026-04-15T16:02:49.991Z</time></trkpt><trkpt lat="43.7086959" lon="10.9304857"><ele>24.0</ele><time>2026-04-15T16:02:51.002Z</time></trkpt><trkpt lat="43.7086792" lon="10.9300851"><ele>23.5</ele><time>2026-04-15T16:02:51.971Z</time></trkpt><trkpt lat="43.708664" lon="10.9296872"><ele>23.0</ele><time>2026-04-15T16:02:52.976Z</time></trkpt><trkpt lat="43.7086524" lon="10.929292"><ele>24.0</ele><time>2026-04-15T16:02:53.988Z</time></trkpt><trkpt lat="43.7086391" lon="10.9288952"><ele>25.0</ele><time>2026-04-15T16:02:55Z</time></trkpt><trkpt lat="43.7086252" lon="10.9285041"><ele>24.5</ele><time>2026-04-15T16:02:55.995Z</time></trkpt><trkpt lat="43.7086124" lon="10.9281215"><ele>24.0</ele><time>2026-04-15T16:02:56.997Z</time></trkpt><trkpt lat="43.7085976" lon="10.9277411"><ele>24.0</ele><time>2026-04-15T16:02:57.997Z</time></trkpt><trkpt lat="43.7085842" lon="10.927374"><ele>24.0</ele><time>2026-04-15T16:02:58.977Z</time></trkpt><trkpt lat="43.7085705" lon="10.9270248"><ele>24.5</ele><time>2026-04-15T16:02:59.983Z</time></trkpt><trkpt lat="43.7085601" lon="10.9266884"><ele>25.0</ele><time>2026-04-15T16:03:00.975Z</time></trkpt><trkpt lat="43.7085526" lon="10.9263533"><ele>25.0</ele><time>2026-04-15T16:03:01.988Z</time></trkpt><trkpt lat="43.7085387" lon="10.9260342"><ele>25.0</ele><time>2026-04-15T16:03:02.997Z</time></trkpt><trkpt lat="43.7085278" lon="10.9257133"><ele>25.0</ele><time>2026-04-15T16:03:03.995Z</time></trkpt><trkpt lat="43.7085172" lon="10.9253895"><ele>25.0</ele><time>2026-04-15T16:03:04.973Z</time></trkpt><trkpt lat="43.7085013" lon="10.9250559"><ele>24.0</ele><time>2026-04-15T16:03:05.984Z</time></trkpt><trkpt lat="43.7084913" lon="10.9247099"><ele>23.0</ele><time>2026-04-15T16:03:06.998Z</time></trkpt><trkpt lat="43.7084791" lon="10.9243681"><ele>24.0</ele><time>2026-04-15T16:03:07.996Z</time></trkpt><trkpt lat="43.7084633" lon="10.924014"><ele>25.0</ele><time>2026-04-15T16:03:08.989Z</time></trkpt><trkpt lat="43.7084421" lon="10.9236762"><ele>25.0</ele><time>2026-04-15T16:03:09.987Z</time></trkpt><trkpt lat="43.708418" lon="10.9233623"><ele>25.0</ele><time>2026-04-15T16:03:11.005Z</time></trkpt><trkpt lat="43.7083901" lon="10.9230567"><ele>25.0</ele><time>2026-04-15T16:03:11.988Z</time></trkpt><trkpt lat="43.7083623" lon="10.9227488"><ele>25.0</ele><time>2026-04-15T16:03:12.992Z</time></trkpt><trkpt lat="43.7083304" lon="10.9224361"><ele>24.5</ele><time>2026-04-15T16:03:13.978Z</time></trkpt><trkpt lat="43.708297" lon="10.9221122"><ele>24.0</ele><time>2026-04-15T16:03:14.989Z</time></trkpt><trkpt lat="43.7082702" lon="10.921774"><ele>24.5</ele><time>2026-04-15T16:03:15.995Z</time></trkpt><trkpt lat="43.7082383" lon="10.9214357"><ele>25.0</ele><time>2026-04-15T16:03:16.957Z</time></trkpt><trkpt lat="43.7082035" lon="10.9211067"><ele>24.0</ele><time>2026-04-15T16:03:17.974Z</time></trkpt><trkpt lat="43.7081767" lon="10.9207735"><ele>23.0</ele><time>2026-04-15T16:03:19.001Z</time></trkpt><trkpt lat="43.708152" lon="10.9204458"><ele>23.0</ele><time>2026-04-15T16:03:19.999Z</time></trkpt><trkpt lat="43.7081184" lon="10.9201088"><ele>23.0</ele><time>2026-04-15T16:03:20.969Z</time></trkpt><trkpt lat="43.708096" lon="10.9197807"><ele>22.5</ele><time>2026-04-15T16:03:21.972Z</time></trkpt><trkpt lat="43.7080789" lon="10.919457"><ele>22.0</ele><time>2026-04-15T16:03:22.995Z</time></trkpt><trkpt lat="43.7080759" lon="10.9191369"><ele>23.0</ele><time>2026-04-15T16:03:23.997Z</time></trkpt><trkpt lat="43.7080853" lon="10.918818"><ele>24.0</ele><time>2026-04-15T16:03:24.975Z</time></trkpt><trkpt lat="43.7081066" lon="10.9185007"><ele>24.0</ele><time>2026-04-15T16:03:25.97Z</time></trkpt><trkpt lat="43.7081398" lon="10.9181863"><ele>24.0</ele><time>2026-04-15T16:03:26.968Z</time></trkpt><trkpt lat="43.7081895" lon="10.9178763"><ele>24.0</ele><time>2026-04-15T16:03:27.997Z</time></trkpt><trkpt lat="43.7082498" lon="10.9175721"><ele>24.0</ele><time>2026-04-15T16:03:28.963Z</time></trkpt><trkpt lat="43.7083175" lon="10.9172769"><ele>24.333333333333336</ele><time>2026-04-15T16:03:29.957Z</time></trkpt><trkpt lat="43.7083902" lon="10.9169915"><ele>24.666666666666668</ele><time>2026-04-15T16:03:31.003Z</time></trkpt><trkpt lat="43.708476" lon="10.9167195"><ele>25.0</ele><time>2026-04-15T16:03:31.988Z</time></trkpt><trkpt lat="43.7085684" lon="10.9164558"><ele>25.0</ele><time>2026-04-15T16:03:32.976Z</time></trkpt><trkpt lat="43.7086751" lon="10.91619"><ele>25.0</ele><time>2026-04-15T16:03:33.994Z</time></trkpt><trkpt lat="43.7087884" lon="10.9159271"><ele>25.0</ele><time>2026-04-15T16:03:34.994Z</time></trkpt><trkpt lat="43.708903" lon="10.915672"><ele>25.0</ele><time>2026-04-15T16:03:35.996Z</time></trkpt><trkpt lat="43.7090163" lon="10.9154154"><ele>25.0</ele><time>2026-04-15T16:03:36.963Z</time></trkpt><trkpt lat="43.7091308" lon="10.9151494"><ele>25.0</ele><time>2026-04-15T16:03:37.991Z</time></trkpt><trkpt lat="43.7092513" lon="10.9148762"><ele>25.333333333333336</ele><time>2026-04-15T16:03:38.993Z</time></trkpt><trkpt lat="43.7093686" lon="10.9146108"><ele>25.666666666666664</ele><time>2026-04-15T16:03:39.991Z</time></trkpt><trkpt lat="43.709476" lon="10.9143626"><ele>26.0</ele><time>2026-04-15T16:03:40.994Z</time></trkpt><trkpt lat="43.7095844" lon="10.9141122"><ele>26.0</ele><time>2026-04-15T16:03:41.985Z</time></trkpt><trkpt lat="43.7096954" lon="10.9138528"><ele>26.0</ele><time>2026-04-15T16:03:42.988Z</time></trkpt><trkpt lat="43.7098117" lon="10.9135947"><ele>26.0</ele><time>2026-04-15T16:03:43.977Z</time></trkpt><trkpt lat="43.7099277" lon="10.9133135"><ele>26.0</ele><time>2026-04-15T16:03:44.984Z</time></trkpt><trkpt lat="43.7100369" lon="10.9130034"><ele>26.0</ele><time>2026-04-15T16:03:45.978Z</time></trkpt><trkpt lat="43.7101312" lon="10.91269"><ele>26.0</ele><time>2026-04-15T16:03:46.987Z</time></trkpt><trkpt lat="43.7102075" lon="10.9123847"><ele>26.0</ele><time>2026-04-15T16:03:47.977Z</time></trkpt><trkpt lat="43.7102808" lon="10.912077"><ele>25.5</ele><time>2026-04-15T16:03:48.987Z</time></trkpt><trkpt lat="43.7103471" lon="10.9117662"><ele>25.0</ele><time>2026-04-15T16:03:49.968Z</time></trkpt><trkpt lat="43.7104014" lon="10.911444"><ele>25.0</ele><time>2026-04-15T16:03:50.949Z</time></trkpt><trkpt lat="43.7104429" lon="10.9111347"><ele>25.0</ele><time>2026-04-15T16:03:51.985Z</time></trkpt><trkpt lat="43.7104761" lon="10.9108355"><ele>25.0</ele><time>2026-04-15T16:03:52.979Z</time></trkpt><trkpt lat="43.7104978" lon="10.9105351"><ele>25.0</ele><time>2026-04-15T16:03:53.98Z</time></trkpt><trkpt lat="43.7105067" lon="10.9102244"><ele>25.0</ele><time>2026-04-15T16:03:54.985Z</time></trkpt><trkpt lat="43.7105095" lon="10.9099148"><ele>25.0</ele><time>2026-04-15T16:03:55.985Z</time></trkpt><trkpt lat="43.7105007" lon="10.9095993"><ele>25.0</ele><time>2026-04-15T16:03:56.96Z</time></trkpt><trkpt lat="43.7104867" lon="10.9092775"><ele>25.0</ele><time>2026-04-15T16:03:57.976Z</time></trkpt><trkpt lat="43.7104644" lon="10.9089557"><ele>24.0</ele><time>2026-04-15T16:03:58.991Z</time></trkpt><trkpt lat="43.7104324" lon="10.9086374"><ele>23.0</ele><time>2026-04-15T16:03:59.98Z</time></trkpt><trkpt lat="43.7103889" lon="10.9083205"><ele>22.5</ele><time>2026-04-15T16:04:00.965Z</time></trkpt><trkpt lat="43.7103343" lon="10.9080034"><ele>22.0</ele><time>2026-04-15T16:04:01.987Z</time></trkpt><trkpt lat="43.7102741" lon="10.9076979"><ele>23.0</ele><time>2026-04-15T16:04:02.994Z</time></trkpt><trkpt lat="43.7102101" lon="10.9073995"><ele>24.0</ele><time>2026-04-15T16:04:03.995Z</time></trkpt><trkpt lat="43.7101401" lon="10.9070988"><ele>24.0</ele><time>2026-04-15T16:04:04.959Z</time></trkpt><trkpt lat="43.7100704" lon="10.906803"><ele>24.0</ele><time>2026-04-15T16:04:05.996Z</time></trkpt><trkpt lat="43.7100047" lon="10.9065042"><ele>24.5</ele><time>2026-04-15T16:04:06.982Z</time></trkpt><trkpt lat="43.709936" lon="10.9061964"><ele>25.0</ele><time>2026-04-15T16:04:07.995Z</time></trkpt><trkpt lat="43.7098691" lon="10.9058748"><ele>25.0</ele><time>2026-04-15T16:04:08.98Z</time></trkpt><trkpt lat="43.7097931" lon="10.9055476"><ele>25.0</ele><time>2026-04-15T16:04:09.987Z</time></trkpt><trkpt lat="43.7097227" lon="10.905219"><ele>24.0</ele><time>2026-04-15T16:04:10.952Z</time></trkpt><trkpt lat="43.7096485" lon="10.9048825"><ele>23.0</ele><time>2026-04-15T16:04:11.981Z</time></trkpt><trkpt lat="43.7095742" lon="10.9045486"><ele>23.0</ele><time>2026-04-15T16:04:12.977Z</time></trkpt><trkpt lat="43.7095014" lon="10.9042156"><ele>23.0</ele><time>2026-04-15T16:04:13.981Z</time></trkpt><trkpt lat="43.7094261" lon="10.9038848"><ele>23.0</ele><time>2026-04-15T16:04:14.967Z</time></trkpt><trkpt lat="43.709352" lon="10.9035539"><ele>23.0</ele><time>2026-04-15T16:04:15.987Z</time></trkpt><trkpt lat="43.70928" lon="10.9032324"><ele>23.0</ele><time>2026-04-15T16:04:16.973Z</time></trkpt><trkpt lat="43.7092132" lon="10.9029295"><ele>23.0</ele><time>2026-04-15T16:04:17.987Z</time></trkpt><trkpt lat="43.7091493" lon="10.9026475"><ele>23.0</ele><time>2026-04-15T16:04:18.959Z</time></trkpt><trkpt lat="43.7090895" lon="10.9023802"><ele>23.0</ele><time>2026-04-15T16:04:19.955Z</time></trkpt><trkpt lat="43.7090311" lon="10.9021139"><ele>23.0</ele><time>2026-04-15T16:04:20.979Z</time></trkpt><trkpt lat="43.7089677" lon="10.9018385"><ele>23.0</ele><time>2026-04-15T16:04:21.994Z</time></trkpt><trkpt lat="43.7089034" lon="10.9015534"><ele>23.0</ele><time>2026-04-15T16:04:22.992Z</time></trkpt><trkpt lat="43.7088386" lon="10.9012676"><ele>23.0</ele><time>2026-04-15T16:04:23.98Z</time></trkpt><trkpt lat="43.7087769" lon="10.9009766"><ele>23.0</ele><time>2026-04-15T16:04:24.978Z</time></trkpt><trkpt lat="43.708713" lon="10.9006904"><ele>23.0</ele><time>2026-04-15T16:04:25.988Z</time></trkpt><trkpt lat="43.7086493" lon="10.900402"><ele>23.0</ele><time>2026-04-15T16:04:26.987Z</time></trkpt><trkpt lat="43.7085858" lon="10.900116"><ele>23.0</ele><time>2026-04-15T16:04:27.978Z</time></trkpt><trkpt lat="43.708527" lon="10.8998427"><ele>23.0</ele><time>2026-04-15T16:04:28.969Z</time></trkpt><trkpt lat="43.7084654" lon="10.8995654"><ele>23.0</ele><time>2026-04-15T16:04:29.985Z</time></trkpt><trkpt lat="43.7084018" lon="10.8992832"><ele>23.0</ele><time>2026-04-15T16:04:30.956Z</time></trkpt><trkpt lat="43.7083382" lon="10.8990051"><ele>23.0</ele><time>2026-04-15T16:04:31.951Z</time></trkpt><trkpt lat="43.7082809" lon="10.8987336"><ele>23.0</ele><time>2026-04-15T16:04:32.995Z</time></trkpt><trkpt lat="43.7082221" lon="10.8984681"><ele>23.0</ele><time>2026-04-15T16:04:33.984Z</time></trkpt><trkpt lat="43.7081628" lon="10.8982072"><ele>23.0</ele><time>2026-04-15T16:04:34.992Z</time></trkpt><trkpt lat="43.7081036" lon="10.8979437"><ele>23.0</ele><time>2026-04-15T16:04:35.978Z</time></trkpt><trkpt lat="43.7080444" lon="10.8976771"><ele>23.0</ele><time>2026-04-15T16:04:36.965Z</time></trkpt><trkpt lat="43.7079852" lon="10.8974116"><ele>23.0</ele><time>2026-04-15T16:04:38.003Z</time></trkpt><trkpt lat="43.7079254" lon="10.8971415"><ele>23.0</ele><time>2026-04-15T16:04:38.991Z</time></trkpt><trkpt lat="43.7078641" lon="10.8968656"><ele>23.0</ele><time>2026-04-15T16:04:39.994Z</time></trkpt><trkpt lat="43.7078002" lon="10.8965853"><ele>23.0</ele><time>2026-04-15T16:04:40.973Z</time></trkpt><trkpt lat="43.7077397" lon="10.896301"><ele>23.0</ele><time>2026-04-15T16:04:41.983Z</time></trkpt><trkpt lat="43.7076771" lon="10.8960132"><ele>23.0</ele><time>2026-04-15T16:04:42.991Z</time></trkpt><trkpt lat="43.7076105" lon="10.8957363"><ele>23.333333333333336</ele><time>2026-04-15T16:04:43.987Z</time></trkpt><trkpt lat="43.7075471" lon="10.8954665"><ele>23.666666666666668</ele><time>2026-04-15T16:04:44.979Z</time></trkpt><trkpt lat="43.7074869" lon="10.8951963"><ele>24.0</ele><time>2026-04-15T16:04:45.977Z</time></trkpt><trkpt lat="43.7074275" lon="10.8949232"><ele>24.666666666666664</ele><time>2026-04-15T16:04:46.966Z</time></trkpt><trkpt lat="43.7073685" lon="10.8946514"><ele>25.333333333333332</ele><time>2026-04-15T16:04:47.995Z</time></trkpt><trkpt lat="43.7073069" lon="10.8943801"><ele>26.0</ele><time>2026-04-15T16:04:48.971Z</time></trkpt><trkpt lat="43.7072507" lon="10.8941134"><ele>26.0</ele><time>2026-04-15T16:04:49.97Z</time></trkpt><trkpt lat="43.7071904" lon="10.8938514"><ele>26.0</ele><time>2026-04-15T16:04:50.987Z</time></trkpt><trkpt lat="43.7071323" lon="10.8935902"><ele>26.0</ele><time>2026-04-15T16:04:51.973Z</time></trkpt><trkpt lat="43.7070758" lon="10.8933276"><ele>26.0</ele><time>2026-04-15T16:04:52.968Z</time></trkpt><trkpt lat="43.7070193" lon="10.8930562"><ele>26.0</ele><time>2026-04-15T16:04:53.993Z</time></trkpt><trkpt lat="43.7069618" lon="10.8927702"><ele>26.0</ele><time>2026-04-15T16:04:54.986Z</time></trkpt><trkpt lat="43.7069009" lon="10.892476"><ele>26.0</ele><time>2026-04-15T16:04:55.981Z</time></trkpt><trkpt lat="43.7068357" lon="10.8921831"><ele>26.0</ele><time>2026-04-15T16:04:56.985Z</time></trkpt><trkpt lat="43.7067691" lon="10.8918917"><ele>26.0</ele><time>2026-04-15T16:04:57.996Z</time></trkpt><trkpt lat="43.706708" lon="10.8916126"><ele>25.666666666666664</ele><time>2026-04-15T16:04:58.961Z</time></trkpt><trkpt lat="43.7066498" lon="10.8913314"><ele>25.333333333333336</ele><time>2026-04-15T16:04:59.95Z</time></trkpt><trkpt lat="43.7065892" lon="10.8910596"><ele>25.0</ele><time>2026-04-15T16:05:00.968Z</time></trkpt><trkpt lat="43.7065258" lon="10.8907896"><ele>24.0</ele><time>2026-04-15T16:05:01.967Z</time></trkpt><trkpt lat="43.7064598" lon="10.8905159"><ele>23.0</ele><time>2026-04-15T16:05:02.981Z</time></trkpt><trkpt lat="43.7063976" lon="10.8902342"><ele>22.0</ele><time>2026-04-15T16:05:03.994Z</time></trkpt><trkpt lat="43.7063362" lon="10.88995"><ele>22.0</ele><time>2026-04-15T16:05:04.982Z</time></trkpt><trkpt lat="43.7062757" lon="10.8896602"><ele>22.0</ele><time>2026-04-15T16:05:05.98Z</time></trkpt><trkpt lat="43.7062082" lon="10.8893534"><ele>23.0</ele><time>2026-04-15T16:05:06.977Z</time></trkpt><trkpt lat="43.7061358" lon="10.8890272"><ele>24.0</ele><time>2026-04-15T16:05:07.988Z</time></trkpt><trkpt lat="43.7060582" lon="10.8886893"><ele>25.5</ele><time>2026-04-15T16:05:08.983Z</time></trkpt><trkpt lat="43.7059782" lon="10.8883457"><ele>27.0</ele><time>2026-04-15T16:05:09.983Z</time></trkpt><trkpt lat="43.7059013" lon="10.8880053"><ele>27.0</ele><time>2026-04-15T16:05:10.985Z</time></trkpt><trkpt lat="43.7058255" lon="10.8876643"><ele>27.0</ele><time>2026-04-15T16:05:11.979Z</time></trkpt><trkpt lat="43.7057573" lon="10.8873302"><ele>27.5</ele><time>2026-04-15T16:05:12.969Z</time></trkpt><trkpt lat="43.7056969" lon="10.8870056"><ele>28.0</ele><time>2026-04-15T16:05:13.956Z</time></trkpt><trkpt lat="43.7056411" lon="10.8866893"><ele>28.0</ele><time>2026-04-15T16:05:14.979Z</time></trkpt><trkpt lat="43.7055889" lon="10.8863809"><ele>28.0</ele><time>2026-04-15T16:05:15.969Z</time></trkpt><trkpt lat="43.7055335" lon="10.8860704"><ele>27.0</ele><time>2026-04-15T16:05:16.954Z</time></trkpt><trkpt lat="43.7054828" lon="10.8857596"><ele>26.0</ele><time>2026-04-15T16:05:17.977Z</time></trkpt><trkpt lat="43.7054359" lon="10.8854483"><ele>26.0</ele><time>2026-04-15T16:05:18.985Z</time></trkpt><trkpt lat="43.705391" lon="10.8851376"><ele>26.0</ele><time>2026-04-15T16:05:19.958Z</time></trkpt><trkpt lat="43.7053496" lon="10.8848244"><ele>25.5</ele><time>2026-04-15T16:05:20.973Z</time></trkpt><trkpt lat="43.7053074" lon="10.884508"><ele>25.0</ele><time>2026-04-15T16:05:21.95Z</time></trkpt><trkpt lat="43.705266" lon="10.8841889"><ele>25.0</ele><time>2026-04-15T16:05:22.988Z</time></trkpt><trkpt lat="43.7052262" lon="10.8838652"><ele>25.0</ele><time>2026-04-15T16:05:23.967Z</time></trkpt><trkpt lat="43.7051815" lon="10.8835447"><ele>25.0</ele><time>2026-04-15T16:05:24.975Z</time></trkpt><trkpt lat="43.7051333" lon="10.8832166"><ele>25.0</ele><time>2026-04-15T16:05:25.97Z</time></trkpt><trkpt lat="43.7050906" lon="10.8828944"><ele>24.5</ele><time>2026-04-15T16:05:26.944Z</time></trkpt><trkpt lat="43.7050459" lon="10.8825759"><ele>24.0</ele><time>2026-04-15T16:05:27.974Z</time></trkpt><trkpt lat="43.7050032" lon="10.8822479"><ele>24.0</ele><time>2026-04-15T16:05:28.965Z</time></trkpt><trkpt lat="43.704959" lon="10.8819091"><ele>24.0</ele><time>2026-04-15T16:05:29.975Z</time></trkpt><trkpt lat="43.7049129" lon="10.8815635"><ele>23.5</ele><time>2026-04-15T16:05:30.942Z</time></trkpt><trkpt lat="43.7048686" lon="10.881216"><ele>23.0</ele><time>2026-04-15T16:05:31.962Z</time></trkpt><trkpt lat="43.7048225" lon="10.8808585"><ele>23.5</ele><time>2026-04-15T16:05:32.974Z</time></trkpt><trkpt lat="43.7047716" lon="10.8804799"><ele>24.0</ele><time>2026-04-15T16:05:33.968Z</time></trkpt><trkpt lat="43.7047207" lon="10.8800915"><ele>24.0</ele><time>2026-04-15T16:05:34.991Z</time></trkpt><trkpt lat="43.7046721" lon="10.8797033"><ele>24.0</ele><time>2026-04-15T16:05:35.981Z</time></trkpt><trkpt lat="43.7046251" lon="10.8793206"><ele>24.0</ele><time>2026-04-15T16:05:36.967Z</time></trkpt><trkpt lat="43.7045742" lon="10.878945"><ele>24.0</ele><time>2026-04-15T16:05:37.977Z</time></trkpt><trkpt lat="43.7045249" lon="10.8785897"><ele>24.5</ele><time>2026-04-15T16:05:38.958Z</time></trkpt><trkpt lat="43.7044793" lon="10.8782551"><ele>25.0</ele><time>2026-04-15T16:05:39.959Z</time></trkpt><trkpt lat="43.7044386" lon="10.8779418"><ele>25.333333333333336</ele><time>2026-04-15T16:05:40.953Z</time></trkpt><trkpt lat="43.7044011" lon="10.8776526"><ele>25.666666666666664</ele><time>2026-04-15T16:05:41.979Z</time></trkpt><trkpt lat="43.7043669" lon="10.8773726"><ele>26.0</ele><time>2026-04-15T16:05:42.969Z</time></trkpt><trkpt lat="43.7043318" lon="10.8770859"><ele>25.333333333333332</ele><time>2026-04-15T16:05:43.956Z</time></trkpt><trkpt lat="43.7042937" lon="10.8767996"><ele>24.666666666666664</ele><time>2026-04-15T16:05:44.97Z</time></trkpt><trkpt lat="43.7042526" lon="10.876482"><ele>24.0</ele><time>2026-04-15T16:05:45.961Z</time></trkpt><trkpt lat="43.704205" lon="10.8761467"><ele>24.0</ele><time>2026-04-15T16:05:46.963Z</time></trkpt><trkpt lat="43.7041603" lon="10.8758082"><ele>24.0</ele><time>2026-04-15T16:05:47.956Z</time></trkpt><trkpt lat="43.7041159" lon="10.87547"><ele>24.0</ele><time>2026-04-15T16:05:48.975Z</time></trkpt><trkpt lat="43.7040747" lon="10.875133"><ele>24.0</ele><time>2026-04-15T16:05:49.985Z</time></trkpt><trkpt lat="43.7040292" lon="10.8748028"><ele>23.5</ele><time>2026-04-15T16:05:50.941Z</time></trkpt><trkpt lat="43.7039831" lon="10.8744841"><ele>23.0</ele><time>2026-04-15T16:05:51.977Z</time></trkpt><trkpt lat="43.7039417" lon="10.874169"><ele>23.0</ele><time>2026-04-15T16:05:52.983Z</time></trkpt><trkpt lat="43.7039035" lon="10.8738735"><ele>23.0</ele><time>2026-04-15T16:05:53.973Z</time></trkpt><trkpt lat="43.7038724" lon="10.8736183"><ele>23.0</ele><time>2026-04-15T16:05:54.974Z</time></trkpt><trkpt lat="43.7038455" lon="10.8733868"><ele>23.666666666666668</ele><time>2026-04-15T16:05:55.977Z</time></trkpt><trkpt lat="43.7038147" lon="10.8731537"><ele>24.333333333333336</ele><time>2026-04-15T16:05:56.955Z</time></trkpt><trkpt lat="43.7037836" lon="10.8729209"><ele>25.0</ele><time>2026-04-15T16:05:57.959Z</time></trkpt><trkpt lat="43.7037568" lon="10.8726719"><ele>25.0</ele><time>2026-04-15T16:05:58.975Z</time></trkpt><trkpt lat="43.7037248" lon="10.8724042"><ele>25.0</ele><time>2026-04-15T16:05:59.969Z</time></trkpt><trkpt lat="43.7036892" lon="10.8721378"><ele>25.0</ele><time>2026-04-15T16:06:00.971Z</time></trkpt><trkpt lat="43.7036516" lon="10.8718832"><ele>24.5</ele><time>2026-04-15T16:06:02.065Z</time></trkpt><trkpt lat="43.7035896" lon="10.8713865"><ele>24.0</ele><time>2026-04-15T16:06:03.956Z</time></trkpt><trkpt lat="43.7035541" lon="10.8711345"><ele>24.666666666666664</ele><time>2026-04-15T16:06:04.95Z</time></trkpt><trkpt lat="43.7035251" lon="10.8708867"><ele>25.333333333333332</ele><time>2026-04-15T16:06:05.962Z</time></trkpt><trkpt lat="43.7035006" lon="10.8706346"><ele>26.0</ele><time>2026-04-15T16:06:06.977Z</time></trkpt><trkpt lat="43.7034788" lon="10.8703778"><ele>26.0</ele><time>2026-04-15T16:06:07.981Z</time></trkpt><trkpt lat="43.7034546" lon="10.8701153"><ele>26.0</ele><time>2026-04-15T16:06:09.077Z</time></trkpt><trkpt lat="43.7034372" lon="10.8698417"><ele>26.0</ele><time>2026-04-15T16:06:10.075Z</time></trkpt><trkpt lat="43.7034293" lon="10.8692727"><ele>25.333333333333332</ele><time>2026-04-15T16:06:11.973Z</time></trkpt><trkpt lat="43.7034404" lon="10.8689901"><ele>24.666666666666664</ele><time>2026-04-15T16:06:12.963Z</time></trkpt><trkpt lat="43.7034591" lon="10.8687117"><ele>24.0</ele><time>2026-04-15T16:06:13.946Z</time></trkpt><trkpt lat="43.703485" lon="10.8684362"><ele>23.666666666666668</ele><time>2026-04-15T16:06:15.047Z</time></trkpt><trkpt lat="43.7035174" lon="10.8681578"><ele>23.333333333333336</ele><time>2026-04-15T16:06:16.047Z</time></trkpt><trkpt lat="43.7035551" lon="10.8678849"><ele>23.0</ele><time>2026-04-15T16:06:17.055Z</time></trkpt><trkpt lat="43.7036419" lon="10.8673455"><ele>23.333333333333336</ele><time>2026-04-15T16:06:18.979Z</time></trkpt><trkpt lat="43.7036825" lon="10.8670668"><ele>23.666666666666668</ele><time>2026-04-15T16:06:19.983Z</time></trkpt><trkpt lat="43.7037241" lon="10.8667909"><ele>24.0</ele><time>2026-04-15T16:06:21.068Z</time></trkpt><trkpt lat="43.7037661" lon="10.8665136"><ele>24.0</ele><time>2026-04-15T16:06:22.048Z</time></trkpt><trkpt lat="43.703814" lon="10.8662251"><ele>24.0</ele><time>2026-04-15T16:06:23.071Z</time></trkpt><trkpt lat="43.7038632" lon="10.8659319"><ele>24.0</ele><time>2026-04-15T16:06:24.071Z</time></trkpt><trkpt lat="43.7039573" lon="10.8653345"><ele>23.333333333333332</ele><time>2026-04-15T16:06:25.951Z</time></trkpt><trkpt lat="43.7040071" lon="10.8650377"><ele>22.666666666666664</ele><time>2026-04-15T16:06:27.036Z</time></trkpt><trkpt lat="43.7040526" lon="10.8647431"><ele>22.0</ele><time>2026-04-15T16:06:28.051Z</time></trkpt><trkpt lat="43.7040946" lon="10.8644562"><ele>22.0</ele><time>2026-04-15T16:06:29.063Z</time></trkpt><trkpt lat="43.7041334" lon="10.8641736"><ele>22.0</ele><time>2026-04-15T16:06:30.057Z</time></trkpt><trkpt lat="43.7041687" lon="10.863899"><ele>22.0</ele><time>2026-04-15T16:06:31.053Z</time></trkpt><trkpt lat="43.7041984" lon="10.8636318"><ele>21.666666666666664</ele><time>2026-04-15T16:06:31.977Z</time></trkpt><trkpt lat="43.7042229" lon="10.8633686"><ele>21.333333333333332</ele><time>2026-04-15T16:06:33.057Z</time></trkpt><trkpt lat="43.704245" lon="10.8631007"><ele>21.0</ele><time>2026-04-15T16:06:34.041Z</time></trkpt><trkpt lat="43.7042649" lon="10.8628344"><ele>21.666666666666668</ele><time>2026-04-15T16:06:35.072Z</time></trkpt><trkpt lat="43.704281" lon="10.8625804"><ele>22.333333333333336</ele><time>2026-04-15T16:06:36.059Z</time></trkpt><trkpt lat="43.7042903" lon="10.8623403"><ele>23.0</ele><time>2026-04-15T16:06:37.074Z</time></trkpt><trkpt lat="43.7042951" lon="10.8621022"><ele>23.0</ele><time>2026-04-15T16:06:38.04Z</time></trkpt><trkpt lat="43.7042946" lon="10.8618601"><ele>23.0</ele><time>2026-04-15T16:06:38.98Z</time></trkpt><trkpt lat="43.7042858" lon="10.8616228"><ele>23.0</ele><time>2026-04-15T16:06:40.062Z</time></trkpt><trkpt lat="43.7042755" lon="10.8613878"><ele>22.666666666666668</ele><time>2026-04-15T16:06:41.076Z</time></trkpt><trkpt lat="43.7042698" lon="10.8611543"><ele>22.333333333333332</ele><time>2026-04-15T16:06:42.077Z</time></trkpt><trkpt lat="43.7042607" lon="10.860927"><ele>22.0</ele><time>2026-04-15T16:06:43.06Z</time></trkpt><trkpt lat="43.7042454" lon="10.8607005"><ele>22.0</ele><time>2026-04-15T16:06:44.06Z</time></trkpt><trkpt lat="43.7042265" lon="10.8604782"><ele>22.0</ele><time>2026-04-15T16:06:45.06Z</time></trkpt><trkpt lat="43.7042054" lon="10.8602542"><ele>22.0</ele><time>2026-04-15T16:06:46.055Z</time></trkpt><trkpt lat="43.7041864" lon="10.8600311"><ele>21.666666666666664</ele><time>2026-04-15T16:06:47.056Z</time></trkpt><trkpt lat="43.7041687" lon="10.8598124"><ele>21.333333333333332</ele><time>2026-04-15T16:06:48.042Z</time></trkpt><trkpt lat="43.7041444" lon="10.8596033"><ele>21.0</ele><time>2026-04-15T16:06:49.074Z</time></trkpt><trkpt lat="43.70412" lon="10.8594071"><ele>21.25</ele><time>2026-04-15T16:06:50.056Z</time></trkpt><trkpt lat="43.7040919" lon="10.8592181"><ele>21.5</ele><time>2026-04-15T16:06:51.041Z</time></trkpt><trkpt lat="43.7040649" lon="10.8590326"><ele>21.75</ele><time>2026-04-15T16:06:52.058Z</time></trkpt><trkpt lat="43.7040407" lon="10.8588463"><ele>22.0</ele><time>2026-04-15T16:06:53.067Z</time></trkpt><trkpt lat="43.7040128" lon="10.8586528"><ele>22.0</ele><time>2026-04-15T16:06:54.048Z</time></trkpt><trkpt lat="43.7039799" lon="10.8584376"><ele>22.0</ele><time>2026-04-15T16:06:55.064Z</time></trkpt><trkpt lat="43.7039502" lon="10.8582129"><ele>22.0</ele><time>2026-04-15T16:06:56.049Z</time></trkpt><trkpt lat="43.7039231" lon="10.8579919"><ele>22.0</ele><time>2026-04-15T16:06:57.073Z</time></trkpt><trkpt lat="43.7038959" lon="10.8577689"><ele>22.0</ele><time>2026-04-15T16:06:58.073Z</time></trkpt><trkpt lat="43.7038678" lon="10.8575449"><ele>22.0</ele><time>2026-04-15T16:06:59.065Z</time></trkpt><trkpt lat="43.7038365" lon="10.8573166"><ele>22.0</ele><time>2026-04-15T16:07:00.072Z</time></trkpt><trkpt lat="43.7038038" lon="10.8570742"><ele>22.0</ele><time>2026-04-15T16:07:01.035Z</time></trkpt><trkpt lat="43.7037726" lon="10.8568141"><ele>22.0</ele><time>2026-04-15T16:07:02.054Z</time></trkpt><trkpt lat="43.7037403" lon="10.8565554"><ele>22.0</ele><time>2026-04-15T16:07:03.018Z</time></trkpt><trkpt lat="43.7037082" lon="10.8563014"><ele>22.0</ele><time>2026-04-15T16:07:04.033Z</time></trkpt><trkpt lat="43.7036766" lon="10.8560516"><ele>22.0</ele><time>2026-04-15T16:07:05.033Z</time></trkpt><trkpt lat="43.7036474" lon="10.8558058"><ele>22.0</ele><time>2026-04-15T16:07:06.058Z</time></trkpt><trkpt lat="43.7036133" lon="10.8555627"><ele>22.0</ele><time>2026-04-15T16:07:07.041Z</time></trkpt><trkpt lat="43.703579" lon="10.8553121"><ele>22.0</ele><time>2026-04-15T16:07:08.052Z</time></trkpt><trkpt lat="43.7035484" lon="10.8550642"><ele>22.0</ele><time>2026-04-15T16:07:09.056Z</time></trkpt><trkpt lat="43.7035189" lon="10.854813"><ele>22.0</ele><time>2026-04-15T16:07:10.05Z</time></trkpt><trkpt lat="43.7034861" lon="10.8545611"><ele>22.0</ele><time>2026-04-15T16:07:11.063Z</time></trkpt><trkpt lat="43.7034562" lon="10.854309"><ele>21.333333333333332</ele><time>2026-04-15T16:07:12.064Z</time></trkpt><trkpt lat="43.7034248" lon="10.8540541"><ele>20.666666666666668</ele><time>2026-04-15T16:07:13.073Z</time></trkpt><trkpt lat="43.7033945" lon="10.8538039"><ele>20.0</ele><time>2026-04-15T16:07:14.066Z</time></trkpt><trkpt lat="43.703363" lon="10.8535516"><ele>20.666666666666668</ele><time>2026-04-15T16:07:15.038Z</time></trkpt><trkpt lat="43.7033332" lon="10.8533092"><ele>21.333333333333332</ele><time>2026-04-15T16:07:16.057Z</time></trkpt><trkpt lat="43.7033008" lon="10.8530703"><ele>22.0</ele><time>2026-04-15T16:07:17.057Z</time></trkpt><trkpt lat="43.7032703" lon="10.85283"><ele>22.0</ele><time>2026-04-15T16:07:18.056Z</time></trkpt><trkpt lat="43.7032353" lon="10.8525871"><ele>22.0</ele><time>2026-04-15T16:07:19.049Z</time></trkpt><trkpt lat="43.7032044" lon="10.8523334"><ele>22.0</ele><time>2026-04-15T16:07:20.055Z</time></trkpt><trkpt lat="43.7031753" lon="10.8520764"><ele>22.0</ele><time>2026-04-15T16:07:21.057Z</time></trkpt><trkpt lat="43.7031414" lon="10.8518118"><ele>22.0</ele><time>2026-04-15T16:07:22.046Z</time></trkpt><trkpt lat="43.7031054" lon="10.8515383"><ele>22.0</ele><time>2026-04-15T16:07:23.064Z</time></trkpt><trkpt lat="43.7030699" lon="10.8512594"><ele>22.333333333333332</ele><time>2026-04-15T16:07:24.038Z</time></trkpt><trkpt lat="43.7030343" lon="10.8509735"><ele>22.666666666666668</ele><time>2026-04-15T16:07:25.048Z</time></trkpt><trkpt lat="43.7030001" lon="10.8506945"><ele>23.0</ele><time>2026-04-15T16:07:26.07Z</time></trkpt><trkpt lat="43.7029632" lon="10.8504202"><ele>22.666666666666668</ele><time>2026-04-15T16:07:27.059Z</time></trkpt><trkpt lat="43.7029272" lon="10.8501468"><ele>22.333333333333332</ele><time>2026-04-15T16:07:28.065Z</time></trkpt><trkpt lat="43.7028911" lon="10.8498733"><ele>22.0</ele><time>2026-04-15T16:07:29.071Z</time></trkpt><trkpt lat="43.7028574" lon="10.8496023"><ele>22.0</ele><time>2026-04-15T16:07:30.035Z</time></trkpt><trkpt lat="43.7028246" lon="10.8493284"><ele>22.0</ele><time>2026-04-15T16:07:31.035Z</time></trkpt><trkpt lat="43.7027905" lon="10.8490516"><ele>22.0</ele><time>2026-04-15T16:07:32.047Z</time></trkpt><trkpt lat="43.7027557" lon="10.8487704"><ele>21.333333333333332</ele><time>2026-04-15T16:07:33.066Z</time></trkpt><trkpt lat="43.7027205" lon="10.8484892"><ele>20.666666666666668</ele><time>2026-04-15T16:07:34.033Z</time></trkpt><trkpt lat="43.7026861" lon="10.8482062"><ele>20.0</ele><time>2026-04-15T16:07:35.027Z</time></trkpt><trkpt lat="43.7026536" lon="10.8479334"><ele>20.0</ele><time>2026-04-15T16:07:36.056Z</time></trkpt><trkpt lat="43.7026187" lon="10.8476608"><ele>20.0</ele><time>2026-04-15T16:07:37.058Z</time></trkpt><trkpt lat="43.7025807" lon="10.8473915"><ele>20.0</ele><time>2026-04-15T16:07:38.047Z</time></trkpt><trkpt lat="43.7025427" lon="10.8471254"><ele>20.666666666666668</ele><time>2026-04-15T16:07:39.074Z</time></trkpt><trkpt lat="43.7025052" lon="10.84685"><ele>21.333333333333332</ele><time>2026-04-15T16:07:40.039Z</time></trkpt><trkpt lat="43.7024662" lon="10.8465699"><ele>22.0</ele><time>2026-04-15T16:07:41.068Z</time></trkpt><trkpt lat="43.7024305" lon="10.8462814"><ele>22.0</ele><time>2026-04-15T16:07:42.076Z</time></trkpt><trkpt lat="43.7023927" lon="10.8459841"><ele>22.0</ele><time>2026-04-15T16:07:43.06Z</time></trkpt><trkpt lat="43.702356" lon="10.8456796"><ele>22.0</ele><time>2026-04-15T16:07:44.073Z</time></trkpt><trkpt lat="43.7023192" lon="10.8453789"><ele>22.0</ele><time>2026-04-15T16:07:45.068Z</time></trkpt><trkpt lat="43.702281" lon="10.8450944"><ele>22.0</ele><time>2026-04-15T16:07:46.072Z</time></trkpt><trkpt lat="43.7022438" lon="10.8448242"><ele>22.0</ele><time>2026-04-15T16:07:47.067Z</time></trkpt><trkpt lat="43.7022029" lon="10.8445534"><ele>21.333333333333332</ele><time>2026-04-15T16:07:48.034Z</time></trkpt><trkpt lat="43.7021567" lon="10.8442811"><ele>20.666666666666668</ele><time>2026-04-15T16:07:49.07Z</time></trkpt><trkpt lat="43.702108" lon="10.8440055"><ele>20.0</ele><time>2026-04-15T16:07:50.042Z</time></trkpt><trkpt lat="43.7020454" lon="10.8437127"><ele>20.5</ele><time>2026-04-15T16:07:51.055Z</time></trkpt><trkpt lat="43.7019708" lon="10.8434085"><ele>21.0</ele><time>2026-04-15T16:07:52.054Z</time></trkpt><trkpt lat="43.7018859" lon="10.8430873"><ele>21.0</ele><time>2026-04-15T16:07:53.057Z</time></trkpt><trkpt lat="43.7017869" lon="10.8427683"><ele>21.0</ele><time>2026-04-15T16:07:54.057Z</time></trkpt><trkpt lat="43.7016799" lon="10.8424619"><ele>21.5</ele><time>2026-04-15T16:07:55.049Z</time></trkpt><trkpt lat="43.7015689" lon="10.8421635"><ele>22.0</ele><time>2026-04-15T16:07:56.045Z</time></trkpt><trkpt lat="43.7014506" lon="10.8418631"><ele>22.0</ele><time>2026-04-15T16:07:57.053Z</time></trkpt><trkpt lat="43.7013256" lon="10.8415607"><ele>22.0</ele><time>2026-04-15T16:07:58.042Z</time></trkpt><trkpt lat="43.7011941" lon="10.8412514"><ele>21.5</ele><time>2026-04-15T16:07:59.056Z</time></trkpt><trkpt lat="43.7010541" lon="10.8409541"><ele>21.0</ele><time>2026-04-15T16:08:00.045Z</time></trkpt><trkpt lat="43.7009137" lon="10.8406744"><ele>21.0</ele><time>2026-04-15T16:08:01.079Z</time></trkpt><trkpt lat="43.7007785" lon="10.8404019"><ele>21.0</ele><time>2026-04-15T16:08:02.056Z</time></trkpt><trkpt lat="43.700639" lon="10.8401261"><ele>20.5</ele><time>2026-04-15T16:08:03.056Z</time></trkpt><trkpt lat="43.7004882" lon="10.8398404"><ele>20.0</ele><time>2026-04-15T16:08:04.039Z</time></trkpt><trkpt lat="43.7003339" lon="10.8395337"><ele>21.0</ele><time>2026-04-15T16:08:05.063Z</time></trkpt><trkpt lat="43.7001803" lon="10.8392197"><ele>22.0</ele><time>2026-04-15T16:08:06.039Z</time></trkpt><trkpt lat="43.7000272" lon="10.8389067"><ele>22.0</ele><time>2026-04-15T16:08:07.064Z</time></trkpt><trkpt lat="43.6998747" lon="10.8385977"><ele>22.0</ele><time>2026-04-15T16:08:08.045Z</time></trkpt><trkpt lat="43.6997314" lon="10.8383049"><ele>22.0</ele><time>2026-04-15T16:08:09.043Z</time></trkpt><trkpt lat="43.6995955" lon="10.8380313"><ele>22.0</ele><time>2026-04-15T16:08:10.047Z</time></trkpt><trkpt lat="43.6994608" lon="10.8377618"><ele>21.0</ele><time>2026-04-15T16:08:11.049Z</time></trkpt><trkpt lat="43.6993301" lon="10.8374928"><ele>20.0</ele><time>2026-04-15T16:08:12.033Z</time></trkpt><trkpt lat="43.6991979" lon="10.8372289"><ele>20.0</ele><time>2026-04-15T16:08:13.067Z</time></trkpt><trkpt lat="43.6990704" lon="10.8369761"><ele>20.0</ele><time>2026-04-15T16:08:14.065Z</time></trkpt><trkpt lat="43.6989522" lon="10.8367439"><ele>20.0</ele><time>2026-04-15T16:08:15.022Z</time></trkpt><trkpt lat="43.6988372" lon="10.8365138"><ele>20.666666666666668</ele><time>2026-04-15T16:08:16.037Z</time></trkpt><trkpt lat="43.6987245" lon="10.8362835"><ele>21.333333333333332</ele><time>2026-04-15T16:08:17.067Z</time></trkpt><trkpt lat="43.6986102" lon="10.8360576"><ele>22.0</ele><time>2026-04-15T16:08:18.028Z</time></trkpt><trkpt lat="43.6984959" lon="10.8358297"><ele>22.0</ele><time>2026-04-15T16:08:19.021Z</time></trkpt><trkpt lat="43.6983791" lon="10.835597"><ele>22.0</ele><time>2026-04-15T16:08:20.049Z</time></trkpt><trkpt lat="43.6982611" lon="10.8353618"><ele>22.0</ele><time>2026-04-15T16:08:21.045Z</time></trkpt><trkpt lat="43.69814" lon="10.8351122"><ele>23.5</ele><time>2026-04-15T16:08:22.041Z</time></trkpt><trkpt lat="43.6980098" lon="10.8348556"><ele>25.0</ele><time>2026-04-15T16:08:23.031Z</time></trkpt><trkpt lat="43.697879" lon="10.8345939"><ele>24.0</ele><time>2026-04-15T16:08:24.04Z</time></trkpt><trkpt lat="43.6977452" lon="10.8343297"><ele>23.0</ele><time>2026-04-15T16:08:25.038Z</time></trkpt><trkpt lat="43.6976179" lon="10.8340572"><ele>23.0</ele><time>2026-04-15T16:08:26.071Z</time></trkpt><trkpt lat="43.6974983" lon="10.8337668"><ele>23.0</ele><time>2026-04-15T16:08:27.024Z</time></trkpt><trkpt lat="43.6973844" lon="10.8334664"><ele>23.0</ele><time>2026-04-15T16:08:28.05Z</time></trkpt><trkpt lat="43.6972764" lon="10.8331575"><ele>23.0</ele><time>2026-04-15T16:08:29.067Z</time></trkpt><trkpt lat="43.697177" lon="10.8328404"><ele>23.0</ele><time>2026-04-15T16:08:30.032Z</time></trkpt><trkpt lat="43.6970796" lon="10.8325044"><ele>23.0</ele><time>2026-04-15T16:08:31.04Z</time></trkpt><trkpt lat="43.6969857" lon="10.8321481"><ele>22.0</ele><time>2026-04-15T16:08:32.022Z</time></trkpt><trkpt lat="43.6969042" lon="10.8317844"><ele>21.0</ele><time>2026-04-15T16:08:33.017Z</time></trkpt><trkpt lat="43.6968323" lon="10.8314"><ele>21.0</ele><time>2026-04-15T16:08:34.035Z</time></trkpt><trkpt lat="43.6967723" lon="10.8310131"><ele>21.0</ele><time>2026-04-15T16:08:35.022Z</time></trkpt><trkpt lat="43.6967297" lon="10.8306177"><ele>21.0</ele><time>2026-04-15T16:08:36.052Z</time></trkpt><trkpt lat="43.6967009" lon="10.8302322"><ele>21.0</ele><time>2026-04-15T16:08:37.049Z</time></trkpt><trkpt lat="43.6966773" lon="10.8298426"><ele>21.5</ele><time>2026-04-15T16:08:38.065Z</time></trkpt><trkpt lat="43.696662" lon="10.8294409"><ele>22.0</ele><time>2026-04-15T16:08:39.03Z</time></trkpt><trkpt lat="43.6966597" lon="10.82904"><ele>22.5</ele><time>2026-04-15T16:08:40.017Z</time></trkpt><trkpt lat="43.6966738" lon="10.8286436"><ele>23.0</ele><time>2026-04-15T16:08:41.047Z</time></trkpt><trkpt lat="43.6967041" lon="10.8282463"><ele>23.0</ele><time>2026-04-15T16:08:42.046Z</time></trkpt><trkpt lat="43.6967578" lon="10.8278375"><ele>23.0</ele><time>2026-04-15T16:08:43.038Z</time></trkpt><trkpt lat="43.6968269" lon="10.8274098"><ele>22.5</ele><time>2026-04-15T16:08:44.045Z</time></trkpt><trkpt lat="43.6969022" lon="10.8269697"><ele>22.0</ele><time>2026-04-15T16:08:45.06Z</time></trkpt><trkpt lat="43.6969842" lon="10.8265293"><ele>21.5</ele><time>2026-04-15T16:08:46.057Z</time></trkpt><trkpt lat="43.6970698" lon="10.8260896"><ele>21.0</ele><time>2026-04-15T16:08:47.051Z</time></trkpt><trkpt lat="43.6971588" lon="10.8256384"><ele>20.5</ele><time>2026-04-15T16:08:48.057Z</time></trkpt><trkpt lat="43.6972498" lon="10.8251823"><ele>20.0</ele><time>2026-04-15T16:08:49.054Z</time></trkpt><trkpt lat="43.6973386" lon="10.8247404"><ele>19.5</ele><time>2026-04-15T16:08:50.055Z</time></trkpt><trkpt lat="43.6974266" lon="10.82431"><ele>19.0</ele><time>2026-04-15T16:08:51.015Z</time></trkpt><trkpt lat="43.6975157" lon="10.8238672"><ele>19.0</ele><time>2026-04-15T16:08:52.048Z</time></trkpt><trkpt lat="43.6976036" lon="10.8234232"><ele>19.0</ele><time>2026-04-15T16:08:53.053Z</time></trkpt><trkpt lat="43.6976919" lon="10.8229645"><ele>19.5</ele><time>2026-04-15T16:08:54.062Z</time></trkpt><trkpt lat="43.6977822" lon="10.8224921"><ele>20.0</ele><time>2026-04-15T16:08:55.049Z</time></trkpt><trkpt lat="43.697876" lon="10.8220087"><ele>20.0</ele><time>2026-04-15T16:08:56.055Z</time></trkpt><trkpt lat="43.6979736" lon="10.8215213"><ele>20.0</ele><time>2026-04-15T16:08:57.036Z</time></trkpt><trkpt lat="43.6980705" lon="10.8210321"><ele>20.0</ele><time>2026-04-15T16:08:58.042Z</time></trkpt><trkpt lat="43.698165" lon="10.8205504"><ele>20.0</ele><time>2026-04-15T16:08:59.019Z</time></trkpt><trkpt lat="43.698258" lon="10.8200673"><ele>20.0</ele><time>2026-04-15T16:09:00.058Z</time></trkpt><trkpt lat="43.698345" lon="10.8195986"><ele>20.0</ele><time>2026-04-15T16:09:01.055Z</time></trkpt><trkpt lat="43.6984252" lon="10.8191395"><ele>20.0</ele><time>2026-04-15T16:09:02.017Z</time></trkpt><trkpt lat="43.6985042" lon="10.8186761"><ele>20.0</ele><time>2026-04-15T16:09:03.046Z</time></trkpt><trkpt lat="43.698574" lon="10.8182163"><ele>20.5</ele><time>2026-04-15T16:09:04.036Z</time></trkpt><trkpt lat="43.6986356" lon="10.8177523"><ele>21.0</ele><time>2026-04-15T16:09:05.051Z</time></trkpt><trkpt lat="43.698686" lon="10.8172858"><ele>21.5</ele><time>2026-04-15T16:09:06.058Z</time></trkpt><trkpt lat="43.6987243" lon="10.816814"><ele>22.0</ele><time>2026-04-15T16:09:07.047Z</time></trkpt><trkpt lat="43.6987597" lon="10.8163446"><ele>21.5</ele><time>2026-04-15T16:09:08.045Z</time></trkpt><trkpt lat="43.6987859" lon="10.8158774"><ele>21.0</ele><time>2026-04-15T16:09:09.058Z</time></trkpt><trkpt lat="43.698801" lon="10.8154249"><ele>20.5</ele><time>2026-04-15T16:09:10.047Z</time></trkpt><trkpt lat="43.6988082" lon="10.8149742"><ele>20.0</ele><time>2026-04-15T16:09:11.047Z</time></trkpt><trkpt lat="43.6988103" lon="10.8145194"><ele>20.0</ele><time>2026-04-15T16:09:12.026Z</time></trkpt><trkpt lat="43.6988033" lon="10.8140596"><ele>20.0</ele><time>2026-04-15T16:09:13.037Z</time></trkpt><trkpt lat="43.6987886" lon="10.8135801"><ele>20.5</ele><time>2026-04-15T16:09:14.047Z</time></trkpt><trkpt lat="43.6987617" lon="10.813079"><ele>21.0</ele><time>2026-04-15T16:09:15.048Z</time></trkpt><trkpt lat="43.6987213" lon="10.8125768"><ele>21.5</ele><time>2026-04-15T16:09:16.04Z</time></trkpt><trkpt lat="43.6986736" lon="10.8120591"><ele>22.0</ele><time>2026-04-15T16:09:17.037Z</time></trkpt><trkpt lat="43.6986171" lon="10.8115337"><ele>21.5</ele><time>2026-04-15T16:09:18.049Z</time></trkpt><trkpt lat="43.6985562" lon="10.8110046"><ele>21.0</ele><time>2026-04-15T16:09:19.029Z</time></trkpt><trkpt lat="43.6984943" lon="10.8104825"><ele>22.0</ele><time>2026-04-15T16:09:20.031Z</time></trkpt><trkpt lat="43.6984307" lon="10.8099721"><ele>23.0</ele><time>2026-04-15T16:09:21.01Z</time></trkpt><trkpt lat="43.6983703" lon="10.8094724"><ele>22.5</ele><time>2026-04-15T16:09:22.026Z</time></trkpt><trkpt lat="43.6983147" lon="10.8089899"><ele>22.0</ele><time>2026-04-15T16:09:23.06Z</time></trkpt><trkpt lat="43.6982624" lon="10.8085288"><ele>21.5</ele><time>2026-04-15T16:09:24.032Z</time></trkpt><trkpt lat="43.6982085" lon="10.808095"><ele>21.0</ele><time>2026-04-15T16:09:25.041Z</time></trkpt><trkpt lat="43.6981602" lon="10.8076837"><ele>21.0</ele><time>2026-04-15T16:09:26.04Z</time></trkpt><trkpt lat="43.6981119" lon="10.807281"><ele>21.0</ele><time>2026-04-15T16:09:27.057Z</time></trkpt><trkpt lat="43.6980648" lon="10.8068957"><ele>21.0</ele><time>2026-04-15T16:09:28.041Z</time></trkpt><trkpt lat="43.698017" lon="10.8065155"><ele>21.0</ele><time>2026-04-15T16:09:29.039Z</time></trkpt><trkpt lat="43.6979702" lon="10.8061353"><ele>21.0</ele><time>2026-04-15T16:09:30.052Z</time></trkpt><trkpt lat="43.6979272" lon="10.8057658"><ele>21.0</ele><time>2026-04-15T16:09:31.047Z</time></trkpt><trkpt lat="43.69788" lon="10.8053975"><ele>21.0</ele><time>2026-04-15T16:09:32.019Z</time></trkpt><trkpt lat="43.6978331" lon="10.8050259"><ele>21.0</ele><time>2026-04-15T16:09:33.036Z</time></trkpt><trkpt lat="43.6977887" lon="10.8046556"><ele>21.0</ele><time>2026-04-15T16:09:34.037Z</time></trkpt><trkpt lat="43.6977469" lon="10.8042866"><ele>21.0</ele><time>2026-04-15T16:09:35.033Z</time></trkpt><trkpt lat="43.6977" lon="10.8039176"><ele>21.0</ele><time>2026-04-15T16:09:36.041Z</time></trkpt><trkpt lat="43.697657" lon="10.803544"><ele>21.0</ele><time>2026-04-15T16:09:37.035Z</time></trkpt><trkpt lat="43.6976128" lon="10.8031715"><ele>21.0</ele><time>2026-04-15T16:09:38.054Z</time></trkpt><trkpt lat="43.697565" lon="10.8027913"><ele>21.0</ele><time>2026-04-15T16:09:39.053Z</time></trkpt><trkpt lat="43.6975172" lon="10.8024092"><ele>21.5</ele><time>2026-04-15T16:09:40.036Z</time></trkpt><trkpt lat="43.6974679" lon="10.8020251"><ele>22.0</ele><time>2026-04-15T16:09:41.05Z</time></trkpt><trkpt lat="43.6974205" lon="10.8016434"><ele>22.5</ele><time>2026-04-15T16:09:42.026Z</time></trkpt><trkpt lat="43.6973746" lon="10.8012597"><ele>23.0</ele><time>2026-04-15T16:09:43.044Z</time></trkpt><trkpt lat="43.6973274" lon="10.8008701"><ele>23.0</ele><time>2026-04-15T16:09:44.033Z</time></trkpt><trkpt lat="43.6972819" lon="10.800479"><ele>23.0</ele><time>2026-04-15T16:09:45.019Z</time></trkpt><trkpt lat="43.6972326" lon="10.8000797"><ele>22.0</ele><time>2026-04-15T16:09:46.043Z</time></trkpt><trkpt lat="43.6971856" lon="10.7996802"><ele>21.0</ele><time>2026-04-15T16:09:47.035Z</time></trkpt><trkpt lat="43.6971381" lon="10.7992815"><ele>21.0</ele><time>2026-04-15T16:09:48.028Z</time></trkpt><trkpt lat="43.6970868" lon="10.7988747"><ele>21.0</ele><time>2026-04-15T16:09:49.044Z</time></trkpt><trkpt lat="43.6970403" lon="10.7984722"><ele>21.0</ele><time>2026-04-15T16:09:50.031Z</time></trkpt><trkpt lat="43.6969895" lon="10.7980604"><ele>21.0</ele><time>2026-04-15T16:09:51.04Z</time></trkpt><trkpt lat="43.6969386" lon="10.797651"><ele>21.0</ele><time>2026-04-15T16:09:52.014Z</time></trkpt><trkpt lat="43.6968888" lon="10.7972412"><ele>21.0</ele><time>2026-04-15T16:09:53.008Z</time></trkpt><trkpt lat="43.6968388" lon="10.7968363"><ele>21.5</ele><time>2026-04-15T16:09:54.047Z</time></trkpt><trkpt lat="43.6967915" lon="10.7964379"><ele>22.0</ele><time>2026-04-15T16:09:55.052Z</time></trkpt><trkpt lat="43.6967382" lon="10.7960298"><ele>22.5</ele><time>2026-04-15T16:09:56.036Z</time></trkpt><trkpt lat="43.6966763" lon="10.7956073"><ele>23.0</ele><time>2026-04-15T16:09:57.037Z</time></trkpt><trkpt lat="43.6966055" lon="10.7951827"><ele>22.0</ele><time>2026-04-15T16:09:58.045Z</time></trkpt><trkpt lat="43.6965256" lon="10.7947591"><ele>21.0</ele><time>2026-04-15T16:09:59.036Z</time></trkpt><trkpt lat="43.6964349" lon="10.7943328"><ele>20.5</ele><time>2026-04-15T16:10:00.046Z</time></trkpt><trkpt lat="43.696333" lon="10.793904"><ele>20.0</ele><time>2026-04-15T16:10:01.054Z</time></trkpt><trkpt lat="43.696216" lon="10.7934739"><ele>21.0</ele><time>2026-04-15T16:10:02.04Z</time></trkpt><trkpt lat="43.6960815" lon="10.7930347"><ele>22.0</ele><time>2026-04-15T16:10:03.012Z</time></trkpt><trkpt lat="43.6959158" lon="10.7925868"><ele>22.0</ele><time>2026-04-15T16:10:04.04Z</time></trkpt><trkpt lat="43.6957322" lon="10.7921342"><ele>22.0</ele><time>2026-04-15T16:10:05.032Z</time></trkpt><trkpt lat="43.6955336" lon="10.7916857"><ele>21.0</ele><time>2026-04-15T16:10:06.031Z</time></trkpt><trkpt lat="43.6953288" lon="10.7912494"><ele>20.0</ele><time>2026-04-15T16:10:07.039Z</time></trkpt><trkpt lat="43.6951252" lon="10.7908404"><ele>20.0</ele><time>2026-04-15T16:10:08.029Z</time></trkpt><trkpt lat="43.6949192" lon="10.7904536"><ele>20.0</ele><time>2026-04-15T16:10:09.052Z</time></trkpt><trkpt lat="43.6947106" lon="10.7900825"><ele>20.5</ele><time>2026-04-15T16:10:10.031Z</time></trkpt><trkpt lat="43.6945073" lon="10.7897468"><ele>21.0</ele><time>2026-04-15T16:10:11.037Z</time></trkpt><trkpt lat="43.6943147" lon="10.7894214"><ele>22.0</ele><time>2026-04-15T16:10:12.04Z</time></trkpt><trkpt lat="43.6941301" lon="10.7891053"><ele>23.0</ele><time>2026-04-15T16:10:13.035Z</time></trkpt><trkpt lat="43.6939476" lon="10.7888013"><ele>23.0</ele><time>2026-04-15T16:10:14.016Z</time></trkpt><trkpt lat="43.6937731" lon="10.7885009"><ele>23.0</ele><time>2026-04-15T16:10:15.023Z</time></trkpt><trkpt lat="43.6935986" lon="10.7882008"><ele>23.0</ele><time>2026-04-15T16:10:16.037Z</time></trkpt><trkpt lat="43.6934295" lon="10.7879117"><ele>23.0</ele><time>2026-04-15T16:10:17.055Z</time></trkpt><trkpt lat="43.6932726" lon="10.7876356"><ele>23.0</ele><time>2026-04-15T16:10:18.061Z</time></trkpt><trkpt lat="43.6931163" lon="10.7873655"><ele>23.0</ele><time>2026-04-15T16:10:19.012Z</time></trkpt><trkpt lat="43.6929568" lon="10.7870951"><ele>22.5</ele><time>2026-04-15T16:10:20.014Z</time></trkpt><trkpt lat="43.6927999" lon="10.7868259"><ele>22.0</ele><time>2026-04-15T16:10:21.027Z</time></trkpt><trkpt lat="43.6926451" lon="10.7865604"><ele>21.5</ele><time>2026-04-15T16:10:22.033Z</time></trkpt><trkpt lat="43.6924885" lon="10.7862975"><ele>21.0</ele><time>2026-04-15T16:10:23.031Z</time></trkpt><trkpt lat="43.6923309" lon="10.7860317"><ele>22.0</ele><time>2026-04-15T16:10:24.04Z</time></trkpt><trkpt lat="43.6921768" lon="10.7857703"><ele>23.0</ele><time>2026-04-15T16:10:25.015Z</time></trkpt><trkpt lat="43.6920278" lon="10.7855111"><ele>23.0</ele><time>2026-04-15T16:10:26.028Z</time></trkpt><trkpt lat="43.6918822" lon="10.78526"><ele>23.0</ele><time>2026-04-15T16:10:27.045Z</time></trkpt><trkpt lat="43.6917346" lon="10.7850031"><ele>22.5</ele><time>2026-04-15T16:10:28.016Z</time></trkpt><trkpt lat="43.6915857" lon="10.7847471"><ele>22.0</ele><time>2026-04-15T16:10:29.02Z</time></trkpt><trkpt lat="43.6914314" lon="10.7844853"><ele>22.5</ele><time>2026-04-15T16:10:30.024Z</time></trkpt><trkpt lat="43.6912769" lon="10.7842245"><ele>23.0</ele><time>2026-04-15T16:10:31.017Z</time></trkpt><trkpt lat="43.6911203" lon="10.7839624"><ele>23.0</ele><time>2026-04-15T16:10:32.024Z</time></trkpt><trkpt lat="43.6909547" lon="10.7836851"><ele>23.0</ele><time>2026-04-15T16:10:33.04Z</time></trkpt><trkpt lat="43.6907796" lon="10.783387"><ele>23.0</ele><time>2026-04-15T16:10:34.026Z</time></trkpt><trkpt lat="43.6906001" lon="10.7830873"><ele>23.0</ele><time>2026-04-15T16:10:35.034Z</time></trkpt><trkpt lat="43.6904202" lon="10.7827789"><ele>22.5</ele><time>2026-04-15T16:10:36.027Z</time></trkpt><trkpt lat="43.6902356" lon="10.7824672"><ele>22.0</ele><time>2026-04-15T16:10:37.056Z</time></trkpt><trkpt lat="43.6900486" lon="10.7821507"><ele>22.0</ele><time>2026-04-15T16:10:38.019Z</time></trkpt><trkpt lat="43.6898514" lon="10.7818166"><ele>22.0</ele><time>2026-04-15T16:10:39.042Z</time></trkpt><trkpt lat="43.6896464" lon="10.7814656"><ele>22.0</ele><time>2026-04-15T16:10:40.041Z</time></trkpt><trkpt lat="43.6894331" lon="10.7810992"><ele>22.0</ele><time>2026-04-15T16:10:41.043Z</time></trkpt><trkpt lat="43.6892192" lon="10.7807352"><ele>23.0</ele><time>2026-04-15T16:10:42.034Z</time></trkpt><trkpt lat="43.6890093" lon="10.7803812"><ele>24.0</ele><time>2026-04-15T16:10:43.047Z</time></trkpt><trkpt lat="43.6888134" lon="10.7800449"><ele>24.0</ele><time>2026-04-15T16:10:44.023Z</time></trkpt><trkpt lat="43.688615" lon="10.7797119"><ele>24.0</ele><time>2026-04-15T16:10:45.027Z</time></trkpt><trkpt lat="43.6884269" lon="10.7793883"><ele>27.5</ele><time>2026-04-15T16:10:46.044Z</time></trkpt><trkpt lat="43.6882535" lon="10.7790837"><ele>31.0</ele><time>2026-04-15T16:10:47.046Z</time></trkpt><trkpt lat="43.6880833" lon="10.778787"><ele>31.0</ele><time>2026-04-15T16:10:48.032Z</time></trkpt><trkpt lat="43.6879088" lon="10.778484"><ele>31.0</ele><time>2026-04-15T16:10:49.049Z</time></trkpt><trkpt lat="43.6877302" lon="10.7781767"><ele>35.0</ele><time>2026-04-15T16:10:50.043Z</time></trkpt><trkpt lat="43.6875492" lon="10.7778769"><ele>39.0</ele><time>2026-04-15T16:10:51.043Z</time></trkpt><trkpt lat="43.6873747" lon="10.7775803"><ele>39.0</ele><time>2026-04-15T16:10:52.039Z</time></trkpt><trkpt lat="43.6872049" lon="10.7772816"><ele>39.0</ele><time>2026-04-15T16:10:53.048Z</time></trkpt><trkpt lat="43.687042" lon="10.7769822"><ele>42.0</ele><time>2026-04-15T16:10:54.01Z</time></trkpt><trkpt lat="43.6868883" lon="10.7766676"><ele>45.0</ele><time>2026-04-15T16:10:55.037Z</time></trkpt><trkpt lat="43.6867493" lon="10.7763524"><ele>49.5</ele><time>2026-04-15T16:10:56.034Z</time></trkpt><trkpt lat="43.6866222" lon="10.7760194"><ele>54.0</ele><time>2026-04-15T16:10:57.035Z</time></trkpt><trkpt lat="43.6862463" lon="10.7750687"><ele>54.0</ele><time>2026-04-15T16:10:59.996Z</time></trkpt><trkpt lat="43.6861834" lon="10.7747285"><ele>54.0</ele><time>2026-04-15T16:11:01.046Z</time></trkpt><trkpt lat="43.6861261" lon="10.774389"><ele>52.0</ele><time>2026-04-15T16:11:02.023Z</time></trkpt><trkpt lat="43.6860281" lon="10.7740519"><ele>50.0</ele><time>2026-04-15T16:11:03.04Z</time></trkpt><trkpt lat="43.6859193" lon="10.7737157"><ele>48.5</ele><time>2026-04-15T16:11:04.045Z</time></trkpt><trkpt lat="43.6858112" lon="10.7733959"><ele>47.0</ele><time>2026-04-15T16:11:05.045Z</time></trkpt><trkpt lat="43.6856982" lon="10.7730907"><ele>47.0</ele><time>2026-04-15T16:11:06.02Z</time></trkpt><trkpt lat="43.6855829" lon="10.7727866"><ele>47.0</ele><time>2026-04-15T16:11:07.019Z</time></trkpt><trkpt lat="43.6854562" lon="10.7724711"><ele>46.5</ele><time>2026-04-15T16:11:08.031Z</time></trkpt><trkpt lat="43.6853331" lon="10.7721607"><ele>46.0</ele><time>2026-04-15T16:11:09.036Z</time></trkpt><trkpt lat="43.6852124" lon="10.7718387"><ele>43.0</ele><time>2026-04-15T16:11:10.032Z</time></trkpt><trkpt lat="43.6850852" lon="10.7715112"><ele>40.0</ele><time>2026-04-15T16:11:11.034Z</time></trkpt><trkpt lat="43.6849597" lon="10.7711792"><ele>39.5</ele><time>2026-04-15T16:11:12.036Z</time></trkpt><trkpt lat="43.6848375" lon="10.770847"><ele>39.0</ele><time>2026-04-15T16:11:13.016Z</time></trkpt><trkpt lat="43.6847227" lon="10.7705032"><ele>39.0</ele><time>2026-04-15T16:11:14.027Z</time></trkpt><trkpt lat="43.68461" lon="10.7701447"><ele>39.0</ele><time>2026-04-15T16:11:15.029Z</time></trkpt><trkpt lat="43.6845025" lon="10.7697555"><ele>37.0</ele><time>2026-04-15T16:11:16.02Z</time></trkpt><trkpt lat="43.6844016" lon="10.7693378"><ele>35.0</ele><time>2026-04-15T16:11:17.044Z</time></trkpt><trkpt lat="43.6843118" lon="10.768909"><ele>35.5</ele><time>2026-04-15T16:11:18.012Z</time></trkpt><trkpt lat="43.6842339" lon="10.7684773"><ele>36.0</ele><time>2026-04-15T16:11:19.035Z</time></trkpt><trkpt lat="43.6841715" lon="10.7680504"><ele>36.5</ele><time>2026-04-15T16:11:20.037Z</time></trkpt><trkpt lat="43.684119" lon="10.7676287"><ele>37.0</ele><time>2026-04-15T16:11:21.047Z</time></trkpt><trkpt lat="43.6840825" lon="10.767202"><ele>35.5</ele><time>2026-04-15T16:11:22.035Z</time></trkpt><trkpt lat="43.6840546" lon="10.7667948"><ele>34.0</ele><time>2026-04-15T16:11:23.029Z</time></trkpt><trkpt lat="43.6840349" lon="10.766397"><ele>33.5</ele><time>2026-04-15T16:11:24.028Z</time></trkpt><trkpt lat="43.684014" lon="10.7660146"><ele>33.0</ele><time>2026-04-15T16:11:25.034Z</time></trkpt><trkpt lat="43.6839943" lon="10.7656311"><ele>33.0</ele><time>2026-04-15T16:11:26.034Z</time></trkpt><trkpt lat="43.6839736" lon="10.7652558"><ele>33.0</ele><time>2026-04-15T16:11:27.01Z</time></trkpt><trkpt lat="43.6839567" lon="10.7648875"><ele>33.0</ele><time>2026-04-15T16:11:28.028Z</time></trkpt><trkpt lat="43.6839379" lon="10.7645266"><ele>33.0</ele><time>2026-04-15T16:11:29.036Z</time></trkpt><trkpt lat="43.6839241" lon="10.7641608"><ele>32.5</ele><time>2026-04-15T16:11:30.017Z</time></trkpt><trkpt lat="43.6839093" lon="10.7637873"><ele>32.0</ele><time>2026-04-15T16:11:31.016Z</time></trkpt><trkpt lat="43.6838842" lon="10.7634228"><ele>32.0</ele><time>2026-04-15T16:11:32.027Z</time></trkpt><trkpt lat="43.6838482" lon="10.7630676"><ele>32.0</ele><time>2026-04-15T16:11:33.037Z</time></trkpt><trkpt lat="43.6838042" lon="10.7627402"><ele>31.5</ele><time>2026-04-15T16:11:34.041Z</time></trkpt><trkpt lat="43.6837554" lon="10.762421"><ele>31.0</ele><time>2026-04-15T16:11:35.027Z</time></trkpt><trkpt lat="43.6837048" lon="10.7621217"><ele>31.333333333333336</ele><time>2026-04-15T16:11:36.033Z</time></trkpt><trkpt lat="43.68365" lon="10.7618363"><ele>31.666666666666664</ele><time>2026-04-15T16:11:37.045Z</time></trkpt><trkpt lat="43.6835978" lon="10.7615614"><ele>32.0</ele><time>2026-04-15T16:11:38.009Z</time></trkpt><trkpt lat="43.6835484" lon="10.7612986"><ele>32.0</ele><time>2026-04-15T16:11:39.024Z</time></trkpt><trkpt lat="43.6835013" lon="10.7610444"><ele>32.0</ele><time>2026-04-15T16:11:40.038Z</time></trkpt><trkpt lat="43.6834551" lon="10.7607943"><ele>32.0</ele><time>2026-04-15T16:11:41.038Z</time></trkpt><trkpt lat="43.6834124" lon="10.7605366"><ele>33.0</ele><time>2026-04-15T16:11:42.024Z</time></trkpt><trkpt lat="43.6833642" lon="10.7602862"><ele>34.0</ele><time>2026-04-15T16:11:43.015Z</time></trkpt><trkpt lat="43.6833144" lon="10.7600357"><ele>35.0</ele><time>2026-04-15T16:11:44.03Z</time></trkpt><trkpt lat="43.6832605" lon="10.7597833"><ele>35.0</ele><time>2026-04-15T16:11:45.021Z</time></trkpt><trkpt lat="43.6832077" lon="10.7595285"><ele>35.0</ele><time>2026-04-15T16:11:46.03Z</time></trkpt><trkpt lat="43.6831534" lon="10.7592692"><ele>35.0</ele><time>2026-04-15T16:11:47.019Z</time></trkpt><trkpt lat="43.6830947" lon="10.7590082"><ele>34.33333333333333</ele><time>2026-04-15T16:11:48.027Z</time></trkpt><trkpt lat="43.6830257" lon="10.7587402"><ele>33.666666666666664</ele><time>2026-04-15T16:11:49.033Z</time></trkpt><trkpt lat="43.6829495" lon="10.7584663"><ele>33.0</ele><time>2026-04-15T16:11:50.036Z</time></trkpt><trkpt lat="43.6828698" lon="10.7581876"><ele>33.0</ele><time>2026-04-15T16:11:51.012Z</time></trkpt><trkpt lat="43.6827801" lon="10.7579058"><ele>33.0</ele><time>2026-04-15T16:11:52.025Z</time></trkpt><trkpt lat="43.6826778" lon="10.7576168"><ele>32.0</ele><time>2026-04-15T16:11:53.022Z</time></trkpt><trkpt lat="43.6825712" lon="10.7573244"><ele>31.0</ele><time>2026-04-15T16:11:54.026Z</time></trkpt><trkpt lat="43.682446" lon="10.7570245"><ele>30.0</ele><time>2026-04-15T16:11:55.022Z</time></trkpt><trkpt lat="43.6823033" lon="10.7567195"><ele>29.0</ele><time>2026-04-15T16:11:56.022Z</time></trkpt><trkpt lat="43.6821417" lon="10.7564036"><ele>29.0</ele><time>2026-04-15T16:11:57.027Z</time></trkpt><trkpt lat="43.6819675" lon="10.7560757"><ele>29.0</ele><time>2026-04-15T16:11:58.026Z</time></trkpt><trkpt lat="43.6817839" lon="10.7557372"><ele>30.0</ele><time>2026-04-15T16:11:59.025Z</time></trkpt><trkpt lat="43.6816035" lon="10.7553824"><ele>31.0</ele><time>2026-04-15T16:12:00.031Z</time></trkpt><trkpt lat="43.6814224" lon="10.7550287"><ele>31.5</ele><time>2026-04-15T16:12:01.035Z</time></trkpt><trkpt lat="43.6812354" lon="10.7546661"><ele>32.0</ele><time>2026-04-15T16:12:02.027Z</time></trkpt><trkpt lat="43.6810591" lon="10.754306"><ele>32.5</ele><time>2026-04-15T16:12:02.996Z</time></trkpt><trkpt lat="43.6808819" lon="10.7539549"><ele>33.0</ele><time>2026-04-15T16:12:04.036Z</time></trkpt><trkpt lat="43.680702" lon="10.753598"><ele>32.0</ele><time>2026-04-15T16:12:05.036Z</time></trkpt><trkpt lat="43.6805135" lon="10.7532357"><ele>31.0</ele><time>2026-04-15T16:12:06.035Z</time></trkpt><trkpt lat="43.6803153" lon="10.7528526"><ele>34.5</ele><time>2026-04-15T16:12:07.038Z</time></trkpt><trkpt lat="43.6801163" lon="10.7524629"><ele>38.0</ele><time>2026-04-15T16:12:08.029Z</time></trkpt><trkpt lat="43.6799082" lon="10.7520597"><ele>40.5</ele><time>2026-04-15T16:12:09.03Z</time></trkpt><trkpt lat="43.6796959" lon="10.751641"><ele>43.0</ele><time>2026-04-15T16:12:10.038Z</time></trkpt><trkpt lat="43.6794787" lon="10.7512173"><ele>40.0</ele><time>2026-04-15T16:12:11.021Z</time></trkpt><trkpt lat="43.6792587" lon="10.750787"><ele>37.0</ele><time>2026-04-15T16:12:12.025Z</time></trkpt><trkpt lat="43.6790412" lon="10.7503636"><ele>35.0</ele><time>2026-04-15T16:12:13.045Z</time></trkpt><trkpt lat="43.6788434" lon="10.7499608"><ele>33.0</ele><time>2026-04-15T16:12:14.035Z</time></trkpt><trkpt lat="43.6786622" lon="10.749589"><ele>38.5</ele><time>2026-04-15T16:12:15.02Z</time></trkpt><trkpt lat="43.6784848" lon="10.7492439"><ele>44.0</ele><time>2026-04-15T16:12:16.037Z</time></trkpt><trkpt lat="43.6783104" lon="10.7489194"><ele>44.0</ele><time>2026-04-15T16:12:17.008Z</time></trkpt><trkpt lat="43.6781414" lon="10.7485993"><ele>44.0</ele><time>2026-04-15T16:12:18.043Z</time></trkpt><trkpt lat="43.6779627" lon="10.7482985"><ele>47.5</ele><time>2026-04-15T16:12:19.027Z</time></trkpt><trkpt lat="43.6777804" lon="10.7480154"><ele>51.0</ele><time>2026-04-15T16:12:20.034Z</time></trkpt><trkpt lat="43.6775966" lon="10.7477504"><ele>48.0</ele><time>2026-04-15T16:12:21.016Z</time></trkpt><trkpt lat="43.6774144" lon="10.7474906"><ele>45.0</ele><time>2026-04-15T16:12:22.043Z</time></trkpt><trkpt lat="43.6772267" lon="10.7472445"><ele>45.0</ele><time>2026-04-15T16:12:23.019Z</time></trkpt><trkpt lat="43.6770329" lon="10.747006"><ele>45.0</ele><time>2026-04-15T16:12:24.028Z</time></trkpt><trkpt lat="43.6768353" lon="10.7467766"><ele>42.0</ele><time>2026-04-15T16:12:25.017Z</time></trkpt><trkpt lat="43.6766396" lon="10.7465549"><ele>39.0</ele><time>2026-04-15T16:12:26.019Z</time></trkpt><trkpt lat="43.6764391" lon="10.7463334"><ele>39.0</ele><time>2026-04-15T16:12:27.018Z</time></trkpt><trkpt lat="43.6762338" lon="10.7461019"><ele>39.0</ele><time>2026-04-15T16:12:28.036Z</time></trkpt><trkpt lat="43.6760341" lon="10.7458789"><ele>43.5</ele><time>2026-04-15T16:12:29.036Z</time></trkpt><trkpt lat="43.6758418" lon="10.7456608"><ele>48.0</ele><time>2026-04-15T16:12:30.035Z</time></trkpt><trkpt lat="43.6756554" lon="10.7454475"><ele>48.0</ele><time>2026-04-15T16:12:31.011Z</time></trkpt><trkpt lat="43.6754632" lon="10.7452327"><ele>48.0</ele><time>2026-04-15T16:12:32.006Z</time></trkpt><trkpt lat="43.67526" lon="10.7449959"><ele>47.0</ele><time>2026-04-15T16:12:33.021Z</time></trkpt><trkpt lat="43.6750398" lon="10.7447435"><ele>46.0</ele><time>2026-04-15T16:12:34.032Z</time></trkpt><trkpt lat="43.6748017" lon="10.7444675"><ele>46.0</ele><time>2026-04-15T16:12:35.018Z</time></trkpt><trkpt lat="43.6745504" lon="10.7441804"><ele>46.0</ele><time>2026-04-15T16:12:36.022Z</time></trkpt><trkpt lat="43.6742972" lon="10.7438897"><ele>44.5</ele><time>2026-04-15T16:12:37.033Z</time></trkpt><trkpt lat="43.6740413" lon="10.7435995"><ele>43.0</ele><time>2026-04-15T16:12:38.009Z</time></trkpt><trkpt lat="43.673796" lon="10.7433158"><ele>38.0</ele><time>2026-04-15T16:12:39.022Z</time></trkpt><trkpt lat="43.673551" lon="10.7430434"><ele>33.0</ele><time>2026-04-15T16:12:40.029Z</time></trkpt><trkpt lat="43.6733098" lon="10.7427664"><ele>34.0</ele><time>2026-04-15T16:12:41.043Z</time></trkpt><trkpt lat="43.6730769" lon="10.742491"><ele>35.0</ele><time>2026-04-15T16:12:42.01Z</time></trkpt><trkpt lat="43.6728587" lon="10.7422091"><ele>33.0</ele><time>2026-04-15T16:12:43.02Z</time></trkpt><trkpt lat="43.6726507" lon="10.7419237"><ele>31.0</ele><time>2026-04-15T16:12:44.02Z</time></trkpt><trkpt lat="43.6724529" lon="10.7416378"><ele>31.0</ele><time>2026-04-15T16:12:45.027Z</time></trkpt><trkpt lat="43.6722708" lon="10.7413359"><ele>31.0</ele><time>2026-04-15T16:12:46.025Z</time></trkpt><trkpt lat="43.6720967" lon="10.7410258"><ele>31.0</ele><time>2026-04-15T16:12:47.017Z</time></trkpt><trkpt lat="43.6719371" lon="10.7407015"><ele>31.0</ele><time>2026-04-15T16:12:48.012Z</time></trkpt><trkpt lat="43.6717851" lon="10.7403597"><ele>30.5</ele><time>2026-04-15T16:12:49.033Z</time></trkpt><trkpt lat="43.6716378" lon="10.7399922"><ele>30.0</ele><time>2026-04-15T16:12:50.04Z</time></trkpt><trkpt lat="43.6715039" lon="10.7395982"><ele>30.0</ele><time>2026-04-15T16:12:51.02Z</time></trkpt><trkpt lat="43.6713849" lon="10.7391888"><ele>30.0</ele><time>2026-04-15T16:12:51.992Z</time></trkpt><trkpt lat="43.6712772" lon="10.7387407"><ele>30.0</ele><time>2026-04-15T16:12:53.02Z</time></trkpt><trkpt lat="43.6711885" lon="10.738281"><ele>30.0</ele><time>2026-04-15T16:12:54.001Z</time></trkpt><trkpt lat="43.6711209" lon="10.7378082"><ele>28.0</ele><time>2026-04-15T16:12:55.005Z</time></trkpt><trkpt lat="43.6710764" lon="10.7373281"><ele>26.0</ele><time>2026-04-15T16:12:56.006Z</time></trkpt><trkpt lat="43.6710508" lon="10.7368415"><ele>25.5</ele><time>2026-04-15T16:12:56.999Z</time></trkpt><trkpt lat="43.6710475" lon="10.7363333"><ele>25.0</ele><time>2026-04-15T16:12:58.02Z</time></trkpt><trkpt lat="43.6710635" lon="10.7358254"><ele>25.0</ele><time>2026-04-15T16:12:59.002Z</time></trkpt><trkpt lat="43.6710893" lon="10.7353337"><ele>25.0</ele><time>2026-04-15T16:13:00.037Z</time></trkpt><trkpt lat="43.6711207" lon="10.7348767"><ele>25.0</ele><time>2026-04-15T16:13:00.995Z</time></trkpt><trkpt lat="43.6711537" lon="10.7344409"><ele>25.0</ele><time>2026-04-15T16:13:01.997Z</time></trkpt><trkpt lat="43.6711862" lon="10.7340291"><ele>25.0</ele><time>2026-04-15T16:13:03.023Z</time></trkpt><trkpt lat="43.6712217" lon="10.7336312"><ele>25.0</ele><time>2026-04-15T16:13:03.993Z</time></trkpt><trkpt lat="43.6712549" lon="10.7332521"><ele>25.0</ele><time>2026-04-15T16:13:05.034Z</time></trkpt><trkpt lat="43.6712867" lon="10.7329043"><ele>25.0</ele><time>2026-04-15T16:13:06.029Z</time></trkpt><trkpt lat="43.6713151" lon="10.7325559"><ele>24.5</ele><time>2026-04-15T16:13:07.033Z</time></trkpt><trkpt lat="43.6713468" lon="10.732212"><ele>24.0</ele><time>2026-04-15T16:13:08.029Z</time></trkpt><trkpt lat="43.6713797" lon="10.7318613"><ele>23.0</ele><time>2026-04-15T16:13:09.033Z</time></trkpt><trkpt lat="43.671413" lon="10.7314949"><ele>22.0</ele><time>2026-04-15T16:13:10.029Z</time></trkpt><trkpt lat="43.6714467" lon="10.7311169"><ele>23.0</ele><time>2026-04-15T16:13:11.02Z</time></trkpt><trkpt lat="43.6714818" lon="10.7307258"><ele>24.0</ele><time>2026-04-15T16:13:11.996Z</time></trkpt><trkpt lat="43.671518" lon="10.7303219"><ele>24.5</ele><time>2026-04-15T16:13:13.024Z</time></trkpt><trkpt lat="43.6715556" lon="10.729897"><ele>25.0</ele><time>2026-04-15T16:13:14.028Z</time></trkpt><trkpt lat="43.6715947" lon="10.7294673"><ele>25.0</ele><time>2026-04-15T16:13:15.023Z</time></trkpt><trkpt lat="43.6716359" lon="10.7290247"><ele>25.0</ele><time>2026-04-15T16:13:16.041Z</time></trkpt><trkpt lat="43.6716773" lon="10.7285744"><ele>25.5</ele><time>2026-04-15T16:13:17.017Z</time></trkpt><trkpt lat="43.6717126" lon="10.7281338"><ele>26.0</ele><time>2026-04-15T16:13:18.024Z</time></trkpt><trkpt lat="43.6717473" lon="10.7277073"><ele>26.0</ele><time>2026-04-15T16:13:19.012Z</time></trkpt><trkpt lat="43.6717789" lon="10.7272997"><ele>26.0</ele><time>2026-04-15T16:13:20.025Z</time></trkpt><trkpt lat="43.671813" lon="10.7268993"><ele>23.5</ele><time>2026-04-15T16:13:21.024Z</time></trkpt><trkpt lat="43.6718393" lon="10.7265034"><ele>21.0</ele><time>2026-04-15T16:13:22.04Z</time></trkpt><trkpt lat="43.6718487" lon="10.7260937"><ele>21.0</ele><time>2026-04-15T16:13:23.012Z</time></trkpt><trkpt lat="43.6718469" lon="10.7256594"><ele>21.0</ele><time>2026-04-15T16:13:24.015Z</time></trkpt><trkpt lat="43.671832" lon="10.7252132"><ele>21.5</ele><time>2026-04-15T16:13:25.016Z</time></trkpt><trkpt lat="43.6718009" lon="10.7247682"><ele>22.0</ele><time>2026-04-15T16:13:26.016Z</time></trkpt><trkpt lat="43.6717494" lon="10.7243216"><ele>22.0</ele><time>2026-04-15T16:13:26.987Z</time></trkpt><trkpt lat="43.6716811" lon="10.7238805"><ele>22.0</ele><time>2026-04-15T16:13:28.022Z</time></trkpt><trkpt lat="43.6715944" lon="10.7234418"><ele>21.5</ele><time>2026-04-15T16:13:29.015Z</time></trkpt><trkpt lat="43.6714968" lon="10.7230111"><ele>21.0</ele><time>2026-04-15T16:13:30.009Z</time></trkpt><trkpt lat="43.6713944" lon="10.7226034"><ele>21.0</ele><time>2026-04-15T16:13:31.024Z</time></trkpt><trkpt lat="43.6712999" lon="10.7222185"><ele>21.0</ele><time>2026-04-15T16:13:32.014Z</time></trkpt><trkpt lat="43.6712108" lon="10.7218473"><ele>21.0</ele><time>2026-04-15T16:13:33.009Z</time></trkpt><trkpt lat="43.6711224" lon="10.7214851"><ele>21.0</ele><time>2026-04-15T16:13:34.031Z</time></trkpt><trkpt lat="43.6710341" lon="10.7211276"><ele>22.0</ele><time>2026-04-15T16:13:35.024Z</time></trkpt><trkpt lat="43.6709498" lon="10.7207769"><ele>23.0</ele><time>2026-04-15T16:13:36.028Z</time></trkpt><trkpt lat="43.6708647" lon="10.7204407"><ele>22.5</ele><time>2026-04-15T16:13:37.028Z</time></trkpt><trkpt lat="43.6707787" lon="10.7201039"><ele>22.0</ele><time>2026-04-15T16:13:38.034Z</time></trkpt><trkpt lat="43.6706954" lon="10.7197743"><ele>22.0</ele><time>2026-04-15T16:13:39.021Z</time></trkpt><trkpt lat="43.6706055" lon="10.7194224"><ele>22.0</ele><time>2026-04-15T16:13:40.016Z</time></trkpt><trkpt lat="43.6705082" lon="10.7190509"><ele>21.0</ele><time>2026-04-15T16:13:41.006Z</time></trkpt><trkpt lat="43.6704129" lon="10.7186445"><ele>20.0</ele><time>2026-04-15T16:13:42.018Z</time></trkpt><trkpt lat="43.6703097" lon="10.7182242"><ele>20.0</ele><time>2026-04-15T16:13:43.015Z</time></trkpt><trkpt lat="43.6702024" lon="10.7177768"><ele>20.0</ele><time>2026-04-15T16:13:43.987Z</time></trkpt><trkpt lat="43.6700905" lon="10.7173041"><ele>20.0</ele><time>2026-04-15T16:13:44.997Z</time></trkpt><trkpt lat="43.6699754" lon="10.7168083"><ele>20.0</ele><time>2026-04-15T16:13:46.019Z</time></trkpt><trkpt lat="43.669854" lon="10.7163089"><ele>20.0</ele><time>2026-04-15T16:13:47.003Z</time></trkpt><trkpt lat="43.6697224" lon="10.715804"><ele>20.0</ele><time>2026-04-15T16:13:48.033Z</time></trkpt><trkpt lat="43.6695733" lon="10.7152991"><ele>20.0</ele><time>2026-04-15T16:13:49.006Z</time></trkpt><trkpt lat="43.6694072" lon="10.7148167"><ele>20.0</ele><time>2026-04-15T16:13:50.01Z</time></trkpt><trkpt lat="43.6692329" lon="10.7143759"><ele>19.5</ele><time>2026-04-15T16:13:51.003Z</time></trkpt><trkpt lat="43.669061" lon="10.713976"><ele>19.0</ele><time>2026-04-15T16:13:52.004Z</time></trkpt><trkpt lat="43.668882" lon="10.7135999"><ele>19.0</ele><time>2026-04-15T16:13:52.999Z</time></trkpt><trkpt lat="43.6686956" lon="10.7132502"><ele>19.0</ele><time>2026-04-15T16:13:54.004Z</time></trkpt><trkpt lat="43.6684924" lon="10.7129322"><ele>20.0</ele><time>2026-04-15T16:13:55.003Z</time></trkpt><trkpt lat="43.6682876" lon="10.7126321"><ele>21.0</ele><time>2026-04-15T16:13:56.007Z</time></trkpt><trkpt lat="43.6680751" lon="10.7123527"><ele>21.0</ele><time>2026-04-15T16:13:56.995Z</time></trkpt><trkpt lat="43.6678556" lon="10.7120882"><ele>21.0</ele><time>2026-04-15T16:13:57.992Z</time></trkpt><trkpt lat="43.6676364" lon="10.7118399"><ele>20.0</ele><time>2026-04-15T16:13:58.985Z</time></trkpt><trkpt lat="43.667417" lon="10.7116063"><ele>19.0</ele><time>2026-04-15T16:14:00.026Z</time></trkpt><trkpt lat="43.6671945" lon="10.7113994"><ele>19.0</ele><time>2026-04-15T16:14:01.013Z</time></trkpt><trkpt lat="43.6669694" lon="10.7112038"><ele>19.0</ele><time>2026-04-15T16:14:02.013Z</time></trkpt><trkpt lat="43.6667434" lon="10.7110042"><ele>20.0</ele><time>2026-04-15T16:14:03.016Z</time></trkpt><trkpt lat="43.6665146" lon="10.7108078"><ele>21.0</ele><time>2026-04-15T16:14:04.009Z</time></trkpt><trkpt lat="43.6662847" lon="10.7106211"><ele>21.0</ele><time>2026-04-15T16:14:05.013Z</time></trkpt><trkpt lat="43.6658332" lon="10.7102442"><ele>21.0</ele><time>2026-04-15T16:14:07.012Z</time></trkpt><trkpt lat="43.6656031" lon="10.710048"><ele>21.0</ele><time>2026-04-15T16:14:08.014Z</time></trkpt><trkpt lat="43.6653788" lon="10.7098437"><ele>22.5</ele><time>2026-04-15T16:14:09.015Z</time></trkpt><trkpt lat="43.6651588" lon="10.7096243"><ele>24.0</ele><time>2026-04-15T16:14:10.011Z</time></trkpt><trkpt lat="43.6649489" lon="10.7093894"><ele>24.0</ele><time>2026-04-15T16:14:11.009Z</time></trkpt><trkpt lat="43.6647557" lon="10.7091406"><ele>24.0</ele><time>2026-04-15T16:14:12.014Z</time></trkpt><trkpt lat="43.6645605" lon="10.7088688"><ele>23.5</ele><time>2026-04-15T16:14:12.993Z</time></trkpt><trkpt lat="43.6643664" lon="10.7085804"><ele>23.0</ele><time>2026-04-15T16:14:14.011Z</time></trkpt><trkpt lat="43.6641833" lon="10.7082644"><ele>20.0</ele><time>2026-04-15T16:14:15.023Z</time></trkpt><trkpt lat="43.6700905" lon="10.7173041"><ele>20.0</ele><time>2026-04-15T16:13:44.997Z</time></trkpt><trkpt lat="43.6699754" lon="10.7168083"><ele>20.0</ele><time>2026-04-15T16:13:46.019Z</time></trkpt><trkpt lat="43.669854" lon="10.7163089"><ele>20.0</ele><time>2026-04-15T16:13:47.003Z</time></trkpt><trkpt lat="43.6697224" lon="10.715804"><ele>20.0</ele><time>2026-04-15T16:13:48.033Z</time></trkpt><trkpt lat="43.6695733" lon="10.7152991"><ele>20.0</ele><time>2026-04-15T16:13:49.006Z</time></trkpt><trkpt lat="43.6694072" lon="10.7148167"><ele>20.0</ele><time>2026-04-15T16:13:50.01Z</time></trkpt><trkpt lat="43.6692329" lon="10.7143759"><ele>19.5</ele><time>2026-04-15T16:13:51.003Z</time></trkpt><trkpt lat="43.669061" lon="10.713976"><ele>19.0</ele><time>2026-04-15T16:13:52.004Z</time></trkpt><trkpt lat="43.668882" lon="10.7135999"><ele>19.0</ele><time>2026-04-15T16:13:52.999Z</time></trkpt><trkpt lat="43.6686956" lon="10.7132502"><ele>19.0</ele><time>2026-04-15T16:13:54.004Z</time></trkpt><trkpt lat="43.6684924" lon="10.7129322"><ele>20.0</ele><time>2026-04-15T16:13:55.003Z</time></trkpt><trkpt lat="43.6682876" lon="10.7126321"><ele>21.0</ele><time>2026-04-15T16:13:56.007Z</time></trkpt><trkpt lat="43.6680751" lon="10.7123527"><ele>21.0</ele><time>2026-04-15T16:13:56.995Z</time></trkpt><trkpt lat="43.6678556" lon="10.7120882"><ele>21.0</ele><time>2026-04-15T16:13:57.992Z</time></trkpt><trkpt lat="43.6676364" lon="10.7118399"><ele>20.0</ele><time>2026-04-15T16:13:58.985Z</time></trkpt><trkpt lat="43.667417" lon="10.7116063"><ele>19.0</ele><time>2026-04-15T16:14:00.026Z</time></trkpt><trkpt lat="43.6671945" lon="10.7113994"><ele>19.0</ele><time>2026-04-15T16:14:01.013Z</time></trkpt><trkpt lat="43.6669694" lon="10.7112038"><ele>19.0</ele><time>2026-04-15T16:14:02.013Z</time></trkpt><trkpt lat="43.6667434" lon="10.7110042"><ele>20.0</ele><time>2026-04-15T16:14:03.016Z</time></trkpt><trkpt lat="43.6665146" lon="10.7108078"><ele>21.0</ele><time>2026-04-15T16:14:04.009Z</time></trkpt><trkpt lat="43.6662847" lon="10.7106211"><ele>21.0</ele><time>2026-04-15T16:14:05.013Z</time></trkpt><trkpt lat="43.6658332" lon="10.7102442"><ele>21.0</ele><time>2026-04-15T16:14:07.012Z</time></trkpt><trkpt lat="43.6656031" lon="10.710048"><ele>21.0</ele><time>2026-04-15T16:14:08.014Z</time></trkpt><trkpt lat="43.6653788" lon="10.7098437"><ele>22.5</ele><time>2026-04-15T16:14:09.015Z</time></trkpt><trkpt lat="43.6651588" lon="10.7096243"><ele>24.0</ele><time>2026-04-15T16:14:10.011Z</time></trkpt><trkpt lat="43.6649489" lon="10.7093894"><ele>24.0</ele><time>2026-04-15T16:14:11.009Z</time></trkpt><trkpt lat="43.6647557" lon="10.7091406"><ele>24.0</ele><time>2026-04-15T16:14:12.014Z</time></trkpt><trkpt lat="43.6645605" lon="10.7088688"><ele>23.5</ele><time>2026-04-15T16:14:12.993Z</time></trkpt><trkpt lat="43.6643664" lon="10.7085804"><ele>23.0</ele><time>2026-04-15T16:14:14.011Z</time></trkpt><trkpt lat="43.6641833" lon="10.7082644"><ele>24.0</ele><time>2026-04-15T16:14:15.023Z</time></trkpt><trkpt lat="43.6639981" lon="10.7079139"><ele>25.0</ele><time>2026-04-15T16:14:16.004Z</time></trkpt><trkpt lat="43.6638224" lon="10.7075285"><ele>25.0</ele><time>2026-04-15T16:14:17.01Z</time></trkpt><trkpt lat="43.6636473" lon="10.7071136"><ele>25.0</ele><time>2026-04-15T16:14:18.015Z</time></trkpt><trkpt lat="43.6634751" lon="10.7066786"><ele>25.0</ele><time>2026-04-15T16:14:19.018Z</time></trkpt><trkpt lat="43.6633069" lon="10.7062395"><ele>25.0</ele><time>2026-04-15T16:14:20.008Z</time></trkpt><trkpt lat="43.6631395" lon="10.7058047"><ele>25.5</ele><time>2026-04-15T16:14:21.017Z</time></trkpt><trkpt lat="43.6629707" lon="10.7053786"><ele>26.0</ele><time>2026-04-15T16:14:22.016Z</time></trkpt><trkpt lat="43.6628056" lon="10.70496"><ele>27.5</ele><time>2026-04-15T16:14:23.014Z</time></trkpt><trkpt lat="43.6626401" lon="10.7045598"><ele>29.0</ele><time>2026-04-15T16:14:24.017Z</time></trkpt><trkpt lat="43.6624644" lon="10.7041769"><ele>29.0</ele><time>2026-04-15T16:14:25.012Z</time></trkpt><trkpt lat="43.6622906" lon="10.7038054"><ele>29.0</ele><time>2026-04-15T16:14:26.019Z</time></trkpt><trkpt lat="43.6621259" lon="10.7034438"><ele>30.0</ele><time>2026-04-15T16:14:26.984Z</time></trkpt><trkpt lat="43.6619657" lon="10.7030914"><ele>31.0</ele><time>2026-04-15T16:14:28.002Z</time></trkpt><trkpt lat="43.6618126" lon="10.7027527"><ele>34.5</ele><time>2026-04-15T16:14:28.986Z</time></trkpt><trkpt lat="43.6616655" lon="10.7024183"><ele>38.0</ele><time>2026-04-15T16:14:29.991Z</time></trkpt><trkpt lat="43.6615214" lon="10.7020948"><ele>40.5</ele><time>2026-04-15T16:14:30.987Z</time></trkpt><trkpt lat="43.6613806" lon="10.7017701"><ele>43.0</ele><time>2026-04-15T16:14:32.008Z</time></trkpt><trkpt lat="43.6612371" lon="10.701449"><ele>43.0</ele><time>2026-04-15T16:14:32.985Z</time></trkpt><trkpt lat="43.6609547" lon="10.7008213"><ele>43.0</ele><time>2026-04-15T16:14:34.982Z</time></trkpt><trkpt lat="43.6608245" lon="10.7004958"><ele>43.0</ele><time>2026-04-15T16:14:35.985Z</time></trkpt><trkpt lat="43.6607214" lon="10.7001386"><ele>43.0</ele><time>2026-04-15T16:14:36.995Z</time></trkpt><trkpt lat="43.6606312" lon="10.6997524"><ele>43.0</ele><time>2026-04-15T16:14:37.992Z</time></trkpt><trkpt lat="43.6605549" lon="10.6993712"><ele>43.0</ele><time>2026-04-15T16:14:38.983Z</time></trkpt><trkpt lat="43.6604712" lon="10.6989986"><ele>43.0</ele><time>2026-04-15T16:14:40Z</time></trkpt><trkpt lat="43.6603857" lon="10.6986369"><ele>47.5</ele><time>2026-04-15T16:14:41.015Z</time></trkpt><trkpt lat="43.6603039" lon="10.6982861"><ele>52.0</ele><time>2026-04-15T16:14:42.003Z</time></trkpt><trkpt lat="43.6602212" lon="10.6979414"><ele>52.0</ele><time>2026-04-15T16:14:42.979Z</time></trkpt><trkpt lat="43.6600825" lon="10.6973045"><ele>52.0</ele><time>2026-04-15T16:14:44.991Z</time></trkpt><trkpt lat="43.6600275" lon="10.6970317"><ele>52.0</ele><time>2026-04-15T16:14:45.979Z</time></trkpt><trkpt lat="43.6599672" lon="10.6967613"><ele>52.0</ele><time>2026-04-15T16:14:46.986Z</time></trkpt><trkpt lat="43.6598983" lon="10.6964958"><ele>50.33333333333333</ele><time>2026-04-15T16:14:48.01Z</time></trkpt><trkpt lat="43.6598318" lon="10.6962258"><ele>48.666666666666664</ele><time>2026-04-15T16:14:49.009Z</time></trkpt><trkpt lat="43.6597684" lon="10.6959638"><ele>47.0</ele><time>2026-04-15T16:14:49.991Z</time></trkpt><trkpt lat="43.6597127" lon="10.6956965"><ele>46.33333333333333</ele><time>2026-04-15T16:14:50.986Z</time></trkpt><trkpt lat="43.6596616" lon="10.6954408"><ele>45.666666666666664</ele><time>2026-04-15T16:14:52.002Z</time></trkpt><trkpt lat="43.6595997" lon="10.6951772"><ele>45.0</ele><time>2026-04-15T16:14:53.002Z</time></trkpt><trkpt lat="43.6595406" lon="10.6949304"><ele>45.0</ele><time>2026-04-15T16:14:54.006Z</time></trkpt><trkpt lat="43.659479" lon="10.6946728"><ele>45.0</ele><time>2026-04-15T16:14:54.997Z</time></trkpt><trkpt lat="43.6594176" lon="10.6944146"><ele>45.0</ele><time>2026-04-15T16:14:55.977Z</time></trkpt><trkpt lat="43.6593555" lon="10.6941545"><ele>43.333333333333336</ele><time>2026-04-15T16:14:56.988Z</time></trkpt><trkpt lat="43.6592974" lon="10.6938986"><ele>41.66666666666667</ele><time>2026-04-15T16:14:58.012Z</time></trkpt><trkpt lat="43.6592377" lon="10.6936363"><ele>40.0</ele><time>2026-04-15T16:14:59.008Z</time></trkpt><trkpt lat="43.6591776" lon="10.6933803"><ele>38.66666666666667</ele><time>2026-04-15T16:15:00.03Z</time></trkpt><trkpt lat="43.6591186" lon="10.6931285"><ele>37.333333333333336</ele><time>2026-04-15T16:15:01.008Z</time></trkpt><trkpt lat="43.6590605" lon="10.6928764"><ele>36.0</ele><time>2026-04-15T16:15:01.975Z</time></trkpt><trkpt lat="43.6590001" lon="10.6926148"><ele>35.333333333333336</ele><time>2026-04-15T16:15:03.008Z</time></trkpt><trkpt lat="43.6589391" lon="10.692345"><ele>34.66666666666667</ele><time>2026-04-15T16:15:04.018Z</time></trkpt><trkpt lat="43.6588657" lon="10.6920448"><ele>34.0</ele><time>2026-04-15T16:15:04.996Z</time></trkpt><trkpt lat="43.6587849" lon="10.6917033"><ele>29.5</ele><time>2026-04-15T16:15:06.017Z</time></trkpt><trkpt lat="43.6587037" lon="10.6913433"><ele>25.0</ele><time>2026-04-15T16:15:07.01Z</time></trkpt><trkpt lat="43.6586137" lon="10.6909749"><ele>23.0</ele><time>2026-04-15T16:15:07.998Z</time></trkpt><trkpt lat="43.6585195" lon="10.6906001"><ele>21.0</ele><time>2026-04-15T16:15:09.008Z</time></trkpt><trkpt lat="43.6584305" lon="10.6902195"><ele>19.5</ele><time>2026-04-15T16:15:10.01Z</time></trkpt><trkpt lat="43.6583382" lon="10.6898398"><ele>18.0</ele><time>2026-04-15T16:15:10.98Z</time></trkpt><trkpt lat="43.6582456" lon="10.6894706"><ele>18.5</ele><time>2026-04-15T16:15:11.978Z</time></trkpt><trkpt lat="43.6581541" lon="10.6891069"><ele>19.0</ele><time>2026-04-15T16:15:13.001Z</time></trkpt><trkpt lat="43.6580662" lon="10.6887416"><ele>18.0</ele><time>2026-04-15T16:15:14.01Z</time></trkpt><trkpt lat="43.6579836" lon="10.6883785"><ele>17.0</ele><time>2026-04-15T16:15:15.003Z</time></trkpt><trkpt lat="43.6579014" lon="10.6880192"><ele>17.5</ele><time>2026-04-15T16:15:15.996Z</time></trkpt><trkpt lat="43.6578193" lon="10.6876655"><ele>18.0</ele><time>2026-04-15T16:15:16.995Z</time></trkpt><trkpt lat="43.6577377" lon="10.6873202"><ele>20.0</ele><time>2026-04-15T16:15:18.021Z</time></trkpt><trkpt lat="43.6576571" lon="10.686983"><ele>22.0</ele><time>2026-04-15T16:15:18.97Z</time></trkpt><trkpt lat="43.6575778" lon="10.686658"><ele>24.5</ele><time>2026-04-15T16:15:19.978Z</time></trkpt><trkpt lat="43.6574884" lon="10.6863427"><ele>27.0</ele><time>2026-04-15T16:15:21.023Z</time></trkpt><trkpt lat="43.6573774" lon="10.6860464"><ele>27.0</ele><time>2026-04-15T16:15:22.014Z</time></trkpt><trkpt lat="43.6572395" lon="10.6857589"><ele>27.0</ele><time>2026-04-15T16:15:23.013Z</time></trkpt><trkpt lat="43.6570857" lon="10.6854745"><ele>32.5</ele><time>2026-04-15T16:15:23.977Z</time></trkpt><trkpt lat="43.6569205" lon="10.685179"><ele>38.0</ele><time>2026-04-15T16:15:25.006Z</time></trkpt><trkpt lat="43.6567403" lon="10.6848955"><ele>38.0</ele><time>2026-04-15T16:15:26.017Z</time></trkpt><trkpt lat="43.6565554" lon="10.6845988"><ele>38.0</ele><time>2026-04-15T16:15:27.007Z</time></trkpt><trkpt lat="43.6563667" lon="10.6843072"><ele>37.0</ele><time>2026-04-15T16:15:28.017Z</time></trkpt><trkpt lat="43.6561754" lon="10.6840187"><ele>36.0</ele><time>2026-04-15T16:15:29.011Z</time></trkpt><trkpt lat="43.6559839" lon="10.6837343"><ele>38.0</ele><time>2026-04-15T16:15:30.007Z</time></trkpt><trkpt lat="43.6557941" lon="10.6834475"><ele>40.0</ele><time>2026-04-15T16:15:31.007Z</time></trkpt><trkpt lat="43.6555999" lon="10.6831544"><ele>40.0</ele><time>2026-04-15T16:15:32.001Z</time></trkpt><trkpt lat="43.6553997" lon="10.682855"><ele>40.0</ele><time>2026-04-15T16:15:32.992Z</time></trkpt><trkpt lat="43.6552006" lon="10.682547"><ele>40.5</ele><time>2026-04-15T16:15:34.015Z</time></trkpt><trkpt lat="43.6550121" lon="10.6822201"><ele>41.0</ele><time>2026-04-15T16:15:35.005Z</time></trkpt><trkpt lat="43.6548357" lon="10.6818763"><ele>41.5</ele><time>2026-04-15T16:15:35.984Z</time></trkpt><trkpt lat="43.6546714" lon="10.681519"><ele>42.0</ele><time>2026-04-15T16:15:37.005Z</time></trkpt><trkpt lat="43.6545225" lon="10.6811372"><ele>34.0</ele><time>2026-04-15T16:15:37.997Z</time></trkpt><trkpt lat="43.6543851" lon="10.6807366"><ele>26.0</ele><time>2026-04-15T16:15:38.988Z</time></trkpt><trkpt lat="43.6542589" lon="10.6803235"><ele>25.0</ele><time>2026-04-15T16:15:40.004Z</time></trkpt><trkpt lat="43.6541408" lon="10.6799035"><ele>24.0</ele><time>2026-04-15T16:15:41Z</time></trkpt><trkpt lat="43.65404" lon="10.6794784"><ele>23.0</ele><time>2026-04-15T16:15:41.996Z</time></trkpt><trkpt lat="43.6539624" lon="10.6790403"><ele>22.0</ele><time>2026-04-15T16:15:42.989Z</time></trkpt><trkpt lat="43.6538985" lon="10.678605"><ele>22.0</ele><time>2026-04-15T16:15:43.975Z</time></trkpt><trkpt lat="43.6538482" lon="10.6781689"><ele>22.0</ele><time>2026-04-15T16:15:44.964Z</time></trkpt><trkpt lat="43.6538095" lon="10.677725"><ele>21.0</ele><time>2026-04-15T16:15:45.991Z</time></trkpt><trkpt lat="43.6537911" lon="10.6772715"><ele>20.0</ele><time>2026-04-15T16:15:47.008Z</time></trkpt><trkpt lat="43.6537901" lon="10.6768193"><ele>20.0</ele><time>2026-04-15T16:15:47.981Z</time></trkpt><trkpt lat="43.6538059" lon="10.6763752"><ele>20.0</ele><time>2026-04-15T16:15:49.002Z</time></trkpt><trkpt lat="43.6538406" lon="10.6759255"><ele>20.0</ele><time>2026-04-15T16:15:49.983Z</time></trkpt><trkpt lat="43.6538883" lon="10.67548"><ele>20.0</ele><time>2026-04-15T16:15:50.974Z</time></trkpt><trkpt lat="43.6539471" lon="10.6750261"><ele>20.0</ele><time>2026-04-15T16:15:51.983Z</time></trkpt><trkpt lat="43.654023" lon="10.6745815"><ele>20.0</ele><time>2026-04-15T16:15:52.99Z</time></trkpt><trkpt lat="43.6541088" lon="10.6741366"><ele>19.5</ele><time>2026-04-15T16:15:54.013Z</time></trkpt><trkpt lat="43.6542047" lon="10.6736953"><ele>19.0</ele><time>2026-04-15T16:15:55.005Z</time></trkpt><trkpt lat="43.6543075" lon="10.6732559"><ele>18.0</ele><time>2026-04-15T16:15:56.005Z</time></trkpt><trkpt lat="43.6544157" lon="10.672824"><ele>17.0</ele><time>2026-04-15T16:15:56.999Z</time></trkpt><trkpt lat="43.6545303" lon="10.6723974"><ele>17.0</ele><time>2026-04-15T16:15:57.986Z</time></trkpt><trkpt lat="43.6546523" lon="10.6719745"><ele>17.0</ele><time>2026-04-15T16:15:58.976Z</time></trkpt><trkpt lat="43.6547736" lon="10.671553"><ele>18.0</ele><time>2026-04-15T16:15:59.975Z</time></trkpt><trkpt lat="43.6548823" lon="10.6711276"><ele>19.0</ele><time>2026-04-15T16:16:00.995Z</time></trkpt><trkpt lat="43.6549763" lon="10.6706869"><ele>18.5</ele><time>2026-04-15T16:16:01.994Z</time></trkpt><trkpt lat="43.6550556" lon="10.670227"><ele>18.0</ele><time>2026-04-15T16:16:02.994Z</time></trkpt><trkpt lat="43.6551276" lon="10.66977"><ele>17.0</ele><time>2026-04-15T16:16:03.98Z</time></trkpt><trkpt lat="43.6551917" lon="10.6693176"><ele>16.0</ele><time>2026-04-15T16:16:05.003Z</time></trkpt><trkpt lat="43.655245" lon="10.6688576"><ele>16.0</ele><time>2026-04-15T16:16:06.004Z</time></trkpt><trkpt lat="43.655291" lon="10.6683997"><ele>16.0</ele><time>2026-04-15T16:16:07.007Z</time></trkpt><trkpt lat="43.6553223" lon="10.6679457"><ele>16.5</ele><time>2026-04-15T16:16:07.975Z</time></trkpt><trkpt lat="43.655346" lon="10.6674878"><ele>17.0</ele><time>2026-04-15T16:16:08.981Z</time></trkpt><trkpt lat="43.655354" lon="10.6670401"><ele>16.0</ele><time>2026-04-15T16:16:10.01Z</time></trkpt><trkpt lat="43.6553473" lon="10.666597"><ele>15.0</ele><time>2026-04-15T16:16:11.012Z</time></trkpt><trkpt lat="43.655322" lon="10.6661704"><ele>15.0</ele><time>2026-04-15T16:16:11.988Z</time></trkpt><trkpt lat="43.6552863" lon="10.6657575"><ele>15.0</ele><time>2026-04-15T16:16:12.976Z</time></trkpt><trkpt lat="43.6552475" lon="10.6653407"><ele>14.0</ele><time>2026-04-15T16:16:13.988Z</time></trkpt><trkpt lat="43.6551987" lon="10.6649252"><ele>13.0</ele><time>2026-04-15T16:16:14.982Z</time></trkpt><trkpt lat="43.6551393" lon="10.6645212"><ele>13.0</ele><time>2026-04-15T16:16:15.967Z</time></trkpt><trkpt lat="43.6550645" lon="10.6641272"><ele>13.0</ele><time>2026-04-15T16:16:16.958Z</time></trkpt><trkpt lat="43.6549802" lon="10.6637504"><ele>13.5</ele><time>2026-04-15T16:16:17.979Z</time></trkpt><trkpt lat="43.6548901" lon="10.6633873"><ele>14.0</ele><time>2026-04-15T16:16:18.978Z</time></trkpt><trkpt lat="43.6547933" lon="10.6630336"><ele>14.5</ele><time>2026-04-15T16:16:20.002Z</time></trkpt><trkpt lat="43.6546941" lon="10.6627003"><ele>15.0</ele><time>2026-04-15T16:16:21.001Z</time></trkpt><trkpt lat="43.6545806" lon="10.6623732"><ele>15.0</ele><time>2026-04-15T16:16:22Z</time></trkpt><trkpt lat="43.6544623" lon="10.6620489"><ele>15.0</ele><time>2026-04-15T16:16:22.994Z</time></trkpt><trkpt lat="43.6543374" lon="10.6617256"><ele>16.0</ele><time>2026-04-15T16:16:23.997Z</time></trkpt><trkpt lat="43.6542098" lon="10.6614097"><ele>17.0</ele><time>2026-04-15T16:16:24.998Z</time></trkpt><trkpt lat="43.6540762" lon="10.6611039"><ele>17.0</ele><time>2026-04-15T16:16:26Z</time></trkpt><trkpt lat="43.6539323" lon="10.6608033"><ele>17.0</ele><time>2026-04-15T16:16:26.994Z</time></trkpt><trkpt lat="43.6537896" lon="10.6605142"><ele>17.0</ele><time>2026-04-15T16:16:28.013Z</time></trkpt><trkpt lat="43.6536446" lon="10.6602282"><ele>17.0</ele><time>2026-04-15T16:16:28.989Z</time></trkpt><trkpt lat="43.6534929" lon="10.6599414"><ele>17.0</ele><time>2026-04-15T16:16:29.981Z</time></trkpt><trkpt lat="43.653338" lon="10.6596521"><ele>17.0</ele><time>2026-04-15T16:16:30.979Z</time></trkpt><trkpt lat="43.6531753" lon="10.6593518"><ele>19.0</ele><time>2026-04-15T16:16:31.985Z</time></trkpt><trkpt lat="43.6530002" lon="10.6590407"><ele>21.0</ele><time>2026-04-15T16:16:32.986Z</time></trkpt><trkpt lat="43.6528207" lon="10.6587225"><ele>22.0</ele><time>2026-04-15T16:16:34Z</time></trkpt><trkpt lat="43.6526392" lon="10.6583988"><ele>23.0</ele><time>2026-04-15T16:16:34.991Z</time></trkpt><trkpt lat="43.6524598" lon="10.6580854"><ele>24.0</ele><time>2026-04-15T16:16:35.994Z</time></trkpt><trkpt lat="43.6522833" lon="10.657774"><ele>25.0</ele><time>2026-04-15T16:16:36.981Z</time></trkpt><trkpt lat="43.6521062" lon="10.6574671"><ele>24.5</ele><time>2026-04-15T16:16:37.966Z</time></trkpt><trkpt lat="43.65193" lon="10.6571663"><ele>24.0</ele><time>2026-04-15T16:16:38.979Z</time></trkpt><trkpt lat="43.6517606" lon="10.6568709"><ele>24.0</ele><time>2026-04-15T16:16:40.007Z</time></trkpt><trkpt lat="43.6515958" lon="10.656581"><ele>24.0</ele><time>2026-04-15T16:16:40.999Z</time></trkpt><trkpt lat="43.6514329" lon="10.6562961"><ele>25.0</ele><time>2026-04-15T16:16:41.987Z</time></trkpt><trkpt lat="43.6512731" lon="10.6560205"><ele>26.0</ele><time>2026-04-15T16:16:42.963Z</time></trkpt><trkpt lat="43.6511111" lon="10.6557444"><ele>27.0</ele><time>2026-04-15T16:16:44.004Z</time></trkpt><trkpt lat="43.6509505" lon="10.6554662"><ele>28.0</ele><time>2026-04-15T16:16:44.991Z</time></trkpt><trkpt lat="43.6507916" lon="10.655192"><ele>26.0</ele><time>2026-04-15T16:16:45.966Z</time></trkpt><trkpt lat="43.6506369" lon="10.6549129"><ele>24.0</ele><time>2026-04-15T16:16:46.996Z</time></trkpt><trkpt lat="43.6504813" lon="10.6546355"><ele>23.0</ele><time>2026-04-15T16:16:47.993Z</time></trkpt><trkpt lat="43.6503263" lon="10.6543587"><ele>22.0</ele><time>2026-04-15T16:16:48.994Z</time></trkpt><trkpt lat="43.650169" lon="10.6540805"><ele>22.0</ele><time>2026-04-15T16:16:49.995Z</time></trkpt><trkpt lat="43.6500076" lon="10.6538034"><ele>22.0</ele><time>2026-04-15T16:16:50.989Z</time></trkpt><trkpt lat="43.6498479" lon="10.6535242"><ele>21.5</ele><time>2026-04-15T16:16:52.016Z</time></trkpt><trkpt lat="43.6496847" lon="10.6532374"><ele>21.0</ele><time>2026-04-15T16:16:52.976Z</time></trkpt><trkpt lat="43.6495219" lon="10.6529496"><ele>20.0</ele><time>2026-04-15T16:16:53.986Z</time></trkpt><trkpt lat="43.6493563" lon="10.652658"><ele>19.0</ele><time>2026-04-15T16:16:54.956Z</time></trkpt><trkpt lat="43.6491882" lon="10.6523602"><ele>19.0</ele><time>2026-04-15T16:16:55.961Z</time></trkpt><trkpt lat="43.6490146" lon="10.6520579"><ele>19.0</ele><time>2026-04-15T16:16:56.957Z</time></trkpt><trkpt lat="43.6488395" lon="10.6517489"><ele>18.0</ele><time>2026-04-15T16:16:58.006Z</time></trkpt><trkpt lat="43.648662" lon="10.6514463"><ele>17.0</ele><time>2026-04-15T16:16:58.996Z</time></trkpt><trkpt lat="43.6484892" lon="10.6511378"><ele>16.0</ele><time>2026-04-15T16:17:00.006Z</time></trkpt><trkpt lat="43.6483181" lon="10.6508362"><ele>15.0</ele><time>2026-04-15T16:17:00.995Z</time></trkpt><trkpt lat="43.6481481" lon="10.6505253"><ele>14.5</ele><time>2026-04-15T16:17:01.997Z</time></trkpt><trkpt lat="43.6479819" lon="10.6502146"><ele>14.0</ele><time>2026-04-15T16:17:02.999Z</time></trkpt><trkpt lat="43.6478248" lon="10.649891"><ele>14.0</ele><time>2026-04-15T16:17:03.973Z</time></trkpt><trkpt lat="43.6476753" lon="10.6495609"><ele>14.0</ele><time>2026-04-15T16:17:04.963Z</time></trkpt><trkpt lat="43.64754" lon="10.6492131"><ele>13.5</ele><time>2026-04-15T16:17:05.956Z</time></trkpt><trkpt lat="43.6474147" lon="10.6488564"><ele>13.0</ele><time>2026-04-15T16:17:06.951Z</time></trkpt><trkpt lat="43.6473008" lon="10.6484969"><ele>15.0</ele><time>2026-04-15T16:17:07.96Z</time></trkpt><trkpt lat="43.647202" lon="10.6481507"><ele>17.0</ele><time>2026-04-15T16:17:08.977Z</time></trkpt><trkpt lat="43.6471203" lon="10.6478074"><ele>18.5</ele><time>2026-04-15T16:17:10.003Z</time></trkpt><trkpt lat="43.6470455" lon="10.6474651"><ele>20.0</ele><time>2026-04-15T16:17:11.074Z</time></trkpt><trkpt lat="43.646909" lon="10.6467878"><ele>22.0</ele><time>2026-04-15T16:17:12.96Z</time></trkpt><trkpt lat="43.6467352" lon="10.64407"><ele>22.0</ele><time>2026-04-15T16:17:20.948Z</time></trkpt><trkpt lat="43.6467872" lon="10.6437991"><ele>22.0</ele><time>2026-04-15T16:17:21.941Z</time></trkpt><trkpt lat="43.6468274" lon="10.6435126"><ele>22.0</ele><time>2026-04-15T16:17:22.949Z</time></trkpt><trkpt lat="43.6468236" lon="10.6431917"><ele>21.0</ele><time>2026-04-15T16:17:23.968Z</time></trkpt><trkpt lat="43.6468313" lon="10.6428744"><ele>20.0</ele><time>2026-04-15T16:17:24.965Z</time></trkpt><trkpt lat="43.6468391" lon="10.6425409"><ele>19.5</ele><time>2026-04-15T16:17:25.982Z</time></trkpt><trkpt lat="43.6468399" lon="10.6421957"><ele>19.0</ele><time>2026-04-15T16:17:26.978Z</time></trkpt><trkpt lat="43.6468422" lon="10.6418381"><ele>18.5</ele><time>2026-04-15T16:17:27.956Z</time></trkpt><trkpt lat="43.6468559" lon="10.6414588"><ele>18.0</ele><time>2026-04-15T16:17:28.977Z</time></trkpt><trkpt lat="43.6468647" lon="10.6410657"><ele>17.0</ele><time>2026-04-15T16:17:29.996Z</time></trkpt><trkpt lat="43.6468726" lon="10.6406522"><ele>16.0</ele><time>2026-04-15T16:17:30.968Z</time></trkpt><trkpt lat="43.64688" lon="10.6402334"><ele>16.0</ele><time>2026-04-15T16:17:31.986Z</time></trkpt><trkpt lat="43.646887" lon="10.6398192"><ele>16.0</ele><time>2026-04-15T16:17:32.987Z</time></trkpt><trkpt lat="43.6468933" lon="10.6394084"><ele>16.5</ele><time>2026-04-15T16:17:33.991Z</time></trkpt><trkpt lat="43.646904" lon="10.6389982"><ele>17.0</ele><time>2026-04-15T16:17:34.976Z</time></trkpt><trkpt lat="43.6469098" lon="10.638588"><ele>17.0</ele><time>2026-04-15T16:17:35.952Z</time></trkpt><trkpt lat="43.6469207" lon="10.6381813"><ele>17.0</ele><time>2026-04-15T16:17:36.98Z</time></trkpt><trkpt lat="43.6469302" lon="10.6377772"><ele>16.5</ele><time>2026-04-15T16:17:37.974Z</time></trkpt><trkpt lat="43.646939" lon="10.6373742"><ele>16.0</ele><time>2026-04-15T16:17:38.99Z</time></trkpt><trkpt lat="43.6469457" lon="10.6369681"><ele>16.0</ele><time>2026-04-15T16:17:39.971Z</time></trkpt><trkpt lat="43.6469535" lon="10.636566"><ele>16.0</ele><time>2026-04-15T16:17:40.978Z</time></trkpt><trkpt lat="43.6469595" lon="10.6361542"><ele>16.0</ele><time>2026-04-15T16:17:41.978Z</time></trkpt><trkpt lat="43.6469665" lon="10.6357368"><ele>16.0</ele><time>2026-04-15T16:17:42.98Z</time></trkpt><trkpt lat="43.646974" lon="10.6353107"><ele>16.5</ele><time>2026-04-15T16:17:43.957Z</time></trkpt><trkpt lat="43.6469795" lon="10.6348692"><ele>17.0</ele><time>2026-04-15T16:17:44.998Z</time></trkpt><trkpt lat="43.6469867" lon="10.6344335"><ele>17.0</ele><time>2026-04-15T16:17:45.958Z</time></trkpt><trkpt lat="43.646996" lon="10.6340026"><ele>17.0</ele><time>2026-04-15T16:17:46.95Z</time></trkpt><trkpt lat="43.6470073" lon="10.6335784"><ele>16.0</ele><time>2026-04-15T16:17:47.983Z</time></trkpt><trkpt lat="43.6470201" lon="10.633159"><ele>15.0</ele><time>2026-04-15T16:17:48.992Z</time></trkpt><trkpt lat="43.647025" lon="10.6327422"><ele>15.0</ele><time>2026-04-15T16:17:49.956Z</time></trkpt><trkpt lat="43.64703" lon="10.632328"><ele>15.0</ele><time>2026-04-15T16:17:50.969Z</time></trkpt><trkpt lat="43.647035" lon="10.6319073"><ele>16.5</ele><time>2026-04-15T16:17:51.979Z</time></trkpt><trkpt lat="43.6470414" lon="10.6314835"><ele>18.0</ele><time>2026-04-15T16:17:52.975Z</time></trkpt><trkpt lat="43.647051" lon="10.6310625"><ele>18.0</ele><time>2026-04-15T16:17:53.974Z</time></trkpt><trkpt lat="43.6470598" lon="10.6306437"><ele>18.0</ele><time>2026-04-15T16:17:54.97Z</time></trkpt><trkpt lat="43.6470668" lon="10.6302304"><ele>17.5</ele><time>2026-04-15T16:17:55.986Z</time></trkpt><trkpt lat="43.647076" lon="10.6298143"><ele>17.0</ele><time>2026-04-15T16:17:56.981Z</time></trkpt><trkpt lat="43.6470807" lon="10.6293925"><ele>17.0</ele><time>2026-04-15T16:17:57.969Z</time></trkpt><trkpt lat="43.6470856" lon="10.6289706"><ele>17.0</ele><time>2026-04-15T16:17:58.947Z</time></trkpt><trkpt lat="43.6470928" lon="10.6285419"><ele>16.5</ele><time>2026-04-15T16:17:59.974Z</time></trkpt><trkpt lat="43.6470908" lon="10.6281089"><ele>16.0</ele><time>2026-04-15T16:18:00.973Z</time></trkpt><trkpt lat="43.6470765" lon="10.6276662"><ele>16.0</ele><time>2026-04-15T16:18:01.986Z</time></trkpt><trkpt lat="43.6470521" lon="10.6272126"><ele>16.0</ele><time>2026-04-15T16:18:02.967Z</time></trkpt><trkpt lat="43.6470145" lon="10.6267577"><ele>16.5</ele><time>2026-04-15T16:18:03.967Z</time></trkpt><trkpt lat="43.6469629" lon="10.6263023"><ele>17.0</ele><time>2026-04-15T16:18:04.98Z</time></trkpt><trkpt lat="43.6468865" lon="10.6258622"><ele>16.0</ele><time>2026-04-15T16:18:05.989Z</time></trkpt><trkpt lat="43.6467924" lon="10.6254367"><ele>15.0</ele><time>2026-04-15T16:18:06.948Z</time></trkpt><trkpt lat="43.6466877" lon="10.6250249"><ele>15.0</ele><time>2026-04-15T16:18:07.951Z</time></trkpt><trkpt lat="43.6465738" lon="10.6246191"><ele>15.0</ele><time>2026-04-15T16:18:08.985Z</time></trkpt><trkpt lat="43.6464469" lon="10.6242258"><ele>14.5</ele><time>2026-04-15T16:18:09.977Z</time></trkpt><trkpt lat="43.6463057" lon="10.6238365"><ele>14.0</ele><time>2026-04-15T16:18:10.971Z</time></trkpt><trkpt lat="43.6461493" lon="10.6234589"><ele>14.5</ele><time>2026-04-15T16:18:11.989Z</time></trkpt><trkpt lat="43.6459802" lon="10.6230937"><ele>15.0</ele><time>2026-04-15T16:18:12.966Z</time></trkpt><trkpt lat="43.6457967" lon="10.6227375"><ele>16.0</ele><time>2026-04-15T16:18:13.985Z</time></trkpt><trkpt lat="43.6455988" lon="10.62239"><ele>17.0</ele><time>2026-04-15T16:18:14.979Z</time></trkpt><trkpt lat="43.6453841" lon="10.6220485"><ele>16.5</ele><time>2026-04-15T16:18:15.972Z</time></trkpt><trkpt lat="43.6451492" lon="10.6217023"><ele>16.0</ele><time>2026-04-15T16:18:16.986Z</time></trkpt><trkpt lat="43.6449009" lon="10.6213578"><ele>15.5</ele><time>2026-04-15T16:18:17.945Z</time></trkpt><trkpt lat="43.644637" lon="10.6210038"><ele>15.0</ele><time>2026-04-15T16:18:18.976Z</time></trkpt><trkpt lat="43.6443673" lon="10.6206544"><ele>15.5</ele><time>2026-04-15T16:18:19.992Z</time></trkpt><trkpt lat="43.6440916" lon="10.6202969"><ele>16.0</ele><time>2026-04-15T16:18:20.978Z</time></trkpt><trkpt lat="43.6438282" lon="10.619947"><ele>16.5</ele><time>2026-04-15T16:18:21.986Z</time></trkpt><trkpt lat="43.6435749" lon="10.6196137"><ele>17.0</ele><time>2026-04-15T16:18:22.967Z</time></trkpt><trkpt lat="43.6433324" lon="10.6192908"><ele>15.5</ele><time>2026-04-15T16:18:23.983Z</time></trkpt><trkpt lat="43.6430886" lon="10.6189736"><ele>14.0</ele><time>2026-04-15T16:18:24.983Z</time></trkpt><trkpt lat="43.642854" lon="10.6186723"><ele>14.5</ele><time>2026-04-15T16:18:25.98Z</time></trkpt><trkpt lat="43.6426252" lon="10.6183736"><ele>15.0</ele><time>2026-04-15T16:18:26.979Z</time></trkpt><trkpt lat="43.6423994" lon="10.6180815"><ele>15.0</ele><time>2026-04-15T16:18:27.991Z</time></trkpt><trkpt lat="43.6421762" lon="10.6177896"><ele>15.0</ele><time>2026-04-15T16:18:28.988Z</time></trkpt><trkpt lat="43.6419562" lon="10.6175012"><ele>15.0</ele><time>2026-04-15T16:18:29.981Z</time></trkpt><trkpt lat="43.6417346" lon="10.6172133"><ele>15.0</ele><time>2026-04-15T16:18:30.945Z</time></trkpt><trkpt lat="43.6415215" lon="10.6169258"><ele>15.0</ele><time>2026-04-15T16:18:31.982Z</time></trkpt><trkpt lat="43.6413082" lon="10.6166446"><ele>15.0</ele><time>2026-04-15T16:18:32.978Z</time></trkpt><trkpt lat="43.6410969" lon="10.6163616"><ele>15.5</ele><time>2026-04-15T16:18:33.98Z</time></trkpt><trkpt lat="43.6408859" lon="10.616085"><ele>16.0</ele><time>2026-04-15T16:18:34.981Z</time></trkpt><trkpt lat="43.6406745" lon="10.6158049"><ele>16.0</ele><time>2026-04-15T16:18:35.979Z</time></trkpt><trkpt lat="43.6404571" lon="10.615523"><ele>16.0</ele><time>2026-04-15T16:18:36.989Z</time></trkpt><trkpt lat="43.6402341" lon="10.6152383"><ele>16.0</ele><time>2026-04-15T16:18:37.944Z</time></trkpt><trkpt lat="43.6400127" lon="10.6149479"><ele>16.0</ele><time>2026-04-15T16:18:38.966Z</time></trkpt><trkpt lat="43.6397889" lon="10.614654"><ele>15.5</ele><time>2026-04-15T16:18:39.976Z</time></trkpt><trkpt lat="43.6395634" lon="10.6143595"><ele>15.0</ele><time>2026-04-15T16:18:40.983Z</time></trkpt><trkpt lat="43.639338" lon="10.6140691"><ele>15.0</ele><time>2026-04-15T16:18:41.955Z</time></trkpt><trkpt lat="43.6391137" lon="10.6137775"><ele>15.0</ele><time>2026-04-15T16:18:42.944Z</time></trkpt><trkpt lat="43.63889" lon="10.6134871"><ele>15.0</ele><time>2026-04-15T16:18:43.988Z</time></trkpt><trkpt lat="43.6386677" lon="10.6131948"><ele>15.0</ele><time>2026-04-15T16:18:44.989Z</time></trkpt><trkpt lat="43.638448" lon="10.6128967"><ele>15.5</ele><time>2026-04-15T16:18:45.985Z</time></trkpt><trkpt lat="43.6382262" lon="10.6125949"><ele>16.0</ele><time>2026-04-15T16:18:46.979Z</time></trkpt><trkpt lat="43.6380008" lon="10.6122951"><ele>16.0</ele><time>2026-04-15T16:18:47.989Z</time></trkpt><trkpt lat="43.637774" lon="10.6119921"><ele>16.0</ele><time>2026-04-15T16:18:48.987Z</time></trkpt><trkpt lat="43.6375425" lon="10.6116841"><ele>16.0</ele><time>2026-04-15T16:18:49.973Z</time></trkpt><trkpt lat="43.6373063" lon="10.6113772"><ele>16.0</ele><time>2026-04-15T16:18:50.978Z</time></trkpt><trkpt lat="43.6370794" lon="10.6110751"><ele>15.5</ele><time>2026-04-15T16:18:51.977Z</time></trkpt><trkpt lat="43.6368567" lon="10.6107837"><ele>15.0</ele><time>2026-04-15T16:18:52.966Z</time></trkpt><trkpt lat="43.6366349" lon="10.6104962"><ele>14.5</ele><time>2026-04-15T16:18:53.946Z</time></trkpt><trkpt lat="43.6364181" lon="10.6102073"><ele>14.0</ele><time>2026-04-15T16:18:54.962Z</time></trkpt><trkpt lat="43.6362023" lon="10.609916"><ele>14.5</ele><time>2026-04-15T16:18:55.973Z</time></trkpt><trkpt lat="43.6359879" lon="10.6096244"><ele>15.0</ele><time>2026-04-15T16:18:56.972Z</time></trkpt><trkpt lat="43.6357671" lon="10.6093276"><ele>15.0</ele><time>2026-04-15T16:18:57.948Z</time></trkpt><trkpt lat="43.6355528" lon="10.6090282"><ele>15.0</ele><time>2026-04-15T16:18:58.975Z</time></trkpt><trkpt lat="43.6353447" lon="10.6087246"><ele>14.5</ele><time>2026-04-15T16:18:59.982Z</time></trkpt><trkpt lat="43.6351486" lon="10.6084138"><ele>14.0</ele><time>2026-04-15T16:19:00.995Z</time></trkpt><trkpt lat="43.634959" lon="10.6080992"><ele>14.5</ele><time>2026-04-15T16:19:01.986Z</time></trkpt><trkpt lat="43.6347692" lon="10.6077761"><ele>15.0</ele><time>2026-04-15T16:19:02.98Z</time></trkpt><trkpt lat="43.6345837" lon="10.6074463"><ele>15.0</ele><time>2026-04-15T16:19:03.982Z</time></trkpt><trkpt lat="43.6344046" lon="10.6071123"><ele>15.0</ele><time>2026-04-15T16:19:04.965Z</time></trkpt><trkpt lat="43.6342348" lon="10.6067731"><ele>15.5</ele><time>2026-04-15T16:19:05.947Z</time></trkpt><trkpt lat="43.6340761" lon="10.6064255"><ele>16.0</ele><time>2026-04-15T16:19:06.975Z</time></trkpt><trkpt lat="43.6339279" lon="10.6060664"><ele>15.0</ele><time>2026-04-15T16:19:07.988Z</time></trkpt><trkpt lat="43.6337893" lon="10.605713"><ele>14.0</ele><time>2026-04-15T16:19:08.986Z</time></trkpt><trkpt lat="43.6336596" lon="10.6053599"><ele>15.5</ele><time>2026-04-15T16:19:09.977Z</time></trkpt><trkpt lat="43.6335361" lon="10.6050036"><ele>17.0</ele><time>2026-04-15T16:19:10.976Z</time></trkpt><trkpt lat="43.6334266" lon="10.6046468"><ele>17.0</ele><time>2026-04-15T16:19:11.973Z</time></trkpt><trkpt lat="43.6333214" lon="10.6042877"><ele>17.0</ele><time>2026-04-15T16:19:12.956Z</time></trkpt><trkpt lat="43.6332306" lon="10.6039203"><ele>16.0</ele><time>2026-04-15T16:19:13.976Z</time></trkpt><trkpt lat="43.6331445" lon="10.6035565"><ele>15.0</ele><time>2026-04-15T16:19:14.966Z</time></trkpt><trkpt lat="43.6330674" lon="10.6031856"><ele>15.5</ele><time>2026-04-15T16:19:15.974Z</time></trkpt><trkpt lat="43.6330021" lon="10.602815"><ele>16.0</ele><time>2026-04-15T16:19:16.946Z</time></trkpt><trkpt lat="43.6329441" lon="10.6024466"><ele>16.0</ele><time>2026-04-15T16:19:17.956Z</time></trkpt><trkpt lat="43.6328952" lon="10.6020785"><ele>16.0</ele><time>2026-04-15T16:19:18.96Z</time></trkpt><trkpt lat="43.6328541" lon="10.6017075"><ele>16.5</ele><time>2026-04-15T16:19:19.973Z</time></trkpt><trkpt lat="43.632826" lon="10.6013336"><ele>17.0</ele><time>2026-04-15T16:19:20.99Z</time></trkpt><trkpt lat="43.6328056" lon="10.6009445"><ele>15.5</ele><time>2026-04-15T16:19:21.976Z</time></trkpt><trkpt lat="43.6327914" lon="10.6005552"><ele>14.0</ele><time>2026-04-15T16:19:22.971Z</time></trkpt><trkpt lat="43.6327823" lon="10.600166"><ele>13.5</ele><time>2026-04-15T16:19:23.979Z</time></trkpt><trkpt lat="43.6327805" lon="10.5997713"><ele>13.0</ele><time>2026-04-15T16:19:24.957Z</time></trkpt><trkpt lat="43.6327879" lon="10.5993733"><ele>13.0</ele><time>2026-04-15T16:19:25.966Z</time></trkpt><trkpt lat="43.6328077" lon="10.598971"><ele>13.0</ele><time>2026-04-15T16:19:26.953Z</time></trkpt><trkpt lat="43.6328357" lon="10.5985688"><ele>13.0</ele><time>2026-04-15T16:19:27.985Z</time></trkpt><trkpt lat="43.6328709" lon="10.5981686"><ele>13.0</ele><time>2026-04-15T16:19:28.964Z</time></trkpt><trkpt lat="43.6329103" lon="10.5977695"><ele>12.5</ele><time>2026-04-15T16:19:29.961Z</time></trkpt><trkpt lat="43.6329498" lon="10.597375"><ele>12.0</ele><time>2026-04-15T16:19:30.946Z</time></trkpt><trkpt lat="43.6329942" lon="10.5969823"><ele>11.5</ele><time>2026-04-15T16:19:31.971Z</time></trkpt><trkpt lat="43.6330377" lon="10.5965955"><ele>11.0</ele><time>2026-04-15T16:19:32.94Z</time></trkpt><trkpt lat="43.6330801" lon="10.5962095"><ele>11.5</ele><time>2026-04-15T16:19:33.97Z</time></trkpt><trkpt lat="43.6331333" lon="10.5958285"><ele>12.0</ele><time>2026-04-15T16:19:34.962Z</time></trkpt><trkpt lat="43.6331873" lon="10.5954441"><ele>12.5</ele><time>2026-04-15T16:19:35.959Z</time></trkpt><trkpt lat="43.6332349" lon="10.5950605"><ele>13.0</ele><time>2026-04-15T16:19:36.972Z</time></trkpt><trkpt lat="43.6332826" lon="10.5946779"><ele>14.0</ele><time>2026-04-15T16:19:37.975Z</time></trkpt><trkpt lat="43.6333294" lon="10.5942991"><ele>15.0</ele><time>2026-04-15T16:19:38.975Z</time></trkpt><trkpt lat="43.6333779" lon="10.5939067"><ele>14.5</ele><time>2026-04-15T16:19:39.978Z</time></trkpt><trkpt lat="43.6334297" lon="10.5935214"><ele>14.0</ele><time>2026-04-15T16:19:40.98Z</time></trkpt><trkpt lat="43.6334785" lon="10.593141"><ele>13.5</ele><time>2026-04-15T16:19:41.98Z</time></trkpt><trkpt lat="43.6335245" lon="10.5927818"><ele>13.0</ele><time>2026-04-15T16:19:42.987Z</time></trkpt><trkpt lat="43.6335691" lon="10.592435"><ele>13.0</ele><time>2026-04-15T16:19:43.94Z</time></trkpt><trkpt lat="43.6336128" lon="10.5920942"><ele>13.0</ele><time>2026-04-15T16:19:44.943Z</time></trkpt><trkpt lat="43.6336583" lon="10.5917563"><ele>13.0</ele><time>2026-04-15T16:19:45.956Z</time></trkpt><trkpt lat="43.6337015" lon="10.5914197"><ele>13.0</ele><time>2026-04-15T16:19:46.967Z</time></trkpt><trkpt lat="43.6337448" lon="10.5910856"><ele>13.0</ele><time>2026-04-15T16:19:47.978Z</time></trkpt><trkpt lat="43.6337876" lon="10.5907534"><ele>13.0</ele><time>2026-04-15T16:19:48.966Z</time></trkpt><trkpt lat="43.6338307" lon="10.590426"><ele>13.5</ele><time>2026-04-15T16:19:49.974Z</time></trkpt><trkpt lat="43.6338752" lon="10.5900952"><ele>14.0</ele><time>2026-04-15T16:19:50.956Z</time></trkpt><trkpt lat="43.6339179" lon="10.5897622"><ele>14.5</ele><time>2026-04-15T16:19:51.968Z</time></trkpt><trkpt lat="43.6339609" lon="10.5894323"><ele>15.0</ele><time>2026-04-15T16:19:52.976Z</time></trkpt><trkpt lat="43.6340046" lon="10.5891062"><ele>15.0</ele><time>2026-04-15T16:19:53.949Z</time></trkpt><trkpt lat="43.634047" lon="10.5887817"><ele>15.0</ele><time>2026-04-15T16:19:54.948Z</time></trkpt><trkpt lat="43.6340926" lon="10.5884621"><ele>13.0</ele><time>2026-04-15T16:19:55.967Z</time></trkpt><trkpt lat="43.6341369" lon="10.5881407"><ele>11.0</ele><time>2026-04-15T16:19:56.972Z</time></trkpt><trkpt lat="43.6341791" lon="10.5878202"><ele>9.5</ele><time>2026-04-15T16:19:57.977Z</time></trkpt><trkpt lat="43.6342135" lon="10.5874898"><ele>8.0</ele><time>2026-04-15T16:19:58.933Z</time></trkpt><trkpt lat="43.634246" lon="10.587153"><ele>9.5</ele><time>2026-04-15T16:19:59.941Z</time></trkpt><trkpt lat="43.6342822" lon="10.586803"><ele>11.0</ele><time>2026-04-15T16:20:00.967Z</time></trkpt><trkpt lat="43.6343176" lon="10.5864429"><ele>12.0</ele><time>2026-04-15T16:20:01.981Z</time></trkpt><trkpt lat="43.634342" lon="10.5860741"><ele>13.0</ele><time>2026-04-15T16:20:02.957Z</time></trkpt><trkpt lat="43.6343588" lon="10.5856923"><ele>13.0</ele><time>2026-04-15T16:20:03.958Z</time></trkpt><trkpt lat="43.6343661" lon="10.585308"><ele>13.0</ele><time>2026-04-15T16:20:04.959Z</time></trkpt><trkpt lat="43.6343703" lon="10.5849213"><ele>13.0</ele><time>2026-04-15T16:20:05.96Z</time></trkpt><trkpt lat="43.6343704" lon="10.584539"><ele>13.0</ele><time>2026-04-15T16:20:06.958Z</time></trkpt><trkpt lat="43.6343633" lon="10.5841543"><ele>11.5</ele><time>2026-04-15T16:20:07.981Z</time></trkpt><trkpt lat="43.6343593" lon="10.5837704"><ele>10.0</ele><time>2026-04-15T16:20:08.957Z</time></trkpt><trkpt lat="43.6343539" lon="10.5833759"><ele>10.0</ele><time>2026-04-15T16:20:09.963Z</time></trkpt><trkpt lat="43.6343474" lon="10.5829768"><ele>10.0</ele><time>2026-04-15T16:20:10.965Z</time></trkpt><trkpt lat="43.6343436" lon="10.582576"><ele>10.5</ele><time>2026-04-15T16:20:11.972Z</time></trkpt><trkpt lat="43.6343411" lon="10.582171"><ele>11.0</ele><time>2026-04-15T16:20:12.962Z</time></trkpt><trkpt lat="43.634336" lon="10.581761"><ele>11.0</ele><time>2026-04-15T16:20:13.975Z</time></trkpt><trkpt lat="43.6343299" lon="10.5813517"><ele>11.0</ele><time>2026-04-15T16:20:14.969Z</time></trkpt><trkpt lat="43.6343208" lon="10.5809449"><ele>11.0</ele><time>2026-04-15T16:20:15.971Z</time></trkpt><trkpt lat="43.6343172" lon="10.5805403"><ele>11.0</ele><time>2026-04-15T16:20:16.97Z</time></trkpt><trkpt lat="43.6343154" lon="10.5801362"><ele>10.0</ele><time>2026-04-15T16:20:17.935Z</time></trkpt><trkpt lat="43.6343085" lon="10.5797344"><ele>9.0</ele><time>2026-04-15T16:20:18.974Z</time></trkpt><trkpt lat="43.6343035" lon="10.5793367"><ele>9.0</ele><time>2026-04-15T16:20:19.961Z</time></trkpt><trkpt lat="43.6343001" lon="10.578966"><ele>9.0</ele><time>2026-04-15T16:20:20.955Z</time></trkpt><trkpt lat="43.6342979" lon="10.578619"><ele>9.5</ele><time>2026-04-15T16:20:21.946Z</time></trkpt><trkpt lat="43.6342945" lon="10.5782858"><ele>10.0</ele><time>2026-04-15T16:20:22.967Z</time></trkpt><trkpt lat="43.6342896" lon="10.5779518"><ele>9.5</ele><time>2026-04-15T16:20:23.982Z</time></trkpt><trkpt lat="43.6342783" lon="10.5776079"><ele>9.0</ele><time>2026-04-15T16:20:24.969Z</time></trkpt><trkpt lat="43.6342716" lon="10.5772613"><ele>8.5</ele><time>2026-04-15T16:20:25.969Z</time></trkpt><trkpt lat="43.6342682" lon="10.5769016"><ele>8.0</ele><time>2026-04-15T16:20:26.968Z</time></trkpt><trkpt lat="43.6342633" lon="10.5765336"><ele>8.0</ele><time>2026-04-15T16:20:27.963Z</time></trkpt><trkpt lat="43.6342531" lon="10.576169"><ele>8.0</ele><time>2026-04-15T16:20:28.94Z</time></trkpt><trkpt lat="43.634244" lon="10.5758127"><ele>8.0</ele><time>2026-04-15T16:20:29.964Z</time></trkpt><trkpt lat="43.634239" lon="10.5754582"><ele>8.0</ele><time>2026-04-15T16:20:30.952Z</time></trkpt><trkpt lat="43.6342338" lon="10.5751057"><ele>9.0</ele><time>2026-04-15T16:20:31.973Z</time></trkpt><trkpt lat="43.6342278" lon="10.5747469"><ele>10.0</ele><time>2026-04-15T16:20:32.964Z</time></trkpt><trkpt lat="43.634222" lon="10.5743808"><ele>10.0</ele><time>2026-04-15T16:20:33.954Z</time></trkpt><trkpt lat="43.6342058" lon="10.5740182"><ele>10.0</ele><time>2026-04-15T16:20:34.964Z</time></trkpt><trkpt lat="43.6341822" lon="10.5736552"><ele>9.0</ele><time>2026-04-15T16:20:35.932Z</time></trkpt><trkpt lat="43.6341564" lon="10.5732895"><ele>8.0</ele><time>2026-04-15T16:20:36.962Z</time></trkpt><trkpt lat="43.634126" lon="10.572925"><ele>7.5</ele><time>2026-04-15T16:20:37.972Z</time></trkpt><trkpt lat="43.6340895" lon="10.5725538"><ele>7.0</ele><time>2026-04-15T16:20:38.966Z</time></trkpt><trkpt lat="43.6340499" lon="10.5721622"><ele>7.5</ele><time>2026-04-15T16:20:39.975Z</time></trkpt><trkpt lat="43.6340064" lon="10.5717513"><ele>8.0</ele><time>2026-04-15T16:20:40.967Z</time></trkpt><trkpt lat="43.6339469" lon="10.5713238"><ele>8.5</ele><time>2026-04-15T16:20:41.972Z</time></trkpt><trkpt lat="43.6338706" lon="10.5708828"><ele>9.0</ele><time>2026-04-15T16:20:42.939Z</time></trkpt><trkpt lat="43.6337818" lon="10.5704288"><ele>9.0</ele><time>2026-04-15T16:20:43.955Z</time></trkpt><trkpt lat="43.6336908" lon="10.5699729"><ele>9.0</ele><time>2026-04-15T16:20:44.955Z</time></trkpt><trkpt lat="43.6336047" lon="10.5695097"><ele>9.0</ele><time>2026-04-15T16:20:45.957Z</time></trkpt><trkpt lat="43.6335184" lon="10.569039"><ele>9.0</ele><time>2026-04-15T16:20:46.954Z</time></trkpt><trkpt lat="43.6334316" lon="10.5685612"><ele>9.0</ele><time>2026-04-15T16:20:47.961Z</time></trkpt><trkpt lat="43.6333432" lon="10.5680774"><ele>9.0</ele><time>2026-04-15T16:20:48.966Z</time></trkpt><trkpt lat="43.6332584" lon="10.5675996"><ele>9.0</ele><time>2026-04-15T16:20:49.978Z</time></trkpt><trkpt lat="43.6331727" lon="10.5671275"><ele>9.0</ele><time>2026-04-15T16:20:50.958Z</time></trkpt><trkpt lat="43.6330874" lon="10.56667"><ele>9.0</ele><time>2026-04-15T16:20:51.939Z</time></trkpt><trkpt lat="43.6330044" lon="10.5662229"><ele>9.0</ele><time>2026-04-15T16:20:52.948Z</time></trkpt><trkpt lat="43.6329272" lon="10.5657859"><ele>8.5</ele><time>2026-04-15T16:20:53.946Z</time></trkpt><trkpt lat="43.6328484" lon="10.56535"><ele>8.0</ele><time>2026-04-15T16:20:54.956Z</time></trkpt><trkpt lat="43.6327697" lon="10.5649214"><ele>8.0</ele><time>2026-04-15T16:20:55.93Z</time></trkpt><trkpt lat="43.6326907" lon="10.5644964"><ele>8.0</ele><time>2026-04-15T16:20:56.974Z</time></trkpt><trkpt lat="43.6326147" lon="10.5640763"><ele>7.0</ele><time>2026-04-15T16:20:57.954Z</time></trkpt><trkpt lat="43.6325398" lon="10.5636572"><ele>6.0</ele><time>2026-04-15T16:20:58.967Z</time></trkpt><trkpt lat="43.6324665" lon="10.5632451"><ele>7.0</ele><time>2026-04-15T16:20:59.981Z</time></trkpt><trkpt lat="43.6323908" lon="10.5628341"><ele>8.0</ele><time>2026-04-15T16:21:00.97Z</time></trkpt><trkpt lat="43.6323176" lon="10.5624248"><ele>8.0</ele><time>2026-04-15T16:21:01.955Z</time></trkpt><trkpt lat="43.6322436" lon="10.5620188"><ele>8.0</ele><time>2026-04-15T16:21:02.962Z</time></trkpt><trkpt lat="43.6321692" lon="10.5616124"><ele>8.0</ele><time>2026-04-15T16:21:03.951Z</time></trkpt><trkpt lat="43.6320953" lon="10.561206"><ele>8.0</ele><time>2026-04-15T16:21:04.941Z</time></trkpt><trkpt lat="43.6320237" lon="10.560797"><ele>8.0</ele><time>2026-04-15T16:21:05.952Z</time></trkpt><trkpt lat="43.6319558" lon="10.5603836"><ele>8.0</ele><time>2026-04-15T16:21:06.932Z</time></trkpt><trkpt lat="43.6318918" lon="10.559968"><ele>8.5</ele><time>2026-04-15T16:21:07.933Z</time></trkpt><trkpt lat="43.6318209" lon="10.5595473"><ele>9.0</ele><time>2026-04-15T16:21:08.954Z</time></trkpt><trkpt lat="43.6317458" lon="10.5591153"><ele>8.0</ele><time>2026-04-15T16:21:09.949Z</time></trkpt><trkpt lat="43.6316666" lon="10.5586781"><ele>7.0</ele><time>2026-04-15T16:21:11.054Z</time></trkpt><trkpt lat="43.6315903" lon="10.5582434"><ele>7.5</ele><time>2026-04-15T16:21:11.954Z</time></trkpt><trkpt lat="43.6315114" lon="10.5578078"><ele>8.0</ele><time>2026-04-15T16:21:12.947Z</time></trkpt><trkpt lat="43.6314336" lon="10.5573711"><ele>8.0</ele><time>2026-04-15T16:21:13.964Z</time></trkpt><trkpt lat="43.6313557" lon="10.5569339"><ele>8.0</ele><time>2026-04-15T16:21:14.965Z</time></trkpt><trkpt lat="43.6312778" lon="10.5565015"><ele>8.0</ele><time>2026-04-15T16:21:15.961Z</time></trkpt><trkpt lat="43.6312006" lon="10.5560699"><ele>8.0</ele><time>2026-04-15T16:21:17.056Z</time></trkpt><trkpt lat="43.6311217" lon="10.5556411"><ele>7.0</ele><time>2026-04-15T16:21:18.068Z</time></trkpt><trkpt lat="43.6310461" lon="10.5552126"><ele>6.0</ele><time>2026-04-15T16:21:19.063Z</time></trkpt><trkpt lat="43.6308946" lon="10.5543575"><ele>5.5</ele><time>2026-04-15T16:21:20.973Z</time></trkpt><trkpt lat="43.6308206" lon="10.5539306"><ele>5.0</ele><time>2026-04-15T16:21:21.96Z</time></trkpt><trkpt lat="43.6307459" lon="10.5535024"><ele>6.0</ele><time>2026-04-15T16:21:23.028Z</time></trkpt><trkpt lat="43.6306712" lon="10.5530815"><ele>7.0</ele><time>2026-04-15T16:21:24.046Z</time></trkpt><trkpt lat="43.6305968" lon="10.5526653"><ele>7.0</ele><time>2026-04-15T16:21:25.044Z</time></trkpt><trkpt lat="43.630525" lon="10.5522501"><ele>7.0</ele><time>2026-04-15T16:21:26.048Z</time></trkpt><trkpt lat="43.630453" lon="10.5518379"><ele>7.0</ele><time>2026-04-15T16:21:26.954Z</time></trkpt><trkpt lat="43.6303832" lon="10.5514291"><ele>7.0</ele><time>2026-04-15T16:21:27.938Z</time></trkpt><trkpt lat="43.6303128" lon="10.5510181"><ele>7.0</ele><time>2026-04-15T16:21:29.055Z</time></trkpt><trkpt lat="43.6302412" lon="10.5506117"><ele>7.0</ele><time>2026-04-15T16:21:30.035Z</time></trkpt><trkpt lat="43.6301696" lon="10.5502029"><ele>7.0</ele><time>2026-04-15T16:21:31.06Z</time></trkpt><trkpt lat="43.6301021" lon="10.5497938"><ele>7.0</ele><time>2026-04-15T16:21:32.061Z</time></trkpt><trkpt lat="43.6300391" lon="10.5493889"><ele>7.5</ele><time>2026-04-15T16:21:33.057Z</time></trkpt><trkpt lat="43.6299736" lon="10.5489768"><ele>8.0</ele><time>2026-04-15T16:21:33.965Z</time></trkpt><trkpt lat="43.6299031" lon="10.5485508"><ele>8.0</ele><time>2026-04-15T16:21:34.943Z</time></trkpt><trkpt lat="43.6298291" lon="10.548121"><ele>8.0</ele><time>2026-04-15T16:21:36.051Z</time></trkpt><trkpt lat="43.629752" lon="10.5476777"><ele>8.0</ele><time>2026-04-15T16:21:37.034Z</time></trkpt><trkpt lat="43.6296682" lon="10.5472227"><ele>8.0</ele><time>2026-04-15T16:21:38.032Z</time></trkpt><trkpt lat="43.6295846" lon="10.5467451"><ele>8.0</ele><time>2026-04-15T16:21:39.051Z</time></trkpt><trkpt lat="43.6295008" lon="10.54625"><ele>8.0</ele><time>2026-04-15T16:21:40.039Z</time></trkpt><trkpt lat="43.6294169" lon="10.5457362"><ele>8.0</ele><time>2026-04-15T16:21:40.941Z</time></trkpt><trkpt lat="43.6293342" lon="10.5452011"><ele>8.0</ele><time>2026-04-15T16:21:42.045Z</time></trkpt><trkpt lat="43.6292471" lon="10.5446598"><ele>8.0</ele><time>2026-04-15T16:21:43.044Z</time></trkpt><trkpt lat="43.6291588" lon="10.5441126"><ele>8.0</ele><time>2026-04-15T16:21:44.032Z</time></trkpt><trkpt lat="43.6290654" lon="10.5435553"><ele>8.0</ele><time>2026-04-15T16:21:45.048Z</time></trkpt><trkpt lat="43.6289708" lon="10.542982"><ele>8.0</ele><time>2026-04-15T16:21:46.05Z</time></trkpt><trkpt lat="43.6288735" lon="10.5423981"><ele>7.5</ele><time>2026-04-15T16:21:47.059Z</time></trkpt><trkpt lat="43.6287725" lon="10.5418056"><ele>7.0</ele><time>2026-04-15T16:21:48.057Z</time></trkpt><trkpt lat="43.6286711" lon="10.5412114"><ele>7.0</ele><time>2026-04-15T16:21:49.055Z</time></trkpt><trkpt lat="43.6285735" lon="10.5406312"><ele>7.0</ele><time>2026-04-15T16:21:50.031Z</time></trkpt><trkpt lat="43.6284832" lon="10.5400936"><ele>7.5</ele><time>2026-04-15T16:21:51.024Z</time></trkpt><trkpt lat="43.6284028" lon="10.5395918"><ele>8.0</ele><time>2026-04-15T16:21:52.056Z</time></trkpt><trkpt lat="43.6283229" lon="10.5391028"><ele>8.0</ele><time>2026-04-15T16:21:53.054Z</time></trkpt><trkpt lat="43.6282457" lon="10.5386195"><ele>8.0</ele><time>2026-04-15T16:21:54.036Z</time></trkpt><trkpt lat="43.6281702" lon="10.5381557"><ele>8.0</ele><time>2026-04-15T16:21:55.047Z</time></trkpt><trkpt lat="43.6280924" lon="10.5377212"><ele>8.0</ele><time>2026-04-15T16:21:56.043Z</time></trkpt><trkpt lat="43.6280179" lon="10.5373172"><ele>7.5</ele><time>2026-04-15T16:21:57.032Z</time></trkpt><trkpt lat="43.6279459" lon="10.5369417"><ele>7.0</ele><time>2026-04-15T16:21:58.039Z</time></trkpt><trkpt lat="43.6278713" lon="10.5365876"><ele>6.5</ele><time>2026-04-15T16:21:59.045Z</time></trkpt><trkpt lat="43.6278069" lon="10.5362457"><ele>6.0</ele><time>2026-04-15T16:22:00.03Z</time></trkpt><trkpt lat="43.627753" lon="10.5359237"><ele>6.333333333333334</ele><time>2026-04-15T16:22:01.047Z</time></trkpt><trkpt lat="43.6277064" lon="10.5356173"><ele>6.666666666666667</ele><time>2026-04-15T16:22:02.046Z</time></trkpt><trkpt lat="43.6276563" lon="10.5353267"><ele>7.0</ele><time>2026-04-15T16:22:03.041Z</time></trkpt><trkpt lat="43.6275926" lon="10.5350593"><ele>7.0</ele><time>2026-04-15T16:22:04.06Z</time></trkpt><trkpt lat="43.6275276" lon="10.5348023"><ele>7.0</ele><time>2026-04-15T16:22:05.038Z</time></trkpt><trkpt lat="43.6274645" lon="10.5345448"><ele>7.0</ele><time>2026-04-15T16:22:06.044Z</time></trkpt><trkpt lat="43.6274045" lon="10.5342842"><ele>7.333333333333334</ele><time>2026-04-15T16:22:07.045Z</time></trkpt><trkpt lat="43.6273437" lon="10.5340252"><ele>7.666666666666666</ele><time>2026-04-15T16:22:08.039Z</time></trkpt><trkpt lat="43.6272818" lon="10.5337697"><ele>8.0</ele><time>2026-04-15T16:22:09.044Z</time></trkpt><trkpt lat="43.6272212" lon="10.5335096"><ele>7.333333333333333</ele><time>2026-04-15T16:22:10.051Z</time></trkpt><trkpt lat="43.6271576" lon="10.5332479"><ele>6.666666666666666</ele><time>2026-04-15T16:22:11.058Z</time></trkpt><trkpt lat="43.6270902" lon="10.5329826"><ele>6.0</ele><time>2026-04-15T16:22:12.038Z</time></trkpt><trkpt lat="43.6270187" lon="10.5327189"><ele>6.0</ele><time>2026-04-15T16:22:13.046Z</time></trkpt><trkpt lat="43.6269481" lon="10.5324581"><ele>6.0</ele><time>2026-04-15T16:22:14.019Z</time></trkpt><trkpt lat="43.6268762" lon="10.5321969"><ele>6.0</ele><time>2026-04-15T16:22:15.033Z</time></trkpt><trkpt lat="43.6268061" lon="10.5319366"><ele>6.0</ele><time>2026-04-15T16:22:16.016Z</time></trkpt><trkpt lat="43.626733" lon="10.5316743"><ele>6.0</ele><time>2026-04-15T16:22:17.041Z</time></trkpt><trkpt lat="43.6266583" lon="10.5314085"><ele>6.0</ele><time>2026-04-15T16:22:18.049Z</time></trkpt><trkpt lat="43.6265829" lon="10.5311454"><ele>6.5</ele><time>2026-04-15T16:22:19.051Z</time></trkpt><trkpt lat="43.6265069" lon="10.5308795"><ele>7.0</ele><time>2026-04-15T16:22:20.055Z</time></trkpt><trkpt lat="43.6263541" lon="10.530343"><ele>7.333333333333334</ele><time>2026-04-15T16:22:22.062Z</time></trkpt><trkpt lat="43.6262839" lon="10.5300803"><ele>7.666666666666666</ele><time>2026-04-15T16:22:23.029Z</time></trkpt><trkpt lat="43.6262108" lon="10.5298234"><ele>8.0</ele><time>2026-04-15T16:22:24.026Z</time></trkpt><trkpt lat="43.626159" lon="10.5295846"><ele>7.666666666666666</ele><time>2026-04-15T16:22:25.011Z</time></trkpt><trkpt lat="43.6261525" lon="10.5293723"><ele>7.333333333333334</ele><time>2026-04-15T16:22:26.035Z</time></trkpt><trkpt lat="43.6262086" lon="10.5291742"><ele>7.0</ele><time>2026-04-15T16:22:27.067Z</time></trkpt><trkpt lat="43.6263165" lon="10.5289958"><ele>7.0</ele><time>2026-04-15T16:22:28.033Z</time></trkpt><trkpt lat="43.6264641" lon="10.5288537"><ele>7.0</ele><time>2026-04-15T16:22:29.03Z</time></trkpt><trkpt lat="43.6266509" lon="10.5287451"><ele>7.0</ele><time>2026-04-15T16:22:30.017Z</time></trkpt><trkpt lat="43.6268444" lon="10.5286339"><ele>7.333333333333334</ele><time>2026-04-15T16:22:31.022Z</time></trkpt><trkpt lat="43.6270528" lon="10.5285209"><ele>7.666666666666666</ele><time>2026-04-15T16:22:32.036Z</time></trkpt><trkpt lat="43.6272488" lon="10.5283973"><ele>8.0</ele><time>2026-04-15T16:22:33.042Z</time></trkpt><trkpt lat="43.6274324" lon="10.5282852"><ele>8.0</ele><time>2026-04-15T16:22:34.013Z</time></trkpt><trkpt lat="43.6276123" lon="10.5281981"><ele>8.0</ele><time>2026-04-15T16:22:35.012Z</time></trkpt><trkpt lat="43.6277812" lon="10.5281445"><ele>8.0</ele><time>2026-04-15T16:22:36.032Z</time></trkpt><trkpt lat="43.6279359" lon="10.5281544"><ele>8.0</ele><time>2026-04-15T16:22:37.023Z</time></trkpt><trkpt lat="43.628088" lon="10.5282257"><ele>8.0</ele><time>2026-04-15T16:22:38.016Z</time></trkpt><trkpt lat="43.6282202" lon="10.5283515"><ele>8.0</ele><time>2026-04-15T16:22:39.035Z</time></trkpt><trkpt lat="43.6283149" lon="10.5285224"><ele>8.0</ele><time>2026-04-15T16:22:40.029Z</time></trkpt><trkpt lat="43.6283717" lon="10.5287161"><ele>8.0</ele><time>2026-04-15T16:22:41.038Z</time></trkpt><trkpt lat="43.6283923" lon="10.5289265"><ele>8.0</ele><time>2026-04-15T16:22:42.075Z</time></trkpt><trkpt lat="43.6283735" lon="10.529133"><ele>8.0</ele><time>2026-04-15T16:22:43.014Z</time></trkpt><trkpt lat="43.6283329" lon="10.5293235"><ele>8.0</ele><time>2026-04-15T16:22:44.021Z</time></trkpt><trkpt lat="43.628285" lon="10.5294804"><ele>8.0</ele><time>2026-04-15T16:22:45.028Z</time></trkpt><trkpt lat="43.6282223" lon="10.529597"><ele>8.0</ele><time>2026-04-15T16:22:46.021Z</time></trkpt><trkpt lat="43.6281387" lon="10.5296732"><ele>8.0</ele><time>2026-04-15T16:22:47.012Z</time></trkpt><trkpt lat="43.6280228" lon="10.529696"><ele>8.0</ele><time>2026-04-15T16:22:48.013Z</time></trkpt><trkpt lat="43.6278867" lon="10.5296887"><ele>8.0</ele><time>2026-04-15T16:22:49.034Z</time></trkpt><trkpt lat="43.6277265" lon="10.529667"><ele>8.0</ele><time>2026-04-15T16:22:50.019Z</time></trkpt><trkpt lat="43.6275459" lon="10.5296434"><ele>7.666666666666666</ele><time>2026-04-15T16:22:51.009Z</time></trkpt><trkpt lat="43.6273509" lon="10.5296145"><ele>7.333333333333334</ele><time>2026-04-15T16:22:52.021Z</time></trkpt><trkpt lat="43.6271438" lon="10.5295775"><ele>7.0</ele><time>2026-04-15T16:22:53.015Z</time></trkpt><trkpt lat="43.6269342" lon="10.5295272"><ele>7.0</ele><time>2026-04-15T16:22:54.024Z</time></trkpt><trkpt lat="43.6267315" lon="10.5294703"><ele>7.0</ele><time>2026-04-15T16:22:55.04Z</time></trkpt><trkpt lat="43.6265266" lon="10.5294177"><ele>7.0</ele><time>2026-04-15T16:22:56.022Z</time></trkpt><trkpt lat="43.6263256" lon="10.5293651"><ele>7.666666666666667</ele><time>2026-04-15T16:22:57.025Z</time></trkpt><trkpt lat="43.6261251" lon="10.5293201"><ele>8.333333333333334</ele><time>2026-04-15T16:22:58.034Z</time></trkpt><trkpt lat="43.6259251" lon="10.529278"><ele>9.0</ele><time>2026-04-15T16:22:59.009Z</time></trkpt><trkpt lat="43.6257248" lon="10.5292317"><ele>9.0</ele><time>2026-04-15T16:23:00.044Z</time></trkpt><trkpt lat="43.6255281" lon="10.5291836"><ele>9.0</ele><time>2026-04-15T16:23:01.051Z</time></trkpt><trkpt lat="43.6253358" lon="10.5291358"><ele>9.0</ele><time>2026-04-15T16:23:02.031Z</time></trkpt><trkpt lat="43.6251466" lon="10.5290872"><ele>8.333333333333334</ele><time>2026-04-15T16:23:03.079Z</time></trkpt><trkpt lat="43.6249674" lon="10.5290413"><ele>7.666666666666667</ele><time>2026-04-15T16:23:04.018Z</time></trkpt><trkpt lat="43.6247977" lon="10.5289956"><ele>7.0</ele><time>2026-04-15T16:23:05.04Z</time></trkpt><trkpt lat="43.6246415" lon="10.5289599"><ele>7.0</ele><time>2026-04-15T16:23:06.039Z</time></trkpt><trkpt lat="43.6245068" lon="10.5289188"><ele>7.0</ele><time>2026-04-15T16:23:07.012Z</time></trkpt><trkpt lat="43.6243959" lon="10.5288478"><ele>7.0</ele><time>2026-04-15T16:23:08.044Z</time></trkpt><trkpt lat="43.6243006" lon="10.5287515"><ele>7.0</ele><time>2026-04-15T16:23:09.045Z</time></trkpt><trkpt lat="43.6242117" lon="10.5286362"><ele>6.8</ele><time>2026-04-15T16:23:10.034Z</time></trkpt><trkpt lat="43.6241068" lon="10.5285683"><ele>6.6</ele><time>2026-04-15T16:23:11.038Z</time></trkpt><trkpt lat="43.6239948" lon="10.5285708"><ele>6.3999999999999995</ele><time>2026-04-15T16:23:12.026Z</time></trkpt><trkpt lat="43.6238901" lon="10.5286129"><ele>6.199999999999999</ele><time>2026-04-15T16:23:13.028Z</time></trkpt><trkpt lat="43.6238001" lon="10.5286672"><ele>6.0</ele><time>2026-04-15T16:23:14.03Z</time></trkpt><trkpt lat="43.6237028" lon="10.5286925"><ele>6.25</ele><time>2026-04-15T16:23:15.043Z</time></trkpt><trkpt lat="43.6235898" lon="10.5286779"><ele>6.5</ele><time>2026-04-15T16:23:16.016Z</time></trkpt><trkpt lat="43.6234651" lon="10.5286518"><ele>6.75</ele><time>2026-04-15T16:23:17.01Z</time></trkpt><trkpt lat="43.6233385" lon="10.5286236"><ele>7.0</ele><time>2026-04-15T16:23:18.014Z</time></trkpt><trkpt lat="43.6232061" lon="10.5285989"><ele>7.0</ele><time>2026-04-15T16:23:19.016Z</time></trkpt><trkpt lat="43.6230694" lon="10.5285639"><ele>7.0</ele><time>2026-04-15T16:23:20.001Z</time></trkpt><trkpt lat="43.6228077" lon="10.5284937"><ele>7.0</ele><time>2026-04-15T16:23:22.022Z</time></trkpt><trkpt lat="43.6222641" lon="10.5283811"><ele>7.0</ele><time>2026-04-15T16:23:26.012Z</time></trkpt><trkpt lat="43.6220002" lon="10.5283184"><ele>7.0</ele><time>2026-04-15T16:23:28.028Z</time></trkpt><trkpt lat="43.6217583" lon="10.528264"><ele>7.3999999999999995</ele><time>2026-04-15T16:23:30.003Z</time></trkpt><trkpt lat="43.6216703" lon="10.5282388"><ele>7.799999999999999</ele><time>2026-04-15T16:23:31.004Z</time></trkpt><trkpt lat="43.6215583" lon="10.5281861"><ele>8.2</ele><time>2026-04-15T16:23:33.035Z</time></trkpt><trkpt lat="43.6214538" lon="10.5280873"><ele>8.6</ele><time>2026-04-15T16:23:35.005Z</time></trkpt><trkpt lat="43.6213812" lon="10.5280425"><ele>9.0</ele><time>2026-04-15T16:23:36.019Z</time></trkpt><trkpt lat="43.6212018" lon="10.5280479"><ele>9.333333333333334</ele><time>2026-04-15T16:23:38.004Z</time></trkpt><trkpt lat="43.6210931" lon="10.52807"><ele>9.666666666666668</ele><time>2026-04-15T16:23:39.032Z</time></trkpt><trkpt lat="43.6209763" lon="10.528063"><ele>10.0</ele><time>2026-04-15T16:23:40.006Z</time></trkpt><trkpt lat="43.6206072" lon="10.527978"><ele>10.0</ele><time>2026-04-15T16:23:43.017Z</time></trkpt><trkpt lat="43.6203381" lon="10.5279131"><ele>10.0</ele><time>2026-04-15T16:23:45.011Z</time></trkpt><trkpt lat="43.6202027" lon="10.527884"><ele>10.0</ele><time>2026-04-15T16:23:46.006Z</time></trkpt><trkpt lat="43.6199313" lon="10.5278099"><ele>10.25</ele><time>2026-04-15T16:23:48Z</time></trkpt><trkpt lat="43.6197955" lon="10.5277778"><ele>10.5</ele><time>2026-04-15T16:23:49.014Z</time></trkpt><trkpt lat="43.6196614" lon="10.5277424"><ele>10.75</ele><time>2026-04-15T16:23:50.015Z</time></trkpt><trkpt lat="43.6195272" lon="10.5277068"><ele>11.0</ele><time>2026-04-15T16:23:51.025Z</time></trkpt><trkpt lat="43.619397" lon="10.5276728"><ele>11.0</ele><time>2026-04-15T16:23:52.017Z</time></trkpt><trkpt lat="43.6192677" lon="10.527641"><ele>11.0</ele><time>2026-04-15T16:23:53.012Z</time></trkpt><trkpt lat="43.6191337" lon="10.5276184"><ele>11.0</ele><time>2026-04-15T16:23:54.034Z</time></trkpt><trkpt lat="43.6189994" lon="10.5276041"><ele>11.0</ele><time>2026-04-15T16:23:55.019Z</time></trkpt><trkpt lat="43.6188644" lon="10.5275963"><ele>11.0</ele><time>2026-04-15T16:23:55.999Z</time></trkpt><trkpt lat="43.6187251" lon="10.5275918"><ele>11.0</ele><time>2026-04-15T16:23:57.004Z</time></trkpt><trkpt lat="43.6184952" lon="10.5276011"><ele>11.0</ele><time>2026-04-15T16:23:59.024Z</time></trkpt><trkpt lat="43.6183855" lon="10.5276086"><ele>11.0</ele><time>2026-04-15T16:24:01.012Z</time></trkpt><trkpt lat="43.6183119" lon="10.5276151"><ele>11.0</ele><time>2026-04-15T16:24:03.03Z</time></trkpt><trkpt lat="43.6182256" lon="10.5276321"><ele>11.0</ele><time>2026-04-15T16:24:05.01Z</time></trkpt><trkpt lat="43.6181245" lon="10.5276436"><ele>11.0</ele><time>2026-04-15T16:24:07.003Z</time></trkpt><trkpt lat="43.618025" lon="10.5276616"><ele>11.0</ele><time>2026-04-15T16:24:09.006Z</time></trkpt><trkpt lat="43.6179328" lon="10.5276827"><ele>11.0</ele><time>2026-04-15T16:24:11.01Z</time></trkpt><trkpt lat="43.617824" lon="10.5277082"><ele>11.0</ele><time>2026-04-15T16:24:13.014Z</time></trkpt><trkpt lat="43.617722" lon="10.5277174"><ele>11.0</ele><time>2026-04-15T16:24:15.018Z</time></trkpt><trkpt lat="43.6176138" lon="10.5277382"><ele>11.0</ele><time>2026-04-15T16:24:17.007Z</time></trkpt><trkpt lat="43.6175501" lon="10.5277461"><ele>11.0</ele><time>2026-04-15T16:24:17.999Z</time></trkpt><trkpt lat="43.617481" lon="10.5277581"><ele>11.200000000000001</ele><time>2026-04-15T16:24:19.006Z</time></trkpt><trkpt lat="43.6174148" lon="10.5277677"><ele>11.4</ele><time>2026-04-15T16:24:20.015Z</time></trkpt><trkpt lat="43.6173437" lon="10.5277773"><ele>11.6</ele><time>2026-04-15T16:24:21.003Z</time></trkpt><trkpt lat="43.6172399" lon="10.5277933"><ele>11.8</ele><time>2026-04-15T16:24:22.006Z</time></trkpt><trkpt lat="43.6171143" lon="10.5278113"><ele>12.0</ele><time>2026-04-15T16:24:23.02Z</time></trkpt><trkpt lat="43.6169706" lon="10.5278252"><ele>11.5</ele><time>2026-04-15T16:24:24.042Z</time></trkpt><trkpt lat="43.6168259" lon="10.5278348"><ele>11.0</ele><time>2026-04-15T16:24:25.006Z</time></trkpt><trkpt lat="43.6166905" lon="10.5278348"><ele>10.5</ele><time>2026-04-15T16:24:26.007Z</time></trkpt><trkpt lat="43.6165572" lon="10.5278463"><ele>10.0</ele><time>2026-04-15T16:24:27.006Z</time></trkpt><trkpt lat="43.6164249" lon="10.5278756"><ele>10.666666666666668</ele><time>2026-04-15T16:24:28.017Z</time></trkpt><trkpt lat="43.6161468" lon="10.5279307"><ele>11.333333333333334</ele><time>2026-04-15T16:24:30.006Z</time></trkpt><trkpt lat="43.6160014" lon="10.527943"><ele>12.0</ele><time>2026-04-15T16:24:31.005Z</time></trkpt><trkpt lat="43.6158491" lon="10.5279687"><ele>12.0</ele><time>2026-04-15T16:24:32.016Z</time></trkpt><trkpt lat="43.6156949" lon="10.5279877"><ele>12.0</ele><time>2026-04-15T16:24:33.008Z</time></trkpt><trkpt lat="43.6155351" lon="10.5280005"><ele>12.0</ele><time>2026-04-15T16:24:34.022Z</time></trkpt><trkpt lat="43.6153769" lon="10.5280202"><ele>12.333333333333332</ele><time>2026-04-15T16:24:35.016Z</time></trkpt><trkpt lat="43.6152201" lon="10.528041"><ele>12.666666666666666</ele><time>2026-04-15T16:24:36.008Z</time></trkpt><trkpt lat="43.6150632" lon="10.5280606"><ele>13.0</ele><time>2026-04-15T16:24:36.999Z</time></trkpt><trkpt lat="43.6149089" lon="10.5280851"><ele>13.0</ele><time>2026-04-15T16:24:38.021Z</time></trkpt><trkpt lat="43.6147558" lon="10.5281109"><ele>13.0</ele><time>2026-04-15T16:24:39.019Z</time></trkpt><trkpt lat="43.6146015" lon="10.5281352"><ele>13.0</ele><time>2026-04-15T16:24:40.031Z</time></trkpt><trkpt lat="43.6144449" lon="10.5281528"><ele>12.666666666666666</ele><time>2026-04-15T16:24:41.023Z</time></trkpt><trkpt lat="43.6142877" lon="10.5281727"><ele>12.333333333333332</ele><time>2026-04-15T16:24:42.028Z</time></trkpt><trkpt lat="43.6141301" lon="10.5281881"><ele>12.0</ele><time>2026-04-15T16:24:43.027Z</time></trkpt><trkpt lat="43.6139699" lon="10.5282045"><ele>12.0</ele><time>2026-04-15T16:24:44.007Z</time></trkpt><trkpt lat="43.613805" lon="10.528215"><ele>12.0</ele><time>2026-04-15T16:24:45.019Z</time></trkpt><trkpt lat="43.6136403" lon="10.5282294"><ele>12.0</ele><time>2026-04-15T16:24:46.008Z</time></trkpt><trkpt lat="43.6134722" lon="10.5282359"><ele>12.666666666666668</ele><time>2026-04-15T16:24:47.008Z</time></trkpt><trkpt lat="43.6133035" lon="10.5282441"><ele>13.333333333333334</ele><time>2026-04-15T16:24:48.017Z</time></trkpt><trkpt lat="43.613138" lon="10.5282492"><ele>14.0</ele><time>2026-04-15T16:24:49.002Z</time></trkpt><trkpt lat="43.6129721" lon="10.5282575"><ele>14.333333333333334</ele><time>2026-04-15T16:24:50.007Z</time></trkpt><trkpt lat="43.612802" lon="10.5282681"><ele>14.666666666666668</ele><time>2026-04-15T16:24:51.007Z</time></trkpt><trkpt lat="43.6126328" lon="10.5282824"><ele>15.0</ele><time>2026-04-15T16:24:52.007Z</time></trkpt><trkpt lat="43.6124621" lon="10.5282964"><ele>15.0</ele><time>2026-04-15T16:24:53.003Z</time></trkpt><trkpt lat="43.6122858" lon="10.5283076"><ele>15.0</ele><time>2026-04-15T16:24:54.005Z</time></trkpt><trkpt lat="43.6121091" lon="10.5283191"><ele>15.0</ele><time>2026-04-15T16:24:55.016Z</time></trkpt><trkpt lat="43.6119277" lon="10.5283222"><ele>13.666666666666666</ele><time>2026-04-15T16:24:56.033Z</time></trkpt><trkpt lat="43.6117373" lon="10.5283245"><ele>12.333333333333332</ele><time>2026-04-15T16:24:57.003Z</time></trkpt><trkpt lat="43.6115475" lon="10.5283163"><ele>11.0</ele><time>2026-04-15T16:24:58.033Z</time></trkpt><trkpt lat="43.6113607" lon="10.5282871"><ele>11.0</ele><time>2026-04-15T16:24:59.012Z</time></trkpt><trkpt lat="43.6111761" lon="10.5282349"><ele>11.0</ele><time>2026-04-15T16:25:00.009Z</time></trkpt><trkpt lat="43.6109898" lon="10.5281606"><ele>11.0</ele><time>2026-04-15T16:25:01.007Z</time></trkpt><trkpt lat="43.610809" lon="10.5280773"><ele>10.666666666666666</ele><time>2026-04-15T16:25:02.036Z</time></trkpt><trkpt lat="43.6106299" lon="10.5279907"><ele>10.333333333333334</ele><time>2026-04-15T16:25:03.009Z</time></trkpt><trkpt lat="43.6104495" lon="10.5278941"><ele>10.0</ele><time>2026-04-15T16:25:04.018Z</time></trkpt><trkpt lat="43.610275" lon="10.5277888"><ele>11.0</ele><time>2026-04-15T16:25:05.003Z</time></trkpt><trkpt lat="43.6101022" lon="10.5276815"><ele>12.0</ele><time>2026-04-15T16:25:06.007Z</time></trkpt><trkpt lat="43.6099352" lon="10.5275674"><ele>13.0</ele><time>2026-04-15T16:25:07.016Z</time></trkpt><trkpt lat="43.6097687" lon="10.5274615"><ele>13.0</ele><time>2026-04-15T16:25:08.001Z</time></trkpt><trkpt lat="43.6096059" lon="10.5273631"><ele>13.0</ele><time>2026-04-15T16:25:09.012Z</time></trkpt><trkpt lat="43.6094439" lon="10.5272664"><ele>13.0</ele><time>2026-04-15T16:25:10.03Z</time></trkpt><trkpt lat="43.6092869" lon="10.5271647"><ele>14.0</ele><time>2026-04-15T16:25:11.014Z</time></trkpt><trkpt lat="43.6091321" lon="10.5270589"><ele>15.0</ele><time>2026-04-15T16:25:12.021Z</time></trkpt><trkpt lat="43.6089796" lon="10.5269649"><ele>16.0</ele><time>2026-04-15T16:25:13.019Z</time></trkpt><trkpt lat="43.6088274" lon="10.5268778"><ele>16.0</ele><time>2026-04-15T16:25:14.019Z</time></trkpt><trkpt lat="43.6086893" lon="10.5267826"><ele>16.0</ele><time>2026-04-15T16:25:15.015Z</time></trkpt><trkpt lat="43.6085693" lon="10.5266764"><ele>16.0</ele><time>2026-04-15T16:25:16.002Z</time></trkpt><trkpt lat="43.6084762" lon="10.5265335"><ele>16.0</ele><time>2026-04-15T16:25:17.015Z</time></trkpt><trkpt lat="43.6084169" lon="10.5263502"><ele>15.666666666666666</ele><time>2026-04-15T16:25:18.023Z</time></trkpt><trkpt lat="43.6083773" lon="10.5261388"><ele>15.333333333333332</ele><time>2026-04-15T16:25:19.017Z</time></trkpt><trkpt lat="43.6083668" lon="10.5259053"><ele>15.0</ele><time>2026-04-15T16:25:20.004Z</time></trkpt><trkpt lat="43.6083891" lon="10.5256312"><ele>15.5</ele><time>2026-04-15T16:25:21.001Z</time></trkpt><trkpt lat="43.6084219" lon="10.5252966"><ele>16.0</ele><time>2026-04-15T16:25:22.014Z</time></trkpt><trkpt lat="43.6084495" lon="10.5249155"><ele>15.5</ele><time>2026-04-15T16:25:23.005Z</time></trkpt><trkpt lat="43.6084785" lon="10.5245191"><ele>15.0</ele><time>2026-04-15T16:25:24.018Z</time></trkpt><trkpt lat="43.6085084" lon="10.5241227"><ele>15.0</ele><time>2026-04-15T16:25:25.008Z</time></trkpt><trkpt lat="43.6085465" lon="10.5237319"><ele>15.0</ele><time>2026-04-15T16:25:26.008Z</time></trkpt><trkpt lat="43.6085907" lon="10.5233291"><ele>14.5</ele><time>2026-04-15T16:25:27.017Z</time></trkpt><trkpt lat="43.6086563" lon="10.5228861"><ele>14.0</ele><time>2026-04-15T16:25:28.004Z</time></trkpt><trkpt lat="43.6087407" lon="10.5224209"><ele>14.0</ele><time>2026-04-15T16:25:29.001Z</time></trkpt><trkpt lat="43.6088271" lon="10.521947"><ele>14.0</ele><time>2026-04-15T16:25:30.011Z</time></trkpt><trkpt lat="43.6089134" lon="10.5214606"><ele>13.0</ele><time>2026-04-15T16:25:30.998Z</time></trkpt><trkpt lat="43.608994" lon="10.5209645"><ele>12.0</ele><time>2026-04-15T16:25:31.993Z</time></trkpt><trkpt lat="43.6090669" lon="10.5204958"><ele>12.0</ele><time>2026-04-15T16:25:33.012Z</time></trkpt><trkpt lat="43.6091318" lon="10.5200537"><ele>12.0</ele><time>2026-04-15T16:25:34.002Z</time></trkpt><trkpt lat="43.6091986" lon="10.5196434"><ele>12.0</ele><time>2026-04-15T16:25:35.009Z</time></trkpt><trkpt lat="43.6092655" lon="10.5192697"><ele>12.0</ele><time>2026-04-15T16:25:36.008Z</time></trkpt><trkpt lat="43.6093206" lon="10.5189356"><ele>12.5</ele><time>2026-04-15T16:25:37.003Z</time></trkpt><trkpt lat="43.6093571" lon="10.518613"><ele>13.0</ele><time>2026-04-15T16:25:37.998Z</time></trkpt><trkpt lat="43.6093529" lon="10.5183088"><ele>13.0</ele><time>2026-04-15T16:25:38.989Z</time></trkpt><trkpt lat="43.6093074" lon="10.5179986"><ele>13.0</ele><time>2026-04-15T16:25:40.016Z</time></trkpt><trkpt lat="43.609224" lon="10.5176699"><ele>12.5</ele><time>2026-04-15T16:25:41.007Z</time></trkpt><trkpt lat="43.6091458" lon="10.5173237"><ele>12.0</ele><time>2026-04-15T16:25:42.016Z</time></trkpt><trkpt lat="43.6090754" lon="10.5169822"><ele>11.5</ele><time>2026-04-15T16:25:43.006Z</time></trkpt><trkpt lat="43.6090062" lon="10.5166591"><ele>11.0</ele><time>2026-04-15T16:25:44.007Z</time></trkpt><trkpt lat="43.6089288" lon="10.516365"><ele>11.0</ele><time>2026-04-15T16:25:44.996Z</time></trkpt><trkpt lat="43.608837" lon="10.5160982"><ele>11.0</ele><time>2026-04-15T16:25:46.007Z</time></trkpt><trkpt lat="43.6087278" lon="10.5158502"><ele>11.0</ele><time>2026-04-15T16:25:47.014Z</time></trkpt><trkpt lat="43.6086029" lon="10.5155968"><ele>11.666666666666666</ele><time>2026-04-15T16:25:48.009Z</time></trkpt><trkpt lat="43.6084809" lon="10.5153465"><ele>12.333333333333332</ele><time>2026-04-15T16:25:48.998Z</time></trkpt><trkpt lat="43.6083689" lon="10.515101"><ele>13.0</ele><time>2026-04-15T16:25:50.005Z</time></trkpt><trkpt lat="43.6082608" lon="10.5148564"><ele>13.0</ele><time>2026-04-15T16:25:51.014Z</time></trkpt><trkpt lat="43.6081527" lon="10.5146198"><ele>13.0</ele><time>2026-04-15T16:25:52.026Z</time></trkpt><trkpt lat="43.6080453" lon="10.5143898"><ele>13.0</ele><time>2026-04-15T16:25:53.002Z</time></trkpt><trkpt lat="43.6079378" lon="10.5141609"><ele>13.0</ele><time>2026-04-15T16:25:54.01Z</time></trkpt><trkpt lat="43.6078336" lon="10.5139421"><ele>13.0</ele><time>2026-04-15T16:25:55.006Z</time></trkpt><trkpt lat="43.607736" lon="10.5137235"><ele>13.0</ele><time>2026-04-15T16:25:56.013Z</time></trkpt><trkpt lat="43.6076478" lon="10.513506"><ele>13.0</ele><time>2026-04-15T16:25:56.993Z</time></trkpt><trkpt lat="43.6075832" lon="10.513282"><ele>13.0</ele><time>2026-04-15T16:25:58.027Z</time></trkpt><trkpt lat="43.6075685" lon="10.5130435"><ele>13.0</ele><time>2026-04-15T16:25:58.997Z</time></trkpt><trkpt lat="43.6075905" lon="10.5128016"><ele>13.666666666666666</ele><time>2026-04-15T16:25:59.998Z</time></trkpt><trkpt lat="43.6076376" lon="10.5125634"><ele>14.333333333333332</ele><time>2026-04-15T16:26:01.003Z</time></trkpt><trkpt lat="43.6076873" lon="10.5123397"><ele>15.0</ele><time>2026-04-15T16:26:02.011Z</time></trkpt><trkpt lat="43.607736" lon="10.5121368"><ele>15.25</ele><time>2026-04-15T16:26:03.005Z</time></trkpt><trkpt lat="43.6077835" lon="10.5119479"><ele>15.5</ele><time>2026-04-15T16:26:04.019Z</time></trkpt><trkpt lat="43.607822" lon="10.5117911"><ele>15.75</ele><time>2026-04-15T16:26:05.016Z</time></trkpt><trkpt lat="43.6078575" lon="10.5116732"><ele>16.0</ele><time>2026-04-15T16:26:06.008Z</time></trkpt><trkpt lat="43.607822" lon="10.5115487"><ele>15.999999999999998</ele><time>2026-04-15T16:26:08.011Z</time></trkpt><trkpt lat="43.6077108" lon="10.5115876"><ele>16.0</ele><time>2026-04-15T16:26:10.031Z</time></trkpt><trkpt lat="43.6076405" lon="10.5116362"><ele>16.0</ele><time>2026-04-15T16:26:11.006Z</time></trkpt><trkpt lat="43.6075672" lon="10.5116738"><ele>16.0</ele><time>2026-04-15T16:26:12.011Z</time></trkpt><trkpt lat="43.6074999" lon="10.5116925"><ele>15.999999999999998</ele><time>2026-04-15T16:26:12.991Z</time></trkpt><trkpt lat="43.6074185" lon="10.511636"><ele>16.0</ele><time>2026-04-15T16:26:14.997Z</time></trkpt><trkpt lat="43.6074284" lon="10.5115335"><ele>16.0</ele><time>2026-04-15T16:26:16.993Z</time></trkpt><trkpt lat="43.6074929" lon="10.5114827"><ele>16.0</ele><time>2026-04-15T16:26:19.01Z</time></trkpt><trkpt lat="43.6075605" lon="10.5114395"><ele>16.0</ele><time>2026-04-15T16:26:23.012Z</time></trkpt></trkseg></trk></gpx>